<?xml version="1.0" encoding="UTF-8" standalone="no" ?>
<gpx xmlns="http://www.topografix.com/GPX/1/1" xmlns:xsi="http://www.w3.org/2001/XMLSchema-instance" xsi:schemaLocation="http://www.topografix.com/GPX/1/1 http://www.topografix.com/GPX/1/1/gpx.xsd" version="1.1" creator="VisuGPX - https://www.visugpx.com">
  <metadata>
    <name>Châlons/Saône-Lyon</name>
    <desc><![CDATA[Première itinérance avec Laurence
Première étape Pont de Vaux
Deuxième étape Trévoux

]]></desc>
  </metadata>
  <trk>
    <name><![CDATA[Première étape Châlons/ Pont de Vaux avec Laurence]]></name>
    <extensions>
      <line xmlns="http://www.topografix.com/GPX/gpx_style/0/2">
        <color>FF0000</color>
        <width>4</width>
      </line>
    </extensions>
    <trkseg>
      <trkpt lat="46.78085" lon="4.84464">
        <ele>182.6</ele>
        <time>2024-09-18T08:47:01Z</time>
      </trkpt>
      <trkpt lat="46.78085" lon="4.84464">
        <ele>182.6</ele>
        <time>2024-09-18T08:47:02Z</time>
      </trkpt>
      <trkpt lat="46.78085" lon="4.84464">
        <ele>182.6</ele>
        <time>2024-09-18T08:47:03Z</time>
      </trkpt>
      <trkpt lat="46.78082" lon="4.84466">
        <ele>182.2</ele>
        <time>2024-09-18T08:47:04Z</time>
      </trkpt>
      <trkpt lat="46.78078" lon="4.84468">
        <ele>182.2</ele>
        <time>2024-09-18T08:47:05Z</time>
      </trkpt>
      <trkpt lat="46.78075" lon="4.84471">
        <ele>182.2</ele>
        <time>2024-09-18T08:47:06Z</time>
      </trkpt>
      <trkpt lat="46.78073" lon="4.84473">
        <ele>182.6</ele>
        <time>2024-09-18T08:47:07Z</time>
      </trkpt>
      <trkpt lat="46.78069" lon="4.84477">
        <ele>182.4</ele>
        <time>2024-09-18T08:47:08Z</time>
      </trkpt>
      <trkpt lat="46.78066" lon="4.8448">
        <ele>182.4</ele>
        <time>2024-09-18T08:47:09Z</time>
      </trkpt>
      <trkpt lat="46.78063" lon="4.84482">
        <ele>182.4</ele>
        <time>2024-09-18T08:47:10Z</time>
      </trkpt>
      <trkpt lat="46.7806" lon="4.84485">
        <ele>182.4</ele>
        <time>2024-09-18T08:47:11Z</time>
      </trkpt>
      <trkpt lat="46.78057" lon="4.84488">
        <ele>182.4</ele>
        <time>2024-09-18T08:47:12Z</time>
      </trkpt>
      <trkpt lat="46.78054" lon="4.84491">
        <ele>182.2</ele>
        <time>2024-09-18T08:47:13Z</time>
      </trkpt>
      <trkpt lat="46.7805" lon="4.84494">
        <ele>182.2</ele>
        <time>2024-09-18T08:47:14Z</time>
      </trkpt>
      <trkpt lat="46.78047" lon="4.84496">
        <ele>182.2</ele>
        <time>2024-09-18T08:47:15Z</time>
      </trkpt>
      <trkpt lat="46.78044" lon="4.84498">
        <ele>182.2</ele>
        <time>2024-09-18T08:47:16Z</time>
      </trkpt>
      <trkpt lat="46.78041" lon="4.84501">
        <ele>182.2</ele>
        <time>2024-09-18T08:47:17Z</time>
      </trkpt>
      <trkpt lat="46.78037" lon="4.84505">
        <ele>182.2</ele>
        <time>2024-09-18T08:47:18Z</time>
      </trkpt>
      <trkpt lat="46.78034" lon="4.84508">
        <ele>182.2</ele>
        <time>2024-09-18T08:47:19Z</time>
      </trkpt>
      <trkpt lat="46.78031" lon="4.84511">
        <ele>182.2</ele>
        <time>2024-09-18T08:47:20Z</time>
      </trkpt>
      <trkpt lat="46.78028" lon="4.84513">
        <ele>182.2</ele>
        <time>2024-09-18T08:47:21Z</time>
      </trkpt>
      <trkpt lat="46.78026" lon="4.84516">
        <ele>182.2</ele>
        <time>2024-09-18T08:47:22Z</time>
      </trkpt>
      <trkpt lat="46.78023" lon="4.84519">
        <ele>182.2</ele>
        <time>2024-09-18T08:47:23Z</time>
      </trkpt>
      <trkpt lat="46.7802" lon="4.84522">
        <ele>182.2</ele>
        <time>2024-09-18T08:47:24Z</time>
      </trkpt>
      <trkpt lat="46.78017" lon="4.84524">
        <ele>182</ele>
        <time>2024-09-18T08:47:25Z</time>
      </trkpt>
      <trkpt lat="46.78014" lon="4.84526">
        <ele>181.8</ele>
        <time>2024-09-18T08:47:26Z</time>
      </trkpt>
      <trkpt lat="46.78012" lon="4.84527">
        <ele>181.8</ele>
        <time>2024-09-18T08:47:27Z</time>
      </trkpt>
      <trkpt lat="46.7801" lon="4.84528">
        <ele>181.8</ele>
        <time>2024-09-18T08:47:28Z</time>
      </trkpt>
      <trkpt lat="46.78008" lon="4.8453">
        <ele>181.8</ele>
        <time>2024-09-18T08:47:29Z</time>
      </trkpt>
      <trkpt lat="46.78006" lon="4.84532">
        <ele>181.8</ele>
        <time>2024-09-18T08:47:30Z</time>
      </trkpt>
      <trkpt lat="46.78004" lon="4.84534">
        <ele>181.8</ele>
        <time>2024-09-18T08:47:31Z</time>
      </trkpt>
      <trkpt lat="46.78002" lon="4.84536">
        <ele>181.8</ele>
        <time>2024-09-18T08:47:32Z</time>
      </trkpt>
      <trkpt lat="46.77999" lon="4.84538">
        <ele>181.8</ele>
        <time>2024-09-18T08:47:33Z</time>
      </trkpt>
      <trkpt lat="46.77997" lon="4.8454">
        <ele>181.8</ele>
        <time>2024-09-18T08:47:34Z</time>
      </trkpt>
      <trkpt lat="46.77994" lon="4.84542">
        <ele>181.6</ele>
        <time>2024-09-18T08:47:35Z</time>
      </trkpt>
      <trkpt lat="46.7799" lon="4.84544">
        <ele>181.6</ele>
        <time>2024-09-18T08:47:36Z</time>
      </trkpt>
      <trkpt lat="46.77985" lon="4.84547">
        <ele>181.6</ele>
        <time>2024-09-18T08:47:37Z</time>
      </trkpt>
      <trkpt lat="46.77984" lon="4.84548">
        <ele>181.6</ele>
        <time>2024-09-18T08:47:38Z</time>
      </trkpt>
      <trkpt lat="46.7798" lon="4.84551">
        <ele>181.6</ele>
        <time>2024-09-18T08:47:39Z</time>
      </trkpt>
      <trkpt lat="46.77977" lon="4.84554">
        <ele>181.8</ele>
        <time>2024-09-18T08:47:40Z</time>
      </trkpt>
      <trkpt lat="46.77973" lon="4.84557">
        <ele>181.8</ele>
        <time>2024-09-18T08:47:41Z</time>
      </trkpt>
      <trkpt lat="46.77969" lon="4.84561">
        <ele>181.8</ele>
        <time>2024-09-18T08:47:42Z</time>
      </trkpt>
      <trkpt lat="46.77966" lon="4.84564">
        <ele>181.6</ele>
        <time>2024-09-18T08:47:43Z</time>
      </trkpt>
      <trkpt lat="46.77962" lon="4.84566">
        <ele>181.4</ele>
        <time>2024-09-18T08:47:44Z</time>
      </trkpt>
      <trkpt lat="46.77958" lon="4.84568">
        <ele>181.4</ele>
        <time>2024-09-18T08:47:45Z</time>
      </trkpt>
      <trkpt lat="46.77954" lon="4.84571">
        <ele>181.4</ele>
        <time>2024-09-18T08:47:46Z</time>
      </trkpt>
      <trkpt lat="46.7795" lon="4.84573">
        <ele>181.4</ele>
        <time>2024-09-18T08:47:47Z</time>
      </trkpt>
      <trkpt lat="46.77946" lon="4.84576">
        <ele>181.6</ele>
        <time>2024-09-18T08:47:48Z</time>
      </trkpt>
      <trkpt lat="46.77943" lon="4.84579">
        <ele>181.6</ele>
        <time>2024-09-18T08:47:49Z</time>
      </trkpt>
      <trkpt lat="46.77941" lon="4.84582">
        <ele>181.6</ele>
        <time>2024-09-18T08:47:50Z</time>
      </trkpt>
      <trkpt lat="46.77938" lon="4.84584">
        <ele>181.6</ele>
        <time>2024-09-18T08:47:51Z</time>
      </trkpt>
      <trkpt lat="46.77936" lon="4.84587">
        <ele>181.2</ele>
        <time>2024-09-18T08:47:52Z</time>
      </trkpt>
      <trkpt lat="46.77934" lon="4.84589">
        <ele>180.8</ele>
        <time>2024-09-18T08:47:53Z</time>
      </trkpt>
      <trkpt lat="46.77932" lon="4.84591">
        <ele>180.8</ele>
        <time>2024-09-18T08:47:54Z</time>
      </trkpt>
      <trkpt lat="46.7793" lon="4.84593">
        <ele>180.8</ele>
        <time>2024-09-18T08:47:55Z</time>
      </trkpt>
      <trkpt lat="46.77929" lon="4.84596">
        <ele>180.6</ele>
        <time>2024-09-18T08:47:56Z</time>
      </trkpt>
      <trkpt lat="46.77927" lon="4.84599">
        <ele>180.6</ele>
        <time>2024-09-18T08:47:57Z</time>
      </trkpt>
      <trkpt lat="46.77925" lon="4.84601">
        <ele>180.6</ele>
        <time>2024-09-18T08:47:58Z</time>
      </trkpt>
      <trkpt lat="46.77922" lon="4.84603">
        <ele>180.6</ele>
        <time>2024-09-18T08:47:59Z</time>
      </trkpt>
      <trkpt lat="46.7792" lon="4.84605">
        <ele>180.6</ele>
        <time>2024-09-18T08:48:00Z</time>
      </trkpt>
      <trkpt lat="46.77919" lon="4.84606">
        <ele>180.6</ele>
        <time>2024-09-18T08:48:01Z</time>
      </trkpt>
      <trkpt lat="46.77917" lon="4.84608">
        <ele>180.6</ele>
        <time>2024-09-18T08:48:02Z</time>
      </trkpt>
      <trkpt lat="46.77916" lon="4.84609">
        <ele>180.6</ele>
        <time>2024-09-18T08:48:03Z</time>
      </trkpt>
      <trkpt lat="46.77915" lon="4.8461">
        <ele>180.6</ele>
        <time>2024-09-18T08:48:04Z</time>
      </trkpt>
      <trkpt lat="46.77914" lon="4.84611">
        <ele>180.8</ele>
        <time>2024-09-18T08:48:05Z</time>
      </trkpt>
      <trkpt lat="46.77913" lon="4.84612">
        <ele>180.8</ele>
        <time>2024-09-18T08:48:06Z</time>
      </trkpt>
      <trkpt lat="46.77912" lon="4.84613">
        <ele>180.8</ele>
        <time>2024-09-18T08:48:07Z</time>
      </trkpt>
      <trkpt lat="46.77911" lon="4.84614">
        <ele>180.8</ele>
        <time>2024-09-18T08:48:08Z</time>
      </trkpt>
      <trkpt lat="46.77909" lon="4.84616">
        <ele>180.8</ele>
        <time>2024-09-18T08:48:09Z</time>
      </trkpt>
      <trkpt lat="46.77908" lon="4.84617">
        <ele>180.8</ele>
        <time>2024-09-18T08:48:10Z</time>
      </trkpt>
      <trkpt lat="46.77907" lon="4.84618">
        <ele>180.8</ele>
        <time>2024-09-18T08:48:11Z</time>
      </trkpt>
      <trkpt lat="46.77905" lon="4.8462">
        <ele>180.8</ele>
        <time>2024-09-18T08:48:12Z</time>
      </trkpt>
      <trkpt lat="46.77904" lon="4.84621">
        <ele>180.8</ele>
        <time>2024-09-18T08:48:13Z</time>
      </trkpt>
      <trkpt lat="46.77902" lon="4.84622">
        <ele>180.8</ele>
        <time>2024-09-18T08:48:14Z</time>
      </trkpt>
      <trkpt lat="46.779" lon="4.84624">
        <ele>180.8</ele>
        <time>2024-09-18T08:48:15Z</time>
      </trkpt>
      <trkpt lat="46.77898" lon="4.84625">
        <ele>180.4</ele>
        <time>2024-09-18T08:48:16Z</time>
      </trkpt>
      <trkpt lat="46.77896" lon="4.84627">
        <ele>180.4</ele>
        <time>2024-09-18T08:48:17Z</time>
      </trkpt>
      <trkpt lat="46.77894" lon="4.8463">
        <ele>180.4</ele>
        <time>2024-09-18T08:48:18Z</time>
      </trkpt>
      <trkpt lat="46.77891" lon="4.84632">
        <ele>181</ele>
        <time>2024-09-18T08:48:19Z</time>
      </trkpt>
      <trkpt lat="46.77888" lon="4.84635">
        <ele>180.6</ele>
        <time>2024-09-18T08:48:20Z</time>
      </trkpt>
      <trkpt lat="46.77885" lon="4.84638">
        <ele>180.6</ele>
        <time>2024-09-18T08:48:21Z</time>
      </trkpt>
      <trkpt lat="46.77882" lon="4.84641">
        <ele>180.6</ele>
        <time>2024-09-18T08:48:22Z</time>
      </trkpt>
      <trkpt lat="46.77879" lon="4.84644">
        <ele>180.6</ele>
        <time>2024-09-18T08:48:23Z</time>
      </trkpt>
      <trkpt lat="46.77875" lon="4.84646">
        <ele>181.2</ele>
        <time>2024-09-18T08:48:24Z</time>
      </trkpt>
      <trkpt lat="46.77872" lon="4.84649">
        <ele>181.4</ele>
        <time>2024-09-18T08:48:25Z</time>
      </trkpt>
      <trkpt lat="46.77869" lon="4.84652">
        <ele>181.4</ele>
        <time>2024-09-18T08:48:26Z</time>
      </trkpt>
      <trkpt lat="46.77866" lon="4.84655">
        <ele>181.4</ele>
        <time>2024-09-18T08:48:27Z</time>
      </trkpt>
      <trkpt lat="46.77863" lon="4.84658">
        <ele>180.8</ele>
        <time>2024-09-18T08:48:28Z</time>
      </trkpt>
      <trkpt lat="46.77859" lon="4.84661">
        <ele>181</ele>
        <time>2024-09-18T08:48:29Z</time>
      </trkpt>
      <trkpt lat="46.77856" lon="4.84664">
        <ele>181</ele>
        <time>2024-09-18T08:48:30Z</time>
      </trkpt>
      <trkpt lat="46.77853" lon="4.84667">
        <ele>181</ele>
        <time>2024-09-18T08:48:31Z</time>
      </trkpt>
      <trkpt lat="46.77851" lon="4.8467">
        <ele>180.4</ele>
        <time>2024-09-18T08:48:32Z</time>
      </trkpt>
      <trkpt lat="46.77848" lon="4.84673">
        <ele>180.4</ele>
        <time>2024-09-18T08:48:33Z</time>
      </trkpt>
      <trkpt lat="46.77846" lon="4.84676">
        <ele>180.4</ele>
        <time>2024-09-18T08:48:34Z</time>
      </trkpt>
      <trkpt lat="46.77843" lon="4.84678">
        <ele>180.4</ele>
        <time>2024-09-18T08:48:35Z</time>
      </trkpt>
      <trkpt lat="46.7784" lon="4.8468">
        <ele>180.4</ele>
        <time>2024-09-18T08:48:36Z</time>
      </trkpt>
      <trkpt lat="46.77837" lon="4.84682">
        <ele>180.4</ele>
        <time>2024-09-18T08:48:37Z</time>
      </trkpt>
      <trkpt lat="46.77834" lon="4.84685">
        <ele>180.2</ele>
        <time>2024-09-18T08:48:38Z</time>
      </trkpt>
      <trkpt lat="46.77832" lon="4.84687">
        <ele>180.2</ele>
        <time>2024-09-18T08:48:39Z</time>
      </trkpt>
      <trkpt lat="46.7783" lon="4.84689">
        <ele>180.2</ele>
        <time>2024-09-18T08:48:40Z</time>
      </trkpt>
      <trkpt lat="46.77827" lon="4.84691">
        <ele>180.4</ele>
        <time>2024-09-18T08:48:41Z</time>
      </trkpt>
      <trkpt lat="46.77825" lon="4.84693">
        <ele>180.4</ele>
        <time>2024-09-18T08:48:42Z</time>
      </trkpt>
      <trkpt lat="46.77825" lon="4.84694">
        <ele>180.4</ele>
        <time>2024-09-18T08:48:43Z</time>
      </trkpt>
      <trkpt lat="46.77824" lon="4.84695">
        <ele>180.4</ele>
        <time>2024-09-18T08:48:44Z</time>
      </trkpt>
      <trkpt lat="46.77824" lon="4.84696">
        <ele>180.4</ele>
        <time>2024-09-18T08:48:45Z</time>
      </trkpt>
      <trkpt lat="46.77824" lon="4.84698">
        <ele>180.2</ele>
        <time>2024-09-18T08:48:46Z</time>
      </trkpt>
      <trkpt lat="46.77824" lon="4.84699">
        <ele>180.4</ele>
        <time>2024-09-18T08:48:47Z</time>
      </trkpt>
      <trkpt lat="46.77823" lon="4.847">
        <ele>180.4</ele>
        <time>2024-09-18T08:48:48Z</time>
      </trkpt>
      <trkpt lat="46.77823" lon="4.84701">
        <ele>180.4</ele>
        <time>2024-09-18T08:48:56Z</time>
      </trkpt>
      <trkpt lat="46.77823" lon="4.84702">
        <ele>180.4</ele>
        <time>2024-09-18T08:48:57Z</time>
      </trkpt>
      <trkpt lat="46.77824" lon="4.84704">
        <ele>180.4</ele>
        <time>2024-09-18T08:48:58Z</time>
      </trkpt>
      <trkpt lat="46.77825" lon="4.84707">
        <ele>180.2</ele>
        <time>2024-09-18T08:48:59Z</time>
      </trkpt>
      <trkpt lat="46.77827" lon="4.8471">
        <ele>180.2</ele>
        <time>2024-09-18T08:49:00Z</time>
      </trkpt>
      <trkpt lat="46.77828" lon="4.84712">
        <ele>180.2</ele>
        <time>2024-09-18T08:49:01Z</time>
      </trkpt>
      <trkpt lat="46.77829" lon="4.84716">
        <ele>180.2</ele>
        <time>2024-09-18T08:49:02Z</time>
      </trkpt>
      <trkpt lat="46.7783" lon="4.84719">
        <ele>180.2</ele>
        <time>2024-09-18T08:49:03Z</time>
      </trkpt>
      <trkpt lat="46.77831" lon="4.84723">
        <ele>180.2</ele>
        <time>2024-09-18T08:49:04Z</time>
      </trkpt>
      <trkpt lat="46.77832" lon="4.84727">
        <ele>180.4</ele>
        <time>2024-09-18T08:49:05Z</time>
      </trkpt>
      <trkpt lat="46.77833" lon="4.84732">
        <ele>180.4</ele>
        <time>2024-09-18T08:49:06Z</time>
      </trkpt>
      <trkpt lat="46.77835" lon="4.84736">
        <ele>180.4</ele>
        <time>2024-09-18T08:49:07Z</time>
      </trkpt>
      <trkpt lat="46.77836" lon="4.8474">
        <ele>180.4</ele>
        <time>2024-09-18T08:49:08Z</time>
      </trkpt>
      <trkpt lat="46.77837" lon="4.84745">
        <ele>180.4</ele>
        <time>2024-09-18T08:49:09Z</time>
      </trkpt>
      <trkpt lat="46.77838" lon="4.84749">
        <ele>180.4</ele>
        <time>2024-09-18T08:49:10Z</time>
      </trkpt>
      <trkpt lat="46.7784" lon="4.84752">
        <ele>180.4</ele>
        <time>2024-09-18T08:49:11Z</time>
      </trkpt>
      <trkpt lat="46.77841" lon="4.84755">
        <ele>180.4</ele>
        <time>2024-09-18T08:49:12Z</time>
      </trkpt>
      <trkpt lat="46.77842" lon="4.84759">
        <ele>180.4</ele>
        <time>2024-09-18T08:49:13Z</time>
      </trkpt>
      <trkpt lat="46.77842" lon="4.84762">
        <ele>180.6</ele>
        <time>2024-09-18T08:49:14Z</time>
      </trkpt>
      <trkpt lat="46.77843" lon="4.84765">
        <ele>180.6</ele>
        <time>2024-09-18T08:49:15Z</time>
      </trkpt>
      <trkpt lat="46.77844" lon="4.84768">
        <ele>180.6</ele>
        <time>2024-09-18T08:49:16Z</time>
      </trkpt>
      <trkpt lat="46.77845" lon="4.8477">
        <ele>180.6</ele>
        <time>2024-09-18T08:49:17Z</time>
      </trkpt>
      <trkpt lat="46.77845" lon="4.84772">
        <ele>180.6</ele>
        <time>2024-09-18T08:49:18Z</time>
      </trkpt>
      <trkpt lat="46.77846" lon="4.84774">
        <ele>180.6</ele>
        <time>2024-09-18T08:49:19Z</time>
      </trkpt>
      <trkpt lat="46.77847" lon="4.84777">
        <ele>180.6</ele>
        <time>2024-09-18T08:49:20Z</time>
      </trkpt>
      <trkpt lat="46.77849" lon="4.8478">
        <ele>180.6</ele>
        <time>2024-09-18T08:49:21Z</time>
      </trkpt>
      <trkpt lat="46.7785" lon="4.84784">
        <ele>180.6</ele>
        <time>2024-09-18T08:49:22Z</time>
      </trkpt>
      <trkpt lat="46.77851" lon="4.84787">
        <ele>180.8</ele>
        <time>2024-09-18T08:49:23Z</time>
      </trkpt>
      <trkpt lat="46.77852" lon="4.8479">
        <ele>180.8</ele>
        <time>2024-09-18T08:49:24Z</time>
      </trkpt>
      <trkpt lat="46.77853" lon="4.84793">
        <ele>180.8</ele>
        <time>2024-09-18T08:49:25Z</time>
      </trkpt>
      <trkpt lat="46.77854" lon="4.84795">
        <ele>180.6</ele>
        <time>2024-09-18T08:49:26Z</time>
      </trkpt>
      <trkpt lat="46.77855" lon="4.84798">
        <ele>180.4</ele>
        <time>2024-09-18T08:49:27Z</time>
      </trkpt>
      <trkpt lat="46.77856" lon="4.84802">
        <ele>180.4</ele>
        <time>2024-09-18T08:49:28Z</time>
      </trkpt>
      <trkpt lat="46.77857" lon="4.84806">
        <ele>180.4</ele>
        <time>2024-09-18T08:49:29Z</time>
      </trkpt>
      <trkpt lat="46.77858" lon="4.84809">
        <ele>180.4</ele>
        <time>2024-09-18T08:49:30Z</time>
      </trkpt>
      <trkpt lat="46.77859" lon="4.84812">
        <ele>180.6</ele>
        <time>2024-09-18T08:49:31Z</time>
      </trkpt>
      <trkpt lat="46.77861" lon="4.84816">
        <ele>180.6</ele>
        <time>2024-09-18T08:49:32Z</time>
      </trkpt>
      <trkpt lat="46.77862" lon="4.8482">
        <ele>180.6</ele>
        <time>2024-09-18T08:49:33Z</time>
      </trkpt>
      <trkpt lat="46.77863" lon="4.84824">
        <ele>180.6</ele>
        <time>2024-09-18T08:49:34Z</time>
      </trkpt>
      <trkpt lat="46.77865" lon="4.84827">
        <ele>180.6</ele>
        <time>2024-09-18T08:49:35Z</time>
      </trkpt>
      <trkpt lat="46.77865" lon="4.84831">
        <ele>180.4</ele>
        <time>2024-09-18T08:49:36Z</time>
      </trkpt>
      <trkpt lat="46.77866" lon="4.84835">
        <ele>180.4</ele>
        <time>2024-09-18T08:49:37Z</time>
      </trkpt>
      <trkpt lat="46.77866" lon="4.84839">
        <ele>180.4</ele>
        <time>2024-09-18T08:49:38Z</time>
      </trkpt>
      <trkpt lat="46.77867" lon="4.84842">
        <ele>180.6</ele>
        <time>2024-09-18T08:49:39Z</time>
      </trkpt>
      <trkpt lat="46.77868" lon="4.84847">
        <ele>180.4</ele>
        <time>2024-09-18T08:49:40Z</time>
      </trkpt>
      <trkpt lat="46.77869" lon="4.8485">
        <ele>180.4</ele>
        <time>2024-09-18T08:49:41Z</time>
      </trkpt>
      <trkpt lat="46.7787" lon="4.84853">
        <ele>180.4</ele>
        <time>2024-09-18T08:49:42Z</time>
      </trkpt>
      <trkpt lat="46.77872" lon="4.84856">
        <ele>180.4</ele>
        <time>2024-09-18T08:49:43Z</time>
      </trkpt>
      <trkpt lat="46.77872" lon="4.84858">
        <ele>180.4</ele>
        <time>2024-09-18T08:49:44Z</time>
      </trkpt>
      <trkpt lat="46.77873" lon="4.84861">
        <ele>180.4</ele>
        <time>2024-09-18T08:49:45Z</time>
      </trkpt>
      <trkpt lat="46.77874" lon="4.84864">
        <ele>180.6</ele>
        <time>2024-09-18T08:49:46Z</time>
      </trkpt>
      <trkpt lat="46.77875" lon="4.84867">
        <ele>180.6</ele>
        <time>2024-09-18T08:49:47Z</time>
      </trkpt>
      <trkpt lat="46.77875" lon="4.84869">
        <ele>180.6</ele>
        <time>2024-09-18T08:49:48Z</time>
      </trkpt>
      <trkpt lat="46.77875" lon="4.84873">
        <ele>180.6</ele>
        <time>2024-09-18T08:49:49Z</time>
      </trkpt>
      <trkpt lat="46.77876" lon="4.84875">
        <ele>180.6</ele>
        <time>2024-09-18T08:49:50Z</time>
      </trkpt>
      <trkpt lat="46.77877" lon="4.84883">
        <ele>180.6</ele>
        <time>2024-09-18T08:49:51Z</time>
      </trkpt>
      <trkpt lat="46.77878" lon="4.84885">
        <ele>180.6</ele>
        <time>2024-09-18T08:49:52Z</time>
      </trkpt>
      <trkpt lat="46.77879" lon="4.84891">
        <ele>180.6</ele>
        <time>2024-09-18T08:49:53Z</time>
      </trkpt>
      <trkpt lat="46.77881" lon="4.84896">
        <ele>180.8</ele>
        <time>2024-09-18T08:49:54Z</time>
      </trkpt>
      <trkpt lat="46.77882" lon="4.849">
        <ele>180.6</ele>
        <time>2024-09-18T08:49:55Z</time>
      </trkpt>
      <trkpt lat="46.77884" lon="4.84906">
        <ele>180.6</ele>
        <time>2024-09-18T08:49:56Z</time>
      </trkpt>
      <trkpt lat="46.77887" lon="4.84911">
        <ele>180.6</ele>
        <time>2024-09-18T08:49:57Z</time>
      </trkpt>
      <trkpt lat="46.7789" lon="4.84916">
        <ele>180.6</ele>
        <time>2024-09-18T08:49:58Z</time>
      </trkpt>
      <trkpt lat="46.77892" lon="4.84922">
        <ele>180.8</ele>
        <time>2024-09-18T08:49:59Z</time>
      </trkpt>
      <trkpt lat="46.77895" lon="4.84929">
        <ele>180.8</ele>
        <time>2024-09-18T08:50:00Z</time>
      </trkpt>
      <trkpt lat="46.77897" lon="4.84934">
        <ele>180.8</ele>
        <time>2024-09-18T08:50:01Z</time>
      </trkpt>
      <trkpt lat="46.77899" lon="4.84939">
        <ele>180.8</ele>
        <time>2024-09-18T08:50:02Z</time>
      </trkpt>
      <trkpt lat="46.77901" lon="4.84944">
        <ele>180.8</ele>
        <time>2024-09-18T08:50:03Z</time>
      </trkpt>
      <trkpt lat="46.77903" lon="4.84949">
        <ele>180.8</ele>
        <time>2024-09-18T08:50:04Z</time>
      </trkpt>
      <trkpt lat="46.77905" lon="4.84953">
        <ele>180.8</ele>
        <time>2024-09-18T08:50:05Z</time>
      </trkpt>
      <trkpt lat="46.77906" lon="4.84957">
        <ele>180.8</ele>
        <time>2024-09-18T08:50:06Z</time>
      </trkpt>
      <trkpt lat="46.77908" lon="4.84961">
        <ele>181.2</ele>
        <time>2024-09-18T08:50:07Z</time>
      </trkpt>
      <trkpt lat="46.77909" lon="4.84965">
        <ele>181</ele>
        <time>2024-09-18T08:50:08Z</time>
      </trkpt>
      <trkpt lat="46.77909" lon="4.84968">
        <ele>181</ele>
        <time>2024-09-18T08:50:09Z</time>
      </trkpt>
      <trkpt lat="46.77909" lon="4.8497">
        <ele>181</ele>
        <time>2024-09-18T08:50:10Z</time>
      </trkpt>
      <trkpt lat="46.77909" lon="4.84972">
        <ele>181.2</ele>
        <time>2024-09-18T08:50:11Z</time>
      </trkpt>
      <trkpt lat="46.77909" lon="4.84973">
        <ele>181.2</ele>
        <time>2024-09-18T08:50:12Z</time>
      </trkpt>
      <trkpt lat="46.77909" lon="4.84974">
        <ele>181.2</ele>
        <time>2024-09-18T08:50:13Z</time>
      </trkpt>
      <trkpt lat="46.77909" lon="4.84974">
        <ele>181.2</ele>
        <time>2024-09-18T08:50:14Z</time>
      </trkpt>
      <trkpt lat="46.77909" lon="4.84975">
        <ele>181</ele>
        <time>2024-09-18T08:50:15Z</time>
      </trkpt>
      <trkpt lat="46.7791" lon="4.84978">
        <ele>181</ele>
        <time>2024-09-18T08:50:16Z</time>
      </trkpt>
      <trkpt lat="46.77911" lon="4.8498">
        <ele>181</ele>
        <time>2024-09-18T08:50:17Z</time>
      </trkpt>
      <trkpt lat="46.77912" lon="4.84981">
        <ele>181</ele>
        <time>2024-09-18T08:50:18Z</time>
      </trkpt>
      <trkpt lat="46.77914" lon="4.84982">
        <ele>181</ele>
        <time>2024-09-18T08:50:19Z</time>
      </trkpt>
      <trkpt lat="46.77915" lon="4.84983">
        <ele>180.8</ele>
        <time>2024-09-18T08:50:20Z</time>
      </trkpt>
      <trkpt lat="46.77917" lon="4.84985">
        <ele>180.8</ele>
        <time>2024-09-18T08:50:21Z</time>
      </trkpt>
      <trkpt lat="46.77918" lon="4.84987">
        <ele>180.8</ele>
        <time>2024-09-18T08:50:22Z</time>
      </trkpt>
      <trkpt lat="46.7792" lon="4.8499">
        <ele>180.8</ele>
        <time>2024-09-18T08:50:23Z</time>
      </trkpt>
      <trkpt lat="46.77921" lon="4.84992">
        <ele>181</ele>
        <time>2024-09-18T08:50:24Z</time>
      </trkpt>
      <trkpt lat="46.77922" lon="4.84995">
        <ele>181</ele>
        <time>2024-09-18T08:50:25Z</time>
      </trkpt>
      <trkpt lat="46.77923" lon="4.84998">
        <ele>181</ele>
        <time>2024-09-18T08:50:26Z</time>
      </trkpt>
      <trkpt lat="46.77924" lon="4.85">
        <ele>181</ele>
        <time>2024-09-18T08:50:27Z</time>
      </trkpt>
      <trkpt lat="46.77925" lon="4.85003">
        <ele>181</ele>
        <time>2024-09-18T08:50:28Z</time>
      </trkpt>
      <trkpt lat="46.77926" lon="4.85006">
        <ele>181</ele>
        <time>2024-09-18T08:50:29Z</time>
      </trkpt>
      <trkpt lat="46.77927" lon="4.85009">
        <ele>181</ele>
        <time>2024-09-18T08:50:30Z</time>
      </trkpt>
      <trkpt lat="46.77927" lon="4.85011">
        <ele>180.8</ele>
        <time>2024-09-18T08:50:31Z</time>
      </trkpt>
      <trkpt lat="46.77928" lon="4.85012">
        <ele>180.8</ele>
        <time>2024-09-18T08:50:32Z</time>
      </trkpt>
      <trkpt lat="46.77928" lon="4.85014">
        <ele>180.8</ele>
        <time>2024-09-18T08:50:33Z</time>
      </trkpt>
      <trkpt lat="46.77928" lon="4.85015">
        <ele>180.8</ele>
        <time>2024-09-18T08:50:34Z</time>
      </trkpt>
      <trkpt lat="46.77928" lon="4.85016">
        <ele>180.6</ele>
        <time>2024-09-18T08:50:35Z</time>
      </trkpt>
      <trkpt lat="46.77928" lon="4.85016">
        <ele>180.6</ele>
        <time>2024-09-18T08:50:36Z</time>
      </trkpt>
      <trkpt lat="46.77928" lon="4.85018">
        <ele>180.6</ele>
        <time>2024-09-18T08:50:37Z</time>
      </trkpt>
      <trkpt lat="46.77929" lon="4.85019">
        <ele>180.6</ele>
        <time>2024-09-18T08:50:38Z</time>
      </trkpt>
      <trkpt lat="46.77929" lon="4.85019">
        <ele>180.2</ele>
        <time>2024-09-18T08:50:39Z</time>
      </trkpt>
      <trkpt lat="46.77929" lon="4.85021">
        <ele>180.6</ele>
        <time>2024-09-18T08:50:40Z</time>
      </trkpt>
      <trkpt lat="46.77929" lon="4.85022">
        <ele>180.6</ele>
        <time>2024-09-18T08:50:41Z</time>
      </trkpt>
      <trkpt lat="46.77928" lon="4.85024">
        <ele>180.6</ele>
        <time>2024-09-18T08:50:42Z</time>
      </trkpt>
      <trkpt lat="46.77927" lon="4.85026">
        <ele>180.6</ele>
        <time>2024-09-18T08:50:43Z</time>
      </trkpt>
      <trkpt lat="46.77927" lon="4.85028">
        <ele>180.8</ele>
        <time>2024-09-18T08:50:44Z</time>
      </trkpt>
      <trkpt lat="46.77927" lon="4.85031">
        <ele>180.8</ele>
        <time>2024-09-18T08:50:45Z</time>
      </trkpt>
      <trkpt lat="46.77927" lon="4.85033">
        <ele>180.8</ele>
        <time>2024-09-18T08:50:46Z</time>
      </trkpt>
      <trkpt lat="46.77926" lon="4.85035">
        <ele>180.8</ele>
        <time>2024-09-18T08:50:47Z</time>
      </trkpt>
      <trkpt lat="46.77926" lon="4.85036">
        <ele>180.8</ele>
        <time>2024-09-18T08:50:48Z</time>
      </trkpt>
      <trkpt lat="46.77925" lon="4.85037">
        <ele>180.8</ele>
        <time>2024-09-18T08:50:49Z</time>
      </trkpt>
      <trkpt lat="46.77925" lon="4.85039">
        <ele>180.8</ele>
        <time>2024-09-18T08:50:50Z</time>
      </trkpt>
      <trkpt lat="46.77924" lon="4.8504">
        <ele>180.8</ele>
        <time>2024-09-18T08:50:51Z</time>
      </trkpt>
      <trkpt lat="46.77923" lon="4.85043">
        <ele>180.4</ele>
        <time>2024-09-18T08:50:52Z</time>
      </trkpt>
      <trkpt lat="46.77922" lon="4.85047">
        <ele>180.6</ele>
        <time>2024-09-18T08:50:53Z</time>
      </trkpt>
      <trkpt lat="46.77922" lon="4.85051">
        <ele>180.6</ele>
        <time>2024-09-18T08:50:54Z</time>
      </trkpt>
      <trkpt lat="46.77923" lon="4.85055">
        <ele>180.6</ele>
        <time>2024-09-18T08:50:55Z</time>
      </trkpt>
      <trkpt lat="46.77924" lon="4.85059">
        <ele>180.6</ele>
        <time>2024-09-18T08:50:56Z</time>
      </trkpt>
      <trkpt lat="46.77926" lon="4.85064">
        <ele>180.8</ele>
        <time>2024-09-18T08:50:57Z</time>
      </trkpt>
      <trkpt lat="46.77927" lon="4.85068">
        <ele>180.8</ele>
        <time>2024-09-18T08:50:58Z</time>
      </trkpt>
      <trkpt lat="46.77929" lon="4.85073">
        <ele>180.8</ele>
        <time>2024-09-18T08:50:59Z</time>
      </trkpt>
      <trkpt lat="46.77931" lon="4.85079">
        <ele>180.8</ele>
        <time>2024-09-18T08:51:00Z</time>
      </trkpt>
      <trkpt lat="46.77932" lon="4.85082">
        <ele>180.8</ele>
        <time>2024-09-18T08:51:01Z</time>
      </trkpt>
      <trkpt lat="46.77934" lon="4.85087">
        <ele>181.2</ele>
        <time>2024-09-18T08:51:02Z</time>
      </trkpt>
      <trkpt lat="46.77935" lon="4.85092">
        <ele>181.2</ele>
        <time>2024-09-18T08:51:03Z</time>
      </trkpt>
      <trkpt lat="46.77937" lon="4.85097">
        <ele>181.2</ele>
        <time>2024-09-18T08:51:04Z</time>
      </trkpt>
      <trkpt lat="46.77939" lon="4.85101">
        <ele>181.2</ele>
        <time>2024-09-18T08:51:05Z</time>
      </trkpt>
      <trkpt lat="46.7794" lon="4.85105">
        <ele>180.8</ele>
        <time>2024-09-18T08:51:06Z</time>
      </trkpt>
      <trkpt lat="46.77941" lon="4.8511">
        <ele>180.8</ele>
        <time>2024-09-18T08:51:07Z</time>
      </trkpt>
      <trkpt lat="46.77942" lon="4.85113">
        <ele>180.8</ele>
        <time>2024-09-18T08:51:08Z</time>
      </trkpt>
      <trkpt lat="46.77942" lon="4.85116">
        <ele>180.8</ele>
        <time>2024-09-18T08:51:09Z</time>
      </trkpt>
      <trkpt lat="46.77942" lon="4.8512">
        <ele>180.8</ele>
        <time>2024-09-18T08:51:10Z</time>
      </trkpt>
      <trkpt lat="46.77943" lon="4.85125">
        <ele>181.6</ele>
        <time>2024-09-18T08:51:11Z</time>
      </trkpt>
      <trkpt lat="46.77944" lon="4.85127">
        <ele>181.6</ele>
        <time>2024-09-18T08:51:12Z</time>
      </trkpt>
      <trkpt lat="46.77945" lon="4.85131">
        <ele>181.6</ele>
        <time>2024-09-18T08:51:13Z</time>
      </trkpt>
      <trkpt lat="46.77946" lon="4.85135">
        <ele>181.6</ele>
        <time>2024-09-18T08:51:14Z</time>
      </trkpt>
      <trkpt lat="46.77946" lon="4.85139">
        <ele>181</ele>
        <time>2024-09-18T08:51:15Z</time>
      </trkpt>
      <trkpt lat="46.77947" lon="4.85144">
        <ele>181</ele>
        <time>2024-09-18T08:51:16Z</time>
      </trkpt>
      <trkpt lat="46.77949" lon="4.85148">
        <ele>181</ele>
        <time>2024-09-18T08:51:17Z</time>
      </trkpt>
      <trkpt lat="46.7795" lon="4.85153">
        <ele>181</ele>
        <time>2024-09-18T08:51:18Z</time>
      </trkpt>
      <trkpt lat="46.77952" lon="4.85158">
        <ele>181</ele>
        <time>2024-09-18T08:51:19Z</time>
      </trkpt>
      <trkpt lat="46.77953" lon="4.85163">
        <ele>181</ele>
        <time>2024-09-18T08:51:20Z</time>
      </trkpt>
      <trkpt lat="46.77954" lon="4.85168">
        <ele>181</ele>
        <time>2024-09-18T08:51:21Z</time>
      </trkpt>
      <trkpt lat="46.77956" lon="4.85173">
        <ele>181</ele>
        <time>2024-09-18T08:51:22Z</time>
      </trkpt>
      <trkpt lat="46.77958" lon="4.85178">
        <ele>181</ele>
        <time>2024-09-18T08:51:23Z</time>
      </trkpt>
      <trkpt lat="46.77961" lon="4.85183">
        <ele>180.8</ele>
        <time>2024-09-18T08:51:24Z</time>
      </trkpt>
      <trkpt lat="46.77963" lon="4.85189">
        <ele>180.8</ele>
        <time>2024-09-18T08:51:25Z</time>
      </trkpt>
      <trkpt lat="46.77965" lon="4.85195">
        <ele>180.8</ele>
        <time>2024-09-18T08:51:26Z</time>
      </trkpt>
      <trkpt lat="46.77967" lon="4.85199">
        <ele>180.8</ele>
        <time>2024-09-18T08:51:27Z</time>
      </trkpt>
      <trkpt lat="46.7797" lon="4.85204">
        <ele>180.8</ele>
        <time>2024-09-18T08:51:28Z</time>
      </trkpt>
      <trkpt lat="46.77972" lon="4.8521">
        <ele>181</ele>
        <time>2024-09-18T08:51:29Z</time>
      </trkpt>
      <trkpt lat="46.77975" lon="4.85215">
        <ele>181</ele>
        <time>2024-09-18T08:51:30Z</time>
      </trkpt>
      <trkpt lat="46.77977" lon="4.8522">
        <ele>181</ele>
        <time>2024-09-18T08:51:31Z</time>
      </trkpt>
      <trkpt lat="46.7798" lon="4.85226">
        <ele>181.4</ele>
        <time>2024-09-18T08:51:32Z</time>
      </trkpt>
      <trkpt lat="46.77982" lon="4.85231">
        <ele>181.4</ele>
        <time>2024-09-18T08:51:33Z</time>
      </trkpt>
      <trkpt lat="46.77985" lon="4.85236">
        <ele>181.4</ele>
        <time>2024-09-18T08:51:34Z</time>
      </trkpt>
      <trkpt lat="46.77987" lon="4.8524">
        <ele>181.4</ele>
        <time>2024-09-18T08:51:35Z</time>
      </trkpt>
      <trkpt lat="46.77989" lon="4.85245">
        <ele>181.4</ele>
        <time>2024-09-18T08:51:36Z</time>
      </trkpt>
      <trkpt lat="46.77991" lon="4.8525">
        <ele>181.4</ele>
        <time>2024-09-18T08:51:37Z</time>
      </trkpt>
      <trkpt lat="46.77993" lon="4.85254">
        <ele>181.6</ele>
        <time>2024-09-18T08:51:38Z</time>
      </trkpt>
      <trkpt lat="46.77995" lon="4.85258">
        <ele>181.6</ele>
        <time>2024-09-18T08:51:39Z</time>
      </trkpt>
      <trkpt lat="46.77997" lon="4.85262">
        <ele>181.6</ele>
        <time>2024-09-18T08:51:40Z</time>
      </trkpt>
      <trkpt lat="46.77998" lon="4.85266">
        <ele>181.6</ele>
        <time>2024-09-18T08:51:41Z</time>
      </trkpt>
      <trkpt lat="46.78" lon="4.8527">
        <ele>181.4</ele>
        <time>2024-09-18T08:51:42Z</time>
      </trkpt>
      <trkpt lat="46.78002" lon="4.85274">
        <ele>181.4</ele>
        <time>2024-09-18T08:51:43Z</time>
      </trkpt>
      <trkpt lat="46.78004" lon="4.8528">
        <ele>181.4</ele>
        <time>2024-09-18T08:51:44Z</time>
      </trkpt>
      <trkpt lat="46.78007" lon="4.85287">
        <ele>181.6</ele>
        <time>2024-09-18T08:51:45Z</time>
      </trkpt>
      <trkpt lat="46.78008" lon="4.8529">
        <ele>181.6</ele>
        <time>2024-09-18T08:51:46Z</time>
      </trkpt>
      <trkpt lat="46.7801" lon="4.85297">
        <ele>181.8</ele>
        <time>2024-09-18T08:51:47Z</time>
      </trkpt>
      <trkpt lat="46.78011" lon="4.853">
        <ele>181.8</ele>
        <time>2024-09-18T08:51:48Z</time>
      </trkpt>
      <trkpt lat="46.78012" lon="4.85306">
        <ele>181.8</ele>
        <time>2024-09-18T08:51:49Z</time>
      </trkpt>
      <trkpt lat="46.78014" lon="4.85311">
        <ele>181.8</ele>
        <time>2024-09-18T08:51:50Z</time>
      </trkpt>
      <trkpt lat="46.78016" lon="4.85316">
        <ele>182</ele>
        <time>2024-09-18T08:51:51Z</time>
      </trkpt>
      <trkpt lat="46.78017" lon="4.85321">
        <ele>182</ele>
        <time>2024-09-18T08:51:52Z</time>
      </trkpt>
      <trkpt lat="46.78019" lon="4.85326">
        <ele>182</ele>
        <time>2024-09-18T08:51:53Z</time>
      </trkpt>
      <trkpt lat="46.7802" lon="4.8533">
        <ele>182</ele>
        <time>2024-09-18T08:51:54Z</time>
      </trkpt>
      <trkpt lat="46.78021" lon="4.85333">
        <ele>182.4</ele>
        <time>2024-09-18T08:51:55Z</time>
      </trkpt>
      <trkpt lat="46.78023" lon="4.85336">
        <ele>182.6</ele>
        <time>2024-09-18T08:51:56Z</time>
      </trkpt>
      <trkpt lat="46.78024" lon="4.85338">
        <ele>182.6</ele>
        <time>2024-09-18T08:51:57Z</time>
      </trkpt>
      <trkpt lat="46.78024" lon="4.85341">
        <ele>182.6</ele>
        <time>2024-09-18T08:51:58Z</time>
      </trkpt>
      <trkpt lat="46.78025" lon="4.85344">
        <ele>182.6</ele>
        <time>2024-09-18T08:51:59Z</time>
      </trkpt>
      <trkpt lat="46.78026" lon="4.85347">
        <ele>182.6</ele>
        <time>2024-09-18T08:52:00Z</time>
      </trkpt>
      <trkpt lat="46.78027" lon="4.8535">
        <ele>182.6</ele>
        <time>2024-09-18T08:52:01Z</time>
      </trkpt>
      <trkpt lat="46.78028" lon="4.85353">
        <ele>182.6</ele>
        <time>2024-09-18T08:52:02Z</time>
      </trkpt>
      <trkpt lat="46.78029" lon="4.85357">
        <ele>182.6</ele>
        <time>2024-09-18T08:52:03Z</time>
      </trkpt>
      <trkpt lat="46.7803" lon="4.8536">
        <ele>182.6</ele>
        <time>2024-09-18T08:52:04Z</time>
      </trkpt>
      <trkpt lat="46.78032" lon="4.85364">
        <ele>182.4</ele>
        <time>2024-09-18T08:52:05Z</time>
      </trkpt>
      <trkpt lat="46.78033" lon="4.85368">
        <ele>182.4</ele>
        <time>2024-09-18T08:52:06Z</time>
      </trkpt>
      <trkpt lat="46.78034" lon="4.85373">
        <ele>182.4</ele>
        <time>2024-09-18T08:52:07Z</time>
      </trkpt>
      <trkpt lat="46.78035" lon="4.85377">
        <ele>182.4</ele>
        <time>2024-09-18T08:52:08Z</time>
      </trkpt>
      <trkpt lat="46.78037" lon="4.85382">
        <ele>182.2</ele>
        <time>2024-09-18T08:52:09Z</time>
      </trkpt>
      <trkpt lat="46.78039" lon="4.85387">
        <ele>182.2</ele>
        <time>2024-09-18T08:52:10Z</time>
      </trkpt>
      <trkpt lat="46.7804" lon="4.85392">
        <ele>182.2</ele>
        <time>2024-09-18T08:52:11Z</time>
      </trkpt>
      <trkpt lat="46.78042" lon="4.85397">
        <ele>182.2</ele>
        <time>2024-09-18T08:52:12Z</time>
      </trkpt>
      <trkpt lat="46.78043" lon="4.85402">
        <ele>182.2</ele>
        <time>2024-09-18T08:52:13Z</time>
      </trkpt>
      <trkpt lat="46.78044" lon="4.85406">
        <ele>182</ele>
        <time>2024-09-18T08:52:14Z</time>
      </trkpt>
      <trkpt lat="46.78045" lon="4.85411">
        <ele>182</ele>
        <time>2024-09-18T08:52:15Z</time>
      </trkpt>
      <trkpt lat="46.78046" lon="4.85417">
        <ele>182</ele>
        <time>2024-09-18T08:52:16Z</time>
      </trkpt>
      <trkpt lat="46.78047" lon="4.85421">
        <ele>181.6</ele>
        <time>2024-09-18T08:52:17Z</time>
      </trkpt>
      <trkpt lat="46.7805" lon="4.85427">
        <ele>181.4</ele>
        <time>2024-09-18T08:52:18Z</time>
      </trkpt>
      <trkpt lat="46.78051" lon="4.85428">
        <ele>181.4</ele>
        <time>2024-09-18T08:52:19Z</time>
      </trkpt>
      <trkpt lat="46.78052" lon="4.8543">
        <ele>181.4</ele>
        <time>2024-09-18T08:52:20Z</time>
      </trkpt>
      <trkpt lat="46.78053" lon="4.85431">
        <ele>181.4</ele>
        <time>2024-09-18T08:52:21Z</time>
      </trkpt>
      <trkpt lat="46.78054" lon="4.85432">
        <ele>181.2</ele>
        <time>2024-09-18T08:52:22Z</time>
      </trkpt>
      <trkpt lat="46.78055" lon="4.85434">
        <ele>181</ele>
        <time>2024-09-18T08:52:32Z</time>
      </trkpt>
      <trkpt lat="46.78056" lon="4.85435">
        <ele>181</ele>
        <time>2024-09-18T08:52:33Z</time>
      </trkpt>
      <trkpt lat="46.78057" lon="4.85436">
        <ele>181</ele>
        <time>2024-09-18T08:52:34Z</time>
      </trkpt>
      <trkpt lat="46.78062" lon="4.85434">
        <ele>180.8</ele>
        <time>2024-09-18T08:52:35Z</time>
      </trkpt>
      <trkpt lat="46.78064" lon="4.85433">
        <ele>180.8</ele>
        <time>2024-09-18T08:52:36Z</time>
      </trkpt>
      <trkpt lat="46.78068" lon="4.85431">
        <ele>180.8</ele>
        <time>2024-09-18T08:52:37Z</time>
      </trkpt>
      <trkpt lat="46.78071" lon="4.8543">
        <ele>180.8</ele>
        <time>2024-09-18T08:52:38Z</time>
      </trkpt>
      <trkpt lat="46.78075" lon="4.85428">
        <ele>180.8</ele>
        <time>2024-09-18T08:52:39Z</time>
      </trkpt>
      <trkpt lat="46.78078" lon="4.85426">
        <ele>180.8</ele>
        <time>2024-09-18T08:52:40Z</time>
      </trkpt>
      <trkpt lat="46.78082" lon="4.85424">
        <ele>180.6</ele>
        <time>2024-09-18T08:52:41Z</time>
      </trkpt>
      <trkpt lat="46.78085" lon="4.85422">
        <ele>180.6</ele>
        <time>2024-09-18T08:52:42Z</time>
      </trkpt>
      <trkpt lat="46.78088" lon="4.8542">
        <ele>180.6</ele>
        <time>2024-09-18T08:52:43Z</time>
      </trkpt>
      <trkpt lat="46.78091" lon="4.85419">
        <ele>180.6</ele>
        <time>2024-09-18T08:52:44Z</time>
      </trkpt>
      <trkpt lat="46.78093" lon="4.85416">
        <ele>180.6</ele>
        <time>2024-09-18T08:52:45Z</time>
      </trkpt>
      <trkpt lat="46.78095" lon="4.85414">
        <ele>180.6</ele>
        <time>2024-09-18T08:52:46Z</time>
      </trkpt>
      <trkpt lat="46.78096" lon="4.85412">
        <ele>180.6</ele>
        <time>2024-09-18T08:52:47Z</time>
      </trkpt>
      <trkpt lat="46.78098" lon="4.85412">
        <ele>180.4</ele>
        <time>2024-09-18T08:52:48Z</time>
      </trkpt>
      <trkpt lat="46.781" lon="4.85413">
        <ele>180.6</ele>
        <time>2024-09-18T08:52:49Z</time>
      </trkpt>
      <trkpt lat="46.78101" lon="4.85414">
        <ele>180.6</ele>
        <time>2024-09-18T08:52:50Z</time>
      </trkpt>
      <trkpt lat="46.78103" lon="4.85415">
        <ele>180.6</ele>
        <time>2024-09-18T08:52:51Z</time>
      </trkpt>
      <trkpt lat="46.78104" lon="4.85417">
        <ele>180.6</ele>
        <time>2024-09-18T08:52:52Z</time>
      </trkpt>
      <trkpt lat="46.78104" lon="4.85418">
        <ele>180.6</ele>
        <time>2024-09-18T08:52:53Z</time>
      </trkpt>
      <trkpt lat="46.78106" lon="4.8542">
        <ele>180.4</ele>
        <time>2024-09-18T08:52:54Z</time>
      </trkpt>
      <trkpt lat="46.78107" lon="4.85422">
        <ele>180.4</ele>
        <time>2024-09-18T08:52:55Z</time>
      </trkpt>
      <trkpt lat="46.78108" lon="4.85424">
        <ele>180.4</ele>
        <time>2024-09-18T08:52:56Z</time>
      </trkpt>
      <trkpt lat="46.78108" lon="4.85426">
        <ele>180.4</ele>
        <time>2024-09-18T08:52:57Z</time>
      </trkpt>
      <trkpt lat="46.78109" lon="4.85428">
        <ele>180.2</ele>
        <time>2024-09-18T08:52:58Z</time>
      </trkpt>
      <trkpt lat="46.7811" lon="4.85431">
        <ele>180.2</ele>
        <time>2024-09-18T08:52:59Z</time>
      </trkpt>
      <trkpt lat="46.78111" lon="4.85435">
        <ele>180.2</ele>
        <time>2024-09-18T08:53:00Z</time>
      </trkpt>
      <trkpt lat="46.78113" lon="4.85439">
        <ele>180.2</ele>
        <time>2024-09-18T08:53:01Z</time>
      </trkpt>
      <trkpt lat="46.78114" lon="4.85441">
        <ele>180.4</ele>
        <time>2024-09-18T08:53:02Z</time>
      </trkpt>
      <trkpt lat="46.78115" lon="4.85445">
        <ele>180.6</ele>
        <time>2024-09-18T08:53:03Z</time>
      </trkpt>
      <trkpt lat="46.78115" lon="4.85448">
        <ele>180.6</ele>
        <time>2024-09-18T08:53:04Z</time>
      </trkpt>
      <trkpt lat="46.78115" lon="4.85452">
        <ele>180.6</ele>
        <time>2024-09-18T08:53:05Z</time>
      </trkpt>
      <trkpt lat="46.78116" lon="4.85456">
        <ele>180.6</ele>
        <time>2024-09-18T08:53:06Z</time>
      </trkpt>
      <trkpt lat="46.78116" lon="4.85459">
        <ele>181</ele>
        <time>2024-09-18T08:53:07Z</time>
      </trkpt>
      <trkpt lat="46.78116" lon="4.85463">
        <ele>181</ele>
        <time>2024-09-18T08:53:08Z</time>
      </trkpt>
      <trkpt lat="46.78117" lon="4.85465">
        <ele>181</ele>
        <time>2024-09-18T08:53:09Z</time>
      </trkpt>
      <trkpt lat="46.78117" lon="4.85467">
        <ele>181.2</ele>
        <time>2024-09-18T08:53:10Z</time>
      </trkpt>
      <trkpt lat="46.78117" lon="4.8547">
        <ele>181.2</ele>
        <time>2024-09-18T08:53:11Z</time>
      </trkpt>
      <trkpt lat="46.78118" lon="4.85472">
        <ele>181.2</ele>
        <time>2024-09-18T08:53:12Z</time>
      </trkpt>
      <trkpt lat="46.78118" lon="4.85474">
        <ele>181.2</ele>
        <time>2024-09-18T08:53:13Z</time>
      </trkpt>
      <trkpt lat="46.78118" lon="4.85476">
        <ele>181.2</ele>
        <time>2024-09-18T08:53:14Z</time>
      </trkpt>
      <trkpt lat="46.78118" lon="4.85477">
        <ele>181.4</ele>
        <time>2024-09-18T08:53:15Z</time>
      </trkpt>
      <trkpt lat="46.78118" lon="4.85478">
        <ele>181.4</ele>
        <time>2024-09-18T08:53:16Z</time>
      </trkpt>
      <trkpt lat="46.78118" lon="4.85478">
        <ele>181.4</ele>
        <time>2024-09-18T08:53:17Z</time>
      </trkpt>
      <trkpt lat="46.78119" lon="4.85492">
        <ele>182.2</ele>
        <time>2024-09-18T08:53:36Z</time>
      </trkpt>
      <trkpt lat="46.78119" lon="4.85494">
        <ele>182</ele>
        <time>2024-09-18T08:53:37Z</time>
      </trkpt>
      <trkpt lat="46.78119" lon="4.85496">
        <ele>182</ele>
        <time>2024-09-18T08:53:38Z</time>
      </trkpt>
      <trkpt lat="46.78119" lon="4.85498">
        <ele>182</ele>
        <time>2024-09-18T08:53:39Z</time>
      </trkpt>
      <trkpt lat="46.78119" lon="4.855">
        <ele>182</ele>
        <time>2024-09-18T08:53:40Z</time>
      </trkpt>
      <trkpt lat="46.78119" lon="4.85502">
        <ele>182.4</ele>
        <time>2024-09-18T08:53:41Z</time>
      </trkpt>
      <trkpt lat="46.78119" lon="4.85504">
        <ele>182.4</ele>
        <time>2024-09-18T08:53:42Z</time>
      </trkpt>
      <trkpt lat="46.78119" lon="4.85507">
        <ele>182</ele>
        <time>2024-09-18T08:53:43Z</time>
      </trkpt>
      <trkpt lat="46.78119" lon="4.85509">
        <ele>182</ele>
        <time>2024-09-18T08:53:44Z</time>
      </trkpt>
      <trkpt lat="46.7812" lon="4.85511">
        <ele>182</ele>
        <time>2024-09-18T08:53:45Z</time>
      </trkpt>
      <trkpt lat="46.7812" lon="4.85513">
        <ele>182.2</ele>
        <time>2024-09-18T08:53:46Z</time>
      </trkpt>
      <trkpt lat="46.7812" lon="4.85515">
        <ele>182.4</ele>
        <time>2024-09-18T08:53:47Z</time>
      </trkpt>
      <trkpt lat="46.78119" lon="4.85517">
        <ele>182.4</ele>
        <time>2024-09-18T08:53:48Z</time>
      </trkpt>
      <trkpt lat="46.78119" lon="4.85519">
        <ele>182.4</ele>
        <time>2024-09-18T08:53:49Z</time>
      </trkpt>
      <trkpt lat="46.78119" lon="4.85521">
        <ele>182.4</ele>
        <time>2024-09-18T08:53:50Z</time>
      </trkpt>
      <trkpt lat="46.78119" lon="4.85523">
        <ele>182.2</ele>
        <time>2024-09-18T08:53:51Z</time>
      </trkpt>
      <trkpt lat="46.78118" lon="4.85525">
        <ele>182.2</ele>
        <time>2024-09-18T08:53:52Z</time>
      </trkpt>
      <trkpt lat="46.78118" lon="4.85526">
        <ele>182.2</ele>
        <time>2024-09-18T08:53:53Z</time>
      </trkpt>
      <trkpt lat="46.78118" lon="4.85528">
        <ele>182.2</ele>
        <time>2024-09-18T08:53:54Z</time>
      </trkpt>
      <trkpt lat="46.78118" lon="4.85529">
        <ele>182.8</ele>
        <time>2024-09-18T08:53:55Z</time>
      </trkpt>
      <trkpt lat="46.78118" lon="4.85531">
        <ele>182.8</ele>
        <time>2024-09-18T08:53:56Z</time>
      </trkpt>
      <trkpt lat="46.78117" lon="4.85532">
        <ele>182.8</ele>
        <time>2024-09-18T08:53:57Z</time>
      </trkpt>
      <trkpt lat="46.78117" lon="4.85533">
        <ele>182.8</ele>
        <time>2024-09-18T08:53:58Z</time>
      </trkpt>
      <trkpt lat="46.78117" lon="4.85534">
        <ele>182.8</ele>
        <time>2024-09-18T08:53:59Z</time>
      </trkpt>
      <trkpt lat="46.78117" lon="4.85536">
        <ele>182.8</ele>
        <time>2024-09-18T08:54:00Z</time>
      </trkpt>
      <trkpt lat="46.78116" lon="4.85537">
        <ele>182.8</ele>
        <time>2024-09-18T08:54:01Z</time>
      </trkpt>
      <trkpt lat="46.78116" lon="4.85538">
        <ele>182.8</ele>
        <time>2024-09-18T08:54:02Z</time>
      </trkpt>
      <trkpt lat="46.78116" lon="4.85538">
        <ele>182.8</ele>
        <time>2024-09-18T08:54:03Z</time>
      </trkpt>
      <trkpt lat="46.78115" lon="4.8554">
        <ele>182.8</ele>
        <time>2024-09-18T08:54:04Z</time>
      </trkpt>
      <trkpt lat="46.78115" lon="4.85542">
        <ele>182.8</ele>
        <time>2024-09-18T08:54:05Z</time>
      </trkpt>
      <trkpt lat="46.78115" lon="4.85544">
        <ele>182.8</ele>
        <time>2024-09-18T08:54:06Z</time>
      </trkpt>
      <trkpt lat="46.78115" lon="4.85546">
        <ele>182.8</ele>
        <time>2024-09-18T08:54:07Z</time>
      </trkpt>
      <trkpt lat="46.78115" lon="4.85548">
        <ele>183.2</ele>
        <time>2024-09-18T08:54:08Z</time>
      </trkpt>
      <trkpt lat="46.78115" lon="4.85551">
        <ele>183.2</ele>
        <time>2024-09-18T08:54:09Z</time>
      </trkpt>
      <trkpt lat="46.78115" lon="4.85553">
        <ele>183.2</ele>
        <time>2024-09-18T08:54:10Z</time>
      </trkpt>
      <trkpt lat="46.78114" lon="4.85555">
        <ele>183.2</ele>
        <time>2024-09-18T08:54:11Z</time>
      </trkpt>
      <trkpt lat="46.78114" lon="4.85558">
        <ele>183.2</ele>
        <time>2024-09-18T08:54:12Z</time>
      </trkpt>
      <trkpt lat="46.78113" lon="4.8556">
        <ele>183.4</ele>
        <time>2024-09-18T08:54:13Z</time>
      </trkpt>
      <trkpt lat="46.78112" lon="4.85562">
        <ele>183.4</ele>
        <time>2024-09-18T08:54:14Z</time>
      </trkpt>
      <trkpt lat="46.78111" lon="4.85564">
        <ele>183.4</ele>
        <time>2024-09-18T08:54:15Z</time>
      </trkpt>
      <trkpt lat="46.78111" lon="4.85566">
        <ele>183.6</ele>
        <time>2024-09-18T08:54:16Z</time>
      </trkpt>
      <trkpt lat="46.78109" lon="4.85568">
        <ele>183.6</ele>
        <time>2024-09-18T08:54:17Z</time>
      </trkpt>
      <trkpt lat="46.78108" lon="4.8557">
        <ele>183.6</ele>
        <time>2024-09-18T08:54:18Z</time>
      </trkpt>
      <trkpt lat="46.78107" lon="4.85572">
        <ele>183.6</ele>
        <time>2024-09-18T08:54:19Z</time>
      </trkpt>
      <trkpt lat="46.78105" lon="4.85574">
        <ele>183.6</ele>
        <time>2024-09-18T08:54:20Z</time>
      </trkpt>
      <trkpt lat="46.78104" lon="4.85576">
        <ele>183.6</ele>
        <time>2024-09-18T08:54:21Z</time>
      </trkpt>
      <trkpt lat="46.78102" lon="4.85578">
        <ele>183.6</ele>
        <time>2024-09-18T08:54:22Z</time>
      </trkpt>
      <trkpt lat="46.78101" lon="4.85579">
        <ele>183.6</ele>
        <time>2024-09-18T08:54:23Z</time>
      </trkpt>
      <trkpt lat="46.781" lon="4.8558">
        <ele>183.6</ele>
        <time>2024-09-18T08:54:24Z</time>
      </trkpt>
      <trkpt lat="46.78099" lon="4.85582">
        <ele>183.6</ele>
        <time>2024-09-18T08:54:25Z</time>
      </trkpt>
      <trkpt lat="46.78098" lon="4.85583">
        <ele>183.4</ele>
        <time>2024-09-18T08:54:26Z</time>
      </trkpt>
      <trkpt lat="46.78097" lon="4.85584">
        <ele>183.4</ele>
        <time>2024-09-18T08:54:27Z</time>
      </trkpt>
      <trkpt lat="46.78096" lon="4.85584">
        <ele>183.4</ele>
        <time>2024-09-18T08:54:28Z</time>
      </trkpt>
      <trkpt lat="46.78096" lon="4.85586">
        <ele>183.4</ele>
        <time>2024-09-18T08:54:29Z</time>
      </trkpt>
      <trkpt lat="46.78096" lon="4.85588">
        <ele>183.4</ele>
        <time>2024-09-18T08:54:30Z</time>
      </trkpt>
      <trkpt lat="46.78095" lon="4.85589">
        <ele>183.4</ele>
        <time>2024-09-18T08:54:31Z</time>
      </trkpt>
      <trkpt lat="46.78095" lon="4.85591">
        <ele>183.4</ele>
        <time>2024-09-18T08:54:32Z</time>
      </trkpt>
      <trkpt lat="46.78095" lon="4.85592">
        <ele>183.4</ele>
        <time>2024-09-18T08:54:33Z</time>
      </trkpt>
      <trkpt lat="46.78096" lon="4.85594">
        <ele>183.4</ele>
        <time>2024-09-18T08:54:34Z</time>
      </trkpt>
      <trkpt lat="46.78096" lon="4.85595">
        <ele>183.4</ele>
        <time>2024-09-18T08:54:35Z</time>
      </trkpt>
      <trkpt lat="46.78097" lon="4.85598">
        <ele>183.6</ele>
        <time>2024-09-18T08:54:36Z</time>
      </trkpt>
      <trkpt lat="46.78098" lon="4.856">
        <ele>183.6</ele>
        <time>2024-09-18T08:54:37Z</time>
      </trkpt>
      <trkpt lat="46.78099" lon="4.85603">
        <ele>183.6</ele>
        <time>2024-09-18T08:54:38Z</time>
      </trkpt>
      <trkpt lat="46.781" lon="4.85607">
        <ele>183.6</ele>
        <time>2024-09-18T08:54:39Z</time>
      </trkpt>
      <trkpt lat="46.781" lon="4.8561">
        <ele>183.6</ele>
        <time>2024-09-18T08:54:40Z</time>
      </trkpt>
      <trkpt lat="46.78101" lon="4.85613">
        <ele>183.6</ele>
        <time>2024-09-18T08:54:41Z</time>
      </trkpt>
      <trkpt lat="46.78102" lon="4.85615">
        <ele>183.6</ele>
        <time>2024-09-18T08:54:42Z</time>
      </trkpt>
      <trkpt lat="46.78102" lon="4.85617">
        <ele>183.6</ele>
        <time>2024-09-18T08:54:43Z</time>
      </trkpt>
      <trkpt lat="46.78103" lon="4.85619">
        <ele>183.6</ele>
        <time>2024-09-18T08:54:44Z</time>
      </trkpt>
      <trkpt lat="46.78104" lon="4.85621">
        <ele>183.6</ele>
        <time>2024-09-18T08:54:45Z</time>
      </trkpt>
      <trkpt lat="46.78105" lon="4.85622">
        <ele>183.6</ele>
        <time>2024-09-18T08:54:46Z</time>
      </trkpt>
      <trkpt lat="46.78106" lon="4.85623">
        <ele>183.6</ele>
        <time>2024-09-18T08:54:47Z</time>
      </trkpt>
      <trkpt lat="46.78106" lon="4.85625">
        <ele>183.8</ele>
        <time>2024-09-18T08:54:48Z</time>
      </trkpt>
      <trkpt lat="46.78107" lon="4.85626">
        <ele>183.8</ele>
        <time>2024-09-18T08:54:49Z</time>
      </trkpt>
      <trkpt lat="46.78108" lon="4.85628">
        <ele>183.8</ele>
        <time>2024-09-18T08:54:50Z</time>
      </trkpt>
      <trkpt lat="46.78108" lon="4.85629">
        <ele>183.8</ele>
        <time>2024-09-18T08:54:51Z</time>
      </trkpt>
      <trkpt lat="46.78109" lon="4.8563">
        <ele>183.8</ele>
        <time>2024-09-18T08:54:52Z</time>
      </trkpt>
      <trkpt lat="46.7811" lon="4.85631">
        <ele>183.6</ele>
        <time>2024-09-18T08:54:53Z</time>
      </trkpt>
      <trkpt lat="46.7811" lon="4.85632">
        <ele>183.6</ele>
        <time>2024-09-18T08:54:54Z</time>
      </trkpt>
      <trkpt lat="46.78111" lon="4.85634">
        <ele>183.6</ele>
        <time>2024-09-18T08:54:55Z</time>
      </trkpt>
      <trkpt lat="46.78112" lon="4.85636">
        <ele>183.6</ele>
        <time>2024-09-18T08:54:56Z</time>
      </trkpt>
      <trkpt lat="46.78113" lon="4.85637">
        <ele>183.6</ele>
        <time>2024-09-18T08:54:57Z</time>
      </trkpt>
      <trkpt lat="46.78113" lon="4.8564">
        <ele>183.8</ele>
        <time>2024-09-18T08:54:58Z</time>
      </trkpt>
      <trkpt lat="46.78114" lon="4.85643">
        <ele>183.8</ele>
        <time>2024-09-18T08:54:59Z</time>
      </trkpt>
      <trkpt lat="46.78115" lon="4.85645">
        <ele>183.8</ele>
        <time>2024-09-18T08:55:00Z</time>
      </trkpt>
      <trkpt lat="46.78116" lon="4.85648">
        <ele>183.8</ele>
        <time>2024-09-18T08:55:01Z</time>
      </trkpt>
      <trkpt lat="46.78117" lon="4.85651">
        <ele>183.8</ele>
        <time>2024-09-18T08:55:02Z</time>
      </trkpt>
      <trkpt lat="46.78119" lon="4.85653">
        <ele>184</ele>
        <time>2024-09-18T08:55:03Z</time>
      </trkpt>
      <trkpt lat="46.7812" lon="4.85655">
        <ele>184</ele>
        <time>2024-09-18T08:55:04Z</time>
      </trkpt>
      <trkpt lat="46.78122" lon="4.85657">
        <ele>184</ele>
        <time>2024-09-18T08:55:05Z</time>
      </trkpt>
      <trkpt lat="46.78123" lon="4.8566">
        <ele>184</ele>
        <time>2024-09-18T08:55:06Z</time>
      </trkpt>
      <trkpt lat="46.78124" lon="4.85662">
        <ele>184</ele>
        <time>2024-09-18T08:55:07Z</time>
      </trkpt>
      <trkpt lat="46.78125" lon="4.85665">
        <ele>184</ele>
        <time>2024-09-18T08:55:08Z</time>
      </trkpt>
      <trkpt lat="46.78125" lon="4.85667">
        <ele>184</ele>
        <time>2024-09-18T08:55:09Z</time>
      </trkpt>
      <trkpt lat="46.78126" lon="4.8567">
        <ele>184</ele>
        <time>2024-09-18T08:55:10Z</time>
      </trkpt>
      <trkpt lat="46.78126" lon="4.85673">
        <ele>184.2</ele>
        <time>2024-09-18T08:55:11Z</time>
      </trkpt>
      <trkpt lat="46.78126" lon="4.85675">
        <ele>184.2</ele>
        <time>2024-09-18T08:55:12Z</time>
      </trkpt>
      <trkpt lat="46.78127" lon="4.85678">
        <ele>184.2</ele>
        <time>2024-09-18T08:55:13Z</time>
      </trkpt>
      <trkpt lat="46.78128" lon="4.85679">
        <ele>184.2</ele>
        <time>2024-09-18T08:55:14Z</time>
      </trkpt>
      <trkpt lat="46.78129" lon="4.85681">
        <ele>184.2</ele>
        <time>2024-09-18T08:55:15Z</time>
      </trkpt>
      <trkpt lat="46.7813" lon="4.85683">
        <ele>184.2</ele>
        <time>2024-09-18T08:55:16Z</time>
      </trkpt>
      <trkpt lat="46.78131" lon="4.85685">
        <ele>184.4</ele>
        <time>2024-09-18T08:55:17Z</time>
      </trkpt>
      <trkpt lat="46.78132" lon="4.85687">
        <ele>184.4</ele>
        <time>2024-09-18T08:55:18Z</time>
      </trkpt>
      <trkpt lat="46.78133" lon="4.85689">
        <ele>184.4</ele>
        <time>2024-09-18T08:55:19Z</time>
      </trkpt>
      <trkpt lat="46.78134" lon="4.85692">
        <ele>184.4</ele>
        <time>2024-09-18T08:55:20Z</time>
      </trkpt>
      <trkpt lat="46.78134" lon="4.85694">
        <ele>184.6</ele>
        <time>2024-09-18T08:55:21Z</time>
      </trkpt>
      <trkpt lat="46.78135" lon="4.85696">
        <ele>184.6</ele>
        <time>2024-09-18T08:55:22Z</time>
      </trkpt>
      <trkpt lat="46.78136" lon="4.85699">
        <ele>184.6</ele>
        <time>2024-09-18T08:55:23Z</time>
      </trkpt>
      <trkpt lat="46.78136" lon="4.85701">
        <ele>184.6</ele>
        <time>2024-09-18T08:55:24Z</time>
      </trkpt>
      <trkpt lat="46.78136" lon="4.85703">
        <ele>184.8</ele>
        <time>2024-09-18T08:55:25Z</time>
      </trkpt>
      <trkpt lat="46.78137" lon="4.85705">
        <ele>184.8</ele>
        <time>2024-09-18T08:55:26Z</time>
      </trkpt>
      <trkpt lat="46.78137" lon="4.85708">
        <ele>184.8</ele>
        <time>2024-09-18T08:55:27Z</time>
      </trkpt>
      <trkpt lat="46.78138" lon="4.8571">
        <ele>184.8</ele>
        <time>2024-09-18T08:55:28Z</time>
      </trkpt>
      <trkpt lat="46.78139" lon="4.85712">
        <ele>184.8</ele>
        <time>2024-09-18T08:55:29Z</time>
      </trkpt>
      <trkpt lat="46.7814" lon="4.85715">
        <ele>184.8</ele>
        <time>2024-09-18T08:55:30Z</time>
      </trkpt>
      <trkpt lat="46.78141" lon="4.85717">
        <ele>184.8</ele>
        <time>2024-09-18T08:55:31Z</time>
      </trkpt>
      <trkpt lat="46.78143" lon="4.85719">
        <ele>184.8</ele>
        <time>2024-09-18T08:55:32Z</time>
      </trkpt>
      <trkpt lat="46.78144" lon="4.85721">
        <ele>184.8</ele>
        <time>2024-09-18T08:55:33Z</time>
      </trkpt>
      <trkpt lat="46.78145" lon="4.85723">
        <ele>184.8</ele>
        <time>2024-09-18T08:55:34Z</time>
      </trkpt>
      <trkpt lat="46.78146" lon="4.85725">
        <ele>184.8</ele>
        <time>2024-09-18T08:55:35Z</time>
      </trkpt>
      <trkpt lat="46.78148" lon="4.85726">
        <ele>184.8</ele>
        <time>2024-09-18T08:55:36Z</time>
      </trkpt>
      <trkpt lat="46.78149" lon="4.85729">
        <ele>184.8</ele>
        <time>2024-09-18T08:55:37Z</time>
      </trkpt>
      <trkpt lat="46.7815" lon="4.85731">
        <ele>184.8</ele>
        <time>2024-09-18T08:55:38Z</time>
      </trkpt>
      <trkpt lat="46.78151" lon="4.85734">
        <ele>184.8</ele>
        <time>2024-09-18T08:55:39Z</time>
      </trkpt>
      <trkpt lat="46.78152" lon="4.85737">
        <ele>184.8</ele>
        <time>2024-09-18T08:55:40Z</time>
      </trkpt>
      <trkpt lat="46.78153" lon="4.85739">
        <ele>184.8</ele>
        <time>2024-09-18T08:55:41Z</time>
      </trkpt>
      <trkpt lat="46.78154" lon="4.8574">
        <ele>184.6</ele>
        <time>2024-09-18T08:55:42Z</time>
      </trkpt>
      <trkpt lat="46.78154" lon="4.85742">
        <ele>184.6</ele>
        <time>2024-09-18T08:55:43Z</time>
      </trkpt>
      <trkpt lat="46.78154" lon="4.85744">
        <ele>184.6</ele>
        <time>2024-09-18T08:55:44Z</time>
      </trkpt>
      <trkpt lat="46.78155" lon="4.85746">
        <ele>184.6</ele>
        <time>2024-09-18T08:55:45Z</time>
      </trkpt>
      <trkpt lat="46.78155" lon="4.85748">
        <ele>184.6</ele>
        <time>2024-09-18T08:55:46Z</time>
      </trkpt>
      <trkpt lat="46.78156" lon="4.8575">
        <ele>184.4</ele>
        <time>2024-09-18T08:55:47Z</time>
      </trkpt>
      <trkpt lat="46.78157" lon="4.85752">
        <ele>184.4</ele>
        <time>2024-09-18T08:55:48Z</time>
      </trkpt>
      <trkpt lat="46.78158" lon="4.85754">
        <ele>184.4</ele>
        <time>2024-09-18T08:55:49Z</time>
      </trkpt>
      <trkpt lat="46.7816" lon="4.85756">
        <ele>184.4</ele>
        <time>2024-09-18T08:55:50Z</time>
      </trkpt>
      <trkpt lat="46.78161" lon="4.85757">
        <ele>184.4</ele>
        <time>2024-09-18T08:55:51Z</time>
      </trkpt>
      <trkpt lat="46.78161" lon="4.85758">
        <ele>184.6</ele>
        <time>2024-09-18T08:55:52Z</time>
      </trkpt>
      <trkpt lat="46.7816" lon="4.85769">
        <ele>184.6</ele>
        <time>2024-09-18T08:55:59Z</time>
      </trkpt>
      <trkpt lat="46.78161" lon="4.85771">
        <ele>184.6</ele>
        <time>2024-09-18T08:56:00Z</time>
      </trkpt>
      <trkpt lat="46.78163" lon="4.85773">
        <ele>184.6</ele>
        <time>2024-09-18T08:56:01Z</time>
      </trkpt>
      <trkpt lat="46.78164" lon="4.85775">
        <ele>184.6</ele>
        <time>2024-09-18T08:56:02Z</time>
      </trkpt>
      <trkpt lat="46.78166" lon="4.85778">
        <ele>184.6</ele>
        <time>2024-09-18T08:56:03Z</time>
      </trkpt>
      <trkpt lat="46.78168" lon="4.85782">
        <ele>184.6</ele>
        <time>2024-09-18T08:56:04Z</time>
      </trkpt>
      <trkpt lat="46.78168" lon="4.85783">
        <ele>184.8</ele>
        <time>2024-09-18T08:56:05Z</time>
      </trkpt>
      <trkpt lat="46.78169" lon="4.85785">
        <ele>184.8</ele>
        <time>2024-09-18T08:56:06Z</time>
      </trkpt>
      <trkpt lat="46.7817" lon="4.85788">
        <ele>184.8</ele>
        <time>2024-09-18T08:56:07Z</time>
      </trkpt>
      <trkpt lat="46.78171" lon="4.8579">
        <ele>184.8</ele>
        <time>2024-09-18T08:56:08Z</time>
      </trkpt>
      <trkpt lat="46.78172" lon="4.85791">
        <ele>185</ele>
        <time>2024-09-18T08:56:09Z</time>
      </trkpt>
      <trkpt lat="46.78173" lon="4.85793">
        <ele>185.2</ele>
        <time>2024-09-18T08:56:10Z</time>
      </trkpt>
      <trkpt lat="46.78174" lon="4.85795">
        <ele>185.2</ele>
        <time>2024-09-18T08:56:11Z</time>
      </trkpt>
      <trkpt lat="46.78175" lon="4.85797">
        <ele>185.2</ele>
        <time>2024-09-18T08:56:12Z</time>
      </trkpt>
      <trkpt lat="46.78176" lon="4.85799">
        <ele>185.2</ele>
        <time>2024-09-18T08:56:13Z</time>
      </trkpt>
      <trkpt lat="46.78177" lon="4.85801">
        <ele>185.2</ele>
        <time>2024-09-18T08:56:14Z</time>
      </trkpt>
      <trkpt lat="46.78178" lon="4.85802">
        <ele>185.2</ele>
        <time>2024-09-18T08:56:15Z</time>
      </trkpt>
      <trkpt lat="46.78179" lon="4.85804">
        <ele>185.2</ele>
        <time>2024-09-18T08:56:16Z</time>
      </trkpt>
      <trkpt lat="46.7818" lon="4.85805">
        <ele>185.2</ele>
        <time>2024-09-18T08:56:17Z</time>
      </trkpt>
      <trkpt lat="46.78181" lon="4.85807">
        <ele>185.4</ele>
        <time>2024-09-18T08:56:18Z</time>
      </trkpt>
      <trkpt lat="46.78181" lon="4.85809">
        <ele>185.4</ele>
        <time>2024-09-18T08:56:19Z</time>
      </trkpt>
      <trkpt lat="46.78182" lon="4.8581">
        <ele>185.4</ele>
        <time>2024-09-18T08:56:20Z</time>
      </trkpt>
      <trkpt lat="46.78183" lon="4.85811">
        <ele>185.4</ele>
        <time>2024-09-18T08:56:21Z</time>
      </trkpt>
      <trkpt lat="46.78183" lon="4.85812">
        <ele>185.2</ele>
        <time>2024-09-18T08:56:22Z</time>
      </trkpt>
      <trkpt lat="46.78184" lon="4.85814">
        <ele>185.2</ele>
        <time>2024-09-18T08:56:23Z</time>
      </trkpt>
      <trkpt lat="46.78184" lon="4.85815">
        <ele>185.2</ele>
        <time>2024-09-18T08:56:24Z</time>
      </trkpt>
      <trkpt lat="46.78185" lon="4.85816">
        <ele>185.2</ele>
        <time>2024-09-18T08:56:25Z</time>
      </trkpt>
      <trkpt lat="46.78192" lon="4.85816">
        <ele>185.2</ele>
        <time>2024-09-18T08:56:47Z</time>
      </trkpt>
      <trkpt lat="46.78193" lon="4.85818">
        <ele>185.2</ele>
        <time>2024-09-18T08:56:48Z</time>
      </trkpt>
      <trkpt lat="46.78193" lon="4.8582">
        <ele>185.2</ele>
        <time>2024-09-18T08:56:49Z</time>
      </trkpt>
      <trkpt lat="46.7819" lon="4.85825">
        <ele>185.2</ele>
        <time>2024-09-18T08:56:50Z</time>
      </trkpt>
      <trkpt lat="46.78188" lon="4.85828">
        <ele>185</ele>
        <time>2024-09-18T08:56:51Z</time>
      </trkpt>
      <trkpt lat="46.78186" lon="4.85831">
        <ele>185</ele>
        <time>2024-09-18T08:56:52Z</time>
      </trkpt>
      <trkpt lat="46.78185" lon="4.85833">
        <ele>185</ele>
        <time>2024-09-18T08:56:53Z</time>
      </trkpt>
      <trkpt lat="46.78184" lon="4.85835">
        <ele>184.8</ele>
        <time>2024-09-18T08:56:54Z</time>
      </trkpt>
      <trkpt lat="46.78183" lon="4.85837">
        <ele>184.8</ele>
        <time>2024-09-18T08:56:55Z</time>
      </trkpt>
      <trkpt lat="46.78183" lon="4.85839">
        <ele>184.8</ele>
        <time>2024-09-18T08:56:56Z</time>
      </trkpt>
      <trkpt lat="46.78184" lon="4.8584">
        <ele>184.8</ele>
        <time>2024-09-18T08:56:57Z</time>
      </trkpt>
      <trkpt lat="46.78184" lon="4.8584">
        <ele>184.8</ele>
        <time>2024-09-18T08:56:58Z</time>
      </trkpt>
      <trkpt lat="46.78183" lon="4.85842">
        <ele>184.8</ele>
        <time>2024-09-18T08:56:59Z</time>
      </trkpt>
      <trkpt lat="46.78182" lon="4.85843">
        <ele>184.6</ele>
        <time>2024-09-18T08:57:00Z</time>
      </trkpt>
      <trkpt lat="46.78181" lon="4.85844">
        <ele>184.6</ele>
        <time>2024-09-18T08:57:01Z</time>
      </trkpt>
      <trkpt lat="46.78181" lon="4.85844">
        <ele>184.6</ele>
        <time>2024-09-18T08:57:02Z</time>
      </trkpt>
      <trkpt lat="46.78184" lon="4.85845">
        <ele>185</ele>
        <time>2024-09-18T09:00:33Z</time>
      </trkpt>
      <trkpt lat="46.78185" lon="4.85844">
        <ele>185</ele>
        <time>2024-09-18T09:00:34Z</time>
      </trkpt>
      <trkpt lat="46.78185" lon="4.85844">
        <ele>184.8</ele>
        <time>2024-09-18T09:00:35Z</time>
      </trkpt>
      <trkpt lat="46.78185" lon="4.85834">
        <ele>185.2</ele>
        <time>2024-09-18T09:00:53Z</time>
      </trkpt>
      <trkpt lat="46.78185" lon="4.85832">
        <ele>185.2</ele>
        <time>2024-09-18T09:00:54Z</time>
      </trkpt>
      <trkpt lat="46.78185" lon="4.85831">
        <ele>185.2</ele>
        <time>2024-09-18T09:00:55Z</time>
      </trkpt>
      <trkpt lat="46.78185" lon="4.8583">
        <ele>185.2</ele>
        <time>2024-09-18T09:00:56Z</time>
      </trkpt>
      <trkpt lat="46.78185" lon="4.85829">
        <ele>185.2</ele>
        <time>2024-09-18T09:00:57Z</time>
      </trkpt>
      <trkpt lat="46.78186" lon="4.85829">
        <ele>185.4</ele>
        <time>2024-09-18T09:00:58Z</time>
      </trkpt>
      <trkpt lat="46.78186" lon="4.85829">
        <ele>185.4</ele>
        <time>2024-09-18T09:00:59Z</time>
      </trkpt>
      <trkpt lat="46.78186" lon="4.85829">
        <ele>185.4</ele>
        <time>2024-09-18T09:01:00Z</time>
      </trkpt>
      <trkpt lat="46.78186" lon="4.85827">
        <ele>185.6</ele>
        <time>2024-09-18T09:01:01Z</time>
      </trkpt>
      <trkpt lat="46.78186" lon="4.85827">
        <ele>185.4</ele>
        <time>2024-09-18T09:01:02Z</time>
      </trkpt>
      <trkpt lat="46.78186" lon="4.85827">
        <ele>185.4</ele>
        <time>2024-09-18T09:01:03Z</time>
      </trkpt>
      <trkpt lat="46.78195" lon="4.85824">
        <ele>185.4</ele>
        <time>2024-09-18T09:02:54Z</time>
      </trkpt>
      <trkpt lat="46.78195" lon="4.85824">
        <ele>185.4</ele>
        <time>2024-09-18T09:02:55Z</time>
      </trkpt>
      <trkpt lat="46.78195" lon="4.85824">
        <ele>185.4</ele>
        <time>2024-09-18T09:02:56Z</time>
      </trkpt>
      <trkpt lat="46.78189" lon="4.85832">
        <ele>185.2</ele>
        <time>2024-09-18T09:03:02Z</time>
      </trkpt>
      <trkpt lat="46.78189" lon="4.85833">
        <ele>185.2</ele>
        <time>2024-09-18T09:03:03Z</time>
      </trkpt>
      <trkpt lat="46.78189" lon="4.85834">
        <ele>185.2</ele>
        <time>2024-09-18T09:03:04Z</time>
      </trkpt>
      <trkpt lat="46.7819" lon="4.85833">
        <ele>185.2</ele>
        <time>2024-09-18T09:03:05Z</time>
      </trkpt>
      <trkpt lat="46.7819" lon="4.85834">
        <ele>185.4</ele>
        <time>2024-09-18T09:03:06Z</time>
      </trkpt>
      <trkpt lat="46.7819" lon="4.85834">
        <ele>185.2</ele>
        <time>2024-09-18T09:03:07Z</time>
      </trkpt>
      <trkpt lat="46.7819" lon="4.85838">
        <ele>185.2</ele>
        <time>2024-09-18T09:03:08Z</time>
      </trkpt>
      <trkpt lat="46.78191" lon="4.85839">
        <ele>185.2</ele>
        <time>2024-09-18T09:03:09Z</time>
      </trkpt>
      <trkpt lat="46.78191" lon="4.85839">
        <ele>185.2</ele>
        <time>2024-09-18T09:03:10Z</time>
      </trkpt>
      <trkpt lat="46.78192" lon="4.85839">
        <ele>185.4</ele>
        <time>2024-09-18T09:03:11Z</time>
      </trkpt>
      <trkpt lat="46.78193" lon="4.85838">
        <ele>185.4</ele>
        <time>2024-09-18T09:03:12Z</time>
      </trkpt>
      <trkpt lat="46.78193" lon="4.85838">
        <ele>185.4</ele>
        <time>2024-09-18T09:03:13Z</time>
      </trkpt>
      <trkpt lat="46.78193" lon="4.85838">
        <ele>185.4</ele>
        <time>2024-09-18T09:03:14Z</time>
      </trkpt>
      <trkpt lat="46.78193" lon="4.85836">
        <ele>185.4</ele>
        <time>2024-09-18T09:03:15Z</time>
      </trkpt>
      <trkpt lat="46.78193" lon="4.85836">
        <ele>185.2</ele>
        <time>2024-09-18T09:03:16Z</time>
      </trkpt>
      <trkpt lat="46.78192" lon="4.85836">
        <ele>185.2</ele>
        <time>2024-09-18T09:03:17Z</time>
      </trkpt>
      <trkpt lat="46.78191" lon="4.85835">
        <ele>185.2</ele>
        <time>2024-09-18T09:03:18Z</time>
      </trkpt>
      <trkpt lat="46.7819" lon="4.85835">
        <ele>185.2</ele>
        <time>2024-09-18T09:03:19Z</time>
      </trkpt>
      <trkpt lat="46.78189" lon="4.85835">
        <ele>185.2</ele>
        <time>2024-09-18T09:03:20Z</time>
      </trkpt>
      <trkpt lat="46.78189" lon="4.85834">
        <ele>185.2</ele>
        <time>2024-09-18T09:03:21Z</time>
      </trkpt>
      <trkpt lat="46.78189" lon="4.85834">
        <ele>185.2</ele>
        <time>2024-09-18T09:03:22Z</time>
      </trkpt>
      <trkpt lat="46.78188" lon="4.85835">
        <ele>185.4</ele>
        <time>2024-09-18T09:03:47Z</time>
      </trkpt>
      <trkpt lat="46.78188" lon="4.85835">
        <ele>185.4</ele>
        <time>2024-09-18T09:03:48Z</time>
      </trkpt>
      <trkpt lat="46.78188" lon="4.85835">
        <ele>185.4</ele>
        <time>2024-09-18T09:03:49Z</time>
      </trkpt>
      <trkpt lat="46.78188" lon="4.85835">
        <ele>184.8</ele>
        <time>2024-09-18T09:03:50Z</time>
      </trkpt>
      <trkpt lat="46.78182" lon="4.85835">
        <ele>185.8</ele>
        <time>2024-09-18T09:20:39Z</time>
      </trkpt>
      <trkpt lat="46.78182" lon="4.85834">
        <ele>185.8</ele>
        <time>2024-09-18T09:20:40Z</time>
      </trkpt>
      <trkpt lat="46.78181" lon="4.85834">
        <ele>185.4</ele>
        <time>2024-09-18T09:20:41Z</time>
      </trkpt>
      <trkpt lat="46.7818" lon="4.85835">
        <ele>185.4</ele>
        <time>2024-09-18T09:20:42Z</time>
      </trkpt>
      <trkpt lat="46.78179" lon="4.85835">
        <ele>185.4</ele>
        <time>2024-09-18T09:20:43Z</time>
      </trkpt>
      <trkpt lat="46.78179" lon="4.85836">
        <ele>185.4</ele>
        <time>2024-09-18T09:20:44Z</time>
      </trkpt>
      <trkpt lat="46.78177" lon="4.85837">
        <ele>185.4</ele>
        <time>2024-09-18T09:20:45Z</time>
      </trkpt>
      <trkpt lat="46.78176" lon="4.85838">
        <ele>185.2</ele>
        <time>2024-09-18T09:20:46Z</time>
      </trkpt>
      <trkpt lat="46.78177" lon="4.85838">
        <ele>185.4</ele>
        <time>2024-09-18T09:20:47Z</time>
      </trkpt>
      <trkpt lat="46.78176" lon="4.85839">
        <ele>185.4</ele>
        <time>2024-09-18T09:20:48Z</time>
      </trkpt>
      <trkpt lat="46.78177" lon="4.85839">
        <ele>185.4</ele>
        <time>2024-09-18T09:20:49Z</time>
      </trkpt>
      <trkpt lat="46.78177" lon="4.8584">
        <ele>185.2</ele>
        <time>2024-09-18T09:20:50Z</time>
      </trkpt>
      <trkpt lat="46.78178" lon="4.8584">
        <ele>185.2</ele>
        <time>2024-09-18T09:20:51Z</time>
      </trkpt>
      <trkpt lat="46.78178" lon="4.8584">
        <ele>185.2</ele>
        <time>2024-09-18T09:20:52Z</time>
      </trkpt>
      <trkpt lat="46.78178" lon="4.85839">
        <ele>185.2</ele>
        <time>2024-09-18T09:20:53Z</time>
      </trkpt>
      <trkpt lat="46.78178" lon="4.85839">
        <ele>185.2</ele>
        <time>2024-09-18T09:20:54Z</time>
      </trkpt>
      <trkpt lat="46.78178" lon="4.85839">
        <ele>185.2</ele>
        <time>2024-09-18T09:20:55Z</time>
      </trkpt>
      <trkpt lat="46.78183" lon="4.85845">
        <ele>183.6</ele>
        <time>2024-09-18T09:21:18Z</time>
      </trkpt>
      <trkpt lat="46.78183" lon="4.85845">
        <ele>183.6</ele>
        <time>2024-09-18T09:21:19Z</time>
      </trkpt>
      <trkpt lat="46.78183" lon="4.85843">
        <ele>183.6</ele>
        <time>2024-09-18T09:21:20Z</time>
      </trkpt>
      <trkpt lat="46.78183" lon="4.85843">
        <ele>185.2</ele>
        <time>2024-09-18T09:21:21Z</time>
      </trkpt>
      <trkpt lat="46.78183" lon="4.85843">
        <ele>185.2</ele>
        <time>2024-09-18T09:21:22Z</time>
      </trkpt>
      <trkpt lat="46.78185" lon="4.85845">
        <ele>188</ele>
        <time>2024-09-18T09:21:26Z</time>
      </trkpt>
      <trkpt lat="46.78185" lon="4.85846">
        <ele>188</ele>
        <time>2024-09-18T09:21:27Z</time>
      </trkpt>
      <trkpt lat="46.78185" lon="4.85846">
        <ele>188</ele>
        <time>2024-09-18T09:21:28Z</time>
      </trkpt>
      <trkpt lat="46.78185" lon="4.85846">
        <ele>188</ele>
        <time>2024-09-18T09:21:29Z</time>
      </trkpt>
      <trkpt lat="46.78191" lon="4.85847">
        <ele>185.8</ele>
        <time>2024-09-18T09:23:35Z</time>
      </trkpt>
      <trkpt lat="46.78191" lon="4.85847">
        <ele>185.8</ele>
        <time>2024-09-18T09:23:36Z</time>
      </trkpt>
      <trkpt lat="46.78192" lon="4.85847">
        <ele>185.8</ele>
        <time>2024-09-18T09:23:37Z</time>
      </trkpt>
      <trkpt lat="46.78192" lon="4.85847">
        <ele>185.6</ele>
        <time>2024-09-18T09:23:38Z</time>
      </trkpt>
      <trkpt lat="46.78193" lon="4.85846">
        <ele>185.6</ele>
        <time>2024-09-18T09:23:39Z</time>
      </trkpt>
      <trkpt lat="46.78193" lon="4.85846">
        <ele>185.8</ele>
        <time>2024-09-18T09:23:40Z</time>
      </trkpt>
      <trkpt lat="46.78193" lon="4.85846">
        <ele>185.8</ele>
        <time>2024-09-18T09:23:41Z</time>
      </trkpt>
      <trkpt lat="46.78194" lon="4.85846">
        <ele>185.8</ele>
        <time>2024-09-18T09:23:42Z</time>
      </trkpt>
      <trkpt lat="46.78194" lon="4.85846">
        <ele>185.8</ele>
        <time>2024-09-18T09:23:43Z</time>
      </trkpt>
      <trkpt lat="46.78193" lon="4.85842">
        <ele>185.4</ele>
        <time>2024-09-18T09:24:13Z</time>
      </trkpt>
      <trkpt lat="46.78194" lon="4.8584">
        <ele>185.6</ele>
        <time>2024-09-18T09:24:14Z</time>
      </trkpt>
      <trkpt lat="46.78196" lon="4.8584">
        <ele>185.8</ele>
        <time>2024-09-18T09:24:15Z</time>
      </trkpt>
      <trkpt lat="46.78197" lon="4.85838">
        <ele>185.8</ele>
        <time>2024-09-18T09:24:16Z</time>
      </trkpt>
      <trkpt lat="46.78199" lon="4.85836">
        <ele>185.8</ele>
        <time>2024-09-18T09:24:17Z</time>
      </trkpt>
      <trkpt lat="46.782" lon="4.85835">
        <ele>185.8</ele>
        <time>2024-09-18T09:24:18Z</time>
      </trkpt>
      <trkpt lat="46.78201" lon="4.85834">
        <ele>185.8</ele>
        <time>2024-09-18T09:24:19Z</time>
      </trkpt>
      <trkpt lat="46.78201" lon="4.85834">
        <ele>186</ele>
        <time>2024-09-18T09:24:20Z</time>
      </trkpt>
      <trkpt lat="46.78201" lon="4.85834">
        <ele>186</ele>
        <time>2024-09-18T09:24:21Z</time>
      </trkpt>
      <trkpt lat="46.782" lon="4.85835">
        <ele>186</ele>
        <time>2024-09-18T09:24:22Z</time>
      </trkpt>
      <trkpt lat="46.78199" lon="4.85836">
        <ele>185.8</ele>
        <time>2024-09-18T09:24:23Z</time>
      </trkpt>
      <trkpt lat="46.78198" lon="4.85837">
        <ele>186</ele>
        <time>2024-09-18T09:24:24Z</time>
      </trkpt>
      <trkpt lat="46.78198" lon="4.85839">
        <ele>186</ele>
        <time>2024-09-18T09:24:25Z</time>
      </trkpt>
      <trkpt lat="46.782" lon="4.85841">
        <ele>186</ele>
        <time>2024-09-18T09:24:26Z</time>
      </trkpt>
      <trkpt lat="46.78201" lon="4.85842">
        <ele>186</ele>
        <time>2024-09-18T09:24:27Z</time>
      </trkpt>
      <trkpt lat="46.78203" lon="4.85844">
        <ele>186</ele>
        <time>2024-09-18T09:24:28Z</time>
      </trkpt>
      <trkpt lat="46.78204" lon="4.85847">
        <ele>185.8</ele>
        <time>2024-09-18T09:24:29Z</time>
      </trkpt>
      <trkpt lat="46.78206" lon="4.8585">
        <ele>185.8</ele>
        <time>2024-09-18T09:24:30Z</time>
      </trkpt>
      <trkpt lat="46.78207" lon="4.85853">
        <ele>185.8</ele>
        <time>2024-09-18T09:24:31Z</time>
      </trkpt>
      <trkpt lat="46.78209" lon="4.85857">
        <ele>185.8</ele>
        <time>2024-09-18T09:24:32Z</time>
      </trkpt>
      <trkpt lat="46.78211" lon="4.85861">
        <ele>185.4</ele>
        <time>2024-09-18T09:24:33Z</time>
      </trkpt>
      <trkpt lat="46.78213" lon="4.85865">
        <ele>185.4</ele>
        <time>2024-09-18T09:24:34Z</time>
      </trkpt>
      <trkpt lat="46.78215" lon="4.85869">
        <ele>185.4</ele>
        <time>2024-09-18T09:24:35Z</time>
      </trkpt>
      <trkpt lat="46.78217" lon="4.85871">
        <ele>185.8</ele>
        <time>2024-09-18T09:24:36Z</time>
      </trkpt>
      <trkpt lat="46.78219" lon="4.85872">
        <ele>185.6</ele>
        <time>2024-09-18T09:24:37Z</time>
      </trkpt>
      <trkpt lat="46.78221" lon="4.85871">
        <ele>185.6</ele>
        <time>2024-09-18T09:24:38Z</time>
      </trkpt>
      <trkpt lat="46.78224" lon="4.85869">
        <ele>185.6</ele>
        <time>2024-09-18T09:24:39Z</time>
      </trkpt>
      <trkpt lat="46.78226" lon="4.85867">
        <ele>185.6</ele>
        <time>2024-09-18T09:24:40Z</time>
      </trkpt>
      <trkpt lat="46.78228" lon="4.85865">
        <ele>185.6</ele>
        <time>2024-09-18T09:24:41Z</time>
      </trkpt>
      <trkpt lat="46.7823" lon="4.85863">
        <ele>185.8</ele>
        <time>2024-09-18T09:24:42Z</time>
      </trkpt>
      <trkpt lat="46.78232" lon="4.85861">
        <ele>186</ele>
        <time>2024-09-18T09:24:43Z</time>
      </trkpt>
      <trkpt lat="46.78234" lon="4.85859">
        <ele>186</ele>
        <time>2024-09-18T09:24:44Z</time>
      </trkpt>
      <trkpt lat="46.78236" lon="4.85856">
        <ele>186</ele>
        <time>2024-09-18T09:24:45Z</time>
      </trkpt>
      <trkpt lat="46.78238" lon="4.85853">
        <ele>186</ele>
        <time>2024-09-18T09:24:46Z</time>
      </trkpt>
      <trkpt lat="46.78239" lon="4.85851">
        <ele>186</ele>
        <time>2024-09-18T09:24:47Z</time>
      </trkpt>
      <trkpt lat="46.7824" lon="4.8585">
        <ele>186</ele>
        <time>2024-09-18T09:24:48Z</time>
      </trkpt>
      <trkpt lat="46.78241" lon="4.85848">
        <ele>186</ele>
        <time>2024-09-18T09:24:49Z</time>
      </trkpt>
      <trkpt lat="46.78242" lon="4.85847">
        <ele>186</ele>
        <time>2024-09-18T09:24:50Z</time>
      </trkpt>
      <trkpt lat="46.78243" lon="4.85845">
        <ele>186</ele>
        <time>2024-09-18T09:24:51Z</time>
      </trkpt>
      <trkpt lat="46.78244" lon="4.85844">
        <ele>186</ele>
        <time>2024-09-18T09:24:52Z</time>
      </trkpt>
      <trkpt lat="46.78246" lon="4.85843">
        <ele>186</ele>
        <time>2024-09-18T09:24:53Z</time>
      </trkpt>
      <trkpt lat="46.78247" lon="4.85841">
        <ele>186</ele>
        <time>2024-09-18T09:24:54Z</time>
      </trkpt>
      <trkpt lat="46.78248" lon="4.8584">
        <ele>186</ele>
        <time>2024-09-18T09:24:55Z</time>
      </trkpt>
      <trkpt lat="46.78249" lon="4.85838">
        <ele>186</ele>
        <time>2024-09-18T09:24:56Z</time>
      </trkpt>
      <trkpt lat="46.7825" lon="4.85837">
        <ele>186</ele>
        <time>2024-09-18T09:24:57Z</time>
      </trkpt>
      <trkpt lat="46.78251" lon="4.85835">
        <ele>186</ele>
        <time>2024-09-18T09:24:58Z</time>
      </trkpt>
      <trkpt lat="46.78252" lon="4.85833">
        <ele>185.8</ele>
        <time>2024-09-18T09:24:59Z</time>
      </trkpt>
      <trkpt lat="46.78254" lon="4.8583">
        <ele>185.8</ele>
        <time>2024-09-18T09:25:00Z</time>
      </trkpt>
      <trkpt lat="46.78255" lon="4.85829">
        <ele>185.8</ele>
        <time>2024-09-18T09:25:01Z</time>
      </trkpt>
      <trkpt lat="46.78256" lon="4.85827">
        <ele>185.8</ele>
        <time>2024-09-18T09:25:02Z</time>
      </trkpt>
      <trkpt lat="46.78257" lon="4.85826">
        <ele>185.8</ele>
        <time>2024-09-18T09:25:03Z</time>
      </trkpt>
      <trkpt lat="46.78258" lon="4.85825">
        <ele>185.8</ele>
        <time>2024-09-18T09:25:04Z</time>
      </trkpt>
      <trkpt lat="46.78258" lon="4.85824">
        <ele>185.8</ele>
        <time>2024-09-18T09:25:05Z</time>
      </trkpt>
      <trkpt lat="46.78259" lon="4.85824">
        <ele>185.8</ele>
        <time>2024-09-18T09:25:06Z</time>
      </trkpt>
      <trkpt lat="46.78259" lon="4.85823">
        <ele>185.8</ele>
        <time>2024-09-18T09:25:07Z</time>
      </trkpt>
      <trkpt lat="46.78264" lon="4.85824">
        <ele>185</ele>
        <time>2024-09-18T09:29:13Z</time>
      </trkpt>
      <trkpt lat="46.78265" lon="4.85822">
        <ele>185</ele>
        <time>2024-09-18T09:29:14Z</time>
      </trkpt>
      <trkpt lat="46.78266" lon="4.85821">
        <ele>185.2</ele>
        <time>2024-09-18T09:29:15Z</time>
      </trkpt>
      <trkpt lat="46.78267" lon="4.8582">
        <ele>185.2</ele>
        <time>2024-09-18T09:29:16Z</time>
      </trkpt>
      <trkpt lat="46.78267" lon="4.85818">
        <ele>185.2</ele>
        <time>2024-09-18T09:29:17Z</time>
      </trkpt>
      <trkpt lat="46.78268" lon="4.85816">
        <ele>185.2</ele>
        <time>2024-09-18T09:29:18Z</time>
      </trkpt>
      <trkpt lat="46.78269" lon="4.85814">
        <ele>185.2</ele>
        <time>2024-09-18T09:29:19Z</time>
      </trkpt>
      <trkpt lat="46.7827" lon="4.85813">
        <ele>185.2</ele>
        <time>2024-09-18T09:29:20Z</time>
      </trkpt>
      <trkpt lat="46.78271" lon="4.85812">
        <ele>185</ele>
        <time>2024-09-18T09:29:21Z</time>
      </trkpt>
      <trkpt lat="46.78272" lon="4.85811">
        <ele>185</ele>
        <time>2024-09-18T09:29:22Z</time>
      </trkpt>
      <trkpt lat="46.78273" lon="4.8581">
        <ele>185</ele>
        <time>2024-09-18T09:29:23Z</time>
      </trkpt>
      <trkpt lat="46.78273" lon="4.85809">
        <ele>185</ele>
        <time>2024-09-18T09:29:24Z</time>
      </trkpt>
      <trkpt lat="46.78273" lon="4.85808">
        <ele>185</ele>
        <time>2024-09-18T09:29:25Z</time>
      </trkpt>
      <trkpt lat="46.78274" lon="4.85807">
        <ele>185</ele>
        <time>2024-09-18T09:29:26Z</time>
      </trkpt>
      <trkpt lat="46.78275" lon="4.85806">
        <ele>185</ele>
        <time>2024-09-18T09:29:27Z</time>
      </trkpt>
      <trkpt lat="46.78275" lon="4.85804">
        <ele>185</ele>
        <time>2024-09-18T09:29:28Z</time>
      </trkpt>
      <trkpt lat="46.78276" lon="4.85802">
        <ele>184.8</ele>
        <time>2024-09-18T09:29:29Z</time>
      </trkpt>
      <trkpt lat="46.78277" lon="4.858">
        <ele>185</ele>
        <time>2024-09-18T09:29:30Z</time>
      </trkpt>
      <trkpt lat="46.78278" lon="4.85798">
        <ele>185</ele>
        <time>2024-09-18T09:29:31Z</time>
      </trkpt>
      <trkpt lat="46.7828" lon="4.85796">
        <ele>185</ele>
        <time>2024-09-18T09:29:32Z</time>
      </trkpt>
      <trkpt lat="46.78281" lon="4.85795">
        <ele>185</ele>
        <time>2024-09-18T09:29:33Z</time>
      </trkpt>
      <trkpt lat="46.78282" lon="4.85793">
        <ele>185</ele>
        <time>2024-09-18T09:29:34Z</time>
      </trkpt>
      <trkpt lat="46.78283" lon="4.85791">
        <ele>185</ele>
        <time>2024-09-18T09:29:35Z</time>
      </trkpt>
      <trkpt lat="46.78285" lon="4.8579">
        <ele>185</ele>
        <time>2024-09-18T09:29:36Z</time>
      </trkpt>
      <trkpt lat="46.78285" lon="4.85789">
        <ele>185</ele>
        <time>2024-09-18T09:29:37Z</time>
      </trkpt>
      <trkpt lat="46.78286" lon="4.85787">
        <ele>185</ele>
        <time>2024-09-18T09:29:38Z</time>
      </trkpt>
      <trkpt lat="46.78288" lon="4.85785">
        <ele>185</ele>
        <time>2024-09-18T09:29:39Z</time>
      </trkpt>
      <trkpt lat="46.7829" lon="4.85784">
        <ele>185</ele>
        <time>2024-09-18T09:29:40Z</time>
      </trkpt>
      <trkpt lat="46.78292" lon="4.85781">
        <ele>185</ele>
        <time>2024-09-18T09:29:41Z</time>
      </trkpt>
      <trkpt lat="46.78294" lon="4.85779">
        <ele>185</ele>
        <time>2024-09-18T09:29:42Z</time>
      </trkpt>
      <trkpt lat="46.78296" lon="4.85777">
        <ele>185</ele>
        <time>2024-09-18T09:29:43Z</time>
      </trkpt>
      <trkpt lat="46.78298" lon="4.85776">
        <ele>185</ele>
        <time>2024-09-18T09:29:44Z</time>
      </trkpt>
      <trkpt lat="46.78299" lon="4.85775">
        <ele>185</ele>
        <time>2024-09-18T09:29:45Z</time>
      </trkpt>
      <trkpt lat="46.78301" lon="4.85774">
        <ele>185</ele>
        <time>2024-09-18T09:29:46Z</time>
      </trkpt>
      <trkpt lat="46.78302" lon="4.85772">
        <ele>185</ele>
        <time>2024-09-18T09:29:47Z</time>
      </trkpt>
      <trkpt lat="46.78304" lon="4.8577">
        <ele>185</ele>
        <time>2024-09-18T09:29:48Z</time>
      </trkpt>
      <trkpt lat="46.78305" lon="4.85768">
        <ele>185</ele>
        <time>2024-09-18T09:29:49Z</time>
      </trkpt>
      <trkpt lat="46.78307" lon="4.85766">
        <ele>185</ele>
        <time>2024-09-18T09:29:50Z</time>
      </trkpt>
      <trkpt lat="46.78308" lon="4.85765">
        <ele>185</ele>
        <time>2024-09-18T09:29:51Z</time>
      </trkpt>
      <trkpt lat="46.7831" lon="4.85764">
        <ele>185</ele>
        <time>2024-09-18T09:29:52Z</time>
      </trkpt>
      <trkpt lat="46.78311" lon="4.85762">
        <ele>185</ele>
        <time>2024-09-18T09:29:53Z</time>
      </trkpt>
      <trkpt lat="46.78312" lon="4.8576">
        <ele>185</ele>
        <time>2024-09-18T09:29:54Z</time>
      </trkpt>
      <trkpt lat="46.78314" lon="4.85758">
        <ele>185</ele>
        <time>2024-09-18T09:29:55Z</time>
      </trkpt>
      <trkpt lat="46.78316" lon="4.85756">
        <ele>184.8</ele>
        <time>2024-09-18T09:29:56Z</time>
      </trkpt>
      <trkpt lat="46.78318" lon="4.85754">
        <ele>184.8</ele>
        <time>2024-09-18T09:29:57Z</time>
      </trkpt>
      <trkpt lat="46.78319" lon="4.85751">
        <ele>184.8</ele>
        <time>2024-09-18T09:29:58Z</time>
      </trkpt>
      <trkpt lat="46.78321" lon="4.85748">
        <ele>184.8</ele>
        <time>2024-09-18T09:29:59Z</time>
      </trkpt>
      <trkpt lat="46.78323" lon="4.85745">
        <ele>184.8</ele>
        <time>2024-09-18T09:30:00Z</time>
      </trkpt>
      <trkpt lat="46.78324" lon="4.85741">
        <ele>185</ele>
        <time>2024-09-18T09:30:01Z</time>
      </trkpt>
      <trkpt lat="46.78325" lon="4.85738">
        <ele>185</ele>
        <time>2024-09-18T09:30:02Z</time>
      </trkpt>
      <trkpt lat="46.78326" lon="4.85734">
        <ele>185</ele>
        <time>2024-09-18T09:30:03Z</time>
      </trkpt>
      <trkpt lat="46.78328" lon="4.8573">
        <ele>185</ele>
        <time>2024-09-18T09:30:04Z</time>
      </trkpt>
      <trkpt lat="46.78329" lon="4.85727">
        <ele>184.8</ele>
        <time>2024-09-18T09:30:05Z</time>
      </trkpt>
      <trkpt lat="46.7833" lon="4.85724">
        <ele>184.6</ele>
        <time>2024-09-18T09:30:06Z</time>
      </trkpt>
      <trkpt lat="46.78332" lon="4.85721">
        <ele>184.6</ele>
        <time>2024-09-18T09:30:07Z</time>
      </trkpt>
      <trkpt lat="46.78333" lon="4.85718">
        <ele>184.6</ele>
        <time>2024-09-18T09:30:08Z</time>
      </trkpt>
      <trkpt lat="46.78335" lon="4.85714">
        <ele>184.4</ele>
        <time>2024-09-18T09:30:09Z</time>
      </trkpt>
      <trkpt lat="46.78336" lon="4.85711">
        <ele>184.4</ele>
        <time>2024-09-18T09:30:10Z</time>
      </trkpt>
      <trkpt lat="46.78337" lon="4.85707">
        <ele>184.4</ele>
        <time>2024-09-18T09:30:11Z</time>
      </trkpt>
      <trkpt lat="46.78338" lon="4.85704">
        <ele>184.4</ele>
        <time>2024-09-18T09:30:12Z</time>
      </trkpt>
      <trkpt lat="46.78339" lon="4.85701">
        <ele>184.4</ele>
        <time>2024-09-18T09:30:13Z</time>
      </trkpt>
      <trkpt lat="46.7834" lon="4.85698">
        <ele>184.4</ele>
        <time>2024-09-18T09:30:14Z</time>
      </trkpt>
      <trkpt lat="46.78341" lon="4.85695">
        <ele>184.4</ele>
        <time>2024-09-18T09:30:15Z</time>
      </trkpt>
      <trkpt lat="46.78342" lon="4.85693">
        <ele>184.4</ele>
        <time>2024-09-18T09:30:16Z</time>
      </trkpt>
      <trkpt lat="46.78342" lon="4.8569">
        <ele>184.4</ele>
        <time>2024-09-18T09:30:17Z</time>
      </trkpt>
      <trkpt lat="46.78342" lon="4.85688">
        <ele>184.4</ele>
        <time>2024-09-18T09:30:18Z</time>
      </trkpt>
      <trkpt lat="46.78343" lon="4.85686">
        <ele>184.4</ele>
        <time>2024-09-18T09:30:19Z</time>
      </trkpt>
      <trkpt lat="46.78343" lon="4.85683">
        <ele>184.4</ele>
        <time>2024-09-18T09:30:20Z</time>
      </trkpt>
      <trkpt lat="46.78343" lon="4.85681">
        <ele>184.4</ele>
        <time>2024-09-18T09:30:21Z</time>
      </trkpt>
      <trkpt lat="46.78344" lon="4.85678">
        <ele>184.4</ele>
        <time>2024-09-18T09:30:22Z</time>
      </trkpt>
      <trkpt lat="46.78345" lon="4.85675">
        <ele>184.6</ele>
        <time>2024-09-18T09:30:23Z</time>
      </trkpt>
      <trkpt lat="46.78346" lon="4.85672">
        <ele>184.6</ele>
        <time>2024-09-18T09:30:24Z</time>
      </trkpt>
      <trkpt lat="46.78347" lon="4.85668">
        <ele>184.6</ele>
        <time>2024-09-18T09:30:25Z</time>
      </trkpt>
      <trkpt lat="46.78348" lon="4.85666">
        <ele>184.6</ele>
        <time>2024-09-18T09:30:26Z</time>
      </trkpt>
      <trkpt lat="46.78349" lon="4.85664">
        <ele>184.4</ele>
        <time>2024-09-18T09:30:27Z</time>
      </trkpt>
      <trkpt lat="46.7835" lon="4.85662">
        <ele>184.4</ele>
        <time>2024-09-18T09:30:28Z</time>
      </trkpt>
      <trkpt lat="46.78352" lon="4.8566">
        <ele>184.4</ele>
        <time>2024-09-18T09:30:29Z</time>
      </trkpt>
      <trkpt lat="46.78353" lon="4.85658">
        <ele>184.4</ele>
        <time>2024-09-18T09:30:30Z</time>
      </trkpt>
      <trkpt lat="46.78354" lon="4.85655">
        <ele>184.2</ele>
        <time>2024-09-18T09:30:31Z</time>
      </trkpt>
      <trkpt lat="46.78354" lon="4.85653">
        <ele>184.4</ele>
        <time>2024-09-18T09:30:32Z</time>
      </trkpt>
      <trkpt lat="46.78355" lon="4.8565">
        <ele>184.4</ele>
        <time>2024-09-18T09:30:33Z</time>
      </trkpt>
      <trkpt lat="46.78355" lon="4.85648">
        <ele>184.4</ele>
        <time>2024-09-18T09:30:34Z</time>
      </trkpt>
      <trkpt lat="46.78356" lon="4.85645">
        <ele>184.4</ele>
        <time>2024-09-18T09:30:35Z</time>
      </trkpt>
      <trkpt lat="46.78357" lon="4.85643">
        <ele>184</ele>
        <time>2024-09-18T09:30:36Z</time>
      </trkpt>
      <trkpt lat="46.78358" lon="4.85641">
        <ele>184</ele>
        <time>2024-09-18T09:30:37Z</time>
      </trkpt>
      <trkpt lat="46.78359" lon="4.85639">
        <ele>184</ele>
        <time>2024-09-18T09:30:38Z</time>
      </trkpt>
      <trkpt lat="46.78361" lon="4.85637">
        <ele>184</ele>
        <time>2024-09-18T09:30:39Z</time>
      </trkpt>
      <trkpt lat="46.78362" lon="4.85635">
        <ele>184</ele>
        <time>2024-09-18T09:30:40Z</time>
      </trkpt>
      <trkpt lat="46.78363" lon="4.85633">
        <ele>184</ele>
        <time>2024-09-18T09:30:41Z</time>
      </trkpt>
      <trkpt lat="46.78364" lon="4.8563">
        <ele>183.8</ele>
        <time>2024-09-18T09:30:42Z</time>
      </trkpt>
      <trkpt lat="46.78365" lon="4.85627">
        <ele>183.8</ele>
        <time>2024-09-18T09:30:43Z</time>
      </trkpt>
      <trkpt lat="46.78367" lon="4.85625">
        <ele>183.8</ele>
        <time>2024-09-18T09:30:44Z</time>
      </trkpt>
      <trkpt lat="46.78368" lon="4.85622">
        <ele>183.8</ele>
        <time>2024-09-18T09:30:45Z</time>
      </trkpt>
      <trkpt lat="46.78369" lon="4.8562">
        <ele>183.6</ele>
        <time>2024-09-18T09:30:46Z</time>
      </trkpt>
      <trkpt lat="46.7837" lon="4.85616">
        <ele>183.6</ele>
        <time>2024-09-18T09:30:47Z</time>
      </trkpt>
      <trkpt lat="46.78371" lon="4.85613">
        <ele>183.6</ele>
        <time>2024-09-18T09:30:48Z</time>
      </trkpt>
      <trkpt lat="46.78371" lon="4.85609">
        <ele>183.6</ele>
        <time>2024-09-18T09:30:49Z</time>
      </trkpt>
      <trkpt lat="46.78371" lon="4.85605">
        <ele>183.6</ele>
        <time>2024-09-18T09:30:50Z</time>
      </trkpt>
      <trkpt lat="46.78371" lon="4.85602">
        <ele>183.8</ele>
        <time>2024-09-18T09:30:51Z</time>
      </trkpt>
      <trkpt lat="46.78371" lon="4.85598">
        <ele>183.8</ele>
        <time>2024-09-18T09:30:52Z</time>
      </trkpt>
      <trkpt lat="46.78371" lon="4.85594">
        <ele>183.8</ele>
        <time>2024-09-18T09:30:53Z</time>
      </trkpt>
      <trkpt lat="46.7837" lon="4.85591">
        <ele>183.6</ele>
        <time>2024-09-18T09:30:54Z</time>
      </trkpt>
      <trkpt lat="46.78369" lon="4.85587">
        <ele>183.4</ele>
        <time>2024-09-18T09:30:55Z</time>
      </trkpt>
      <trkpt lat="46.78369" lon="4.85584">
        <ele>183.4</ele>
        <time>2024-09-18T09:30:56Z</time>
      </trkpt>
      <trkpt lat="46.78369" lon="4.8558">
        <ele>183.4</ele>
        <time>2024-09-18T09:30:57Z</time>
      </trkpt>
      <trkpt lat="46.78369" lon="4.85576">
        <ele>183.4</ele>
        <time>2024-09-18T09:30:58Z</time>
      </trkpt>
      <trkpt lat="46.78369" lon="4.85572">
        <ele>183.2</ele>
        <time>2024-09-18T09:30:59Z</time>
      </trkpt>
      <trkpt lat="46.78368" lon="4.85568">
        <ele>183.2</ele>
        <time>2024-09-18T09:31:00Z</time>
      </trkpt>
      <trkpt lat="46.78367" lon="4.85562">
        <ele>183.2</ele>
        <time>2024-09-18T09:31:01Z</time>
      </trkpt>
      <trkpt lat="46.78367" lon="4.8556">
        <ele>183.2</ele>
        <time>2024-09-18T09:31:02Z</time>
      </trkpt>
      <trkpt lat="46.78366" lon="4.85557">
        <ele>183.2</ele>
        <time>2024-09-18T09:31:03Z</time>
      </trkpt>
      <trkpt lat="46.78365" lon="4.85554">
        <ele>183.2</ele>
        <time>2024-09-18T09:31:04Z</time>
      </trkpt>
      <trkpt lat="46.78365" lon="4.85552">
        <ele>183.2</ele>
        <time>2024-09-18T09:31:05Z</time>
      </trkpt>
      <trkpt lat="46.78365" lon="4.8555">
        <ele>183.2</ele>
        <time>2024-09-18T09:31:06Z</time>
      </trkpt>
      <trkpt lat="46.78365" lon="4.85549">
        <ele>183.2</ele>
        <time>2024-09-18T09:31:07Z</time>
      </trkpt>
      <trkpt lat="46.78368" lon="4.85542">
        <ele>183</ele>
        <time>2024-09-18T09:31:17Z</time>
      </trkpt>
      <trkpt lat="46.78368" lon="4.85541">
        <ele>183</ele>
        <time>2024-09-18T09:31:18Z</time>
      </trkpt>
      <trkpt lat="46.78369" lon="4.8554">
        <ele>183</ele>
        <time>2024-09-18T09:31:19Z</time>
      </trkpt>
      <trkpt lat="46.78371" lon="4.8554">
        <ele>183.2</ele>
        <time>2024-09-18T09:31:20Z</time>
      </trkpt>
      <trkpt lat="46.78373" lon="4.8554">
        <ele>183.2</ele>
        <time>2024-09-18T09:31:21Z</time>
      </trkpt>
      <trkpt lat="46.78375" lon="4.85539">
        <ele>183.2</ele>
        <time>2024-09-18T09:31:22Z</time>
      </trkpt>
      <trkpt lat="46.78376" lon="4.85538">
        <ele>183.2</ele>
        <time>2024-09-18T09:31:23Z</time>
      </trkpt>
      <trkpt lat="46.78378" lon="4.85538">
        <ele>183.2</ele>
        <time>2024-09-18T09:31:24Z</time>
      </trkpt>
      <trkpt lat="46.7838" lon="4.85536">
        <ele>183.2</ele>
        <time>2024-09-18T09:31:25Z</time>
      </trkpt>
      <trkpt lat="46.78382" lon="4.85535">
        <ele>183</ele>
        <time>2024-09-18T09:31:26Z</time>
      </trkpt>
      <trkpt lat="46.78384" lon="4.85534">
        <ele>183</ele>
        <time>2024-09-18T09:31:27Z</time>
      </trkpt>
      <trkpt lat="46.78386" lon="4.85533">
        <ele>183</ele>
        <time>2024-09-18T09:31:28Z</time>
      </trkpt>
      <trkpt lat="46.78388" lon="4.85532">
        <ele>183</ele>
        <time>2024-09-18T09:31:29Z</time>
      </trkpt>
      <trkpt lat="46.78389" lon="4.85532">
        <ele>183</ele>
        <time>2024-09-18T09:31:30Z</time>
      </trkpt>
      <trkpt lat="46.78391" lon="4.8553">
        <ele>183</ele>
        <time>2024-09-18T09:31:31Z</time>
      </trkpt>
      <trkpt lat="46.78393" lon="4.85529">
        <ele>183</ele>
        <time>2024-09-18T09:31:32Z</time>
      </trkpt>
      <trkpt lat="46.78394" lon="4.85528">
        <ele>183</ele>
        <time>2024-09-18T09:31:33Z</time>
      </trkpt>
      <trkpt lat="46.78396" lon="4.85527">
        <ele>183</ele>
        <time>2024-09-18T09:31:34Z</time>
      </trkpt>
      <trkpt lat="46.78398" lon="4.85527">
        <ele>183</ele>
        <time>2024-09-18T09:31:35Z</time>
      </trkpt>
      <trkpt lat="46.78399" lon="4.85526">
        <ele>183</ele>
        <time>2024-09-18T09:31:36Z</time>
      </trkpt>
      <trkpt lat="46.78401" lon="4.85526">
        <ele>183</ele>
        <time>2024-09-18T09:31:37Z</time>
      </trkpt>
      <trkpt lat="46.78403" lon="4.85524">
        <ele>183</ele>
        <time>2024-09-18T09:31:38Z</time>
      </trkpt>
      <trkpt lat="46.78405" lon="4.85523">
        <ele>183</ele>
        <time>2024-09-18T09:31:39Z</time>
      </trkpt>
      <trkpt lat="46.78407" lon="4.85522">
        <ele>182.8</ele>
        <time>2024-09-18T09:31:40Z</time>
      </trkpt>
      <trkpt lat="46.7841" lon="4.8552">
        <ele>182.8</ele>
        <time>2024-09-18T09:31:41Z</time>
      </trkpt>
      <trkpt lat="46.78412" lon="4.8552">
        <ele>182.8</ele>
        <time>2024-09-18T09:31:42Z</time>
      </trkpt>
      <trkpt lat="46.78414" lon="4.85519">
        <ele>182.8</ele>
        <time>2024-09-18T09:31:43Z</time>
      </trkpt>
      <trkpt lat="46.78416" lon="4.85519">
        <ele>182.8</ele>
        <time>2024-09-18T09:31:44Z</time>
      </trkpt>
      <trkpt lat="46.78417" lon="4.85517">
        <ele>182.8</ele>
        <time>2024-09-18T09:31:45Z</time>
      </trkpt>
      <trkpt lat="46.78419" lon="4.85516">
        <ele>182.8</ele>
        <time>2024-09-18T09:31:46Z</time>
      </trkpt>
      <trkpt lat="46.78421" lon="4.85515">
        <ele>183</ele>
        <time>2024-09-18T09:31:47Z</time>
      </trkpt>
      <trkpt lat="46.78423" lon="4.85513">
        <ele>183</ele>
        <time>2024-09-18T09:31:48Z</time>
      </trkpt>
      <trkpt lat="46.78424" lon="4.85511">
        <ele>183</ele>
        <time>2024-09-18T09:31:49Z</time>
      </trkpt>
      <trkpt lat="46.78426" lon="4.85509">
        <ele>183</ele>
        <time>2024-09-18T09:31:50Z</time>
      </trkpt>
      <trkpt lat="46.78427" lon="4.85508">
        <ele>182.8</ele>
        <time>2024-09-18T09:31:51Z</time>
      </trkpt>
      <trkpt lat="46.78428" lon="4.85507">
        <ele>183</ele>
        <time>2024-09-18T09:31:52Z</time>
      </trkpt>
      <trkpt lat="46.78428" lon="4.85508">
        <ele>183</ele>
        <time>2024-09-18T09:31:53Z</time>
      </trkpt>
      <trkpt lat="46.78428" lon="4.85508">
        <ele>183</ele>
        <time>2024-09-18T09:31:54Z</time>
      </trkpt>
      <trkpt lat="46.7843" lon="4.85504">
        <ele>182.8</ele>
        <time>2024-09-18T09:32:01Z</time>
      </trkpt>
      <trkpt lat="46.78431" lon="4.85503">
        <ele>182.8</ele>
        <time>2024-09-18T09:32:02Z</time>
      </trkpt>
      <trkpt lat="46.78434" lon="4.85503">
        <ele>182.8</ele>
        <time>2024-09-18T09:32:03Z</time>
      </trkpt>
      <trkpt lat="46.78436" lon="4.85503">
        <ele>183</ele>
        <time>2024-09-18T09:32:04Z</time>
      </trkpt>
      <trkpt lat="46.78438" lon="4.85502">
        <ele>183</ele>
        <time>2024-09-18T09:32:05Z</time>
      </trkpt>
      <trkpt lat="46.7844" lon="4.85501">
        <ele>183</ele>
        <time>2024-09-18T09:32:06Z</time>
      </trkpt>
      <trkpt lat="46.78442" lon="4.85501">
        <ele>183</ele>
        <time>2024-09-18T09:32:07Z</time>
      </trkpt>
      <trkpt lat="46.78444" lon="4.85501">
        <ele>183</ele>
        <time>2024-09-18T09:32:08Z</time>
      </trkpt>
      <trkpt lat="46.78446" lon="4.85501">
        <ele>183</ele>
        <time>2024-09-18T09:32:09Z</time>
      </trkpt>
      <trkpt lat="46.78448" lon="4.85502">
        <ele>183.2</ele>
        <time>2024-09-18T09:32:10Z</time>
      </trkpt>
      <trkpt lat="46.7845" lon="4.85502">
        <ele>183.2</ele>
        <time>2024-09-18T09:32:11Z</time>
      </trkpt>
      <trkpt lat="46.78453" lon="4.85503">
        <ele>183.2</ele>
        <time>2024-09-18T09:32:12Z</time>
      </trkpt>
      <trkpt lat="46.78455" lon="4.85502">
        <ele>183.2</ele>
        <time>2024-09-18T09:32:13Z</time>
      </trkpt>
      <trkpt lat="46.78457" lon="4.85502">
        <ele>183.2</ele>
        <time>2024-09-18T09:32:14Z</time>
      </trkpt>
      <trkpt lat="46.78459" lon="4.85502">
        <ele>183.2</ele>
        <time>2024-09-18T09:32:15Z</time>
      </trkpt>
      <trkpt lat="46.78462" lon="4.85502">
        <ele>183.2</ele>
        <time>2024-09-18T09:32:16Z</time>
      </trkpt>
      <trkpt lat="46.78465" lon="4.85501">
        <ele>183.2</ele>
        <time>2024-09-18T09:32:17Z</time>
      </trkpt>
      <trkpt lat="46.78467" lon="4.85502">
        <ele>183.2</ele>
        <time>2024-09-18T09:32:18Z</time>
      </trkpt>
      <trkpt lat="46.78469" lon="4.85502">
        <ele>183.2</ele>
        <time>2024-09-18T09:32:19Z</time>
      </trkpt>
      <trkpt lat="46.7847" lon="4.85501">
        <ele>183.2</ele>
        <time>2024-09-18T09:32:20Z</time>
      </trkpt>
      <trkpt lat="46.78472" lon="4.855">
        <ele>183.2</ele>
        <time>2024-09-18T09:32:21Z</time>
      </trkpt>
      <trkpt lat="46.78474" lon="4.85502">
        <ele>183.2</ele>
        <time>2024-09-18T09:32:22Z</time>
      </trkpt>
      <trkpt lat="46.78476" lon="4.85506">
        <ele>183.2</ele>
        <time>2024-09-18T09:32:23Z</time>
      </trkpt>
      <trkpt lat="46.78476" lon="4.85507">
        <ele>183.2</ele>
        <time>2024-09-18T09:32:24Z</time>
      </trkpt>
      <trkpt lat="46.78475" lon="4.85508">
        <ele>183.2</ele>
        <time>2024-09-18T09:32:25Z</time>
      </trkpt>
      <trkpt lat="46.78473" lon="4.85508">
        <ele>183.2</ele>
        <time>2024-09-18T09:32:26Z</time>
      </trkpt>
      <trkpt lat="46.78471" lon="4.85509">
        <ele>183</ele>
        <time>2024-09-18T09:32:27Z</time>
      </trkpt>
      <trkpt lat="46.78469" lon="4.85509">
        <ele>183</ele>
        <time>2024-09-18T09:32:28Z</time>
      </trkpt>
      <trkpt lat="46.78468" lon="4.8551">
        <ele>183</ele>
        <time>2024-09-18T09:32:29Z</time>
      </trkpt>
      <trkpt lat="46.78466" lon="4.8551">
        <ele>183</ele>
        <time>2024-09-18T09:32:30Z</time>
      </trkpt>
      <trkpt lat="46.78465" lon="4.85511">
        <ele>183</ele>
        <time>2024-09-18T09:32:31Z</time>
      </trkpt>
      <trkpt lat="46.78454" lon="4.85482">
        <ele>183.2</ele>
        <time>2024-09-18T09:37:49Z</time>
      </trkpt>
      <trkpt lat="46.78452" lon="4.85482">
        <ele>183.2</ele>
        <time>2024-09-18T09:37:50Z</time>
      </trkpt>
      <trkpt lat="46.78451" lon="4.85482">
        <ele>183.2</ele>
        <time>2024-09-18T09:37:51Z</time>
      </trkpt>
      <trkpt lat="46.7845" lon="4.85482">
        <ele>183.2</ele>
        <time>2024-09-18T09:37:52Z</time>
      </trkpt>
      <trkpt lat="46.78449" lon="4.85483">
        <ele>183</ele>
        <time>2024-09-18T09:37:53Z</time>
      </trkpt>
      <trkpt lat="46.78447" lon="4.85483">
        <ele>183</ele>
        <time>2024-09-18T09:37:54Z</time>
      </trkpt>
      <trkpt lat="46.78446" lon="4.85482">
        <ele>183</ele>
        <time>2024-09-18T09:37:55Z</time>
      </trkpt>
      <trkpt lat="46.78445" lon="4.85481">
        <ele>183</ele>
        <time>2024-09-18T09:37:56Z</time>
      </trkpt>
      <trkpt lat="46.78443" lon="4.8548">
        <ele>183</ele>
        <time>2024-09-18T09:37:57Z</time>
      </trkpt>
      <trkpt lat="46.78443" lon="4.85479">
        <ele>183.2</ele>
        <time>2024-09-18T09:37:58Z</time>
      </trkpt>
      <trkpt lat="46.78442" lon="4.85479">
        <ele>183.2</ele>
        <time>2024-09-18T09:37:59Z</time>
      </trkpt>
      <trkpt lat="46.78441" lon="4.8548">
        <ele>183.2</ele>
        <time>2024-09-18T09:38:00Z</time>
      </trkpt>
      <trkpt lat="46.78439" lon="4.8548">
        <ele>183.2</ele>
        <time>2024-09-18T09:38:01Z</time>
      </trkpt>
      <trkpt lat="46.78438" lon="4.85481">
        <ele>183</ele>
        <time>2024-09-18T09:38:02Z</time>
      </trkpt>
      <trkpt lat="46.78437" lon="4.85482">
        <ele>183</ele>
        <time>2024-09-18T09:38:03Z</time>
      </trkpt>
      <trkpt lat="46.78435" lon="4.85483">
        <ele>183</ele>
        <time>2024-09-18T09:38:04Z</time>
      </trkpt>
      <trkpt lat="46.78433" lon="4.85483">
        <ele>183</ele>
        <time>2024-09-18T09:38:05Z</time>
      </trkpt>
      <trkpt lat="46.78431" lon="4.85484">
        <ele>183.2</ele>
        <time>2024-09-18T09:38:06Z</time>
      </trkpt>
      <trkpt lat="46.78429" lon="4.85485">
        <ele>183</ele>
        <time>2024-09-18T09:38:07Z</time>
      </trkpt>
      <trkpt lat="46.78426" lon="4.85487">
        <ele>183</ele>
        <time>2024-09-18T09:38:08Z</time>
      </trkpt>
      <trkpt lat="46.78424" lon="4.85487">
        <ele>183</ele>
        <time>2024-09-18T09:38:09Z</time>
      </trkpt>
      <trkpt lat="46.78422" lon="4.85488">
        <ele>183</ele>
        <time>2024-09-18T09:38:10Z</time>
      </trkpt>
      <trkpt lat="46.7842" lon="4.85489">
        <ele>183.2</ele>
        <time>2024-09-18T09:38:11Z</time>
      </trkpt>
      <trkpt lat="46.78417" lon="4.85491">
        <ele>183.2</ele>
        <time>2024-09-18T09:38:12Z</time>
      </trkpt>
      <trkpt lat="46.78414" lon="4.85493">
        <ele>183</ele>
        <time>2024-09-18T09:38:13Z</time>
      </trkpt>
      <trkpt lat="46.78412" lon="4.85495">
        <ele>183</ele>
        <time>2024-09-18T09:38:14Z</time>
      </trkpt>
      <trkpt lat="46.78409" lon="4.85496">
        <ele>183.2</ele>
        <time>2024-09-18T09:38:15Z</time>
      </trkpt>
      <trkpt lat="46.78407" lon="4.85496">
        <ele>183.2</ele>
        <time>2024-09-18T09:38:16Z</time>
      </trkpt>
      <trkpt lat="46.78404" lon="4.85497">
        <ele>183</ele>
        <time>2024-09-18T09:38:17Z</time>
      </trkpt>
      <trkpt lat="46.78402" lon="4.85498">
        <ele>183</ele>
        <time>2024-09-18T09:38:18Z</time>
      </trkpt>
      <trkpt lat="46.784" lon="4.855">
        <ele>183</ele>
        <time>2024-09-18T09:38:19Z</time>
      </trkpt>
      <trkpt lat="46.78398" lon="4.85501">
        <ele>183</ele>
        <time>2024-09-18T09:38:20Z</time>
      </trkpt>
      <trkpt lat="46.78397" lon="4.85502">
        <ele>183</ele>
        <time>2024-09-18T09:38:21Z</time>
      </trkpt>
      <trkpt lat="46.78395" lon="4.85503">
        <ele>183.2</ele>
        <time>2024-09-18T09:38:22Z</time>
      </trkpt>
      <trkpt lat="46.78394" lon="4.85504">
        <ele>183.2</ele>
        <time>2024-09-18T09:38:23Z</time>
      </trkpt>
      <trkpt lat="46.78393" lon="4.85504">
        <ele>183.2</ele>
        <time>2024-09-18T09:38:24Z</time>
      </trkpt>
      <trkpt lat="46.78393" lon="4.85506">
        <ele>183.2</ele>
        <time>2024-09-18T09:38:25Z</time>
      </trkpt>
      <trkpt lat="46.78392" lon="4.85507">
        <ele>183.2</ele>
        <time>2024-09-18T09:38:26Z</time>
      </trkpt>
      <trkpt lat="46.7839" lon="4.85509">
        <ele>183.2</ele>
        <time>2024-09-18T09:38:27Z</time>
      </trkpt>
      <trkpt lat="46.78389" lon="4.85511">
        <ele>183.2</ele>
        <time>2024-09-18T09:38:28Z</time>
      </trkpt>
      <trkpt lat="46.78387" lon="4.85512">
        <ele>183.2</ele>
        <time>2024-09-18T09:38:29Z</time>
      </trkpt>
      <trkpt lat="46.78386" lon="4.85514">
        <ele>183</ele>
        <time>2024-09-18T09:38:30Z</time>
      </trkpt>
      <trkpt lat="46.78385" lon="4.85515">
        <ele>183</ele>
        <time>2024-09-18T09:38:31Z</time>
      </trkpt>
      <trkpt lat="46.78383" lon="4.85517">
        <ele>183</ele>
        <time>2024-09-18T09:38:32Z</time>
      </trkpt>
      <trkpt lat="46.78382" lon="4.85518">
        <ele>183</ele>
        <time>2024-09-18T09:38:33Z</time>
      </trkpt>
      <trkpt lat="46.78381" lon="4.8552">
        <ele>183</ele>
        <time>2024-09-18T09:38:34Z</time>
      </trkpt>
      <trkpt lat="46.78379" lon="4.85522">
        <ele>183.2</ele>
        <time>2024-09-18T09:38:35Z</time>
      </trkpt>
      <trkpt lat="46.78378" lon="4.85523">
        <ele>183.2</ele>
        <time>2024-09-18T09:38:36Z</time>
      </trkpt>
      <trkpt lat="46.78376" lon="4.85524">
        <ele>183.2</ele>
        <time>2024-09-18T09:38:37Z</time>
      </trkpt>
      <trkpt lat="46.78374" lon="4.85526">
        <ele>183.2</ele>
        <time>2024-09-18T09:38:38Z</time>
      </trkpt>
      <trkpt lat="46.78372" lon="4.85527">
        <ele>183.2</ele>
        <time>2024-09-18T09:38:39Z</time>
      </trkpt>
      <trkpt lat="46.78371" lon="4.85528">
        <ele>183.2</ele>
        <time>2024-09-18T09:38:40Z</time>
      </trkpt>
      <trkpt lat="46.78368" lon="4.85529">
        <ele>183.2</ele>
        <time>2024-09-18T09:38:41Z</time>
      </trkpt>
      <trkpt lat="46.78366" lon="4.8553">
        <ele>183.2</ele>
        <time>2024-09-18T09:38:42Z</time>
      </trkpt>
      <trkpt lat="46.78364" lon="4.85532">
        <ele>183.2</ele>
        <time>2024-09-18T09:38:43Z</time>
      </trkpt>
      <trkpt lat="46.78361" lon="4.85533">
        <ele>183.2</ele>
        <time>2024-09-18T09:38:44Z</time>
      </trkpt>
      <trkpt lat="46.78358" lon="4.85536">
        <ele>183.2</ele>
        <time>2024-09-18T09:38:45Z</time>
      </trkpt>
      <trkpt lat="46.78356" lon="4.85538">
        <ele>183.2</ele>
        <time>2024-09-18T09:38:46Z</time>
      </trkpt>
      <trkpt lat="46.78354" lon="4.8554">
        <ele>183.6</ele>
        <time>2024-09-18T09:38:47Z</time>
      </trkpt>
      <trkpt lat="46.78352" lon="4.85542">
        <ele>183.6</ele>
        <time>2024-09-18T09:38:48Z</time>
      </trkpt>
      <trkpt lat="46.7835" lon="4.85545">
        <ele>183.6</ele>
        <time>2024-09-18T09:38:49Z</time>
      </trkpt>
      <trkpt lat="46.78348" lon="4.85547">
        <ele>183.6</ele>
        <time>2024-09-18T09:38:50Z</time>
      </trkpt>
      <trkpt lat="46.78347" lon="4.85549">
        <ele>183.6</ele>
        <time>2024-09-18T09:38:51Z</time>
      </trkpt>
      <trkpt lat="46.78345" lon="4.8555">
        <ele>184</ele>
        <time>2024-09-18T09:38:52Z</time>
      </trkpt>
      <trkpt lat="46.78343" lon="4.85552">
        <ele>184</ele>
        <time>2024-09-18T09:38:53Z</time>
      </trkpt>
      <trkpt lat="46.78342" lon="4.85553">
        <ele>184</ele>
        <time>2024-09-18T09:38:54Z</time>
      </trkpt>
      <trkpt lat="46.7834" lon="4.85555">
        <ele>184</ele>
        <time>2024-09-18T09:38:55Z</time>
      </trkpt>
      <trkpt lat="46.78338" lon="4.85556">
        <ele>184</ele>
        <time>2024-09-18T09:38:56Z</time>
      </trkpt>
      <trkpt lat="46.78336" lon="4.85558">
        <ele>184.2</ele>
        <time>2024-09-18T09:38:57Z</time>
      </trkpt>
      <trkpt lat="46.78335" lon="4.85559">
        <ele>184.2</ele>
        <time>2024-09-18T09:38:58Z</time>
      </trkpt>
      <trkpt lat="46.78333" lon="4.8556">
        <ele>184.2</ele>
        <time>2024-09-18T09:38:59Z</time>
      </trkpt>
      <trkpt lat="46.78332" lon="4.85561">
        <ele>184.2</ele>
        <time>2024-09-18T09:39:00Z</time>
      </trkpt>
      <trkpt lat="46.78331" lon="4.85563">
        <ele>184.4</ele>
        <time>2024-09-18T09:39:01Z</time>
      </trkpt>
      <trkpt lat="46.78329" lon="4.85564">
        <ele>184.4</ele>
        <time>2024-09-18T09:39:02Z</time>
      </trkpt>
      <trkpt lat="46.78328" lon="4.85566">
        <ele>184.4</ele>
        <time>2024-09-18T09:39:03Z</time>
      </trkpt>
      <trkpt lat="46.78326" lon="4.85567">
        <ele>184.4</ele>
        <time>2024-09-18T09:39:04Z</time>
      </trkpt>
      <trkpt lat="46.78325" lon="4.85569">
        <ele>184.4</ele>
        <time>2024-09-18T09:39:05Z</time>
      </trkpt>
      <trkpt lat="46.78323" lon="4.85571">
        <ele>184.6</ele>
        <time>2024-09-18T09:39:06Z</time>
      </trkpt>
      <trkpt lat="46.78321" lon="4.85573">
        <ele>184.6</ele>
        <time>2024-09-18T09:39:07Z</time>
      </trkpt>
      <trkpt lat="46.78319" lon="4.85575">
        <ele>184.6</ele>
        <time>2024-09-18T09:39:08Z</time>
      </trkpt>
      <trkpt lat="46.78316" lon="4.85578">
        <ele>185</ele>
        <time>2024-09-18T09:39:09Z</time>
      </trkpt>
      <trkpt lat="46.78314" lon="4.85581">
        <ele>185</ele>
        <time>2024-09-18T09:39:10Z</time>
      </trkpt>
      <trkpt lat="46.78311" lon="4.85583">
        <ele>185</ele>
        <time>2024-09-18T09:39:11Z</time>
      </trkpt>
      <trkpt lat="46.78309" lon="4.85586">
        <ele>185</ele>
        <time>2024-09-18T09:39:12Z</time>
      </trkpt>
      <trkpt lat="46.78307" lon="4.85588">
        <ele>185</ele>
        <time>2024-09-18T09:39:13Z</time>
      </trkpt>
      <trkpt lat="46.78305" lon="4.85591">
        <ele>185.2</ele>
        <time>2024-09-18T09:39:14Z</time>
      </trkpt>
      <trkpt lat="46.78302" lon="4.85593">
        <ele>185.2</ele>
        <time>2024-09-18T09:39:15Z</time>
      </trkpt>
      <trkpt lat="46.783" lon="4.85596">
        <ele>185.2</ele>
        <time>2024-09-18T09:39:16Z</time>
      </trkpt>
      <trkpt lat="46.78298" lon="4.85598">
        <ele>185.2</ele>
        <time>2024-09-18T09:39:17Z</time>
      </trkpt>
      <trkpt lat="46.78296" lon="4.85601">
        <ele>185.2</ele>
        <time>2024-09-18T09:39:18Z</time>
      </trkpt>
      <trkpt lat="46.78294" lon="4.85603">
        <ele>185.2</ele>
        <time>2024-09-18T09:39:19Z</time>
      </trkpt>
      <trkpt lat="46.78291" lon="4.85606">
        <ele>185.4</ele>
        <time>2024-09-18T09:39:20Z</time>
      </trkpt>
      <trkpt lat="46.7829" lon="4.8561">
        <ele>185.4</ele>
        <time>2024-09-18T09:39:21Z</time>
      </trkpt>
      <trkpt lat="46.78287" lon="4.85613">
        <ele>185.4</ele>
        <time>2024-09-18T09:39:22Z</time>
      </trkpt>
      <trkpt lat="46.78285" lon="4.85616">
        <ele>185.4</ele>
        <time>2024-09-18T09:39:23Z</time>
      </trkpt>
      <trkpt lat="46.78283" lon="4.85618">
        <ele>185.6</ele>
        <time>2024-09-18T09:39:24Z</time>
      </trkpt>
      <trkpt lat="46.78282" lon="4.85621">
        <ele>185.6</ele>
        <time>2024-09-18T09:39:25Z</time>
      </trkpt>
      <trkpt lat="46.7828" lon="4.85623">
        <ele>185.6</ele>
        <time>2024-09-18T09:39:26Z</time>
      </trkpt>
      <trkpt lat="46.78279" lon="4.85626">
        <ele>185.6</ele>
        <time>2024-09-18T09:39:27Z</time>
      </trkpt>
      <trkpt lat="46.78278" lon="4.85627">
        <ele>185.6</ele>
        <time>2024-09-18T09:39:28Z</time>
      </trkpt>
      <trkpt lat="46.78276" lon="4.85629">
        <ele>185.6</ele>
        <time>2024-09-18T09:39:29Z</time>
      </trkpt>
      <trkpt lat="46.78275" lon="4.85631">
        <ele>185.6</ele>
        <time>2024-09-18T09:39:30Z</time>
      </trkpt>
      <trkpt lat="46.78273" lon="4.85633">
        <ele>185.6</ele>
        <time>2024-09-18T09:39:31Z</time>
      </trkpt>
      <trkpt lat="46.7827" lon="4.85637">
        <ele>185.8</ele>
        <time>2024-09-18T09:39:32Z</time>
      </trkpt>
      <trkpt lat="46.7827" lon="4.85638">
        <ele>185.8</ele>
        <time>2024-09-18T09:39:33Z</time>
      </trkpt>
      <trkpt lat="46.78268" lon="4.8564">
        <ele>185.8</ele>
        <time>2024-09-18T09:39:34Z</time>
      </trkpt>
      <trkpt lat="46.78266" lon="4.85642">
        <ele>185.8</ele>
        <time>2024-09-18T09:39:35Z</time>
      </trkpt>
      <trkpt lat="46.78264" lon="4.85644">
        <ele>185.8</ele>
        <time>2024-09-18T09:39:36Z</time>
      </trkpt>
      <trkpt lat="46.78262" lon="4.85645">
        <ele>185.8</ele>
        <time>2024-09-18T09:39:37Z</time>
      </trkpt>
      <trkpt lat="46.7826" lon="4.85647">
        <ele>185.8</ele>
        <time>2024-09-18T09:39:38Z</time>
      </trkpt>
      <trkpt lat="46.78258" lon="4.85649">
        <ele>185.8</ele>
        <time>2024-09-18T09:39:39Z</time>
      </trkpt>
      <trkpt lat="46.78256" lon="4.85651">
        <ele>185.8</ele>
        <time>2024-09-18T09:39:40Z</time>
      </trkpt>
      <trkpt lat="46.78254" lon="4.85653">
        <ele>186</ele>
        <time>2024-09-18T09:39:41Z</time>
      </trkpt>
      <trkpt lat="46.78253" lon="4.85655">
        <ele>186</ele>
        <time>2024-09-18T09:39:42Z</time>
      </trkpt>
      <trkpt lat="46.78251" lon="4.85657">
        <ele>186.2</ele>
        <time>2024-09-18T09:39:43Z</time>
      </trkpt>
      <trkpt lat="46.78249" lon="4.85659">
        <ele>186.2</ele>
        <time>2024-09-18T09:39:44Z</time>
      </trkpt>
      <trkpt lat="46.78247" lon="4.85662">
        <ele>186.2</ele>
        <time>2024-09-18T09:39:45Z</time>
      </trkpt>
      <trkpt lat="46.78245" lon="4.85664">
        <ele>186.2</ele>
        <time>2024-09-18T09:39:46Z</time>
      </trkpt>
      <trkpt lat="46.78244" lon="4.85666">
        <ele>186.2</ele>
        <time>2024-09-18T09:39:47Z</time>
      </trkpt>
      <trkpt lat="46.78242" lon="4.85668">
        <ele>186.2</ele>
        <time>2024-09-18T09:39:48Z</time>
      </trkpt>
      <trkpt lat="46.78239" lon="4.8567">
        <ele>186.2</ele>
        <time>2024-09-18T09:39:49Z</time>
      </trkpt>
      <trkpt lat="46.78237" lon="4.85672">
        <ele>186.4</ele>
        <time>2024-09-18T09:39:50Z</time>
      </trkpt>
      <trkpt lat="46.78236" lon="4.85673">
        <ele>186.4</ele>
        <time>2024-09-18T09:39:51Z</time>
      </trkpt>
      <trkpt lat="46.78234" lon="4.85675">
        <ele>186.2</ele>
        <time>2024-09-18T09:39:52Z</time>
      </trkpt>
      <trkpt lat="46.78233" lon="4.85677">
        <ele>186.2</ele>
        <time>2024-09-18T09:39:53Z</time>
      </trkpt>
      <trkpt lat="46.78231" lon="4.85679">
        <ele>186.4</ele>
        <time>2024-09-18T09:39:54Z</time>
      </trkpt>
      <trkpt lat="46.7823" lon="4.8568">
        <ele>186.4</ele>
        <time>2024-09-18T09:39:55Z</time>
      </trkpt>
      <trkpt lat="46.78228" lon="4.85682">
        <ele>186.4</ele>
        <time>2024-09-18T09:39:56Z</time>
      </trkpt>
      <trkpt lat="46.78227" lon="4.85684">
        <ele>186.4</ele>
        <time>2024-09-18T09:39:57Z</time>
      </trkpt>
      <trkpt lat="46.78225" lon="4.85685">
        <ele>186.4</ele>
        <time>2024-09-18T09:39:58Z</time>
      </trkpt>
      <trkpt lat="46.78223" lon="4.85688">
        <ele>186.4</ele>
        <time>2024-09-18T09:39:59Z</time>
      </trkpt>
      <trkpt lat="46.78222" lon="4.8569">
        <ele>186.4</ele>
        <time>2024-09-18T09:40:00Z</time>
      </trkpt>
      <trkpt lat="46.7822" lon="4.85692">
        <ele>186.4</ele>
        <time>2024-09-18T09:40:01Z</time>
      </trkpt>
      <trkpt lat="46.78218" lon="4.85695">
        <ele>186.4</ele>
        <time>2024-09-18T09:40:02Z</time>
      </trkpt>
      <trkpt lat="46.78217" lon="4.85698">
        <ele>186.4</ele>
        <time>2024-09-18T09:40:03Z</time>
      </trkpt>
      <trkpt lat="46.78215" lon="4.857">
        <ele>186.6</ele>
        <time>2024-09-18T09:40:04Z</time>
      </trkpt>
      <trkpt lat="46.78213" lon="4.85703">
        <ele>186.6</ele>
        <time>2024-09-18T09:40:05Z</time>
      </trkpt>
      <trkpt lat="46.78211" lon="4.85706">
        <ele>186.6</ele>
        <time>2024-09-18T09:40:06Z</time>
      </trkpt>
      <trkpt lat="46.78209" lon="4.85708">
        <ele>186.6</ele>
        <time>2024-09-18T09:40:07Z</time>
      </trkpt>
      <trkpt lat="46.78208" lon="4.85711">
        <ele>186.6</ele>
        <time>2024-09-18T09:40:08Z</time>
      </trkpt>
      <trkpt lat="46.78206" lon="4.85713">
        <ele>186.6</ele>
        <time>2024-09-18T09:40:09Z</time>
      </trkpt>
      <trkpt lat="46.78205" lon="4.85715">
        <ele>186.6</ele>
        <time>2024-09-18T09:40:10Z</time>
      </trkpt>
      <trkpt lat="46.78204" lon="4.85717">
        <ele>186.6</ele>
        <time>2024-09-18T09:40:11Z</time>
      </trkpt>
      <trkpt lat="46.78202" lon="4.85719">
        <ele>186.6</ele>
        <time>2024-09-18T09:40:12Z</time>
      </trkpt>
      <trkpt lat="46.78201" lon="4.8572">
        <ele>186.8</ele>
        <time>2024-09-18T09:40:13Z</time>
      </trkpt>
      <trkpt lat="46.78199" lon="4.85721">
        <ele>186.8</ele>
        <time>2024-09-18T09:40:14Z</time>
      </trkpt>
      <trkpt lat="46.78197" lon="4.85723">
        <ele>186.8</ele>
        <time>2024-09-18T09:40:15Z</time>
      </trkpt>
      <trkpt lat="46.78195" lon="4.85725">
        <ele>186.8</ele>
        <time>2024-09-18T09:40:16Z</time>
      </trkpt>
      <trkpt lat="46.78194" lon="4.85728">
        <ele>186.8</ele>
        <time>2024-09-18T09:40:17Z</time>
      </trkpt>
      <trkpt lat="46.78192" lon="4.8573">
        <ele>186.8</ele>
        <time>2024-09-18T09:40:18Z</time>
      </trkpt>
      <trkpt lat="46.78191" lon="4.85732">
        <ele>186.8</ele>
        <time>2024-09-18T09:40:19Z</time>
      </trkpt>
      <trkpt lat="46.7819" lon="4.85733">
        <ele>186.8</ele>
        <time>2024-09-18T09:40:20Z</time>
      </trkpt>
      <trkpt lat="46.78188" lon="4.85734">
        <ele>186.8</ele>
        <time>2024-09-18T09:40:21Z</time>
      </trkpt>
      <trkpt lat="46.78187" lon="4.85736">
        <ele>186.8</ele>
        <time>2024-09-18T09:40:22Z</time>
      </trkpt>
      <trkpt lat="46.78185" lon="4.85738">
        <ele>186.8</ele>
        <time>2024-09-18T09:40:23Z</time>
      </trkpt>
      <trkpt lat="46.78183" lon="4.85741">
        <ele>186.8</ele>
        <time>2024-09-18T09:40:24Z</time>
      </trkpt>
      <trkpt lat="46.78181" lon="4.85743">
        <ele>186.8</ele>
        <time>2024-09-18T09:40:25Z</time>
      </trkpt>
      <trkpt lat="46.78179" lon="4.85744">
        <ele>186.6</ele>
        <time>2024-09-18T09:40:26Z</time>
      </trkpt>
      <trkpt lat="46.78178" lon="4.85745">
        <ele>186.6</ele>
        <time>2024-09-18T09:40:27Z</time>
      </trkpt>
      <trkpt lat="46.78176" lon="4.85746">
        <ele>186.6</ele>
        <time>2024-09-18T09:40:28Z</time>
      </trkpt>
      <trkpt lat="46.78174" lon="4.85747">
        <ele>186.6</ele>
        <time>2024-09-18T09:40:29Z</time>
      </trkpt>
      <trkpt lat="46.78172" lon="4.85748">
        <ele>186.6</ele>
        <time>2024-09-18T09:40:30Z</time>
      </trkpt>
      <trkpt lat="46.7817" lon="4.8575">
        <ele>186.4</ele>
        <time>2024-09-18T09:40:31Z</time>
      </trkpt>
      <trkpt lat="46.78168" lon="4.8575">
        <ele>186.4</ele>
        <time>2024-09-18T09:40:32Z</time>
      </trkpt>
      <trkpt lat="46.78166" lon="4.85752">
        <ele>186.4</ele>
        <time>2024-09-18T09:40:33Z</time>
      </trkpt>
      <trkpt lat="46.78164" lon="4.85754">
        <ele>186.4</ele>
        <time>2024-09-18T09:40:34Z</time>
      </trkpt>
      <trkpt lat="46.78162" lon="4.85756">
        <ele>186.4</ele>
        <time>2024-09-18T09:40:35Z</time>
      </trkpt>
      <trkpt lat="46.78161" lon="4.85758">
        <ele>186.2</ele>
        <time>2024-09-18T09:40:36Z</time>
      </trkpt>
      <trkpt lat="46.78159" lon="4.85761">
        <ele>186.2</ele>
        <time>2024-09-18T09:40:37Z</time>
      </trkpt>
      <trkpt lat="46.78157" lon="4.85763">
        <ele>186.2</ele>
        <time>2024-09-18T09:40:38Z</time>
      </trkpt>
      <trkpt lat="46.78155" lon="4.85765">
        <ele>186.2</ele>
        <time>2024-09-18T09:40:39Z</time>
      </trkpt>
      <trkpt lat="46.78153" lon="4.85767">
        <ele>186</ele>
        <time>2024-09-18T09:40:40Z</time>
      </trkpt>
      <trkpt lat="46.78151" lon="4.85769">
        <ele>186</ele>
        <time>2024-09-18T09:40:41Z</time>
      </trkpt>
      <trkpt lat="46.78149" lon="4.85771">
        <ele>186</ele>
        <time>2024-09-18T09:40:42Z</time>
      </trkpt>
      <trkpt lat="46.78147" lon="4.85774">
        <ele>185.8</ele>
        <time>2024-09-18T09:40:43Z</time>
      </trkpt>
      <trkpt lat="46.78145" lon="4.85777">
        <ele>185.6</ele>
        <time>2024-09-18T09:40:44Z</time>
      </trkpt>
      <trkpt lat="46.78142" lon="4.8578">
        <ele>185.6</ele>
        <time>2024-09-18T09:40:45Z</time>
      </trkpt>
      <trkpt lat="46.7814" lon="4.85782">
        <ele>185.6</ele>
        <time>2024-09-18T09:40:46Z</time>
      </trkpt>
      <trkpt lat="46.78137" lon="4.85785">
        <ele>185.6</ele>
        <time>2024-09-18T09:40:47Z</time>
      </trkpt>
      <trkpt lat="46.78134" lon="4.85788">
        <ele>185.4</ele>
        <time>2024-09-18T09:40:48Z</time>
      </trkpt>
      <trkpt lat="46.78131" lon="4.8579">
        <ele>185.4</ele>
        <time>2024-09-18T09:40:49Z</time>
      </trkpt>
      <trkpt lat="46.78128" lon="4.85792">
        <ele>185.4</ele>
        <time>2024-09-18T09:40:50Z</time>
      </trkpt>
      <trkpt lat="46.78126" lon="4.85794">
        <ele>185.4</ele>
        <time>2024-09-18T09:40:51Z</time>
      </trkpt>
      <trkpt lat="46.78124" lon="4.85797">
        <ele>185.4</ele>
        <time>2024-09-18T09:40:52Z</time>
      </trkpt>
      <trkpt lat="46.78121" lon="4.85799">
        <ele>185.4</ele>
        <time>2024-09-18T09:40:53Z</time>
      </trkpt>
      <trkpt lat="46.7812" lon="4.85802">
        <ele>185.4</ele>
        <time>2024-09-18T09:40:54Z</time>
      </trkpt>
      <trkpt lat="46.78118" lon="4.85803">
        <ele>185.4</ele>
        <time>2024-09-18T09:40:55Z</time>
      </trkpt>
      <trkpt lat="46.78116" lon="4.85805">
        <ele>185.6</ele>
        <time>2024-09-18T09:40:56Z</time>
      </trkpt>
      <trkpt lat="46.78114" lon="4.85806">
        <ele>185.6</ele>
        <time>2024-09-18T09:40:57Z</time>
      </trkpt>
      <trkpt lat="46.78112" lon="4.85809">
        <ele>185.6</ele>
        <time>2024-09-18T09:40:58Z</time>
      </trkpt>
      <trkpt lat="46.7811" lon="4.8581">
        <ele>185.6</ele>
        <time>2024-09-18T09:40:59Z</time>
      </trkpt>
      <trkpt lat="46.78108" lon="4.85812">
        <ele>185.6</ele>
        <time>2024-09-18T09:41:00Z</time>
      </trkpt>
      <trkpt lat="46.78106" lon="4.85814">
        <ele>185.8</ele>
        <time>2024-09-18T09:41:01Z</time>
      </trkpt>
      <trkpt lat="46.78106" lon="4.85814">
        <ele>185.8</ele>
        <time>2024-09-18T09:41:02Z</time>
      </trkpt>
      <trkpt lat="46.78104" lon="4.85815">
        <ele>185.8</ele>
        <time>2024-09-18T09:41:03Z</time>
      </trkpt>
      <trkpt lat="46.78103" lon="4.85815">
        <ele>185.8</ele>
        <time>2024-09-18T09:41:04Z</time>
      </trkpt>
      <trkpt lat="46.78101" lon="4.85814">
        <ele>185.8</ele>
        <time>2024-09-18T09:41:05Z</time>
      </trkpt>
      <trkpt lat="46.78101" lon="4.85813">
        <ele>185.8</ele>
        <time>2024-09-18T09:41:06Z</time>
      </trkpt>
      <trkpt lat="46.781" lon="4.85812">
        <ele>186</ele>
        <time>2024-09-18T09:41:07Z</time>
      </trkpt>
      <trkpt lat="46.781" lon="4.85812">
        <ele>186</ele>
        <time>2024-09-18T09:41:08Z</time>
      </trkpt>
      <trkpt lat="46.78098" lon="4.85815">
        <ele>185.6</ele>
        <time>2024-09-18T09:41:28Z</time>
      </trkpt>
      <trkpt lat="46.78097" lon="4.85816">
        <ele>185.6</ele>
        <time>2024-09-18T09:41:29Z</time>
      </trkpt>
      <trkpt lat="46.78095" lon="4.85817">
        <ele>185.6</ele>
        <time>2024-09-18T09:41:30Z</time>
      </trkpt>
      <trkpt lat="46.78094" lon="4.85818">
        <ele>185.6</ele>
        <time>2024-09-18T09:41:31Z</time>
      </trkpt>
      <trkpt lat="46.78093" lon="4.85819">
        <ele>185.6</ele>
        <time>2024-09-18T09:41:32Z</time>
      </trkpt>
      <trkpt lat="46.78091" lon="4.85821">
        <ele>186.2</ele>
        <time>2024-09-18T09:41:33Z</time>
      </trkpt>
      <trkpt lat="46.7809" lon="4.85822">
        <ele>186.2</ele>
        <time>2024-09-18T09:41:34Z</time>
      </trkpt>
      <trkpt lat="46.78089" lon="4.85825">
        <ele>186.2</ele>
        <time>2024-09-18T09:41:35Z</time>
      </trkpt>
      <trkpt lat="46.78088" lon="4.85827">
        <ele>186.2</ele>
        <time>2024-09-18T09:41:36Z</time>
      </trkpt>
      <trkpt lat="46.78088" lon="4.85829">
        <ele>186.6</ele>
        <time>2024-09-18T09:41:37Z</time>
      </trkpt>
      <trkpt lat="46.78087" lon="4.85832">
        <ele>186.6</ele>
        <time>2024-09-18T09:41:38Z</time>
      </trkpt>
      <trkpt lat="46.78086" lon="4.85833">
        <ele>186.6</ele>
        <time>2024-09-18T09:41:39Z</time>
      </trkpt>
      <trkpt lat="46.78084" lon="4.85834">
        <ele>186.6</ele>
        <time>2024-09-18T09:41:40Z</time>
      </trkpt>
      <trkpt lat="46.78082" lon="4.85835">
        <ele>186.8</ele>
        <time>2024-09-18T09:41:41Z</time>
      </trkpt>
      <trkpt lat="46.78082" lon="4.85836">
        <ele>186.8</ele>
        <time>2024-09-18T09:41:42Z</time>
      </trkpt>
      <trkpt lat="46.78079" lon="4.85843">
        <ele>187</ele>
        <time>2024-09-18T09:46:58Z</time>
      </trkpt>
      <trkpt lat="46.78078" lon="4.85844">
        <ele>187</ele>
        <time>2024-09-18T09:46:59Z</time>
      </trkpt>
      <trkpt lat="46.78076" lon="4.85846">
        <ele>187.2</ele>
        <time>2024-09-18T09:47:00Z</time>
      </trkpt>
      <trkpt lat="46.78075" lon="4.85847">
        <ele>187.2</ele>
        <time>2024-09-18T09:47:01Z</time>
      </trkpt>
      <trkpt lat="46.78073" lon="4.85849">
        <ele>187.4</ele>
        <time>2024-09-18T09:47:02Z</time>
      </trkpt>
      <trkpt lat="46.78072" lon="4.8585">
        <ele>187.4</ele>
        <time>2024-09-18T09:47:03Z</time>
      </trkpt>
      <trkpt lat="46.7807" lon="4.85852">
        <ele>187.6</ele>
        <time>2024-09-18T09:47:04Z</time>
      </trkpt>
      <trkpt lat="46.78068" lon="4.85854">
        <ele>187.6</ele>
        <time>2024-09-18T09:47:05Z</time>
      </trkpt>
      <trkpt lat="46.78067" lon="4.85856">
        <ele>187.6</ele>
        <time>2024-09-18T09:47:06Z</time>
      </trkpt>
      <trkpt lat="46.78065" lon="4.85857">
        <ele>187.6</ele>
        <time>2024-09-18T09:47:07Z</time>
      </trkpt>
      <trkpt lat="46.78063" lon="4.85859">
        <ele>187.8</ele>
        <time>2024-09-18T09:47:08Z</time>
      </trkpt>
      <trkpt lat="46.78061" lon="4.85861">
        <ele>187.8</ele>
        <time>2024-09-18T09:47:09Z</time>
      </trkpt>
      <trkpt lat="46.7806" lon="4.85863">
        <ele>187.8</ele>
        <time>2024-09-18T09:47:10Z</time>
      </trkpt>
      <trkpt lat="46.78058" lon="4.85865">
        <ele>187.8</ele>
        <time>2024-09-18T09:47:11Z</time>
      </trkpt>
      <trkpt lat="46.78056" lon="4.85867">
        <ele>188.2</ele>
        <time>2024-09-18T09:47:12Z</time>
      </trkpt>
      <trkpt lat="46.78054" lon="4.85869">
        <ele>188.4</ele>
        <time>2024-09-18T09:47:13Z</time>
      </trkpt>
      <trkpt lat="46.78051" lon="4.85871">
        <ele>188.4</ele>
        <time>2024-09-18T09:47:14Z</time>
      </trkpt>
      <trkpt lat="46.78049" lon="4.85874">
        <ele>188.4</ele>
        <time>2024-09-18T09:47:15Z</time>
      </trkpt>
      <trkpt lat="46.78046" lon="4.85877">
        <ele>188.4</ele>
        <time>2024-09-18T09:47:16Z</time>
      </trkpt>
      <trkpt lat="46.78044" lon="4.8588">
        <ele>188.4</ele>
        <time>2024-09-18T09:47:17Z</time>
      </trkpt>
      <trkpt lat="46.78041" lon="4.85883">
        <ele>188.2</ele>
        <time>2024-09-18T09:47:18Z</time>
      </trkpt>
      <trkpt lat="46.78038" lon="4.85886">
        <ele>188.2</ele>
        <time>2024-09-18T09:47:19Z</time>
      </trkpt>
      <trkpt lat="46.78035" lon="4.85889">
        <ele>188.2</ele>
        <time>2024-09-18T09:47:20Z</time>
      </trkpt>
      <trkpt lat="46.78032" lon="4.85893">
        <ele>188.2</ele>
        <time>2024-09-18T09:47:21Z</time>
      </trkpt>
      <trkpt lat="46.78029" lon="4.85896">
        <ele>187.4</ele>
        <time>2024-09-18T09:47:22Z</time>
      </trkpt>
      <trkpt lat="46.78025" lon="4.859">
        <ele>187.4</ele>
        <time>2024-09-18T09:47:23Z</time>
      </trkpt>
      <trkpt lat="46.78021" lon="4.85904">
        <ele>187.4</ele>
        <time>2024-09-18T09:47:24Z</time>
      </trkpt>
      <trkpt lat="46.78018" lon="4.85907">
        <ele>187.4</ele>
        <time>2024-09-18T09:47:25Z</time>
      </trkpt>
      <trkpt lat="46.78015" lon="4.8591">
        <ele>186.8</ele>
        <time>2024-09-18T09:47:26Z</time>
      </trkpt>
      <trkpt lat="46.78013" lon="4.85913">
        <ele>186.8</ele>
        <time>2024-09-18T09:47:27Z</time>
      </trkpt>
      <trkpt lat="46.78011" lon="4.85914">
        <ele>186.8</ele>
        <time>2024-09-18T09:47:28Z</time>
      </trkpt>
      <trkpt lat="46.7801" lon="4.85915">
        <ele>186.8</ele>
        <time>2024-09-18T09:47:29Z</time>
      </trkpt>
      <trkpt lat="46.78009" lon="4.85915">
        <ele>186.6</ele>
        <time>2024-09-18T09:47:30Z</time>
      </trkpt>
      <trkpt lat="46.78008" lon="4.85915">
        <ele>186</ele>
        <time>2024-09-18T09:47:31Z</time>
      </trkpt>
      <trkpt lat="46.78007" lon="4.85915">
        <ele>186</ele>
        <time>2024-09-18T09:47:32Z</time>
      </trkpt>
      <trkpt lat="46.78006" lon="4.85913">
        <ele>186</ele>
        <time>2024-09-18T09:47:33Z</time>
      </trkpt>
      <trkpt lat="46.78004" lon="4.85911">
        <ele>185.4</ele>
        <time>2024-09-18T09:47:34Z</time>
      </trkpt>
      <trkpt lat="46.78002" lon="4.85907">
        <ele>185.4</ele>
        <time>2024-09-18T09:47:35Z</time>
      </trkpt>
      <trkpt lat="46.78" lon="4.85904">
        <ele>185.2</ele>
        <time>2024-09-18T09:47:36Z</time>
      </trkpt>
      <trkpt lat="46.77998" lon="4.859">
        <ele>185.2</ele>
        <time>2024-09-18T09:47:37Z</time>
      </trkpt>
      <trkpt lat="46.77997" lon="4.85895">
        <ele>185.2</ele>
        <time>2024-09-18T09:47:38Z</time>
      </trkpt>
      <trkpt lat="46.77996" lon="4.8589">
        <ele>185.2</ele>
        <time>2024-09-18T09:47:39Z</time>
      </trkpt>
      <trkpt lat="46.77994" lon="4.85886">
        <ele>184.4</ele>
        <time>2024-09-18T09:47:40Z</time>
      </trkpt>
      <trkpt lat="46.77991" lon="4.85881">
        <ele>184.4</ele>
        <time>2024-09-18T09:47:41Z</time>
      </trkpt>
      <trkpt lat="46.77989" lon="4.85876">
        <ele>184.4</ele>
        <time>2024-09-18T09:47:42Z</time>
      </trkpt>
      <trkpt lat="46.77987" lon="4.85871">
        <ele>184.4</ele>
        <time>2024-09-18T09:47:43Z</time>
      </trkpt>
      <trkpt lat="46.77985" lon="4.85866">
        <ele>183</ele>
        <time>2024-09-18T09:47:44Z</time>
      </trkpt>
      <trkpt lat="46.77982" lon="4.8586">
        <ele>183</ele>
        <time>2024-09-18T09:47:45Z</time>
      </trkpt>
      <trkpt lat="46.7798" lon="4.85854">
        <ele>183</ele>
        <time>2024-09-18T09:47:46Z</time>
      </trkpt>
      <trkpt lat="46.77977" lon="4.85848">
        <ele>182.6</ele>
        <time>2024-09-18T09:47:47Z</time>
      </trkpt>
      <trkpt lat="46.77974" lon="4.85842">
        <ele>182.2</ele>
        <time>2024-09-18T09:47:48Z</time>
      </trkpt>
      <trkpt lat="46.77971" lon="4.85832">
        <ele>182.2</ele>
        <time>2024-09-18T09:47:49Z</time>
      </trkpt>
      <trkpt lat="46.77969" lon="4.85829">
        <ele>182.2</ele>
        <time>2024-09-18T09:47:50Z</time>
      </trkpt>
      <trkpt lat="46.77967" lon="4.85822">
        <ele>182.2</ele>
        <time>2024-09-18T09:47:51Z</time>
      </trkpt>
      <trkpt lat="46.77965" lon="4.85816">
        <ele>182.2</ele>
        <time>2024-09-18T09:47:52Z</time>
      </trkpt>
      <trkpt lat="46.77962" lon="4.85809">
        <ele>182</ele>
        <time>2024-09-18T09:47:53Z</time>
      </trkpt>
      <trkpt lat="46.7796" lon="4.85802">
        <ele>182</ele>
        <time>2024-09-18T09:47:54Z</time>
      </trkpt>
      <trkpt lat="46.77957" lon="4.85795">
        <ele>182</ele>
        <time>2024-09-18T09:47:55Z</time>
      </trkpt>
      <trkpt lat="46.77955" lon="4.85788">
        <ele>182</ele>
        <time>2024-09-18T09:47:56Z</time>
      </trkpt>
      <trkpt lat="46.77953" lon="4.85782">
        <ele>182</ele>
        <time>2024-09-18T09:47:57Z</time>
      </trkpt>
      <trkpt lat="46.77951" lon="4.85775">
        <ele>181.8</ele>
        <time>2024-09-18T09:47:58Z</time>
      </trkpt>
      <trkpt lat="46.77949" lon="4.8577">
        <ele>181.8</ele>
        <time>2024-09-18T09:47:59Z</time>
      </trkpt>
      <trkpt lat="46.77946" lon="4.85764">
        <ele>181.8</ele>
        <time>2024-09-18T09:48:00Z</time>
      </trkpt>
      <trkpt lat="46.77945" lon="4.85758">
        <ele>181.8</ele>
        <time>2024-09-18T09:48:01Z</time>
      </trkpt>
      <trkpt lat="46.77943" lon="4.85752">
        <ele>181.8</ele>
        <time>2024-09-18T09:48:02Z</time>
      </trkpt>
      <trkpt lat="46.77941" lon="4.85747">
        <ele>182.2</ele>
        <time>2024-09-18T09:48:03Z</time>
      </trkpt>
      <trkpt lat="46.77938" lon="4.85742">
        <ele>182.2</ele>
        <time>2024-09-18T09:48:04Z</time>
      </trkpt>
      <trkpt lat="46.77935" lon="4.85739">
        <ele>182.2</ele>
        <time>2024-09-18T09:48:05Z</time>
      </trkpt>
      <trkpt lat="46.77932" lon="4.85737">
        <ele>181.8</ele>
        <time>2024-09-18T09:48:06Z</time>
      </trkpt>
      <trkpt lat="46.77929" lon="4.85738">
        <ele>181.8</ele>
        <time>2024-09-18T09:48:07Z</time>
      </trkpt>
      <trkpt lat="46.77927" lon="4.85739">
        <ele>181.8</ele>
        <time>2024-09-18T09:48:08Z</time>
      </trkpt>
      <trkpt lat="46.77924" lon="4.85741">
        <ele>181.8</ele>
        <time>2024-09-18T09:48:09Z</time>
      </trkpt>
      <trkpt lat="46.77921" lon="4.85741">
        <ele>182</ele>
        <time>2024-09-18T09:48:10Z</time>
      </trkpt>
      <trkpt lat="46.77918" lon="4.85742">
        <ele>182</ele>
        <time>2024-09-18T09:48:11Z</time>
      </trkpt>
      <trkpt lat="46.77916" lon="4.85741">
        <ele>182</ele>
        <time>2024-09-18T09:48:12Z</time>
      </trkpt>
      <trkpt lat="46.77913" lon="4.85741">
        <ele>182</ele>
        <time>2024-09-18T09:48:13Z</time>
      </trkpt>
      <trkpt lat="46.7791" lon="4.8574">
        <ele>182</ele>
        <time>2024-09-18T09:48:14Z</time>
      </trkpt>
      <trkpt lat="46.77908" lon="4.85739">
        <ele>181.6</ele>
        <time>2024-09-18T09:48:15Z</time>
      </trkpt>
      <trkpt lat="46.77905" lon="4.85738">
        <ele>181.6</ele>
        <time>2024-09-18T09:48:16Z</time>
      </trkpt>
      <trkpt lat="46.77902" lon="4.85737">
        <ele>181.8</ele>
        <time>2024-09-18T09:48:17Z</time>
      </trkpt>
      <trkpt lat="46.77898" lon="4.85736">
        <ele>181.8</ele>
        <time>2024-09-18T09:48:18Z</time>
      </trkpt>
      <trkpt lat="46.77896" lon="4.85736">
        <ele>181.6</ele>
        <time>2024-09-18T09:48:19Z</time>
      </trkpt>
      <trkpt lat="46.77891" lon="4.85737">
        <ele>181.6</ele>
        <time>2024-09-18T09:48:20Z</time>
      </trkpt>
      <trkpt lat="46.7789" lon="4.85738">
        <ele>181.6</ele>
        <time>2024-09-18T09:48:21Z</time>
      </trkpt>
      <trkpt lat="46.77886" lon="4.8574">
        <ele>181.6</ele>
        <time>2024-09-18T09:48:22Z</time>
      </trkpt>
      <trkpt lat="46.77883" lon="4.85742">
        <ele>181.6</ele>
        <time>2024-09-18T09:48:23Z</time>
      </trkpt>
      <trkpt lat="46.77879" lon="4.85744">
        <ele>181.6</ele>
        <time>2024-09-18T09:48:24Z</time>
      </trkpt>
      <trkpt lat="46.77876" lon="4.85747">
        <ele>181.6</ele>
        <time>2024-09-18T09:48:25Z</time>
      </trkpt>
      <trkpt lat="46.77873" lon="4.85751">
        <ele>181.6</ele>
        <time>2024-09-18T09:48:26Z</time>
      </trkpt>
      <trkpt lat="46.77871" lon="4.85756">
        <ele>181.6</ele>
        <time>2024-09-18T09:48:27Z</time>
      </trkpt>
      <trkpt lat="46.77868" lon="4.85761">
        <ele>181.6</ele>
        <time>2024-09-18T09:48:28Z</time>
      </trkpt>
      <trkpt lat="46.77866" lon="4.85767">
        <ele>181.6</ele>
        <time>2024-09-18T09:48:29Z</time>
      </trkpt>
      <trkpt lat="46.77863" lon="4.85772">
        <ele>181.6</ele>
        <time>2024-09-18T09:48:30Z</time>
      </trkpt>
      <trkpt lat="46.77862" lon="4.85778">
        <ele>181.6</ele>
        <time>2024-09-18T09:48:31Z</time>
      </trkpt>
      <trkpt lat="46.7786" lon="4.85783">
        <ele>181.6</ele>
        <time>2024-09-18T09:48:32Z</time>
      </trkpt>
      <trkpt lat="46.77857" lon="4.85789">
        <ele>181.6</ele>
        <time>2024-09-18T09:48:33Z</time>
      </trkpt>
      <trkpt lat="46.77855" lon="4.85794">
        <ele>181.2</ele>
        <time>2024-09-18T09:48:34Z</time>
      </trkpt>
      <trkpt lat="46.77853" lon="4.85799">
        <ele>181.2</ele>
        <time>2024-09-18T09:48:35Z</time>
      </trkpt>
      <trkpt lat="46.77851" lon="4.85804">
        <ele>181.2</ele>
        <time>2024-09-18T09:48:36Z</time>
      </trkpt>
      <trkpt lat="46.77849" lon="4.8581">
        <ele>181.2</ele>
        <time>2024-09-18T09:48:37Z</time>
      </trkpt>
      <trkpt lat="46.77847" lon="4.85815">
        <ele>181.2</ele>
        <time>2024-09-18T09:48:38Z</time>
      </trkpt>
      <trkpt lat="46.77845" lon="4.85821">
        <ele>181.6</ele>
        <time>2024-09-18T09:48:39Z</time>
      </trkpt>
      <trkpt lat="46.77842" lon="4.85827">
        <ele>181.6</ele>
        <time>2024-09-18T09:48:40Z</time>
      </trkpt>
      <trkpt lat="46.7784" lon="4.85832">
        <ele>181.6</ele>
        <time>2024-09-18T09:48:41Z</time>
      </trkpt>
      <trkpt lat="46.77839" lon="4.85838">
        <ele>181.6</ele>
        <time>2024-09-18T09:48:42Z</time>
      </trkpt>
      <trkpt lat="46.77837" lon="4.85844">
        <ele>181.8</ele>
        <time>2024-09-18T09:48:43Z</time>
      </trkpt>
      <trkpt lat="46.77835" lon="4.85849">
        <ele>181.8</ele>
        <time>2024-09-18T09:48:44Z</time>
      </trkpt>
      <trkpt lat="46.77833" lon="4.85855">
        <ele>181.8</ele>
        <time>2024-09-18T09:48:45Z</time>
      </trkpt>
      <trkpt lat="46.77832" lon="4.8586">
        <ele>181.8</ele>
        <time>2024-09-18T09:48:46Z</time>
      </trkpt>
      <trkpt lat="46.7783" lon="4.85866">
        <ele>181.8</ele>
        <time>2024-09-18T09:48:47Z</time>
      </trkpt>
      <trkpt lat="46.77828" lon="4.85871">
        <ele>181.8</ele>
        <time>2024-09-18T09:48:48Z</time>
      </trkpt>
      <trkpt lat="46.77826" lon="4.85876">
        <ele>181.8</ele>
        <time>2024-09-18T09:48:49Z</time>
      </trkpt>
      <trkpt lat="46.77824" lon="4.8588">
        <ele>181.8</ele>
        <time>2024-09-18T09:48:50Z</time>
      </trkpt>
      <trkpt lat="46.77822" lon="4.85884">
        <ele>181.8</ele>
        <time>2024-09-18T09:48:51Z</time>
      </trkpt>
      <trkpt lat="46.7782" lon="4.85888">
        <ele>181.8</ele>
        <time>2024-09-18T09:48:52Z</time>
      </trkpt>
      <trkpt lat="46.77817" lon="4.85893">
        <ele>181.8</ele>
        <time>2024-09-18T09:48:53Z</time>
      </trkpt>
      <trkpt lat="46.77815" lon="4.85898">
        <ele>181.8</ele>
        <time>2024-09-18T09:48:54Z</time>
      </trkpt>
      <trkpt lat="46.77812" lon="4.85903">
        <ele>181.8</ele>
        <time>2024-09-18T09:48:55Z</time>
      </trkpt>
      <trkpt lat="46.77811" lon="4.85908">
        <ele>181.8</ele>
        <time>2024-09-18T09:48:56Z</time>
      </trkpt>
      <trkpt lat="46.77809" lon="4.85912">
        <ele>181.8</ele>
        <time>2024-09-18T09:48:57Z</time>
      </trkpt>
      <trkpt lat="46.77807" lon="4.85916">
        <ele>181.8</ele>
        <time>2024-09-18T09:48:58Z</time>
      </trkpt>
      <trkpt lat="46.77804" lon="4.8592">
        <ele>181.8</ele>
        <time>2024-09-18T09:48:59Z</time>
      </trkpt>
      <trkpt lat="46.77802" lon="4.85926">
        <ele>181.8</ele>
        <time>2024-09-18T09:49:00Z</time>
      </trkpt>
      <trkpt lat="46.778" lon="4.85931">
        <ele>181.8</ele>
        <time>2024-09-18T09:49:01Z</time>
      </trkpt>
      <trkpt lat="46.77797" lon="4.85936">
        <ele>181.8</ele>
        <time>2024-09-18T09:49:02Z</time>
      </trkpt>
      <trkpt lat="46.77794" lon="4.85944">
        <ele>181.8</ele>
        <time>2024-09-18T09:49:03Z</time>
      </trkpt>
      <trkpt lat="46.77793" lon="4.85947">
        <ele>181.8</ele>
        <time>2024-09-18T09:49:04Z</time>
      </trkpt>
      <trkpt lat="46.77791" lon="4.85952">
        <ele>181.8</ele>
        <time>2024-09-18T09:49:05Z</time>
      </trkpt>
      <trkpt lat="46.77789" lon="4.85958">
        <ele>181.8</ele>
        <time>2024-09-18T09:49:06Z</time>
      </trkpt>
      <trkpt lat="46.77787" lon="4.85964">
        <ele>181.8</ele>
        <time>2024-09-18T09:49:07Z</time>
      </trkpt>
      <trkpt lat="46.77786" lon="4.8597">
        <ele>181.8</ele>
        <time>2024-09-18T09:49:08Z</time>
      </trkpt>
      <trkpt lat="46.77785" lon="4.85976">
        <ele>181.6</ele>
        <time>2024-09-18T09:49:09Z</time>
      </trkpt>
      <trkpt lat="46.77783" lon="4.85981">
        <ele>181.6</ele>
        <time>2024-09-18T09:49:10Z</time>
      </trkpt>
      <trkpt lat="46.77782" lon="4.85987">
        <ele>181.6</ele>
        <time>2024-09-18T09:49:11Z</time>
      </trkpt>
      <trkpt lat="46.77781" lon="4.85993">
        <ele>181.8</ele>
        <time>2024-09-18T09:49:12Z</time>
      </trkpt>
      <trkpt lat="46.7778" lon="4.85999">
        <ele>181.8</ele>
        <time>2024-09-18T09:49:13Z</time>
      </trkpt>
      <trkpt lat="46.7778" lon="4.86005">
        <ele>181.8</ele>
        <time>2024-09-18T09:49:14Z</time>
      </trkpt>
      <trkpt lat="46.77779" lon="4.8601">
        <ele>181.8</ele>
        <time>2024-09-18T09:49:15Z</time>
      </trkpt>
      <trkpt lat="46.77778" lon="4.86015">
        <ele>181.8</ele>
        <time>2024-09-18T09:49:16Z</time>
      </trkpt>
      <trkpt lat="46.77777" lon="4.8602">
        <ele>181.8</ele>
        <time>2024-09-18T09:49:17Z</time>
      </trkpt>
      <trkpt lat="46.77777" lon="4.86025">
        <ele>181.8</ele>
        <time>2024-09-18T09:49:18Z</time>
      </trkpt>
      <trkpt lat="46.77777" lon="4.86032">
        <ele>182</ele>
        <time>2024-09-18T09:49:19Z</time>
      </trkpt>
      <trkpt lat="46.77777" lon="4.86035">
        <ele>182</ele>
        <time>2024-09-18T09:49:20Z</time>
      </trkpt>
      <trkpt lat="46.77777" lon="4.8604">
        <ele>182</ele>
        <time>2024-09-18T09:49:21Z</time>
      </trkpt>
      <trkpt lat="46.77777" lon="4.86046">
        <ele>182</ele>
        <time>2024-09-18T09:49:22Z</time>
      </trkpt>
      <trkpt lat="46.77776" lon="4.8605">
        <ele>182.2</ele>
        <time>2024-09-18T09:49:23Z</time>
      </trkpt>
      <trkpt lat="46.77776" lon="4.86054">
        <ele>182.2</ele>
        <time>2024-09-18T09:49:24Z</time>
      </trkpt>
      <trkpt lat="46.77776" lon="4.86062">
        <ele>182.2</ele>
        <time>2024-09-18T09:49:25Z</time>
      </trkpt>
      <trkpt lat="46.77776" lon="4.86065">
        <ele>182.2</ele>
        <time>2024-09-18T09:49:26Z</time>
      </trkpt>
      <trkpt lat="46.77777" lon="4.86071">
        <ele>182.2</ele>
        <time>2024-09-18T09:49:27Z</time>
      </trkpt>
      <trkpt lat="46.77778" lon="4.86076">
        <ele>182.2</ele>
        <time>2024-09-18T09:49:28Z</time>
      </trkpt>
      <trkpt lat="46.77778" lon="4.86081">
        <ele>182.2</ele>
        <time>2024-09-18T09:49:29Z</time>
      </trkpt>
      <trkpt lat="46.77779" lon="4.86087">
        <ele>182.2</ele>
        <time>2024-09-18T09:49:30Z</time>
      </trkpt>
      <trkpt lat="46.77781" lon="4.86093">
        <ele>182.2</ele>
        <time>2024-09-18T09:49:31Z</time>
      </trkpt>
      <trkpt lat="46.77783" lon="4.86101">
        <ele>182.6</ele>
        <time>2024-09-18T09:49:32Z</time>
      </trkpt>
      <trkpt lat="46.77784" lon="4.86103">
        <ele>182.6</ele>
        <time>2024-09-18T09:49:33Z</time>
      </trkpt>
      <trkpt lat="46.77785" lon="4.86109">
        <ele>182.6</ele>
        <time>2024-09-18T09:49:34Z</time>
      </trkpt>
      <trkpt lat="46.77787" lon="4.86114">
        <ele>182.6</ele>
        <time>2024-09-18T09:49:35Z</time>
      </trkpt>
      <trkpt lat="46.77788" lon="4.8612">
        <ele>182.8</ele>
        <time>2024-09-18T09:49:36Z</time>
      </trkpt>
      <trkpt lat="46.7779" lon="4.86125">
        <ele>182.8</ele>
        <time>2024-09-18T09:49:37Z</time>
      </trkpt>
      <trkpt lat="46.77791" lon="4.8613">
        <ele>182.8</ele>
        <time>2024-09-18T09:49:38Z</time>
      </trkpt>
      <trkpt lat="46.77792" lon="4.86135">
        <ele>182.8</ele>
        <time>2024-09-18T09:49:39Z</time>
      </trkpt>
      <trkpt lat="46.77793" lon="4.8614">
        <ele>182.8</ele>
        <time>2024-09-18T09:49:40Z</time>
      </trkpt>
      <trkpt lat="46.77795" lon="4.86147">
        <ele>182.8</ele>
        <time>2024-09-18T09:49:41Z</time>
      </trkpt>
      <trkpt lat="46.77796" lon="4.8615">
        <ele>182.8</ele>
        <time>2024-09-18T09:49:42Z</time>
      </trkpt>
      <trkpt lat="46.77798" lon="4.86154">
        <ele>182.8</ele>
        <time>2024-09-18T09:49:43Z</time>
      </trkpt>
      <trkpt lat="46.778" lon="4.86159">
        <ele>182.8</ele>
        <time>2024-09-18T09:49:44Z</time>
      </trkpt>
      <trkpt lat="46.77802" lon="4.86163">
        <ele>182.6</ele>
        <time>2024-09-18T09:49:45Z</time>
      </trkpt>
      <trkpt lat="46.77805" lon="4.86167">
        <ele>182.6</ele>
        <time>2024-09-18T09:49:46Z</time>
      </trkpt>
      <trkpt lat="46.77808" lon="4.8617">
        <ele>182.6</ele>
        <time>2024-09-18T09:49:47Z</time>
      </trkpt>
      <trkpt lat="46.77811" lon="4.86174">
        <ele>182.6</ele>
        <time>2024-09-18T09:49:48Z</time>
      </trkpt>
      <trkpt lat="46.77815" lon="4.86177">
        <ele>182.4</ele>
        <time>2024-09-18T09:49:49Z</time>
      </trkpt>
      <trkpt lat="46.77819" lon="4.8618">
        <ele>182.4</ele>
        <time>2024-09-18T09:49:50Z</time>
      </trkpt>
      <trkpt lat="46.77822" lon="4.86183">
        <ele>182.4</ele>
        <time>2024-09-18T09:49:51Z</time>
      </trkpt>
      <trkpt lat="46.77826" lon="4.86186">
        <ele>182.4</ele>
        <time>2024-09-18T09:49:52Z</time>
      </trkpt>
      <trkpt lat="46.7783" lon="4.86189">
        <ele>182.2</ele>
        <time>2024-09-18T09:49:53Z</time>
      </trkpt>
      <trkpt lat="46.77834" lon="4.86192">
        <ele>182.4</ele>
        <time>2024-09-18T09:49:54Z</time>
      </trkpt>
      <trkpt lat="46.77838" lon="4.86195">
        <ele>182.4</ele>
        <time>2024-09-18T09:49:55Z</time>
      </trkpt>
      <trkpt lat="46.77842" lon="4.86197">
        <ele>182.4</ele>
        <time>2024-09-18T09:49:56Z</time>
      </trkpt>
      <trkpt lat="46.77846" lon="4.862">
        <ele>182.4</ele>
        <time>2024-09-18T09:49:57Z</time>
      </trkpt>
      <trkpt lat="46.7785" lon="4.86202">
        <ele>182.4</ele>
        <time>2024-09-18T09:49:58Z</time>
      </trkpt>
      <trkpt lat="46.77854" lon="4.86205">
        <ele>182.6</ele>
        <time>2024-09-18T09:49:59Z</time>
      </trkpt>
      <trkpt lat="46.77858" lon="4.86208">
        <ele>182.6</ele>
        <time>2024-09-18T09:50:00Z</time>
      </trkpt>
      <trkpt lat="46.77862" lon="4.8621">
        <ele>182.6</ele>
        <time>2024-09-18T09:50:01Z</time>
      </trkpt>
      <trkpt lat="46.77867" lon="4.86212">
        <ele>182.6</ele>
        <time>2024-09-18T09:50:02Z</time>
      </trkpt>
      <trkpt lat="46.77871" lon="4.86215">
        <ele>182.8</ele>
        <time>2024-09-18T09:50:03Z</time>
      </trkpt>
      <trkpt lat="46.77875" lon="4.86216">
        <ele>182.8</ele>
        <time>2024-09-18T09:50:04Z</time>
      </trkpt>
      <trkpt lat="46.7788" lon="4.86218">
        <ele>182.8</ele>
        <time>2024-09-18T09:50:05Z</time>
      </trkpt>
      <trkpt lat="46.77884" lon="4.86219">
        <ele>182.8</ele>
        <time>2024-09-18T09:50:06Z</time>
      </trkpt>
      <trkpt lat="46.77889" lon="4.86219">
        <ele>182.8</ele>
        <time>2024-09-18T09:50:07Z</time>
      </trkpt>
      <trkpt lat="46.77893" lon="4.8622">
        <ele>182.8</ele>
        <time>2024-09-18T09:50:08Z</time>
      </trkpt>
      <trkpt lat="46.77897" lon="4.86221">
        <ele>182.8</ele>
        <time>2024-09-18T09:50:09Z</time>
      </trkpt>
      <trkpt lat="46.77901" lon="4.86224">
        <ele>182.8</ele>
        <time>2024-09-18T09:50:10Z</time>
      </trkpt>
      <trkpt lat="46.77905" lon="4.86227">
        <ele>182.8</ele>
        <time>2024-09-18T09:50:11Z</time>
      </trkpt>
      <trkpt lat="46.77908" lon="4.86229">
        <ele>182.8</ele>
        <time>2024-09-18T09:50:12Z</time>
      </trkpt>
      <trkpt lat="46.77912" lon="4.86232">
        <ele>182.8</ele>
        <time>2024-09-18T09:50:13Z</time>
      </trkpt>
      <trkpt lat="46.77916" lon="4.86234">
        <ele>182.8</ele>
        <time>2024-09-18T09:50:14Z</time>
      </trkpt>
      <trkpt lat="46.7792" lon="4.86236">
        <ele>182.8</ele>
        <time>2024-09-18T09:50:15Z</time>
      </trkpt>
      <trkpt lat="46.77923" lon="4.86239">
        <ele>183.2</ele>
        <time>2024-09-18T09:50:16Z</time>
      </trkpt>
      <trkpt lat="46.77925" lon="4.86244">
        <ele>183.2</ele>
        <time>2024-09-18T09:50:17Z</time>
      </trkpt>
      <trkpt lat="46.77926" lon="4.8625">
        <ele>183.2</ele>
        <time>2024-09-18T09:50:18Z</time>
      </trkpt>
      <trkpt lat="46.77927" lon="4.86254">
        <ele>183.2</ele>
        <time>2024-09-18T09:50:19Z</time>
      </trkpt>
      <trkpt lat="46.77928" lon="4.86259">
        <ele>183.6</ele>
        <time>2024-09-18T09:50:20Z</time>
      </trkpt>
      <trkpt lat="46.77927" lon="4.86264">
        <ele>183.6</ele>
        <time>2024-09-18T09:50:21Z</time>
      </trkpt>
      <trkpt lat="46.77926" lon="4.86268">
        <ele>183.6</ele>
        <time>2024-09-18T09:50:22Z</time>
      </trkpt>
      <trkpt lat="46.77925" lon="4.86272">
        <ele>183.6</ele>
        <time>2024-09-18T09:50:23Z</time>
      </trkpt>
      <trkpt lat="46.77924" lon="4.86277">
        <ele>183.8</ele>
        <time>2024-09-18T09:50:24Z</time>
      </trkpt>
      <trkpt lat="46.77923" lon="4.86281">
        <ele>183.8</ele>
        <time>2024-09-18T09:50:25Z</time>
      </trkpt>
      <trkpt lat="46.77922" lon="4.86286">
        <ele>183.8</ele>
        <time>2024-09-18T09:50:26Z</time>
      </trkpt>
      <trkpt lat="46.77921" lon="4.8629">
        <ele>183.8</ele>
        <time>2024-09-18T09:50:27Z</time>
      </trkpt>
      <trkpt lat="46.77921" lon="4.86295">
        <ele>183.8</ele>
        <time>2024-09-18T09:50:28Z</time>
      </trkpt>
      <trkpt lat="46.77919" lon="4.86299">
        <ele>184</ele>
        <time>2024-09-18T09:50:29Z</time>
      </trkpt>
      <trkpt lat="46.77918" lon="4.86303">
        <ele>184</ele>
        <time>2024-09-18T09:50:30Z</time>
      </trkpt>
      <trkpt lat="46.77917" lon="4.86308">
        <ele>184</ele>
        <time>2024-09-18T09:50:31Z</time>
      </trkpt>
      <trkpt lat="46.77916" lon="4.86312">
        <ele>184.2</ele>
        <time>2024-09-18T09:50:32Z</time>
      </trkpt>
      <trkpt lat="46.77915" lon="4.86317">
        <ele>184</ele>
        <time>2024-09-18T09:50:33Z</time>
      </trkpt>
      <trkpt lat="46.77914" lon="4.86323">
        <ele>184</ele>
        <time>2024-09-18T09:50:34Z</time>
      </trkpt>
      <trkpt lat="46.77912" lon="4.86329">
        <ele>184</ele>
        <time>2024-09-18T09:50:35Z</time>
      </trkpt>
      <trkpt lat="46.77911" lon="4.86336">
        <ele>184</ele>
        <time>2024-09-18T09:50:36Z</time>
      </trkpt>
      <trkpt lat="46.7791" lon="4.86342">
        <ele>183.6</ele>
        <time>2024-09-18T09:50:37Z</time>
      </trkpt>
      <trkpt lat="46.77909" lon="4.86349">
        <ele>183.6</ele>
        <time>2024-09-18T09:50:38Z</time>
      </trkpt>
      <trkpt lat="46.77908" lon="4.86356">
        <ele>183.4</ele>
        <time>2024-09-18T09:50:39Z</time>
      </trkpt>
      <trkpt lat="46.77907" lon="4.86362">
        <ele>183.4</ele>
        <time>2024-09-18T09:50:40Z</time>
      </trkpt>
      <trkpt lat="46.77906" lon="4.86369">
        <ele>183.4</ele>
        <time>2024-09-18T09:50:41Z</time>
      </trkpt>
      <trkpt lat="46.77906" lon="4.86376">
        <ele>183.4</ele>
        <time>2024-09-18T09:50:42Z</time>
      </trkpt>
      <trkpt lat="46.77905" lon="4.86382">
        <ele>182.8</ele>
        <time>2024-09-18T09:50:43Z</time>
      </trkpt>
      <trkpt lat="46.77904" lon="4.86389">
        <ele>182.8</ele>
        <time>2024-09-18T09:50:44Z</time>
      </trkpt>
      <trkpt lat="46.77903" lon="4.86395">
        <ele>182.8</ele>
        <time>2024-09-18T09:50:45Z</time>
      </trkpt>
      <trkpt lat="46.77902" lon="4.86402">
        <ele>182.8</ele>
        <time>2024-09-18T09:50:46Z</time>
      </trkpt>
      <trkpt lat="46.77901" lon="4.86409">
        <ele>182.8</ele>
        <time>2024-09-18T09:50:47Z</time>
      </trkpt>
      <trkpt lat="46.77899" lon="4.86419">
        <ele>182.4</ele>
        <time>2024-09-18T09:50:48Z</time>
      </trkpt>
      <trkpt lat="46.77898" lon="4.86423">
        <ele>182.4</ele>
        <time>2024-09-18T09:50:49Z</time>
      </trkpt>
      <trkpt lat="46.77897" lon="4.8643">
        <ele>182.4</ele>
        <time>2024-09-18T09:50:50Z</time>
      </trkpt>
      <trkpt lat="46.77897" lon="4.86437">
        <ele>182.4</ele>
        <time>2024-09-18T09:50:51Z</time>
      </trkpt>
      <trkpt lat="46.77896" lon="4.86445">
        <ele>182.4</ele>
        <time>2024-09-18T09:50:52Z</time>
      </trkpt>
      <trkpt lat="46.77895" lon="4.86452">
        <ele>182.4</ele>
        <time>2024-09-18T09:50:53Z</time>
      </trkpt>
      <trkpt lat="46.77894" lon="4.86459">
        <ele>182.4</ele>
        <time>2024-09-18T09:50:54Z</time>
      </trkpt>
      <trkpt lat="46.77894" lon="4.86465">
        <ele>182.4</ele>
        <time>2024-09-18T09:50:55Z</time>
      </trkpt>
      <trkpt lat="46.77893" lon="4.86472">
        <ele>182.4</ele>
        <time>2024-09-18T09:50:56Z</time>
      </trkpt>
      <trkpt lat="46.77892" lon="4.86477">
        <ele>182.4</ele>
        <time>2024-09-18T09:50:57Z</time>
      </trkpt>
      <trkpt lat="46.77891" lon="4.86484">
        <ele>182.4</ele>
        <time>2024-09-18T09:50:58Z</time>
      </trkpt>
      <trkpt lat="46.7789" lon="4.8649">
        <ele>182.4</ele>
        <time>2024-09-18T09:50:59Z</time>
      </trkpt>
      <trkpt lat="46.7789" lon="4.86496">
        <ele>182.6</ele>
        <time>2024-09-18T09:51:00Z</time>
      </trkpt>
      <trkpt lat="46.77889" lon="4.86502">
        <ele>182.4</ele>
        <time>2024-09-18T09:51:01Z</time>
      </trkpt>
      <trkpt lat="46.77889" lon="4.86509">
        <ele>182.4</ele>
        <time>2024-09-18T09:51:02Z</time>
      </trkpt>
      <trkpt lat="46.77888" lon="4.86515">
        <ele>182.4</ele>
        <time>2024-09-18T09:51:03Z</time>
      </trkpt>
      <trkpt lat="46.77887" lon="4.86522">
        <ele>182.4</ele>
        <time>2024-09-18T09:51:04Z</time>
      </trkpt>
      <trkpt lat="46.77887" lon="4.86528">
        <ele>182.4</ele>
        <time>2024-09-18T09:51:05Z</time>
      </trkpt>
      <trkpt lat="46.77886" lon="4.86534">
        <ele>182.6</ele>
        <time>2024-09-18T09:51:06Z</time>
      </trkpt>
      <trkpt lat="46.77885" lon="4.86541">
        <ele>182.6</ele>
        <time>2024-09-18T09:51:07Z</time>
      </trkpt>
      <trkpt lat="46.77884" lon="4.86547">
        <ele>182.4</ele>
        <time>2024-09-18T09:51:08Z</time>
      </trkpt>
      <trkpt lat="46.77884" lon="4.86553">
        <ele>182.4</ele>
        <time>2024-09-18T09:51:09Z</time>
      </trkpt>
      <trkpt lat="46.77883" lon="4.86559">
        <ele>182.4</ele>
        <time>2024-09-18T09:51:10Z</time>
      </trkpt>
      <trkpt lat="46.77882" lon="4.86565">
        <ele>182.4</ele>
        <time>2024-09-18T09:51:11Z</time>
      </trkpt>
      <trkpt lat="46.77881" lon="4.86572">
        <ele>182.4</ele>
        <time>2024-09-18T09:51:12Z</time>
      </trkpt>
      <trkpt lat="46.7788" lon="4.86578">
        <ele>182.6</ele>
        <time>2024-09-18T09:51:13Z</time>
      </trkpt>
      <trkpt lat="46.7788" lon="4.86584">
        <ele>182.6</ele>
        <time>2024-09-18T09:51:14Z</time>
      </trkpt>
      <trkpt lat="46.77879" lon="4.86591">
        <ele>182.6</ele>
        <time>2024-09-18T09:51:15Z</time>
      </trkpt>
      <trkpt lat="46.77878" lon="4.86597">
        <ele>182.6</ele>
        <time>2024-09-18T09:51:16Z</time>
      </trkpt>
      <trkpt lat="46.77877" lon="4.86604">
        <ele>182.4</ele>
        <time>2024-09-18T09:51:17Z</time>
      </trkpt>
      <trkpt lat="46.77876" lon="4.8661">
        <ele>182.6</ele>
        <time>2024-09-18T09:51:18Z</time>
      </trkpt>
      <trkpt lat="46.77875" lon="4.86617">
        <ele>182.6</ele>
        <time>2024-09-18T09:51:19Z</time>
      </trkpt>
      <trkpt lat="46.77874" lon="4.86623">
        <ele>182.6</ele>
        <time>2024-09-18T09:51:20Z</time>
      </trkpt>
      <trkpt lat="46.77874" lon="4.8663">
        <ele>182.6</ele>
        <time>2024-09-18T09:51:21Z</time>
      </trkpt>
      <trkpt lat="46.77873" lon="4.86636">
        <ele>182.6</ele>
        <time>2024-09-18T09:51:22Z</time>
      </trkpt>
      <trkpt lat="46.77872" lon="4.86643">
        <ele>182.6</ele>
        <time>2024-09-18T09:51:23Z</time>
      </trkpt>
      <trkpt lat="46.77871" lon="4.86649">
        <ele>182.2</ele>
        <time>2024-09-18T09:51:24Z</time>
      </trkpt>
      <trkpt lat="46.7787" lon="4.86655">
        <ele>182.2</ele>
        <time>2024-09-18T09:51:25Z</time>
      </trkpt>
      <trkpt lat="46.7787" lon="4.8666">
        <ele>182.2</ele>
        <time>2024-09-18T09:51:26Z</time>
      </trkpt>
      <trkpt lat="46.77869" lon="4.86666">
        <ele>182.2</ele>
        <time>2024-09-18T09:51:27Z</time>
      </trkpt>
      <trkpt lat="46.77869" lon="4.8667">
        <ele>182.2</ele>
        <time>2024-09-18T09:51:28Z</time>
      </trkpt>
      <trkpt lat="46.77868" lon="4.86673">
        <ele>182.4</ele>
        <time>2024-09-18T09:51:29Z</time>
      </trkpt>
      <trkpt lat="46.77868" lon="4.86674">
        <ele>182.4</ele>
        <time>2024-09-18T09:51:30Z</time>
      </trkpt>
      <trkpt lat="46.77868" lon="4.86675">
        <ele>182.4</ele>
        <time>2024-09-18T09:51:31Z</time>
      </trkpt>
      <trkpt lat="46.77868" lon="4.86676">
        <ele>182.4</ele>
        <time>2024-09-18T09:51:32Z</time>
      </trkpt>
      <trkpt lat="46.77868" lon="4.86678">
        <ele>182.4</ele>
        <time>2024-09-18T09:51:33Z</time>
      </trkpt>
      <trkpt lat="46.77867" lon="4.8668">
        <ele>182.4</ele>
        <time>2024-09-18T09:51:34Z</time>
      </trkpt>
      <trkpt lat="46.77867" lon="4.86684">
        <ele>182.4</ele>
        <time>2024-09-18T09:51:35Z</time>
      </trkpt>
      <trkpt lat="46.77867" lon="4.86687">
        <ele>182.6</ele>
        <time>2024-09-18T09:51:36Z</time>
      </trkpt>
      <trkpt lat="46.77866" lon="4.8669">
        <ele>182.6</ele>
        <time>2024-09-18T09:51:37Z</time>
      </trkpt>
      <trkpt lat="46.77866" lon="4.86695">
        <ele>182.4</ele>
        <time>2024-09-18T09:51:38Z</time>
      </trkpt>
      <trkpt lat="46.77865" lon="4.86699">
        <ele>182.4</ele>
        <time>2024-09-18T09:51:39Z</time>
      </trkpt>
      <trkpt lat="46.77864" lon="4.86704">
        <ele>182.4</ele>
        <time>2024-09-18T09:51:40Z</time>
      </trkpt>
      <trkpt lat="46.77863" lon="4.86709">
        <ele>182.8</ele>
        <time>2024-09-18T09:51:41Z</time>
      </trkpt>
      <trkpt lat="46.77862" lon="4.86717">
        <ele>182.8</ele>
        <time>2024-09-18T09:51:42Z</time>
      </trkpt>
      <trkpt lat="46.77862" lon="4.8672">
        <ele>182.8</ele>
        <time>2024-09-18T09:51:43Z</time>
      </trkpt>
      <trkpt lat="46.77862" lon="4.86726">
        <ele>182.8</ele>
        <time>2024-09-18T09:51:44Z</time>
      </trkpt>
      <trkpt lat="46.77861" lon="4.86731">
        <ele>182.4</ele>
        <time>2024-09-18T09:51:45Z</time>
      </trkpt>
      <trkpt lat="46.77861" lon="4.86738">
        <ele>182.2</ele>
        <time>2024-09-18T09:51:46Z</time>
      </trkpt>
      <trkpt lat="46.7786" lon="4.86744">
        <ele>182.2</ele>
        <time>2024-09-18T09:51:47Z</time>
      </trkpt>
      <trkpt lat="46.77859" lon="4.86751">
        <ele>182.2</ele>
        <time>2024-09-18T09:51:48Z</time>
      </trkpt>
      <trkpt lat="46.77858" lon="4.86757">
        <ele>182.2</ele>
        <time>2024-09-18T09:51:49Z</time>
      </trkpt>
      <trkpt lat="46.77857" lon="4.86764">
        <ele>181.8</ele>
        <time>2024-09-18T09:51:50Z</time>
      </trkpt>
      <trkpt lat="46.77856" lon="4.86771">
        <ele>181.8</ele>
        <time>2024-09-18T09:51:51Z</time>
      </trkpt>
      <trkpt lat="46.77855" lon="4.86778">
        <ele>181.8</ele>
        <time>2024-09-18T09:51:52Z</time>
      </trkpt>
      <trkpt lat="46.77854" lon="4.86785">
        <ele>181.8</ele>
        <time>2024-09-18T09:51:53Z</time>
      </trkpt>
      <trkpt lat="46.77853" lon="4.86792">
        <ele>181.8</ele>
        <time>2024-09-18T09:51:54Z</time>
      </trkpt>
      <trkpt lat="46.77853" lon="4.86798">
        <ele>181.8</ele>
        <time>2024-09-18T09:51:55Z</time>
      </trkpt>
      <trkpt lat="46.77852" lon="4.86805">
        <ele>181.8</ele>
        <time>2024-09-18T09:51:56Z</time>
      </trkpt>
      <trkpt lat="46.7785" lon="4.86811">
        <ele>181.8</ele>
        <time>2024-09-18T09:51:57Z</time>
      </trkpt>
      <trkpt lat="46.77849" lon="4.86818">
        <ele>181.8</ele>
        <time>2024-09-18T09:51:58Z</time>
      </trkpt>
      <trkpt lat="46.77849" lon="4.86824">
        <ele>181.6</ele>
        <time>2024-09-18T09:51:59Z</time>
      </trkpt>
      <trkpt lat="46.77848" lon="4.86831">
        <ele>181.6</ele>
        <time>2024-09-18T09:52:00Z</time>
      </trkpt>
      <trkpt lat="46.77847" lon="4.86837">
        <ele>181.6</ele>
        <time>2024-09-18T09:52:01Z</time>
      </trkpt>
      <trkpt lat="46.77846" lon="4.86844">
        <ele>181.6</ele>
        <time>2024-09-18T09:52:02Z</time>
      </trkpt>
      <trkpt lat="46.77846" lon="4.8685">
        <ele>182</ele>
        <time>2024-09-18T09:52:03Z</time>
      </trkpt>
      <trkpt lat="46.77845" lon="4.86857">
        <ele>182</ele>
        <time>2024-09-18T09:52:04Z</time>
      </trkpt>
      <trkpt lat="46.77844" lon="4.86863">
        <ele>182</ele>
        <time>2024-09-18T09:52:05Z</time>
      </trkpt>
      <trkpt lat="46.77844" lon="4.86869">
        <ele>182</ele>
        <time>2024-09-18T09:52:06Z</time>
      </trkpt>
      <trkpt lat="46.77843" lon="4.86876">
        <ele>182</ele>
        <time>2024-09-18T09:52:07Z</time>
      </trkpt>
      <trkpt lat="46.77842" lon="4.86882">
        <ele>181.2</ele>
        <time>2024-09-18T09:52:08Z</time>
      </trkpt>
      <trkpt lat="46.77842" lon="4.86889">
        <ele>181.2</ele>
        <time>2024-09-18T09:52:09Z</time>
      </trkpt>
      <trkpt lat="46.77841" lon="4.86895">
        <ele>181.2</ele>
        <time>2024-09-18T09:52:10Z</time>
      </trkpt>
      <trkpt lat="46.7784" lon="4.86902">
        <ele>181.2</ele>
        <time>2024-09-18T09:52:11Z</time>
      </trkpt>
      <trkpt lat="46.7784" lon="4.86909">
        <ele>181.4</ele>
        <time>2024-09-18T09:52:12Z</time>
      </trkpt>
      <trkpt lat="46.77839" lon="4.86915">
        <ele>181.4</ele>
        <time>2024-09-18T09:52:13Z</time>
      </trkpt>
      <trkpt lat="46.77838" lon="4.86925">
        <ele>181</ele>
        <time>2024-09-18T09:52:14Z</time>
      </trkpt>
      <trkpt lat="46.77838" lon="4.86928">
        <ele>181</ele>
        <time>2024-09-18T09:52:15Z</time>
      </trkpt>
      <trkpt lat="46.77836" lon="4.86937">
        <ele>181.2</ele>
        <time>2024-09-18T09:52:16Z</time>
      </trkpt>
      <trkpt lat="46.77836" lon="4.8694">
        <ele>181.2</ele>
        <time>2024-09-18T09:52:17Z</time>
      </trkpt>
      <trkpt lat="46.77835" lon="4.86947">
        <ele>181.2</ele>
        <time>2024-09-18T09:52:18Z</time>
      </trkpt>
      <trkpt lat="46.77834" lon="4.86953">
        <ele>181.2</ele>
        <time>2024-09-18T09:52:19Z</time>
      </trkpt>
      <trkpt lat="46.77833" lon="4.86959">
        <ele>181.2</ele>
        <time>2024-09-18T09:52:20Z</time>
      </trkpt>
      <trkpt lat="46.77832" lon="4.86965">
        <ele>181.2</ele>
        <time>2024-09-18T09:52:21Z</time>
      </trkpt>
      <trkpt lat="46.77831" lon="4.86971">
        <ele>181.2</ele>
        <time>2024-09-18T09:52:22Z</time>
      </trkpt>
      <trkpt lat="46.7783" lon="4.86977">
        <ele>181.2</ele>
        <time>2024-09-18T09:52:23Z</time>
      </trkpt>
      <trkpt lat="46.7783" lon="4.86982">
        <ele>181.2</ele>
        <time>2024-09-18T09:52:24Z</time>
      </trkpt>
      <trkpt lat="46.7783" lon="4.86988">
        <ele>181.2</ele>
        <time>2024-09-18T09:52:25Z</time>
      </trkpt>
      <trkpt lat="46.77829" lon="4.86994">
        <ele>181.2</ele>
        <time>2024-09-18T09:52:26Z</time>
      </trkpt>
      <trkpt lat="46.77829" lon="4.86999">
        <ele>181.2</ele>
        <time>2024-09-18T09:52:27Z</time>
      </trkpt>
      <trkpt lat="46.77828" lon="4.87005">
        <ele>181.2</ele>
        <time>2024-09-18T09:52:28Z</time>
      </trkpt>
      <trkpt lat="46.77828" lon="4.8701">
        <ele>181.2</ele>
        <time>2024-09-18T09:52:29Z</time>
      </trkpt>
      <trkpt lat="46.77827" lon="4.87016">
        <ele>181.6</ele>
        <time>2024-09-18T09:52:30Z</time>
      </trkpt>
      <trkpt lat="46.77826" lon="4.87022">
        <ele>181.6</ele>
        <time>2024-09-18T09:52:31Z</time>
      </trkpt>
      <trkpt lat="46.77825" lon="4.87028">
        <ele>181.6</ele>
        <time>2024-09-18T09:52:32Z</time>
      </trkpt>
      <trkpt lat="46.77824" lon="4.87034">
        <ele>181.6</ele>
        <time>2024-09-18T09:52:33Z</time>
      </trkpt>
      <trkpt lat="46.77823" lon="4.8704">
        <ele>181.6</ele>
        <time>2024-09-18T09:52:34Z</time>
      </trkpt>
      <trkpt lat="46.77823" lon="4.87046">
        <ele>181.2</ele>
        <time>2024-09-18T09:52:35Z</time>
      </trkpt>
      <trkpt lat="46.77822" lon="4.87052">
        <ele>181.2</ele>
        <time>2024-09-18T09:52:36Z</time>
      </trkpt>
      <trkpt lat="46.77822" lon="4.87058">
        <ele>181.2</ele>
        <time>2024-09-18T09:52:37Z</time>
      </trkpt>
      <trkpt lat="46.7782" lon="4.87067">
        <ele>181.2</ele>
        <time>2024-09-18T09:52:38Z</time>
      </trkpt>
      <trkpt lat="46.7782" lon="4.8707">
        <ele>181.2</ele>
        <time>2024-09-18T09:52:39Z</time>
      </trkpt>
      <trkpt lat="46.77819" lon="4.87076">
        <ele>181.2</ele>
        <time>2024-09-18T09:52:40Z</time>
      </trkpt>
      <trkpt lat="46.77818" lon="4.87082">
        <ele>181.2</ele>
        <time>2024-09-18T09:52:41Z</time>
      </trkpt>
      <trkpt lat="46.77817" lon="4.87088">
        <ele>181.2</ele>
        <time>2024-09-18T09:52:42Z</time>
      </trkpt>
      <trkpt lat="46.77816" lon="4.87094">
        <ele>181.2</ele>
        <time>2024-09-18T09:52:43Z</time>
      </trkpt>
      <trkpt lat="46.77816" lon="4.871">
        <ele>181</ele>
        <time>2024-09-18T09:52:44Z</time>
      </trkpt>
      <trkpt lat="46.77815" lon="4.87106">
        <ele>181</ele>
        <time>2024-09-18T09:52:45Z</time>
      </trkpt>
      <trkpt lat="46.77813" lon="4.87112">
        <ele>181</ele>
        <time>2024-09-18T09:52:46Z</time>
      </trkpt>
      <trkpt lat="46.77812" lon="4.87118">
        <ele>181</ele>
        <time>2024-09-18T09:52:47Z</time>
      </trkpt>
      <trkpt lat="46.77812" lon="4.87124">
        <ele>181.2</ele>
        <time>2024-09-18T09:52:48Z</time>
      </trkpt>
      <trkpt lat="46.77811" lon="4.8713">
        <ele>181.2</ele>
        <time>2024-09-18T09:52:49Z</time>
      </trkpt>
      <trkpt lat="46.7781" lon="4.87136">
        <ele>181.2</ele>
        <time>2024-09-18T09:52:50Z</time>
      </trkpt>
      <trkpt lat="46.77809" lon="4.87142">
        <ele>181.2</ele>
        <time>2024-09-18T09:52:51Z</time>
      </trkpt>
      <trkpt lat="46.77809" lon="4.87147">
        <ele>180.8</ele>
        <time>2024-09-18T09:52:52Z</time>
      </trkpt>
      <trkpt lat="46.77808" lon="4.87152">
        <ele>181.2</ele>
        <time>2024-09-18T09:52:53Z</time>
      </trkpt>
      <trkpt lat="46.77807" lon="4.87157">
        <ele>181.2</ele>
        <time>2024-09-18T09:52:54Z</time>
      </trkpt>
      <trkpt lat="46.77806" lon="4.87162">
        <ele>181.2</ele>
        <time>2024-09-18T09:52:55Z</time>
      </trkpt>
      <trkpt lat="46.77805" lon="4.87166">
        <ele>181.2</ele>
        <time>2024-09-18T09:52:56Z</time>
      </trkpt>
      <trkpt lat="46.77803" lon="4.8717">
        <ele>181</ele>
        <time>2024-09-18T09:52:57Z</time>
      </trkpt>
      <trkpt lat="46.77801" lon="4.87173">
        <ele>181</ele>
        <time>2024-09-18T09:52:58Z</time>
      </trkpt>
      <trkpt lat="46.77798" lon="4.87175">
        <ele>181</ele>
        <time>2024-09-18T09:52:59Z</time>
      </trkpt>
      <trkpt lat="46.77794" lon="4.87177">
        <ele>181</ele>
        <time>2024-09-18T09:53:00Z</time>
      </trkpt>
      <trkpt lat="46.7779" lon="4.87178">
        <ele>181</ele>
        <time>2024-09-18T09:53:01Z</time>
      </trkpt>
      <trkpt lat="46.77786" lon="4.87177">
        <ele>181</ele>
        <time>2024-09-18T09:53:02Z</time>
      </trkpt>
      <trkpt lat="46.77783" lon="4.87175">
        <ele>181</ele>
        <time>2024-09-18T09:53:03Z</time>
      </trkpt>
      <trkpt lat="46.77779" lon="4.87172">
        <ele>181</ele>
        <time>2024-09-18T09:53:04Z</time>
      </trkpt>
      <trkpt lat="46.77775" lon="4.87168">
        <ele>181</ele>
        <time>2024-09-18T09:53:05Z</time>
      </trkpt>
      <trkpt lat="46.77772" lon="4.87165">
        <ele>181</ele>
        <time>2024-09-18T09:53:06Z</time>
      </trkpt>
      <trkpt lat="46.77769" lon="4.87161">
        <ele>181</ele>
        <time>2024-09-18T09:53:07Z</time>
      </trkpt>
      <trkpt lat="46.77767" lon="4.87157">
        <ele>181</ele>
        <time>2024-09-18T09:53:08Z</time>
      </trkpt>
      <trkpt lat="46.77766" lon="4.87154">
        <ele>181</ele>
        <time>2024-09-18T09:53:09Z</time>
      </trkpt>
      <trkpt lat="46.77765" lon="4.87152">
        <ele>181</ele>
        <time>2024-09-18T09:53:10Z</time>
      </trkpt>
      <trkpt lat="46.77764" lon="4.8715">
        <ele>181</ele>
        <time>2024-09-18T09:53:11Z</time>
      </trkpt>
      <trkpt lat="46.77764" lon="4.87149">
        <ele>181</ele>
        <time>2024-09-18T09:53:12Z</time>
      </trkpt>
      <trkpt lat="46.77766" lon="4.87154">
        <ele>180.8</ele>
        <time>2024-09-18T09:53:47Z</time>
      </trkpt>
      <trkpt lat="46.77766" lon="4.87156">
        <ele>180.8</ele>
        <time>2024-09-18T09:53:48Z</time>
      </trkpt>
      <trkpt lat="46.77768" lon="4.87159">
        <ele>180.8</ele>
        <time>2024-09-18T09:53:49Z</time>
      </trkpt>
      <trkpt lat="46.7777" lon="4.87161">
        <ele>180.8</ele>
        <time>2024-09-18T09:53:50Z</time>
      </trkpt>
      <trkpt lat="46.77773" lon="4.87164">
        <ele>180.8</ele>
        <time>2024-09-18T09:53:51Z</time>
      </trkpt>
      <trkpt lat="46.77776" lon="4.87167">
        <ele>180.8</ele>
        <time>2024-09-18T09:53:52Z</time>
      </trkpt>
      <trkpt lat="46.77779" lon="4.87169">
        <ele>180.8</ele>
        <time>2024-09-18T09:53:53Z</time>
      </trkpt>
      <trkpt lat="46.77783" lon="4.87171">
        <ele>181</ele>
        <time>2024-09-18T09:53:54Z</time>
      </trkpt>
      <trkpt lat="46.77786" lon="4.87173">
        <ele>181</ele>
        <time>2024-09-18T09:53:55Z</time>
      </trkpt>
      <trkpt lat="46.7779" lon="4.87176">
        <ele>181</ele>
        <time>2024-09-18T09:53:56Z</time>
      </trkpt>
      <trkpt lat="46.77794" lon="4.87179">
        <ele>181</ele>
        <time>2024-09-18T09:53:57Z</time>
      </trkpt>
      <trkpt lat="46.77796" lon="4.87183">
        <ele>181</ele>
        <time>2024-09-18T09:53:58Z</time>
      </trkpt>
      <trkpt lat="46.77798" lon="4.87188">
        <ele>181.2</ele>
        <time>2024-09-18T09:53:59Z</time>
      </trkpt>
      <trkpt lat="46.77798" lon="4.87193">
        <ele>181.2</ele>
        <time>2024-09-18T09:54:00Z</time>
      </trkpt>
      <trkpt lat="46.77796" lon="4.87197">
        <ele>181.2</ele>
        <time>2024-09-18T09:54:01Z</time>
      </trkpt>
      <trkpt lat="46.77795" lon="4.87202">
        <ele>181.6</ele>
        <time>2024-09-18T09:54:02Z</time>
      </trkpt>
      <trkpt lat="46.77793" lon="4.87206">
        <ele>181.8</ele>
        <time>2024-09-18T09:54:03Z</time>
      </trkpt>
      <trkpt lat="46.77791" lon="4.87211">
        <ele>181.8</ele>
        <time>2024-09-18T09:54:04Z</time>
      </trkpt>
      <trkpt lat="46.77788" lon="4.87215">
        <ele>181.8</ele>
        <time>2024-09-18T09:54:05Z</time>
      </trkpt>
      <trkpt lat="46.77785" lon="4.8722">
        <ele>181.8</ele>
        <time>2024-09-18T09:54:06Z</time>
      </trkpt>
      <trkpt lat="46.77783" lon="4.87224">
        <ele>181.8</ele>
        <time>2024-09-18T09:54:07Z</time>
      </trkpt>
      <trkpt lat="46.7778" lon="4.87227">
        <ele>182</ele>
        <time>2024-09-18T09:54:08Z</time>
      </trkpt>
      <trkpt lat="46.77779" lon="4.87229">
        <ele>182</ele>
        <time>2024-09-18T09:54:09Z</time>
      </trkpt>
      <trkpt lat="46.77777" lon="4.87231">
        <ele>182</ele>
        <time>2024-09-18T09:54:10Z</time>
      </trkpt>
      <trkpt lat="46.77776" lon="4.87233">
        <ele>182</ele>
        <time>2024-09-18T09:54:11Z</time>
      </trkpt>
      <trkpt lat="46.77774" lon="4.87235">
        <ele>182</ele>
        <time>2024-09-18T09:54:12Z</time>
      </trkpt>
      <trkpt lat="46.77772" lon="4.87237">
        <ele>182</ele>
        <time>2024-09-18T09:54:13Z</time>
      </trkpt>
      <trkpt lat="46.7777" lon="4.87241">
        <ele>182</ele>
        <time>2024-09-18T09:54:14Z</time>
      </trkpt>
      <trkpt lat="46.77769" lon="4.87245">
        <ele>182</ele>
        <time>2024-09-18T09:54:15Z</time>
      </trkpt>
      <trkpt lat="46.77769" lon="4.87251">
        <ele>182</ele>
        <time>2024-09-18T09:54:16Z</time>
      </trkpt>
      <trkpt lat="46.77769" lon="4.8726">
        <ele>182.2</ele>
        <time>2024-09-18T09:54:17Z</time>
      </trkpt>
      <trkpt lat="46.77769" lon="4.87263">
        <ele>182.2</ele>
        <time>2024-09-18T09:54:18Z</time>
      </trkpt>
      <trkpt lat="46.7777" lon="4.8727">
        <ele>182.2</ele>
        <time>2024-09-18T09:54:19Z</time>
      </trkpt>
      <trkpt lat="46.7777" lon="4.87276">
        <ele>182.2</ele>
        <time>2024-09-18T09:54:20Z</time>
      </trkpt>
      <trkpt lat="46.77771" lon="4.87283">
        <ele>182</ele>
        <time>2024-09-18T09:54:21Z</time>
      </trkpt>
      <trkpt lat="46.77771" lon="4.87291">
        <ele>182</ele>
        <time>2024-09-18T09:54:22Z</time>
      </trkpt>
      <trkpt lat="46.77772" lon="4.87298">
        <ele>182</ele>
        <time>2024-09-18T09:54:23Z</time>
      </trkpt>
      <trkpt lat="46.77772" lon="4.87305">
        <ele>182</ele>
        <time>2024-09-18T09:54:24Z</time>
      </trkpt>
      <trkpt lat="46.77771" lon="4.87312">
        <ele>182</ele>
        <time>2024-09-18T09:54:25Z</time>
      </trkpt>
      <trkpt lat="46.77772" lon="4.87319">
        <ele>182</ele>
        <time>2024-09-18T09:54:26Z</time>
      </trkpt>
      <trkpt lat="46.77772" lon="4.87326">
        <ele>182</ele>
        <time>2024-09-18T09:54:27Z</time>
      </trkpt>
      <trkpt lat="46.77772" lon="4.87333">
        <ele>182</ele>
        <time>2024-09-18T09:54:28Z</time>
      </trkpt>
      <trkpt lat="46.77772" lon="4.87341">
        <ele>182</ele>
        <time>2024-09-18T09:54:29Z</time>
      </trkpt>
      <trkpt lat="46.77772" lon="4.87351">
        <ele>182.4</ele>
        <time>2024-09-18T09:54:30Z</time>
      </trkpt>
      <trkpt lat="46.77772" lon="4.87354">
        <ele>182.4</ele>
        <time>2024-09-18T09:54:31Z</time>
      </trkpt>
      <trkpt lat="46.77772" lon="4.87361">
        <ele>182.4</ele>
        <time>2024-09-18T09:54:32Z</time>
      </trkpt>
      <trkpt lat="46.77772" lon="4.87368">
        <ele>182.4</ele>
        <time>2024-09-18T09:54:33Z</time>
      </trkpt>
      <trkpt lat="46.77772" lon="4.87375">
        <ele>182.2</ele>
        <time>2024-09-18T09:54:34Z</time>
      </trkpt>
      <trkpt lat="46.77771" lon="4.87381">
        <ele>182.2</ele>
        <time>2024-09-18T09:54:35Z</time>
      </trkpt>
      <trkpt lat="46.77771" lon="4.87388">
        <ele>182.2</ele>
        <time>2024-09-18T09:54:36Z</time>
      </trkpt>
      <trkpt lat="46.77771" lon="4.87396">
        <ele>182.2</ele>
        <time>2024-09-18T09:54:37Z</time>
      </trkpt>
      <trkpt lat="46.7777" lon="4.87403">
        <ele>182.4</ele>
        <time>2024-09-18T09:54:38Z</time>
      </trkpt>
      <trkpt lat="46.7777" lon="4.87411">
        <ele>182.4</ele>
        <time>2024-09-18T09:54:39Z</time>
      </trkpt>
      <trkpt lat="46.77769" lon="4.87418">
        <ele>182.4</ele>
        <time>2024-09-18T09:54:40Z</time>
      </trkpt>
      <trkpt lat="46.77769" lon="4.87425">
        <ele>182.4</ele>
        <time>2024-09-18T09:54:41Z</time>
      </trkpt>
      <trkpt lat="46.77769" lon="4.87433">
        <ele>182.4</ele>
        <time>2024-09-18T09:54:42Z</time>
      </trkpt>
      <trkpt lat="46.77768" lon="4.8744">
        <ele>182.4</ele>
        <time>2024-09-18T09:54:43Z</time>
      </trkpt>
      <trkpt lat="46.77767" lon="4.87447">
        <ele>181.8</ele>
        <time>2024-09-18T09:54:44Z</time>
      </trkpt>
      <trkpt lat="46.77766" lon="4.87454">
        <ele>181.8</ele>
        <time>2024-09-18T09:54:45Z</time>
      </trkpt>
      <trkpt lat="46.77765" lon="4.87461">
        <ele>181.8</ele>
        <time>2024-09-18T09:54:46Z</time>
      </trkpt>
      <trkpt lat="46.77764" lon="4.87468">
        <ele>181.8</ele>
        <time>2024-09-18T09:54:47Z</time>
      </trkpt>
      <trkpt lat="46.77764" lon="4.87475">
        <ele>182.2</ele>
        <time>2024-09-18T09:54:48Z</time>
      </trkpt>
      <trkpt lat="46.77763" lon="4.87482">
        <ele>182.2</ele>
        <time>2024-09-18T09:54:49Z</time>
      </trkpt>
      <trkpt lat="46.77762" lon="4.87489">
        <ele>182.2</ele>
        <time>2024-09-18T09:54:50Z</time>
      </trkpt>
      <trkpt lat="46.77761" lon="4.87497">
        <ele>181.8</ele>
        <time>2024-09-18T09:54:51Z</time>
      </trkpt>
      <trkpt lat="46.7776" lon="4.87504">
        <ele>181.8</ele>
        <time>2024-09-18T09:54:52Z</time>
      </trkpt>
      <trkpt lat="46.7776" lon="4.87511">
        <ele>182.2</ele>
        <time>2024-09-18T09:54:53Z</time>
      </trkpt>
      <trkpt lat="46.77759" lon="4.87518">
        <ele>182.2</ele>
        <time>2024-09-18T09:54:54Z</time>
      </trkpt>
      <trkpt lat="46.77758" lon="4.87525">
        <ele>182.2</ele>
        <time>2024-09-18T09:54:55Z</time>
      </trkpt>
      <trkpt lat="46.77757" lon="4.87531">
        <ele>182</ele>
        <time>2024-09-18T09:54:56Z</time>
      </trkpt>
      <trkpt lat="46.77757" lon="4.87538">
        <ele>182</ele>
        <time>2024-09-18T09:54:57Z</time>
      </trkpt>
      <trkpt lat="46.77756" lon="4.87545">
        <ele>182</ele>
        <time>2024-09-18T09:54:58Z</time>
      </trkpt>
      <trkpt lat="46.77755" lon="4.87552">
        <ele>182</ele>
        <time>2024-09-18T09:54:59Z</time>
      </trkpt>
      <trkpt lat="46.77755" lon="4.87558">
        <ele>182</ele>
        <time>2024-09-18T09:55:00Z</time>
      </trkpt>
      <trkpt lat="46.77754" lon="4.87565">
        <ele>182</ele>
        <time>2024-09-18T09:55:01Z</time>
      </trkpt>
      <trkpt lat="46.77753" lon="4.87572">
        <ele>182.2</ele>
        <time>2024-09-18T09:55:02Z</time>
      </trkpt>
      <trkpt lat="46.77752" lon="4.87578">
        <ele>182.2</ele>
        <time>2024-09-18T09:55:03Z</time>
      </trkpt>
      <trkpt lat="46.77751" lon="4.87585">
        <ele>182</ele>
        <time>2024-09-18T09:55:04Z</time>
      </trkpt>
      <trkpt lat="46.7775" lon="4.87591">
        <ele>182</ele>
        <time>2024-09-18T09:55:05Z</time>
      </trkpt>
      <trkpt lat="46.7775" lon="4.87598">
        <ele>182</ele>
        <time>2024-09-18T09:55:06Z</time>
      </trkpt>
      <trkpt lat="46.77749" lon="4.87604">
        <ele>182</ele>
        <time>2024-09-18T09:55:07Z</time>
      </trkpt>
      <trkpt lat="46.77749" lon="4.8761">
        <ele>182</ele>
        <time>2024-09-18T09:55:08Z</time>
      </trkpt>
      <trkpt lat="46.77748" lon="4.87617">
        <ele>182</ele>
        <time>2024-09-18T09:55:09Z</time>
      </trkpt>
      <trkpt lat="46.77747" lon="4.87623">
        <ele>182</ele>
        <time>2024-09-18T09:55:10Z</time>
      </trkpt>
      <trkpt lat="46.77746" lon="4.87629">
        <ele>182</ele>
        <time>2024-09-18T09:55:11Z</time>
      </trkpt>
      <trkpt lat="46.77745" lon="4.87635">
        <ele>182</ele>
        <time>2024-09-18T09:55:12Z</time>
      </trkpt>
      <trkpt lat="46.77744" lon="4.87641">
        <ele>182</ele>
        <time>2024-09-18T09:55:13Z</time>
      </trkpt>
      <trkpt lat="46.77743" lon="4.87648">
        <ele>182</ele>
        <time>2024-09-18T09:55:14Z</time>
      </trkpt>
      <trkpt lat="46.77743" lon="4.87654">
        <ele>182.2</ele>
        <time>2024-09-18T09:55:15Z</time>
      </trkpt>
      <trkpt lat="46.77742" lon="4.8766">
        <ele>182.2</ele>
        <time>2024-09-18T09:55:16Z</time>
      </trkpt>
      <trkpt lat="46.77741" lon="4.87666">
        <ele>182.2</ele>
        <time>2024-09-18T09:55:17Z</time>
      </trkpt>
      <trkpt lat="46.77739" lon="4.87672">
        <ele>182.4</ele>
        <time>2024-09-18T09:55:18Z</time>
      </trkpt>
      <trkpt lat="46.77738" lon="4.87677">
        <ele>182.4</ele>
        <time>2024-09-18T09:55:19Z</time>
      </trkpt>
      <trkpt lat="46.77737" lon="4.87681">
        <ele>182.4</ele>
        <time>2024-09-18T09:55:20Z</time>
      </trkpt>
      <trkpt lat="46.77736" lon="4.87683">
        <ele>182.4</ele>
        <time>2024-09-18T09:55:21Z</time>
      </trkpt>
      <trkpt lat="46.77736" lon="4.87685">
        <ele>182.4</ele>
        <time>2024-09-18T09:55:22Z</time>
      </trkpt>
      <trkpt lat="46.77736" lon="4.87687">
        <ele>182.4</ele>
        <time>2024-09-18T09:55:23Z</time>
      </trkpt>
      <trkpt lat="46.77735" lon="4.87688">
        <ele>182.4</ele>
        <time>2024-09-18T09:55:24Z</time>
      </trkpt>
      <trkpt lat="46.77735" lon="4.87689">
        <ele>182.4</ele>
        <time>2024-09-18T09:55:25Z</time>
      </trkpt>
      <trkpt lat="46.77735" lon="4.87689">
        <ele>182.4</ele>
        <time>2024-09-18T09:55:26Z</time>
      </trkpt>
      <trkpt lat="46.77734" lon="4.87694">
        <ele>182</ele>
        <time>2024-09-18T09:56:04Z</time>
      </trkpt>
      <trkpt lat="46.77734" lon="4.87695">
        <ele>182</ele>
        <time>2024-09-18T09:56:05Z</time>
      </trkpt>
      <trkpt lat="46.77734" lon="4.87696">
        <ele>182.4</ele>
        <time>2024-09-18T09:56:06Z</time>
      </trkpt>
      <trkpt lat="46.77733" lon="4.87697">
        <ele>182.4</ele>
        <time>2024-09-18T09:56:07Z</time>
      </trkpt>
      <trkpt lat="46.77732" lon="4.87697">
        <ele>182.4</ele>
        <time>2024-09-18T09:56:08Z</time>
      </trkpt>
      <trkpt lat="46.77731" lon="4.87699">
        <ele>182.4</ele>
        <time>2024-09-18T09:56:09Z</time>
      </trkpt>
      <trkpt lat="46.77729" lon="4.87701">
        <ele>182.4</ele>
        <time>2024-09-18T09:56:10Z</time>
      </trkpt>
      <trkpt lat="46.77727" lon="4.87703">
        <ele>182.4</ele>
        <time>2024-09-18T09:56:11Z</time>
      </trkpt>
      <trkpt lat="46.77724" lon="4.87706">
        <ele>182.6</ele>
        <time>2024-09-18T09:56:12Z</time>
      </trkpt>
      <trkpt lat="46.77722" lon="4.87709">
        <ele>182.6</ele>
        <time>2024-09-18T09:56:13Z</time>
      </trkpt>
      <trkpt lat="46.77719" lon="4.87713">
        <ele>182.6</ele>
        <time>2024-09-18T09:56:14Z</time>
      </trkpt>
      <trkpt lat="46.77717" lon="4.87717">
        <ele>182.6</ele>
        <time>2024-09-18T09:56:15Z</time>
      </trkpt>
      <trkpt lat="46.77714" lon="4.87721">
        <ele>182.6</ele>
        <time>2024-09-18T09:56:16Z</time>
      </trkpt>
      <trkpt lat="46.77713" lon="4.87726">
        <ele>182.6</ele>
        <time>2024-09-18T09:56:17Z</time>
      </trkpt>
      <trkpt lat="46.77712" lon="4.87731">
        <ele>182.6</ele>
        <time>2024-09-18T09:56:18Z</time>
      </trkpt>
      <trkpt lat="46.77711" lon="4.87736">
        <ele>182.6</ele>
        <time>2024-09-18T09:56:19Z</time>
      </trkpt>
      <trkpt lat="46.77711" lon="4.87741">
        <ele>182.4</ele>
        <time>2024-09-18T09:56:20Z</time>
      </trkpt>
      <trkpt lat="46.77711" lon="4.87746">
        <ele>182.4</ele>
        <time>2024-09-18T09:56:21Z</time>
      </trkpt>
      <trkpt lat="46.77711" lon="4.87751">
        <ele>182.4</ele>
        <time>2024-09-18T09:56:22Z</time>
      </trkpt>
      <trkpt lat="46.77712" lon="4.87757">
        <ele>182.4</ele>
        <time>2024-09-18T09:56:23Z</time>
      </trkpt>
      <trkpt lat="46.77713" lon="4.87763">
        <ele>182.4</ele>
        <time>2024-09-18T09:56:24Z</time>
      </trkpt>
      <trkpt lat="46.77715" lon="4.87768">
        <ele>182.4</ele>
        <time>2024-09-18T09:56:25Z</time>
      </trkpt>
      <trkpt lat="46.77717" lon="4.87774">
        <ele>182.4</ele>
        <time>2024-09-18T09:56:26Z</time>
      </trkpt>
      <trkpt lat="46.7772" lon="4.87783">
        <ele>182.4</ele>
        <time>2024-09-18T09:56:27Z</time>
      </trkpt>
      <trkpt lat="46.77721" lon="4.87786">
        <ele>182.2</ele>
        <time>2024-09-18T09:56:28Z</time>
      </trkpt>
      <trkpt lat="46.77722" lon="4.87791">
        <ele>182.2</ele>
        <time>2024-09-18T09:56:29Z</time>
      </trkpt>
      <trkpt lat="46.77722" lon="4.87798">
        <ele>182.2</ele>
        <time>2024-09-18T09:56:30Z</time>
      </trkpt>
      <trkpt lat="46.77722" lon="4.87804">
        <ele>182.2</ele>
        <time>2024-09-18T09:56:31Z</time>
      </trkpt>
      <trkpt lat="46.77723" lon="4.87811">
        <ele>182.2</ele>
        <time>2024-09-18T09:56:32Z</time>
      </trkpt>
      <trkpt lat="46.77724" lon="4.87817">
        <ele>182.2</ele>
        <time>2024-09-18T09:56:33Z</time>
      </trkpt>
      <trkpt lat="46.77724" lon="4.87824">
        <ele>182.2</ele>
        <time>2024-09-18T09:56:34Z</time>
      </trkpt>
      <trkpt lat="46.77725" lon="4.87831">
        <ele>182.2</ele>
        <time>2024-09-18T09:56:35Z</time>
      </trkpt>
      <trkpt lat="46.77725" lon="4.87839">
        <ele>182.2</ele>
        <time>2024-09-18T09:56:36Z</time>
      </trkpt>
      <trkpt lat="46.77725" lon="4.87846">
        <ele>182.2</ele>
        <time>2024-09-18T09:56:37Z</time>
      </trkpt>
      <trkpt lat="46.77725" lon="4.87854">
        <ele>182.2</ele>
        <time>2024-09-18T09:56:38Z</time>
      </trkpt>
      <trkpt lat="46.77724" lon="4.87861">
        <ele>182.2</ele>
        <time>2024-09-18T09:56:39Z</time>
      </trkpt>
      <trkpt lat="46.77724" lon="4.87868">
        <ele>182.2</ele>
        <time>2024-09-18T09:56:40Z</time>
      </trkpt>
      <trkpt lat="46.77724" lon="4.87875">
        <ele>182.4</ele>
        <time>2024-09-18T09:56:41Z</time>
      </trkpt>
      <trkpt lat="46.77723" lon="4.87882">
        <ele>182.6</ele>
        <time>2024-09-18T09:56:42Z</time>
      </trkpt>
      <trkpt lat="46.77722" lon="4.87888">
        <ele>182.6</ele>
        <time>2024-09-18T09:56:43Z</time>
      </trkpt>
      <trkpt lat="46.77721" lon="4.87894">
        <ele>182.6</ele>
        <time>2024-09-18T09:56:44Z</time>
      </trkpt>
      <trkpt lat="46.77721" lon="4.879">
        <ele>182.6</ele>
        <time>2024-09-18T09:56:45Z</time>
      </trkpt>
      <trkpt lat="46.7772" lon="4.87906">
        <ele>182.6</ele>
        <time>2024-09-18T09:56:46Z</time>
      </trkpt>
      <trkpt lat="46.77719" lon="4.87912">
        <ele>183</ele>
        <time>2024-09-18T09:56:47Z</time>
      </trkpt>
      <trkpt lat="46.77718" lon="4.87918">
        <ele>183</ele>
        <time>2024-09-18T09:56:48Z</time>
      </trkpt>
      <trkpt lat="46.77718" lon="4.87924">
        <ele>183</ele>
        <time>2024-09-18T09:56:49Z</time>
      </trkpt>
      <trkpt lat="46.77717" lon="4.8793">
        <ele>183</ele>
        <time>2024-09-18T09:56:50Z</time>
      </trkpt>
      <trkpt lat="46.77716" lon="4.87936">
        <ele>183</ele>
        <time>2024-09-18T09:56:51Z</time>
      </trkpt>
      <trkpt lat="46.77715" lon="4.87943">
        <ele>183.2</ele>
        <time>2024-09-18T09:56:52Z</time>
      </trkpt>
      <trkpt lat="46.77714" lon="4.87949">
        <ele>183.2</ele>
        <time>2024-09-18T09:56:53Z</time>
      </trkpt>
      <trkpt lat="46.77713" lon="4.87956">
        <ele>183.2</ele>
        <time>2024-09-18T09:56:54Z</time>
      </trkpt>
      <trkpt lat="46.77712" lon="4.87963">
        <ele>183.4</ele>
        <time>2024-09-18T09:56:55Z</time>
      </trkpt>
      <trkpt lat="46.77711" lon="4.87969">
        <ele>183.4</ele>
        <time>2024-09-18T09:56:56Z</time>
      </trkpt>
      <trkpt lat="46.77711" lon="4.87976">
        <ele>183.4</ele>
        <time>2024-09-18T09:56:57Z</time>
      </trkpt>
      <trkpt lat="46.7771" lon="4.87983">
        <ele>183.4</ele>
        <time>2024-09-18T09:56:58Z</time>
      </trkpt>
      <trkpt lat="46.77709" lon="4.8799">
        <ele>183.2</ele>
        <time>2024-09-18T09:56:59Z</time>
      </trkpt>
      <trkpt lat="46.77708" lon="4.87997">
        <ele>183.6</ele>
        <time>2024-09-18T09:57:00Z</time>
      </trkpt>
      <trkpt lat="46.77707" lon="4.88004">
        <ele>183.6</ele>
        <time>2024-09-18T09:57:01Z</time>
      </trkpt>
      <trkpt lat="46.77706" lon="4.88011">
        <ele>183.6</ele>
        <time>2024-09-18T09:57:02Z</time>
      </trkpt>
      <trkpt lat="46.77705" lon="4.88018">
        <ele>183.6</ele>
        <time>2024-09-18T09:57:03Z</time>
      </trkpt>
      <trkpt lat="46.77705" lon="4.88026">
        <ele>183.2</ele>
        <time>2024-09-18T09:57:04Z</time>
      </trkpt>
      <trkpt lat="46.77704" lon="4.88033">
        <ele>183.2</ele>
        <time>2024-09-18T09:57:05Z</time>
      </trkpt>
      <trkpt lat="46.77703" lon="4.8804">
        <ele>183.2</ele>
        <time>2024-09-18T09:57:06Z</time>
      </trkpt>
      <trkpt lat="46.77702" lon="4.88048">
        <ele>183.2</ele>
        <time>2024-09-18T09:57:07Z</time>
      </trkpt>
      <trkpt lat="46.77701" lon="4.88055">
        <ele>183.2</ele>
        <time>2024-09-18T09:57:08Z</time>
      </trkpt>
      <trkpt lat="46.777" lon="4.88062">
        <ele>182.8</ele>
        <time>2024-09-18T09:57:09Z</time>
      </trkpt>
      <trkpt lat="46.77699" lon="4.8807">
        <ele>182.8</ele>
        <time>2024-09-18T09:57:10Z</time>
      </trkpt>
      <trkpt lat="46.77697" lon="4.88078">
        <ele>182.8</ele>
        <time>2024-09-18T09:57:11Z</time>
      </trkpt>
      <trkpt lat="46.77696" lon="4.88086">
        <ele>182.2</ele>
        <time>2024-09-18T09:57:12Z</time>
      </trkpt>
      <trkpt lat="46.77695" lon="4.88094">
        <ele>182.4</ele>
        <time>2024-09-18T09:57:13Z</time>
      </trkpt>
      <trkpt lat="46.77694" lon="4.88102">
        <ele>182.4</ele>
        <time>2024-09-18T09:57:14Z</time>
      </trkpt>
      <trkpt lat="46.77693" lon="4.88109">
        <ele>182.4</ele>
        <time>2024-09-18T09:57:15Z</time>
      </trkpt>
      <trkpt lat="46.77692" lon="4.88117">
        <ele>182</ele>
        <time>2024-09-18T09:57:16Z</time>
      </trkpt>
      <trkpt lat="46.7769" lon="4.88125">
        <ele>181.8</ele>
        <time>2024-09-18T09:57:17Z</time>
      </trkpt>
      <trkpt lat="46.77689" lon="4.88132">
        <ele>181.8</ele>
        <time>2024-09-18T09:57:18Z</time>
      </trkpt>
      <trkpt lat="46.77688" lon="4.88139">
        <ele>181.8</ele>
        <time>2024-09-18T09:57:19Z</time>
      </trkpt>
      <trkpt lat="46.77686" lon="4.88146">
        <ele>181.8</ele>
        <time>2024-09-18T09:57:20Z</time>
      </trkpt>
      <trkpt lat="46.77685" lon="4.88153">
        <ele>181.8</ele>
        <time>2024-09-18T09:57:21Z</time>
      </trkpt>
      <trkpt lat="46.77684" lon="4.8816">
        <ele>181.2</ele>
        <time>2024-09-18T09:57:22Z</time>
      </trkpt>
      <trkpt lat="46.77682" lon="4.88166">
        <ele>181.2</ele>
        <time>2024-09-18T09:57:23Z</time>
      </trkpt>
      <trkpt lat="46.77681" lon="4.88172">
        <ele>181.2</ele>
        <time>2024-09-18T09:57:24Z</time>
      </trkpt>
      <trkpt lat="46.7768" lon="4.88179">
        <ele>181.2</ele>
        <time>2024-09-18T09:57:25Z</time>
      </trkpt>
      <trkpt lat="46.7768" lon="4.88184">
        <ele>181.2</ele>
        <time>2024-09-18T09:57:26Z</time>
      </trkpt>
      <trkpt lat="46.77679" lon="4.8819">
        <ele>181.2</ele>
        <time>2024-09-18T09:57:27Z</time>
      </trkpt>
      <trkpt lat="46.77677" lon="4.88195">
        <ele>181.2</ele>
        <time>2024-09-18T09:57:28Z</time>
      </trkpt>
      <trkpt lat="46.77676" lon="4.88201">
        <ele>181.2</ele>
        <time>2024-09-18T09:57:29Z</time>
      </trkpt>
      <trkpt lat="46.77675" lon="4.88206">
        <ele>181</ele>
        <time>2024-09-18T09:57:30Z</time>
      </trkpt>
      <trkpt lat="46.77675" lon="4.88211">
        <ele>181</ele>
        <time>2024-09-18T09:57:31Z</time>
      </trkpt>
      <trkpt lat="46.77674" lon="4.88216">
        <ele>181</ele>
        <time>2024-09-18T09:57:32Z</time>
      </trkpt>
      <trkpt lat="46.77673" lon="4.88221">
        <ele>181</ele>
        <time>2024-09-18T09:57:33Z</time>
      </trkpt>
      <trkpt lat="46.77672" lon="4.88225">
        <ele>181</ele>
        <time>2024-09-18T09:57:34Z</time>
      </trkpt>
      <trkpt lat="46.77671" lon="4.8823">
        <ele>181</ele>
        <time>2024-09-18T09:57:35Z</time>
      </trkpt>
      <trkpt lat="46.7767" lon="4.88234">
        <ele>181</ele>
        <time>2024-09-18T09:57:36Z</time>
      </trkpt>
      <trkpt lat="46.7767" lon="4.88239">
        <ele>181</ele>
        <time>2024-09-18T09:57:37Z</time>
      </trkpt>
      <trkpt lat="46.77669" lon="4.88243">
        <ele>181</ele>
        <time>2024-09-18T09:57:38Z</time>
      </trkpt>
      <trkpt lat="46.77668" lon="4.88247">
        <ele>181</ele>
        <time>2024-09-18T09:57:39Z</time>
      </trkpt>
      <trkpt lat="46.77668" lon="4.88251">
        <ele>181</ele>
        <time>2024-09-18T09:57:40Z</time>
      </trkpt>
      <trkpt lat="46.77667" lon="4.88255">
        <ele>181</ele>
        <time>2024-09-18T09:57:41Z</time>
      </trkpt>
      <trkpt lat="46.77667" lon="4.88258">
        <ele>181</ele>
        <time>2024-09-18T09:57:42Z</time>
      </trkpt>
      <trkpt lat="46.77666" lon="4.88261">
        <ele>180.8</ele>
        <time>2024-09-18T09:57:43Z</time>
      </trkpt>
      <trkpt lat="46.77665" lon="4.88264">
        <ele>180.8</ele>
        <time>2024-09-18T09:57:44Z</time>
      </trkpt>
      <trkpt lat="46.77665" lon="4.88265">
        <ele>180.8</ele>
        <time>2024-09-18T09:57:45Z</time>
      </trkpt>
      <trkpt lat="46.77665" lon="4.88266">
        <ele>180.8</ele>
        <time>2024-09-18T09:57:46Z</time>
      </trkpt>
      <trkpt lat="46.77665" lon="4.88266">
        <ele>180.8</ele>
        <time>2024-09-18T09:57:47Z</time>
      </trkpt>
      <trkpt lat="46.77662" lon="4.88273">
        <ele>181</ele>
        <time>2024-09-18T09:58:26Z</time>
      </trkpt>
      <trkpt lat="46.77662" lon="4.88277">
        <ele>181.2</ele>
        <time>2024-09-18T09:58:27Z</time>
      </trkpt>
      <trkpt lat="46.77662" lon="4.88281">
        <ele>181.2</ele>
        <time>2024-09-18T09:58:28Z</time>
      </trkpt>
      <trkpt lat="46.77662" lon="4.88285">
        <ele>181.2</ele>
        <time>2024-09-18T09:58:29Z</time>
      </trkpt>
      <trkpt lat="46.77662" lon="4.88289">
        <ele>181.2</ele>
        <time>2024-09-18T09:58:30Z</time>
      </trkpt>
      <trkpt lat="46.77661" lon="4.88294">
        <ele>181.2</ele>
        <time>2024-09-18T09:58:31Z</time>
      </trkpt>
      <trkpt lat="46.7766" lon="4.88299">
        <ele>181.2</ele>
        <time>2024-09-18T09:58:32Z</time>
      </trkpt>
      <trkpt lat="46.7766" lon="4.88303">
        <ele>181.2</ele>
        <time>2024-09-18T09:58:33Z</time>
      </trkpt>
      <trkpt lat="46.77659" lon="4.88307">
        <ele>181.2</ele>
        <time>2024-09-18T09:58:34Z</time>
      </trkpt>
      <trkpt lat="46.77658" lon="4.88312">
        <ele>181.2</ele>
        <time>2024-09-18T09:58:35Z</time>
      </trkpt>
      <trkpt lat="46.77658" lon="4.88316">
        <ele>181.2</ele>
        <time>2024-09-18T09:58:36Z</time>
      </trkpt>
      <trkpt lat="46.77657" lon="4.88322">
        <ele>181.2</ele>
        <time>2024-09-18T09:58:37Z</time>
      </trkpt>
      <trkpt lat="46.77657" lon="4.88327">
        <ele>181.2</ele>
        <time>2024-09-18T09:58:38Z</time>
      </trkpt>
      <trkpt lat="46.77656" lon="4.88332">
        <ele>181.2</ele>
        <time>2024-09-18T09:58:39Z</time>
      </trkpt>
      <trkpt lat="46.77655" lon="4.88338">
        <ele>181.2</ele>
        <time>2024-09-18T09:58:40Z</time>
      </trkpt>
      <trkpt lat="46.77655" lon="4.88343">
        <ele>181.4</ele>
        <time>2024-09-18T09:58:41Z</time>
      </trkpt>
      <trkpt lat="46.77654" lon="4.88349">
        <ele>181.4</ele>
        <time>2024-09-18T09:58:42Z</time>
      </trkpt>
      <trkpt lat="46.77653" lon="4.88354">
        <ele>181.4</ele>
        <time>2024-09-18T09:58:43Z</time>
      </trkpt>
      <trkpt lat="46.77652" lon="4.88359">
        <ele>181.6</ele>
        <time>2024-09-18T09:58:44Z</time>
      </trkpt>
      <trkpt lat="46.77652" lon="4.88365">
        <ele>181.4</ele>
        <time>2024-09-18T09:58:45Z</time>
      </trkpt>
      <trkpt lat="46.77651" lon="4.8837">
        <ele>181.4</ele>
        <time>2024-09-18T09:58:46Z</time>
      </trkpt>
      <trkpt lat="46.77651" lon="4.88376">
        <ele>181.4</ele>
        <time>2024-09-18T09:58:47Z</time>
      </trkpt>
      <trkpt lat="46.7765" lon="4.88382">
        <ele>181.4</ele>
        <time>2024-09-18T09:58:48Z</time>
      </trkpt>
      <trkpt lat="46.77649" lon="4.88388">
        <ele>181.4</ele>
        <time>2024-09-18T09:58:49Z</time>
      </trkpt>
      <trkpt lat="46.77649" lon="4.88394">
        <ele>181.6</ele>
        <time>2024-09-18T09:58:50Z</time>
      </trkpt>
      <trkpt lat="46.77648" lon="4.88401">
        <ele>181.6</ele>
        <time>2024-09-18T09:58:51Z</time>
      </trkpt>
      <trkpt lat="46.77647" lon="4.88407">
        <ele>181.6</ele>
        <time>2024-09-18T09:58:52Z</time>
      </trkpt>
      <trkpt lat="46.77647" lon="4.88414">
        <ele>181.6</ele>
        <time>2024-09-18T09:58:53Z</time>
      </trkpt>
      <trkpt lat="46.77646" lon="4.88421">
        <ele>181.6</ele>
        <time>2024-09-18T09:58:54Z</time>
      </trkpt>
      <trkpt lat="46.77645" lon="4.88427">
        <ele>181.8</ele>
        <time>2024-09-18T09:58:55Z</time>
      </trkpt>
      <trkpt lat="46.77644" lon="4.88434">
        <ele>181.8</ele>
        <time>2024-09-18T09:58:56Z</time>
      </trkpt>
      <trkpt lat="46.77643" lon="4.88441">
        <ele>181.4</ele>
        <time>2024-09-18T09:58:57Z</time>
      </trkpt>
      <trkpt lat="46.77642" lon="4.88448">
        <ele>181.4</ele>
        <time>2024-09-18T09:58:58Z</time>
      </trkpt>
      <trkpt lat="46.77641" lon="4.88455">
        <ele>181.4</ele>
        <time>2024-09-18T09:58:59Z</time>
      </trkpt>
      <trkpt lat="46.7764" lon="4.88462">
        <ele>181.4</ele>
        <time>2024-09-18T09:59:00Z</time>
      </trkpt>
      <trkpt lat="46.77639" lon="4.88469">
        <ele>181.4</ele>
        <time>2024-09-18T09:59:01Z</time>
      </trkpt>
      <trkpt lat="46.77638" lon="4.88476">
        <ele>181.4</ele>
        <time>2024-09-18T09:59:02Z</time>
      </trkpt>
      <trkpt lat="46.77637" lon="4.88482">
        <ele>181.4</ele>
        <time>2024-09-18T09:59:03Z</time>
      </trkpt>
      <trkpt lat="46.77637" lon="4.88489">
        <ele>181.4</ele>
        <time>2024-09-18T09:59:04Z</time>
      </trkpt>
      <trkpt lat="46.77636" lon="4.88495">
        <ele>181.4</ele>
        <time>2024-09-18T09:59:05Z</time>
      </trkpt>
      <trkpt lat="46.77636" lon="4.88501">
        <ele>181.4</ele>
        <time>2024-09-18T09:59:06Z</time>
      </trkpt>
      <trkpt lat="46.77634" lon="4.88511">
        <ele>181.8</ele>
        <time>2024-09-18T09:59:07Z</time>
      </trkpt>
      <trkpt lat="46.77634" lon="4.88514">
        <ele>181.8</ele>
        <time>2024-09-18T09:59:08Z</time>
      </trkpt>
      <trkpt lat="46.77633" lon="4.88521">
        <ele>181.8</ele>
        <time>2024-09-18T09:59:09Z</time>
      </trkpt>
      <trkpt lat="46.77632" lon="4.88528">
        <ele>181.8</ele>
        <time>2024-09-18T09:59:10Z</time>
      </trkpt>
      <trkpt lat="46.77631" lon="4.88534">
        <ele>181.6</ele>
        <time>2024-09-18T09:59:11Z</time>
      </trkpt>
      <trkpt lat="46.77631" lon="4.88541">
        <ele>182</ele>
        <time>2024-09-18T09:59:12Z</time>
      </trkpt>
      <trkpt lat="46.7763" lon="4.88548">
        <ele>182</ele>
        <time>2024-09-18T09:59:13Z</time>
      </trkpt>
      <trkpt lat="46.77629" lon="4.88555">
        <ele>182</ele>
        <time>2024-09-18T09:59:14Z</time>
      </trkpt>
      <trkpt lat="46.77628" lon="4.88561">
        <ele>181.8</ele>
        <time>2024-09-18T09:59:15Z</time>
      </trkpt>
      <trkpt lat="46.77627" lon="4.88568">
        <ele>181.8</ele>
        <time>2024-09-18T09:59:16Z</time>
      </trkpt>
      <trkpt lat="46.77627" lon="4.88574">
        <ele>181.8</ele>
        <time>2024-09-18T09:59:17Z</time>
      </trkpt>
      <trkpt lat="46.77626" lon="4.8858">
        <ele>181.8</ele>
        <time>2024-09-18T09:59:18Z</time>
      </trkpt>
      <trkpt lat="46.77626" lon="4.88586">
        <ele>181.8</ele>
        <time>2024-09-18T09:59:19Z</time>
      </trkpt>
      <trkpt lat="46.77625" lon="4.88593">
        <ele>181.8</ele>
        <time>2024-09-18T09:59:20Z</time>
      </trkpt>
      <trkpt lat="46.77624" lon="4.88599">
        <ele>181.8</ele>
        <time>2024-09-18T09:59:21Z</time>
      </trkpt>
      <trkpt lat="46.77623" lon="4.88605">
        <ele>181.6</ele>
        <time>2024-09-18T09:59:22Z</time>
      </trkpt>
      <trkpt lat="46.77622" lon="4.88612">
        <ele>181.6</ele>
        <time>2024-09-18T09:59:23Z</time>
      </trkpt>
      <trkpt lat="46.77621" lon="4.88618">
        <ele>181.6</ele>
        <time>2024-09-18T09:59:24Z</time>
      </trkpt>
      <trkpt lat="46.7762" lon="4.88624">
        <ele>181.6</ele>
        <time>2024-09-18T09:59:25Z</time>
      </trkpt>
      <trkpt lat="46.7762" lon="4.8863">
        <ele>181.8</ele>
        <time>2024-09-18T09:59:26Z</time>
      </trkpt>
      <trkpt lat="46.77619" lon="4.88636">
        <ele>181.8</ele>
        <time>2024-09-18T09:59:27Z</time>
      </trkpt>
      <trkpt lat="46.77618" lon="4.88642">
        <ele>181.8</ele>
        <time>2024-09-18T09:59:28Z</time>
      </trkpt>
      <trkpt lat="46.77617" lon="4.88648">
        <ele>182.4</ele>
        <time>2024-09-18T09:59:29Z</time>
      </trkpt>
      <trkpt lat="46.77616" lon="4.88654">
        <ele>182.4</ele>
        <time>2024-09-18T09:59:30Z</time>
      </trkpt>
      <trkpt lat="46.77616" lon="4.8866">
        <ele>181.8</ele>
        <time>2024-09-18T09:59:31Z</time>
      </trkpt>
      <trkpt lat="46.77615" lon="4.88666">
        <ele>181.8</ele>
        <time>2024-09-18T09:59:32Z</time>
      </trkpt>
      <trkpt lat="46.77615" lon="4.88672">
        <ele>181.8</ele>
        <time>2024-09-18T09:59:33Z</time>
      </trkpt>
      <trkpt lat="46.77614" lon="4.88678">
        <ele>181.8</ele>
        <time>2024-09-18T09:59:34Z</time>
      </trkpt>
      <trkpt lat="46.77613" lon="4.88683">
        <ele>182</ele>
        <time>2024-09-18T09:59:35Z</time>
      </trkpt>
      <trkpt lat="46.77612" lon="4.88687">
        <ele>182</ele>
        <time>2024-09-18T09:59:36Z</time>
      </trkpt>
      <trkpt lat="46.77609" lon="4.88692">
        <ele>182</ele>
        <time>2024-09-18T09:59:37Z</time>
      </trkpt>
      <trkpt lat="46.77606" lon="4.88696">
        <ele>182</ele>
        <time>2024-09-18T09:59:38Z</time>
      </trkpt>
      <trkpt lat="46.77603" lon="4.88699">
        <ele>182.2</ele>
        <time>2024-09-18T09:59:39Z</time>
      </trkpt>
      <trkpt lat="46.776" lon="4.88703">
        <ele>182.2</ele>
        <time>2024-09-18T09:59:40Z</time>
      </trkpt>
      <trkpt lat="46.77597" lon="4.88707">
        <ele>182.2</ele>
        <time>2024-09-18T09:59:41Z</time>
      </trkpt>
      <trkpt lat="46.77593" lon="4.88711">
        <ele>182.2</ele>
        <time>2024-09-18T09:59:42Z</time>
      </trkpt>
      <trkpt lat="46.7759" lon="4.88715">
        <ele>182.2</ele>
        <time>2024-09-18T09:59:43Z</time>
      </trkpt>
      <trkpt lat="46.77587" lon="4.88719">
        <ele>182.6</ele>
        <time>2024-09-18T09:59:44Z</time>
      </trkpt>
      <trkpt lat="46.77584" lon="4.88723">
        <ele>182.6</ele>
        <time>2024-09-18T09:59:45Z</time>
      </trkpt>
      <trkpt lat="46.77581" lon="4.88727">
        <ele>182.6</ele>
        <time>2024-09-18T09:59:46Z</time>
      </trkpt>
      <trkpt lat="46.77578" lon="4.88731">
        <ele>182.6</ele>
        <time>2024-09-18T09:59:47Z</time>
      </trkpt>
      <trkpt lat="46.77575" lon="4.88735">
        <ele>183</ele>
        <time>2024-09-18T09:59:48Z</time>
      </trkpt>
      <trkpt lat="46.77571" lon="4.8874">
        <ele>183</ele>
        <time>2024-09-18T09:59:49Z</time>
      </trkpt>
      <trkpt lat="46.7757" lon="4.88742">
        <ele>183</ele>
        <time>2024-09-18T09:59:50Z</time>
      </trkpt>
      <trkpt lat="46.77568" lon="4.88746">
        <ele>183</ele>
        <time>2024-09-18T09:59:51Z</time>
      </trkpt>
      <trkpt lat="46.77565" lon="4.8875">
        <ele>183.2</ele>
        <time>2024-09-18T09:59:52Z</time>
      </trkpt>
      <trkpt lat="46.77562" lon="4.88754">
        <ele>183.2</ele>
        <time>2024-09-18T09:59:53Z</time>
      </trkpt>
      <trkpt lat="46.7756" lon="4.88757">
        <ele>183.2</ele>
        <time>2024-09-18T09:59:54Z</time>
      </trkpt>
      <trkpt lat="46.77557" lon="4.8876">
        <ele>183.4</ele>
        <time>2024-09-18T09:59:55Z</time>
      </trkpt>
      <trkpt lat="46.77554" lon="4.88763">
        <ele>183.8</ele>
        <time>2024-09-18T09:59:56Z</time>
      </trkpt>
      <trkpt lat="46.77551" lon="4.88764">
        <ele>183.8</ele>
        <time>2024-09-18T09:59:57Z</time>
      </trkpt>
      <trkpt lat="46.77547" lon="4.88762">
        <ele>183.8</ele>
        <time>2024-09-18T09:59:58Z</time>
      </trkpt>
      <trkpt lat="46.77544" lon="4.88758">
        <ele>183.8</ele>
        <time>2024-09-18T09:59:59Z</time>
      </trkpt>
      <trkpt lat="46.77542" lon="4.88753">
        <ele>183.8</ele>
        <time>2024-09-18T10:00:00Z</time>
      </trkpt>
      <trkpt lat="46.77539" lon="4.88748">
        <ele>183.4</ele>
        <time>2024-09-18T10:00:01Z</time>
      </trkpt>
      <trkpt lat="46.77536" lon="4.88743">
        <ele>183</ele>
        <time>2024-09-18T10:00:02Z</time>
      </trkpt>
      <trkpt lat="46.77533" lon="4.88738">
        <ele>183</ele>
        <time>2024-09-18T10:00:03Z</time>
      </trkpt>
      <trkpt lat="46.7753" lon="4.88733">
        <ele>183</ele>
        <time>2024-09-18T10:00:04Z</time>
      </trkpt>
      <trkpt lat="46.77525" lon="4.8873">
        <ele>183</ele>
        <time>2024-09-18T10:00:05Z</time>
      </trkpt>
      <trkpt lat="46.7752" lon="4.88728">
        <ele>182.8</ele>
        <time>2024-09-18T10:00:06Z</time>
      </trkpt>
      <trkpt lat="46.77515" lon="4.88726">
        <ele>182.8</ele>
        <time>2024-09-18T10:00:07Z</time>
      </trkpt>
      <trkpt lat="46.7751" lon="4.88725">
        <ele>182.8</ele>
        <time>2024-09-18T10:00:08Z</time>
      </trkpt>
      <trkpt lat="46.77505" lon="4.88723">
        <ele>182.8</ele>
        <time>2024-09-18T10:00:09Z</time>
      </trkpt>
      <trkpt lat="46.775" lon="4.88722">
        <ele>182.6</ele>
        <time>2024-09-18T10:00:10Z</time>
      </trkpt>
      <trkpt lat="46.77495" lon="4.88721">
        <ele>182.6</ele>
        <time>2024-09-18T10:00:11Z</time>
      </trkpt>
      <trkpt lat="46.77489" lon="4.88721">
        <ele>182.6</ele>
        <time>2024-09-18T10:00:12Z</time>
      </trkpt>
      <trkpt lat="46.77483" lon="4.8872">
        <ele>182.6</ele>
        <time>2024-09-18T10:00:13Z</time>
      </trkpt>
      <trkpt lat="46.77478" lon="4.88718">
        <ele>182.6</ele>
        <time>2024-09-18T10:00:14Z</time>
      </trkpt>
      <trkpt lat="46.77472" lon="4.88717">
        <ele>182.2</ele>
        <time>2024-09-18T10:00:15Z</time>
      </trkpt>
      <trkpt lat="46.77466" lon="4.88717">
        <ele>182.2</ele>
        <time>2024-09-18T10:00:16Z</time>
      </trkpt>
      <trkpt lat="46.77461" lon="4.88717">
        <ele>182.2</ele>
        <time>2024-09-18T10:00:17Z</time>
      </trkpt>
      <trkpt lat="46.77455" lon="4.88716">
        <ele>182</ele>
        <time>2024-09-18T10:00:18Z</time>
      </trkpt>
      <trkpt lat="46.7745" lon="4.88715">
        <ele>182</ele>
        <time>2024-09-18T10:00:19Z</time>
      </trkpt>
      <trkpt lat="46.77445" lon="4.88714">
        <ele>182</ele>
        <time>2024-09-18T10:00:20Z</time>
      </trkpt>
      <trkpt lat="46.77439" lon="4.88713">
        <ele>182</ele>
        <time>2024-09-18T10:00:21Z</time>
      </trkpt>
      <trkpt lat="46.77434" lon="4.88711">
        <ele>181.8</ele>
        <time>2024-09-18T10:00:22Z</time>
      </trkpt>
      <trkpt lat="46.7743" lon="4.88709">
        <ele>181.8</ele>
        <time>2024-09-18T10:00:23Z</time>
      </trkpt>
      <trkpt lat="46.77425" lon="4.88706">
        <ele>181.8</ele>
        <time>2024-09-18T10:00:24Z</time>
      </trkpt>
      <trkpt lat="46.7742" lon="4.88703">
        <ele>181.8</ele>
        <time>2024-09-18T10:00:25Z</time>
      </trkpt>
      <trkpt lat="46.77416" lon="4.887">
        <ele>181.8</ele>
        <time>2024-09-18T10:00:26Z</time>
      </trkpt>
      <trkpt lat="46.77411" lon="4.88698">
        <ele>182</ele>
        <time>2024-09-18T10:00:27Z</time>
      </trkpt>
      <trkpt lat="46.77406" lon="4.88695">
        <ele>182</ele>
        <time>2024-09-18T10:00:28Z</time>
      </trkpt>
      <trkpt lat="46.77401" lon="4.88692">
        <ele>182</ele>
        <time>2024-09-18T10:00:29Z</time>
      </trkpt>
      <trkpt lat="46.77397" lon="4.88689">
        <ele>182</ele>
        <time>2024-09-18T10:00:30Z</time>
      </trkpt>
      <trkpt lat="46.77392" lon="4.88686">
        <ele>182</ele>
        <time>2024-09-18T10:00:31Z</time>
      </trkpt>
      <trkpt lat="46.77386" lon="4.88681">
        <ele>181.8</ele>
        <time>2024-09-18T10:00:32Z</time>
      </trkpt>
      <trkpt lat="46.77384" lon="4.8868">
        <ele>181.8</ele>
        <time>2024-09-18T10:00:33Z</time>
      </trkpt>
      <trkpt lat="46.7738" lon="4.88678">
        <ele>181.8</ele>
        <time>2024-09-18T10:00:34Z</time>
      </trkpt>
      <trkpt lat="46.77376" lon="4.88676">
        <ele>181.8</ele>
        <time>2024-09-18T10:00:35Z</time>
      </trkpt>
      <trkpt lat="46.77372" lon="4.88675">
        <ele>181.8</ele>
        <time>2024-09-18T10:00:36Z</time>
      </trkpt>
      <trkpt lat="46.77368" lon="4.88676">
        <ele>181.8</ele>
        <time>2024-09-18T10:00:37Z</time>
      </trkpt>
      <trkpt lat="46.77364" lon="4.88678">
        <ele>181.8</ele>
        <time>2024-09-18T10:00:38Z</time>
      </trkpt>
      <trkpt lat="46.7736" lon="4.8868">
        <ele>181.8</ele>
        <time>2024-09-18T10:00:39Z</time>
      </trkpt>
      <trkpt lat="46.77357" lon="4.88682">
        <ele>181.8</ele>
        <time>2024-09-18T10:00:40Z</time>
      </trkpt>
      <trkpt lat="46.77354" lon="4.88685">
        <ele>181.8</ele>
        <time>2024-09-18T10:00:41Z</time>
      </trkpt>
      <trkpt lat="46.77351" lon="4.88689">
        <ele>181.8</ele>
        <time>2024-09-18T10:00:42Z</time>
      </trkpt>
      <trkpt lat="46.7735" lon="4.88694">
        <ele>181.8</ele>
        <time>2024-09-18T10:00:43Z</time>
      </trkpt>
      <trkpt lat="46.77348" lon="4.88699">
        <ele>181.8</ele>
        <time>2024-09-18T10:00:44Z</time>
      </trkpt>
      <trkpt lat="46.77347" lon="4.88704">
        <ele>181.8</ele>
        <time>2024-09-18T10:00:45Z</time>
      </trkpt>
      <trkpt lat="46.77347" lon="4.8871">
        <ele>181.8</ele>
        <time>2024-09-18T10:00:46Z</time>
      </trkpt>
      <trkpt lat="46.77347" lon="4.88717">
        <ele>181.8</ele>
        <time>2024-09-18T10:00:47Z</time>
      </trkpt>
      <trkpt lat="46.77347" lon="4.88723">
        <ele>181.8</ele>
        <time>2024-09-18T10:00:48Z</time>
      </trkpt>
      <trkpt lat="46.77347" lon="4.88733">
        <ele>181.8</ele>
        <time>2024-09-18T10:00:49Z</time>
      </trkpt>
      <trkpt lat="46.77347" lon="4.88736">
        <ele>181.8</ele>
        <time>2024-09-18T10:00:50Z</time>
      </trkpt>
      <trkpt lat="46.77347" lon="4.88742">
        <ele>181.8</ele>
        <time>2024-09-18T10:00:51Z</time>
      </trkpt>
      <trkpt lat="46.77347" lon="4.88749">
        <ele>181.8</ele>
        <time>2024-09-18T10:00:52Z</time>
      </trkpt>
      <trkpt lat="46.77347" lon="4.88755">
        <ele>181.8</ele>
        <time>2024-09-18T10:00:53Z</time>
      </trkpt>
      <trkpt lat="46.77347" lon="4.88761">
        <ele>181.6</ele>
        <time>2024-09-18T10:00:54Z</time>
      </trkpt>
      <trkpt lat="46.77347" lon="4.88767">
        <ele>181.6</ele>
        <time>2024-09-18T10:00:55Z</time>
      </trkpt>
      <trkpt lat="46.77347" lon="4.88772">
        <ele>181.8</ele>
        <time>2024-09-18T10:00:56Z</time>
      </trkpt>
      <trkpt lat="46.77347" lon="4.88778">
        <ele>181.8</ele>
        <time>2024-09-18T10:00:57Z</time>
      </trkpt>
      <trkpt lat="46.77347" lon="4.88784">
        <ele>181.6</ele>
        <time>2024-09-18T10:00:58Z</time>
      </trkpt>
      <trkpt lat="46.77347" lon="4.88791">
        <ele>181.6</ele>
        <time>2024-09-18T10:00:59Z</time>
      </trkpt>
      <trkpt lat="46.77346" lon="4.88797">
        <ele>181.8</ele>
        <time>2024-09-18T10:01:00Z</time>
      </trkpt>
      <trkpt lat="46.77346" lon="4.88803">
        <ele>181.8</ele>
        <time>2024-09-18T10:01:01Z</time>
      </trkpt>
      <trkpt lat="46.77346" lon="4.8881">
        <ele>181.8</ele>
        <time>2024-09-18T10:01:02Z</time>
      </trkpt>
      <trkpt lat="46.77346" lon="4.88817">
        <ele>181.8</ele>
        <time>2024-09-18T10:01:03Z</time>
      </trkpt>
      <trkpt lat="46.77346" lon="4.88823">
        <ele>182</ele>
        <time>2024-09-18T10:01:04Z</time>
      </trkpt>
      <trkpt lat="46.77346" lon="4.88829">
        <ele>182</ele>
        <time>2024-09-18T10:01:05Z</time>
      </trkpt>
      <trkpt lat="46.77346" lon="4.88836">
        <ele>182</ele>
        <time>2024-09-18T10:01:06Z</time>
      </trkpt>
      <trkpt lat="46.77346" lon="4.88843">
        <ele>182.2</ele>
        <time>2024-09-18T10:01:07Z</time>
      </trkpt>
      <trkpt lat="46.77346" lon="4.88849">
        <ele>182.2</ele>
        <time>2024-09-18T10:01:08Z</time>
      </trkpt>
      <trkpt lat="46.77346" lon="4.88855">
        <ele>182.2</ele>
        <time>2024-09-18T10:01:09Z</time>
      </trkpt>
      <trkpt lat="46.77347" lon="4.88861">
        <ele>182.2</ele>
        <time>2024-09-18T10:01:10Z</time>
      </trkpt>
      <trkpt lat="46.77347" lon="4.88866">
        <ele>182.2</ele>
        <time>2024-09-18T10:01:11Z</time>
      </trkpt>
      <trkpt lat="46.77347" lon="4.88873">
        <ele>182.6</ele>
        <time>2024-09-18T10:01:12Z</time>
      </trkpt>
      <trkpt lat="46.77347" lon="4.88879">
        <ele>183</ele>
        <time>2024-09-18T10:01:13Z</time>
      </trkpt>
      <trkpt lat="46.77347" lon="4.88888">
        <ele>183</ele>
        <time>2024-09-18T10:01:14Z</time>
      </trkpt>
      <trkpt lat="46.77347" lon="4.88891">
        <ele>183</ele>
        <time>2024-09-18T10:01:15Z</time>
      </trkpt>
      <trkpt lat="46.77346" lon="4.88896">
        <ele>182.8</ele>
        <time>2024-09-18T10:01:16Z</time>
      </trkpt>
      <trkpt lat="46.77347" lon="4.88902">
        <ele>182.8</ele>
        <time>2024-09-18T10:01:17Z</time>
      </trkpt>
      <trkpt lat="46.77347" lon="4.88908">
        <ele>183.2</ele>
        <time>2024-09-18T10:01:18Z</time>
      </trkpt>
      <trkpt lat="46.77347" lon="4.88914">
        <ele>183.2</ele>
        <time>2024-09-18T10:01:19Z</time>
      </trkpt>
      <trkpt lat="46.77346" lon="4.8892">
        <ele>183.2</ele>
        <time>2024-09-18T10:01:20Z</time>
      </trkpt>
      <trkpt lat="46.77347" lon="4.88926">
        <ele>184</ele>
        <time>2024-09-18T10:01:21Z</time>
      </trkpt>
      <trkpt lat="46.77347" lon="4.88932">
        <ele>184</ele>
        <time>2024-09-18T10:01:22Z</time>
      </trkpt>
      <trkpt lat="46.77347" lon="4.88937">
        <ele>184</ele>
        <time>2024-09-18T10:01:23Z</time>
      </trkpt>
      <trkpt lat="46.77347" lon="4.88942">
        <ele>184</ele>
        <time>2024-09-18T10:01:24Z</time>
      </trkpt>
      <trkpt lat="46.77347" lon="4.88948">
        <ele>184</ele>
        <time>2024-09-18T10:01:25Z</time>
      </trkpt>
      <trkpt lat="46.77347" lon="4.88953">
        <ele>184</ele>
        <time>2024-09-18T10:01:26Z</time>
      </trkpt>
      <trkpt lat="46.77347" lon="4.88958">
        <ele>184.2</ele>
        <time>2024-09-18T10:01:27Z</time>
      </trkpt>
      <trkpt lat="46.77348" lon="4.88964">
        <ele>184.2</ele>
        <time>2024-09-18T10:01:28Z</time>
      </trkpt>
      <trkpt lat="46.77348" lon="4.8897">
        <ele>184.2</ele>
        <time>2024-09-18T10:01:29Z</time>
      </trkpt>
      <trkpt lat="46.77348" lon="4.88976">
        <ele>184</ele>
        <time>2024-09-18T10:01:30Z</time>
      </trkpt>
      <trkpt lat="46.77348" lon="4.88982">
        <ele>184</ele>
        <time>2024-09-18T10:01:31Z</time>
      </trkpt>
      <trkpt lat="46.77347" lon="4.88988">
        <ele>184</ele>
        <time>2024-09-18T10:01:32Z</time>
      </trkpt>
      <trkpt lat="46.77347" lon="4.88993">
        <ele>184</ele>
        <time>2024-09-18T10:01:33Z</time>
      </trkpt>
      <trkpt lat="46.77347" lon="4.88999">
        <ele>184</ele>
        <time>2024-09-18T10:01:34Z</time>
      </trkpt>
      <trkpt lat="46.77346" lon="4.89004">
        <ele>184.2</ele>
        <time>2024-09-18T10:01:35Z</time>
      </trkpt>
      <trkpt lat="46.77346" lon="4.8901">
        <ele>184.2</ele>
        <time>2024-09-18T10:01:36Z</time>
      </trkpt>
      <trkpt lat="46.77345" lon="4.89016">
        <ele>184.2</ele>
        <time>2024-09-18T10:01:37Z</time>
      </trkpt>
      <trkpt lat="46.77345" lon="4.89022">
        <ele>184.2</ele>
        <time>2024-09-18T10:01:38Z</time>
      </trkpt>
      <trkpt lat="46.77344" lon="4.89028">
        <ele>184.2</ele>
        <time>2024-09-18T10:01:39Z</time>
      </trkpt>
      <trkpt lat="46.77344" lon="4.89034">
        <ele>184.6</ele>
        <time>2024-09-18T10:01:40Z</time>
      </trkpt>
      <trkpt lat="46.77343" lon="4.8904">
        <ele>184.6</ele>
        <time>2024-09-18T10:01:41Z</time>
      </trkpt>
      <trkpt lat="46.77343" lon="4.89046">
        <ele>184.6</ele>
        <time>2024-09-18T10:01:42Z</time>
      </trkpt>
      <trkpt lat="46.77342" lon="4.89052">
        <ele>184.6</ele>
        <time>2024-09-18T10:01:43Z</time>
      </trkpt>
      <trkpt lat="46.77341" lon="4.89059">
        <ele>184.8</ele>
        <time>2024-09-18T10:01:44Z</time>
      </trkpt>
      <trkpt lat="46.7734" lon="4.89065">
        <ele>184.8</ele>
        <time>2024-09-18T10:01:45Z</time>
      </trkpt>
      <trkpt lat="46.7734" lon="4.89071">
        <ele>184.8</ele>
        <time>2024-09-18T10:01:46Z</time>
      </trkpt>
      <trkpt lat="46.77339" lon="4.89078">
        <ele>184.8</ele>
        <time>2024-09-18T10:01:47Z</time>
      </trkpt>
      <trkpt lat="46.77338" lon="4.89084">
        <ele>184.8</ele>
        <time>2024-09-18T10:01:48Z</time>
      </trkpt>
      <trkpt lat="46.77337" lon="4.89091">
        <ele>184.8</ele>
        <time>2024-09-18T10:01:49Z</time>
      </trkpt>
      <trkpt lat="46.77336" lon="4.89097">
        <ele>184.8</ele>
        <time>2024-09-18T10:01:50Z</time>
      </trkpt>
      <trkpt lat="46.77335" lon="4.89103">
        <ele>184.8</ele>
        <time>2024-09-18T10:01:51Z</time>
      </trkpt>
      <trkpt lat="46.77333" lon="4.8911">
        <ele>184.8</ele>
        <time>2024-09-18T10:01:52Z</time>
      </trkpt>
      <trkpt lat="46.77332" lon="4.89116">
        <ele>184.8</ele>
        <time>2024-09-18T10:01:53Z</time>
      </trkpt>
      <trkpt lat="46.77331" lon="4.89123">
        <ele>185</ele>
        <time>2024-09-18T10:01:54Z</time>
      </trkpt>
      <trkpt lat="46.7733" lon="4.8913">
        <ele>185</ele>
        <time>2024-09-18T10:01:55Z</time>
      </trkpt>
      <trkpt lat="46.77329" lon="4.89136">
        <ele>184.8</ele>
        <time>2024-09-18T10:01:56Z</time>
      </trkpt>
      <trkpt lat="46.77328" lon="4.89143">
        <ele>184.8</ele>
        <time>2024-09-18T10:01:57Z</time>
      </trkpt>
      <trkpt lat="46.77327" lon="4.89149">
        <ele>184.8</ele>
        <time>2024-09-18T10:01:58Z</time>
      </trkpt>
      <trkpt lat="46.77324" lon="4.89159">
        <ele>184.8</ele>
        <time>2024-09-18T10:01:59Z</time>
      </trkpt>
      <trkpt lat="46.77324" lon="4.89162">
        <ele>184.8</ele>
        <time>2024-09-18T10:02:00Z</time>
      </trkpt>
      <trkpt lat="46.77322" lon="4.89169">
        <ele>185</ele>
        <time>2024-09-18T10:02:01Z</time>
      </trkpt>
      <trkpt lat="46.7732" lon="4.89176">
        <ele>185</ele>
        <time>2024-09-18T10:02:02Z</time>
      </trkpt>
      <trkpt lat="46.77319" lon="4.89182">
        <ele>185</ele>
        <time>2024-09-18T10:02:03Z</time>
      </trkpt>
      <trkpt lat="46.77317" lon="4.89189">
        <ele>185</ele>
        <time>2024-09-18T10:02:04Z</time>
      </trkpt>
      <trkpt lat="46.77316" lon="4.89197">
        <ele>184.8</ele>
        <time>2024-09-18T10:02:05Z</time>
      </trkpt>
      <trkpt lat="46.77314" lon="4.89204">
        <ele>184.8</ele>
        <time>2024-09-18T10:02:06Z</time>
      </trkpt>
      <trkpt lat="46.77312" lon="4.89211">
        <ele>184.8</ele>
        <time>2024-09-18T10:02:07Z</time>
      </trkpt>
      <trkpt lat="46.7731" lon="4.89218">
        <ele>184.6</ele>
        <time>2024-09-18T10:02:08Z</time>
      </trkpt>
      <trkpt lat="46.77309" lon="4.89225">
        <ele>184.6</ele>
        <time>2024-09-18T10:02:09Z</time>
      </trkpt>
      <trkpt lat="46.77307" lon="4.89233">
        <ele>184.6</ele>
        <time>2024-09-18T10:02:10Z</time>
      </trkpt>
      <trkpt lat="46.77305" lon="4.8924">
        <ele>184.8</ele>
        <time>2024-09-18T10:02:11Z</time>
      </trkpt>
      <trkpt lat="46.77304" lon="4.89247">
        <ele>184.8</ele>
        <time>2024-09-18T10:02:12Z</time>
      </trkpt>
      <trkpt lat="46.77302" lon="4.89254">
        <ele>184.8</ele>
        <time>2024-09-18T10:02:13Z</time>
      </trkpt>
      <trkpt lat="46.77301" lon="4.8926">
        <ele>184.8</ele>
        <time>2024-09-18T10:02:14Z</time>
      </trkpt>
      <trkpt lat="46.77299" lon="4.89267">
        <ele>184.8</ele>
        <time>2024-09-18T10:02:15Z</time>
      </trkpt>
      <trkpt lat="46.77298" lon="4.89273">
        <ele>184.8</ele>
        <time>2024-09-18T10:02:16Z</time>
      </trkpt>
      <trkpt lat="46.77297" lon="4.89277">
        <ele>184.8</ele>
        <time>2024-09-18T10:02:17Z</time>
      </trkpt>
      <trkpt lat="46.77297" lon="4.8928">
        <ele>184.8</ele>
        <time>2024-09-18T10:02:18Z</time>
      </trkpt>
      <trkpt lat="46.77297" lon="4.89282">
        <ele>184.8</ele>
        <time>2024-09-18T10:02:19Z</time>
      </trkpt>
      <trkpt lat="46.77296" lon="4.89283">
        <ele>185</ele>
        <time>2024-09-18T10:02:20Z</time>
      </trkpt>
      <trkpt lat="46.77293" lon="4.8929">
        <ele>185.2</ele>
        <time>2024-09-18T10:03:19Z</time>
      </trkpt>
      <trkpt lat="46.77291" lon="4.89292">
        <ele>185.2</ele>
        <time>2024-09-18T10:03:20Z</time>
      </trkpt>
      <trkpt lat="46.77289" lon="4.89293">
        <ele>185.2</ele>
        <time>2024-09-18T10:03:21Z</time>
      </trkpt>
      <trkpt lat="46.77287" lon="4.89293">
        <ele>185.4</ele>
        <time>2024-09-18T10:03:22Z</time>
      </trkpt>
      <trkpt lat="46.77284" lon="4.89294">
        <ele>185.4</ele>
        <time>2024-09-18T10:03:23Z</time>
      </trkpt>
      <trkpt lat="46.77281" lon="4.89294">
        <ele>185.4</ele>
        <time>2024-09-18T10:03:24Z</time>
      </trkpt>
      <trkpt lat="46.77278" lon="4.89295">
        <ele>185.4</ele>
        <time>2024-09-18T10:03:25Z</time>
      </trkpt>
      <trkpt lat="46.77275" lon="4.89296">
        <ele>185.4</ele>
        <time>2024-09-18T10:03:26Z</time>
      </trkpt>
      <trkpt lat="46.77272" lon="4.89296">
        <ele>185.4</ele>
        <time>2024-09-18T10:03:27Z</time>
      </trkpt>
      <trkpt lat="46.77269" lon="4.89297">
        <ele>185.4</ele>
        <time>2024-09-18T10:03:28Z</time>
      </trkpt>
      <trkpt lat="46.77265" lon="4.89298">
        <ele>185.4</ele>
        <time>2024-09-18T10:03:29Z</time>
      </trkpt>
      <trkpt lat="46.77261" lon="4.89299">
        <ele>185.4</ele>
        <time>2024-09-18T10:03:30Z</time>
      </trkpt>
      <trkpt lat="46.77255" lon="4.89301">
        <ele>185.4</ele>
        <time>2024-09-18T10:03:31Z</time>
      </trkpt>
      <trkpt lat="46.77252" lon="4.89301">
        <ele>185.4</ele>
        <time>2024-09-18T10:03:32Z</time>
      </trkpt>
      <trkpt lat="46.77248" lon="4.89303">
        <ele>185.4</ele>
        <time>2024-09-18T10:03:33Z</time>
      </trkpt>
      <trkpt lat="46.77243" lon="4.89304">
        <ele>185.4</ele>
        <time>2024-09-18T10:03:34Z</time>
      </trkpt>
      <trkpt lat="46.77237" lon="4.89306">
        <ele>185.4</ele>
        <time>2024-09-18T10:03:35Z</time>
      </trkpt>
      <trkpt lat="46.77232" lon="4.89307">
        <ele>185.8</ele>
        <time>2024-09-18T10:03:36Z</time>
      </trkpt>
      <trkpt lat="46.77227" lon="4.89309">
        <ele>185.8</ele>
        <time>2024-09-18T10:03:37Z</time>
      </trkpt>
      <trkpt lat="46.77223" lon="4.8931">
        <ele>185.8</ele>
        <time>2024-09-18T10:03:38Z</time>
      </trkpt>
      <trkpt lat="46.77218" lon="4.89311">
        <ele>185.8</ele>
        <time>2024-09-18T10:03:39Z</time>
      </trkpt>
      <trkpt lat="46.77213" lon="4.89312">
        <ele>185.8</ele>
        <time>2024-09-18T10:03:40Z</time>
      </trkpt>
      <trkpt lat="46.77207" lon="4.89313">
        <ele>185.8</ele>
        <time>2024-09-18T10:03:41Z</time>
      </trkpt>
      <trkpt lat="46.77202" lon="4.89314">
        <ele>185.8</ele>
        <time>2024-09-18T10:03:42Z</time>
      </trkpt>
      <trkpt lat="46.77197" lon="4.89315">
        <ele>185.8</ele>
        <time>2024-09-18T10:03:43Z</time>
      </trkpt>
      <trkpt lat="46.77192" lon="4.89316">
        <ele>185.8</ele>
        <time>2024-09-18T10:03:44Z</time>
      </trkpt>
      <trkpt lat="46.77187" lon="4.89317">
        <ele>185.8</ele>
        <time>2024-09-18T10:03:45Z</time>
      </trkpt>
      <trkpt lat="46.77182" lon="4.89318">
        <ele>185.8</ele>
        <time>2024-09-18T10:03:46Z</time>
      </trkpt>
      <trkpt lat="46.77177" lon="4.89319">
        <ele>185.8</ele>
        <time>2024-09-18T10:03:47Z</time>
      </trkpt>
      <trkpt lat="46.77171" lon="4.8932">
        <ele>185.8</ele>
        <time>2024-09-18T10:03:48Z</time>
      </trkpt>
      <trkpt lat="46.77166" lon="4.89321">
        <ele>185.8</ele>
        <time>2024-09-18T10:03:49Z</time>
      </trkpt>
      <trkpt lat="46.77161" lon="4.89322">
        <ele>185.8</ele>
        <time>2024-09-18T10:03:50Z</time>
      </trkpt>
      <trkpt lat="46.77156" lon="4.89323">
        <ele>185.8</ele>
        <time>2024-09-18T10:03:51Z</time>
      </trkpt>
      <trkpt lat="46.7715" lon="4.89324">
        <ele>185.8</ele>
        <time>2024-09-18T10:03:52Z</time>
      </trkpt>
      <trkpt lat="46.77145" lon="4.89326">
        <ele>185.8</ele>
        <time>2024-09-18T10:03:53Z</time>
      </trkpt>
      <trkpt lat="46.77139" lon="4.89328">
        <ele>185.8</ele>
        <time>2024-09-18T10:03:54Z</time>
      </trkpt>
      <trkpt lat="46.77134" lon="4.89329">
        <ele>186.2</ele>
        <time>2024-09-18T10:03:55Z</time>
      </trkpt>
      <trkpt lat="46.77129" lon="4.8933">
        <ele>186.2</ele>
        <time>2024-09-18T10:03:56Z</time>
      </trkpt>
      <trkpt lat="46.77124" lon="4.89331">
        <ele>186.2</ele>
        <time>2024-09-18T10:03:57Z</time>
      </trkpt>
      <trkpt lat="46.77118" lon="4.89332">
        <ele>186.2</ele>
        <time>2024-09-18T10:03:58Z</time>
      </trkpt>
      <trkpt lat="46.77113" lon="4.89334">
        <ele>186</ele>
        <time>2024-09-18T10:03:59Z</time>
      </trkpt>
      <trkpt lat="46.77107" lon="4.89335">
        <ele>186</ele>
        <time>2024-09-18T10:04:00Z</time>
      </trkpt>
      <trkpt lat="46.77102" lon="4.89337">
        <ele>186</ele>
        <time>2024-09-18T10:04:01Z</time>
      </trkpt>
      <trkpt lat="46.77097" lon="4.89338">
        <ele>186</ele>
        <time>2024-09-18T10:04:02Z</time>
      </trkpt>
      <trkpt lat="46.77091" lon="4.89339">
        <ele>186</ele>
        <time>2024-09-18T10:04:03Z</time>
      </trkpt>
      <trkpt lat="46.77086" lon="4.89341">
        <ele>186</ele>
        <time>2024-09-18T10:04:04Z</time>
      </trkpt>
      <trkpt lat="46.7708" lon="4.89342">
        <ele>186</ele>
        <time>2024-09-18T10:04:05Z</time>
      </trkpt>
      <trkpt lat="46.77074" lon="4.89344">
        <ele>186</ele>
        <time>2024-09-18T10:04:06Z</time>
      </trkpt>
      <trkpt lat="46.77069" lon="4.89345">
        <ele>186</ele>
        <time>2024-09-18T10:04:07Z</time>
      </trkpt>
      <trkpt lat="46.77061" lon="4.89348">
        <ele>186</ele>
        <time>2024-09-18T10:04:08Z</time>
      </trkpt>
      <trkpt lat="46.77058" lon="4.89348">
        <ele>186</ele>
        <time>2024-09-18T10:04:09Z</time>
      </trkpt>
      <trkpt lat="46.77053" lon="4.8935">
        <ele>186</ele>
        <time>2024-09-18T10:04:10Z</time>
      </trkpt>
      <trkpt lat="46.77047" lon="4.89351">
        <ele>186</ele>
        <time>2024-09-18T10:04:11Z</time>
      </trkpt>
      <trkpt lat="46.77043" lon="4.89352">
        <ele>186</ele>
        <time>2024-09-18T10:04:12Z</time>
      </trkpt>
      <trkpt lat="46.77038" lon="4.89353">
        <ele>186</ele>
        <time>2024-09-18T10:04:13Z</time>
      </trkpt>
      <trkpt lat="46.77034" lon="4.89354">
        <ele>186</ele>
        <time>2024-09-18T10:04:14Z</time>
      </trkpt>
      <trkpt lat="46.77032" lon="4.89354">
        <ele>186</ele>
        <time>2024-09-18T10:04:15Z</time>
      </trkpt>
      <trkpt lat="46.77029" lon="4.89354">
        <ele>186.2</ele>
        <time>2024-09-18T10:04:16Z</time>
      </trkpt>
      <trkpt lat="46.77027" lon="4.89354">
        <ele>186.2</ele>
        <time>2024-09-18T10:04:17Z</time>
      </trkpt>
      <trkpt lat="46.77026" lon="4.89354">
        <ele>186.2</ele>
        <time>2024-09-18T10:04:18Z</time>
      </trkpt>
      <trkpt lat="46.77024" lon="4.89354">
        <ele>186.2</ele>
        <time>2024-09-18T10:04:19Z</time>
      </trkpt>
      <trkpt lat="46.77023" lon="4.89356">
        <ele>186</ele>
        <time>2024-09-18T10:04:20Z</time>
      </trkpt>
      <trkpt lat="46.77022" lon="4.8936">
        <ele>186</ele>
        <time>2024-09-18T10:04:21Z</time>
      </trkpt>
      <trkpt lat="46.77023" lon="4.89363">
        <ele>186</ele>
        <time>2024-09-18T10:04:22Z</time>
      </trkpt>
      <trkpt lat="46.77024" lon="4.89367">
        <ele>186</ele>
        <time>2024-09-18T10:04:23Z</time>
      </trkpt>
      <trkpt lat="46.77024" lon="4.89371">
        <ele>186</ele>
        <time>2024-09-18T10:04:24Z</time>
      </trkpt>
      <trkpt lat="46.77024" lon="4.89376">
        <ele>186</ele>
        <time>2024-09-18T10:04:25Z</time>
      </trkpt>
      <trkpt lat="46.77023" lon="4.8938">
        <ele>186</ele>
        <time>2024-09-18T10:04:26Z</time>
      </trkpt>
      <trkpt lat="46.77022" lon="4.89385">
        <ele>186.2</ele>
        <time>2024-09-18T10:04:27Z</time>
      </trkpt>
      <trkpt lat="46.77021" lon="4.8939">
        <ele>186.2</ele>
        <time>2024-09-18T10:04:28Z</time>
      </trkpt>
      <trkpt lat="46.77019" lon="4.89394">
        <ele>186.2</ele>
        <time>2024-09-18T10:04:29Z</time>
      </trkpt>
      <trkpt lat="46.77017" lon="4.89399">
        <ele>186.2</ele>
        <time>2024-09-18T10:04:30Z</time>
      </trkpt>
      <trkpt lat="46.77015" lon="4.89404">
        <ele>186.2</ele>
        <time>2024-09-18T10:04:31Z</time>
      </trkpt>
      <trkpt lat="46.77013" lon="4.89409">
        <ele>186.4</ele>
        <time>2024-09-18T10:04:32Z</time>
      </trkpt>
      <trkpt lat="46.77011" lon="4.89414">
        <ele>186.4</ele>
        <time>2024-09-18T10:04:33Z</time>
      </trkpt>
      <trkpt lat="46.77009" lon="4.89419">
        <ele>186.8</ele>
        <time>2024-09-18T10:04:34Z</time>
      </trkpt>
      <trkpt lat="46.77006" lon="4.89423">
        <ele>186.8</ele>
        <time>2024-09-18T10:04:35Z</time>
      </trkpt>
      <trkpt lat="46.77005" lon="4.89428">
        <ele>186.4</ele>
        <time>2024-09-18T10:04:36Z</time>
      </trkpt>
      <trkpt lat="46.77003" lon="4.89433">
        <ele>186.4</ele>
        <time>2024-09-18T10:04:37Z</time>
      </trkpt>
      <trkpt lat="46.77001" lon="4.89439">
        <ele>186.4</ele>
        <time>2024-09-18T10:04:38Z</time>
      </trkpt>
      <trkpt lat="46.76999" lon="4.89444">
        <ele>186.6</ele>
        <time>2024-09-18T10:04:39Z</time>
      </trkpt>
      <trkpt lat="46.76997" lon="4.89449">
        <ele>186.6</ele>
        <time>2024-09-18T10:04:40Z</time>
      </trkpt>
      <trkpt lat="46.76995" lon="4.89454">
        <ele>186.6</ele>
        <time>2024-09-18T10:04:41Z</time>
      </trkpt>
      <trkpt lat="46.76993" lon="4.89459">
        <ele>186.6</ele>
        <time>2024-09-18T10:04:42Z</time>
      </trkpt>
      <trkpt lat="46.7699" lon="4.89464">
        <ele>186.6</ele>
        <time>2024-09-18T10:04:43Z</time>
      </trkpt>
      <trkpt lat="46.76988" lon="4.89469">
        <ele>186.8</ele>
        <time>2024-09-18T10:04:44Z</time>
      </trkpt>
      <trkpt lat="46.76986" lon="4.89474">
        <ele>186.8</ele>
        <time>2024-09-18T10:04:45Z</time>
      </trkpt>
      <trkpt lat="46.76984" lon="4.89479">
        <ele>186.8</ele>
        <time>2024-09-18T10:04:46Z</time>
      </trkpt>
      <trkpt lat="46.76981" lon="4.89485">
        <ele>186.8</ele>
        <time>2024-09-18T10:04:47Z</time>
      </trkpt>
      <trkpt lat="46.76979" lon="4.8949">
        <ele>186.8</ele>
        <time>2024-09-18T10:04:48Z</time>
      </trkpt>
      <trkpt lat="46.76977" lon="4.89496">
        <ele>186.6</ele>
        <time>2024-09-18T10:04:49Z</time>
      </trkpt>
      <trkpt lat="46.76976" lon="4.89502">
        <ele>186.6</ele>
        <time>2024-09-18T10:04:50Z</time>
      </trkpt>
      <trkpt lat="46.76974" lon="4.89508">
        <ele>186.6</ele>
        <time>2024-09-18T10:04:51Z</time>
      </trkpt>
      <trkpt lat="46.76972" lon="4.89514">
        <ele>186.6</ele>
        <time>2024-09-18T10:04:52Z</time>
      </trkpt>
      <trkpt lat="46.76969" lon="4.8952">
        <ele>186.4</ele>
        <time>2024-09-18T10:04:53Z</time>
      </trkpt>
      <trkpt lat="46.76966" lon="4.89525">
        <ele>186.4</ele>
        <time>2024-09-18T10:04:54Z</time>
      </trkpt>
      <trkpt lat="46.76963" lon="4.8953">
        <ele>186.4</ele>
        <time>2024-09-18T10:04:55Z</time>
      </trkpt>
      <trkpt lat="46.7696" lon="4.89535">
        <ele>186.4</ele>
        <time>2024-09-18T10:04:56Z</time>
      </trkpt>
      <trkpt lat="46.76957" lon="4.8954">
        <ele>186.4</ele>
        <time>2024-09-18T10:04:57Z</time>
      </trkpt>
      <trkpt lat="46.76954" lon="4.89546">
        <ele>186.4</ele>
        <time>2024-09-18T10:04:58Z</time>
      </trkpt>
      <trkpt lat="46.76951" lon="4.89551">
        <ele>186.4</ele>
        <time>2024-09-18T10:04:59Z</time>
      </trkpt>
      <trkpt lat="46.76948" lon="4.89556">
        <ele>186.4</ele>
        <time>2024-09-18T10:05:00Z</time>
      </trkpt>
      <trkpt lat="46.76945" lon="4.89561">
        <ele>186.4</ele>
        <time>2024-09-18T10:05:01Z</time>
      </trkpt>
      <trkpt lat="46.76943" lon="4.89566">
        <ele>186.4</ele>
        <time>2024-09-18T10:05:02Z</time>
      </trkpt>
      <trkpt lat="46.7694" lon="4.89571">
        <ele>186.4</ele>
        <time>2024-09-18T10:05:03Z</time>
      </trkpt>
      <trkpt lat="46.76937" lon="4.89576">
        <ele>186.4</ele>
        <time>2024-09-18T10:05:04Z</time>
      </trkpt>
      <trkpt lat="46.76935" lon="4.89581">
        <ele>186.4</ele>
        <time>2024-09-18T10:05:05Z</time>
      </trkpt>
      <trkpt lat="46.76932" lon="4.89585">
        <ele>186.4</ele>
        <time>2024-09-18T10:05:06Z</time>
      </trkpt>
      <trkpt lat="46.76929" lon="4.89586">
        <ele>186.4</ele>
        <time>2024-09-18T10:05:07Z</time>
      </trkpt>
      <trkpt lat="46.76925" lon="4.89585">
        <ele>186.4</ele>
        <time>2024-09-18T10:05:08Z</time>
      </trkpt>
      <trkpt lat="46.76922" lon="4.89583">
        <ele>186.4</ele>
        <time>2024-09-18T10:05:09Z</time>
      </trkpt>
      <trkpt lat="46.76919" lon="4.89581">
        <ele>186</ele>
        <time>2024-09-18T10:05:10Z</time>
      </trkpt>
      <trkpt lat="46.76916" lon="4.89579">
        <ele>186.2</ele>
        <time>2024-09-18T10:05:11Z</time>
      </trkpt>
      <trkpt lat="46.76913" lon="4.89578">
        <ele>186.2</ele>
        <time>2024-09-18T10:05:12Z</time>
      </trkpt>
      <trkpt lat="46.76909" lon="4.89579">
        <ele>186.2</ele>
        <time>2024-09-18T10:05:13Z</time>
      </trkpt>
      <trkpt lat="46.76905" lon="4.89581">
        <ele>186.2</ele>
        <time>2024-09-18T10:05:14Z</time>
      </trkpt>
      <trkpt lat="46.76902" lon="4.89585">
        <ele>185.8</ele>
        <time>2024-09-18T10:05:15Z</time>
      </trkpt>
      <trkpt lat="46.76898" lon="4.89589">
        <ele>185.6</ele>
        <time>2024-09-18T10:05:16Z</time>
      </trkpt>
      <trkpt lat="46.76896" lon="4.89593">
        <ele>185.6</ele>
        <time>2024-09-18T10:05:17Z</time>
      </trkpt>
      <trkpt lat="46.76893" lon="4.89599">
        <ele>185.6</ele>
        <time>2024-09-18T10:05:18Z</time>
      </trkpt>
      <trkpt lat="46.7689" lon="4.89604">
        <ele>185.6</ele>
        <time>2024-09-18T10:05:19Z</time>
      </trkpt>
      <trkpt lat="46.76887" lon="4.89609">
        <ele>185.6</ele>
        <time>2024-09-18T10:05:20Z</time>
      </trkpt>
      <trkpt lat="46.76885" lon="4.89615">
        <ele>185.6</ele>
        <time>2024-09-18T10:05:21Z</time>
      </trkpt>
      <trkpt lat="46.76882" lon="4.8962">
        <ele>185.6</ele>
        <time>2024-09-18T10:05:22Z</time>
      </trkpt>
      <trkpt lat="46.7688" lon="4.89626">
        <ele>185.6</ele>
        <time>2024-09-18T10:05:23Z</time>
      </trkpt>
      <trkpt lat="46.76877" lon="4.89632">
        <ele>185.4</ele>
        <time>2024-09-18T10:05:24Z</time>
      </trkpt>
      <trkpt lat="46.76874" lon="4.89638">
        <ele>185.4</ele>
        <time>2024-09-18T10:05:25Z</time>
      </trkpt>
      <trkpt lat="46.76871" lon="4.89643">
        <ele>185.4</ele>
        <time>2024-09-18T10:05:26Z</time>
      </trkpt>
      <trkpt lat="46.76867" lon="4.89648">
        <ele>185.4</ele>
        <time>2024-09-18T10:05:27Z</time>
      </trkpt>
      <trkpt lat="46.76864" lon="4.89653">
        <ele>185</ele>
        <time>2024-09-18T10:05:28Z</time>
      </trkpt>
      <trkpt lat="46.76862" lon="4.89657">
        <ele>185</ele>
        <time>2024-09-18T10:05:29Z</time>
      </trkpt>
      <trkpt lat="46.76859" lon="4.8966">
        <ele>185</ele>
        <time>2024-09-18T10:05:30Z</time>
      </trkpt>
      <trkpt lat="46.76857" lon="4.89661">
        <ele>185</ele>
        <time>2024-09-18T10:05:31Z</time>
      </trkpt>
      <trkpt lat="46.76854" lon="4.89663">
        <ele>184.6</ele>
        <time>2024-09-18T10:05:32Z</time>
      </trkpt>
      <trkpt lat="46.76852" lon="4.89666">
        <ele>184.6</ele>
        <time>2024-09-18T10:05:33Z</time>
      </trkpt>
      <trkpt lat="46.7685" lon="4.8967">
        <ele>184.4</ele>
        <time>2024-09-18T10:05:34Z</time>
      </trkpt>
      <trkpt lat="46.76848" lon="4.89673">
        <ele>184.4</ele>
        <time>2024-09-18T10:05:35Z</time>
      </trkpt>
      <trkpt lat="46.76846" lon="4.89676">
        <ele>184.4</ele>
        <time>2024-09-18T10:05:36Z</time>
      </trkpt>
      <trkpt lat="46.76844" lon="4.89679">
        <ele>184.4</ele>
        <time>2024-09-18T10:05:37Z</time>
      </trkpt>
      <trkpt lat="46.76842" lon="4.89683">
        <ele>184.4</ele>
        <time>2024-09-18T10:05:38Z</time>
      </trkpt>
      <trkpt lat="46.76838" lon="4.89689">
        <ele>184.4</ele>
        <time>2024-09-18T10:05:39Z</time>
      </trkpt>
      <trkpt lat="46.76837" lon="4.89691">
        <ele>184.4</ele>
        <time>2024-09-18T10:05:40Z</time>
      </trkpt>
      <trkpt lat="46.76834" lon="4.89695">
        <ele>184.2</ele>
        <time>2024-09-18T10:05:41Z</time>
      </trkpt>
      <trkpt lat="46.76832" lon="4.897">
        <ele>184.2</ele>
        <time>2024-09-18T10:05:42Z</time>
      </trkpt>
      <trkpt lat="46.76829" lon="4.89704">
        <ele>184.2</ele>
        <time>2024-09-18T10:05:43Z</time>
      </trkpt>
      <trkpt lat="46.76827" lon="4.89709">
        <ele>184.2</ele>
        <time>2024-09-18T10:05:44Z</time>
      </trkpt>
      <trkpt lat="46.76824" lon="4.89713">
        <ele>184</ele>
        <time>2024-09-18T10:05:45Z</time>
      </trkpt>
      <trkpt lat="46.76821" lon="4.89717">
        <ele>183.8</ele>
        <time>2024-09-18T10:05:46Z</time>
      </trkpt>
      <trkpt lat="46.76819" lon="4.89722">
        <ele>183.8</ele>
        <time>2024-09-18T10:05:47Z</time>
      </trkpt>
      <trkpt lat="46.76816" lon="4.89728">
        <ele>183.8</ele>
        <time>2024-09-18T10:05:48Z</time>
      </trkpt>
      <trkpt lat="46.76813" lon="4.89733">
        <ele>183.8</ele>
        <time>2024-09-18T10:05:49Z</time>
      </trkpt>
      <trkpt lat="46.7681" lon="4.89738">
        <ele>183.8</ele>
        <time>2024-09-18T10:05:50Z</time>
      </trkpt>
      <trkpt lat="46.76807" lon="4.89744">
        <ele>183.8</ele>
        <time>2024-09-18T10:05:51Z</time>
      </trkpt>
      <trkpt lat="46.76803" lon="4.89749">
        <ele>183.8</ele>
        <time>2024-09-18T10:05:52Z</time>
      </trkpt>
      <trkpt lat="46.768" lon="4.89755">
        <ele>183.8</ele>
        <time>2024-09-18T10:05:53Z</time>
      </trkpt>
      <trkpt lat="46.76796" lon="4.89761">
        <ele>183.8</ele>
        <time>2024-09-18T10:05:54Z</time>
      </trkpt>
      <trkpt lat="46.76793" lon="4.89767">
        <ele>183.8</ele>
        <time>2024-09-18T10:05:55Z</time>
      </trkpt>
      <trkpt lat="46.76789" lon="4.89773">
        <ele>183.8</ele>
        <time>2024-09-18T10:05:56Z</time>
      </trkpt>
      <trkpt lat="46.76786" lon="4.89778">
        <ele>183.8</ele>
        <time>2024-09-18T10:05:57Z</time>
      </trkpt>
      <trkpt lat="46.76783" lon="4.89784">
        <ele>183.8</ele>
        <time>2024-09-18T10:05:58Z</time>
      </trkpt>
      <trkpt lat="46.7678" lon="4.8979">
        <ele>183.8</ele>
        <time>2024-09-18T10:05:59Z</time>
      </trkpt>
      <trkpt lat="46.76775" lon="4.89799">
        <ele>183.8</ele>
        <time>2024-09-18T10:06:00Z</time>
      </trkpt>
      <trkpt lat="46.76773" lon="4.89801">
        <ele>183.8</ele>
        <time>2024-09-18T10:06:01Z</time>
      </trkpt>
      <trkpt lat="46.7677" lon="4.89807">
        <ele>183.8</ele>
        <time>2024-09-18T10:06:02Z</time>
      </trkpt>
      <trkpt lat="46.76766" lon="4.89812">
        <ele>183.8</ele>
        <time>2024-09-18T10:06:03Z</time>
      </trkpt>
      <trkpt lat="46.76763" lon="4.89818">
        <ele>183.6</ele>
        <time>2024-09-18T10:06:04Z</time>
      </trkpt>
      <trkpt lat="46.7676" lon="4.89823">
        <ele>183.6</ele>
        <time>2024-09-18T10:06:05Z</time>
      </trkpt>
      <trkpt lat="46.76757" lon="4.89829">
        <ele>183.6</ele>
        <time>2024-09-18T10:06:06Z</time>
      </trkpt>
      <trkpt lat="46.76753" lon="4.89835">
        <ele>183.6</ele>
        <time>2024-09-18T10:06:07Z</time>
      </trkpt>
      <trkpt lat="46.7675" lon="4.8984">
        <ele>183.6</ele>
        <time>2024-09-18T10:06:08Z</time>
      </trkpt>
      <trkpt lat="46.76747" lon="4.89846">
        <ele>183.4</ele>
        <time>2024-09-18T10:06:09Z</time>
      </trkpt>
      <trkpt lat="46.76744" lon="4.89851">
        <ele>183.4</ele>
        <time>2024-09-18T10:06:10Z</time>
      </trkpt>
      <trkpt lat="46.76741" lon="4.89857">
        <ele>183.4</ele>
        <time>2024-09-18T10:06:11Z</time>
      </trkpt>
      <trkpt lat="46.76738" lon="4.89862">
        <ele>183.4</ele>
        <time>2024-09-18T10:06:12Z</time>
      </trkpt>
      <trkpt lat="46.76735" lon="4.89868">
        <ele>183.4</ele>
        <time>2024-09-18T10:06:13Z</time>
      </trkpt>
      <trkpt lat="46.76731" lon="4.89873">
        <ele>183.2</ele>
        <time>2024-09-18T10:06:14Z</time>
      </trkpt>
      <trkpt lat="46.76728" lon="4.89879">
        <ele>183.2</ele>
        <time>2024-09-18T10:06:15Z</time>
      </trkpt>
      <trkpt lat="46.76725" lon="4.89883">
        <ele>183.2</ele>
        <time>2024-09-18T10:06:16Z</time>
      </trkpt>
      <trkpt lat="46.76722" lon="4.89886">
        <ele>183.2</ele>
        <time>2024-09-18T10:06:17Z</time>
      </trkpt>
      <trkpt lat="46.7672" lon="4.89888">
        <ele>183.2</ele>
        <time>2024-09-18T10:06:18Z</time>
      </trkpt>
      <trkpt lat="46.76718" lon="4.89891">
        <ele>183.2</ele>
        <time>2024-09-18T10:06:19Z</time>
      </trkpt>
      <trkpt lat="46.76716" lon="4.89894">
        <ele>183.2</ele>
        <time>2024-09-18T10:06:20Z</time>
      </trkpt>
      <trkpt lat="46.76715" lon="4.89897">
        <ele>183</ele>
        <time>2024-09-18T10:06:21Z</time>
      </trkpt>
      <trkpt lat="46.76713" lon="4.899">
        <ele>183</ele>
        <time>2024-09-18T10:06:22Z</time>
      </trkpt>
      <trkpt lat="46.76711" lon="4.89902">
        <ele>183</ele>
        <time>2024-09-18T10:06:23Z</time>
      </trkpt>
      <trkpt lat="46.76708" lon="4.89904">
        <ele>183</ele>
        <time>2024-09-18T10:06:24Z</time>
      </trkpt>
      <trkpt lat="46.76706" lon="4.89907">
        <ele>183</ele>
        <time>2024-09-18T10:06:25Z</time>
      </trkpt>
      <trkpt lat="46.76704" lon="4.8991">
        <ele>183</ele>
        <time>2024-09-18T10:06:26Z</time>
      </trkpt>
      <trkpt lat="46.76702" lon="4.89913">
        <ele>183.2</ele>
        <time>2024-09-18T10:06:27Z</time>
      </trkpt>
      <trkpt lat="46.76699" lon="4.89916">
        <ele>183.2</ele>
        <time>2024-09-18T10:06:28Z</time>
      </trkpt>
      <trkpt lat="46.76696" lon="4.89919">
        <ele>183.2</ele>
        <time>2024-09-18T10:06:29Z</time>
      </trkpt>
      <trkpt lat="46.76694" lon="4.89922">
        <ele>183.2</ele>
        <time>2024-09-18T10:06:30Z</time>
      </trkpt>
      <trkpt lat="46.76691" lon="4.89925">
        <ele>183.2</ele>
        <time>2024-09-18T10:06:31Z</time>
      </trkpt>
      <trkpt lat="46.76688" lon="4.89928">
        <ele>183.2</ele>
        <time>2024-09-18T10:06:32Z</time>
      </trkpt>
      <trkpt lat="46.76685" lon="4.89931">
        <ele>183.2</ele>
        <time>2024-09-18T10:06:33Z</time>
      </trkpt>
      <trkpt lat="46.76681" lon="4.89935">
        <ele>183.2</ele>
        <time>2024-09-18T10:06:34Z</time>
      </trkpt>
      <trkpt lat="46.76678" lon="4.89939">
        <ele>183.2</ele>
        <time>2024-09-18T10:06:35Z</time>
      </trkpt>
      <trkpt lat="46.76674" lon="4.89943">
        <ele>183.2</ele>
        <time>2024-09-18T10:06:36Z</time>
      </trkpt>
      <trkpt lat="46.76671" lon="4.89946">
        <ele>183</ele>
        <time>2024-09-18T10:06:37Z</time>
      </trkpt>
      <trkpt lat="46.76667" lon="4.8995">
        <ele>183</ele>
        <time>2024-09-18T10:06:38Z</time>
      </trkpt>
      <trkpt lat="46.76663" lon="4.89954">
        <ele>183</ele>
        <time>2024-09-18T10:06:39Z</time>
      </trkpt>
      <trkpt lat="46.7666" lon="4.89958">
        <ele>183</ele>
        <time>2024-09-18T10:06:40Z</time>
      </trkpt>
      <trkpt lat="46.76656" lon="4.89962">
        <ele>183</ele>
        <time>2024-09-18T10:06:41Z</time>
      </trkpt>
      <trkpt lat="46.76652" lon="4.89966">
        <ele>183</ele>
        <time>2024-09-18T10:06:42Z</time>
      </trkpt>
      <trkpt lat="46.76648" lon="4.8997">
        <ele>183</ele>
        <time>2024-09-18T10:06:43Z</time>
      </trkpt>
      <trkpt lat="46.76644" lon="4.89974">
        <ele>183.2</ele>
        <time>2024-09-18T10:06:44Z</time>
      </trkpt>
      <trkpt lat="46.76641" lon="4.89977">
        <ele>183.2</ele>
        <time>2024-09-18T10:06:45Z</time>
      </trkpt>
      <trkpt lat="46.76637" lon="4.89981">
        <ele>183.2</ele>
        <time>2024-09-18T10:06:46Z</time>
      </trkpt>
      <trkpt lat="46.76633" lon="4.89984">
        <ele>183.2</ele>
        <time>2024-09-18T10:06:47Z</time>
      </trkpt>
      <trkpt lat="46.7663" lon="4.89988">
        <ele>183.2</ele>
        <time>2024-09-18T10:06:48Z</time>
      </trkpt>
      <trkpt lat="46.76626" lon="4.89992">
        <ele>183.2</ele>
        <time>2024-09-18T10:06:49Z</time>
      </trkpt>
      <trkpt lat="46.76622" lon="4.89996">
        <ele>183.2</ele>
        <time>2024-09-18T10:06:50Z</time>
      </trkpt>
      <trkpt lat="46.76618" lon="4.9">
        <ele>183.2</ele>
        <time>2024-09-18T10:06:51Z</time>
      </trkpt>
      <trkpt lat="46.76614" lon="4.90004">
        <ele>183.2</ele>
        <time>2024-09-18T10:06:52Z</time>
      </trkpt>
      <trkpt lat="46.7661" lon="4.90008">
        <ele>183.4</ele>
        <time>2024-09-18T10:06:53Z</time>
      </trkpt>
      <trkpt lat="46.76606" lon="4.90012">
        <ele>183.2</ele>
        <time>2024-09-18T10:06:54Z</time>
      </trkpt>
      <trkpt lat="46.76601" lon="4.90016">
        <ele>183.2</ele>
        <time>2024-09-18T10:06:55Z</time>
      </trkpt>
      <trkpt lat="46.76597" lon="4.90019">
        <ele>183.2</ele>
        <time>2024-09-18T10:06:56Z</time>
      </trkpt>
      <trkpt lat="46.76593" lon="4.90023">
        <ele>183.4</ele>
        <time>2024-09-18T10:06:57Z</time>
      </trkpt>
      <trkpt lat="46.76589" lon="4.90026">
        <ele>183.2</ele>
        <time>2024-09-18T10:06:58Z</time>
      </trkpt>
      <trkpt lat="46.76584" lon="4.90029">
        <ele>183.2</ele>
        <time>2024-09-18T10:06:59Z</time>
      </trkpt>
      <trkpt lat="46.7658" lon="4.90033">
        <ele>183.2</ele>
        <time>2024-09-18T10:07:00Z</time>
      </trkpt>
      <trkpt lat="46.76576" lon="4.90036">
        <ele>183.2</ele>
        <time>2024-09-18T10:07:01Z</time>
      </trkpt>
      <trkpt lat="46.76571" lon="4.90038">
        <ele>183.2</ele>
        <time>2024-09-18T10:07:02Z</time>
      </trkpt>
      <trkpt lat="46.76566" lon="4.90041">
        <ele>183.4</ele>
        <time>2024-09-18T10:07:03Z</time>
      </trkpt>
      <trkpt lat="46.76562" lon="4.90044">
        <ele>183.4</ele>
        <time>2024-09-18T10:07:04Z</time>
      </trkpt>
      <trkpt lat="46.76555" lon="4.90048">
        <ele>183.4</ele>
        <time>2024-09-18T10:07:05Z</time>
      </trkpt>
      <trkpt lat="46.76553" lon="4.9005">
        <ele>183.4</ele>
        <time>2024-09-18T10:07:06Z</time>
      </trkpt>
      <trkpt lat="46.76549" lon="4.90053">
        <ele>183.6</ele>
        <time>2024-09-18T10:07:07Z</time>
      </trkpt>
      <trkpt lat="46.76544" lon="4.90056">
        <ele>183.6</ele>
        <time>2024-09-18T10:07:08Z</time>
      </trkpt>
      <trkpt lat="46.7654" lon="4.90058">
        <ele>183.6</ele>
        <time>2024-09-18T10:07:09Z</time>
      </trkpt>
      <trkpt lat="46.76535" lon="4.90061">
        <ele>183.6</ele>
        <time>2024-09-18T10:07:10Z</time>
      </trkpt>
      <trkpt lat="46.76531" lon="4.90063">
        <ele>183.6</ele>
        <time>2024-09-18T10:07:11Z</time>
      </trkpt>
      <trkpt lat="46.76526" lon="4.90065">
        <ele>183.6</ele>
        <time>2024-09-18T10:07:12Z</time>
      </trkpt>
      <trkpt lat="46.76522" lon="4.90068">
        <ele>183.6</ele>
        <time>2024-09-18T10:07:13Z</time>
      </trkpt>
      <trkpt lat="46.76517" lon="4.90071">
        <ele>183.6</ele>
        <time>2024-09-18T10:07:14Z</time>
      </trkpt>
      <trkpt lat="46.76513" lon="4.90073">
        <ele>183.6</ele>
        <time>2024-09-18T10:07:15Z</time>
      </trkpt>
      <trkpt lat="46.76508" lon="4.90075">
        <ele>183.6</ele>
        <time>2024-09-18T10:07:16Z</time>
      </trkpt>
      <trkpt lat="46.76504" lon="4.90077">
        <ele>183.6</ele>
        <time>2024-09-18T10:07:17Z</time>
      </trkpt>
      <trkpt lat="46.76499" lon="4.9008">
        <ele>183.6</ele>
        <time>2024-09-18T10:07:18Z</time>
      </trkpt>
      <trkpt lat="46.76495" lon="4.90082">
        <ele>183.6</ele>
        <time>2024-09-18T10:07:19Z</time>
      </trkpt>
      <trkpt lat="46.7649" lon="4.90084">
        <ele>183.6</ele>
        <time>2024-09-18T10:07:20Z</time>
      </trkpt>
      <trkpt lat="46.76486" lon="4.90086">
        <ele>183.8</ele>
        <time>2024-09-18T10:07:21Z</time>
      </trkpt>
      <trkpt lat="46.76482" lon="4.90088">
        <ele>183.8</ele>
        <time>2024-09-18T10:07:22Z</time>
      </trkpt>
      <trkpt lat="46.76477" lon="4.90091">
        <ele>183.8</ele>
        <time>2024-09-18T10:07:23Z</time>
      </trkpt>
      <trkpt lat="46.76472" lon="4.90093">
        <ele>183.8</ele>
        <time>2024-09-18T10:07:24Z</time>
      </trkpt>
      <trkpt lat="46.76468" lon="4.90096">
        <ele>183.8</ele>
        <time>2024-09-18T10:07:25Z</time>
      </trkpt>
      <trkpt lat="46.76463" lon="4.90098">
        <ele>183.8</ele>
        <time>2024-09-18T10:07:26Z</time>
      </trkpt>
      <trkpt lat="46.76458" lon="4.901">
        <ele>183.8</ele>
        <time>2024-09-18T10:07:27Z</time>
      </trkpt>
      <trkpt lat="46.76453" lon="4.90102">
        <ele>183.8</ele>
        <time>2024-09-18T10:07:28Z</time>
      </trkpt>
      <trkpt lat="46.76448" lon="4.90104">
        <ele>183.8</ele>
        <time>2024-09-18T10:07:29Z</time>
      </trkpt>
      <trkpt lat="46.76443" lon="4.90107">
        <ele>183.8</ele>
        <time>2024-09-18T10:07:30Z</time>
      </trkpt>
      <trkpt lat="46.76438" lon="4.90108">
        <ele>183.8</ele>
        <time>2024-09-18T10:07:31Z</time>
      </trkpt>
      <trkpt lat="46.76434" lon="4.90109">
        <ele>183.8</ele>
        <time>2024-09-18T10:07:32Z</time>
      </trkpt>
      <trkpt lat="46.76429" lon="4.9011">
        <ele>183.6</ele>
        <time>2024-09-18T10:07:33Z</time>
      </trkpt>
      <trkpt lat="46.76422" lon="4.90112">
        <ele>183.6</ele>
        <time>2024-09-18T10:07:34Z</time>
      </trkpt>
      <trkpt lat="46.7642" lon="4.90113">
        <ele>183.8</ele>
        <time>2024-09-18T10:07:35Z</time>
      </trkpt>
      <trkpt lat="46.76415" lon="4.90115">
        <ele>183.8</ele>
        <time>2024-09-18T10:07:36Z</time>
      </trkpt>
      <trkpt lat="46.76411" lon="4.90118">
        <ele>183.8</ele>
        <time>2024-09-18T10:07:37Z</time>
      </trkpt>
      <trkpt lat="46.76407" lon="4.9012">
        <ele>183.8</ele>
        <time>2024-09-18T10:07:38Z</time>
      </trkpt>
      <trkpt lat="46.76402" lon="4.90121">
        <ele>183.6</ele>
        <time>2024-09-18T10:07:39Z</time>
      </trkpt>
      <trkpt lat="46.76398" lon="4.90122">
        <ele>183.6</ele>
        <time>2024-09-18T10:07:40Z</time>
      </trkpt>
      <trkpt lat="46.76393" lon="4.90123">
        <ele>183.6</ele>
        <time>2024-09-18T10:07:41Z</time>
      </trkpt>
      <trkpt lat="46.76389" lon="4.90124">
        <ele>183.6</ele>
        <time>2024-09-18T10:07:42Z</time>
      </trkpt>
      <trkpt lat="46.76384" lon="4.90125">
        <ele>183.6</ele>
        <time>2024-09-18T10:07:43Z</time>
      </trkpt>
      <trkpt lat="46.7638" lon="4.90126">
        <ele>183.8</ele>
        <time>2024-09-18T10:07:44Z</time>
      </trkpt>
      <trkpt lat="46.76375" lon="4.90127">
        <ele>183.8</ele>
        <time>2024-09-18T10:07:45Z</time>
      </trkpt>
      <trkpt lat="46.7637" lon="4.90127">
        <ele>183.6</ele>
        <time>2024-09-18T10:07:46Z</time>
      </trkpt>
      <trkpt lat="46.76363" lon="4.90129">
        <ele>183.6</ele>
        <time>2024-09-18T10:07:47Z</time>
      </trkpt>
      <trkpt lat="46.76361" lon="4.90129">
        <ele>183.6</ele>
        <time>2024-09-18T10:07:48Z</time>
      </trkpt>
      <trkpt lat="46.76356" lon="4.9013">
        <ele>183.6</ele>
        <time>2024-09-18T10:07:49Z</time>
      </trkpt>
      <trkpt lat="46.76351" lon="4.90131">
        <ele>183.6</ele>
        <time>2024-09-18T10:07:50Z</time>
      </trkpt>
      <trkpt lat="46.76346" lon="4.90132">
        <ele>183.6</ele>
        <time>2024-09-18T10:07:51Z</time>
      </trkpt>
      <trkpt lat="46.76341" lon="4.90133">
        <ele>183.6</ele>
        <time>2024-09-18T10:07:52Z</time>
      </trkpt>
      <trkpt lat="46.76336" lon="4.90133">
        <ele>183.6</ele>
        <time>2024-09-18T10:07:53Z</time>
      </trkpt>
      <trkpt lat="46.76331" lon="4.90134">
        <ele>183.6</ele>
        <time>2024-09-18T10:07:54Z</time>
      </trkpt>
      <trkpt lat="46.76326" lon="4.90134">
        <ele>183.8</ele>
        <time>2024-09-18T10:07:55Z</time>
      </trkpt>
      <trkpt lat="46.76322" lon="4.90134">
        <ele>183.6</ele>
        <time>2024-09-18T10:07:56Z</time>
      </trkpt>
      <trkpt lat="46.76317" lon="4.90134">
        <ele>183.6</ele>
        <time>2024-09-18T10:07:57Z</time>
      </trkpt>
      <trkpt lat="46.76312" lon="4.90135">
        <ele>183.6</ele>
        <time>2024-09-18T10:07:58Z</time>
      </trkpt>
      <trkpt lat="46.76307" lon="4.90135">
        <ele>183.6</ele>
        <time>2024-09-18T10:07:59Z</time>
      </trkpt>
      <trkpt lat="46.76302" lon="4.90136">
        <ele>183.6</ele>
        <time>2024-09-18T10:08:00Z</time>
      </trkpt>
      <trkpt lat="46.76297" lon="4.90136">
        <ele>183.6</ele>
        <time>2024-09-18T10:08:01Z</time>
      </trkpt>
      <trkpt lat="46.76293" lon="4.90136">
        <ele>183.8</ele>
        <time>2024-09-18T10:08:02Z</time>
      </trkpt>
      <trkpt lat="46.76288" lon="4.90136">
        <ele>183.8</ele>
        <time>2024-09-18T10:08:03Z</time>
      </trkpt>
      <trkpt lat="46.76283" lon="4.90136">
        <ele>183.8</ele>
        <time>2024-09-18T10:08:04Z</time>
      </trkpt>
      <trkpt lat="46.76279" lon="4.90136">
        <ele>183.8</ele>
        <time>2024-09-18T10:08:05Z</time>
      </trkpt>
      <trkpt lat="46.76274" lon="4.90136">
        <ele>183.8</ele>
        <time>2024-09-18T10:08:06Z</time>
      </trkpt>
      <trkpt lat="46.7627" lon="4.90135">
        <ele>183.8</ele>
        <time>2024-09-18T10:08:07Z</time>
      </trkpt>
      <trkpt lat="46.76266" lon="4.90134">
        <ele>183.8</ele>
        <time>2024-09-18T10:08:08Z</time>
      </trkpt>
      <trkpt lat="46.76262" lon="4.90133">
        <ele>183.8</ele>
        <time>2024-09-18T10:08:09Z</time>
      </trkpt>
      <trkpt lat="46.76257" lon="4.90133">
        <ele>183.8</ele>
        <time>2024-09-18T10:08:10Z</time>
      </trkpt>
      <trkpt lat="46.76251" lon="4.90133">
        <ele>184</ele>
        <time>2024-09-18T10:08:11Z</time>
      </trkpt>
      <trkpt lat="46.76249" lon="4.90133">
        <ele>184</ele>
        <time>2024-09-18T10:08:12Z</time>
      </trkpt>
      <trkpt lat="46.76245" lon="4.90133">
        <ele>184</ele>
        <time>2024-09-18T10:08:13Z</time>
      </trkpt>
      <trkpt lat="46.76241" lon="4.90132">
        <ele>184</ele>
        <time>2024-09-18T10:08:14Z</time>
      </trkpt>
      <trkpt lat="46.76238" lon="4.90132">
        <ele>184</ele>
        <time>2024-09-18T10:08:15Z</time>
      </trkpt>
      <trkpt lat="46.76234" lon="4.90131">
        <ele>184</ele>
        <time>2024-09-18T10:08:16Z</time>
      </trkpt>
      <trkpt lat="46.7623" lon="4.90131">
        <ele>184</ele>
        <time>2024-09-18T10:08:17Z</time>
      </trkpt>
      <trkpt lat="46.76226" lon="4.9013">
        <ele>184</ele>
        <time>2024-09-18T10:08:18Z</time>
      </trkpt>
      <trkpt lat="46.76223" lon="4.90129">
        <ele>184</ele>
        <time>2024-09-18T10:08:19Z</time>
      </trkpt>
      <trkpt lat="46.76218" lon="4.90129">
        <ele>184</ele>
        <time>2024-09-18T10:08:20Z</time>
      </trkpt>
      <trkpt lat="46.76214" lon="4.90128">
        <ele>184</ele>
        <time>2024-09-18T10:08:21Z</time>
      </trkpt>
      <trkpt lat="46.7621" lon="4.90127">
        <ele>184</ele>
        <time>2024-09-18T10:08:22Z</time>
      </trkpt>
      <trkpt lat="46.76205" lon="4.90126">
        <ele>184</ele>
        <time>2024-09-18T10:08:23Z</time>
      </trkpt>
      <trkpt lat="46.76201" lon="4.90126">
        <ele>183.8</ele>
        <time>2024-09-18T10:08:24Z</time>
      </trkpt>
      <trkpt lat="46.76196" lon="4.90125">
        <ele>183.8</ele>
        <time>2024-09-18T10:08:25Z</time>
      </trkpt>
      <trkpt lat="46.76191" lon="4.90124">
        <ele>183.8</ele>
        <time>2024-09-18T10:08:26Z</time>
      </trkpt>
      <trkpt lat="46.76186" lon="4.90124">
        <ele>184</ele>
        <time>2024-09-18T10:08:27Z</time>
      </trkpt>
      <trkpt lat="46.76179" lon="4.90124">
        <ele>184</ele>
        <time>2024-09-18T10:08:28Z</time>
      </trkpt>
      <trkpt lat="46.76176" lon="4.90124">
        <ele>184</ele>
        <time>2024-09-18T10:08:29Z</time>
      </trkpt>
      <trkpt lat="46.76171" lon="4.90124">
        <ele>184</ele>
        <time>2024-09-18T10:08:30Z</time>
      </trkpt>
      <trkpt lat="46.76166" lon="4.90123">
        <ele>184</ele>
        <time>2024-09-18T10:08:31Z</time>
      </trkpt>
      <trkpt lat="46.76161" lon="4.90123">
        <ele>184</ele>
        <time>2024-09-18T10:08:32Z</time>
      </trkpt>
      <trkpt lat="46.76156" lon="4.90122">
        <ele>184</ele>
        <time>2024-09-18T10:08:33Z</time>
      </trkpt>
      <trkpt lat="46.76151" lon="4.90122">
        <ele>184</ele>
        <time>2024-09-18T10:08:34Z</time>
      </trkpt>
      <trkpt lat="46.76147" lon="4.90121">
        <ele>184</ele>
        <time>2024-09-18T10:08:35Z</time>
      </trkpt>
      <trkpt lat="46.76142" lon="4.9012">
        <ele>184</ele>
        <time>2024-09-18T10:08:36Z</time>
      </trkpt>
      <trkpt lat="46.76137" lon="4.9012">
        <ele>184.2</ele>
        <time>2024-09-18T10:08:37Z</time>
      </trkpt>
      <trkpt lat="46.76132" lon="4.90119">
        <ele>184.2</ele>
        <time>2024-09-18T10:08:38Z</time>
      </trkpt>
      <trkpt lat="46.76127" lon="4.90119">
        <ele>184.2</ele>
        <time>2024-09-18T10:08:39Z</time>
      </trkpt>
      <trkpt lat="46.76122" lon="4.90119">
        <ele>184.2</ele>
        <time>2024-09-18T10:08:40Z</time>
      </trkpt>
      <trkpt lat="46.76117" lon="4.90118">
        <ele>184.2</ele>
        <time>2024-09-18T10:08:41Z</time>
      </trkpt>
      <trkpt lat="46.76112" lon="4.90118">
        <ele>184.2</ele>
        <time>2024-09-18T10:08:42Z</time>
      </trkpt>
      <trkpt lat="46.76107" lon="4.90118">
        <ele>184.2</ele>
        <time>2024-09-18T10:08:43Z</time>
      </trkpt>
      <trkpt lat="46.76102" lon="4.90117">
        <ele>184.2</ele>
        <time>2024-09-18T10:08:44Z</time>
      </trkpt>
      <trkpt lat="46.76097" lon="4.90117">
        <ele>184.2</ele>
        <time>2024-09-18T10:08:45Z</time>
      </trkpt>
      <trkpt lat="46.76092" lon="4.90117">
        <ele>184.2</ele>
        <time>2024-09-18T10:08:46Z</time>
      </trkpt>
      <trkpt lat="46.76087" lon="4.90116">
        <ele>184</ele>
        <time>2024-09-18T10:08:47Z</time>
      </trkpt>
      <trkpt lat="46.76082" lon="4.90115">
        <ele>184</ele>
        <time>2024-09-18T10:08:48Z</time>
      </trkpt>
      <trkpt lat="46.76077" lon="4.90115">
        <ele>184</ele>
        <time>2024-09-18T10:08:49Z</time>
      </trkpt>
      <trkpt lat="46.76072" lon="4.90114">
        <ele>184</ele>
        <time>2024-09-18T10:08:50Z</time>
      </trkpt>
      <trkpt lat="46.76067" lon="4.90113">
        <ele>184.2</ele>
        <time>2024-09-18T10:08:51Z</time>
      </trkpt>
      <trkpt lat="46.76062" lon="4.90113">
        <ele>184.2</ele>
        <time>2024-09-18T10:08:52Z</time>
      </trkpt>
      <trkpt lat="46.76057" lon="4.90112">
        <ele>184.2</ele>
        <time>2024-09-18T10:08:53Z</time>
      </trkpt>
      <trkpt lat="46.76052" lon="4.90112">
        <ele>184.2</ele>
        <time>2024-09-18T10:08:54Z</time>
      </trkpt>
      <trkpt lat="46.76047" lon="4.90111">
        <ele>184.4</ele>
        <time>2024-09-18T10:08:55Z</time>
      </trkpt>
      <trkpt lat="46.76042" lon="4.90111">
        <ele>184.4</ele>
        <time>2024-09-18T10:08:56Z</time>
      </trkpt>
      <trkpt lat="46.76037" lon="4.9011">
        <ele>184.4</ele>
        <time>2024-09-18T10:08:57Z</time>
      </trkpt>
      <trkpt lat="46.76032" lon="4.90109">
        <ele>184.4</ele>
        <time>2024-09-18T10:08:58Z</time>
      </trkpt>
      <trkpt lat="46.76027" lon="4.90109">
        <ele>184.4</ele>
        <time>2024-09-18T10:08:59Z</time>
      </trkpt>
      <trkpt lat="46.76022" lon="4.90109">
        <ele>184.4</ele>
        <time>2024-09-18T10:09:00Z</time>
      </trkpt>
      <trkpt lat="46.76017" lon="4.90108">
        <ele>184.4</ele>
        <time>2024-09-18T10:09:01Z</time>
      </trkpt>
      <trkpt lat="46.76012" lon="4.90107">
        <ele>184.4</ele>
        <time>2024-09-18T10:09:02Z</time>
      </trkpt>
      <trkpt lat="46.76007" lon="4.90107">
        <ele>184.4</ele>
        <time>2024-09-18T10:09:03Z</time>
      </trkpt>
      <trkpt lat="46.76002" lon="4.90106">
        <ele>184.4</ele>
        <time>2024-09-18T10:09:04Z</time>
      </trkpt>
      <trkpt lat="46.75997" lon="4.90106">
        <ele>184.4</ele>
        <time>2024-09-18T10:09:05Z</time>
      </trkpt>
      <trkpt lat="46.75993" lon="4.90105">
        <ele>184.4</ele>
        <time>2024-09-18T10:09:06Z</time>
      </trkpt>
      <trkpt lat="46.75988" lon="4.90105">
        <ele>184.4</ele>
        <time>2024-09-18T10:09:07Z</time>
      </trkpt>
      <trkpt lat="46.75983" lon="4.90104">
        <ele>184.4</ele>
        <time>2024-09-18T10:09:08Z</time>
      </trkpt>
      <trkpt lat="46.75978" lon="4.90104">
        <ele>184.4</ele>
        <time>2024-09-18T10:09:09Z</time>
      </trkpt>
      <trkpt lat="46.75973" lon="4.90103">
        <ele>184.4</ele>
        <time>2024-09-18T10:09:10Z</time>
      </trkpt>
      <trkpt lat="46.75968" lon="4.90103">
        <ele>184.4</ele>
        <time>2024-09-18T10:09:11Z</time>
      </trkpt>
      <trkpt lat="46.7596" lon="4.90102">
        <ele>184.4</ele>
        <time>2024-09-18T10:09:12Z</time>
      </trkpt>
      <trkpt lat="46.75958" lon="4.90102">
        <ele>184.4</ele>
        <time>2024-09-18T10:09:13Z</time>
      </trkpt>
      <trkpt lat="46.75953" lon="4.90101">
        <ele>184.4</ele>
        <time>2024-09-18T10:09:14Z</time>
      </trkpt>
      <trkpt lat="46.75948" lon="4.90101">
        <ele>184.4</ele>
        <time>2024-09-18T10:09:15Z</time>
      </trkpt>
      <trkpt lat="46.75943" lon="4.90101">
        <ele>184.2</ele>
        <time>2024-09-18T10:09:16Z</time>
      </trkpt>
      <trkpt lat="46.75938" lon="4.901">
        <ele>184.4</ele>
        <time>2024-09-18T10:09:17Z</time>
      </trkpt>
      <trkpt lat="46.75934" lon="4.90098">
        <ele>184.4</ele>
        <time>2024-09-18T10:09:18Z</time>
      </trkpt>
      <trkpt lat="46.75929" lon="4.90097">
        <ele>184.4</ele>
        <time>2024-09-18T10:09:19Z</time>
      </trkpt>
      <trkpt lat="46.75925" lon="4.90097">
        <ele>184</ele>
        <time>2024-09-18T10:09:20Z</time>
      </trkpt>
      <trkpt lat="46.7592" lon="4.90097">
        <ele>184</ele>
        <time>2024-09-18T10:09:21Z</time>
      </trkpt>
      <trkpt lat="46.75916" lon="4.90097">
        <ele>184</ele>
        <time>2024-09-18T10:09:22Z</time>
      </trkpt>
      <trkpt lat="46.75911" lon="4.90097">
        <ele>184</ele>
        <time>2024-09-18T10:09:23Z</time>
      </trkpt>
      <trkpt lat="46.75907" lon="4.90096">
        <ele>184</ele>
        <time>2024-09-18T10:09:24Z</time>
      </trkpt>
      <trkpt lat="46.75901" lon="4.90095">
        <ele>184</ele>
        <time>2024-09-18T10:09:25Z</time>
      </trkpt>
      <trkpt lat="46.75899" lon="4.90095">
        <ele>184</ele>
        <time>2024-09-18T10:09:26Z</time>
      </trkpt>
      <trkpt lat="46.75895" lon="4.90095">
        <ele>184</ele>
        <time>2024-09-18T10:09:27Z</time>
      </trkpt>
      <trkpt lat="46.7589" lon="4.90094">
        <ele>184</ele>
        <time>2024-09-18T10:09:28Z</time>
      </trkpt>
      <trkpt lat="46.75886" lon="4.90093">
        <ele>184</ele>
        <time>2024-09-18T10:09:29Z</time>
      </trkpt>
      <trkpt lat="46.75881" lon="4.90092">
        <ele>184</ele>
        <time>2024-09-18T10:09:30Z</time>
      </trkpt>
      <trkpt lat="46.75877" lon="4.90091">
        <ele>184</ele>
        <time>2024-09-18T10:09:31Z</time>
      </trkpt>
      <trkpt lat="46.75872" lon="4.9009">
        <ele>184</ele>
        <time>2024-09-18T10:09:32Z</time>
      </trkpt>
      <trkpt lat="46.75867" lon="4.90089">
        <ele>184</ele>
        <time>2024-09-18T10:09:33Z</time>
      </trkpt>
      <trkpt lat="46.75862" lon="4.90089">
        <ele>184.4</ele>
        <time>2024-09-18T10:09:34Z</time>
      </trkpt>
      <trkpt lat="46.75857" lon="4.90088">
        <ele>184.4</ele>
        <time>2024-09-18T10:09:35Z</time>
      </trkpt>
      <trkpt lat="46.75853" lon="4.90087">
        <ele>184.4</ele>
        <time>2024-09-18T10:09:36Z</time>
      </trkpt>
      <trkpt lat="46.75848" lon="4.90087">
        <ele>184.4</ele>
        <time>2024-09-18T10:09:37Z</time>
      </trkpt>
      <trkpt lat="46.75844" lon="4.90086">
        <ele>184.4</ele>
        <time>2024-09-18T10:09:38Z</time>
      </trkpt>
      <trkpt lat="46.75839" lon="4.90086">
        <ele>184.6</ele>
        <time>2024-09-18T10:09:39Z</time>
      </trkpt>
      <trkpt lat="46.75834" lon="4.90085">
        <ele>184.4</ele>
        <time>2024-09-18T10:09:40Z</time>
      </trkpt>
      <trkpt lat="46.7583" lon="4.90084">
        <ele>184.4</ele>
        <time>2024-09-18T10:09:41Z</time>
      </trkpt>
      <trkpt lat="46.75825" lon="4.90084">
        <ele>184.4</ele>
        <time>2024-09-18T10:09:42Z</time>
      </trkpt>
      <trkpt lat="46.7582" lon="4.90084">
        <ele>184.4</ele>
        <time>2024-09-18T10:09:43Z</time>
      </trkpt>
      <trkpt lat="46.75815" lon="4.90084">
        <ele>184.4</ele>
        <time>2024-09-18T10:09:44Z</time>
      </trkpt>
      <trkpt lat="46.75811" lon="4.90084">
        <ele>184.8</ele>
        <time>2024-09-18T10:09:45Z</time>
      </trkpt>
      <trkpt lat="46.75806" lon="4.90083">
        <ele>184.8</ele>
        <time>2024-09-18T10:09:46Z</time>
      </trkpt>
      <trkpt lat="46.75802" lon="4.90083">
        <ele>184.8</ele>
        <time>2024-09-18T10:09:47Z</time>
      </trkpt>
      <trkpt lat="46.75797" lon="4.90083">
        <ele>184.4</ele>
        <time>2024-09-18T10:09:48Z</time>
      </trkpt>
      <trkpt lat="46.75792" lon="4.90083">
        <ele>184.6</ele>
        <time>2024-09-18T10:09:49Z</time>
      </trkpt>
      <trkpt lat="46.75788" lon="4.90082">
        <ele>184.6</ele>
        <time>2024-09-18T10:09:50Z</time>
      </trkpt>
      <trkpt lat="46.75783" lon="4.90082">
        <ele>184.6</ele>
        <time>2024-09-18T10:09:51Z</time>
      </trkpt>
      <trkpt lat="46.75778" lon="4.90081">
        <ele>184.6</ele>
        <time>2024-09-18T10:09:52Z</time>
      </trkpt>
      <trkpt lat="46.75774" lon="4.90081">
        <ele>184.6</ele>
        <time>2024-09-18T10:09:53Z</time>
      </trkpt>
      <trkpt lat="46.7577" lon="4.90081">
        <ele>184.6</ele>
        <time>2024-09-18T10:09:54Z</time>
      </trkpt>
      <trkpt lat="46.75765" lon="4.90081">
        <ele>184.6</ele>
        <time>2024-09-18T10:09:55Z</time>
      </trkpt>
      <trkpt lat="46.75761" lon="4.90081">
        <ele>184.6</ele>
        <time>2024-09-18T10:09:56Z</time>
      </trkpt>
      <trkpt lat="46.75756" lon="4.90081">
        <ele>185</ele>
        <time>2024-09-18T10:09:57Z</time>
      </trkpt>
      <trkpt lat="46.75752" lon="4.90081">
        <ele>185</ele>
        <time>2024-09-18T10:09:58Z</time>
      </trkpt>
      <trkpt lat="46.75747" lon="4.90081">
        <ele>185</ele>
        <time>2024-09-18T10:09:59Z</time>
      </trkpt>
      <trkpt lat="46.75743" lon="4.90082">
        <ele>185</ele>
        <time>2024-09-18T10:10:00Z</time>
      </trkpt>
      <trkpt lat="46.75738" lon="4.90082">
        <ele>185</ele>
        <time>2024-09-18T10:10:01Z</time>
      </trkpt>
      <trkpt lat="46.75734" lon="4.90082">
        <ele>185.2</ele>
        <time>2024-09-18T10:10:02Z</time>
      </trkpt>
      <trkpt lat="46.7573" lon="4.90082">
        <ele>185.2</ele>
        <time>2024-09-18T10:10:03Z</time>
      </trkpt>
      <trkpt lat="46.75725" lon="4.90082">
        <ele>185.2</ele>
        <time>2024-09-18T10:10:04Z</time>
      </trkpt>
      <trkpt lat="46.75721" lon="4.90082">
        <ele>185.2</ele>
        <time>2024-09-18T10:10:05Z</time>
      </trkpt>
      <trkpt lat="46.75716" lon="4.90082">
        <ele>185.2</ele>
        <time>2024-09-18T10:10:06Z</time>
      </trkpt>
      <trkpt lat="46.75712" lon="4.90083">
        <ele>185.2</ele>
        <time>2024-09-18T10:10:07Z</time>
      </trkpt>
      <trkpt lat="46.75707" lon="4.90083">
        <ele>185.2</ele>
        <time>2024-09-18T10:10:08Z</time>
      </trkpt>
      <trkpt lat="46.75703" lon="4.90083">
        <ele>185.2</ele>
        <time>2024-09-18T10:10:09Z</time>
      </trkpt>
      <trkpt lat="46.75698" lon="4.90083">
        <ele>185.2</ele>
        <time>2024-09-18T10:10:10Z</time>
      </trkpt>
      <trkpt lat="46.75694" lon="4.90083">
        <ele>185.2</ele>
        <time>2024-09-18T10:10:11Z</time>
      </trkpt>
      <trkpt lat="46.75689" lon="4.90083">
        <ele>185.2</ele>
        <time>2024-09-18T10:10:12Z</time>
      </trkpt>
      <trkpt lat="46.75685" lon="4.90083">
        <ele>185.2</ele>
        <time>2024-09-18T10:10:13Z</time>
      </trkpt>
      <trkpt lat="46.7568" lon="4.90083">
        <ele>185.2</ele>
        <time>2024-09-18T10:10:14Z</time>
      </trkpt>
      <trkpt lat="46.75676" lon="4.90084">
        <ele>185.4</ele>
        <time>2024-09-18T10:10:15Z</time>
      </trkpt>
      <trkpt lat="46.75672" lon="4.90084">
        <ele>185.8</ele>
        <time>2024-09-18T10:10:16Z</time>
      </trkpt>
      <trkpt lat="46.75667" lon="4.90084">
        <ele>185.8</ele>
        <time>2024-09-18T10:10:17Z</time>
      </trkpt>
      <trkpt lat="46.75663" lon="4.90085">
        <ele>185.8</ele>
        <time>2024-09-18T10:10:18Z</time>
      </trkpt>
      <trkpt lat="46.75659" lon="4.90085">
        <ele>185.8</ele>
        <time>2024-09-18T10:10:19Z</time>
      </trkpt>
      <trkpt lat="46.75654" lon="4.90086">
        <ele>185.8</ele>
        <time>2024-09-18T10:10:20Z</time>
      </trkpt>
      <trkpt lat="46.7565" lon="4.90086">
        <ele>185.8</ele>
        <time>2024-09-18T10:10:21Z</time>
      </trkpt>
      <trkpt lat="46.75646" lon="4.90087">
        <ele>185.8</ele>
        <time>2024-09-18T10:10:22Z</time>
      </trkpt>
      <trkpt lat="46.75641" lon="4.90088">
        <ele>186</ele>
        <time>2024-09-18T10:10:23Z</time>
      </trkpt>
      <trkpt lat="46.75637" lon="4.90088">
        <ele>186</ele>
        <time>2024-09-18T10:10:24Z</time>
      </trkpt>
      <trkpt lat="46.75633" lon="4.90089">
        <ele>186</ele>
        <time>2024-09-18T10:10:25Z</time>
      </trkpt>
      <trkpt lat="46.75628" lon="4.9009">
        <ele>186</ele>
        <time>2024-09-18T10:10:26Z</time>
      </trkpt>
      <trkpt lat="46.75624" lon="4.90091">
        <ele>186</ele>
        <time>2024-09-18T10:10:27Z</time>
      </trkpt>
      <trkpt lat="46.7562" lon="4.90092">
        <ele>186.4</ele>
        <time>2024-09-18T10:10:28Z</time>
      </trkpt>
      <trkpt lat="46.75615" lon="4.90092">
        <ele>186.4</ele>
        <time>2024-09-18T10:10:29Z</time>
      </trkpt>
      <trkpt lat="46.75611" lon="4.90093">
        <ele>186</ele>
        <time>2024-09-18T10:10:30Z</time>
      </trkpt>
      <trkpt lat="46.75606" lon="4.90094">
        <ele>186</ele>
        <time>2024-09-18T10:10:31Z</time>
      </trkpt>
      <trkpt lat="46.75602" lon="4.90096">
        <ele>186.2</ele>
        <time>2024-09-18T10:10:32Z</time>
      </trkpt>
      <trkpt lat="46.75598" lon="4.90097">
        <ele>186.2</ele>
        <time>2024-09-18T10:10:33Z</time>
      </trkpt>
      <trkpt lat="46.75593" lon="4.90098">
        <ele>186.4</ele>
        <time>2024-09-18T10:10:34Z</time>
      </trkpt>
      <trkpt lat="46.75589" lon="4.90099">
        <ele>186.4</ele>
        <time>2024-09-18T10:10:35Z</time>
      </trkpt>
      <trkpt lat="46.75586" lon="4.90101">
        <ele>186.4</ele>
        <time>2024-09-18T10:10:36Z</time>
      </trkpt>
      <trkpt lat="46.75579" lon="4.90103">
        <ele>186.4</ele>
        <time>2024-09-18T10:10:37Z</time>
      </trkpt>
      <trkpt lat="46.75577" lon="4.90103">
        <ele>186.4</ele>
        <time>2024-09-18T10:10:38Z</time>
      </trkpt>
      <trkpt lat="46.75574" lon="4.90105">
        <ele>186.8</ele>
        <time>2024-09-18T10:10:39Z</time>
      </trkpt>
      <trkpt lat="46.7557" lon="4.90106">
        <ele>186.8</ele>
        <time>2024-09-18T10:10:40Z</time>
      </trkpt>
      <trkpt lat="46.75566" lon="4.90108">
        <ele>186.8</ele>
        <time>2024-09-18T10:10:41Z</time>
      </trkpt>
      <trkpt lat="46.75562" lon="4.90109">
        <ele>186.8</ele>
        <time>2024-09-18T10:10:42Z</time>
      </trkpt>
      <trkpt lat="46.75558" lon="4.90111">
        <ele>186.8</ele>
        <time>2024-09-18T10:10:43Z</time>
      </trkpt>
      <trkpt lat="46.75554" lon="4.90112">
        <ele>186.8</ele>
        <time>2024-09-18T10:10:44Z</time>
      </trkpt>
      <trkpt lat="46.7555" lon="4.90114">
        <ele>186.8</ele>
        <time>2024-09-18T10:10:45Z</time>
      </trkpt>
      <trkpt lat="46.75546" lon="4.90116">
        <ele>187</ele>
        <time>2024-09-18T10:10:46Z</time>
      </trkpt>
      <trkpt lat="46.75542" lon="4.90117">
        <ele>187</ele>
        <time>2024-09-18T10:10:47Z</time>
      </trkpt>
      <trkpt lat="46.75538" lon="4.90118">
        <ele>187.4</ele>
        <time>2024-09-18T10:10:48Z</time>
      </trkpt>
      <trkpt lat="46.75534" lon="4.90119">
        <ele>187.4</ele>
        <time>2024-09-18T10:10:49Z</time>
      </trkpt>
      <trkpt lat="46.7553" lon="4.9012">
        <ele>187.4</ele>
        <time>2024-09-18T10:10:50Z</time>
      </trkpt>
      <trkpt lat="46.75526" lon="4.90121">
        <ele>187.4</ele>
        <time>2024-09-18T10:10:51Z</time>
      </trkpt>
      <trkpt lat="46.75522" lon="4.90123">
        <ele>187.4</ele>
        <time>2024-09-18T10:10:52Z</time>
      </trkpt>
      <trkpt lat="46.75518" lon="4.90124">
        <ele>187.4</ele>
        <time>2024-09-18T10:10:53Z</time>
      </trkpt>
      <trkpt lat="46.75514" lon="4.90125">
        <ele>187.4</ele>
        <time>2024-09-18T10:10:54Z</time>
      </trkpt>
      <trkpt lat="46.7551" lon="4.90125">
        <ele>187.6</ele>
        <time>2024-09-18T10:10:55Z</time>
      </trkpt>
      <trkpt lat="46.75506" lon="4.90124">
        <ele>187.4</ele>
        <time>2024-09-18T10:10:56Z</time>
      </trkpt>
      <trkpt lat="46.75502" lon="4.90122">
        <ele>187.4</ele>
        <time>2024-09-18T10:10:57Z</time>
      </trkpt>
      <trkpt lat="46.75498" lon="4.90119">
        <ele>187.4</ele>
        <time>2024-09-18T10:10:58Z</time>
      </trkpt>
      <trkpt lat="46.75494" lon="4.90116">
        <ele>187.4</ele>
        <time>2024-09-18T10:10:59Z</time>
      </trkpt>
      <trkpt lat="46.75491" lon="4.90112">
        <ele>187.4</ele>
        <time>2024-09-18T10:11:00Z</time>
      </trkpt>
      <trkpt lat="46.75487" lon="4.90107">
        <ele>187.2</ele>
        <time>2024-09-18T10:11:01Z</time>
      </trkpt>
      <trkpt lat="46.75484" lon="4.90103">
        <ele>187.2</ele>
        <time>2024-09-18T10:11:02Z</time>
      </trkpt>
      <trkpt lat="46.75482" lon="4.90097">
        <ele>187.2</ele>
        <time>2024-09-18T10:11:03Z</time>
      </trkpt>
      <trkpt lat="46.7548" lon="4.90092">
        <ele>187</ele>
        <time>2024-09-18T10:11:04Z</time>
      </trkpt>
      <trkpt lat="46.75479" lon="4.90086">
        <ele>187</ele>
        <time>2024-09-18T10:11:05Z</time>
      </trkpt>
      <trkpt lat="46.75477" lon="4.90081">
        <ele>187</ele>
        <time>2024-09-18T10:11:06Z</time>
      </trkpt>
      <trkpt lat="46.75475" lon="4.90076">
        <ele>187</ele>
        <time>2024-09-18T10:11:07Z</time>
      </trkpt>
      <trkpt lat="46.75474" lon="4.90071">
        <ele>187</ele>
        <time>2024-09-18T10:11:08Z</time>
      </trkpt>
      <trkpt lat="46.75473" lon="4.90066">
        <ele>186.8</ele>
        <time>2024-09-18T10:11:09Z</time>
      </trkpt>
      <trkpt lat="46.75473" lon="4.90061">
        <ele>186.8</ele>
        <time>2024-09-18T10:11:10Z</time>
      </trkpt>
      <trkpt lat="46.75472" lon="4.90056">
        <ele>186.8</ele>
        <time>2024-09-18T10:11:11Z</time>
      </trkpt>
      <trkpt lat="46.75471" lon="4.90053">
        <ele>186.8</ele>
        <time>2024-09-18T10:11:12Z</time>
      </trkpt>
      <trkpt lat="46.7547" lon="4.9005">
        <ele>186.8</ele>
        <time>2024-09-18T10:11:13Z</time>
      </trkpt>
      <trkpt lat="46.75469" lon="4.90049">
        <ele>186.8</ele>
        <time>2024-09-18T10:11:14Z</time>
      </trkpt>
      <trkpt lat="46.75468" lon="4.90051">
        <ele>186.6</ele>
        <time>2024-09-18T10:11:15Z</time>
      </trkpt>
      <trkpt lat="46.75468" lon="4.90053">
        <ele>186.6</ele>
        <time>2024-09-18T10:11:16Z</time>
      </trkpt>
      <trkpt lat="46.75469" lon="4.90055">
        <ele>186.6</ele>
        <time>2024-09-18T10:11:17Z</time>
      </trkpt>
      <trkpt lat="46.7547" lon="4.90058">
        <ele>186.6</ele>
        <time>2024-09-18T10:11:18Z</time>
      </trkpt>
      <trkpt lat="46.75471" lon="4.90062">
        <ele>186.6</ele>
        <time>2024-09-18T10:11:19Z</time>
      </trkpt>
      <trkpt lat="46.75472" lon="4.90066">
        <ele>186.6</ele>
        <time>2024-09-18T10:11:20Z</time>
      </trkpt>
      <trkpt lat="46.75472" lon="4.9007">
        <ele>186.6</ele>
        <time>2024-09-18T10:11:21Z</time>
      </trkpt>
      <trkpt lat="46.75473" lon="4.90074">
        <ele>186.8</ele>
        <time>2024-09-18T10:11:22Z</time>
      </trkpt>
      <trkpt lat="46.75474" lon="4.90078">
        <ele>186.6</ele>
        <time>2024-09-18T10:11:23Z</time>
      </trkpt>
      <trkpt lat="46.75475" lon="4.90082">
        <ele>186.6</ele>
        <time>2024-09-18T10:11:24Z</time>
      </trkpt>
      <trkpt lat="46.75477" lon="4.90086">
        <ele>186.6</ele>
        <time>2024-09-18T10:11:25Z</time>
      </trkpt>
      <trkpt lat="46.75478" lon="4.9009">
        <ele>186.6</ele>
        <time>2024-09-18T10:11:26Z</time>
      </trkpt>
      <trkpt lat="46.7548" lon="4.90094">
        <ele>186.8</ele>
        <time>2024-09-18T10:11:27Z</time>
      </trkpt>
      <trkpt lat="46.75481" lon="4.90099">
        <ele>186.8</ele>
        <time>2024-09-18T10:11:28Z</time>
      </trkpt>
      <trkpt lat="46.75482" lon="4.90103">
        <ele>186.8</ele>
        <time>2024-09-18T10:11:29Z</time>
      </trkpt>
      <trkpt lat="46.75483" lon="4.90107">
        <ele>186.8</ele>
        <time>2024-09-18T10:11:30Z</time>
      </trkpt>
      <trkpt lat="46.75483" lon="4.90111">
        <ele>186.8</ele>
        <time>2024-09-18T10:11:31Z</time>
      </trkpt>
      <trkpt lat="46.75483" lon="4.90115">
        <ele>187</ele>
        <time>2024-09-18T10:11:32Z</time>
      </trkpt>
      <trkpt lat="46.75483" lon="4.90118">
        <ele>187</ele>
        <time>2024-09-18T10:11:33Z</time>
      </trkpt>
      <trkpt lat="46.75484" lon="4.90122">
        <ele>187</ele>
        <time>2024-09-18T10:11:34Z</time>
      </trkpt>
      <trkpt lat="46.75485" lon="4.90125">
        <ele>187</ele>
        <time>2024-09-18T10:11:35Z</time>
      </trkpt>
      <trkpt lat="46.75486" lon="4.90128">
        <ele>187</ele>
        <time>2024-09-18T10:11:36Z</time>
      </trkpt>
      <trkpt lat="46.75487" lon="4.9013">
        <ele>187.2</ele>
        <time>2024-09-18T10:11:37Z</time>
      </trkpt>
      <trkpt lat="46.75487" lon="4.90133">
        <ele>187.2</ele>
        <time>2024-09-18T10:11:38Z</time>
      </trkpt>
      <trkpt lat="46.75487" lon="4.90135">
        <ele>187.2</ele>
        <time>2024-09-18T10:11:39Z</time>
      </trkpt>
      <trkpt lat="46.75486" lon="4.90138">
        <ele>187.4</ele>
        <time>2024-09-18T10:11:40Z</time>
      </trkpt>
      <trkpt lat="46.75486" lon="4.90141">
        <ele>187.4</ele>
        <time>2024-09-18T10:11:41Z</time>
      </trkpt>
      <trkpt lat="46.75486" lon="4.90144">
        <ele>187.4</ele>
        <time>2024-09-18T10:11:42Z</time>
      </trkpt>
      <trkpt lat="46.75486" lon="4.90146">
        <ele>187.4</ele>
        <time>2024-09-18T10:11:43Z</time>
      </trkpt>
      <trkpt lat="46.75484" lon="4.90148">
        <ele>187.4</ele>
        <time>2024-09-18T10:11:44Z</time>
      </trkpt>
      <trkpt lat="46.75482" lon="4.90149">
        <ele>187.6</ele>
        <time>2024-09-18T10:11:45Z</time>
      </trkpt>
      <trkpt lat="46.7548" lon="4.9015">
        <ele>187.6</ele>
        <time>2024-09-18T10:11:46Z</time>
      </trkpt>
      <trkpt lat="46.75478" lon="4.90151">
        <ele>187.6</ele>
        <time>2024-09-18T10:11:47Z</time>
      </trkpt>
      <trkpt lat="46.75475" lon="4.90152">
        <ele>187.6</ele>
        <time>2024-09-18T10:11:48Z</time>
      </trkpt>
      <trkpt lat="46.75472" lon="4.90153">
        <ele>187.4</ele>
        <time>2024-09-18T10:11:49Z</time>
      </trkpt>
      <trkpt lat="46.7547" lon="4.90154">
        <ele>187.4</ele>
        <time>2024-09-18T10:11:50Z</time>
      </trkpt>
      <trkpt lat="46.75467" lon="4.90155">
        <ele>187.4</ele>
        <time>2024-09-18T10:11:51Z</time>
      </trkpt>
      <trkpt lat="46.75464" lon="4.90157">
        <ele>187.4</ele>
        <time>2024-09-18T10:11:52Z</time>
      </trkpt>
      <trkpt lat="46.75462" lon="4.90158">
        <ele>187.4</ele>
        <time>2024-09-18T10:11:53Z</time>
      </trkpt>
      <trkpt lat="46.7546" lon="4.9016">
        <ele>187.4</ele>
        <time>2024-09-18T10:11:54Z</time>
      </trkpt>
      <trkpt lat="46.75457" lon="4.90161">
        <ele>187.4</ele>
        <time>2024-09-18T10:11:55Z</time>
      </trkpt>
      <trkpt lat="46.75455" lon="4.90163">
        <ele>187.4</ele>
        <time>2024-09-18T10:11:56Z</time>
      </trkpt>
      <trkpt lat="46.75453" lon="4.90165">
        <ele>187.4</ele>
        <time>2024-09-18T10:11:57Z</time>
      </trkpt>
      <trkpt lat="46.7545" lon="4.90166">
        <ele>187.6</ele>
        <time>2024-09-18T10:11:58Z</time>
      </trkpt>
      <trkpt lat="46.75448" lon="4.90168">
        <ele>187.6</ele>
        <time>2024-09-18T10:11:59Z</time>
      </trkpt>
      <trkpt lat="46.75445" lon="4.90169">
        <ele>187.6</ele>
        <time>2024-09-18T10:12:00Z</time>
      </trkpt>
      <trkpt lat="46.75442" lon="4.9017">
        <ele>187.6</ele>
        <time>2024-09-18T10:12:01Z</time>
      </trkpt>
      <trkpt lat="46.7544" lon="4.90172">
        <ele>187.6</ele>
        <time>2024-09-18T10:12:02Z</time>
      </trkpt>
      <trkpt lat="46.75437" lon="4.90174">
        <ele>187.8</ele>
        <time>2024-09-18T10:12:03Z</time>
      </trkpt>
      <trkpt lat="46.75433" lon="4.90176">
        <ele>187.8</ele>
        <time>2024-09-18T10:12:04Z</time>
      </trkpt>
      <trkpt lat="46.7543" lon="4.90177">
        <ele>187.8</ele>
        <time>2024-09-18T10:12:05Z</time>
      </trkpt>
      <trkpt lat="46.75427" lon="4.90179">
        <ele>188</ele>
        <time>2024-09-18T10:12:06Z</time>
      </trkpt>
      <trkpt lat="46.75423" lon="4.9018">
        <ele>188</ele>
        <time>2024-09-18T10:12:07Z</time>
      </trkpt>
      <trkpt lat="46.7542" lon="4.90182">
        <ele>188</ele>
        <time>2024-09-18T10:12:08Z</time>
      </trkpt>
      <trkpt lat="46.75416" lon="4.90184">
        <ele>188</ele>
        <time>2024-09-18T10:12:09Z</time>
      </trkpt>
      <trkpt lat="46.75413" lon="4.90186">
        <ele>188</ele>
        <time>2024-09-18T10:12:10Z</time>
      </trkpt>
      <trkpt lat="46.75409" lon="4.90188">
        <ele>188.2</ele>
        <time>2024-09-18T10:12:11Z</time>
      </trkpt>
      <trkpt lat="46.75406" lon="4.90189">
        <ele>188.2</ele>
        <time>2024-09-18T10:12:12Z</time>
      </trkpt>
      <trkpt lat="46.75402" lon="4.9019">
        <ele>188.2</ele>
        <time>2024-09-18T10:12:13Z</time>
      </trkpt>
      <trkpt lat="46.75399" lon="4.90192">
        <ele>188.2</ele>
        <time>2024-09-18T10:12:14Z</time>
      </trkpt>
      <trkpt lat="46.75395" lon="4.90193">
        <ele>188.2</ele>
        <time>2024-09-18T10:12:15Z</time>
      </trkpt>
      <trkpt lat="46.75391" lon="4.90195">
        <ele>188.4</ele>
        <time>2024-09-18T10:12:16Z</time>
      </trkpt>
      <trkpt lat="46.75387" lon="4.90196">
        <ele>188.4</ele>
        <time>2024-09-18T10:12:17Z</time>
      </trkpt>
      <trkpt lat="46.75383" lon="4.90198">
        <ele>188.4</ele>
        <time>2024-09-18T10:12:18Z</time>
      </trkpt>
      <trkpt lat="46.7538" lon="4.902">
        <ele>188.4</ele>
        <time>2024-09-18T10:12:19Z</time>
      </trkpt>
      <trkpt lat="46.75376" lon="4.90202">
        <ele>188.4</ele>
        <time>2024-09-18T10:12:20Z</time>
      </trkpt>
      <trkpt lat="46.75372" lon="4.90204">
        <ele>188.6</ele>
        <time>2024-09-18T10:12:21Z</time>
      </trkpt>
      <trkpt lat="46.75368" lon="4.90207">
        <ele>188.8</ele>
        <time>2024-09-18T10:12:22Z</time>
      </trkpt>
      <trkpt lat="46.75364" lon="4.90209">
        <ele>188.8</ele>
        <time>2024-09-18T10:12:23Z</time>
      </trkpt>
      <trkpt lat="46.75361" lon="4.90211">
        <ele>188.8</ele>
        <time>2024-09-18T10:12:24Z</time>
      </trkpt>
      <trkpt lat="46.75357" lon="4.90212">
        <ele>188.8</ele>
        <time>2024-09-18T10:12:25Z</time>
      </trkpt>
      <trkpt lat="46.75353" lon="4.90214">
        <ele>188.6</ele>
        <time>2024-09-18T10:12:26Z</time>
      </trkpt>
      <trkpt lat="46.75349" lon="4.90215">
        <ele>188.6</ele>
        <time>2024-09-18T10:12:27Z</time>
      </trkpt>
      <trkpt lat="46.75345" lon="4.90217">
        <ele>188.6</ele>
        <time>2024-09-18T10:12:28Z</time>
      </trkpt>
      <trkpt lat="46.75341" lon="4.90219">
        <ele>188.6</ele>
        <time>2024-09-18T10:12:29Z</time>
      </trkpt>
      <trkpt lat="46.75337" lon="4.90221">
        <ele>188.6</ele>
        <time>2024-09-18T10:12:30Z</time>
      </trkpt>
      <trkpt lat="46.75333" lon="4.90223">
        <ele>188.6</ele>
        <time>2024-09-18T10:12:31Z</time>
      </trkpt>
      <trkpt lat="46.75327" lon="4.90225">
        <ele>188.6</ele>
        <time>2024-09-18T10:12:32Z</time>
      </trkpt>
      <trkpt lat="46.75325" lon="4.90226">
        <ele>188.6</ele>
        <time>2024-09-18T10:12:33Z</time>
      </trkpt>
      <trkpt lat="46.75321" lon="4.90228">
        <ele>188.6</ele>
        <time>2024-09-18T10:12:34Z</time>
      </trkpt>
      <trkpt lat="46.75317" lon="4.9023">
        <ele>188.6</ele>
        <time>2024-09-18T10:12:35Z</time>
      </trkpt>
      <trkpt lat="46.75313" lon="4.90232">
        <ele>188.6</ele>
        <time>2024-09-18T10:12:36Z</time>
      </trkpt>
      <trkpt lat="46.75308" lon="4.90233">
        <ele>188.6</ele>
        <time>2024-09-18T10:12:37Z</time>
      </trkpt>
      <trkpt lat="46.75304" lon="4.90235">
        <ele>188.6</ele>
        <time>2024-09-18T10:12:38Z</time>
      </trkpt>
      <trkpt lat="46.753" lon="4.90238">
        <ele>188.6</ele>
        <time>2024-09-18T10:12:39Z</time>
      </trkpt>
      <trkpt lat="46.75297" lon="4.90241">
        <ele>188.6</ele>
        <time>2024-09-18T10:12:40Z</time>
      </trkpt>
      <trkpt lat="46.75293" lon="4.90245">
        <ele>188.6</ele>
        <time>2024-09-18T10:12:41Z</time>
      </trkpt>
      <trkpt lat="46.75289" lon="4.90248">
        <ele>188.6</ele>
        <time>2024-09-18T10:12:42Z</time>
      </trkpt>
      <trkpt lat="46.75285" lon="4.90252">
        <ele>188.6</ele>
        <time>2024-09-18T10:12:43Z</time>
      </trkpt>
      <trkpt lat="46.75282" lon="4.90255">
        <ele>188.6</ele>
        <time>2024-09-18T10:12:44Z</time>
      </trkpt>
      <trkpt lat="46.75276" lon="4.90261">
        <ele>188.6</ele>
        <time>2024-09-18T10:12:45Z</time>
      </trkpt>
      <trkpt lat="46.75275" lon="4.90262">
        <ele>188.6</ele>
        <time>2024-09-18T10:12:46Z</time>
      </trkpt>
      <trkpt lat="46.75271" lon="4.90265">
        <ele>189</ele>
        <time>2024-09-18T10:12:47Z</time>
      </trkpt>
      <trkpt lat="46.75267" lon="4.90268">
        <ele>189</ele>
        <time>2024-09-18T10:12:48Z</time>
      </trkpt>
      <trkpt lat="46.75263" lon="4.90269">
        <ele>189.2</ele>
        <time>2024-09-18T10:12:49Z</time>
      </trkpt>
      <trkpt lat="46.7526" lon="4.90271">
        <ele>189.2</ele>
        <time>2024-09-18T10:12:50Z</time>
      </trkpt>
      <trkpt lat="46.75256" lon="4.90273">
        <ele>189.2</ele>
        <time>2024-09-18T10:12:51Z</time>
      </trkpt>
      <trkpt lat="46.75252" lon="4.90275">
        <ele>189.2</ele>
        <time>2024-09-18T10:12:52Z</time>
      </trkpt>
      <trkpt lat="46.75248" lon="4.90277">
        <ele>189.2</ele>
        <time>2024-09-18T10:12:53Z</time>
      </trkpt>
      <trkpt lat="46.75243" lon="4.90279">
        <ele>189.2</ele>
        <time>2024-09-18T10:12:54Z</time>
      </trkpt>
      <trkpt lat="46.75239" lon="4.90281">
        <ele>189.4</ele>
        <time>2024-09-18T10:12:55Z</time>
      </trkpt>
      <trkpt lat="46.75235" lon="4.90283">
        <ele>189.4</ele>
        <time>2024-09-18T10:12:56Z</time>
      </trkpt>
      <trkpt lat="46.75231" lon="4.90285">
        <ele>189.4</ele>
        <time>2024-09-18T10:12:57Z</time>
      </trkpt>
      <trkpt lat="46.75227" lon="4.90287">
        <ele>189.4</ele>
        <time>2024-09-18T10:12:58Z</time>
      </trkpt>
      <trkpt lat="46.75223" lon="4.90289">
        <ele>189.4</ele>
        <time>2024-09-18T10:12:59Z</time>
      </trkpt>
      <trkpt lat="46.75219" lon="4.90291">
        <ele>189.4</ele>
        <time>2024-09-18T10:13:00Z</time>
      </trkpt>
      <trkpt lat="46.75214" lon="4.90293">
        <ele>189.4</ele>
        <time>2024-09-18T10:13:01Z</time>
      </trkpt>
      <trkpt lat="46.7521" lon="4.90296">
        <ele>189.4</ele>
        <time>2024-09-18T10:13:02Z</time>
      </trkpt>
      <trkpt lat="46.75206" lon="4.90298">
        <ele>189.4</ele>
        <time>2024-09-18T10:13:03Z</time>
      </trkpt>
      <trkpt lat="46.75202" lon="4.903">
        <ele>189.4</ele>
        <time>2024-09-18T10:13:04Z</time>
      </trkpt>
      <trkpt lat="46.75198" lon="4.90302">
        <ele>189.4</ele>
        <time>2024-09-18T10:13:05Z</time>
      </trkpt>
      <trkpt lat="46.75194" lon="4.90304">
        <ele>189.4</ele>
        <time>2024-09-18T10:13:06Z</time>
      </trkpt>
      <trkpt lat="46.7519" lon="4.90306">
        <ele>189.4</ele>
        <time>2024-09-18T10:13:07Z</time>
      </trkpt>
      <trkpt lat="46.75185" lon="4.90308">
        <ele>189.4</ele>
        <time>2024-09-18T10:13:08Z</time>
      </trkpt>
      <trkpt lat="46.75181" lon="4.90308">
        <ele>189.4</ele>
        <time>2024-09-18T10:13:09Z</time>
      </trkpt>
      <trkpt lat="46.75177" lon="4.90308">
        <ele>189.4</ele>
        <time>2024-09-18T10:13:10Z</time>
      </trkpt>
      <trkpt lat="46.75173" lon="4.90308">
        <ele>189.4</ele>
        <time>2024-09-18T10:13:11Z</time>
      </trkpt>
      <trkpt lat="46.75169" lon="4.90309">
        <ele>189.4</ele>
        <time>2024-09-18T10:13:12Z</time>
      </trkpt>
      <trkpt lat="46.75166" lon="4.90311">
        <ele>189.4</ele>
        <time>2024-09-18T10:13:13Z</time>
      </trkpt>
      <trkpt lat="46.75162" lon="4.90314">
        <ele>189.4</ele>
        <time>2024-09-18T10:13:14Z</time>
      </trkpt>
      <trkpt lat="46.75159" lon="4.90317">
        <ele>189.6</ele>
        <time>2024-09-18T10:13:15Z</time>
      </trkpt>
      <trkpt lat="46.75156" lon="4.9032">
        <ele>189.6</ele>
        <time>2024-09-18T10:13:16Z</time>
      </trkpt>
      <trkpt lat="46.75153" lon="4.90322">
        <ele>189.6</ele>
        <time>2024-09-18T10:13:17Z</time>
      </trkpt>
      <trkpt lat="46.75149" lon="4.90325">
        <ele>189.6</ele>
        <time>2024-09-18T10:13:18Z</time>
      </trkpt>
      <trkpt lat="46.75146" lon="4.90328">
        <ele>189.8</ele>
        <time>2024-09-18T10:13:19Z</time>
      </trkpt>
      <trkpt lat="46.75142" lon="4.90331">
        <ele>189.8</ele>
        <time>2024-09-18T10:13:20Z</time>
      </trkpt>
      <trkpt lat="46.75139" lon="4.90333">
        <ele>189.8</ele>
        <time>2024-09-18T10:13:21Z</time>
      </trkpt>
      <trkpt lat="46.75135" lon="4.90336">
        <ele>189.8</ele>
        <time>2024-09-18T10:13:22Z</time>
      </trkpt>
      <trkpt lat="46.75132" lon="4.9034">
        <ele>189.8</ele>
        <time>2024-09-18T10:13:23Z</time>
      </trkpt>
      <trkpt lat="46.75128" lon="4.90343">
        <ele>189.8</ele>
        <time>2024-09-18T10:13:24Z</time>
      </trkpt>
      <trkpt lat="46.75125" lon="4.90347">
        <ele>189.8</ele>
        <time>2024-09-18T10:13:25Z</time>
      </trkpt>
      <trkpt lat="46.75121" lon="4.90349">
        <ele>189.8</ele>
        <time>2024-09-18T10:13:26Z</time>
      </trkpt>
      <trkpt lat="46.75116" lon="4.90354">
        <ele>189.8</ele>
        <time>2024-09-18T10:13:27Z</time>
      </trkpt>
      <trkpt lat="46.75114" lon="4.90356">
        <ele>190</ele>
        <time>2024-09-18T10:13:28Z</time>
      </trkpt>
      <trkpt lat="46.75111" lon="4.90358">
        <ele>190</ele>
        <time>2024-09-18T10:13:29Z</time>
      </trkpt>
      <trkpt lat="46.75107" lon="4.90361">
        <ele>190</ele>
        <time>2024-09-18T10:13:30Z</time>
      </trkpt>
      <trkpt lat="46.75104" lon="4.90364">
        <ele>190</ele>
        <time>2024-09-18T10:13:31Z</time>
      </trkpt>
      <trkpt lat="46.75102" lon="4.90367">
        <ele>190</ele>
        <time>2024-09-18T10:13:32Z</time>
      </trkpt>
      <trkpt lat="46.751" lon="4.90368">
        <ele>190.2</ele>
        <time>2024-09-18T10:13:33Z</time>
      </trkpt>
      <trkpt lat="46.75099" lon="4.90369">
        <ele>190.2</ele>
        <time>2024-09-18T10:13:34Z</time>
      </trkpt>
      <trkpt lat="46.75096" lon="4.90372">
        <ele>190.4</ele>
        <time>2024-09-18T10:13:41Z</time>
      </trkpt>
      <trkpt lat="46.75094" lon="4.90374">
        <ele>190.4</ele>
        <time>2024-09-18T10:13:42Z</time>
      </trkpt>
      <trkpt lat="46.75092" lon="4.90376">
        <ele>190.4</ele>
        <time>2024-09-18T10:13:43Z</time>
      </trkpt>
      <trkpt lat="46.7509" lon="4.90378">
        <ele>190.4</ele>
        <time>2024-09-18T10:13:44Z</time>
      </trkpt>
      <trkpt lat="46.75087" lon="4.90379">
        <ele>190.4</ele>
        <time>2024-09-18T10:13:45Z</time>
      </trkpt>
      <trkpt lat="46.75085" lon="4.90379">
        <ele>190.4</ele>
        <time>2024-09-18T10:13:46Z</time>
      </trkpt>
      <trkpt lat="46.75082" lon="4.9038">
        <ele>190.4</ele>
        <time>2024-09-18T10:13:47Z</time>
      </trkpt>
      <trkpt lat="46.7508" lon="4.90381">
        <ele>190.4</ele>
        <time>2024-09-18T10:13:48Z</time>
      </trkpt>
      <trkpt lat="46.75078" lon="4.90381">
        <ele>190.6</ele>
        <time>2024-09-18T10:13:49Z</time>
      </trkpt>
      <trkpt lat="46.75075" lon="4.90382">
        <ele>190.6</ele>
        <time>2024-09-18T10:13:50Z</time>
      </trkpt>
      <trkpt lat="46.75073" lon="4.90383">
        <ele>190.6</ele>
        <time>2024-09-18T10:13:51Z</time>
      </trkpt>
      <trkpt lat="46.75071" lon="4.90385">
        <ele>190.6</ele>
        <time>2024-09-18T10:13:52Z</time>
      </trkpt>
      <trkpt lat="46.75068" lon="4.90387">
        <ele>190.6</ele>
        <time>2024-09-18T10:13:53Z</time>
      </trkpt>
      <trkpt lat="46.75065" lon="4.9039">
        <ele>191</ele>
        <time>2024-09-18T10:13:54Z</time>
      </trkpt>
      <trkpt lat="46.75063" lon="4.90393">
        <ele>191</ele>
        <time>2024-09-18T10:13:55Z</time>
      </trkpt>
      <trkpt lat="46.7506" lon="4.90396">
        <ele>190.8</ele>
        <time>2024-09-18T10:13:56Z</time>
      </trkpt>
      <trkpt lat="46.75057" lon="4.90399">
        <ele>190.8</ele>
        <time>2024-09-18T10:13:57Z</time>
      </trkpt>
      <trkpt lat="46.75054" lon="4.90402">
        <ele>191.2</ele>
        <time>2024-09-18T10:13:58Z</time>
      </trkpt>
      <trkpt lat="46.75051" lon="4.90405">
        <ele>191.2</ele>
        <time>2024-09-18T10:13:59Z</time>
      </trkpt>
      <trkpt lat="46.75048" lon="4.90408">
        <ele>191</ele>
        <time>2024-09-18T10:14:00Z</time>
      </trkpt>
      <trkpt lat="46.75045" lon="4.90412">
        <ele>191</ele>
        <time>2024-09-18T10:14:01Z</time>
      </trkpt>
      <trkpt lat="46.75042" lon="4.90415">
        <ele>191.4</ele>
        <time>2024-09-18T10:14:02Z</time>
      </trkpt>
      <trkpt lat="46.75039" lon="4.90419">
        <ele>191.4</ele>
        <time>2024-09-18T10:14:03Z</time>
      </trkpt>
      <trkpt lat="46.75036" lon="4.90423">
        <ele>191.6</ele>
        <time>2024-09-18T10:14:04Z</time>
      </trkpt>
      <trkpt lat="46.75033" lon="4.90426">
        <ele>191.6</ele>
        <time>2024-09-18T10:14:05Z</time>
      </trkpt>
      <trkpt lat="46.7503" lon="4.90429">
        <ele>191.6</ele>
        <time>2024-09-18T10:14:06Z</time>
      </trkpt>
      <trkpt lat="46.75028" lon="4.90432">
        <ele>191.6</ele>
        <time>2024-09-18T10:14:07Z</time>
      </trkpt>
      <trkpt lat="46.75025" lon="4.90435">
        <ele>191.6</ele>
        <time>2024-09-18T10:14:08Z</time>
      </trkpt>
      <trkpt lat="46.75023" lon="4.90438">
        <ele>191.6</ele>
        <time>2024-09-18T10:14:09Z</time>
      </trkpt>
      <trkpt lat="46.75021" lon="4.90442">
        <ele>191.6</ele>
        <time>2024-09-18T10:14:10Z</time>
      </trkpt>
      <trkpt lat="46.75018" lon="4.90446">
        <ele>192</ele>
        <time>2024-09-18T10:14:11Z</time>
      </trkpt>
      <trkpt lat="46.75016" lon="4.90449">
        <ele>192</ele>
        <time>2024-09-18T10:14:12Z</time>
      </trkpt>
      <trkpt lat="46.75013" lon="4.90453">
        <ele>192</ele>
        <time>2024-09-18T10:14:13Z</time>
      </trkpt>
      <trkpt lat="46.75011" lon="4.90456">
        <ele>192</ele>
        <time>2024-09-18T10:14:14Z</time>
      </trkpt>
      <trkpt lat="46.75009" lon="4.90458">
        <ele>192</ele>
        <time>2024-09-18T10:14:15Z</time>
      </trkpt>
      <trkpt lat="46.75007" lon="4.90462">
        <ele>192.4</ele>
        <time>2024-09-18T10:14:16Z</time>
      </trkpt>
      <trkpt lat="46.75004" lon="4.90465">
        <ele>192.2</ele>
        <time>2024-09-18T10:14:17Z</time>
      </trkpt>
      <trkpt lat="46.75002" lon="4.90468">
        <ele>192.2</ele>
        <time>2024-09-18T10:14:18Z</time>
      </trkpt>
      <trkpt lat="46.74999" lon="4.90472">
        <ele>192.2</ele>
        <time>2024-09-18T10:14:19Z</time>
      </trkpt>
      <trkpt lat="46.74996" lon="4.90476">
        <ele>192.4</ele>
        <time>2024-09-18T10:14:20Z</time>
      </trkpt>
      <trkpt lat="46.74993" lon="4.9048">
        <ele>192.4</ele>
        <time>2024-09-18T10:14:21Z</time>
      </trkpt>
      <trkpt lat="46.7499" lon="4.90483">
        <ele>192.4</ele>
        <time>2024-09-18T10:14:22Z</time>
      </trkpt>
      <trkpt lat="46.74987" lon="4.90487">
        <ele>192.4</ele>
        <time>2024-09-18T10:14:23Z</time>
      </trkpt>
      <trkpt lat="46.74983" lon="4.90493">
        <ele>192.4</ele>
        <time>2024-09-18T10:14:24Z</time>
      </trkpt>
      <trkpt lat="46.74981" lon="4.90494">
        <ele>192.4</ele>
        <time>2024-09-18T10:14:25Z</time>
      </trkpt>
      <trkpt lat="46.74978" lon="4.90498">
        <ele>192.4</ele>
        <time>2024-09-18T10:14:26Z</time>
      </trkpt>
      <trkpt lat="46.74975" lon="4.90502">
        <ele>192.4</ele>
        <time>2024-09-18T10:14:27Z</time>
      </trkpt>
      <trkpt lat="46.74973" lon="4.90505">
        <ele>192.4</ele>
        <time>2024-09-18T10:14:28Z</time>
      </trkpt>
      <trkpt lat="46.7497" lon="4.90509">
        <ele>192.4</ele>
        <time>2024-09-18T10:14:29Z</time>
      </trkpt>
      <trkpt lat="46.74968" lon="4.90513">
        <ele>192.4</ele>
        <time>2024-09-18T10:14:30Z</time>
      </trkpt>
      <trkpt lat="46.74965" lon="4.90516">
        <ele>192.4</ele>
        <time>2024-09-18T10:14:31Z</time>
      </trkpt>
      <trkpt lat="46.74963" lon="4.90519">
        <ele>192.4</ele>
        <time>2024-09-18T10:14:32Z</time>
      </trkpt>
      <trkpt lat="46.74961" lon="4.90522">
        <ele>192.4</ele>
        <time>2024-09-18T10:14:33Z</time>
      </trkpt>
      <trkpt lat="46.74958" lon="4.90525">
        <ele>192.4</ele>
        <time>2024-09-18T10:14:34Z</time>
      </trkpt>
      <trkpt lat="46.74956" lon="4.90528">
        <ele>192.6</ele>
        <time>2024-09-18T10:14:35Z</time>
      </trkpt>
      <trkpt lat="46.74953" lon="4.90532">
        <ele>192.6</ele>
        <time>2024-09-18T10:14:36Z</time>
      </trkpt>
      <trkpt lat="46.7495" lon="4.90536">
        <ele>192.6</ele>
        <time>2024-09-18T10:14:37Z</time>
      </trkpt>
      <trkpt lat="46.74948" lon="4.9054">
        <ele>192.6</ele>
        <time>2024-09-18T10:14:38Z</time>
      </trkpt>
      <trkpt lat="46.74945" lon="4.90545">
        <ele>192.8</ele>
        <time>2024-09-18T10:14:39Z</time>
      </trkpt>
      <trkpt lat="46.74943" lon="4.90549">
        <ele>193</ele>
        <time>2024-09-18T10:14:40Z</time>
      </trkpt>
      <trkpt lat="46.7494" lon="4.90553">
        <ele>193</ele>
        <time>2024-09-18T10:14:41Z</time>
      </trkpt>
      <trkpt lat="46.74938" lon="4.90558">
        <ele>193</ele>
        <time>2024-09-18T10:14:42Z</time>
      </trkpt>
      <trkpt lat="46.74936" lon="4.90562">
        <ele>193</ele>
        <time>2024-09-18T10:14:43Z</time>
      </trkpt>
      <trkpt lat="46.74933" lon="4.90566">
        <ele>193</ele>
        <time>2024-09-18T10:14:44Z</time>
      </trkpt>
      <trkpt lat="46.74931" lon="4.90571">
        <ele>193</ele>
        <time>2024-09-18T10:14:45Z</time>
      </trkpt>
      <trkpt lat="46.74928" lon="4.90575">
        <ele>193</ele>
        <time>2024-09-18T10:14:46Z</time>
      </trkpt>
      <trkpt lat="46.74926" lon="4.90579">
        <ele>193.2</ele>
        <time>2024-09-18T10:14:47Z</time>
      </trkpt>
      <trkpt lat="46.74923" lon="4.90584">
        <ele>193.2</ele>
        <time>2024-09-18T10:14:48Z</time>
      </trkpt>
      <trkpt lat="46.74921" lon="4.90589">
        <ele>193.2</ele>
        <time>2024-09-18T10:14:49Z</time>
      </trkpt>
      <trkpt lat="46.74919" lon="4.90594">
        <ele>193.2</ele>
        <time>2024-09-18T10:14:50Z</time>
      </trkpt>
      <trkpt lat="46.74918" lon="4.90599">
        <ele>193.2</ele>
        <time>2024-09-18T10:14:51Z</time>
      </trkpt>
      <trkpt lat="46.74916" lon="4.90603">
        <ele>193.2</ele>
        <time>2024-09-18T10:14:52Z</time>
      </trkpt>
      <trkpt lat="46.74914" lon="4.90607">
        <ele>193.4</ele>
        <time>2024-09-18T10:14:53Z</time>
      </trkpt>
      <trkpt lat="46.74912" lon="4.90611">
        <ele>193.4</ele>
        <time>2024-09-18T10:14:54Z</time>
      </trkpt>
      <trkpt lat="46.7491" lon="4.90614">
        <ele>193.4</ele>
        <time>2024-09-18T10:14:55Z</time>
      </trkpt>
      <trkpt lat="46.74909" lon="4.90618">
        <ele>193.8</ele>
        <time>2024-09-18T10:14:56Z</time>
      </trkpt>
      <trkpt lat="46.74908" lon="4.90621">
        <ele>193.6</ele>
        <time>2024-09-18T10:14:57Z</time>
      </trkpt>
      <trkpt lat="46.74906" lon="4.90625">
        <ele>193.6</ele>
        <time>2024-09-18T10:14:58Z</time>
      </trkpt>
      <trkpt lat="46.74905" lon="4.90628">
        <ele>193.6</ele>
        <time>2024-09-18T10:14:59Z</time>
      </trkpt>
      <trkpt lat="46.74903" lon="4.90632">
        <ele>193.6</ele>
        <time>2024-09-18T10:15:00Z</time>
      </trkpt>
      <trkpt lat="46.74901" lon="4.90636">
        <ele>193.6</ele>
        <time>2024-09-18T10:15:01Z</time>
      </trkpt>
      <trkpt lat="46.74899" lon="4.9064">
        <ele>193.6</ele>
        <time>2024-09-18T10:15:02Z</time>
      </trkpt>
      <trkpt lat="46.74897" lon="4.90645">
        <ele>193.6</ele>
        <time>2024-09-18T10:15:03Z</time>
      </trkpt>
      <trkpt lat="46.74895" lon="4.90649">
        <ele>193.6</ele>
        <time>2024-09-18T10:15:04Z</time>
      </trkpt>
      <trkpt lat="46.74893" lon="4.90654">
        <ele>193.8</ele>
        <time>2024-09-18T10:15:05Z</time>
      </trkpt>
      <trkpt lat="46.74891" lon="4.90659">
        <ele>193.8</ele>
        <time>2024-09-18T10:15:06Z</time>
      </trkpt>
      <trkpt lat="46.74889" lon="4.90663">
        <ele>193.8</ele>
        <time>2024-09-18T10:15:07Z</time>
      </trkpt>
      <trkpt lat="46.74887" lon="4.90668">
        <ele>193.8</ele>
        <time>2024-09-18T10:15:08Z</time>
      </trkpt>
      <trkpt lat="46.74885" lon="4.90673">
        <ele>193.8</ele>
        <time>2024-09-18T10:15:09Z</time>
      </trkpt>
      <trkpt lat="46.74883" lon="4.90678">
        <ele>193.8</ele>
        <time>2024-09-18T10:15:10Z</time>
      </trkpt>
      <trkpt lat="46.74881" lon="4.90683">
        <ele>194.2</ele>
        <time>2024-09-18T10:15:11Z</time>
      </trkpt>
      <trkpt lat="46.74879" lon="4.90688">
        <ele>194.2</ele>
        <time>2024-09-18T10:15:12Z</time>
      </trkpt>
      <trkpt lat="46.74876" lon="4.90693">
        <ele>194.2</ele>
        <time>2024-09-18T10:15:13Z</time>
      </trkpt>
      <trkpt lat="46.74874" lon="4.90698">
        <ele>194.2</ele>
        <time>2024-09-18T10:15:14Z</time>
      </trkpt>
      <trkpt lat="46.74872" lon="4.90703">
        <ele>194.2</ele>
        <time>2024-09-18T10:15:15Z</time>
      </trkpt>
      <trkpt lat="46.7487" lon="4.90708">
        <ele>194.4</ele>
        <time>2024-09-18T10:15:16Z</time>
      </trkpt>
      <trkpt lat="46.74868" lon="4.90713">
        <ele>194.4</ele>
        <time>2024-09-18T10:15:17Z</time>
      </trkpt>
      <trkpt lat="46.74866" lon="4.90717">
        <ele>194.4</ele>
        <time>2024-09-18T10:15:18Z</time>
      </trkpt>
      <trkpt lat="46.74865" lon="4.90722">
        <ele>194.4</ele>
        <time>2024-09-18T10:15:19Z</time>
      </trkpt>
      <trkpt lat="46.74862" lon="4.90727">
        <ele>194.6</ele>
        <time>2024-09-18T10:15:20Z</time>
      </trkpt>
      <trkpt lat="46.7486" lon="4.90732">
        <ele>194.6</ele>
        <time>2024-09-18T10:15:21Z</time>
      </trkpt>
      <trkpt lat="46.74858" lon="4.90737">
        <ele>194.6</ele>
        <time>2024-09-18T10:15:22Z</time>
      </trkpt>
      <trkpt lat="46.74856" lon="4.90742">
        <ele>194.6</ele>
        <time>2024-09-18T10:15:23Z</time>
      </trkpt>
      <trkpt lat="46.74854" lon="4.90748">
        <ele>194.6</ele>
        <time>2024-09-18T10:15:24Z</time>
      </trkpt>
      <trkpt lat="46.74852" lon="4.90753">
        <ele>194.6</ele>
        <time>2024-09-18T10:15:25Z</time>
      </trkpt>
      <trkpt lat="46.7485" lon="4.90757">
        <ele>194.6</ele>
        <time>2024-09-18T10:15:26Z</time>
      </trkpt>
      <trkpt lat="46.74848" lon="4.90762">
        <ele>194.6</ele>
        <time>2024-09-18T10:15:27Z</time>
      </trkpt>
      <trkpt lat="46.74845" lon="4.90767">
        <ele>194.6</ele>
        <time>2024-09-18T10:15:28Z</time>
      </trkpt>
      <trkpt lat="46.74843" lon="4.90772">
        <ele>194.8</ele>
        <time>2024-09-18T10:15:29Z</time>
      </trkpt>
      <trkpt lat="46.74841" lon="4.90777">
        <ele>194.8</ele>
        <time>2024-09-18T10:15:30Z</time>
      </trkpt>
      <trkpt lat="46.74839" lon="4.90782">
        <ele>194.8</ele>
        <time>2024-09-18T10:15:31Z</time>
      </trkpt>
      <trkpt lat="46.74837" lon="4.90787">
        <ele>194.8</ele>
        <time>2024-09-18T10:15:32Z</time>
      </trkpt>
      <trkpt lat="46.74835" lon="4.90792">
        <ele>195</ele>
        <time>2024-09-18T10:15:33Z</time>
      </trkpt>
      <trkpt lat="46.74832" lon="4.90797">
        <ele>195</ele>
        <time>2024-09-18T10:15:34Z</time>
      </trkpt>
      <trkpt lat="46.7483" lon="4.90802">
        <ele>195</ele>
        <time>2024-09-18T10:15:35Z</time>
      </trkpt>
      <trkpt lat="46.74828" lon="4.90807">
        <ele>195</ele>
        <time>2024-09-18T10:15:36Z</time>
      </trkpt>
      <trkpt lat="46.74826" lon="4.90812">
        <ele>195.2</ele>
        <time>2024-09-18T10:15:37Z</time>
      </trkpt>
      <trkpt lat="46.74824" lon="4.90817">
        <ele>195.2</ele>
        <time>2024-09-18T10:15:38Z</time>
      </trkpt>
      <trkpt lat="46.74822" lon="4.90822">
        <ele>195.2</ele>
        <time>2024-09-18T10:15:39Z</time>
      </trkpt>
      <trkpt lat="46.74819" lon="4.90829">
        <ele>195.2</ele>
        <time>2024-09-18T10:15:40Z</time>
      </trkpt>
      <trkpt lat="46.74818" lon="4.90832">
        <ele>195.6</ele>
        <time>2024-09-18T10:15:41Z</time>
      </trkpt>
      <trkpt lat="46.74816" lon="4.90837">
        <ele>195.6</ele>
        <time>2024-09-18T10:15:42Z</time>
      </trkpt>
      <trkpt lat="46.74814" lon="4.90841">
        <ele>195.6</ele>
        <time>2024-09-18T10:15:43Z</time>
      </trkpt>
      <trkpt lat="46.74812" lon="4.90847">
        <ele>195.6</ele>
        <time>2024-09-18T10:15:44Z</time>
      </trkpt>
      <trkpt lat="46.7481" lon="4.90851">
        <ele>195.8</ele>
        <time>2024-09-18T10:15:45Z</time>
      </trkpt>
      <trkpt lat="46.74808" lon="4.90856">
        <ele>195.8</ele>
        <time>2024-09-18T10:15:46Z</time>
      </trkpt>
      <trkpt lat="46.74806" lon="4.90861">
        <ele>195.8</ele>
        <time>2024-09-18T10:15:47Z</time>
      </trkpt>
      <trkpt lat="46.74804" lon="4.90866">
        <ele>195.8</ele>
        <time>2024-09-18T10:15:48Z</time>
      </trkpt>
      <trkpt lat="46.74802" lon="4.90871">
        <ele>195.8</ele>
        <time>2024-09-18T10:15:49Z</time>
      </trkpt>
      <trkpt lat="46.748" lon="4.90876">
        <ele>195.8</ele>
        <time>2024-09-18T10:15:50Z</time>
      </trkpt>
      <trkpt lat="46.74798" lon="4.90881">
        <ele>195.8</ele>
        <time>2024-09-18T10:15:51Z</time>
      </trkpt>
      <trkpt lat="46.74796" lon="4.90886">
        <ele>196</ele>
        <time>2024-09-18T10:15:52Z</time>
      </trkpt>
      <trkpt lat="46.74794" lon="4.90891">
        <ele>196</ele>
        <time>2024-09-18T10:15:53Z</time>
      </trkpt>
      <trkpt lat="46.74792" lon="4.90896">
        <ele>196</ele>
        <time>2024-09-18T10:15:54Z</time>
      </trkpt>
      <trkpt lat="46.74789" lon="4.90902">
        <ele>196</ele>
        <time>2024-09-18T10:15:55Z</time>
      </trkpt>
      <trkpt lat="46.74787" lon="4.90907">
        <ele>196.4</ele>
        <time>2024-09-18T10:15:56Z</time>
      </trkpt>
      <trkpt lat="46.74785" lon="4.90912">
        <ele>196.4</ele>
        <time>2024-09-18T10:15:57Z</time>
      </trkpt>
      <trkpt lat="46.74783" lon="4.90917">
        <ele>196.4</ele>
        <time>2024-09-18T10:15:58Z</time>
      </trkpt>
      <trkpt lat="46.74781" lon="4.90922">
        <ele>196.4</ele>
        <time>2024-09-18T10:15:59Z</time>
      </trkpt>
      <trkpt lat="46.74779" lon="4.90927">
        <ele>196.4</ele>
        <time>2024-09-18T10:16:00Z</time>
      </trkpt>
      <trkpt lat="46.74776" lon="4.90933">
        <ele>196.4</ele>
        <time>2024-09-18T10:16:01Z</time>
      </trkpt>
      <trkpt lat="46.74774" lon="4.90938">
        <ele>196.4</ele>
        <time>2024-09-18T10:16:02Z</time>
      </trkpt>
      <trkpt lat="46.74772" lon="4.90943">
        <ele>196.4</ele>
        <time>2024-09-18T10:16:03Z</time>
      </trkpt>
      <trkpt lat="46.7477" lon="4.90948">
        <ele>196.6</ele>
        <time>2024-09-18T10:16:04Z</time>
      </trkpt>
      <trkpt lat="46.74768" lon="4.90954">
        <ele>196.6</ele>
        <time>2024-09-18T10:16:05Z</time>
      </trkpt>
      <trkpt lat="46.74766" lon="4.90959">
        <ele>196.8</ele>
        <time>2024-09-18T10:16:06Z</time>
      </trkpt>
      <trkpt lat="46.74764" lon="4.90964">
        <ele>196.8</ele>
        <time>2024-09-18T10:16:07Z</time>
      </trkpt>
      <trkpt lat="46.74762" lon="4.90969">
        <ele>196.8</ele>
        <time>2024-09-18T10:16:08Z</time>
      </trkpt>
      <trkpt lat="46.7476" lon="4.90974">
        <ele>197</ele>
        <time>2024-09-18T10:16:09Z</time>
      </trkpt>
      <trkpt lat="46.74758" lon="4.90979">
        <ele>197</ele>
        <time>2024-09-18T10:16:10Z</time>
      </trkpt>
      <trkpt lat="46.74756" lon="4.90984">
        <ele>197</ele>
        <time>2024-09-18T10:16:11Z</time>
      </trkpt>
      <trkpt lat="46.74754" lon="4.90988">
        <ele>197.2</ele>
        <time>2024-09-18T10:16:12Z</time>
      </trkpt>
      <trkpt lat="46.74752" lon="4.90993">
        <ele>197.4</ele>
        <time>2024-09-18T10:16:13Z</time>
      </trkpt>
      <trkpt lat="46.7475" lon="4.90998">
        <ele>197.4</ele>
        <time>2024-09-18T10:16:14Z</time>
      </trkpt>
      <trkpt lat="46.74748" lon="4.91003">
        <ele>197.4</ele>
        <time>2024-09-18T10:16:15Z</time>
      </trkpt>
      <trkpt lat="46.74746" lon="4.91008">
        <ele>197.4</ele>
        <time>2024-09-18T10:16:16Z</time>
      </trkpt>
      <trkpt lat="46.74744" lon="4.91013">
        <ele>197.4</ele>
        <time>2024-09-18T10:16:17Z</time>
      </trkpt>
      <trkpt lat="46.74742" lon="4.91018">
        <ele>197.4</ele>
        <time>2024-09-18T10:16:18Z</time>
      </trkpt>
      <trkpt lat="46.7474" lon="4.91023">
        <ele>197.4</ele>
        <time>2024-09-18T10:16:19Z</time>
      </trkpt>
      <trkpt lat="46.74738" lon="4.91028">
        <ele>197.4</ele>
        <time>2024-09-18T10:16:20Z</time>
      </trkpt>
      <trkpt lat="46.74736" lon="4.91033">
        <ele>197.6</ele>
        <time>2024-09-18T10:16:21Z</time>
      </trkpt>
      <trkpt lat="46.74734" lon="4.91038">
        <ele>197.6</ele>
        <time>2024-09-18T10:16:22Z</time>
      </trkpt>
      <trkpt lat="46.74732" lon="4.91043">
        <ele>197.6</ele>
        <time>2024-09-18T10:16:23Z</time>
      </trkpt>
      <trkpt lat="46.7473" lon="4.91048">
        <ele>197.6</ele>
        <time>2024-09-18T10:16:24Z</time>
      </trkpt>
      <trkpt lat="46.74728" lon="4.91053">
        <ele>197.6</ele>
        <time>2024-09-18T10:16:25Z</time>
      </trkpt>
      <trkpt lat="46.74726" lon="4.91058">
        <ele>197.8</ele>
        <time>2024-09-18T10:16:26Z</time>
      </trkpt>
      <trkpt lat="46.74723" lon="4.91063">
        <ele>197.8</ele>
        <time>2024-09-18T10:16:27Z</time>
      </trkpt>
      <trkpt lat="46.74721" lon="4.91068">
        <ele>197.8</ele>
        <time>2024-09-18T10:16:28Z</time>
      </trkpt>
      <trkpt lat="46.74719" lon="4.91073">
        <ele>197.8</ele>
        <time>2024-09-18T10:16:29Z</time>
      </trkpt>
      <trkpt lat="46.74717" lon="4.91078">
        <ele>197.8</ele>
        <time>2024-09-18T10:16:30Z</time>
      </trkpt>
      <trkpt lat="46.74715" lon="4.91084">
        <ele>198.2</ele>
        <time>2024-09-18T10:16:31Z</time>
      </trkpt>
      <trkpt lat="46.74713" lon="4.91089">
        <ele>198.2</ele>
        <time>2024-09-18T10:16:32Z</time>
      </trkpt>
      <trkpt lat="46.74711" lon="4.91094">
        <ele>198.2</ele>
        <time>2024-09-18T10:16:33Z</time>
      </trkpt>
      <trkpt lat="46.74709" lon="4.91099">
        <ele>198.2</ele>
        <time>2024-09-18T10:16:34Z</time>
      </trkpt>
      <trkpt lat="46.74706" lon="4.91104">
        <ele>198.2</ele>
        <time>2024-09-18T10:16:35Z</time>
      </trkpt>
      <trkpt lat="46.74704" lon="4.91109">
        <ele>198.2</ele>
        <time>2024-09-18T10:16:36Z</time>
      </trkpt>
      <trkpt lat="46.74703" lon="4.91114">
        <ele>198.2</ele>
        <time>2024-09-18T10:16:37Z</time>
      </trkpt>
      <trkpt lat="46.747" lon="4.91118">
        <ele>198.2</ele>
        <time>2024-09-18T10:16:38Z</time>
      </trkpt>
      <trkpt lat="46.74698" lon="4.91123">
        <ele>198.2</ele>
        <time>2024-09-18T10:16:39Z</time>
      </trkpt>
      <trkpt lat="46.74697" lon="4.91128">
        <ele>198.4</ele>
        <time>2024-09-18T10:16:40Z</time>
      </trkpt>
      <trkpt lat="46.74695" lon="4.91133">
        <ele>198.4</ele>
        <time>2024-09-18T10:16:41Z</time>
      </trkpt>
      <trkpt lat="46.74693" lon="4.91138">
        <ele>198.4</ele>
        <time>2024-09-18T10:16:42Z</time>
      </trkpt>
      <trkpt lat="46.74691" lon="4.91143">
        <ele>198.4</ele>
        <time>2024-09-18T10:16:43Z</time>
      </trkpt>
      <trkpt lat="46.74689" lon="4.91148">
        <ele>198.6</ele>
        <time>2024-09-18T10:16:44Z</time>
      </trkpt>
      <trkpt lat="46.74687" lon="4.91153">
        <ele>198.6</ele>
        <time>2024-09-18T10:16:45Z</time>
      </trkpt>
      <trkpt lat="46.74684" lon="4.91158">
        <ele>198.6</ele>
        <time>2024-09-18T10:16:46Z</time>
      </trkpt>
      <trkpt lat="46.74682" lon="4.91163">
        <ele>198.6</ele>
        <time>2024-09-18T10:16:47Z</time>
      </trkpt>
      <trkpt lat="46.7468" lon="4.91168">
        <ele>198.6</ele>
        <time>2024-09-18T10:16:48Z</time>
      </trkpt>
      <trkpt lat="46.74678" lon="4.91173">
        <ele>198.6</ele>
        <time>2024-09-18T10:16:49Z</time>
      </trkpt>
      <trkpt lat="46.74675" lon="4.91178">
        <ele>198.6</ele>
        <time>2024-09-18T10:16:50Z</time>
      </trkpt>
      <trkpt lat="46.74674" lon="4.91182">
        <ele>198.6</ele>
        <time>2024-09-18T10:16:51Z</time>
      </trkpt>
      <trkpt lat="46.74672" lon="4.91186">
        <ele>198.6</ele>
        <time>2024-09-18T10:16:52Z</time>
      </trkpt>
      <trkpt lat="46.74671" lon="4.91191">
        <ele>198.6</ele>
        <time>2024-09-18T10:16:53Z</time>
      </trkpt>
      <trkpt lat="46.74669" lon="4.91194">
        <ele>198.8</ele>
        <time>2024-09-18T10:16:54Z</time>
      </trkpt>
      <trkpt lat="46.74667" lon="4.91198">
        <ele>198.8</ele>
        <time>2024-09-18T10:16:55Z</time>
      </trkpt>
      <trkpt lat="46.74665" lon="4.91202">
        <ele>198.8</ele>
        <time>2024-09-18T10:16:56Z</time>
      </trkpt>
      <trkpt lat="46.74664" lon="4.91206">
        <ele>199</ele>
        <time>2024-09-18T10:16:57Z</time>
      </trkpt>
      <trkpt lat="46.74662" lon="4.9121">
        <ele>198.8</ele>
        <time>2024-09-18T10:16:58Z</time>
      </trkpt>
      <trkpt lat="46.7466" lon="4.91215">
        <ele>198.8</ele>
        <time>2024-09-18T10:16:59Z</time>
      </trkpt>
      <trkpt lat="46.74658" lon="4.9122">
        <ele>198.8</ele>
        <time>2024-09-18T10:17:00Z</time>
      </trkpt>
      <trkpt lat="46.74656" lon="4.91225">
        <ele>198.8</ele>
        <time>2024-09-18T10:17:01Z</time>
      </trkpt>
      <trkpt lat="46.74653" lon="4.91231">
        <ele>199</ele>
        <time>2024-09-18T10:17:02Z</time>
      </trkpt>
      <trkpt lat="46.74651" lon="4.91236">
        <ele>199</ele>
        <time>2024-09-18T10:17:03Z</time>
      </trkpt>
      <trkpt lat="46.74649" lon="4.91242">
        <ele>199</ele>
        <time>2024-09-18T10:17:04Z</time>
      </trkpt>
      <trkpt lat="46.74647" lon="4.91247">
        <ele>199</ele>
        <time>2024-09-18T10:17:05Z</time>
      </trkpt>
      <trkpt lat="46.74644" lon="4.91253">
        <ele>199</ele>
        <time>2024-09-18T10:17:06Z</time>
      </trkpt>
      <trkpt lat="46.74642" lon="4.91258">
        <ele>199</ele>
        <time>2024-09-18T10:17:07Z</time>
      </trkpt>
      <trkpt lat="46.74639" lon="4.91264">
        <ele>199</ele>
        <time>2024-09-18T10:17:08Z</time>
      </trkpt>
      <trkpt lat="46.74637" lon="4.9127">
        <ele>199</ele>
        <time>2024-09-18T10:17:09Z</time>
      </trkpt>
      <trkpt lat="46.74634" lon="4.91278">
        <ele>199</ele>
        <time>2024-09-18T10:17:10Z</time>
      </trkpt>
      <trkpt lat="46.74633" lon="4.91281">
        <ele>199</ele>
        <time>2024-09-18T10:17:11Z</time>
      </trkpt>
      <trkpt lat="46.7463" lon="4.91287">
        <ele>199</ele>
        <time>2024-09-18T10:17:12Z</time>
      </trkpt>
      <trkpt lat="46.74628" lon="4.91292">
        <ele>199</ele>
        <time>2024-09-18T10:17:13Z</time>
      </trkpt>
      <trkpt lat="46.74625" lon="4.91297">
        <ele>199</ele>
        <time>2024-09-18T10:17:14Z</time>
      </trkpt>
      <trkpt lat="46.74623" lon="4.91302">
        <ele>199.2</ele>
        <time>2024-09-18T10:17:15Z</time>
      </trkpt>
      <trkpt lat="46.74621" lon="4.91308">
        <ele>199.2</ele>
        <time>2024-09-18T10:17:16Z</time>
      </trkpt>
      <trkpt lat="46.74619" lon="4.91313">
        <ele>199.2</ele>
        <time>2024-09-18T10:17:17Z</time>
      </trkpt>
      <trkpt lat="46.74616" lon="4.91318">
        <ele>199.2</ele>
        <time>2024-09-18T10:17:18Z</time>
      </trkpt>
      <trkpt lat="46.74614" lon="4.91324">
        <ele>199.2</ele>
        <time>2024-09-18T10:17:19Z</time>
      </trkpt>
      <trkpt lat="46.74612" lon="4.91329">
        <ele>199.2</ele>
        <time>2024-09-18T10:17:20Z</time>
      </trkpt>
      <trkpt lat="46.7461" lon="4.91334">
        <ele>199.4</ele>
        <time>2024-09-18T10:17:21Z</time>
      </trkpt>
      <trkpt lat="46.74608" lon="4.91339">
        <ele>199.4</ele>
        <time>2024-09-18T10:17:22Z</time>
      </trkpt>
      <trkpt lat="46.74606" lon="4.91344">
        <ele>199.4</ele>
        <time>2024-09-18T10:17:23Z</time>
      </trkpt>
      <trkpt lat="46.74604" lon="4.91349">
        <ele>199.4</ele>
        <time>2024-09-18T10:17:24Z</time>
      </trkpt>
      <trkpt lat="46.74601" lon="4.91354">
        <ele>199.6</ele>
        <time>2024-09-18T10:17:25Z</time>
      </trkpt>
      <trkpt lat="46.746" lon="4.91359">
        <ele>199.6</ele>
        <time>2024-09-18T10:17:26Z</time>
      </trkpt>
      <trkpt lat="46.74597" lon="4.91364">
        <ele>199.6</ele>
        <time>2024-09-18T10:17:27Z</time>
      </trkpt>
      <trkpt lat="46.74595" lon="4.91367">
        <ele>199.6</ele>
        <time>2024-09-18T10:17:28Z</time>
      </trkpt>
      <trkpt lat="46.74592" lon="4.91371">
        <ele>199.4</ele>
        <time>2024-09-18T10:17:29Z</time>
      </trkpt>
      <trkpt lat="46.7459" lon="4.91375">
        <ele>199.4</ele>
        <time>2024-09-18T10:17:30Z</time>
      </trkpt>
      <trkpt lat="46.74588" lon="4.91379">
        <ele>199.4</ele>
        <time>2024-09-18T10:17:31Z</time>
      </trkpt>
      <trkpt lat="46.74588" lon="4.91384">
        <ele>199.4</ele>
        <time>2024-09-18T10:17:32Z</time>
      </trkpt>
      <trkpt lat="46.74587" lon="4.91388">
        <ele>199.4</ele>
        <time>2024-09-18T10:17:33Z</time>
      </trkpt>
      <trkpt lat="46.74585" lon="4.91393">
        <ele>199.6</ele>
        <time>2024-09-18T10:17:34Z</time>
      </trkpt>
      <trkpt lat="46.74584" lon="4.91397">
        <ele>199.6</ele>
        <time>2024-09-18T10:17:35Z</time>
      </trkpt>
      <trkpt lat="46.74582" lon="4.91401">
        <ele>199.6</ele>
        <time>2024-09-18T10:17:36Z</time>
      </trkpt>
      <trkpt lat="46.74581" lon="4.91406">
        <ele>199.6</ele>
        <time>2024-09-18T10:17:37Z</time>
      </trkpt>
      <trkpt lat="46.74579" lon="4.9141">
        <ele>199.8</ele>
        <time>2024-09-18T10:17:38Z</time>
      </trkpt>
      <trkpt lat="46.74576" lon="4.91415">
        <ele>199.8</ele>
        <time>2024-09-18T10:17:39Z</time>
      </trkpt>
      <trkpt lat="46.74574" lon="4.91419">
        <ele>199.8</ele>
        <time>2024-09-18T10:17:40Z</time>
      </trkpt>
      <trkpt lat="46.74572" lon="4.91424">
        <ele>199.8</ele>
        <time>2024-09-18T10:17:41Z</time>
      </trkpt>
      <trkpt lat="46.7457" lon="4.91429">
        <ele>199.8</ele>
        <time>2024-09-18T10:17:42Z</time>
      </trkpt>
      <trkpt lat="46.74568" lon="4.91434">
        <ele>199.8</ele>
        <time>2024-09-18T10:17:43Z</time>
      </trkpt>
      <trkpt lat="46.74566" lon="4.9144">
        <ele>199.8</ele>
        <time>2024-09-18T10:17:44Z</time>
      </trkpt>
      <trkpt lat="46.74564" lon="4.91445">
        <ele>199.8</ele>
        <time>2024-09-18T10:17:45Z</time>
      </trkpt>
      <trkpt lat="46.74561" lon="4.91451">
        <ele>199.8</ele>
        <time>2024-09-18T10:17:46Z</time>
      </trkpt>
      <trkpt lat="46.74559" lon="4.91456">
        <ele>200.2</ele>
        <time>2024-09-18T10:17:47Z</time>
      </trkpt>
      <trkpt lat="46.74556" lon="4.91462">
        <ele>200.2</ele>
        <time>2024-09-18T10:17:48Z</time>
      </trkpt>
      <trkpt lat="46.74554" lon="4.91467">
        <ele>200.2</ele>
        <time>2024-09-18T10:17:49Z</time>
      </trkpt>
      <trkpt lat="46.74552" lon="4.91473">
        <ele>200.2</ele>
        <time>2024-09-18T10:17:50Z</time>
      </trkpt>
      <trkpt lat="46.74549" lon="4.91479">
        <ele>200.2</ele>
        <time>2024-09-18T10:17:51Z</time>
      </trkpt>
      <trkpt lat="46.74547" lon="4.91484">
        <ele>200.2</ele>
        <time>2024-09-18T10:17:52Z</time>
      </trkpt>
      <trkpt lat="46.74545" lon="4.9149">
        <ele>200.2</ele>
        <time>2024-09-18T10:17:53Z</time>
      </trkpt>
      <trkpt lat="46.74543" lon="4.91495">
        <ele>200.2</ele>
        <time>2024-09-18T10:17:54Z</time>
      </trkpt>
      <trkpt lat="46.7454" lon="4.91501">
        <ele>199.8</ele>
        <time>2024-09-18T10:17:55Z</time>
      </trkpt>
      <trkpt lat="46.74538" lon="4.91507">
        <ele>199.8</ele>
        <time>2024-09-18T10:17:56Z</time>
      </trkpt>
      <trkpt lat="46.74536" lon="4.91513">
        <ele>199.8</ele>
        <time>2024-09-18T10:17:57Z</time>
      </trkpt>
      <trkpt lat="46.74533" lon="4.91518">
        <ele>199.8</ele>
        <time>2024-09-18T10:17:58Z</time>
      </trkpt>
      <trkpt lat="46.74531" lon="4.91524">
        <ele>199.8</ele>
        <time>2024-09-18T10:17:59Z</time>
      </trkpt>
      <trkpt lat="46.74528" lon="4.91529">
        <ele>199.8</ele>
        <time>2024-09-18T10:18:00Z</time>
      </trkpt>
      <trkpt lat="46.74526" lon="4.91534">
        <ele>200.2</ele>
        <time>2024-09-18T10:18:01Z</time>
      </trkpt>
      <trkpt lat="46.74524" lon="4.9154">
        <ele>200.2</ele>
        <time>2024-09-18T10:18:02Z</time>
      </trkpt>
      <trkpt lat="46.74522" lon="4.91545">
        <ele>200.2</ele>
        <time>2024-09-18T10:18:03Z</time>
      </trkpt>
      <trkpt lat="46.7452" lon="4.9155">
        <ele>200.2</ele>
        <time>2024-09-18T10:18:04Z</time>
      </trkpt>
      <trkpt lat="46.74518" lon="4.91555">
        <ele>200.2</ele>
        <time>2024-09-18T10:18:05Z</time>
      </trkpt>
      <trkpt lat="46.74516" lon="4.91561">
        <ele>200.2</ele>
        <time>2024-09-18T10:18:06Z</time>
      </trkpt>
      <trkpt lat="46.74515" lon="4.91566">
        <ele>200.2</ele>
        <time>2024-09-18T10:18:07Z</time>
      </trkpt>
      <trkpt lat="46.74512" lon="4.91571">
        <ele>200.2</ele>
        <time>2024-09-18T10:18:08Z</time>
      </trkpt>
      <trkpt lat="46.7451" lon="4.91576">
        <ele>200.2</ele>
        <time>2024-09-18T10:18:09Z</time>
      </trkpt>
      <trkpt lat="46.74508" lon="4.91581">
        <ele>200.2</ele>
        <time>2024-09-18T10:18:10Z</time>
      </trkpt>
      <trkpt lat="46.74506" lon="4.91585">
        <ele>200.2</ele>
        <time>2024-09-18T10:18:11Z</time>
      </trkpt>
      <trkpt lat="46.74504" lon="4.9159">
        <ele>200.2</ele>
        <time>2024-09-18T10:18:12Z</time>
      </trkpt>
      <trkpt lat="46.74502" lon="4.91595">
        <ele>200.2</ele>
        <time>2024-09-18T10:18:13Z</time>
      </trkpt>
      <trkpt lat="46.745" lon="4.916">
        <ele>200.2</ele>
        <time>2024-09-18T10:18:14Z</time>
      </trkpt>
      <trkpt lat="46.74498" lon="4.91605">
        <ele>200.2</ele>
        <time>2024-09-18T10:18:15Z</time>
      </trkpt>
      <trkpt lat="46.74495" lon="4.9161">
        <ele>200.2</ele>
        <time>2024-09-18T10:18:16Z</time>
      </trkpt>
      <trkpt lat="46.74493" lon="4.91615">
        <ele>200.2</ele>
        <time>2024-09-18T10:18:17Z</time>
      </trkpt>
      <trkpt lat="46.74491" lon="4.91621">
        <ele>200.2</ele>
        <time>2024-09-18T10:18:18Z</time>
      </trkpt>
      <trkpt lat="46.74489" lon="4.91627">
        <ele>200.2</ele>
        <time>2024-09-18T10:18:19Z</time>
      </trkpt>
      <trkpt lat="46.74486" lon="4.91632">
        <ele>200.2</ele>
        <time>2024-09-18T10:18:20Z</time>
      </trkpt>
      <trkpt lat="46.74484" lon="4.91638">
        <ele>200.2</ele>
        <time>2024-09-18T10:18:21Z</time>
      </trkpt>
      <trkpt lat="46.74481" lon="4.91643">
        <ele>200.2</ele>
        <time>2024-09-18T10:18:22Z</time>
      </trkpt>
      <trkpt lat="46.74479" lon="4.91648">
        <ele>200.4</ele>
        <time>2024-09-18T10:18:23Z</time>
      </trkpt>
      <trkpt lat="46.74476" lon="4.91654">
        <ele>200.4</ele>
        <time>2024-09-18T10:18:24Z</time>
      </trkpt>
      <trkpt lat="46.74474" lon="4.9166">
        <ele>200.4</ele>
        <time>2024-09-18T10:18:25Z</time>
      </trkpt>
      <trkpt lat="46.74471" lon="4.91666">
        <ele>200.4</ele>
        <time>2024-09-18T10:18:26Z</time>
      </trkpt>
      <trkpt lat="46.74469" lon="4.91671">
        <ele>200.4</ele>
        <time>2024-09-18T10:18:27Z</time>
      </trkpt>
      <trkpt lat="46.74467" lon="4.91677">
        <ele>200.6</ele>
        <time>2024-09-18T10:18:28Z</time>
      </trkpt>
      <trkpt lat="46.74465" lon="4.91683">
        <ele>200.6</ele>
        <time>2024-09-18T10:18:29Z</time>
      </trkpt>
      <trkpt lat="46.74463" lon="4.91688">
        <ele>200.6</ele>
        <time>2024-09-18T10:18:30Z</time>
      </trkpt>
      <trkpt lat="46.7446" lon="4.91694">
        <ele>200.6</ele>
        <time>2024-09-18T10:18:31Z</time>
      </trkpt>
      <trkpt lat="46.74457" lon="4.91702">
        <ele>200.6</ele>
        <time>2024-09-18T10:18:32Z</time>
      </trkpt>
      <trkpt lat="46.74455" lon="4.91705">
        <ele>200.6</ele>
        <time>2024-09-18T10:18:33Z</time>
      </trkpt>
      <trkpt lat="46.74453" lon="4.91711">
        <ele>200.6</ele>
        <time>2024-09-18T10:18:34Z</time>
      </trkpt>
      <trkpt lat="46.74451" lon="4.91717">
        <ele>200.6</ele>
        <time>2024-09-18T10:18:35Z</time>
      </trkpt>
      <trkpt lat="46.74448" lon="4.91723">
        <ele>200.4</ele>
        <time>2024-09-18T10:18:36Z</time>
      </trkpt>
      <trkpt lat="46.74445" lon="4.91729">
        <ele>200.4</ele>
        <time>2024-09-18T10:18:37Z</time>
      </trkpt>
      <trkpt lat="46.74443" lon="4.91735">
        <ele>200.4</ele>
        <time>2024-09-18T10:18:38Z</time>
      </trkpt>
      <trkpt lat="46.7444" lon="4.91741">
        <ele>200.4</ele>
        <time>2024-09-18T10:18:39Z</time>
      </trkpt>
      <trkpt lat="46.74438" lon="4.91747">
        <ele>200.4</ele>
        <time>2024-09-18T10:18:40Z</time>
      </trkpt>
      <trkpt lat="46.74435" lon="4.91753">
        <ele>200.6</ele>
        <time>2024-09-18T10:18:41Z</time>
      </trkpt>
      <trkpt lat="46.74433" lon="4.91759">
        <ele>200.6</ele>
        <time>2024-09-18T10:18:42Z</time>
      </trkpt>
      <trkpt lat="46.74431" lon="4.91765">
        <ele>200.6</ele>
        <time>2024-09-18T10:18:43Z</time>
      </trkpt>
      <trkpt lat="46.74428" lon="4.91771">
        <ele>200.6</ele>
        <time>2024-09-18T10:18:44Z</time>
      </trkpt>
      <trkpt lat="46.74426" lon="4.91777">
        <ele>200.6</ele>
        <time>2024-09-18T10:18:45Z</time>
      </trkpt>
      <trkpt lat="46.74423" lon="4.91783">
        <ele>200.4</ele>
        <time>2024-09-18T10:18:46Z</time>
      </trkpt>
      <trkpt lat="46.74421" lon="4.91789">
        <ele>200.4</ele>
        <time>2024-09-18T10:18:47Z</time>
      </trkpt>
      <trkpt lat="46.74418" lon="4.91795">
        <ele>200.4</ele>
        <time>2024-09-18T10:18:48Z</time>
      </trkpt>
      <trkpt lat="46.74416" lon="4.91801">
        <ele>200.4</ele>
        <time>2024-09-18T10:18:49Z</time>
      </trkpt>
      <trkpt lat="46.74414" lon="4.91807">
        <ele>200.2</ele>
        <time>2024-09-18T10:18:50Z</time>
      </trkpt>
      <trkpt lat="46.74411" lon="4.91813">
        <ele>200.2</ele>
        <time>2024-09-18T10:18:51Z</time>
      </trkpt>
      <trkpt lat="46.74408" lon="4.91819">
        <ele>200.2</ele>
        <time>2024-09-18T10:18:52Z</time>
      </trkpt>
      <trkpt lat="46.74405" lon="4.91824">
        <ele>200.2</ele>
        <time>2024-09-18T10:18:53Z</time>
      </trkpt>
      <trkpt lat="46.74403" lon="4.9183">
        <ele>200.2</ele>
        <time>2024-09-18T10:18:54Z</time>
      </trkpt>
      <trkpt lat="46.74401" lon="4.91836">
        <ele>200.2</ele>
        <time>2024-09-18T10:18:55Z</time>
      </trkpt>
      <trkpt lat="46.74399" lon="4.91842">
        <ele>200.2</ele>
        <time>2024-09-18T10:18:56Z</time>
      </trkpt>
      <trkpt lat="46.74397" lon="4.91847">
        <ele>200.2</ele>
        <time>2024-09-18T10:18:57Z</time>
      </trkpt>
      <trkpt lat="46.74394" lon="4.91852">
        <ele>200.2</ele>
        <time>2024-09-18T10:18:58Z</time>
      </trkpt>
      <trkpt lat="46.74392" lon="4.91857">
        <ele>200.2</ele>
        <time>2024-09-18T10:18:59Z</time>
      </trkpt>
      <trkpt lat="46.7439" lon="4.91861">
        <ele>200.2</ele>
        <time>2024-09-18T10:19:00Z</time>
      </trkpt>
      <trkpt lat="46.74388" lon="4.91865">
        <ele>200.2</ele>
        <time>2024-09-18T10:19:01Z</time>
      </trkpt>
      <trkpt lat="46.74385" lon="4.91869">
        <ele>200.4</ele>
        <time>2024-09-18T10:19:02Z</time>
      </trkpt>
      <trkpt lat="46.74383" lon="4.91874">
        <ele>200.4</ele>
        <time>2024-09-18T10:19:03Z</time>
      </trkpt>
      <trkpt lat="46.74382" lon="4.91879">
        <ele>200.4</ele>
        <time>2024-09-18T10:19:04Z</time>
      </trkpt>
      <trkpt lat="46.7438" lon="4.91884">
        <ele>200.4</ele>
        <time>2024-09-18T10:19:05Z</time>
      </trkpt>
      <trkpt lat="46.74379" lon="4.91889">
        <ele>200.4</ele>
        <time>2024-09-18T10:19:06Z</time>
      </trkpt>
      <trkpt lat="46.74377" lon="4.91893">
        <ele>200.4</ele>
        <time>2024-09-18T10:19:07Z</time>
      </trkpt>
      <trkpt lat="46.74375" lon="4.91898">
        <ele>200.4</ele>
        <time>2024-09-18T10:19:08Z</time>
      </trkpt>
      <trkpt lat="46.74373" lon="4.91902">
        <ele>200.4</ele>
        <time>2024-09-18T10:19:09Z</time>
      </trkpt>
      <trkpt lat="46.74372" lon="4.91906">
        <ele>200.4</ele>
        <time>2024-09-18T10:19:10Z</time>
      </trkpt>
      <trkpt lat="46.7437" lon="4.9191">
        <ele>200.2</ele>
        <time>2024-09-18T10:19:11Z</time>
      </trkpt>
      <trkpt lat="46.74368" lon="4.91915">
        <ele>200.2</ele>
        <time>2024-09-18T10:19:12Z</time>
      </trkpt>
      <trkpt lat="46.74366" lon="4.9192">
        <ele>200.2</ele>
        <time>2024-09-18T10:19:13Z</time>
      </trkpt>
      <trkpt lat="46.74363" lon="4.91928">
        <ele>200.2</ele>
        <time>2024-09-18T10:19:14Z</time>
      </trkpt>
      <trkpt lat="46.74361" lon="4.91931">
        <ele>200.2</ele>
        <time>2024-09-18T10:19:15Z</time>
      </trkpt>
      <trkpt lat="46.74359" lon="4.91936">
        <ele>200.2</ele>
        <time>2024-09-18T10:19:16Z</time>
      </trkpt>
      <trkpt lat="46.74357" lon="4.91942">
        <ele>200.2</ele>
        <time>2024-09-18T10:19:17Z</time>
      </trkpt>
      <trkpt lat="46.74355" lon="4.91947">
        <ele>200.2</ele>
        <time>2024-09-18T10:19:18Z</time>
      </trkpt>
      <trkpt lat="46.74352" lon="4.91953">
        <ele>200.2</ele>
        <time>2024-09-18T10:19:19Z</time>
      </trkpt>
      <trkpt lat="46.7435" lon="4.91959">
        <ele>200.2</ele>
        <time>2024-09-18T10:19:20Z</time>
      </trkpt>
      <trkpt lat="46.74348" lon="4.91965">
        <ele>200.2</ele>
        <time>2024-09-18T10:19:21Z</time>
      </trkpt>
      <trkpt lat="46.74346" lon="4.91971">
        <ele>200.2</ele>
        <time>2024-09-18T10:19:22Z</time>
      </trkpt>
      <trkpt lat="46.74343" lon="4.91977">
        <ele>200.2</ele>
        <time>2024-09-18T10:19:23Z</time>
      </trkpt>
      <trkpt lat="46.74341" lon="4.91982">
        <ele>200.2</ele>
        <time>2024-09-18T10:19:24Z</time>
      </trkpt>
      <trkpt lat="46.74339" lon="4.91988">
        <ele>200.2</ele>
        <time>2024-09-18T10:19:25Z</time>
      </trkpt>
      <trkpt lat="46.74336" lon="4.91993">
        <ele>200</ele>
        <time>2024-09-18T10:19:26Z</time>
      </trkpt>
      <trkpt lat="46.74334" lon="4.91999">
        <ele>200</ele>
        <time>2024-09-18T10:19:27Z</time>
      </trkpt>
      <trkpt lat="46.74332" lon="4.92005">
        <ele>200</ele>
        <time>2024-09-18T10:19:28Z</time>
      </trkpt>
      <trkpt lat="46.74329" lon="4.92011">
        <ele>200</ele>
        <time>2024-09-18T10:19:29Z</time>
      </trkpt>
      <trkpt lat="46.74326" lon="4.92016">
        <ele>200</ele>
        <time>2024-09-18T10:19:30Z</time>
      </trkpt>
      <trkpt lat="46.74324" lon="4.92022">
        <ele>199.8</ele>
        <time>2024-09-18T10:19:31Z</time>
      </trkpt>
      <trkpt lat="46.74321" lon="4.92027">
        <ele>199.8</ele>
        <time>2024-09-18T10:19:32Z</time>
      </trkpt>
      <trkpt lat="46.74319" lon="4.92033">
        <ele>199.8</ele>
        <time>2024-09-18T10:19:33Z</time>
      </trkpt>
      <trkpt lat="46.74316" lon="4.92038">
        <ele>200</ele>
        <time>2024-09-18T10:19:34Z</time>
      </trkpt>
      <trkpt lat="46.74314" lon="4.92044">
        <ele>200</ele>
        <time>2024-09-18T10:19:35Z</time>
      </trkpt>
      <trkpt lat="46.74312" lon="4.92049">
        <ele>200</ele>
        <time>2024-09-18T10:19:36Z</time>
      </trkpt>
      <trkpt lat="46.74309" lon="4.92054">
        <ele>200</ele>
        <time>2024-09-18T10:19:37Z</time>
      </trkpt>
      <trkpt lat="46.74307" lon="4.9206">
        <ele>200</ele>
        <time>2024-09-18T10:19:38Z</time>
      </trkpt>
      <trkpt lat="46.74304" lon="4.92065">
        <ele>200</ele>
        <time>2024-09-18T10:19:39Z</time>
      </trkpt>
      <trkpt lat="46.74302" lon="4.92071">
        <ele>200</ele>
        <time>2024-09-18T10:19:40Z</time>
      </trkpt>
      <trkpt lat="46.743" lon="4.92076">
        <ele>200</ele>
        <time>2024-09-18T10:19:41Z</time>
      </trkpt>
      <trkpt lat="46.74297" lon="4.92081">
        <ele>200</ele>
        <time>2024-09-18T10:19:42Z</time>
      </trkpt>
      <trkpt lat="46.74295" lon="4.92086">
        <ele>200.2</ele>
        <time>2024-09-18T10:19:43Z</time>
      </trkpt>
      <trkpt lat="46.74292" lon="4.92091">
        <ele>200.2</ele>
        <time>2024-09-18T10:19:44Z</time>
      </trkpt>
      <trkpt lat="46.74291" lon="4.92096">
        <ele>200.2</ele>
        <time>2024-09-18T10:19:45Z</time>
      </trkpt>
      <trkpt lat="46.74288" lon="4.92101">
        <ele>200.2</ele>
        <time>2024-09-18T10:19:46Z</time>
      </trkpt>
      <trkpt lat="46.74286" lon="4.92106">
        <ele>200.2</ele>
        <time>2024-09-18T10:19:47Z</time>
      </trkpt>
      <trkpt lat="46.74284" lon="4.92111">
        <ele>200.4</ele>
        <time>2024-09-18T10:19:48Z</time>
      </trkpt>
      <trkpt lat="46.74282" lon="4.92117">
        <ele>200.4</ele>
        <time>2024-09-18T10:19:49Z</time>
      </trkpt>
      <trkpt lat="46.74279" lon="4.92123">
        <ele>200.4</ele>
        <time>2024-09-18T10:19:50Z</time>
      </trkpt>
      <trkpt lat="46.74277" lon="4.92128">
        <ele>200.4</ele>
        <time>2024-09-18T10:19:51Z</time>
      </trkpt>
      <trkpt lat="46.74275" lon="4.92134">
        <ele>200.4</ele>
        <time>2024-09-18T10:19:52Z</time>
      </trkpt>
      <trkpt lat="46.74273" lon="4.92139">
        <ele>200.4</ele>
        <time>2024-09-18T10:19:53Z</time>
      </trkpt>
      <trkpt lat="46.7427" lon="4.92144">
        <ele>200.4</ele>
        <time>2024-09-18T10:19:54Z</time>
      </trkpt>
      <trkpt lat="46.74268" lon="4.9215">
        <ele>200.4</ele>
        <time>2024-09-18T10:19:55Z</time>
      </trkpt>
      <trkpt lat="46.74266" lon="4.92156">
        <ele>200.6</ele>
        <time>2024-09-18T10:19:56Z</time>
      </trkpt>
      <trkpt lat="46.74263" lon="4.92164">
        <ele>200.4</ele>
        <time>2024-09-18T10:19:57Z</time>
      </trkpt>
      <trkpt lat="46.74262" lon="4.92166">
        <ele>200.4</ele>
        <time>2024-09-18T10:19:58Z</time>
      </trkpt>
      <trkpt lat="46.7426" lon="4.92172">
        <ele>200.4</ele>
        <time>2024-09-18T10:19:59Z</time>
      </trkpt>
      <trkpt lat="46.74258" lon="4.92177">
        <ele>200.4</ele>
        <time>2024-09-18T10:20:00Z</time>
      </trkpt>
      <trkpt lat="46.74255" lon="4.92183">
        <ele>200.8</ele>
        <time>2024-09-18T10:20:01Z</time>
      </trkpt>
      <trkpt lat="46.74253" lon="4.92189">
        <ele>200.8</ele>
        <time>2024-09-18T10:20:02Z</time>
      </trkpt>
      <trkpt lat="46.74251" lon="4.92194">
        <ele>200.8</ele>
        <time>2024-09-18T10:20:03Z</time>
      </trkpt>
      <trkpt lat="46.74248" lon="4.92199">
        <ele>200.8</ele>
        <time>2024-09-18T10:20:04Z</time>
      </trkpt>
      <trkpt lat="46.74246" lon="4.92204">
        <ele>200.8</ele>
        <time>2024-09-18T10:20:05Z</time>
      </trkpt>
      <trkpt lat="46.74243" lon="4.92209">
        <ele>200.8</ele>
        <time>2024-09-18T10:20:06Z</time>
      </trkpt>
      <trkpt lat="46.74241" lon="4.92213">
        <ele>200.8</ele>
        <time>2024-09-18T10:20:07Z</time>
      </trkpt>
      <trkpt lat="46.74239" lon="4.92218">
        <ele>200.8</ele>
        <time>2024-09-18T10:20:08Z</time>
      </trkpt>
      <trkpt lat="46.74237" lon="4.92223">
        <ele>200.8</ele>
        <time>2024-09-18T10:20:09Z</time>
      </trkpt>
      <trkpt lat="46.74234" lon="4.92228">
        <ele>200.8</ele>
        <time>2024-09-18T10:20:10Z</time>
      </trkpt>
      <trkpt lat="46.74232" lon="4.92233">
        <ele>200.8</ele>
        <time>2024-09-18T10:20:11Z</time>
      </trkpt>
      <trkpt lat="46.7423" lon="4.92239">
        <ele>200.8</ele>
        <time>2024-09-18T10:20:12Z</time>
      </trkpt>
      <trkpt lat="46.74227" lon="4.92245">
        <ele>200.8</ele>
        <time>2024-09-18T10:20:13Z</time>
      </trkpt>
      <trkpt lat="46.74224" lon="4.92251">
        <ele>200.8</ele>
        <time>2024-09-18T10:20:14Z</time>
      </trkpt>
      <trkpt lat="46.7422" lon="4.92257">
        <ele>201</ele>
        <time>2024-09-18T10:20:15Z</time>
      </trkpt>
      <trkpt lat="46.74218" lon="4.92262">
        <ele>201</ele>
        <time>2024-09-18T10:20:16Z</time>
      </trkpt>
      <trkpt lat="46.74216" lon="4.92268">
        <ele>201</ele>
        <time>2024-09-18T10:20:17Z</time>
      </trkpt>
      <trkpt lat="46.74214" lon="4.92274">
        <ele>201</ele>
        <time>2024-09-18T10:20:18Z</time>
      </trkpt>
      <trkpt lat="46.74212" lon="4.9228">
        <ele>201</ele>
        <time>2024-09-18T10:20:19Z</time>
      </trkpt>
      <trkpt lat="46.7421" lon="4.92285">
        <ele>201</ele>
        <time>2024-09-18T10:20:20Z</time>
      </trkpt>
      <trkpt lat="46.74208" lon="4.92291">
        <ele>201</ele>
        <time>2024-09-18T10:20:21Z</time>
      </trkpt>
      <trkpt lat="46.74206" lon="4.92297">
        <ele>201</ele>
        <time>2024-09-18T10:20:22Z</time>
      </trkpt>
      <trkpt lat="46.74204" lon="4.92303">
        <ele>201</ele>
        <time>2024-09-18T10:20:23Z</time>
      </trkpt>
      <trkpt lat="46.74202" lon="4.92309">
        <ele>201</ele>
        <time>2024-09-18T10:20:24Z</time>
      </trkpt>
      <trkpt lat="46.74199" lon="4.92315">
        <ele>201</ele>
        <time>2024-09-18T10:20:25Z</time>
      </trkpt>
      <trkpt lat="46.74198" lon="4.9232">
        <ele>201</ele>
        <time>2024-09-18T10:20:26Z</time>
      </trkpt>
      <trkpt lat="46.74196" lon="4.92325">
        <ele>201</ele>
        <time>2024-09-18T10:20:27Z</time>
      </trkpt>
      <trkpt lat="46.74194" lon="4.9233">
        <ele>201</ele>
        <time>2024-09-18T10:20:28Z</time>
      </trkpt>
      <trkpt lat="46.74191" lon="4.92335">
        <ele>201</ele>
        <time>2024-09-18T10:20:29Z</time>
      </trkpt>
      <trkpt lat="46.74189" lon="4.92341">
        <ele>201</ele>
        <time>2024-09-18T10:20:30Z</time>
      </trkpt>
      <trkpt lat="46.74186" lon="4.92347">
        <ele>201</ele>
        <time>2024-09-18T10:20:31Z</time>
      </trkpt>
      <trkpt lat="46.74183" lon="4.92354">
        <ele>200.8</ele>
        <time>2024-09-18T10:20:32Z</time>
      </trkpt>
      <trkpt lat="46.74181" lon="4.92359">
        <ele>200.8</ele>
        <time>2024-09-18T10:20:33Z</time>
      </trkpt>
      <trkpt lat="46.74178" lon="4.92366">
        <ele>201</ele>
        <time>2024-09-18T10:20:34Z</time>
      </trkpt>
      <trkpt lat="46.74176" lon="4.92372">
        <ele>201</ele>
        <time>2024-09-18T10:20:35Z</time>
      </trkpt>
      <trkpt lat="46.74173" lon="4.92378">
        <ele>200.8</ele>
        <time>2024-09-18T10:20:36Z</time>
      </trkpt>
      <trkpt lat="46.74171" lon="4.92383">
        <ele>200.8</ele>
        <time>2024-09-18T10:20:37Z</time>
      </trkpt>
      <trkpt lat="46.74168" lon="4.92389">
        <ele>200.8</ele>
        <time>2024-09-18T10:20:38Z</time>
      </trkpt>
      <trkpt lat="46.74166" lon="4.92395">
        <ele>200.8</ele>
        <time>2024-09-18T10:20:39Z</time>
      </trkpt>
      <trkpt lat="46.74164" lon="4.924">
        <ele>200.8</ele>
        <time>2024-09-18T10:20:40Z</time>
      </trkpt>
      <trkpt lat="46.74161" lon="4.92405">
        <ele>200.8</ele>
        <time>2024-09-18T10:20:41Z</time>
      </trkpt>
      <trkpt lat="46.74159" lon="4.92411">
        <ele>200.8</ele>
        <time>2024-09-18T10:20:42Z</time>
      </trkpt>
      <trkpt lat="46.74157" lon="4.92418">
        <ele>200.8</ele>
        <time>2024-09-18T10:20:43Z</time>
      </trkpt>
      <trkpt lat="46.74155" lon="4.92424">
        <ele>200.8</ele>
        <time>2024-09-18T10:20:44Z</time>
      </trkpt>
      <trkpt lat="46.74153" lon="4.9243">
        <ele>200.8</ele>
        <time>2024-09-18T10:20:45Z</time>
      </trkpt>
      <trkpt lat="46.7415" lon="4.92436">
        <ele>200.8</ele>
        <time>2024-09-18T10:20:46Z</time>
      </trkpt>
      <trkpt lat="46.74147" lon="4.92443">
        <ele>200.8</ele>
        <time>2024-09-18T10:20:47Z</time>
      </trkpt>
      <trkpt lat="46.74145" lon="4.92449">
        <ele>200.8</ele>
        <time>2024-09-18T10:20:48Z</time>
      </trkpt>
      <trkpt lat="46.74142" lon="4.92456">
        <ele>200.8</ele>
        <time>2024-09-18T10:20:49Z</time>
      </trkpt>
      <trkpt lat="46.74139" lon="4.92463">
        <ele>200.6</ele>
        <time>2024-09-18T10:20:50Z</time>
      </trkpt>
      <trkpt lat="46.74136" lon="4.92469">
        <ele>200.6</ele>
        <time>2024-09-18T10:20:51Z</time>
      </trkpt>
      <trkpt lat="46.74133" lon="4.92476">
        <ele>200.6</ele>
        <time>2024-09-18T10:20:52Z</time>
      </trkpt>
      <trkpt lat="46.74131" lon="4.92482">
        <ele>200.6</ele>
        <time>2024-09-18T10:20:53Z</time>
      </trkpt>
      <trkpt lat="46.74126" lon="4.92492">
        <ele>200.6</ele>
        <time>2024-09-18T10:20:54Z</time>
      </trkpt>
      <trkpt lat="46.74125" lon="4.92495">
        <ele>200.6</ele>
        <time>2024-09-18T10:20:55Z</time>
      </trkpt>
      <trkpt lat="46.74123" lon="4.92502">
        <ele>200.4</ele>
        <time>2024-09-18T10:20:56Z</time>
      </trkpt>
      <trkpt lat="46.7412" lon="4.92508">
        <ele>200.4</ele>
        <time>2024-09-18T10:20:57Z</time>
      </trkpt>
      <trkpt lat="46.74118" lon="4.92515">
        <ele>200.4</ele>
        <time>2024-09-18T10:20:58Z</time>
      </trkpt>
      <trkpt lat="46.74115" lon="4.9252">
        <ele>200.4</ele>
        <time>2024-09-18T10:20:59Z</time>
      </trkpt>
      <trkpt lat="46.74112" lon="4.92527">
        <ele>200.4</ele>
        <time>2024-09-18T10:21:00Z</time>
      </trkpt>
      <trkpt lat="46.7411" lon="4.92533">
        <ele>200.4</ele>
        <time>2024-09-18T10:21:01Z</time>
      </trkpt>
      <trkpt lat="46.74107" lon="4.9254">
        <ele>200.4</ele>
        <time>2024-09-18T10:21:02Z</time>
      </trkpt>
      <trkpt lat="46.74104" lon="4.92546">
        <ele>200.4</ele>
        <time>2024-09-18T10:21:03Z</time>
      </trkpt>
      <trkpt lat="46.74102" lon="4.92551">
        <ele>200.4</ele>
        <time>2024-09-18T10:21:04Z</time>
      </trkpt>
      <trkpt lat="46.74099" lon="4.92558">
        <ele>200.2</ele>
        <time>2024-09-18T10:21:05Z</time>
      </trkpt>
      <trkpt lat="46.74096" lon="4.92563">
        <ele>200.2</ele>
        <time>2024-09-18T10:21:06Z</time>
      </trkpt>
      <trkpt lat="46.74094" lon="4.92569">
        <ele>200.2</ele>
        <time>2024-09-18T10:21:07Z</time>
      </trkpt>
      <trkpt lat="46.74091" lon="4.92576">
        <ele>200.2</ele>
        <time>2024-09-18T10:21:08Z</time>
      </trkpt>
      <trkpt lat="46.74088" lon="4.92582">
        <ele>199.8</ele>
        <time>2024-09-18T10:21:09Z</time>
      </trkpt>
      <trkpt lat="46.74086" lon="4.92588">
        <ele>199.8</ele>
        <time>2024-09-18T10:21:10Z</time>
      </trkpt>
      <trkpt lat="46.74083" lon="4.92594">
        <ele>199.8</ele>
        <time>2024-09-18T10:21:11Z</time>
      </trkpt>
      <trkpt lat="46.74081" lon="4.926">
        <ele>200</ele>
        <time>2024-09-18T10:21:12Z</time>
      </trkpt>
      <trkpt lat="46.74078" lon="4.92606">
        <ele>199.6</ele>
        <time>2024-09-18T10:21:13Z</time>
      </trkpt>
      <trkpt lat="46.74076" lon="4.92612">
        <ele>199.6</ele>
        <time>2024-09-18T10:21:14Z</time>
      </trkpt>
      <trkpt lat="46.74073" lon="4.92617">
        <ele>199.6</ele>
        <time>2024-09-18T10:21:15Z</time>
      </trkpt>
      <trkpt lat="46.74071" lon="4.92624">
        <ele>199.6</ele>
        <time>2024-09-18T10:21:16Z</time>
      </trkpt>
      <trkpt lat="46.74068" lon="4.9263">
        <ele>200</ele>
        <time>2024-09-18T10:21:17Z</time>
      </trkpt>
      <trkpt lat="46.74066" lon="4.92636">
        <ele>200</ele>
        <time>2024-09-18T10:21:18Z</time>
      </trkpt>
      <trkpt lat="46.74063" lon="4.92642">
        <ele>200.2</ele>
        <time>2024-09-18T10:21:19Z</time>
      </trkpt>
      <trkpt lat="46.74061" lon="4.92648">
        <ele>200.2</ele>
        <time>2024-09-18T10:21:20Z</time>
      </trkpt>
      <trkpt lat="46.74059" lon="4.92653">
        <ele>200.2</ele>
        <time>2024-09-18T10:21:21Z</time>
      </trkpt>
      <trkpt lat="46.74055" lon="4.92662">
        <ele>199</ele>
        <time>2024-09-18T10:21:22Z</time>
      </trkpt>
      <trkpt lat="46.74054" lon="4.92665">
        <ele>199</ele>
        <time>2024-09-18T10:21:23Z</time>
      </trkpt>
      <trkpt lat="46.74052" lon="4.9267">
        <ele>199</ele>
        <time>2024-09-18T10:21:24Z</time>
      </trkpt>
      <trkpt lat="46.74049" lon="4.92677">
        <ele>199</ele>
        <time>2024-09-18T10:21:25Z</time>
      </trkpt>
      <trkpt lat="46.74047" lon="4.92683">
        <ele>199.6</ele>
        <time>2024-09-18T10:21:26Z</time>
      </trkpt>
      <trkpt lat="46.74044" lon="4.9269">
        <ele>199.2</ele>
        <time>2024-09-18T10:21:27Z</time>
      </trkpt>
      <trkpt lat="46.74042" lon="4.92696">
        <ele>199.2</ele>
        <time>2024-09-18T10:21:28Z</time>
      </trkpt>
      <trkpt lat="46.74039" lon="4.92702">
        <ele>199.2</ele>
        <time>2024-09-18T10:21:29Z</time>
      </trkpt>
      <trkpt lat="46.74037" lon="4.92709">
        <ele>199.2</ele>
        <time>2024-09-18T10:21:30Z</time>
      </trkpt>
      <trkpt lat="46.74034" lon="4.92715">
        <ele>199.2</ele>
        <time>2024-09-18T10:21:31Z</time>
      </trkpt>
      <trkpt lat="46.74032" lon="4.92721">
        <ele>199.2</ele>
        <time>2024-09-18T10:21:32Z</time>
      </trkpt>
      <trkpt lat="46.74029" lon="4.92726">
        <ele>199.2</ele>
        <time>2024-09-18T10:21:33Z</time>
      </trkpt>
      <trkpt lat="46.74027" lon="4.92733">
        <ele>199.2</ele>
        <time>2024-09-18T10:21:34Z</time>
      </trkpt>
      <trkpt lat="46.74024" lon="4.92739">
        <ele>199.2</ele>
        <time>2024-09-18T10:21:35Z</time>
      </trkpt>
      <trkpt lat="46.74022" lon="4.92745">
        <ele>199.4</ele>
        <time>2024-09-18T10:21:36Z</time>
      </trkpt>
      <trkpt lat="46.74019" lon="4.92751">
        <ele>199.4</ele>
        <time>2024-09-18T10:21:37Z</time>
      </trkpt>
      <trkpt lat="46.74017" lon="4.92757">
        <ele>199.4</ele>
        <time>2024-09-18T10:21:38Z</time>
      </trkpt>
      <trkpt lat="46.74014" lon="4.92763">
        <ele>199.4</ele>
        <time>2024-09-18T10:21:39Z</time>
      </trkpt>
      <trkpt lat="46.74012" lon="4.92769">
        <ele>199.4</ele>
        <time>2024-09-18T10:21:40Z</time>
      </trkpt>
      <trkpt lat="46.7401" lon="4.92775">
        <ele>199</ele>
        <time>2024-09-18T10:21:41Z</time>
      </trkpt>
      <trkpt lat="46.74007" lon="4.92781">
        <ele>199</ele>
        <time>2024-09-18T10:21:42Z</time>
      </trkpt>
      <trkpt lat="46.74005" lon="4.92786">
        <ele>199</ele>
        <time>2024-09-18T10:21:43Z</time>
      </trkpt>
      <trkpt lat="46.74003" lon="4.92792">
        <ele>199</ele>
        <time>2024-09-18T10:21:44Z</time>
      </trkpt>
      <trkpt lat="46.74001" lon="4.92797">
        <ele>198.8</ele>
        <time>2024-09-18T10:21:45Z</time>
      </trkpt>
      <trkpt lat="46.73999" lon="4.92802">
        <ele>198.8</ele>
        <time>2024-09-18T10:21:46Z</time>
      </trkpt>
      <trkpt lat="46.73997" lon="4.92807">
        <ele>198.8</ele>
        <time>2024-09-18T10:21:47Z</time>
      </trkpt>
      <trkpt lat="46.73994" lon="4.92812">
        <ele>198.8</ele>
        <time>2024-09-18T10:21:48Z</time>
      </trkpt>
      <trkpt lat="46.73992" lon="4.92816">
        <ele>198.8</ele>
        <time>2024-09-18T10:21:49Z</time>
      </trkpt>
      <trkpt lat="46.73989" lon="4.92824">
        <ele>199</ele>
        <time>2024-09-18T10:21:50Z</time>
      </trkpt>
      <trkpt lat="46.73988" lon="4.92826">
        <ele>199</ele>
        <time>2024-09-18T10:21:51Z</time>
      </trkpt>
      <trkpt lat="46.73987" lon="4.92831">
        <ele>199</ele>
        <time>2024-09-18T10:21:52Z</time>
      </trkpt>
      <trkpt lat="46.73985" lon="4.92836">
        <ele>199</ele>
        <time>2024-09-18T10:21:53Z</time>
      </trkpt>
      <trkpt lat="46.73982" lon="4.9284">
        <ele>199</ele>
        <time>2024-09-18T10:21:54Z</time>
      </trkpt>
      <trkpt lat="46.7398" lon="4.92846">
        <ele>198.8</ele>
        <time>2024-09-18T10:21:55Z</time>
      </trkpt>
      <trkpt lat="46.73978" lon="4.92851">
        <ele>198.8</ele>
        <time>2024-09-18T10:21:56Z</time>
      </trkpt>
      <trkpt lat="46.73976" lon="4.92856">
        <ele>198.8</ele>
        <time>2024-09-18T10:21:57Z</time>
      </trkpt>
      <trkpt lat="46.73974" lon="4.92861">
        <ele>198.8</ele>
        <time>2024-09-18T10:21:58Z</time>
      </trkpt>
      <trkpt lat="46.73971" lon="4.92866">
        <ele>198.8</ele>
        <time>2024-09-18T10:21:59Z</time>
      </trkpt>
      <trkpt lat="46.7397" lon="4.92871">
        <ele>198.8</ele>
        <time>2024-09-18T10:22:00Z</time>
      </trkpt>
      <trkpt lat="46.73968" lon="4.92874">
        <ele>198.8</ele>
        <time>2024-09-18T10:22:01Z</time>
      </trkpt>
      <trkpt lat="46.73967" lon="4.92876">
        <ele>198.6</ele>
        <time>2024-09-18T10:22:02Z</time>
      </trkpt>
      <trkpt lat="46.73966" lon="4.92878">
        <ele>198.4</ele>
        <time>2024-09-18T10:22:03Z</time>
      </trkpt>
      <trkpt lat="46.73965" lon="4.9288">
        <ele>198.4</ele>
        <time>2024-09-18T10:22:04Z</time>
      </trkpt>
      <trkpt lat="46.73964" lon="4.92883">
        <ele>198.4</ele>
        <time>2024-09-18T10:22:05Z</time>
      </trkpt>
      <trkpt lat="46.73963" lon="4.92886">
        <ele>198.4</ele>
        <time>2024-09-18T10:22:06Z</time>
      </trkpt>
      <trkpt lat="46.73961" lon="4.92889">
        <ele>198.4</ele>
        <time>2024-09-18T10:22:07Z</time>
      </trkpt>
      <trkpt lat="46.7396" lon="4.92893">
        <ele>198.4</ele>
        <time>2024-09-18T10:22:08Z</time>
      </trkpt>
      <trkpt lat="46.73959" lon="4.92897">
        <ele>198.4</ele>
        <time>2024-09-18T10:22:09Z</time>
      </trkpt>
      <trkpt lat="46.73958" lon="4.92901">
        <ele>198.4</ele>
        <time>2024-09-18T10:22:10Z</time>
      </trkpt>
      <trkpt lat="46.73956" lon="4.92906">
        <ele>198.4</ele>
        <time>2024-09-18T10:22:11Z</time>
      </trkpt>
      <trkpt lat="46.73954" lon="4.9291">
        <ele>198.6</ele>
        <time>2024-09-18T10:22:12Z</time>
      </trkpt>
      <trkpt lat="46.73952" lon="4.92914">
        <ele>198.6</ele>
        <time>2024-09-18T10:22:13Z</time>
      </trkpt>
      <trkpt lat="46.7395" lon="4.92919">
        <ele>198.6</ele>
        <time>2024-09-18T10:22:14Z</time>
      </trkpt>
      <trkpt lat="46.73948" lon="4.92923">
        <ele>198.4</ele>
        <time>2024-09-18T10:22:15Z</time>
      </trkpt>
      <trkpt lat="46.73946" lon="4.92928">
        <ele>198.6</ele>
        <time>2024-09-18T10:22:16Z</time>
      </trkpt>
      <trkpt lat="46.73945" lon="4.92933">
        <ele>198.6</ele>
        <time>2024-09-18T10:22:17Z</time>
      </trkpt>
      <trkpt lat="46.73943" lon="4.92938">
        <ele>198.6</ele>
        <time>2024-09-18T10:22:18Z</time>
      </trkpt>
      <trkpt lat="46.73941" lon="4.92943">
        <ele>198.6</ele>
        <time>2024-09-18T10:22:19Z</time>
      </trkpt>
      <trkpt lat="46.73939" lon="4.92948">
        <ele>198.6</ele>
        <time>2024-09-18T10:22:20Z</time>
      </trkpt>
      <trkpt lat="46.73937" lon="4.92953">
        <ele>198.4</ele>
        <time>2024-09-18T10:22:21Z</time>
      </trkpt>
      <trkpt lat="46.73935" lon="4.92957">
        <ele>198.4</ele>
        <time>2024-09-18T10:22:22Z</time>
      </trkpt>
      <trkpt lat="46.73933" lon="4.92962">
        <ele>198.4</ele>
        <time>2024-09-18T10:22:23Z</time>
      </trkpt>
      <trkpt lat="46.73931" lon="4.92967">
        <ele>198.4</ele>
        <time>2024-09-18T10:22:24Z</time>
      </trkpt>
      <trkpt lat="46.73929" lon="4.92972">
        <ele>198.6</ele>
        <time>2024-09-18T10:22:25Z</time>
      </trkpt>
      <trkpt lat="46.73927" lon="4.92977">
        <ele>198.6</ele>
        <time>2024-09-18T10:22:26Z</time>
      </trkpt>
      <trkpt lat="46.73925" lon="4.92982">
        <ele>198.6</ele>
        <time>2024-09-18T10:22:27Z</time>
      </trkpt>
      <trkpt lat="46.73923" lon="4.92986">
        <ele>198.6</ele>
        <time>2024-09-18T10:22:28Z</time>
      </trkpt>
      <trkpt lat="46.73921" lon="4.92991">
        <ele>198.6</ele>
        <time>2024-09-18T10:22:29Z</time>
      </trkpt>
      <trkpt lat="46.73919" lon="4.92995">
        <ele>198.4</ele>
        <time>2024-09-18T10:22:30Z</time>
      </trkpt>
      <trkpt lat="46.73916" lon="4.92999">
        <ele>198.4</ele>
        <time>2024-09-18T10:22:31Z</time>
      </trkpt>
      <trkpt lat="46.73914" lon="4.93003">
        <ele>198.4</ele>
        <time>2024-09-18T10:22:32Z</time>
      </trkpt>
      <trkpt lat="46.73912" lon="4.93008">
        <ele>198.6</ele>
        <time>2024-09-18T10:22:33Z</time>
      </trkpt>
      <trkpt lat="46.73911" lon="4.93012">
        <ele>198.6</ele>
        <time>2024-09-18T10:22:34Z</time>
      </trkpt>
      <trkpt lat="46.7391" lon="4.93017">
        <ele>198.6</ele>
        <time>2024-09-18T10:22:35Z</time>
      </trkpt>
      <trkpt lat="46.73908" lon="4.93021">
        <ele>198.6</ele>
        <time>2024-09-18T10:22:36Z</time>
      </trkpt>
      <trkpt lat="46.73906" lon="4.93026">
        <ele>198.6</ele>
        <time>2024-09-18T10:22:37Z</time>
      </trkpt>
      <trkpt lat="46.73905" lon="4.9303">
        <ele>198.6</ele>
        <time>2024-09-18T10:22:38Z</time>
      </trkpt>
      <trkpt lat="46.73903" lon="4.93035">
        <ele>198.4</ele>
        <time>2024-09-18T10:22:39Z</time>
      </trkpt>
      <trkpt lat="46.73901" lon="4.9304">
        <ele>198.4</ele>
        <time>2024-09-18T10:22:40Z</time>
      </trkpt>
      <trkpt lat="46.73898" lon="4.93045">
        <ele>198.4</ele>
        <time>2024-09-18T10:22:41Z</time>
      </trkpt>
      <trkpt lat="46.73896" lon="4.93051">
        <ele>198.4</ele>
        <time>2024-09-18T10:22:42Z</time>
      </trkpt>
      <trkpt lat="46.73894" lon="4.93056">
        <ele>198.4</ele>
        <time>2024-09-18T10:22:43Z</time>
      </trkpt>
      <trkpt lat="46.73892" lon="4.93061">
        <ele>198.6</ele>
        <time>2024-09-18T10:22:44Z</time>
      </trkpt>
      <trkpt lat="46.7389" lon="4.93067">
        <ele>198.6</ele>
        <time>2024-09-18T10:22:45Z</time>
      </trkpt>
      <trkpt lat="46.73888" lon="4.93072">
        <ele>198.6</ele>
        <time>2024-09-18T10:22:46Z</time>
      </trkpt>
      <trkpt lat="46.73885" lon="4.93078">
        <ele>198.6</ele>
        <time>2024-09-18T10:22:47Z</time>
      </trkpt>
      <trkpt lat="46.73883" lon="4.93083">
        <ele>198.4</ele>
        <time>2024-09-18T10:22:48Z</time>
      </trkpt>
      <trkpt lat="46.73881" lon="4.93089">
        <ele>198.4</ele>
        <time>2024-09-18T10:22:49Z</time>
      </trkpt>
      <trkpt lat="46.73879" lon="4.93095">
        <ele>198.4</ele>
        <time>2024-09-18T10:22:50Z</time>
      </trkpt>
      <trkpt lat="46.73876" lon="4.931">
        <ele>198.4</ele>
        <time>2024-09-18T10:22:51Z</time>
      </trkpt>
      <trkpt lat="46.73874" lon="4.93106">
        <ele>198.4</ele>
        <time>2024-09-18T10:22:52Z</time>
      </trkpt>
      <trkpt lat="46.73871" lon="4.93112">
        <ele>198.6</ele>
        <time>2024-09-18T10:22:53Z</time>
      </trkpt>
      <trkpt lat="46.73869" lon="4.93117">
        <ele>198.6</ele>
        <time>2024-09-18T10:22:54Z</time>
      </trkpt>
      <trkpt lat="46.73867" lon="4.93123">
        <ele>198.6</ele>
        <time>2024-09-18T10:22:55Z</time>
      </trkpt>
      <trkpt lat="46.73865" lon="4.93129">
        <ele>198.4</ele>
        <time>2024-09-18T10:22:56Z</time>
      </trkpt>
      <trkpt lat="46.73862" lon="4.93134">
        <ele>198.4</ele>
        <time>2024-09-18T10:22:57Z</time>
      </trkpt>
      <trkpt lat="46.7386" lon="4.9314">
        <ele>198.4</ele>
        <time>2024-09-18T10:22:58Z</time>
      </trkpt>
      <trkpt lat="46.73857" lon="4.93146">
        <ele>198.4</ele>
        <time>2024-09-18T10:22:59Z</time>
      </trkpt>
      <trkpt lat="46.73855" lon="4.93151">
        <ele>198.4</ele>
        <time>2024-09-18T10:23:00Z</time>
      </trkpt>
      <trkpt lat="46.73853" lon="4.93157">
        <ele>198.4</ele>
        <time>2024-09-18T10:23:01Z</time>
      </trkpt>
      <trkpt lat="46.73851" lon="4.93162">
        <ele>199</ele>
        <time>2024-09-18T10:23:02Z</time>
      </trkpt>
      <trkpt lat="46.73848" lon="4.93168">
        <ele>199</ele>
        <time>2024-09-18T10:23:03Z</time>
      </trkpt>
      <trkpt lat="46.73846" lon="4.93173">
        <ele>199</ele>
        <time>2024-09-18T10:23:04Z</time>
      </trkpt>
      <trkpt lat="46.73844" lon="4.93179">
        <ele>198.6</ele>
        <time>2024-09-18T10:23:05Z</time>
      </trkpt>
      <trkpt lat="46.73841" lon="4.93185">
        <ele>199.4</ele>
        <time>2024-09-18T10:23:06Z</time>
      </trkpt>
      <trkpt lat="46.73838" lon="4.9319">
        <ele>199.4</ele>
        <time>2024-09-18T10:23:07Z</time>
      </trkpt>
      <trkpt lat="46.73836" lon="4.93196">
        <ele>199.4</ele>
        <time>2024-09-18T10:23:08Z</time>
      </trkpt>
      <trkpt lat="46.73834" lon="4.93201">
        <ele>199</ele>
        <time>2024-09-18T10:23:09Z</time>
      </trkpt>
      <trkpt lat="46.73831" lon="4.93207">
        <ele>199</ele>
        <time>2024-09-18T10:23:10Z</time>
      </trkpt>
      <trkpt lat="46.73829" lon="4.93212">
        <ele>199</ele>
        <time>2024-09-18T10:23:11Z</time>
      </trkpt>
      <trkpt lat="46.73827" lon="4.93218">
        <ele>199</ele>
        <time>2024-09-18T10:23:12Z</time>
      </trkpt>
      <trkpt lat="46.73825" lon="4.93223">
        <ele>199</ele>
        <time>2024-09-18T10:23:13Z</time>
      </trkpt>
      <trkpt lat="46.73822" lon="4.93229">
        <ele>199</ele>
        <time>2024-09-18T10:23:14Z</time>
      </trkpt>
      <trkpt lat="46.7382" lon="4.93234">
        <ele>199</ele>
        <time>2024-09-18T10:23:15Z</time>
      </trkpt>
      <trkpt lat="46.73818" lon="4.9324">
        <ele>199</ele>
        <time>2024-09-18T10:23:16Z</time>
      </trkpt>
      <trkpt lat="46.73816" lon="4.93245">
        <ele>199</ele>
        <time>2024-09-18T10:23:17Z</time>
      </trkpt>
      <trkpt lat="46.73813" lon="4.93251">
        <ele>199</ele>
        <time>2024-09-18T10:23:18Z</time>
      </trkpt>
      <trkpt lat="46.7381" lon="4.93257">
        <ele>199</ele>
        <time>2024-09-18T10:23:19Z</time>
      </trkpt>
      <trkpt lat="46.73808" lon="4.93263">
        <ele>199.2</ele>
        <time>2024-09-18T10:23:20Z</time>
      </trkpt>
      <trkpt lat="46.73805" lon="4.93268">
        <ele>199.2</ele>
        <time>2024-09-18T10:23:21Z</time>
      </trkpt>
      <trkpt lat="46.73803" lon="4.93274">
        <ele>199.2</ele>
        <time>2024-09-18T10:23:22Z</time>
      </trkpt>
      <trkpt lat="46.73801" lon="4.9328">
        <ele>199.2</ele>
        <time>2024-09-18T10:23:23Z</time>
      </trkpt>
      <trkpt lat="46.73798" lon="4.93285">
        <ele>199.4</ele>
        <time>2024-09-18T10:23:24Z</time>
      </trkpt>
      <trkpt lat="46.73796" lon="4.93291">
        <ele>199.4</ele>
        <time>2024-09-18T10:23:25Z</time>
      </trkpt>
      <trkpt lat="46.73794" lon="4.93297">
        <ele>199.4</ele>
        <time>2024-09-18T10:23:26Z</time>
      </trkpt>
      <trkpt lat="46.73791" lon="4.93303">
        <ele>199</ele>
        <time>2024-09-18T10:23:27Z</time>
      </trkpt>
      <trkpt lat="46.73788" lon="4.93309">
        <ele>199.6</ele>
        <time>2024-09-18T10:23:28Z</time>
      </trkpt>
      <trkpt lat="46.73785" lon="4.93315">
        <ele>199.6</ele>
        <time>2024-09-18T10:23:29Z</time>
      </trkpt>
      <trkpt lat="46.73782" lon="4.93324">
        <ele>199.6</ele>
        <time>2024-09-18T10:23:30Z</time>
      </trkpt>
      <trkpt lat="46.73781" lon="4.93327">
        <ele>199.6</ele>
        <time>2024-09-18T10:23:31Z</time>
      </trkpt>
      <trkpt lat="46.73779" lon="4.93333">
        <ele>199.2</ele>
        <time>2024-09-18T10:23:32Z</time>
      </trkpt>
      <trkpt lat="46.73776" lon="4.93338">
        <ele>199.2</ele>
        <time>2024-09-18T10:23:33Z</time>
      </trkpt>
      <trkpt lat="46.73774" lon="4.93344">
        <ele>199.2</ele>
        <time>2024-09-18T10:23:34Z</time>
      </trkpt>
      <trkpt lat="46.73772" lon="4.9335">
        <ele>199.2</ele>
        <time>2024-09-18T10:23:35Z</time>
      </trkpt>
      <trkpt lat="46.73769" lon="4.93355">
        <ele>199.6</ele>
        <time>2024-09-18T10:23:36Z</time>
      </trkpt>
      <trkpt lat="46.73767" lon="4.93361">
        <ele>198.8</ele>
        <time>2024-09-18T10:23:37Z</time>
      </trkpt>
      <trkpt lat="46.73764" lon="4.93367">
        <ele>198.8</ele>
        <time>2024-09-18T10:23:38Z</time>
      </trkpt>
      <trkpt lat="46.73762" lon="4.93372">
        <ele>198.8</ele>
        <time>2024-09-18T10:23:39Z</time>
      </trkpt>
      <trkpt lat="46.7376" lon="4.93378">
        <ele>199.2</ele>
        <time>2024-09-18T10:23:40Z</time>
      </trkpt>
      <trkpt lat="46.73757" lon="4.93384">
        <ele>199.8</ele>
        <time>2024-09-18T10:23:41Z</time>
      </trkpt>
      <trkpt lat="46.73755" lon="4.9339">
        <ele>199.8</ele>
        <time>2024-09-18T10:23:42Z</time>
      </trkpt>
      <trkpt lat="46.73752" lon="4.93395">
        <ele>199.8</ele>
        <time>2024-09-18T10:23:43Z</time>
      </trkpt>
      <trkpt lat="46.7375" lon="4.934">
        <ele>199.8</ele>
        <time>2024-09-18T10:23:44Z</time>
      </trkpt>
      <trkpt lat="46.73748" lon="4.93406">
        <ele>199.8</ele>
        <time>2024-09-18T10:23:45Z</time>
      </trkpt>
      <trkpt lat="46.73745" lon="4.93411">
        <ele>199.8</ele>
        <time>2024-09-18T10:23:46Z</time>
      </trkpt>
      <trkpt lat="46.73743" lon="4.93416">
        <ele>199.8</ele>
        <time>2024-09-18T10:23:47Z</time>
      </trkpt>
      <trkpt lat="46.7374" lon="4.93421">
        <ele>199.8</ele>
        <time>2024-09-18T10:23:48Z</time>
      </trkpt>
      <trkpt lat="46.73737" lon="4.93426">
        <ele>199.8</ele>
        <time>2024-09-18T10:23:49Z</time>
      </trkpt>
      <trkpt lat="46.73735" lon="4.93432">
        <ele>199.6</ele>
        <time>2024-09-18T10:23:50Z</time>
      </trkpt>
      <trkpt lat="46.73734" lon="4.93437">
        <ele>199.6</ele>
        <time>2024-09-18T10:23:51Z</time>
      </trkpt>
      <trkpt lat="46.73732" lon="4.93443">
        <ele>199.6</ele>
        <time>2024-09-18T10:23:52Z</time>
      </trkpt>
      <trkpt lat="46.7373" lon="4.93448">
        <ele>199.6</ele>
        <time>2024-09-18T10:23:53Z</time>
      </trkpt>
      <trkpt lat="46.73727" lon="4.93454">
        <ele>199.6</ele>
        <time>2024-09-18T10:23:54Z</time>
      </trkpt>
      <trkpt lat="46.73725" lon="4.93459">
        <ele>199.8</ele>
        <time>2024-09-18T10:23:55Z</time>
      </trkpt>
      <trkpt lat="46.73723" lon="4.93464">
        <ele>199.8</ele>
        <time>2024-09-18T10:23:56Z</time>
      </trkpt>
      <trkpt lat="46.73721" lon="4.93469">
        <ele>199.8</ele>
        <time>2024-09-18T10:23:57Z</time>
      </trkpt>
      <trkpt lat="46.73719" lon="4.93475">
        <ele>199.8</ele>
        <time>2024-09-18T10:23:58Z</time>
      </trkpt>
      <trkpt lat="46.73717" lon="4.9348">
        <ele>200</ele>
        <time>2024-09-18T10:23:59Z</time>
      </trkpt>
      <trkpt lat="46.73715" lon="4.93485">
        <ele>200</ele>
        <time>2024-09-18T10:24:00Z</time>
      </trkpt>
      <trkpt lat="46.73713" lon="4.9349">
        <ele>200</ele>
        <time>2024-09-18T10:24:01Z</time>
      </trkpt>
      <trkpt lat="46.73711" lon="4.93495">
        <ele>200</ele>
        <time>2024-09-18T10:24:02Z</time>
      </trkpt>
      <trkpt lat="46.7371" lon="4.935">
        <ele>200</ele>
        <time>2024-09-18T10:24:03Z</time>
      </trkpt>
      <trkpt lat="46.73708" lon="4.93504">
        <ele>200.2</ele>
        <time>2024-09-18T10:24:04Z</time>
      </trkpt>
      <trkpt lat="46.73705" lon="4.93509">
        <ele>200.2</ele>
        <time>2024-09-18T10:24:05Z</time>
      </trkpt>
      <trkpt lat="46.73703" lon="4.93513">
        <ele>200.2</ele>
        <time>2024-09-18T10:24:06Z</time>
      </trkpt>
      <trkpt lat="46.73702" lon="4.93518">
        <ele>200.2</ele>
        <time>2024-09-18T10:24:07Z</time>
      </trkpt>
      <trkpt lat="46.737" lon="4.93524">
        <ele>200.2</ele>
        <time>2024-09-18T10:24:08Z</time>
      </trkpt>
      <trkpt lat="46.73698" lon="4.93529">
        <ele>200.2</ele>
        <time>2024-09-18T10:24:09Z</time>
      </trkpt>
      <trkpt lat="46.73696" lon="4.93534">
        <ele>200.2</ele>
        <time>2024-09-18T10:24:10Z</time>
      </trkpt>
      <trkpt lat="46.73693" lon="4.93539">
        <ele>200.2</ele>
        <time>2024-09-18T10:24:11Z</time>
      </trkpt>
      <trkpt lat="46.73691" lon="4.93545">
        <ele>200.2</ele>
        <time>2024-09-18T10:24:12Z</time>
      </trkpt>
      <trkpt lat="46.73688" lon="4.93553">
        <ele>200.2</ele>
        <time>2024-09-18T10:24:13Z</time>
      </trkpt>
      <trkpt lat="46.73687" lon="4.93555">
        <ele>200.2</ele>
        <time>2024-09-18T10:24:14Z</time>
      </trkpt>
      <trkpt lat="46.73685" lon="4.9356">
        <ele>200.2</ele>
        <time>2024-09-18T10:24:15Z</time>
      </trkpt>
      <trkpt lat="46.73682" lon="4.93566">
        <ele>200.2</ele>
        <time>2024-09-18T10:24:16Z</time>
      </trkpt>
      <trkpt lat="46.7368" lon="4.93571">
        <ele>199.6</ele>
        <time>2024-09-18T10:24:17Z</time>
      </trkpt>
      <trkpt lat="46.73678" lon="4.93577">
        <ele>199.6</ele>
        <time>2024-09-18T10:24:18Z</time>
      </trkpt>
      <trkpt lat="46.73675" lon="4.93583">
        <ele>199.6</ele>
        <time>2024-09-18T10:24:19Z</time>
      </trkpt>
      <trkpt lat="46.73673" lon="4.93588">
        <ele>199.6</ele>
        <time>2024-09-18T10:24:20Z</time>
      </trkpt>
      <trkpt lat="46.7367" lon="4.93594">
        <ele>200.4</ele>
        <time>2024-09-18T10:24:21Z</time>
      </trkpt>
      <trkpt lat="46.73668" lon="4.93599">
        <ele>200.4</ele>
        <time>2024-09-18T10:24:22Z</time>
      </trkpt>
      <trkpt lat="46.73665" lon="4.93605">
        <ele>200.4</ele>
        <time>2024-09-18T10:24:23Z</time>
      </trkpt>
      <trkpt lat="46.73663" lon="4.93611">
        <ele>200.4</ele>
        <time>2024-09-18T10:24:24Z</time>
      </trkpt>
      <trkpt lat="46.7366" lon="4.93617">
        <ele>200.4</ele>
        <time>2024-09-18T10:24:25Z</time>
      </trkpt>
      <trkpt lat="46.73658" lon="4.93622">
        <ele>200.4</ele>
        <time>2024-09-18T10:24:26Z</time>
      </trkpt>
      <trkpt lat="46.73656" lon="4.93628">
        <ele>200</ele>
        <time>2024-09-18T10:24:27Z</time>
      </trkpt>
      <trkpt lat="46.73654" lon="4.93634">
        <ele>200</ele>
        <time>2024-09-18T10:24:28Z</time>
      </trkpt>
      <trkpt lat="46.73652" lon="4.9364">
        <ele>200</ele>
        <time>2024-09-18T10:24:29Z</time>
      </trkpt>
      <trkpt lat="46.73651" lon="4.93645">
        <ele>200</ele>
        <time>2024-09-18T10:24:30Z</time>
      </trkpt>
      <trkpt lat="46.73649" lon="4.9365">
        <ele>200</ele>
        <time>2024-09-18T10:24:31Z</time>
      </trkpt>
      <trkpt lat="46.73647" lon="4.93656">
        <ele>200</ele>
        <time>2024-09-18T10:24:32Z</time>
      </trkpt>
      <trkpt lat="46.73644" lon="4.93661">
        <ele>200</ele>
        <time>2024-09-18T10:24:33Z</time>
      </trkpt>
      <trkpt lat="46.73642" lon="4.93666">
        <ele>200</ele>
        <time>2024-09-18T10:24:34Z</time>
      </trkpt>
      <trkpt lat="46.7364" lon="4.93671">
        <ele>200</ele>
        <time>2024-09-18T10:24:35Z</time>
      </trkpt>
      <trkpt lat="46.73638" lon="4.93675">
        <ele>200</ele>
        <time>2024-09-18T10:24:36Z</time>
      </trkpt>
      <trkpt lat="46.73636" lon="4.9368">
        <ele>200</ele>
        <time>2024-09-18T10:24:37Z</time>
      </trkpt>
      <trkpt lat="46.73634" lon="4.93685">
        <ele>200</ele>
        <time>2024-09-18T10:24:38Z</time>
      </trkpt>
      <trkpt lat="46.73631" lon="4.9369">
        <ele>200</ele>
        <time>2024-09-18T10:24:39Z</time>
      </trkpt>
      <trkpt lat="46.73629" lon="4.93696">
        <ele>200</ele>
        <time>2024-09-18T10:24:40Z</time>
      </trkpt>
      <trkpt lat="46.73626" lon="4.93701">
        <ele>200</ele>
        <time>2024-09-18T10:24:41Z</time>
      </trkpt>
      <trkpt lat="46.73624" lon="4.93707">
        <ele>200</ele>
        <time>2024-09-18T10:24:42Z</time>
      </trkpt>
      <trkpt lat="46.73621" lon="4.93713">
        <ele>200.8</ele>
        <time>2024-09-18T10:24:43Z</time>
      </trkpt>
      <trkpt lat="46.73619" lon="4.93718">
        <ele>200.8</ele>
        <time>2024-09-18T10:24:44Z</time>
      </trkpt>
      <trkpt lat="46.73617" lon="4.93723">
        <ele>200.8</ele>
        <time>2024-09-18T10:24:45Z</time>
      </trkpt>
      <trkpt lat="46.73615" lon="4.93728">
        <ele>200.8</ele>
        <time>2024-09-18T10:24:46Z</time>
      </trkpt>
      <trkpt lat="46.73613" lon="4.93733">
        <ele>200.8</ele>
        <time>2024-09-18T10:24:47Z</time>
      </trkpt>
      <trkpt lat="46.73611" lon="4.93738">
        <ele>200.2</ele>
        <time>2024-09-18T10:24:48Z</time>
      </trkpt>
      <trkpt lat="46.73609" lon="4.93743">
        <ele>200.2</ele>
        <time>2024-09-18T10:24:49Z</time>
      </trkpt>
      <trkpt lat="46.73607" lon="4.93748">
        <ele>200</ele>
        <time>2024-09-18T10:24:50Z</time>
      </trkpt>
      <trkpt lat="46.73606" lon="4.93753">
        <ele>200</ele>
        <time>2024-09-18T10:24:51Z</time>
      </trkpt>
      <trkpt lat="46.73604" lon="4.93758">
        <ele>200.2</ele>
        <time>2024-09-18T10:24:52Z</time>
      </trkpt>
      <trkpt lat="46.73602" lon="4.93763">
        <ele>200.2</ele>
        <time>2024-09-18T10:24:53Z</time>
      </trkpt>
      <trkpt lat="46.736" lon="4.93768">
        <ele>200.2</ele>
        <time>2024-09-18T10:24:54Z</time>
      </trkpt>
      <trkpt lat="46.73598" lon="4.93773">
        <ele>200.2</ele>
        <time>2024-09-18T10:24:55Z</time>
      </trkpt>
      <trkpt lat="46.73596" lon="4.93778">
        <ele>200.2</ele>
        <time>2024-09-18T10:24:56Z</time>
      </trkpt>
      <trkpt lat="46.73593" lon="4.93786">
        <ele>200.2</ele>
        <time>2024-09-18T10:24:57Z</time>
      </trkpt>
      <trkpt lat="46.73593" lon="4.93788">
        <ele>200.4</ele>
        <time>2024-09-18T10:24:58Z</time>
      </trkpt>
      <trkpt lat="46.7359" lon="4.93793">
        <ele>200.4</ele>
        <time>2024-09-18T10:24:59Z</time>
      </trkpt>
      <trkpt lat="46.73588" lon="4.93797">
        <ele>200.4</ele>
        <time>2024-09-18T10:25:00Z</time>
      </trkpt>
      <trkpt lat="46.73586" lon="4.93803">
        <ele>200.4</ele>
        <time>2024-09-18T10:25:01Z</time>
      </trkpt>
      <trkpt lat="46.73584" lon="4.93808">
        <ele>200.4</ele>
        <time>2024-09-18T10:25:02Z</time>
      </trkpt>
      <trkpt lat="46.73581" lon="4.93813">
        <ele>200.4</ele>
        <time>2024-09-18T10:25:03Z</time>
      </trkpt>
      <trkpt lat="46.73579" lon="4.93818">
        <ele>200.4</ele>
        <time>2024-09-18T10:25:04Z</time>
      </trkpt>
      <trkpt lat="46.73577" lon="4.93824">
        <ele>200.4</ele>
        <time>2024-09-18T10:25:05Z</time>
      </trkpt>
      <trkpt lat="46.73574" lon="4.93829">
        <ele>200.8</ele>
        <time>2024-09-18T10:25:06Z</time>
      </trkpt>
      <trkpt lat="46.73572" lon="4.93834">
        <ele>200.8</ele>
        <time>2024-09-18T10:25:07Z</time>
      </trkpt>
      <trkpt lat="46.73569" lon="4.9384">
        <ele>200.8</ele>
        <time>2024-09-18T10:25:08Z</time>
      </trkpt>
      <trkpt lat="46.73567" lon="4.93846">
        <ele>200.8</ele>
        <time>2024-09-18T10:25:09Z</time>
      </trkpt>
      <trkpt lat="46.73565" lon="4.93851">
        <ele>200.8</ele>
        <time>2024-09-18T10:25:10Z</time>
      </trkpt>
      <trkpt lat="46.73562" lon="4.93856">
        <ele>200.6</ele>
        <time>2024-09-18T10:25:11Z</time>
      </trkpt>
      <trkpt lat="46.7356" lon="4.93862">
        <ele>200.8</ele>
        <time>2024-09-18T10:25:12Z</time>
      </trkpt>
      <trkpt lat="46.73557" lon="4.93867">
        <ele>200.8</ele>
        <time>2024-09-18T10:25:13Z</time>
      </trkpt>
      <trkpt lat="46.73554" lon="4.93873">
        <ele>200.8</ele>
        <time>2024-09-18T10:25:14Z</time>
      </trkpt>
      <trkpt lat="46.73552" lon="4.93879">
        <ele>200.8</ele>
        <time>2024-09-18T10:25:15Z</time>
      </trkpt>
      <trkpt lat="46.73549" lon="4.93885">
        <ele>200.6</ele>
        <time>2024-09-18T10:25:16Z</time>
      </trkpt>
      <trkpt lat="46.73547" lon="4.93891">
        <ele>200.6</ele>
        <time>2024-09-18T10:25:17Z</time>
      </trkpt>
      <trkpt lat="46.73545" lon="4.93897">
        <ele>200.6</ele>
        <time>2024-09-18T10:25:18Z</time>
      </trkpt>
      <trkpt lat="46.73543" lon="4.93903">
        <ele>200.8</ele>
        <time>2024-09-18T10:25:19Z</time>
      </trkpt>
      <trkpt lat="46.7354" lon="4.93908">
        <ele>200.8</ele>
        <time>2024-09-18T10:25:20Z</time>
      </trkpt>
      <trkpt lat="46.73538" lon="4.93914">
        <ele>200.4</ele>
        <time>2024-09-18T10:25:21Z</time>
      </trkpt>
      <trkpt lat="46.73536" lon="4.93919">
        <ele>200.4</ele>
        <time>2024-09-18T10:25:22Z</time>
      </trkpt>
      <trkpt lat="46.73534" lon="4.93925">
        <ele>200.6</ele>
        <time>2024-09-18T10:25:23Z</time>
      </trkpt>
      <trkpt lat="46.73531" lon="4.93931">
        <ele>200.6</ele>
        <time>2024-09-18T10:25:24Z</time>
      </trkpt>
      <trkpt lat="46.73529" lon="4.93936">
        <ele>200</ele>
        <time>2024-09-18T10:25:25Z</time>
      </trkpt>
      <trkpt lat="46.73527" lon="4.93942">
        <ele>200</ele>
        <time>2024-09-18T10:25:26Z</time>
      </trkpt>
      <trkpt lat="46.73524" lon="4.93947">
        <ele>200</ele>
        <time>2024-09-18T10:25:27Z</time>
      </trkpt>
      <trkpt lat="46.73522" lon="4.93952">
        <ele>200.4</ele>
        <time>2024-09-18T10:25:28Z</time>
      </trkpt>
      <trkpt lat="46.7352" lon="4.93957">
        <ele>200.4</ele>
        <time>2024-09-18T10:25:29Z</time>
      </trkpt>
      <trkpt lat="46.73518" lon="4.93963">
        <ele>200.4</ele>
        <time>2024-09-18T10:25:30Z</time>
      </trkpt>
      <trkpt lat="46.73516" lon="4.93968">
        <ele>200.4</ele>
        <time>2024-09-18T10:25:31Z</time>
      </trkpt>
      <trkpt lat="46.73514" lon="4.93973">
        <ele>200.4</ele>
        <time>2024-09-18T10:25:32Z</time>
      </trkpt>
      <trkpt lat="46.73511" lon="4.93978">
        <ele>200.4</ele>
        <time>2024-09-18T10:25:33Z</time>
      </trkpt>
      <trkpt lat="46.73509" lon="4.93983">
        <ele>200.8</ele>
        <time>2024-09-18T10:25:34Z</time>
      </trkpt>
      <trkpt lat="46.73507" lon="4.93989">
        <ele>200.8</ele>
        <time>2024-09-18T10:25:35Z</time>
      </trkpt>
      <trkpt lat="46.73505" lon="4.93994">
        <ele>200.8</ele>
        <time>2024-09-18T10:25:36Z</time>
      </trkpt>
      <trkpt lat="46.73502" lon="4.94">
        <ele>200.8</ele>
        <time>2024-09-18T10:25:37Z</time>
      </trkpt>
      <trkpt lat="46.735" lon="4.94005">
        <ele>201</ele>
        <time>2024-09-18T10:25:38Z</time>
      </trkpt>
      <trkpt lat="46.73498" lon="4.9401">
        <ele>201</ele>
        <time>2024-09-18T10:25:39Z</time>
      </trkpt>
      <trkpt lat="46.73495" lon="4.94015">
        <ele>201</ele>
        <time>2024-09-18T10:25:40Z</time>
      </trkpt>
      <trkpt lat="46.73493" lon="4.9402">
        <ele>201.2</ele>
        <time>2024-09-18T10:25:41Z</time>
      </trkpt>
      <trkpt lat="46.7349" lon="4.94025">
        <ele>201.2</ele>
        <time>2024-09-18T10:25:42Z</time>
      </trkpt>
      <trkpt lat="46.73488" lon="4.94031">
        <ele>201.2</ele>
        <time>2024-09-18T10:25:43Z</time>
      </trkpt>
      <trkpt lat="46.73486" lon="4.94036">
        <ele>201.2</ele>
        <time>2024-09-18T10:25:44Z</time>
      </trkpt>
      <trkpt lat="46.73483" lon="4.94042">
        <ele>201.2</ele>
        <time>2024-09-18T10:25:45Z</time>
      </trkpt>
      <trkpt lat="46.73481" lon="4.94047">
        <ele>201.2</ele>
        <time>2024-09-18T10:25:46Z</time>
      </trkpt>
      <trkpt lat="46.73478" lon="4.94053">
        <ele>200.8</ele>
        <time>2024-09-18T10:25:47Z</time>
      </trkpt>
      <trkpt lat="46.73476" lon="4.94059">
        <ele>200.8</ele>
        <time>2024-09-18T10:25:48Z</time>
      </trkpt>
      <trkpt lat="46.73474" lon="4.94065">
        <ele>200.8</ele>
        <time>2024-09-18T10:25:49Z</time>
      </trkpt>
      <trkpt lat="46.73472" lon="4.9407">
        <ele>200.8</ele>
        <time>2024-09-18T10:25:50Z</time>
      </trkpt>
      <trkpt lat="46.7347" lon="4.94076">
        <ele>200.8</ele>
        <time>2024-09-18T10:25:51Z</time>
      </trkpt>
      <trkpt lat="46.73468" lon="4.94081">
        <ele>200.8</ele>
        <time>2024-09-18T10:25:52Z</time>
      </trkpt>
      <trkpt lat="46.73466" lon="4.94086">
        <ele>201.2</ele>
        <time>2024-09-18T10:25:53Z</time>
      </trkpt>
      <trkpt lat="46.73464" lon="4.94091">
        <ele>201.2</ele>
        <time>2024-09-18T10:25:54Z</time>
      </trkpt>
      <trkpt lat="46.73462" lon="4.94096">
        <ele>201.2</ele>
        <time>2024-09-18T10:25:55Z</time>
      </trkpt>
      <trkpt lat="46.73459" lon="4.94101">
        <ele>201.2</ele>
        <time>2024-09-18T10:25:56Z</time>
      </trkpt>
      <trkpt lat="46.73457" lon="4.94107">
        <ele>201.2</ele>
        <time>2024-09-18T10:25:57Z</time>
      </trkpt>
      <trkpt lat="46.73455" lon="4.94112">
        <ele>201.2</ele>
        <time>2024-09-18T10:25:58Z</time>
      </trkpt>
      <trkpt lat="46.73452" lon="4.94117">
        <ele>201.2</ele>
        <time>2024-09-18T10:25:59Z</time>
      </trkpt>
      <trkpt lat="46.7345" lon="4.94122">
        <ele>201.2</ele>
        <time>2024-09-18T10:26:00Z</time>
      </trkpt>
      <trkpt lat="46.73448" lon="4.94127">
        <ele>201.6</ele>
        <time>2024-09-18T10:26:01Z</time>
      </trkpt>
      <trkpt lat="46.73446" lon="4.94132">
        <ele>201.6</ele>
        <time>2024-09-18T10:26:02Z</time>
      </trkpt>
      <trkpt lat="46.73444" lon="4.94138">
        <ele>201.6</ele>
        <time>2024-09-18T10:26:03Z</time>
      </trkpt>
      <trkpt lat="46.73441" lon="4.94143">
        <ele>201.6</ele>
        <time>2024-09-18T10:26:04Z</time>
      </trkpt>
      <trkpt lat="46.73439" lon="4.94148">
        <ele>201.6</ele>
        <time>2024-09-18T10:26:05Z</time>
      </trkpt>
      <trkpt lat="46.73436" lon="4.94153">
        <ele>201.6</ele>
        <time>2024-09-18T10:26:06Z</time>
      </trkpt>
      <trkpt lat="46.73434" lon="4.94158">
        <ele>201.6</ele>
        <time>2024-09-18T10:26:07Z</time>
      </trkpt>
      <trkpt lat="46.73432" lon="4.94164">
        <ele>201.6</ele>
        <time>2024-09-18T10:26:08Z</time>
      </trkpt>
      <trkpt lat="46.73429" lon="4.94169">
        <ele>201.6</ele>
        <time>2024-09-18T10:26:09Z</time>
      </trkpt>
      <trkpt lat="46.73427" lon="4.94175">
        <ele>201.6</ele>
        <time>2024-09-18T10:26:10Z</time>
      </trkpt>
      <trkpt lat="46.73425" lon="4.9418">
        <ele>201.6</ele>
        <time>2024-09-18T10:26:11Z</time>
      </trkpt>
      <trkpt lat="46.73423" lon="4.94186">
        <ele>201.6</ele>
        <time>2024-09-18T10:26:12Z</time>
      </trkpt>
      <trkpt lat="46.73421" lon="4.94192">
        <ele>201.6</ele>
        <time>2024-09-18T10:26:13Z</time>
      </trkpt>
      <trkpt lat="46.73419" lon="4.94198">
        <ele>201.6</ele>
        <time>2024-09-18T10:26:14Z</time>
      </trkpt>
      <trkpt lat="46.73416" lon="4.94204">
        <ele>202</ele>
        <time>2024-09-18T10:26:15Z</time>
      </trkpt>
      <trkpt lat="46.73414" lon="4.9421">
        <ele>202</ele>
        <time>2024-09-18T10:26:16Z</time>
      </trkpt>
      <trkpt lat="46.73412" lon="4.94216">
        <ele>201.6</ele>
        <time>2024-09-18T10:26:17Z</time>
      </trkpt>
      <trkpt lat="46.73409" lon="4.94221">
        <ele>201.8</ele>
        <time>2024-09-18T10:26:18Z</time>
      </trkpt>
      <trkpt lat="46.73406" lon="4.94227">
        <ele>201.8</ele>
        <time>2024-09-18T10:26:19Z</time>
      </trkpt>
      <trkpt lat="46.73404" lon="4.94232">
        <ele>201.8</ele>
        <time>2024-09-18T10:26:20Z</time>
      </trkpt>
      <trkpt lat="46.73401" lon="4.94238">
        <ele>201.8</ele>
        <time>2024-09-18T10:26:21Z</time>
      </trkpt>
      <trkpt lat="46.73399" lon="4.94243">
        <ele>201.8</ele>
        <time>2024-09-18T10:26:22Z</time>
      </trkpt>
      <trkpt lat="46.73397" lon="4.94248">
        <ele>201.8</ele>
        <time>2024-09-18T10:26:23Z</time>
      </trkpt>
      <trkpt lat="46.73395" lon="4.94253">
        <ele>202</ele>
        <time>2024-09-18T10:26:24Z</time>
      </trkpt>
      <trkpt lat="46.73394" lon="4.94258">
        <ele>202</ele>
        <time>2024-09-18T10:26:25Z</time>
      </trkpt>
      <trkpt lat="46.73392" lon="4.94263">
        <ele>201.8</ele>
        <time>2024-09-18T10:26:26Z</time>
      </trkpt>
      <trkpt lat="46.73389" lon="4.94268">
        <ele>202</ele>
        <time>2024-09-18T10:26:27Z</time>
      </trkpt>
      <trkpt lat="46.73387" lon="4.94273">
        <ele>202</ele>
        <time>2024-09-18T10:26:28Z</time>
      </trkpt>
      <trkpt lat="46.73385" lon="4.94278">
        <ele>202</ele>
        <time>2024-09-18T10:26:29Z</time>
      </trkpt>
      <trkpt lat="46.73383" lon="4.94284">
        <ele>202</ele>
        <time>2024-09-18T10:26:30Z</time>
      </trkpt>
      <trkpt lat="46.7338" lon="4.94289">
        <ele>201.8</ele>
        <time>2024-09-18T10:26:31Z</time>
      </trkpt>
      <trkpt lat="46.73378" lon="4.94295">
        <ele>201.8</ele>
        <time>2024-09-18T10:26:32Z</time>
      </trkpt>
      <trkpt lat="46.73375" lon="4.943">
        <ele>201.8</ele>
        <time>2024-09-18T10:26:33Z</time>
      </trkpt>
      <trkpt lat="46.73373" lon="4.94306">
        <ele>201.8</ele>
        <time>2024-09-18T10:26:34Z</time>
      </trkpt>
      <trkpt lat="46.7337" lon="4.94311">
        <ele>201.8</ele>
        <time>2024-09-18T10:26:35Z</time>
      </trkpt>
      <trkpt lat="46.73368" lon="4.94317">
        <ele>201.8</ele>
        <time>2024-09-18T10:26:36Z</time>
      </trkpt>
      <trkpt lat="46.73365" lon="4.94323">
        <ele>202</ele>
        <time>2024-09-18T10:26:37Z</time>
      </trkpt>
      <trkpt lat="46.73363" lon="4.94328">
        <ele>202</ele>
        <time>2024-09-18T10:26:38Z</time>
      </trkpt>
      <trkpt lat="46.7336" lon="4.94334">
        <ele>202</ele>
        <time>2024-09-18T10:26:39Z</time>
      </trkpt>
      <trkpt lat="46.73358" lon="4.9434">
        <ele>202</ele>
        <time>2024-09-18T10:26:40Z</time>
      </trkpt>
      <trkpt lat="46.73355" lon="4.94346">
        <ele>202</ele>
        <time>2024-09-18T10:26:41Z</time>
      </trkpt>
      <trkpt lat="46.73353" lon="4.94351">
        <ele>202</ele>
        <time>2024-09-18T10:26:42Z</time>
      </trkpt>
      <trkpt lat="46.7335" lon="4.94357">
        <ele>202</ele>
        <time>2024-09-18T10:26:43Z</time>
      </trkpt>
      <trkpt lat="46.73348" lon="4.94363">
        <ele>202</ele>
        <time>2024-09-18T10:26:44Z</time>
      </trkpt>
      <trkpt lat="46.73345" lon="4.94369">
        <ele>202</ele>
        <time>2024-09-18T10:26:45Z</time>
      </trkpt>
      <trkpt lat="46.73343" lon="4.94375">
        <ele>201.8</ele>
        <time>2024-09-18T10:26:46Z</time>
      </trkpt>
      <trkpt lat="46.7334" lon="4.9438">
        <ele>201.8</ele>
        <time>2024-09-18T10:26:47Z</time>
      </trkpt>
      <trkpt lat="46.73337" lon="4.94389">
        <ele>201.8</ele>
        <time>2024-09-18T10:26:48Z</time>
      </trkpt>
      <trkpt lat="46.73336" lon="4.94392">
        <ele>202.4</ele>
        <time>2024-09-18T10:26:49Z</time>
      </trkpt>
      <trkpt lat="46.73333" lon="4.94398">
        <ele>202.4</ele>
        <time>2024-09-18T10:26:50Z</time>
      </trkpt>
      <trkpt lat="46.73331" lon="4.94404">
        <ele>201.6</ele>
        <time>2024-09-18T10:26:51Z</time>
      </trkpt>
      <trkpt lat="46.73328" lon="4.9441">
        <ele>201.6</ele>
        <time>2024-09-18T10:26:52Z</time>
      </trkpt>
      <trkpt lat="46.73326" lon="4.94415">
        <ele>201.8</ele>
        <time>2024-09-18T10:26:53Z</time>
      </trkpt>
      <trkpt lat="46.73324" lon="4.94421">
        <ele>202</ele>
        <time>2024-09-18T10:26:54Z</time>
      </trkpt>
      <trkpt lat="46.73321" lon="4.94427">
        <ele>202</ele>
        <time>2024-09-18T10:26:55Z</time>
      </trkpt>
      <trkpt lat="46.73319" lon="4.94434">
        <ele>202</ele>
        <time>2024-09-18T10:26:56Z</time>
      </trkpt>
      <trkpt lat="46.73316" lon="4.9444">
        <ele>202</ele>
        <time>2024-09-18T10:26:57Z</time>
      </trkpt>
      <trkpt lat="46.73314" lon="4.94446">
        <ele>201.4</ele>
        <time>2024-09-18T10:26:58Z</time>
      </trkpt>
      <trkpt lat="46.73311" lon="4.94452">
        <ele>201.8</ele>
        <time>2024-09-18T10:26:59Z</time>
      </trkpt>
      <trkpt lat="46.73309" lon="4.94458">
        <ele>201.8</ele>
        <time>2024-09-18T10:27:00Z</time>
      </trkpt>
      <trkpt lat="46.73306" lon="4.94464">
        <ele>201.8</ele>
        <time>2024-09-18T10:27:01Z</time>
      </trkpt>
      <trkpt lat="46.73304" lon="4.9447">
        <ele>201.8</ele>
        <time>2024-09-18T10:27:02Z</time>
      </trkpt>
      <trkpt lat="46.73301" lon="4.94476">
        <ele>201.8</ele>
        <time>2024-09-18T10:27:03Z</time>
      </trkpt>
      <trkpt lat="46.73299" lon="4.94481">
        <ele>201.8</ele>
        <time>2024-09-18T10:27:04Z</time>
      </trkpt>
      <trkpt lat="46.73297" lon="4.94486">
        <ele>201.8</ele>
        <time>2024-09-18T10:27:05Z</time>
      </trkpt>
      <trkpt lat="46.73294" lon="4.94491">
        <ele>201.8</ele>
        <time>2024-09-18T10:27:06Z</time>
      </trkpt>
      <trkpt lat="46.73292" lon="4.94496">
        <ele>201.8</ele>
        <time>2024-09-18T10:27:07Z</time>
      </trkpt>
      <trkpt lat="46.7329" lon="4.94501">
        <ele>201.8</ele>
        <time>2024-09-18T10:27:08Z</time>
      </trkpt>
      <trkpt lat="46.73288" lon="4.94506">
        <ele>201.8</ele>
        <time>2024-09-18T10:27:09Z</time>
      </trkpt>
      <trkpt lat="46.73286" lon="4.9451">
        <ele>201.8</ele>
        <time>2024-09-18T10:27:10Z</time>
      </trkpt>
      <trkpt lat="46.73284" lon="4.94515">
        <ele>201.8</ele>
        <time>2024-09-18T10:27:11Z</time>
      </trkpt>
      <trkpt lat="46.73282" lon="4.9452">
        <ele>202.2</ele>
        <time>2024-09-18T10:27:12Z</time>
      </trkpt>
      <trkpt lat="46.7328" lon="4.94524">
        <ele>202.2</ele>
        <time>2024-09-18T10:27:13Z</time>
      </trkpt>
      <trkpt lat="46.73278" lon="4.94528">
        <ele>202.2</ele>
        <time>2024-09-18T10:27:14Z</time>
      </trkpt>
      <trkpt lat="46.73276" lon="4.94532">
        <ele>202.2</ele>
        <time>2024-09-18T10:27:15Z</time>
      </trkpt>
      <trkpt lat="46.73274" lon="4.94537">
        <ele>201.8</ele>
        <time>2024-09-18T10:27:16Z</time>
      </trkpt>
      <trkpt lat="46.73272" lon="4.94541">
        <ele>201.8</ele>
        <time>2024-09-18T10:27:17Z</time>
      </trkpt>
      <trkpt lat="46.7327" lon="4.94547">
        <ele>201.6</ele>
        <time>2024-09-18T10:27:18Z</time>
      </trkpt>
      <trkpt lat="46.73269" lon="4.94552">
        <ele>201.6</ele>
        <time>2024-09-18T10:27:19Z</time>
      </trkpt>
      <trkpt lat="46.73267" lon="4.94557">
        <ele>201.4</ele>
        <time>2024-09-18T10:27:20Z</time>
      </trkpt>
      <trkpt lat="46.73265" lon="4.94562">
        <ele>201.4</ele>
        <time>2024-09-18T10:27:21Z</time>
      </trkpt>
      <trkpt lat="46.73262" lon="4.94567">
        <ele>201.4</ele>
        <time>2024-09-18T10:27:22Z</time>
      </trkpt>
      <trkpt lat="46.7326" lon="4.94571">
        <ele>201.4</ele>
        <time>2024-09-18T10:27:23Z</time>
      </trkpt>
      <trkpt lat="46.73258" lon="4.94576">
        <ele>201.4</ele>
        <time>2024-09-18T10:27:24Z</time>
      </trkpt>
      <trkpt lat="46.73256" lon="4.94581">
        <ele>201.2</ele>
        <time>2024-09-18T10:27:25Z</time>
      </trkpt>
      <trkpt lat="46.73255" lon="4.94585">
        <ele>201.2</ele>
        <time>2024-09-18T10:27:26Z</time>
      </trkpt>
      <trkpt lat="46.73253" lon="4.9459">
        <ele>201.2</ele>
        <time>2024-09-18T10:27:27Z</time>
      </trkpt>
      <trkpt lat="46.73251" lon="4.94595">
        <ele>201.2</ele>
        <time>2024-09-18T10:27:28Z</time>
      </trkpt>
      <trkpt lat="46.73249" lon="4.94601">
        <ele>201.2</ele>
        <time>2024-09-18T10:27:29Z</time>
      </trkpt>
      <trkpt lat="46.73247" lon="4.94606">
        <ele>201.2</ele>
        <time>2024-09-18T10:27:30Z</time>
      </trkpt>
      <trkpt lat="46.73245" lon="4.94611">
        <ele>201.2</ele>
        <time>2024-09-18T10:27:31Z</time>
      </trkpt>
      <trkpt lat="46.73242" lon="4.94617">
        <ele>201.2</ele>
        <time>2024-09-18T10:27:32Z</time>
      </trkpt>
      <trkpt lat="46.7324" lon="4.94622">
        <ele>201</ele>
        <time>2024-09-18T10:27:33Z</time>
      </trkpt>
      <trkpt lat="46.73238" lon="4.94628">
        <ele>201</ele>
        <time>2024-09-18T10:27:34Z</time>
      </trkpt>
      <trkpt lat="46.73235" lon="4.94633">
        <ele>201.2</ele>
        <time>2024-09-18T10:27:35Z</time>
      </trkpt>
      <trkpt lat="46.73233" lon="4.94639">
        <ele>201.2</ele>
        <time>2024-09-18T10:27:36Z</time>
      </trkpt>
      <trkpt lat="46.7323" lon="4.94645">
        <ele>201.2</ele>
        <time>2024-09-18T10:27:37Z</time>
      </trkpt>
      <trkpt lat="46.73228" lon="4.94651">
        <ele>201.2</ele>
        <time>2024-09-18T10:27:38Z</time>
      </trkpt>
      <trkpt lat="46.73225" lon="4.94657">
        <ele>201.6</ele>
        <time>2024-09-18T10:27:39Z</time>
      </trkpt>
      <trkpt lat="46.73223" lon="4.94663">
        <ele>201.6</ele>
        <time>2024-09-18T10:27:40Z</time>
      </trkpt>
      <trkpt lat="46.73221" lon="4.94669">
        <ele>201.6</ele>
        <time>2024-09-18T10:27:41Z</time>
      </trkpt>
      <trkpt lat="46.73218" lon="4.94675">
        <ele>201.4</ele>
        <time>2024-09-18T10:27:42Z</time>
      </trkpt>
      <trkpt lat="46.73216" lon="4.94681">
        <ele>200.8</ele>
        <time>2024-09-18T10:27:43Z</time>
      </trkpt>
      <trkpt lat="46.73213" lon="4.94687">
        <ele>200.8</ele>
        <time>2024-09-18T10:27:44Z</time>
      </trkpt>
      <trkpt lat="46.73211" lon="4.94693">
        <ele>200.8</ele>
        <time>2024-09-18T10:27:45Z</time>
      </trkpt>
      <trkpt lat="46.73208" lon="4.94698">
        <ele>200.8</ele>
        <time>2024-09-18T10:27:46Z</time>
      </trkpt>
      <trkpt lat="46.73206" lon="4.94704">
        <ele>201.4</ele>
        <time>2024-09-18T10:27:47Z</time>
      </trkpt>
      <trkpt lat="46.73203" lon="4.9471">
        <ele>201.4</ele>
        <time>2024-09-18T10:27:48Z</time>
      </trkpt>
      <trkpt lat="46.73201" lon="4.94716">
        <ele>201.4</ele>
        <time>2024-09-18T10:27:49Z</time>
      </trkpt>
      <trkpt lat="46.73198" lon="4.94722">
        <ele>201.4</ele>
        <time>2024-09-18T10:27:50Z</time>
      </trkpt>
      <trkpt lat="46.73196" lon="4.94728">
        <ele>201.2</ele>
        <time>2024-09-18T10:27:51Z</time>
      </trkpt>
      <trkpt lat="46.73193" lon="4.94734">
        <ele>201.2</ele>
        <time>2024-09-18T10:27:52Z</time>
      </trkpt>
      <trkpt lat="46.7319" lon="4.9474">
        <ele>201.2</ele>
        <time>2024-09-18T10:27:53Z</time>
      </trkpt>
      <trkpt lat="46.73188" lon="4.94746">
        <ele>201.2</ele>
        <time>2024-09-18T10:27:54Z</time>
      </trkpt>
      <trkpt lat="46.73186" lon="4.94752">
        <ele>201</ele>
        <time>2024-09-18T10:27:55Z</time>
      </trkpt>
      <trkpt lat="46.73183" lon="4.94758">
        <ele>201</ele>
        <time>2024-09-18T10:27:56Z</time>
      </trkpt>
      <trkpt lat="46.7318" lon="4.94764">
        <ele>201</ele>
        <time>2024-09-18T10:27:57Z</time>
      </trkpt>
      <trkpt lat="46.73178" lon="4.9477">
        <ele>200.8</ele>
        <time>2024-09-18T10:27:58Z</time>
      </trkpt>
      <trkpt lat="46.73176" lon="4.94776">
        <ele>200.8</ele>
        <time>2024-09-18T10:27:59Z</time>
      </trkpt>
      <trkpt lat="46.73174" lon="4.94782">
        <ele>200.8</ele>
        <time>2024-09-18T10:28:00Z</time>
      </trkpt>
      <trkpt lat="46.73172" lon="4.94787">
        <ele>200.8</ele>
        <time>2024-09-18T10:28:01Z</time>
      </trkpt>
      <trkpt lat="46.7317" lon="4.94792">
        <ele>200.6</ele>
        <time>2024-09-18T10:28:02Z</time>
      </trkpt>
      <trkpt lat="46.73167" lon="4.94797">
        <ele>200.6</ele>
        <time>2024-09-18T10:28:03Z</time>
      </trkpt>
      <trkpt lat="46.73165" lon="4.94801">
        <ele>200.6</ele>
        <time>2024-09-18T10:28:04Z</time>
      </trkpt>
      <trkpt lat="46.73164" lon="4.94806">
        <ele>200.8</ele>
        <time>2024-09-18T10:28:05Z</time>
      </trkpt>
      <trkpt lat="46.73162" lon="4.9481">
        <ele>200.8</ele>
        <time>2024-09-18T10:28:06Z</time>
      </trkpt>
      <trkpt lat="46.7316" lon="4.94814">
        <ele>200.8</ele>
        <time>2024-09-18T10:28:07Z</time>
      </trkpt>
      <trkpt lat="46.73158" lon="4.94818">
        <ele>200.8</ele>
        <time>2024-09-18T10:28:08Z</time>
      </trkpt>
      <trkpt lat="46.73156" lon="4.94823">
        <ele>200.8</ele>
        <time>2024-09-18T10:28:09Z</time>
      </trkpt>
      <trkpt lat="46.73154" lon="4.94828">
        <ele>200.8</ele>
        <time>2024-09-18T10:28:10Z</time>
      </trkpt>
      <trkpt lat="46.73152" lon="4.94832">
        <ele>201.2</ele>
        <time>2024-09-18T10:28:11Z</time>
      </trkpt>
      <trkpt lat="46.7315" lon="4.94836">
        <ele>201.2</ele>
        <time>2024-09-18T10:28:12Z</time>
      </trkpt>
      <trkpt lat="46.73148" lon="4.94841">
        <ele>201.2</ele>
        <time>2024-09-18T10:28:13Z</time>
      </trkpt>
      <trkpt lat="46.73146" lon="4.94846">
        <ele>200.6</ele>
        <time>2024-09-18T10:28:14Z</time>
      </trkpt>
      <trkpt lat="46.73144" lon="4.94851">
        <ele>200.8</ele>
        <time>2024-09-18T10:28:15Z</time>
      </trkpt>
      <trkpt lat="46.73142" lon="4.94856">
        <ele>200.8</ele>
        <time>2024-09-18T10:28:16Z</time>
      </trkpt>
      <trkpt lat="46.7314" lon="4.94862">
        <ele>200.8</ele>
        <time>2024-09-18T10:28:17Z</time>
      </trkpt>
      <trkpt lat="46.73138" lon="4.94867">
        <ele>201.4</ele>
        <time>2024-09-18T10:28:18Z</time>
      </trkpt>
      <trkpt lat="46.73136" lon="4.94872">
        <ele>200.8</ele>
        <time>2024-09-18T10:28:19Z</time>
      </trkpt>
      <trkpt lat="46.73134" lon="4.94878">
        <ele>200.8</ele>
        <time>2024-09-18T10:28:20Z</time>
      </trkpt>
      <trkpt lat="46.73131" lon="4.94883">
        <ele>200.8</ele>
        <time>2024-09-18T10:28:21Z</time>
      </trkpt>
      <trkpt lat="46.73129" lon="4.94889">
        <ele>200.8</ele>
        <time>2024-09-18T10:28:22Z</time>
      </trkpt>
      <trkpt lat="46.73126" lon="4.94895">
        <ele>200.8</ele>
        <time>2024-09-18T10:28:23Z</time>
      </trkpt>
      <trkpt lat="46.73123" lon="4.949">
        <ele>200.6</ele>
        <time>2024-09-18T10:28:24Z</time>
      </trkpt>
      <trkpt lat="46.73121" lon="4.94906">
        <ele>200.6</ele>
        <time>2024-09-18T10:28:25Z</time>
      </trkpt>
      <trkpt lat="46.73118" lon="4.94912">
        <ele>200.6</ele>
        <time>2024-09-18T10:28:26Z</time>
      </trkpt>
      <trkpt lat="46.73116" lon="4.94918">
        <ele>200.6</ele>
        <time>2024-09-18T10:28:27Z</time>
      </trkpt>
      <trkpt lat="46.73114" lon="4.94923">
        <ele>200.6</ele>
        <time>2024-09-18T10:28:28Z</time>
      </trkpt>
      <trkpt lat="46.73112" lon="4.94929">
        <ele>200.6</ele>
        <time>2024-09-18T10:28:29Z</time>
      </trkpt>
      <trkpt lat="46.73109" lon="4.94934">
        <ele>200.6</ele>
        <time>2024-09-18T10:28:30Z</time>
      </trkpt>
      <trkpt lat="46.73107" lon="4.9494">
        <ele>200.6</ele>
        <time>2024-09-18T10:28:31Z</time>
      </trkpt>
      <trkpt lat="46.73105" lon="4.94946">
        <ele>200.8</ele>
        <time>2024-09-18T10:28:32Z</time>
      </trkpt>
      <trkpt lat="46.73102" lon="4.94952">
        <ele>200.8</ele>
        <time>2024-09-18T10:28:33Z</time>
      </trkpt>
      <trkpt lat="46.731" lon="4.94957">
        <ele>200.8</ele>
        <time>2024-09-18T10:28:34Z</time>
      </trkpt>
      <trkpt lat="46.73098" lon="4.94963">
        <ele>200.8</ele>
        <time>2024-09-18T10:28:35Z</time>
      </trkpt>
      <trkpt lat="46.73095" lon="4.94969">
        <ele>200.8</ele>
        <time>2024-09-18T10:28:36Z</time>
      </trkpt>
      <trkpt lat="46.73093" lon="4.94975">
        <ele>200.4</ele>
        <time>2024-09-18T10:28:37Z</time>
      </trkpt>
      <trkpt lat="46.7309" lon="4.94981">
        <ele>200.4</ele>
        <time>2024-09-18T10:28:38Z</time>
      </trkpt>
      <trkpt lat="46.73087" lon="4.94987">
        <ele>200.4</ele>
        <time>2024-09-18T10:28:39Z</time>
      </trkpt>
      <trkpt lat="46.73084" lon="4.94995">
        <ele>200.4</ele>
        <time>2024-09-18T10:28:40Z</time>
      </trkpt>
      <trkpt lat="46.73083" lon="4.94998">
        <ele>200.6</ele>
        <time>2024-09-18T10:28:41Z</time>
      </trkpt>
      <trkpt lat="46.7308" lon="4.95004">
        <ele>200.6</ele>
        <time>2024-09-18T10:28:42Z</time>
      </trkpt>
      <trkpt lat="46.73078" lon="4.9501">
        <ele>200.6</ele>
        <time>2024-09-18T10:28:43Z</time>
      </trkpt>
      <trkpt lat="46.73075" lon="4.95015">
        <ele>200.6</ele>
        <time>2024-09-18T10:28:44Z</time>
      </trkpt>
      <trkpt lat="46.73073" lon="4.95021">
        <ele>200.6</ele>
        <time>2024-09-18T10:28:45Z</time>
      </trkpt>
      <trkpt lat="46.73071" lon="4.95027">
        <ele>200.6</ele>
        <time>2024-09-18T10:28:46Z</time>
      </trkpt>
      <trkpt lat="46.73069" lon="4.95033">
        <ele>200.4</ele>
        <time>2024-09-18T10:28:47Z</time>
      </trkpt>
      <trkpt lat="46.73066" lon="4.95038">
        <ele>200.4</ele>
        <time>2024-09-18T10:28:48Z</time>
      </trkpt>
      <trkpt lat="46.73064" lon="4.95043">
        <ele>200.4</ele>
        <time>2024-09-18T10:28:49Z</time>
      </trkpt>
      <trkpt lat="46.73062" lon="4.95048">
        <ele>200.4</ele>
        <time>2024-09-18T10:28:50Z</time>
      </trkpt>
      <trkpt lat="46.7306" lon="4.95053">
        <ele>200.4</ele>
        <time>2024-09-18T10:28:51Z</time>
      </trkpt>
      <trkpt lat="46.73058" lon="4.95057">
        <ele>200.4</ele>
        <time>2024-09-18T10:28:52Z</time>
      </trkpt>
      <trkpt lat="46.73056" lon="4.95061">
        <ele>200.4</ele>
        <time>2024-09-18T10:28:53Z</time>
      </trkpt>
      <trkpt lat="46.73055" lon="4.95064">
        <ele>200.4</ele>
        <time>2024-09-18T10:28:54Z</time>
      </trkpt>
      <trkpt lat="46.73053" lon="4.95067">
        <ele>200.4</ele>
        <time>2024-09-18T10:28:55Z</time>
      </trkpt>
      <trkpt lat="46.73052" lon="4.95069">
        <ele>200.4</ele>
        <time>2024-09-18T10:28:56Z</time>
      </trkpt>
      <trkpt lat="46.73051" lon="4.95071">
        <ele>200.4</ele>
        <time>2024-09-18T10:28:57Z</time>
      </trkpt>
      <trkpt lat="46.73051" lon="4.95072">
        <ele>200.4</ele>
        <time>2024-09-18T10:28:58Z</time>
      </trkpt>
      <trkpt lat="46.7305" lon="4.95074">
        <ele>200.4</ele>
        <time>2024-09-18T10:28:59Z</time>
      </trkpt>
      <trkpt lat="46.7305" lon="4.95074">
        <ele>200.4</ele>
        <time>2024-09-18T10:29:00Z</time>
      </trkpt>
      <trkpt lat="46.73048" lon="4.95079">
        <ele>200.8</ele>
        <time>2024-09-18T10:29:05Z</time>
      </trkpt>
      <trkpt lat="46.73047" lon="4.95081">
        <ele>200.8</ele>
        <time>2024-09-18T10:29:06Z</time>
      </trkpt>
      <trkpt lat="46.73046" lon="4.95084">
        <ele>200.8</ele>
        <time>2024-09-18T10:29:07Z</time>
      </trkpt>
      <trkpt lat="46.73045" lon="4.95087">
        <ele>200.4</ele>
        <time>2024-09-18T10:29:08Z</time>
      </trkpt>
      <trkpt lat="46.73043" lon="4.95091">
        <ele>200.4</ele>
        <time>2024-09-18T10:29:09Z</time>
      </trkpt>
      <trkpt lat="46.73041" lon="4.95095">
        <ele>200.4</ele>
        <time>2024-09-18T10:29:10Z</time>
      </trkpt>
      <trkpt lat="46.7304" lon="4.95099">
        <ele>200.4</ele>
        <time>2024-09-18T10:29:11Z</time>
      </trkpt>
      <trkpt lat="46.73038" lon="4.95104">
        <ele>200.4</ele>
        <time>2024-09-18T10:29:12Z</time>
      </trkpt>
      <trkpt lat="46.73036" lon="4.95109">
        <ele>200</ele>
        <time>2024-09-18T10:29:13Z</time>
      </trkpt>
      <trkpt lat="46.73034" lon="4.95113">
        <ele>200</ele>
        <time>2024-09-18T10:29:14Z</time>
      </trkpt>
      <trkpt lat="46.73032" lon="4.95118">
        <ele>200</ele>
        <time>2024-09-18T10:29:15Z</time>
      </trkpt>
      <trkpt lat="46.7303" lon="4.95123">
        <ele>200.4</ele>
        <time>2024-09-18T10:29:16Z</time>
      </trkpt>
      <trkpt lat="46.73028" lon="4.95129">
        <ele>200.2</ele>
        <time>2024-09-18T10:29:17Z</time>
      </trkpt>
      <trkpt lat="46.73025" lon="4.95134">
        <ele>200.2</ele>
        <time>2024-09-18T10:29:18Z</time>
      </trkpt>
      <trkpt lat="46.73023" lon="4.9514">
        <ele>200.2</ele>
        <time>2024-09-18T10:29:19Z</time>
      </trkpt>
      <trkpt lat="46.73021" lon="4.95145">
        <ele>200.2</ele>
        <time>2024-09-18T10:29:20Z</time>
      </trkpt>
      <trkpt lat="46.73018" lon="4.95151">
        <ele>200.2</ele>
        <time>2024-09-18T10:29:21Z</time>
      </trkpt>
      <trkpt lat="46.73016" lon="4.95156">
        <ele>200.4</ele>
        <time>2024-09-18T10:29:22Z</time>
      </trkpt>
      <trkpt lat="46.73014" lon="4.95159">
        <ele>200.4</ele>
        <time>2024-09-18T10:29:23Z</time>
      </trkpt>
      <trkpt lat="46.73013" lon="4.9516">
        <ele>200.4</ele>
        <time>2024-09-18T10:29:24Z</time>
      </trkpt>
      <trkpt lat="46.73013" lon="4.9516">
        <ele>200.4</ele>
        <time>2024-09-18T10:29:25Z</time>
      </trkpt>
      <trkpt lat="46.73013" lon="4.9516">
        <ele>200.4</ele>
        <time>2024-09-18T10:29:26Z</time>
      </trkpt>
      <trkpt lat="46.73012" lon="4.95162">
        <ele>201.8</ele>
        <time>2024-09-18T10:39:14Z</time>
      </trkpt>
      <trkpt lat="46.73011" lon="4.95164">
        <ele>201.8</ele>
        <time>2024-09-18T10:39:15Z</time>
      </trkpt>
      <trkpt lat="46.7301" lon="4.95167">
        <ele>201.8</ele>
        <time>2024-09-18T10:39:16Z</time>
      </trkpt>
      <trkpt lat="46.73009" lon="4.9517">
        <ele>201.8</ele>
        <time>2024-09-18T10:39:17Z</time>
      </trkpt>
      <trkpt lat="46.73008" lon="4.95174">
        <ele>202</ele>
        <time>2024-09-18T10:39:18Z</time>
      </trkpt>
      <trkpt lat="46.73007" lon="4.95177">
        <ele>202</ele>
        <time>2024-09-18T10:39:19Z</time>
      </trkpt>
      <trkpt lat="46.73006" lon="4.95181">
        <ele>202</ele>
        <time>2024-09-18T10:39:20Z</time>
      </trkpt>
      <trkpt lat="46.73004" lon="4.95185">
        <ele>202</ele>
        <time>2024-09-18T10:39:21Z</time>
      </trkpt>
      <trkpt lat="46.73002" lon="4.95189">
        <ele>202</ele>
        <time>2024-09-18T10:39:22Z</time>
      </trkpt>
      <trkpt lat="46.73" lon="4.95193">
        <ele>202.2</ele>
        <time>2024-09-18T10:39:23Z</time>
      </trkpt>
      <trkpt lat="46.72999" lon="4.95198">
        <ele>201.8</ele>
        <time>2024-09-18T10:39:24Z</time>
      </trkpt>
      <trkpt lat="46.72997" lon="4.95202">
        <ele>201.8</ele>
        <time>2024-09-18T10:39:25Z</time>
      </trkpt>
      <trkpt lat="46.72995" lon="4.95207">
        <ele>201.8</ele>
        <time>2024-09-18T10:39:26Z</time>
      </trkpt>
      <trkpt lat="46.72993" lon="4.95212">
        <ele>202.2</ele>
        <time>2024-09-18T10:39:27Z</time>
      </trkpt>
      <trkpt lat="46.72991" lon="4.95217">
        <ele>202.2</ele>
        <time>2024-09-18T10:39:28Z</time>
      </trkpt>
      <trkpt lat="46.72989" lon="4.95221">
        <ele>202.2</ele>
        <time>2024-09-18T10:39:29Z</time>
      </trkpt>
      <trkpt lat="46.72987" lon="4.95227">
        <ele>202.2</ele>
        <time>2024-09-18T10:39:30Z</time>
      </trkpt>
      <trkpt lat="46.72985" lon="4.95232">
        <ele>202.2</ele>
        <time>2024-09-18T10:39:31Z</time>
      </trkpt>
      <trkpt lat="46.72982" lon="4.95237">
        <ele>201.6</ele>
        <time>2024-09-18T10:39:32Z</time>
      </trkpt>
      <trkpt lat="46.7298" lon="4.95242">
        <ele>201.6</ele>
        <time>2024-09-18T10:39:33Z</time>
      </trkpt>
      <trkpt lat="46.72978" lon="4.95248">
        <ele>201.6</ele>
        <time>2024-09-18T10:39:34Z</time>
      </trkpt>
      <trkpt lat="46.72975" lon="4.95253">
        <ele>201.8</ele>
        <time>2024-09-18T10:39:35Z</time>
      </trkpt>
      <trkpt lat="46.72973" lon="4.95259">
        <ele>201.8</ele>
        <time>2024-09-18T10:39:36Z</time>
      </trkpt>
      <trkpt lat="46.72971" lon="4.95264">
        <ele>202</ele>
        <time>2024-09-18T10:39:37Z</time>
      </trkpt>
      <trkpt lat="46.72969" lon="4.95269">
        <ele>202</ele>
        <time>2024-09-18T10:39:38Z</time>
      </trkpt>
      <trkpt lat="46.72966" lon="4.95274">
        <ele>202</ele>
        <time>2024-09-18T10:39:39Z</time>
      </trkpt>
      <trkpt lat="46.72964" lon="4.9528">
        <ele>202</ele>
        <time>2024-09-18T10:39:40Z</time>
      </trkpt>
      <trkpt lat="46.72962" lon="4.95286">
        <ele>202</ele>
        <time>2024-09-18T10:39:41Z</time>
      </trkpt>
      <trkpt lat="46.7296" lon="4.95291">
        <ele>202</ele>
        <time>2024-09-18T10:39:42Z</time>
      </trkpt>
      <trkpt lat="46.72957" lon="4.95297">
        <ele>202.2</ele>
        <time>2024-09-18T10:39:43Z</time>
      </trkpt>
      <trkpt lat="46.72955" lon="4.95302">
        <ele>202.2</ele>
        <time>2024-09-18T10:39:44Z</time>
      </trkpt>
      <trkpt lat="46.72953" lon="4.95308">
        <ele>202</ele>
        <time>2024-09-18T10:39:45Z</time>
      </trkpt>
      <trkpt lat="46.7295" lon="4.95313">
        <ele>201.8</ele>
        <time>2024-09-18T10:39:46Z</time>
      </trkpt>
      <trkpt lat="46.72948" lon="4.95319">
        <ele>201.8</ele>
        <time>2024-09-18T10:39:47Z</time>
      </trkpt>
      <trkpt lat="46.72945" lon="4.95325">
        <ele>201.8</ele>
        <time>2024-09-18T10:39:48Z</time>
      </trkpt>
      <trkpt lat="46.72943" lon="4.95331">
        <ele>201.8</ele>
        <time>2024-09-18T10:39:49Z</time>
      </trkpt>
      <trkpt lat="46.7294" lon="4.95337">
        <ele>201.8</ele>
        <time>2024-09-18T10:39:50Z</time>
      </trkpt>
      <trkpt lat="46.72938" lon="4.95343">
        <ele>201.8</ele>
        <time>2024-09-18T10:39:51Z</time>
      </trkpt>
      <trkpt lat="46.72936" lon="4.95348">
        <ele>201.8</ele>
        <time>2024-09-18T10:39:52Z</time>
      </trkpt>
      <trkpt lat="46.72932" lon="4.95356">
        <ele>201.8</ele>
        <time>2024-09-18T10:39:53Z</time>
      </trkpt>
      <trkpt lat="46.72931" lon="4.95358">
        <ele>201.8</ele>
        <time>2024-09-18T10:39:54Z</time>
      </trkpt>
      <trkpt lat="46.72928" lon="4.95364">
        <ele>202</ele>
        <time>2024-09-18T10:39:55Z</time>
      </trkpt>
      <trkpt lat="46.72926" lon="4.9537">
        <ele>202</ele>
        <time>2024-09-18T10:39:56Z</time>
      </trkpt>
      <trkpt lat="46.72924" lon="4.95376">
        <ele>202</ele>
        <time>2024-09-18T10:39:57Z</time>
      </trkpt>
      <trkpt lat="46.72922" lon="4.95381">
        <ele>201.8</ele>
        <time>2024-09-18T10:39:58Z</time>
      </trkpt>
      <trkpt lat="46.72919" lon="4.95387">
        <ele>201.6</ele>
        <time>2024-09-18T10:39:59Z</time>
      </trkpt>
      <trkpt lat="46.72917" lon="4.95393">
        <ele>201.6</ele>
        <time>2024-09-18T10:40:00Z</time>
      </trkpt>
      <trkpt lat="46.72914" lon="4.95399">
        <ele>201.6</ele>
        <time>2024-09-18T10:40:01Z</time>
      </trkpt>
      <trkpt lat="46.72912" lon="4.95405">
        <ele>201.6</ele>
        <time>2024-09-18T10:40:02Z</time>
      </trkpt>
      <trkpt lat="46.7291" lon="4.95411">
        <ele>201.6</ele>
        <time>2024-09-18T10:40:03Z</time>
      </trkpt>
      <trkpt lat="46.72907" lon="4.95417">
        <ele>201.6</ele>
        <time>2024-09-18T10:40:04Z</time>
      </trkpt>
      <trkpt lat="46.72904" lon="4.95423">
        <ele>201.6</ele>
        <time>2024-09-18T10:40:05Z</time>
      </trkpt>
      <trkpt lat="46.72902" lon="4.95429">
        <ele>201.6</ele>
        <time>2024-09-18T10:40:06Z</time>
      </trkpt>
      <trkpt lat="46.72899" lon="4.95435">
        <ele>201.2</ele>
        <time>2024-09-18T10:40:07Z</time>
      </trkpt>
      <trkpt lat="46.72896" lon="4.95441">
        <ele>201.2</ele>
        <time>2024-09-18T10:40:08Z</time>
      </trkpt>
      <trkpt lat="46.72894" lon="4.95447">
        <ele>201.2</ele>
        <time>2024-09-18T10:40:09Z</time>
      </trkpt>
      <trkpt lat="46.72891" lon="4.95453">
        <ele>201.2</ele>
        <time>2024-09-18T10:40:10Z</time>
      </trkpt>
      <trkpt lat="46.72889" lon="4.95459">
        <ele>201.2</ele>
        <time>2024-09-18T10:40:11Z</time>
      </trkpt>
      <trkpt lat="46.72886" lon="4.95466">
        <ele>201.2</ele>
        <time>2024-09-18T10:40:12Z</time>
      </trkpt>
      <trkpt lat="46.72882" lon="4.95475">
        <ele>201.6</ele>
        <time>2024-09-18T10:40:13Z</time>
      </trkpt>
      <trkpt lat="46.72881" lon="4.95478">
        <ele>201.6</ele>
        <time>2024-09-18T10:40:14Z</time>
      </trkpt>
      <trkpt lat="46.72878" lon="4.95485">
        <ele>201.6</ele>
        <time>2024-09-18T10:40:15Z</time>
      </trkpt>
      <trkpt lat="46.72875" lon="4.95491">
        <ele>201.6</ele>
        <time>2024-09-18T10:40:16Z</time>
      </trkpt>
      <trkpt lat="46.72873" lon="4.95498">
        <ele>200.8</ele>
        <time>2024-09-18T10:40:17Z</time>
      </trkpt>
      <trkpt lat="46.7287" lon="4.95504">
        <ele>200.8</ele>
        <time>2024-09-18T10:40:18Z</time>
      </trkpt>
      <trkpt lat="46.72867" lon="4.9551">
        <ele>200.8</ele>
        <time>2024-09-18T10:40:19Z</time>
      </trkpt>
      <trkpt lat="46.72865" lon="4.95517">
        <ele>200.8</ele>
        <time>2024-09-18T10:40:20Z</time>
      </trkpt>
      <trkpt lat="46.72862" lon="4.95523">
        <ele>200.8</ele>
        <time>2024-09-18T10:40:21Z</time>
      </trkpt>
      <trkpt lat="46.7286" lon="4.9553">
        <ele>200.8</ele>
        <time>2024-09-18T10:40:22Z</time>
      </trkpt>
      <trkpt lat="46.72858" lon="4.95536">
        <ele>200.8</ele>
        <time>2024-09-18T10:40:23Z</time>
      </trkpt>
      <trkpt lat="46.72855" lon="4.95543">
        <ele>200.8</ele>
        <time>2024-09-18T10:40:24Z</time>
      </trkpt>
      <trkpt lat="46.72853" lon="4.95549">
        <ele>200.8</ele>
        <time>2024-09-18T10:40:25Z</time>
      </trkpt>
      <trkpt lat="46.72851" lon="4.95554">
        <ele>200.6</ele>
        <time>2024-09-18T10:40:26Z</time>
      </trkpt>
      <trkpt lat="46.72848" lon="4.9556">
        <ele>200.2</ele>
        <time>2024-09-18T10:40:27Z</time>
      </trkpt>
      <trkpt lat="46.72845" lon="4.95566">
        <ele>200.2</ele>
        <time>2024-09-18T10:40:28Z</time>
      </trkpt>
      <trkpt lat="46.72843" lon="4.95573">
        <ele>200.2</ele>
        <time>2024-09-18T10:40:29Z</time>
      </trkpt>
      <trkpt lat="46.7284" lon="4.95579">
        <ele>200.2</ele>
        <time>2024-09-18T10:40:30Z</time>
      </trkpt>
      <trkpt lat="46.72838" lon="4.95585">
        <ele>200.2</ele>
        <time>2024-09-18T10:40:31Z</time>
      </trkpt>
      <trkpt lat="46.72835" lon="4.95591">
        <ele>199.8</ele>
        <time>2024-09-18T10:40:32Z</time>
      </trkpt>
      <trkpt lat="46.72832" lon="4.95598">
        <ele>199.8</ele>
        <time>2024-09-18T10:40:33Z</time>
      </trkpt>
      <trkpt lat="46.72829" lon="4.95603">
        <ele>199.8</ele>
        <time>2024-09-18T10:40:34Z</time>
      </trkpt>
      <trkpt lat="46.72826" lon="4.95609">
        <ele>199.6</ele>
        <time>2024-09-18T10:40:35Z</time>
      </trkpt>
      <trkpt lat="46.72824" lon="4.95615">
        <ele>199.6</ele>
        <time>2024-09-18T10:40:36Z</time>
      </trkpt>
      <trkpt lat="46.72822" lon="4.95621">
        <ele>199.6</ele>
        <time>2024-09-18T10:40:37Z</time>
      </trkpt>
      <trkpt lat="46.72819" lon="4.95627">
        <ele>199.6</ele>
        <time>2024-09-18T10:40:38Z</time>
      </trkpt>
      <trkpt lat="46.72816" lon="4.95634">
        <ele>199.6</ele>
        <time>2024-09-18T10:40:39Z</time>
      </trkpt>
      <trkpt lat="46.72813" lon="4.9564">
        <ele>199.6</ele>
        <time>2024-09-18T10:40:40Z</time>
      </trkpt>
      <trkpt lat="46.72811" lon="4.95646">
        <ele>199.6</ele>
        <time>2024-09-18T10:40:41Z</time>
      </trkpt>
      <trkpt lat="46.72808" lon="4.95652">
        <ele>199.6</ele>
        <time>2024-09-18T10:40:42Z</time>
      </trkpt>
      <trkpt lat="46.72805" lon="4.95658">
        <ele>199.6</ele>
        <time>2024-09-18T10:40:43Z</time>
      </trkpt>
      <trkpt lat="46.72803" lon="4.95665">
        <ele>199.6</ele>
        <time>2024-09-18T10:40:44Z</time>
      </trkpt>
      <trkpt lat="46.728" lon="4.95671">
        <ele>199.6</ele>
        <time>2024-09-18T10:40:45Z</time>
      </trkpt>
      <trkpt lat="46.72798" lon="4.95677">
        <ele>199.6</ele>
        <time>2024-09-18T10:40:46Z</time>
      </trkpt>
      <trkpt lat="46.72795" lon="4.95684">
        <ele>199</ele>
        <time>2024-09-18T10:40:47Z</time>
      </trkpt>
      <trkpt lat="46.72792" lon="4.9569">
        <ele>199</ele>
        <time>2024-09-18T10:40:48Z</time>
      </trkpt>
      <trkpt lat="46.7279" lon="4.95696">
        <ele>199</ele>
        <time>2024-09-18T10:40:49Z</time>
      </trkpt>
      <trkpt lat="46.72787" lon="4.95702">
        <ele>199</ele>
        <time>2024-09-18T10:40:50Z</time>
      </trkpt>
      <trkpt lat="46.72785" lon="4.95708">
        <ele>199</ele>
        <time>2024-09-18T10:40:51Z</time>
      </trkpt>
      <trkpt lat="46.72782" lon="4.95714">
        <ele>199</ele>
        <time>2024-09-18T10:40:52Z</time>
      </trkpt>
      <trkpt lat="46.72779" lon="4.9572">
        <ele>199</ele>
        <time>2024-09-18T10:40:53Z</time>
      </trkpt>
      <trkpt lat="46.72776" lon="4.95727">
        <ele>199</ele>
        <time>2024-09-18T10:40:54Z</time>
      </trkpt>
      <trkpt lat="46.72774" lon="4.95733">
        <ele>199</ele>
        <time>2024-09-18T10:40:55Z</time>
      </trkpt>
      <trkpt lat="46.72771" lon="4.9574">
        <ele>198.6</ele>
        <time>2024-09-18T10:40:56Z</time>
      </trkpt>
      <trkpt lat="46.72769" lon="4.95747">
        <ele>198.8</ele>
        <time>2024-09-18T10:40:57Z</time>
      </trkpt>
      <trkpt lat="46.72766" lon="4.95753">
        <ele>198.8</ele>
        <time>2024-09-18T10:40:58Z</time>
      </trkpt>
      <trkpt lat="46.72764" lon="4.9576">
        <ele>198.8</ele>
        <time>2024-09-18T10:40:59Z</time>
      </trkpt>
      <trkpt lat="46.72761" lon="4.95766">
        <ele>198.8</ele>
        <time>2024-09-18T10:41:00Z</time>
      </trkpt>
      <trkpt lat="46.72758" lon="4.95772">
        <ele>198.8</ele>
        <time>2024-09-18T10:41:01Z</time>
      </trkpt>
      <trkpt lat="46.72755" lon="4.95778">
        <ele>198.4</ele>
        <time>2024-09-18T10:41:02Z</time>
      </trkpt>
      <trkpt lat="46.72753" lon="4.95784">
        <ele>198.4</ele>
        <time>2024-09-18T10:41:03Z</time>
      </trkpt>
      <trkpt lat="46.7275" lon="4.95789">
        <ele>198.4</ele>
        <time>2024-09-18T10:41:04Z</time>
      </trkpt>
      <trkpt lat="46.72747" lon="4.95795">
        <ele>198.4</ele>
        <time>2024-09-18T10:41:05Z</time>
      </trkpt>
      <trkpt lat="46.72745" lon="4.958">
        <ele>198.4</ele>
        <time>2024-09-18T10:41:06Z</time>
      </trkpt>
      <trkpt lat="46.72742" lon="4.95805">
        <ele>198.6</ele>
        <time>2024-09-18T10:41:07Z</time>
      </trkpt>
      <trkpt lat="46.72739" lon="4.9581">
        <ele>198.6</ele>
        <time>2024-09-18T10:41:08Z</time>
      </trkpt>
      <trkpt lat="46.72737" lon="4.95814">
        <ele>198.6</ele>
        <time>2024-09-18T10:41:09Z</time>
      </trkpt>
      <trkpt lat="46.72734" lon="4.95817">
        <ele>198.6</ele>
        <time>2024-09-18T10:41:10Z</time>
      </trkpt>
      <trkpt lat="46.72732" lon="4.95818">
        <ele>198.6</ele>
        <time>2024-09-18T10:41:11Z</time>
      </trkpt>
      <trkpt lat="46.72729" lon="4.95819">
        <ele>198.6</ele>
        <time>2024-09-18T10:41:12Z</time>
      </trkpt>
      <trkpt lat="46.72728" lon="4.95818">
        <ele>198.6</ele>
        <time>2024-09-18T10:41:13Z</time>
      </trkpt>
      <trkpt lat="46.72726" lon="4.95817">
        <ele>198.6</ele>
        <time>2024-09-18T10:41:14Z</time>
      </trkpt>
      <trkpt lat="46.72724" lon="4.95814">
        <ele>198.6</ele>
        <time>2024-09-18T10:41:15Z</time>
      </trkpt>
      <trkpt lat="46.72724" lon="4.95812">
        <ele>198.2</ele>
        <time>2024-09-18T10:41:16Z</time>
      </trkpt>
      <trkpt lat="46.72723" lon="4.9581">
        <ele>198.2</ele>
        <time>2024-09-18T10:41:17Z</time>
      </trkpt>
      <trkpt lat="46.72723" lon="4.95809">
        <ele>198.2</ele>
        <time>2024-09-18T10:41:18Z</time>
      </trkpt>
      <trkpt lat="46.72723" lon="4.95808">
        <ele>198</ele>
        <time>2024-09-18T10:41:19Z</time>
      </trkpt>
      <trkpt lat="46.7272" lon="4.95804">
        <ele>197.2</ele>
        <time>2024-09-18T10:42:19Z</time>
      </trkpt>
      <trkpt lat="46.72719" lon="4.95803">
        <ele>197.2</ele>
        <time>2024-09-18T10:42:20Z</time>
      </trkpt>
      <trkpt lat="46.72719" lon="4.95803">
        <ele>197</ele>
        <time>2024-09-18T10:42:21Z</time>
      </trkpt>
      <trkpt lat="46.72719" lon="4.95801">
        <ele>197</ele>
        <time>2024-09-18T10:42:22Z</time>
      </trkpt>
      <trkpt lat="46.72718" lon="4.95799">
        <ele>197</ele>
        <time>2024-09-18T10:42:23Z</time>
      </trkpt>
      <trkpt lat="46.72717" lon="4.95797">
        <ele>197</ele>
        <time>2024-09-18T10:42:24Z</time>
      </trkpt>
      <trkpt lat="46.72716" lon="4.95795">
        <ele>197</ele>
        <time>2024-09-18T10:42:25Z</time>
      </trkpt>
      <trkpt lat="46.72715" lon="4.95793">
        <ele>197</ele>
        <time>2024-09-18T10:42:26Z</time>
      </trkpt>
      <trkpt lat="46.72713" lon="4.9579">
        <ele>197</ele>
        <time>2024-09-18T10:42:27Z</time>
      </trkpt>
      <trkpt lat="46.72712" lon="4.95787">
        <ele>197</ele>
        <time>2024-09-18T10:42:28Z</time>
      </trkpt>
      <trkpt lat="46.7271" lon="4.95783">
        <ele>197</ele>
        <time>2024-09-18T10:42:29Z</time>
      </trkpt>
      <trkpt lat="46.72709" lon="4.9578">
        <ele>197</ele>
        <time>2024-09-18T10:42:30Z</time>
      </trkpt>
      <trkpt lat="46.72707" lon="4.95776">
        <ele>197</ele>
        <time>2024-09-18T10:42:31Z</time>
      </trkpt>
      <trkpt lat="46.72705" lon="4.95772">
        <ele>197.2</ele>
        <time>2024-09-18T10:42:32Z</time>
      </trkpt>
      <trkpt lat="46.72703" lon="4.95768">
        <ele>197.2</ele>
        <time>2024-09-18T10:42:33Z</time>
      </trkpt>
      <trkpt lat="46.72701" lon="4.95764">
        <ele>197.2</ele>
        <time>2024-09-18T10:42:34Z</time>
      </trkpt>
      <trkpt lat="46.72699" lon="4.95759">
        <ele>197.2</ele>
        <time>2024-09-18T10:42:35Z</time>
      </trkpt>
      <trkpt lat="46.72697" lon="4.95755">
        <ele>197.4</ele>
        <time>2024-09-18T10:42:36Z</time>
      </trkpt>
      <trkpt lat="46.72695" lon="4.95751">
        <ele>197.4</ele>
        <time>2024-09-18T10:42:37Z</time>
      </trkpt>
      <trkpt lat="46.72692" lon="4.95746">
        <ele>197.4</ele>
        <time>2024-09-18T10:42:38Z</time>
      </trkpt>
      <trkpt lat="46.7269" lon="4.95741">
        <ele>197.4</ele>
        <time>2024-09-18T10:42:39Z</time>
      </trkpt>
      <trkpt lat="46.72688" lon="4.95736">
        <ele>197.4</ele>
        <time>2024-09-18T10:42:40Z</time>
      </trkpt>
      <trkpt lat="46.72685" lon="4.95732">
        <ele>197.4</ele>
        <time>2024-09-18T10:42:41Z</time>
      </trkpt>
      <trkpt lat="46.72683" lon="4.95727">
        <ele>197.4</ele>
        <time>2024-09-18T10:42:42Z</time>
      </trkpt>
      <trkpt lat="46.72681" lon="4.95722">
        <ele>197.6</ele>
        <time>2024-09-18T10:42:43Z</time>
      </trkpt>
      <trkpt lat="46.72679" lon="4.95717">
        <ele>197.6</ele>
        <time>2024-09-18T10:42:44Z</time>
      </trkpt>
      <trkpt lat="46.72676" lon="4.95713">
        <ele>197.8</ele>
        <time>2024-09-18T10:42:45Z</time>
      </trkpt>
      <trkpt lat="46.72674" lon="4.95708">
        <ele>197.8</ele>
        <time>2024-09-18T10:42:46Z</time>
      </trkpt>
      <trkpt lat="46.72671" lon="4.95704">
        <ele>197.8</ele>
        <time>2024-09-18T10:42:47Z</time>
      </trkpt>
      <trkpt lat="46.72669" lon="4.95699">
        <ele>197.8</ele>
        <time>2024-09-18T10:42:48Z</time>
      </trkpt>
      <trkpt lat="46.72667" lon="4.95694">
        <ele>198.2</ele>
        <time>2024-09-18T10:42:49Z</time>
      </trkpt>
      <trkpt lat="46.72665" lon="4.9569">
        <ele>198.2</ele>
        <time>2024-09-18T10:42:50Z</time>
      </trkpt>
      <trkpt lat="46.72662" lon="4.95686">
        <ele>198.2</ele>
        <time>2024-09-18T10:42:51Z</time>
      </trkpt>
      <trkpt lat="46.7266" lon="4.95682">
        <ele>198.2</ele>
        <time>2024-09-18T10:42:52Z</time>
      </trkpt>
      <trkpt lat="46.72658" lon="4.95678">
        <ele>198.2</ele>
        <time>2024-09-18T10:42:53Z</time>
      </trkpt>
      <trkpt lat="46.72656" lon="4.95674">
        <ele>198.2</ele>
        <time>2024-09-18T10:42:54Z</time>
      </trkpt>
      <trkpt lat="46.72653" lon="4.95668">
        <ele>198.2</ele>
        <time>2024-09-18T10:42:55Z</time>
      </trkpt>
      <trkpt lat="46.72652" lon="4.95665">
        <ele>198.2</ele>
        <time>2024-09-18T10:42:56Z</time>
      </trkpt>
      <trkpt lat="46.72649" lon="4.95661">
        <ele>197.8</ele>
        <time>2024-09-18T10:42:57Z</time>
      </trkpt>
      <trkpt lat="46.72647" lon="4.95656">
        <ele>197.8</ele>
        <time>2024-09-18T10:42:58Z</time>
      </trkpt>
      <trkpt lat="46.72644" lon="4.95651">
        <ele>198</ele>
        <time>2024-09-18T10:42:59Z</time>
      </trkpt>
      <trkpt lat="46.72642" lon="4.95647">
        <ele>198</ele>
        <time>2024-09-18T10:43:00Z</time>
      </trkpt>
      <trkpt lat="46.72639" lon="4.95642">
        <ele>198.2</ele>
        <time>2024-09-18T10:43:01Z</time>
      </trkpt>
      <trkpt lat="46.72637" lon="4.95637">
        <ele>198.2</ele>
        <time>2024-09-18T10:43:02Z</time>
      </trkpt>
      <trkpt lat="46.72635" lon="4.95632">
        <ele>198.6</ele>
        <time>2024-09-18T10:43:03Z</time>
      </trkpt>
      <trkpt lat="46.72632" lon="4.95627">
        <ele>198.6</ele>
        <time>2024-09-18T10:43:04Z</time>
      </trkpt>
      <trkpt lat="46.7263" lon="4.95622">
        <ele>198.6</ele>
        <time>2024-09-18T10:43:05Z</time>
      </trkpt>
      <trkpt lat="46.72627" lon="4.95617">
        <ele>198.6</ele>
        <time>2024-09-18T10:43:06Z</time>
      </trkpt>
      <trkpt lat="46.72625" lon="4.95612">
        <ele>198.6</ele>
        <time>2024-09-18T10:43:07Z</time>
      </trkpt>
      <trkpt lat="46.72622" lon="4.95607">
        <ele>198.6</ele>
        <time>2024-09-18T10:43:08Z</time>
      </trkpt>
      <trkpt lat="46.7262" lon="4.95601">
        <ele>198.6</ele>
        <time>2024-09-18T10:43:09Z</time>
      </trkpt>
      <trkpt lat="46.72617" lon="4.95596">
        <ele>198.6</ele>
        <time>2024-09-18T10:43:10Z</time>
      </trkpt>
      <trkpt lat="46.72615" lon="4.95591">
        <ele>199</ele>
        <time>2024-09-18T10:43:11Z</time>
      </trkpt>
      <trkpt lat="46.72613" lon="4.95586">
        <ele>199</ele>
        <time>2024-09-18T10:43:12Z</time>
      </trkpt>
      <trkpt lat="46.7261" lon="4.95582">
        <ele>199</ele>
        <time>2024-09-18T10:43:13Z</time>
      </trkpt>
      <trkpt lat="46.72608" lon="4.95577">
        <ele>199</ele>
        <time>2024-09-18T10:43:14Z</time>
      </trkpt>
      <trkpt lat="46.72605" lon="4.95572">
        <ele>199.2</ele>
        <time>2024-09-18T10:43:15Z</time>
      </trkpt>
      <trkpt lat="46.72603" lon="4.95567">
        <ele>199.4</ele>
        <time>2024-09-18T10:43:16Z</time>
      </trkpt>
      <trkpt lat="46.726" lon="4.95562">
        <ele>199.4</ele>
        <time>2024-09-18T10:43:17Z</time>
      </trkpt>
      <trkpt lat="46.72598" lon="4.95557">
        <ele>199.4</ele>
        <time>2024-09-18T10:43:18Z</time>
      </trkpt>
      <trkpt lat="46.72595" lon="4.95553">
        <ele>199.6</ele>
        <time>2024-09-18T10:43:19Z</time>
      </trkpt>
      <trkpt lat="46.72593" lon="4.95548">
        <ele>199.6</ele>
        <time>2024-09-18T10:43:20Z</time>
      </trkpt>
      <trkpt lat="46.7259" lon="4.95543">
        <ele>199.6</ele>
        <time>2024-09-18T10:43:21Z</time>
      </trkpt>
      <trkpt lat="46.72588" lon="4.95538">
        <ele>199.6</ele>
        <time>2024-09-18T10:43:22Z</time>
      </trkpt>
      <trkpt lat="46.72585" lon="4.95534">
        <ele>199.6</ele>
        <time>2024-09-18T10:43:23Z</time>
      </trkpt>
      <trkpt lat="46.72583" lon="4.95529">
        <ele>199.6</ele>
        <time>2024-09-18T10:43:24Z</time>
      </trkpt>
      <trkpt lat="46.72581" lon="4.95524">
        <ele>199.8</ele>
        <time>2024-09-18T10:43:25Z</time>
      </trkpt>
      <trkpt lat="46.72578" lon="4.95519">
        <ele>199.8</ele>
        <time>2024-09-18T10:43:26Z</time>
      </trkpt>
      <trkpt lat="46.72575" lon="4.95514">
        <ele>199.8</ele>
        <time>2024-09-18T10:43:27Z</time>
      </trkpt>
      <trkpt lat="46.72573" lon="4.9551">
        <ele>199.8</ele>
        <time>2024-09-18T10:43:28Z</time>
      </trkpt>
      <trkpt lat="46.7257" lon="4.95505">
        <ele>199.8</ele>
        <time>2024-09-18T10:43:29Z</time>
      </trkpt>
      <trkpt lat="46.72568" lon="4.955">
        <ele>200.4</ele>
        <time>2024-09-18T10:43:30Z</time>
      </trkpt>
      <trkpt lat="46.72565" lon="4.95495">
        <ele>200.4</ele>
        <time>2024-09-18T10:43:31Z</time>
      </trkpt>
      <trkpt lat="46.72563" lon="4.95491">
        <ele>200.4</ele>
        <time>2024-09-18T10:43:32Z</time>
      </trkpt>
      <trkpt lat="46.7256" lon="4.95485">
        <ele>200.4</ele>
        <time>2024-09-18T10:43:33Z</time>
      </trkpt>
      <trkpt lat="46.72558" lon="4.9548">
        <ele>200.4</ele>
        <time>2024-09-18T10:43:34Z</time>
      </trkpt>
      <trkpt lat="46.72555" lon="4.95475">
        <ele>200.4</ele>
        <time>2024-09-18T10:43:35Z</time>
      </trkpt>
      <trkpt lat="46.72552" lon="4.95471">
        <ele>200.4</ele>
        <time>2024-09-18T10:43:36Z</time>
      </trkpt>
      <trkpt lat="46.72549" lon="4.95467">
        <ele>200.4</ele>
        <time>2024-09-18T10:43:37Z</time>
      </trkpt>
      <trkpt lat="46.72546" lon="4.95462">
        <ele>200.4</ele>
        <time>2024-09-18T10:43:38Z</time>
      </trkpt>
      <trkpt lat="46.72543" lon="4.95457">
        <ele>200.6</ele>
        <time>2024-09-18T10:43:39Z</time>
      </trkpt>
      <trkpt lat="46.7254" lon="4.95452">
        <ele>200.6</ele>
        <time>2024-09-18T10:43:40Z</time>
      </trkpt>
      <trkpt lat="46.72537" lon="4.95447">
        <ele>200.6</ele>
        <time>2024-09-18T10:43:41Z</time>
      </trkpt>
      <trkpt lat="46.72534" lon="4.95442">
        <ele>200.6</ele>
        <time>2024-09-18T10:43:42Z</time>
      </trkpt>
      <trkpt lat="46.7253" lon="4.95438">
        <ele>200.4</ele>
        <time>2024-09-18T10:43:43Z</time>
      </trkpt>
      <trkpt lat="46.72527" lon="4.95433">
        <ele>200.4</ele>
        <time>2024-09-18T10:43:44Z</time>
      </trkpt>
      <trkpt lat="46.72524" lon="4.95428">
        <ele>200.4</ele>
        <time>2024-09-18T10:43:45Z</time>
      </trkpt>
      <trkpt lat="46.7252" lon="4.95423">
        <ele>200.4</ele>
        <time>2024-09-18T10:43:46Z</time>
      </trkpt>
      <trkpt lat="46.72517" lon="4.95418">
        <ele>200.6</ele>
        <time>2024-09-18T10:43:47Z</time>
      </trkpt>
      <trkpt lat="46.72514" lon="4.95414">
        <ele>200.6</ele>
        <time>2024-09-18T10:43:48Z</time>
      </trkpt>
      <trkpt lat="46.72511" lon="4.95409">
        <ele>200.6</ele>
        <time>2024-09-18T10:43:49Z</time>
      </trkpt>
      <trkpt lat="46.72507" lon="4.95404">
        <ele>200.6</ele>
        <time>2024-09-18T10:43:50Z</time>
      </trkpt>
      <trkpt lat="46.72504" lon="4.95399">
        <ele>200.6</ele>
        <time>2024-09-18T10:43:51Z</time>
      </trkpt>
      <trkpt lat="46.72501" lon="4.95394">
        <ele>200.6</ele>
        <time>2024-09-18T10:43:52Z</time>
      </trkpt>
      <trkpt lat="46.72498" lon="4.95389">
        <ele>200.4</ele>
        <time>2024-09-18T10:43:53Z</time>
      </trkpt>
      <trkpt lat="46.72495" lon="4.95385">
        <ele>200.4</ele>
        <time>2024-09-18T10:43:54Z</time>
      </trkpt>
      <trkpt lat="46.72493" lon="4.95382">
        <ele>201</ele>
        <time>2024-09-18T10:43:55Z</time>
      </trkpt>
      <trkpt lat="46.72492" lon="4.9538">
        <ele>201</ele>
        <time>2024-09-18T10:43:56Z</time>
      </trkpt>
      <trkpt lat="46.72492" lon="4.9538">
        <ele>201</ele>
        <time>2024-09-18T10:43:57Z</time>
      </trkpt>
      <trkpt lat="46.72492" lon="4.9538">
        <ele>201</ele>
        <time>2024-09-18T10:43:58Z</time>
      </trkpt>
      <trkpt lat="46.72489" lon="4.95375">
        <ele>200.6</ele>
        <time>2024-09-18T10:44:15Z</time>
      </trkpt>
      <trkpt lat="46.72487" lon="4.95373">
        <ele>200.6</ele>
        <time>2024-09-18T10:44:16Z</time>
      </trkpt>
      <trkpt lat="46.72485" lon="4.95371">
        <ele>200.6</ele>
        <time>2024-09-18T10:44:17Z</time>
      </trkpt>
      <trkpt lat="46.72483" lon="4.95369">
        <ele>200.8</ele>
        <time>2024-09-18T10:44:18Z</time>
      </trkpt>
      <trkpt lat="46.72481" lon="4.95367">
        <ele>200.8</ele>
        <time>2024-09-18T10:44:19Z</time>
      </trkpt>
      <trkpt lat="46.72479" lon="4.95364">
        <ele>200.8</ele>
        <time>2024-09-18T10:44:20Z</time>
      </trkpt>
      <trkpt lat="46.72478" lon="4.95362">
        <ele>200.8</ele>
        <time>2024-09-18T10:44:21Z</time>
      </trkpt>
      <trkpt lat="46.72476" lon="4.95359">
        <ele>200.8</ele>
        <time>2024-09-18T10:44:22Z</time>
      </trkpt>
      <trkpt lat="46.72474" lon="4.95356">
        <ele>200.8</ele>
        <time>2024-09-18T10:44:23Z</time>
      </trkpt>
      <trkpt lat="46.72472" lon="4.95353">
        <ele>200.8</ele>
        <time>2024-09-18T10:44:24Z</time>
      </trkpt>
      <trkpt lat="46.72471" lon="4.9535">
        <ele>200.8</ele>
        <time>2024-09-18T10:44:25Z</time>
      </trkpt>
      <trkpt lat="46.72469" lon="4.95347">
        <ele>200.8</ele>
        <time>2024-09-18T10:44:26Z</time>
      </trkpt>
      <trkpt lat="46.72466" lon="4.95343">
        <ele>201</ele>
        <time>2024-09-18T10:44:27Z</time>
      </trkpt>
      <trkpt lat="46.72463" lon="4.9534">
        <ele>201</ele>
        <time>2024-09-18T10:44:28Z</time>
      </trkpt>
      <trkpt lat="46.72461" lon="4.95336">
        <ele>201</ele>
        <time>2024-09-18T10:44:29Z</time>
      </trkpt>
      <trkpt lat="46.72458" lon="4.95332">
        <ele>201</ele>
        <time>2024-09-18T10:44:30Z</time>
      </trkpt>
      <trkpt lat="46.72455" lon="4.95328">
        <ele>201.4</ele>
        <time>2024-09-18T10:44:31Z</time>
      </trkpt>
      <trkpt lat="46.72453" lon="4.95323">
        <ele>201.4</ele>
        <time>2024-09-18T10:44:32Z</time>
      </trkpt>
      <trkpt lat="46.7245" lon="4.95319">
        <ele>201.2</ele>
        <time>2024-09-18T10:44:33Z</time>
      </trkpt>
      <trkpt lat="46.72447" lon="4.95315">
        <ele>201.2</ele>
        <time>2024-09-18T10:44:34Z</time>
      </trkpt>
      <trkpt lat="46.72445" lon="4.95311">
        <ele>201.2</ele>
        <time>2024-09-18T10:44:35Z</time>
      </trkpt>
      <trkpt lat="46.72442" lon="4.95307">
        <ele>201.2</ele>
        <time>2024-09-18T10:44:36Z</time>
      </trkpt>
      <trkpt lat="46.72439" lon="4.95302">
        <ele>201.2</ele>
        <time>2024-09-18T10:44:37Z</time>
      </trkpt>
      <trkpt lat="46.72437" lon="4.95298">
        <ele>201.2</ele>
        <time>2024-09-18T10:44:38Z</time>
      </trkpt>
      <trkpt lat="46.72434" lon="4.95293">
        <ele>201.2</ele>
        <time>2024-09-18T10:44:39Z</time>
      </trkpt>
      <trkpt lat="46.72432" lon="4.95288">
        <ele>201.2</ele>
        <time>2024-09-18T10:44:40Z</time>
      </trkpt>
      <trkpt lat="46.7243" lon="4.95283">
        <ele>201.6</ele>
        <time>2024-09-18T10:44:41Z</time>
      </trkpt>
      <trkpt lat="46.72428" lon="4.95278">
        <ele>201.6</ele>
        <time>2024-09-18T10:44:42Z</time>
      </trkpt>
      <trkpt lat="46.72426" lon="4.95274">
        <ele>201.6</ele>
        <time>2024-09-18T10:44:43Z</time>
      </trkpt>
      <trkpt lat="46.72424" lon="4.95269">
        <ele>201</ele>
        <time>2024-09-18T10:44:44Z</time>
      </trkpt>
      <trkpt lat="46.72422" lon="4.95265">
        <ele>201.2</ele>
        <time>2024-09-18T10:44:45Z</time>
      </trkpt>
      <trkpt lat="46.72421" lon="4.95262">
        <ele>201.2</ele>
        <time>2024-09-18T10:44:46Z</time>
      </trkpt>
      <trkpt lat="46.72419" lon="4.9526">
        <ele>201.2</ele>
        <time>2024-09-18T10:44:47Z</time>
      </trkpt>
      <trkpt lat="46.72418" lon="4.95259">
        <ele>201.2</ele>
        <time>2024-09-18T10:44:48Z</time>
      </trkpt>
      <trkpt lat="46.72416" lon="4.95258">
        <ele>201</ele>
        <time>2024-09-18T10:44:49Z</time>
      </trkpt>
      <trkpt lat="46.72414" lon="4.95257">
        <ele>201</ele>
        <time>2024-09-18T10:44:50Z</time>
      </trkpt>
      <trkpt lat="46.72411" lon="4.95257">
        <ele>201</ele>
        <time>2024-09-18T10:44:51Z</time>
      </trkpt>
      <trkpt lat="46.72408" lon="4.95258">
        <ele>201</ele>
        <time>2024-09-18T10:44:52Z</time>
      </trkpt>
      <trkpt lat="46.72405" lon="4.95259">
        <ele>201</ele>
        <time>2024-09-18T10:44:53Z</time>
      </trkpt>
      <trkpt lat="46.72402" lon="4.95261">
        <ele>200.8</ele>
        <time>2024-09-18T10:44:54Z</time>
      </trkpt>
      <trkpt lat="46.72398" lon="4.95263">
        <ele>200.8</ele>
        <time>2024-09-18T10:44:55Z</time>
      </trkpt>
      <trkpt lat="46.72394" lon="4.95265">
        <ele>200.8</ele>
        <time>2024-09-18T10:44:56Z</time>
      </trkpt>
      <trkpt lat="46.7239" lon="4.95267">
        <ele>200.8</ele>
        <time>2024-09-18T10:44:57Z</time>
      </trkpt>
      <trkpt lat="46.72386" lon="4.95269">
        <ele>201</ele>
        <time>2024-09-18T10:44:58Z</time>
      </trkpt>
      <trkpt lat="46.72382" lon="4.95272">
        <ele>201</ele>
        <time>2024-09-18T10:44:59Z</time>
      </trkpt>
      <trkpt lat="46.72378" lon="4.95274">
        <ele>201</ele>
        <time>2024-09-18T10:45:00Z</time>
      </trkpt>
      <trkpt lat="46.72374" lon="4.95277">
        <ele>201</ele>
        <time>2024-09-18T10:45:01Z</time>
      </trkpt>
      <trkpt lat="46.7237" lon="4.95279">
        <ele>201</ele>
        <time>2024-09-18T10:45:02Z</time>
      </trkpt>
      <trkpt lat="46.72365" lon="4.95282">
        <ele>201</ele>
        <time>2024-09-18T10:45:03Z</time>
      </trkpt>
      <trkpt lat="46.72361" lon="4.95285">
        <ele>201.2</ele>
        <time>2024-09-18T10:45:04Z</time>
      </trkpt>
      <trkpt lat="46.72357" lon="4.95288">
        <ele>201.2</ele>
        <time>2024-09-18T10:45:05Z</time>
      </trkpt>
      <trkpt lat="46.72352" lon="4.95291">
        <ele>201.2</ele>
        <time>2024-09-18T10:45:06Z</time>
      </trkpt>
      <trkpt lat="46.72348" lon="4.95294">
        <ele>201.2</ele>
        <time>2024-09-18T10:45:07Z</time>
      </trkpt>
      <trkpt lat="46.72344" lon="4.95296">
        <ele>201.2</ele>
        <time>2024-09-18T10:45:08Z</time>
      </trkpt>
      <trkpt lat="46.72339" lon="4.95299">
        <ele>201.2</ele>
        <time>2024-09-18T10:45:09Z</time>
      </trkpt>
      <trkpt lat="46.72335" lon="4.95302">
        <ele>201.2</ele>
        <time>2024-09-18T10:45:10Z</time>
      </trkpt>
      <trkpt lat="46.72331" lon="4.95305">
        <ele>201.2</ele>
        <time>2024-09-18T10:45:11Z</time>
      </trkpt>
      <trkpt lat="46.72326" lon="4.95308">
        <ele>201.2</ele>
        <time>2024-09-18T10:45:12Z</time>
      </trkpt>
      <trkpt lat="46.72322" lon="4.95311">
        <ele>201.2</ele>
        <time>2024-09-18T10:45:13Z</time>
      </trkpt>
      <trkpt lat="46.72317" lon="4.95314">
        <ele>201.2</ele>
        <time>2024-09-18T10:45:14Z</time>
      </trkpt>
      <trkpt lat="46.72313" lon="4.95316">
        <ele>201.2</ele>
        <time>2024-09-18T10:45:15Z</time>
      </trkpt>
      <trkpt lat="46.72309" lon="4.95319">
        <ele>201.2</ele>
        <time>2024-09-18T10:45:16Z</time>
      </trkpt>
      <trkpt lat="46.72304" lon="4.95321">
        <ele>201.2</ele>
        <time>2024-09-18T10:45:17Z</time>
      </trkpt>
      <trkpt lat="46.723" lon="4.95323">
        <ele>201.2</ele>
        <time>2024-09-18T10:45:18Z</time>
      </trkpt>
      <trkpt lat="46.72296" lon="4.95325">
        <ele>201.2</ele>
        <time>2024-09-18T10:45:19Z</time>
      </trkpt>
      <trkpt lat="46.72291" lon="4.95327">
        <ele>201.2</ele>
        <time>2024-09-18T10:45:20Z</time>
      </trkpt>
      <trkpt lat="46.72287" lon="4.95329">
        <ele>201.4</ele>
        <time>2024-09-18T10:45:21Z</time>
      </trkpt>
      <trkpt lat="46.72283" lon="4.95331">
        <ele>201.4</ele>
        <time>2024-09-18T10:45:22Z</time>
      </trkpt>
      <trkpt lat="46.72278" lon="4.95334">
        <ele>201.4</ele>
        <time>2024-09-18T10:45:23Z</time>
      </trkpt>
      <trkpt lat="46.72274" lon="4.95336">
        <ele>201.4</ele>
        <time>2024-09-18T10:45:24Z</time>
      </trkpt>
      <trkpt lat="46.72269" lon="4.95337">
        <ele>201.4</ele>
        <time>2024-09-18T10:45:25Z</time>
      </trkpt>
      <trkpt lat="46.72265" lon="4.95339">
        <ele>201.2</ele>
        <time>2024-09-18T10:45:26Z</time>
      </trkpt>
      <trkpt lat="46.7226" lon="4.95341">
        <ele>201.2</ele>
        <time>2024-09-18T10:45:27Z</time>
      </trkpt>
      <trkpt lat="46.72256" lon="4.95343">
        <ele>201.2</ele>
        <time>2024-09-18T10:45:28Z</time>
      </trkpt>
      <trkpt lat="46.72251" lon="4.95344">
        <ele>201.2</ele>
        <time>2024-09-18T10:45:29Z</time>
      </trkpt>
      <trkpt lat="46.72247" lon="4.95346">
        <ele>201.4</ele>
        <time>2024-09-18T10:45:30Z</time>
      </trkpt>
      <trkpt lat="46.72242" lon="4.95347">
        <ele>201.4</ele>
        <time>2024-09-18T10:45:31Z</time>
      </trkpt>
      <trkpt lat="46.72238" lon="4.95348">
        <ele>201.4</ele>
        <time>2024-09-18T10:45:32Z</time>
      </trkpt>
      <trkpt lat="46.72233" lon="4.95349">
        <ele>201.4</ele>
        <time>2024-09-18T10:45:33Z</time>
      </trkpt>
      <trkpt lat="46.72229" lon="4.9535">
        <ele>201.4</ele>
        <time>2024-09-18T10:45:34Z</time>
      </trkpt>
      <trkpt lat="46.72224" lon="4.9535">
        <ele>201.6</ele>
        <time>2024-09-18T10:45:35Z</time>
      </trkpt>
      <trkpt lat="46.7222" lon="4.95351">
        <ele>201.6</ele>
        <time>2024-09-18T10:45:36Z</time>
      </trkpt>
      <trkpt lat="46.72215" lon="4.95352">
        <ele>201.6</ele>
        <time>2024-09-18T10:45:37Z</time>
      </trkpt>
      <trkpt lat="46.7221" lon="4.95353">
        <ele>201.2</ele>
        <time>2024-09-18T10:45:38Z</time>
      </trkpt>
      <trkpt lat="46.72205" lon="4.95353">
        <ele>201</ele>
        <time>2024-09-18T10:45:39Z</time>
      </trkpt>
      <trkpt lat="46.722" lon="4.95354">
        <ele>201</ele>
        <time>2024-09-18T10:45:40Z</time>
      </trkpt>
      <trkpt lat="46.72195" lon="4.95354">
        <ele>201</ele>
        <time>2024-09-18T10:45:41Z</time>
      </trkpt>
      <trkpt lat="46.72191" lon="4.95354">
        <ele>201</ele>
        <time>2024-09-18T10:45:42Z</time>
      </trkpt>
      <trkpt lat="46.72186" lon="4.95355">
        <ele>201</ele>
        <time>2024-09-18T10:45:43Z</time>
      </trkpt>
      <trkpt lat="46.72181" lon="4.95355">
        <ele>201</ele>
        <time>2024-09-18T10:45:44Z</time>
      </trkpt>
      <trkpt lat="46.72177" lon="4.95356">
        <ele>201</ele>
        <time>2024-09-18T10:45:45Z</time>
      </trkpt>
      <trkpt lat="46.72173" lon="4.95356">
        <ele>201</ele>
        <time>2024-09-18T10:45:46Z</time>
      </trkpt>
      <trkpt lat="46.72168" lon="4.95357">
        <ele>201</ele>
        <time>2024-09-18T10:45:47Z</time>
      </trkpt>
      <trkpt lat="46.72164" lon="4.95357">
        <ele>201</ele>
        <time>2024-09-18T10:45:48Z</time>
      </trkpt>
      <trkpt lat="46.7216" lon="4.95357">
        <ele>200.8</ele>
        <time>2024-09-18T10:45:49Z</time>
      </trkpt>
      <trkpt lat="46.72156" lon="4.95358">
        <ele>200.8</ele>
        <time>2024-09-18T10:45:50Z</time>
      </trkpt>
      <trkpt lat="46.72151" lon="4.95358">
        <ele>200.8</ele>
        <time>2024-09-18T10:45:51Z</time>
      </trkpt>
      <trkpt lat="46.72147" lon="4.95358">
        <ele>200.8</ele>
        <time>2024-09-18T10:45:52Z</time>
      </trkpt>
      <trkpt lat="46.72143" lon="4.95357">
        <ele>200</ele>
        <time>2024-09-18T10:45:53Z</time>
      </trkpt>
      <trkpt lat="46.72139" lon="4.95357">
        <ele>200</ele>
        <time>2024-09-18T10:45:54Z</time>
      </trkpt>
      <trkpt lat="46.72135" lon="4.95356">
        <ele>200</ele>
        <time>2024-09-18T10:45:55Z</time>
      </trkpt>
      <trkpt lat="46.72131" lon="4.95353">
        <ele>199.6</ele>
        <time>2024-09-18T10:45:56Z</time>
      </trkpt>
      <trkpt lat="46.72127" lon="4.95351">
        <ele>199.6</ele>
        <time>2024-09-18T10:45:57Z</time>
      </trkpt>
      <trkpt lat="46.72123" lon="4.95349">
        <ele>199.4</ele>
        <time>2024-09-18T10:45:58Z</time>
      </trkpt>
      <trkpt lat="46.72119" lon="4.95347">
        <ele>199.4</ele>
        <time>2024-09-18T10:45:59Z</time>
      </trkpt>
      <trkpt lat="46.72116" lon="4.95343">
        <ele>199.4</ele>
        <time>2024-09-18T10:46:00Z</time>
      </trkpt>
      <trkpt lat="46.72114" lon="4.95337">
        <ele>199</ele>
        <time>2024-09-18T10:46:01Z</time>
      </trkpt>
      <trkpt lat="46.72113" lon="4.95331">
        <ele>198.8</ele>
        <time>2024-09-18T10:46:02Z</time>
      </trkpt>
      <trkpt lat="46.72112" lon="4.95325">
        <ele>198.8</ele>
        <time>2024-09-18T10:46:03Z</time>
      </trkpt>
      <trkpt lat="46.72111" lon="4.95318">
        <ele>198.8</ele>
        <time>2024-09-18T10:46:04Z</time>
      </trkpt>
      <trkpt lat="46.72111" lon="4.95312">
        <ele>198</ele>
        <time>2024-09-18T10:46:05Z</time>
      </trkpt>
      <trkpt lat="46.7211" lon="4.95305">
        <ele>198</ele>
        <time>2024-09-18T10:46:06Z</time>
      </trkpt>
      <trkpt lat="46.72109" lon="4.95298">
        <ele>198</ele>
        <time>2024-09-18T10:46:07Z</time>
      </trkpt>
      <trkpt lat="46.72108" lon="4.95291">
        <ele>198</ele>
        <time>2024-09-18T10:46:08Z</time>
      </trkpt>
      <trkpt lat="46.72107" lon="4.95283">
        <ele>198</ele>
        <time>2024-09-18T10:46:09Z</time>
      </trkpt>
      <trkpt lat="46.72106" lon="4.95276">
        <ele>196.6</ele>
        <time>2024-09-18T10:46:10Z</time>
      </trkpt>
      <trkpt lat="46.72105" lon="4.95268">
        <ele>196.6</ele>
        <time>2024-09-18T10:46:11Z</time>
      </trkpt>
      <trkpt lat="46.72104" lon="4.95261">
        <ele>196.6</ele>
        <time>2024-09-18T10:46:12Z</time>
      </trkpt>
      <trkpt lat="46.72103" lon="4.95254">
        <ele>196.6</ele>
        <time>2024-09-18T10:46:13Z</time>
      </trkpt>
      <trkpt lat="46.72102" lon="4.95246">
        <ele>196.6</ele>
        <time>2024-09-18T10:46:14Z</time>
      </trkpt>
      <trkpt lat="46.72101" lon="4.9524">
        <ele>196.6</ele>
        <time>2024-09-18T10:46:15Z</time>
      </trkpt>
      <trkpt lat="46.72099" lon="4.95234">
        <ele>196.6</ele>
        <time>2024-09-18T10:46:16Z</time>
      </trkpt>
      <trkpt lat="46.72096" lon="4.9523">
        <ele>196.6</ele>
        <time>2024-09-18T10:46:17Z</time>
      </trkpt>
      <trkpt lat="46.72092" lon="4.95226">
        <ele>196.4</ele>
        <time>2024-09-18T10:46:18Z</time>
      </trkpt>
      <trkpt lat="46.72088" lon="4.95223">
        <ele>196.4</ele>
        <time>2024-09-18T10:46:19Z</time>
      </trkpt>
      <trkpt lat="46.72084" lon="4.95222">
        <ele>196.4</ele>
        <time>2024-09-18T10:46:20Z</time>
      </trkpt>
      <trkpt lat="46.72079" lon="4.95221">
        <ele>196.4</ele>
        <time>2024-09-18T10:46:21Z</time>
      </trkpt>
      <trkpt lat="46.72074" lon="4.95221">
        <ele>195.6</ele>
        <time>2024-09-18T10:46:22Z</time>
      </trkpt>
      <trkpt lat="46.72068" lon="4.95221">
        <ele>195.6</ele>
        <time>2024-09-18T10:46:23Z</time>
      </trkpt>
      <trkpt lat="46.72063" lon="4.9522">
        <ele>195.6</ele>
        <time>2024-09-18T10:46:24Z</time>
      </trkpt>
      <trkpt lat="46.72057" lon="4.95219">
        <ele>195.6</ele>
        <time>2024-09-18T10:46:25Z</time>
      </trkpt>
      <trkpt lat="46.72051" lon="4.95219">
        <ele>195.6</ele>
        <time>2024-09-18T10:46:26Z</time>
      </trkpt>
      <trkpt lat="46.72045" lon="4.95219">
        <ele>195</ele>
        <time>2024-09-18T10:46:27Z</time>
      </trkpt>
      <trkpt lat="46.72039" lon="4.95218">
        <ele>194.6</ele>
        <time>2024-09-18T10:46:28Z</time>
      </trkpt>
      <trkpt lat="46.72033" lon="4.95218">
        <ele>194.6</ele>
        <time>2024-09-18T10:46:29Z</time>
      </trkpt>
      <trkpt lat="46.72026" lon="4.95219">
        <ele>194.6</ele>
        <time>2024-09-18T10:46:30Z</time>
      </trkpt>
      <trkpt lat="46.7202" lon="4.9522">
        <ele>194.6</ele>
        <time>2024-09-18T10:46:31Z</time>
      </trkpt>
      <trkpt lat="46.72014" lon="4.9522">
        <ele>193.8</ele>
        <time>2024-09-18T10:46:32Z</time>
      </trkpt>
      <trkpt lat="46.72007" lon="4.95221">
        <ele>193.4</ele>
        <time>2024-09-18T10:46:33Z</time>
      </trkpt>
      <trkpt lat="46.72001" lon="4.95221">
        <ele>193.4</ele>
        <time>2024-09-18T10:46:34Z</time>
      </trkpt>
      <trkpt lat="46.71995" lon="4.95221">
        <ele>193.4</ele>
        <time>2024-09-18T10:46:35Z</time>
      </trkpt>
      <trkpt lat="46.71989" lon="4.95222">
        <ele>192.6</ele>
        <time>2024-09-18T10:46:36Z</time>
      </trkpt>
      <trkpt lat="46.71982" lon="4.95222">
        <ele>192.6</ele>
        <time>2024-09-18T10:46:37Z</time>
      </trkpt>
      <trkpt lat="46.71976" lon="4.95221">
        <ele>192.6</ele>
        <time>2024-09-18T10:46:38Z</time>
      </trkpt>
      <trkpt lat="46.7197" lon="4.9522">
        <ele>192.6</ele>
        <time>2024-09-18T10:46:39Z</time>
      </trkpt>
      <trkpt lat="46.71964" lon="4.95219">
        <ele>192.6</ele>
        <time>2024-09-18T10:46:40Z</time>
      </trkpt>
      <trkpt lat="46.71958" lon="4.95217">
        <ele>192.6</ele>
        <time>2024-09-18T10:46:41Z</time>
      </trkpt>
      <trkpt lat="46.71952" lon="4.95214">
        <ele>190.8</ele>
        <time>2024-09-18T10:46:42Z</time>
      </trkpt>
      <trkpt lat="46.71946" lon="4.95211">
        <ele>190.8</ele>
        <time>2024-09-18T10:46:43Z</time>
      </trkpt>
      <trkpt lat="46.71941" lon="4.95206">
        <ele>190.8</ele>
        <time>2024-09-18T10:46:44Z</time>
      </trkpt>
      <trkpt lat="46.71935" lon="4.952">
        <ele>190.8</ele>
        <time>2024-09-18T10:46:45Z</time>
      </trkpt>
      <trkpt lat="46.71929" lon="4.95194">
        <ele>190.2</ele>
        <time>2024-09-18T10:46:46Z</time>
      </trkpt>
      <trkpt lat="46.71925" lon="4.95186">
        <ele>190.2</ele>
        <time>2024-09-18T10:46:47Z</time>
      </trkpt>
      <trkpt lat="46.7192" lon="4.95178">
        <ele>190.2</ele>
        <time>2024-09-18T10:46:48Z</time>
      </trkpt>
      <trkpt lat="46.71916" lon="4.9517">
        <ele>190.2</ele>
        <time>2024-09-18T10:46:49Z</time>
      </trkpt>
      <trkpt lat="46.71913" lon="4.95161">
        <ele>189.2</ele>
        <time>2024-09-18T10:46:50Z</time>
      </trkpt>
      <trkpt lat="46.7191" lon="4.95153">
        <ele>188.4</ele>
        <time>2024-09-18T10:46:51Z</time>
      </trkpt>
      <trkpt lat="46.71907" lon="4.95144">
        <ele>188.4</ele>
        <time>2024-09-18T10:46:52Z</time>
      </trkpt>
      <trkpt lat="46.71905" lon="4.95135">
        <ele>188.4</ele>
        <time>2024-09-18T10:46:53Z</time>
      </trkpt>
      <trkpt lat="46.71903" lon="4.95126">
        <ele>187.4</ele>
        <time>2024-09-18T10:46:54Z</time>
      </trkpt>
      <trkpt lat="46.71901" lon="4.95117">
        <ele>187.8</ele>
        <time>2024-09-18T10:46:55Z</time>
      </trkpt>
      <trkpt lat="46.71899" lon="4.95109">
        <ele>187.8</ele>
        <time>2024-09-18T10:46:56Z</time>
      </trkpt>
      <trkpt lat="46.71897" lon="4.951">
        <ele>187.8</ele>
        <time>2024-09-18T10:46:57Z</time>
      </trkpt>
      <trkpt lat="46.71895" lon="4.95092">
        <ele>187.8</ele>
        <time>2024-09-18T10:46:58Z</time>
      </trkpt>
      <trkpt lat="46.71894" lon="4.95086">
        <ele>187.2</ele>
        <time>2024-09-18T10:46:59Z</time>
      </trkpt>
      <trkpt lat="46.71893" lon="4.95082">
        <ele>187</ele>
        <time>2024-09-18T10:47:00Z</time>
      </trkpt>
      <trkpt lat="46.71893" lon="4.95078">
        <ele>187</ele>
        <time>2024-09-18T10:47:01Z</time>
      </trkpt>
      <trkpt lat="46.71892" lon="4.95077">
        <ele>187</ele>
        <time>2024-09-18T10:47:02Z</time>
      </trkpt>
      <trkpt lat="46.71893" lon="4.95076">
        <ele>186.8</ele>
        <time>2024-09-18T10:47:03Z</time>
      </trkpt>
      <trkpt lat="46.71893" lon="4.95076">
        <ele>186.8</ele>
        <time>2024-09-18T10:47:04Z</time>
      </trkpt>
      <trkpt lat="46.71891" lon="4.95069">
        <ele>186.2</ele>
        <time>2024-09-18T10:48:21Z</time>
      </trkpt>
      <trkpt lat="46.7189" lon="4.95067">
        <ele>186.2</ele>
        <time>2024-09-18T10:48:22Z</time>
      </trkpt>
      <trkpt lat="46.7189" lon="4.95065">
        <ele>186.2</ele>
        <time>2024-09-18T10:48:23Z</time>
      </trkpt>
      <trkpt lat="46.71889" lon="4.95062">
        <ele>186.2</ele>
        <time>2024-09-18T10:48:24Z</time>
      </trkpt>
      <trkpt lat="46.71889" lon="4.9506">
        <ele>186.2</ele>
        <time>2024-09-18T10:48:25Z</time>
      </trkpt>
      <trkpt lat="46.71888" lon="4.95057">
        <ele>186.2</ele>
        <time>2024-09-18T10:48:26Z</time>
      </trkpt>
      <trkpt lat="46.71887" lon="4.95054">
        <ele>186.2</ele>
        <time>2024-09-18T10:48:27Z</time>
      </trkpt>
      <trkpt lat="46.71886" lon="4.95051">
        <ele>186.2</ele>
        <time>2024-09-18T10:48:28Z</time>
      </trkpt>
      <trkpt lat="46.71885" lon="4.95047">
        <ele>186</ele>
        <time>2024-09-18T10:48:29Z</time>
      </trkpt>
      <trkpt lat="46.71885" lon="4.95044">
        <ele>186</ele>
        <time>2024-09-18T10:48:30Z</time>
      </trkpt>
      <trkpt lat="46.71884" lon="4.95041">
        <ele>185.8</ele>
        <time>2024-09-18T10:48:31Z</time>
      </trkpt>
      <trkpt lat="46.71883" lon="4.95039">
        <ele>185.8</ele>
        <time>2024-09-18T10:48:32Z</time>
      </trkpt>
      <trkpt lat="46.71882" lon="4.95037">
        <ele>185.8</ele>
        <time>2024-09-18T10:48:33Z</time>
      </trkpt>
      <trkpt lat="46.71881" lon="4.95035">
        <ele>185.8</ele>
        <time>2024-09-18T10:48:34Z</time>
      </trkpt>
      <trkpt lat="46.71878" lon="4.95034">
        <ele>185.8</ele>
        <time>2024-09-18T10:48:35Z</time>
      </trkpt>
      <trkpt lat="46.71876" lon="4.95034">
        <ele>185.8</ele>
        <time>2024-09-18T10:48:36Z</time>
      </trkpt>
      <trkpt lat="46.71873" lon="4.95035">
        <ele>185.8</ele>
        <time>2024-09-18T10:48:37Z</time>
      </trkpt>
      <trkpt lat="46.71869" lon="4.95036">
        <ele>185.8</ele>
        <time>2024-09-18T10:48:38Z</time>
      </trkpt>
      <trkpt lat="46.71866" lon="4.95035">
        <ele>185.8</ele>
        <time>2024-09-18T10:48:39Z</time>
      </trkpt>
      <trkpt lat="46.71863" lon="4.95032">
        <ele>185.8</ele>
        <time>2024-09-18T10:48:40Z</time>
      </trkpt>
      <trkpt lat="46.71861" lon="4.95028">
        <ele>185.8</ele>
        <time>2024-09-18T10:48:41Z</time>
      </trkpt>
      <trkpt lat="46.71859" lon="4.95024">
        <ele>185.6</ele>
        <time>2024-09-18T10:48:42Z</time>
      </trkpt>
      <trkpt lat="46.71856" lon="4.9502">
        <ele>185.6</ele>
        <time>2024-09-18T10:48:43Z</time>
      </trkpt>
      <trkpt lat="46.71854" lon="4.95016">
        <ele>185.6</ele>
        <time>2024-09-18T10:48:44Z</time>
      </trkpt>
      <trkpt lat="46.71851" lon="4.95012">
        <ele>185.6</ele>
        <time>2024-09-18T10:48:45Z</time>
      </trkpt>
      <trkpt lat="46.71848" lon="4.95009">
        <ele>185.6</ele>
        <time>2024-09-18T10:48:46Z</time>
      </trkpt>
      <trkpt lat="46.71845" lon="4.95004">
        <ele>185.2</ele>
        <time>2024-09-18T10:48:47Z</time>
      </trkpt>
      <trkpt lat="46.71842" lon="4.95">
        <ele>185.2</ele>
        <time>2024-09-18T10:48:48Z</time>
      </trkpt>
      <trkpt lat="46.71839" lon="4.94996">
        <ele>185.2</ele>
        <time>2024-09-18T10:48:49Z</time>
      </trkpt>
      <trkpt lat="46.71836" lon="4.94991">
        <ele>185.2</ele>
        <time>2024-09-18T10:48:50Z</time>
      </trkpt>
      <trkpt lat="46.71833" lon="4.94986">
        <ele>185.2</ele>
        <time>2024-09-18T10:48:51Z</time>
      </trkpt>
      <trkpt lat="46.71829" lon="4.94981">
        <ele>185</ele>
        <time>2024-09-18T10:48:52Z</time>
      </trkpt>
      <trkpt lat="46.71826" lon="4.94976">
        <ele>185</ele>
        <time>2024-09-18T10:48:53Z</time>
      </trkpt>
      <trkpt lat="46.71823" lon="4.94971">
        <ele>185</ele>
        <time>2024-09-18T10:48:54Z</time>
      </trkpt>
      <trkpt lat="46.71819" lon="4.94965">
        <ele>184.6</ele>
        <time>2024-09-18T10:48:55Z</time>
      </trkpt>
      <trkpt lat="46.71815" lon="4.9496">
        <ele>184.6</ele>
        <time>2024-09-18T10:48:56Z</time>
      </trkpt>
      <trkpt lat="46.71812" lon="4.94955">
        <ele>184.6</ele>
        <time>2024-09-18T10:48:57Z</time>
      </trkpt>
      <trkpt lat="46.71808" lon="4.94949">
        <ele>184.6</ele>
        <time>2024-09-18T10:48:58Z</time>
      </trkpt>
      <trkpt lat="46.71805" lon="4.94944">
        <ele>184.6</ele>
        <time>2024-09-18T10:48:59Z</time>
      </trkpt>
      <trkpt lat="46.71801" lon="4.94938">
        <ele>184.6</ele>
        <time>2024-09-18T10:49:00Z</time>
      </trkpt>
      <trkpt lat="46.71798" lon="4.94932">
        <ele>184.4</ele>
        <time>2024-09-18T10:49:01Z</time>
      </trkpt>
      <trkpt lat="46.71794" lon="4.94926">
        <ele>184.4</ele>
        <time>2024-09-18T10:49:02Z</time>
      </trkpt>
      <trkpt lat="46.71791" lon="4.94921">
        <ele>184.4</ele>
        <time>2024-09-18T10:49:03Z</time>
      </trkpt>
      <trkpt lat="46.71787" lon="4.94915">
        <ele>184.4</ele>
        <time>2024-09-18T10:49:04Z</time>
      </trkpt>
      <trkpt lat="46.71784" lon="4.94909">
        <ele>184.2</ele>
        <time>2024-09-18T10:49:05Z</time>
      </trkpt>
      <trkpt lat="46.7178" lon="4.94903">
        <ele>184.2</ele>
        <time>2024-09-18T10:49:06Z</time>
      </trkpt>
      <trkpt lat="46.71777" lon="4.94897">
        <ele>184.2</ele>
        <time>2024-09-18T10:49:07Z</time>
      </trkpt>
      <trkpt lat="46.71773" lon="4.94892">
        <ele>184.2</ele>
        <time>2024-09-18T10:49:08Z</time>
      </trkpt>
      <trkpt lat="46.7177" lon="4.94886">
        <ele>184.2</ele>
        <time>2024-09-18T10:49:09Z</time>
      </trkpt>
      <trkpt lat="46.71766" lon="4.9488">
        <ele>184</ele>
        <time>2024-09-18T10:49:10Z</time>
      </trkpt>
      <trkpt lat="46.71763" lon="4.94875">
        <ele>184</ele>
        <time>2024-09-18T10:49:11Z</time>
      </trkpt>
      <trkpt lat="46.7176" lon="4.94869">
        <ele>184</ele>
        <time>2024-09-18T10:49:12Z</time>
      </trkpt>
      <trkpt lat="46.71756" lon="4.94863">
        <ele>184</ele>
        <time>2024-09-18T10:49:13Z</time>
      </trkpt>
      <trkpt lat="46.71753" lon="4.94857">
        <ele>184</ele>
        <time>2024-09-18T10:49:14Z</time>
      </trkpt>
      <trkpt lat="46.71749" lon="4.94851">
        <ele>184</ele>
        <time>2024-09-18T10:49:15Z</time>
      </trkpt>
      <trkpt lat="46.71746" lon="4.94846">
        <ele>184</ele>
        <time>2024-09-18T10:49:16Z</time>
      </trkpt>
      <trkpt lat="46.71742" lon="4.9484">
        <ele>184</ele>
        <time>2024-09-18T10:49:17Z</time>
      </trkpt>
      <trkpt lat="46.71739" lon="4.94834">
        <ele>184</ele>
        <time>2024-09-18T10:49:18Z</time>
      </trkpt>
      <trkpt lat="46.71735" lon="4.94828">
        <ele>184</ele>
        <time>2024-09-18T10:49:19Z</time>
      </trkpt>
      <trkpt lat="46.71732" lon="4.94822">
        <ele>184</ele>
        <time>2024-09-18T10:49:20Z</time>
      </trkpt>
      <trkpt lat="46.71728" lon="4.94816">
        <ele>184</ele>
        <time>2024-09-18T10:49:21Z</time>
      </trkpt>
      <trkpt lat="46.71725" lon="4.9481">
        <ele>183.8</ele>
        <time>2024-09-18T10:49:22Z</time>
      </trkpt>
      <trkpt lat="46.71721" lon="4.94804">
        <ele>183.8</ele>
        <time>2024-09-18T10:49:23Z</time>
      </trkpt>
      <trkpt lat="46.71717" lon="4.94798">
        <ele>183.4</ele>
        <time>2024-09-18T10:49:24Z</time>
      </trkpt>
      <trkpt lat="46.71713" lon="4.94792">
        <ele>183.4</ele>
        <time>2024-09-18T10:49:25Z</time>
      </trkpt>
      <trkpt lat="46.7171" lon="4.94785">
        <ele>183.4</ele>
        <time>2024-09-18T10:49:26Z</time>
      </trkpt>
      <trkpt lat="46.71707" lon="4.94779">
        <ele>183.8</ele>
        <time>2024-09-18T10:49:27Z</time>
      </trkpt>
      <trkpt lat="46.71703" lon="4.94773">
        <ele>184</ele>
        <time>2024-09-18T10:49:28Z</time>
      </trkpt>
      <trkpt lat="46.717" lon="4.94766">
        <ele>184</ele>
        <time>2024-09-18T10:49:29Z</time>
      </trkpt>
      <trkpt lat="46.71697" lon="4.9476">
        <ele>184</ele>
        <time>2024-09-18T10:49:30Z</time>
      </trkpt>
      <trkpt lat="46.71693" lon="4.94754">
        <ele>184</ele>
        <time>2024-09-18T10:49:31Z</time>
      </trkpt>
      <trkpt lat="46.7169" lon="4.94747">
        <ele>184</ele>
        <time>2024-09-18T10:49:32Z</time>
      </trkpt>
      <trkpt lat="46.71687" lon="4.9474">
        <ele>184.2</ele>
        <time>2024-09-18T10:49:33Z</time>
      </trkpt>
      <trkpt lat="46.71684" lon="4.94733">
        <ele>184.2</ele>
        <time>2024-09-18T10:49:34Z</time>
      </trkpt>
      <trkpt lat="46.71681" lon="4.94725">
        <ele>184.2</ele>
        <time>2024-09-18T10:49:35Z</time>
      </trkpt>
      <trkpt lat="46.71678" lon="4.94718">
        <ele>184</ele>
        <time>2024-09-18T10:49:36Z</time>
      </trkpt>
      <trkpt lat="46.71675" lon="4.9471">
        <ele>184</ele>
        <time>2024-09-18T10:49:37Z</time>
      </trkpt>
      <trkpt lat="46.71673" lon="4.94703">
        <ele>184</ele>
        <time>2024-09-18T10:49:38Z</time>
      </trkpt>
      <trkpt lat="46.71671" lon="4.94695">
        <ele>184</ele>
        <time>2024-09-18T10:49:39Z</time>
      </trkpt>
      <trkpt lat="46.71668" lon="4.94688">
        <ele>183.8</ele>
        <time>2024-09-18T10:49:40Z</time>
      </trkpt>
      <trkpt lat="46.71666" lon="4.9468">
        <ele>184</ele>
        <time>2024-09-18T10:49:41Z</time>
      </trkpt>
      <trkpt lat="46.71663" lon="4.94672">
        <ele>184</ele>
        <time>2024-09-18T10:49:42Z</time>
      </trkpt>
      <trkpt lat="46.71661" lon="4.94665">
        <ele>184</ele>
        <time>2024-09-18T10:49:43Z</time>
      </trkpt>
      <trkpt lat="46.71658" lon="4.94657">
        <ele>183.6</ele>
        <time>2024-09-18T10:49:44Z</time>
      </trkpt>
      <trkpt lat="46.71656" lon="4.94649">
        <ele>183.8</ele>
        <time>2024-09-18T10:49:45Z</time>
      </trkpt>
      <trkpt lat="46.71654" lon="4.94641">
        <ele>183.8</ele>
        <time>2024-09-18T10:49:46Z</time>
      </trkpt>
      <trkpt lat="46.71651" lon="4.94633">
        <ele>183.8</ele>
        <time>2024-09-18T10:49:47Z</time>
      </trkpt>
      <trkpt lat="46.71649" lon="4.94626">
        <ele>183.8</ele>
        <time>2024-09-18T10:49:48Z</time>
      </trkpt>
      <trkpt lat="46.71647" lon="4.94618">
        <ele>183.8</ele>
        <time>2024-09-18T10:49:49Z</time>
      </trkpt>
      <trkpt lat="46.71644" lon="4.9461">
        <ele>183.4</ele>
        <time>2024-09-18T10:49:50Z</time>
      </trkpt>
      <trkpt lat="46.71642" lon="4.94603">
        <ele>183.4</ele>
        <time>2024-09-18T10:49:51Z</time>
      </trkpt>
      <trkpt lat="46.71639" lon="4.94595">
        <ele>183.4</ele>
        <time>2024-09-18T10:49:52Z</time>
      </trkpt>
      <trkpt lat="46.71637" lon="4.94587">
        <ele>183.4</ele>
        <time>2024-09-18T10:49:53Z</time>
      </trkpt>
      <trkpt lat="46.71635" lon="4.94579">
        <ele>183.4</ele>
        <time>2024-09-18T10:49:54Z</time>
      </trkpt>
      <trkpt lat="46.71632" lon="4.94571">
        <ele>183.6</ele>
        <time>2024-09-18T10:49:55Z</time>
      </trkpt>
      <trkpt lat="46.7163" lon="4.94564">
        <ele>183.6</ele>
        <time>2024-09-18T10:49:56Z</time>
      </trkpt>
      <trkpt lat="46.71627" lon="4.94556">
        <ele>183.6</ele>
        <time>2024-09-18T10:49:57Z</time>
      </trkpt>
      <trkpt lat="46.71625" lon="4.94549">
        <ele>183.6</ele>
        <time>2024-09-18T10:49:58Z</time>
      </trkpt>
      <trkpt lat="46.71623" lon="4.94541">
        <ele>183.2</ele>
        <time>2024-09-18T10:49:59Z</time>
      </trkpt>
      <trkpt lat="46.7162" lon="4.94533">
        <ele>183.2</ele>
        <time>2024-09-18T10:50:00Z</time>
      </trkpt>
      <trkpt lat="46.71618" lon="4.94526">
        <ele>183.2</ele>
        <time>2024-09-18T10:50:01Z</time>
      </trkpt>
      <trkpt lat="46.71615" lon="4.94518">
        <ele>183.2</ele>
        <time>2024-09-18T10:50:02Z</time>
      </trkpt>
      <trkpt lat="46.71613" lon="4.9451">
        <ele>183.2</ele>
        <time>2024-09-18T10:50:03Z</time>
      </trkpt>
      <trkpt lat="46.7161" lon="4.94503">
        <ele>183</ele>
        <time>2024-09-18T10:50:04Z</time>
      </trkpt>
      <trkpt lat="46.71608" lon="4.94495">
        <ele>183</ele>
        <time>2024-09-18T10:50:05Z</time>
      </trkpt>
      <trkpt lat="46.71605" lon="4.94488">
        <ele>183</ele>
        <time>2024-09-18T10:50:06Z</time>
      </trkpt>
      <trkpt lat="46.71603" lon="4.9448">
        <ele>183.2</ele>
        <time>2024-09-18T10:50:07Z</time>
      </trkpt>
      <trkpt lat="46.716" lon="4.94472">
        <ele>183.2</ele>
        <time>2024-09-18T10:50:08Z</time>
      </trkpt>
      <trkpt lat="46.71598" lon="4.94465">
        <ele>183.4</ele>
        <time>2024-09-18T10:50:09Z</time>
      </trkpt>
      <trkpt lat="46.71595" lon="4.94457">
        <ele>183.4</ele>
        <time>2024-09-18T10:50:10Z</time>
      </trkpt>
      <trkpt lat="46.71593" lon="4.9445">
        <ele>183.4</ele>
        <time>2024-09-18T10:50:11Z</time>
      </trkpt>
      <trkpt lat="46.7159" lon="4.94442">
        <ele>183.4</ele>
        <time>2024-09-18T10:50:12Z</time>
      </trkpt>
      <trkpt lat="46.71588" lon="4.94434">
        <ele>183.2</ele>
        <time>2024-09-18T10:50:13Z</time>
      </trkpt>
      <trkpt lat="46.71586" lon="4.94426">
        <ele>183.2</ele>
        <time>2024-09-18T10:50:14Z</time>
      </trkpt>
      <trkpt lat="46.71583" lon="4.94419">
        <ele>183.2</ele>
        <time>2024-09-18T10:50:15Z</time>
      </trkpt>
      <trkpt lat="46.71581" lon="4.94411">
        <ele>183.2</ele>
        <time>2024-09-18T10:50:16Z</time>
      </trkpt>
      <trkpt lat="46.71578" lon="4.94403">
        <ele>183.2</ele>
        <time>2024-09-18T10:50:17Z</time>
      </trkpt>
      <trkpt lat="46.71576" lon="4.94395">
        <ele>183.2</ele>
        <time>2024-09-18T10:50:18Z</time>
      </trkpt>
      <trkpt lat="46.71573" lon="4.94388">
        <ele>183.2</ele>
        <time>2024-09-18T10:50:19Z</time>
      </trkpt>
      <trkpt lat="46.71571" lon="4.9438">
        <ele>183.2</ele>
        <time>2024-09-18T10:50:20Z</time>
      </trkpt>
      <trkpt lat="46.71568" lon="4.94372">
        <ele>183.4</ele>
        <time>2024-09-18T10:50:21Z</time>
      </trkpt>
      <trkpt lat="46.71566" lon="4.94364">
        <ele>183.4</ele>
        <time>2024-09-18T10:50:22Z</time>
      </trkpt>
      <trkpt lat="46.71563" lon="4.94357">
        <ele>183.4</ele>
        <time>2024-09-18T10:50:23Z</time>
      </trkpt>
      <trkpt lat="46.71561" lon="4.94349">
        <ele>183.4</ele>
        <time>2024-09-18T10:50:24Z</time>
      </trkpt>
      <trkpt lat="46.71558" lon="4.94342">
        <ele>183</ele>
        <time>2024-09-18T10:50:25Z</time>
      </trkpt>
      <trkpt lat="46.71556" lon="4.94334">
        <ele>183.2</ele>
        <time>2024-09-18T10:50:26Z</time>
      </trkpt>
      <trkpt lat="46.71553" lon="4.94326">
        <ele>183.2</ele>
        <time>2024-09-18T10:50:27Z</time>
      </trkpt>
      <trkpt lat="46.71551" lon="4.94319">
        <ele>183.2</ele>
        <time>2024-09-18T10:50:28Z</time>
      </trkpt>
      <trkpt lat="46.71548" lon="4.94311">
        <ele>183.2</ele>
        <time>2024-09-18T10:50:29Z</time>
      </trkpt>
      <trkpt lat="46.71546" lon="4.94304">
        <ele>183.2</ele>
        <time>2024-09-18T10:50:30Z</time>
      </trkpt>
      <trkpt lat="46.71544" lon="4.94296">
        <ele>183.2</ele>
        <time>2024-09-18T10:50:31Z</time>
      </trkpt>
      <trkpt lat="46.71541" lon="4.94289">
        <ele>183.2</ele>
        <time>2024-09-18T10:50:32Z</time>
      </trkpt>
      <trkpt lat="46.71539" lon="4.94281">
        <ele>183.2</ele>
        <time>2024-09-18T10:50:33Z</time>
      </trkpt>
      <trkpt lat="46.71536" lon="4.94274">
        <ele>183.2</ele>
        <time>2024-09-18T10:50:34Z</time>
      </trkpt>
      <trkpt lat="46.71534" lon="4.94267">
        <ele>183.2</ele>
        <time>2024-09-18T10:50:35Z</time>
      </trkpt>
      <trkpt lat="46.71531" lon="4.94259">
        <ele>183.2</ele>
        <time>2024-09-18T10:50:36Z</time>
      </trkpt>
      <trkpt lat="46.71529" lon="4.94252">
        <ele>183.2</ele>
        <time>2024-09-18T10:50:37Z</time>
      </trkpt>
      <trkpt lat="46.71527" lon="4.94245">
        <ele>183.2</ele>
        <time>2024-09-18T10:50:38Z</time>
      </trkpt>
      <trkpt lat="46.71524" lon="4.94238">
        <ele>183.2</ele>
        <time>2024-09-18T10:50:39Z</time>
      </trkpt>
      <trkpt lat="46.71522" lon="4.94231">
        <ele>183.2</ele>
        <time>2024-09-18T10:50:40Z</time>
      </trkpt>
      <trkpt lat="46.7152" lon="4.94223">
        <ele>183.2</ele>
        <time>2024-09-18T10:50:41Z</time>
      </trkpt>
      <trkpt lat="46.71517" lon="4.94216">
        <ele>183.2</ele>
        <time>2024-09-18T10:50:42Z</time>
      </trkpt>
      <trkpt lat="46.71515" lon="4.94209">
        <ele>183.2</ele>
        <time>2024-09-18T10:50:43Z</time>
      </trkpt>
      <trkpt lat="46.71513" lon="4.94202">
        <ele>183.4</ele>
        <time>2024-09-18T10:50:44Z</time>
      </trkpt>
      <trkpt lat="46.71511" lon="4.94195">
        <ele>183.4</ele>
        <time>2024-09-18T10:50:45Z</time>
      </trkpt>
      <trkpt lat="46.71508" lon="4.94188">
        <ele>183.4</ele>
        <time>2024-09-18T10:50:46Z</time>
      </trkpt>
      <trkpt lat="46.71506" lon="4.94181">
        <ele>183.4</ele>
        <time>2024-09-18T10:50:47Z</time>
      </trkpt>
      <trkpt lat="46.71504" lon="4.94174">
        <ele>183.2</ele>
        <time>2024-09-18T10:50:48Z</time>
      </trkpt>
      <trkpt lat="46.71502" lon="4.94166">
        <ele>183.2</ele>
        <time>2024-09-18T10:50:49Z</time>
      </trkpt>
      <trkpt lat="46.71499" lon="4.94159">
        <ele>183.2</ele>
        <time>2024-09-18T10:50:50Z</time>
      </trkpt>
      <trkpt lat="46.71497" lon="4.94152">
        <ele>183.2</ele>
        <time>2024-09-18T10:50:51Z</time>
      </trkpt>
      <trkpt lat="46.71495" lon="4.94145">
        <ele>183.4</ele>
        <time>2024-09-18T10:50:52Z</time>
      </trkpt>
      <trkpt lat="46.71492" lon="4.94138">
        <ele>183</ele>
        <time>2024-09-18T10:50:53Z</time>
      </trkpt>
      <trkpt lat="46.7149" lon="4.94131">
        <ele>183</ele>
        <time>2024-09-18T10:50:54Z</time>
      </trkpt>
      <trkpt lat="46.71487" lon="4.94124">
        <ele>183</ele>
        <time>2024-09-18T10:50:55Z</time>
      </trkpt>
      <trkpt lat="46.71485" lon="4.94117">
        <ele>183</ele>
        <time>2024-09-18T10:50:56Z</time>
      </trkpt>
      <trkpt lat="46.71483" lon="4.94109">
        <ele>183.4</ele>
        <time>2024-09-18T10:50:57Z</time>
      </trkpt>
      <trkpt lat="46.7148" lon="4.94102">
        <ele>183.4</ele>
        <time>2024-09-18T10:50:58Z</time>
      </trkpt>
      <trkpt lat="46.71478" lon="4.94095">
        <ele>183.4</ele>
        <time>2024-09-18T10:50:59Z</time>
      </trkpt>
      <trkpt lat="46.71476" lon="4.94088">
        <ele>183.4</ele>
        <time>2024-09-18T10:51:00Z</time>
      </trkpt>
      <trkpt lat="46.71473" lon="4.94081">
        <ele>183.4</ele>
        <time>2024-09-18T10:51:01Z</time>
      </trkpt>
      <trkpt lat="46.71471" lon="4.94074">
        <ele>183.4</ele>
        <time>2024-09-18T10:51:02Z</time>
      </trkpt>
      <trkpt lat="46.71469" lon="4.94067">
        <ele>183.4</ele>
        <time>2024-09-18T10:51:03Z</time>
      </trkpt>
      <trkpt lat="46.71467" lon="4.9406">
        <ele>183.4</ele>
        <time>2024-09-18T10:51:04Z</time>
      </trkpt>
      <trkpt lat="46.71465" lon="4.94053">
        <ele>183.6</ele>
        <time>2024-09-18T10:51:05Z</time>
      </trkpt>
      <trkpt lat="46.71462" lon="4.94046">
        <ele>183.6</ele>
        <time>2024-09-18T10:51:06Z</time>
      </trkpt>
      <trkpt lat="46.7146" lon="4.94039">
        <ele>183.6</ele>
        <time>2024-09-18T10:51:07Z</time>
      </trkpt>
      <trkpt lat="46.71458" lon="4.94033">
        <ele>183.6</ele>
        <time>2024-09-18T10:51:08Z</time>
      </trkpt>
      <trkpt lat="46.71456" lon="4.94026">
        <ele>183.4</ele>
        <time>2024-09-18T10:51:09Z</time>
      </trkpt>
      <trkpt lat="46.71453" lon="4.94019">
        <ele>183.4</ele>
        <time>2024-09-18T10:51:10Z</time>
      </trkpt>
      <trkpt lat="46.71451" lon="4.94013">
        <ele>183.4</ele>
        <time>2024-09-18T10:51:11Z</time>
      </trkpt>
      <trkpt lat="46.71448" lon="4.94003">
        <ele>183.4</ele>
        <time>2024-09-18T10:51:12Z</time>
      </trkpt>
      <trkpt lat="46.71447" lon="4.93999">
        <ele>183.4</ele>
        <time>2024-09-18T10:51:13Z</time>
      </trkpt>
      <trkpt lat="46.71445" lon="4.93992">
        <ele>183.4</ele>
        <time>2024-09-18T10:51:14Z</time>
      </trkpt>
      <trkpt lat="46.71443" lon="4.93986">
        <ele>183.4</ele>
        <time>2024-09-18T10:51:15Z</time>
      </trkpt>
      <trkpt lat="46.7144" lon="4.93979">
        <ele>183.6</ele>
        <time>2024-09-18T10:51:16Z</time>
      </trkpt>
      <trkpt lat="46.71438" lon="4.93972">
        <ele>183.6</ele>
        <time>2024-09-18T10:51:17Z</time>
      </trkpt>
      <trkpt lat="46.71436" lon="4.93965">
        <ele>183.6</ele>
        <time>2024-09-18T10:51:18Z</time>
      </trkpt>
      <trkpt lat="46.71434" lon="4.93958">
        <ele>183.6</ele>
        <time>2024-09-18T10:51:19Z</time>
      </trkpt>
      <trkpt lat="46.71432" lon="4.93952">
        <ele>183.6</ele>
        <time>2024-09-18T10:51:20Z</time>
      </trkpt>
      <trkpt lat="46.7143" lon="4.93945">
        <ele>183.6</ele>
        <time>2024-09-18T10:51:21Z</time>
      </trkpt>
      <trkpt lat="46.71427" lon="4.93938">
        <ele>183.6</ele>
        <time>2024-09-18T10:51:22Z</time>
      </trkpt>
      <trkpt lat="46.71425" lon="4.93931">
        <ele>183.6</ele>
        <time>2024-09-18T10:51:23Z</time>
      </trkpt>
      <trkpt lat="46.71423" lon="4.93925">
        <ele>183.6</ele>
        <time>2024-09-18T10:51:24Z</time>
      </trkpt>
      <trkpt lat="46.71421" lon="4.93918">
        <ele>183.6</ele>
        <time>2024-09-18T10:51:25Z</time>
      </trkpt>
      <trkpt lat="46.71419" lon="4.93911">
        <ele>183.6</ele>
        <time>2024-09-18T10:51:26Z</time>
      </trkpt>
      <trkpt lat="46.71416" lon="4.93904">
        <ele>183.6</ele>
        <time>2024-09-18T10:51:27Z</time>
      </trkpt>
      <trkpt lat="46.71414" lon="4.93897">
        <ele>183.6</ele>
        <time>2024-09-18T10:51:28Z</time>
      </trkpt>
      <trkpt lat="46.71412" lon="4.93891">
        <ele>183.4</ele>
        <time>2024-09-18T10:51:29Z</time>
      </trkpt>
      <trkpt lat="46.71409" lon="4.93884">
        <ele>183.4</ele>
        <time>2024-09-18T10:51:30Z</time>
      </trkpt>
      <trkpt lat="46.71407" lon="4.93877">
        <ele>183.4</ele>
        <time>2024-09-18T10:51:31Z</time>
      </trkpt>
      <trkpt lat="46.71405" lon="4.9387">
        <ele>183.4</ele>
        <time>2024-09-18T10:51:32Z</time>
      </trkpt>
      <trkpt lat="46.71403" lon="4.93863">
        <ele>183.4</ele>
        <time>2024-09-18T10:51:33Z</time>
      </trkpt>
      <trkpt lat="46.71401" lon="4.93856">
        <ele>183.4</ele>
        <time>2024-09-18T10:51:34Z</time>
      </trkpt>
      <trkpt lat="46.71399" lon="4.93849">
        <ele>183.4</ele>
        <time>2024-09-18T10:51:35Z</time>
      </trkpt>
      <trkpt lat="46.71397" lon="4.93842">
        <ele>183.4</ele>
        <time>2024-09-18T10:51:36Z</time>
      </trkpt>
      <trkpt lat="46.71395" lon="4.93836">
        <ele>183.8</ele>
        <time>2024-09-18T10:51:37Z</time>
      </trkpt>
      <trkpt lat="46.71392" lon="4.93829">
        <ele>183.8</ele>
        <time>2024-09-18T10:51:38Z</time>
      </trkpt>
      <trkpt lat="46.7139" lon="4.93822">
        <ele>183.8</ele>
        <time>2024-09-18T10:51:39Z</time>
      </trkpt>
      <trkpt lat="46.71387" lon="4.93816">
        <ele>183.8</ele>
        <time>2024-09-18T10:51:40Z</time>
      </trkpt>
      <trkpt lat="46.71385" lon="4.93809">
        <ele>183.6</ele>
        <time>2024-09-18T10:51:41Z</time>
      </trkpt>
      <trkpt lat="46.71383" lon="4.93803">
        <ele>183.6</ele>
        <time>2024-09-18T10:51:42Z</time>
      </trkpt>
      <trkpt lat="46.71381" lon="4.93796">
        <ele>183.6</ele>
        <time>2024-09-18T10:51:43Z</time>
      </trkpt>
      <trkpt lat="46.71379" lon="4.9379">
        <ele>183.6</ele>
        <time>2024-09-18T10:51:44Z</time>
      </trkpt>
      <trkpt lat="46.71377" lon="4.93783">
        <ele>183.6</ele>
        <time>2024-09-18T10:51:45Z</time>
      </trkpt>
      <trkpt lat="46.71375" lon="4.93776">
        <ele>183.4</ele>
        <time>2024-09-18T10:51:46Z</time>
      </trkpt>
      <trkpt lat="46.71373" lon="4.93769">
        <ele>183.4</ele>
        <time>2024-09-18T10:51:47Z</time>
      </trkpt>
      <trkpt lat="46.71371" lon="4.93762">
        <ele>183.4</ele>
        <time>2024-09-18T10:51:48Z</time>
      </trkpt>
      <trkpt lat="46.71368" lon="4.93755">
        <ele>183.4</ele>
        <time>2024-09-18T10:51:49Z</time>
      </trkpt>
      <trkpt lat="46.71366" lon="4.93748">
        <ele>183.6</ele>
        <time>2024-09-18T10:51:50Z</time>
      </trkpt>
      <trkpt lat="46.71364" lon="4.93741">
        <ele>183.6</ele>
        <time>2024-09-18T10:51:51Z</time>
      </trkpt>
      <trkpt lat="46.71362" lon="4.93734">
        <ele>183.6</ele>
        <time>2024-09-18T10:51:52Z</time>
      </trkpt>
      <trkpt lat="46.7136" lon="4.93727">
        <ele>183.6</ele>
        <time>2024-09-18T10:51:53Z</time>
      </trkpt>
      <trkpt lat="46.71358" lon="4.9372">
        <ele>183.6</ele>
        <time>2024-09-18T10:51:54Z</time>
      </trkpt>
      <trkpt lat="46.71355" lon="4.93713">
        <ele>183.6</ele>
        <time>2024-09-18T10:51:55Z</time>
      </trkpt>
      <trkpt lat="46.71353" lon="4.93706">
        <ele>183.4</ele>
        <time>2024-09-18T10:51:56Z</time>
      </trkpt>
      <trkpt lat="46.71351" lon="4.93699">
        <ele>183.4</ele>
        <time>2024-09-18T10:51:57Z</time>
      </trkpt>
      <trkpt lat="46.71349" lon="4.93692">
        <ele>183.4</ele>
        <time>2024-09-18T10:51:58Z</time>
      </trkpt>
      <trkpt lat="46.71347" lon="4.93685">
        <ele>183.4</ele>
        <time>2024-09-18T10:51:59Z</time>
      </trkpt>
      <trkpt lat="46.71344" lon="4.93678">
        <ele>183.4</ele>
        <time>2024-09-18T10:52:00Z</time>
      </trkpt>
      <trkpt lat="46.71342" lon="4.9367">
        <ele>183.4</ele>
        <time>2024-09-18T10:52:01Z</time>
      </trkpt>
      <trkpt lat="46.7134" lon="4.93663">
        <ele>183.4</ele>
        <time>2024-09-18T10:52:02Z</time>
      </trkpt>
      <trkpt lat="46.71338" lon="4.93656">
        <ele>183.4</ele>
        <time>2024-09-18T10:52:03Z</time>
      </trkpt>
      <trkpt lat="46.71335" lon="4.93649">
        <ele>183.4</ele>
        <time>2024-09-18T10:52:04Z</time>
      </trkpt>
      <trkpt lat="46.71333" lon="4.93642">
        <ele>183.4</ele>
        <time>2024-09-18T10:52:05Z</time>
      </trkpt>
      <trkpt lat="46.71331" lon="4.93635">
        <ele>183.4</ele>
        <time>2024-09-18T10:52:06Z</time>
      </trkpt>
      <trkpt lat="46.71328" lon="4.93628">
        <ele>183.4</ele>
        <time>2024-09-18T10:52:07Z</time>
      </trkpt>
      <trkpt lat="46.71325" lon="4.93617">
        <ele>183.6</ele>
        <time>2024-09-18T10:52:08Z</time>
      </trkpt>
      <trkpt lat="46.71324" lon="4.93614">
        <ele>183.6</ele>
        <time>2024-09-18T10:52:09Z</time>
      </trkpt>
      <trkpt lat="46.71322" lon="4.93607">
        <ele>183.6</ele>
        <time>2024-09-18T10:52:10Z</time>
      </trkpt>
      <trkpt lat="46.71319" lon="4.936">
        <ele>183.6</ele>
        <time>2024-09-18T10:52:11Z</time>
      </trkpt>
      <trkpt lat="46.71317" lon="4.93593">
        <ele>183.6</ele>
        <time>2024-09-18T10:52:12Z</time>
      </trkpt>
      <trkpt lat="46.71315" lon="4.93586">
        <ele>183.4</ele>
        <time>2024-09-18T10:52:13Z</time>
      </trkpt>
      <trkpt lat="46.71312" lon="4.93579">
        <ele>183.4</ele>
        <time>2024-09-18T10:52:14Z</time>
      </trkpt>
      <trkpt lat="46.7131" lon="4.93572">
        <ele>183.4</ele>
        <time>2024-09-18T10:52:15Z</time>
      </trkpt>
      <trkpt lat="46.71308" lon="4.93565">
        <ele>183.4</ele>
        <time>2024-09-18T10:52:16Z</time>
      </trkpt>
      <trkpt lat="46.71306" lon="4.93558">
        <ele>183.4</ele>
        <time>2024-09-18T10:52:17Z</time>
      </trkpt>
      <trkpt lat="46.71303" lon="4.93551">
        <ele>183.4</ele>
        <time>2024-09-18T10:52:18Z</time>
      </trkpt>
      <trkpt lat="46.71301" lon="4.93544">
        <ele>183.4</ele>
        <time>2024-09-18T10:52:19Z</time>
      </trkpt>
      <trkpt lat="46.71299" lon="4.93537">
        <ele>183.4</ele>
        <time>2024-09-18T10:52:20Z</time>
      </trkpt>
      <trkpt lat="46.71296" lon="4.9353">
        <ele>183.4</ele>
        <time>2024-09-18T10:52:21Z</time>
      </trkpt>
      <trkpt lat="46.71294" lon="4.93523">
        <ele>183.4</ele>
        <time>2024-09-18T10:52:22Z</time>
      </trkpt>
      <trkpt lat="46.71292" lon="4.93516">
        <ele>183.4</ele>
        <time>2024-09-18T10:52:23Z</time>
      </trkpt>
      <trkpt lat="46.7129" lon="4.93509">
        <ele>183.4</ele>
        <time>2024-09-18T10:52:24Z</time>
      </trkpt>
      <trkpt lat="46.71287" lon="4.93502">
        <ele>183.4</ele>
        <time>2024-09-18T10:52:25Z</time>
      </trkpt>
      <trkpt lat="46.71285" lon="4.93495">
        <ele>183.4</ele>
        <time>2024-09-18T10:52:26Z</time>
      </trkpt>
      <trkpt lat="46.71283" lon="4.93488">
        <ele>183.4</ele>
        <time>2024-09-18T10:52:27Z</time>
      </trkpt>
      <trkpt lat="46.71281" lon="4.93481">
        <ele>183.4</ele>
        <time>2024-09-18T10:52:28Z</time>
      </trkpt>
      <trkpt lat="46.71278" lon="4.93474">
        <ele>183.4</ele>
        <time>2024-09-18T10:52:29Z</time>
      </trkpt>
      <trkpt lat="46.71276" lon="4.93466">
        <ele>183.6</ele>
        <time>2024-09-18T10:52:30Z</time>
      </trkpt>
      <trkpt lat="46.71274" lon="4.93459">
        <ele>183.6</ele>
        <time>2024-09-18T10:52:31Z</time>
      </trkpt>
      <trkpt lat="46.71272" lon="4.93452">
        <ele>183.6</ele>
        <time>2024-09-18T10:52:32Z</time>
      </trkpt>
      <trkpt lat="46.7127" lon="4.93445">
        <ele>183.6</ele>
        <time>2024-09-18T10:52:33Z</time>
      </trkpt>
      <trkpt lat="46.71267" lon="4.93438">
        <ele>183.6</ele>
        <time>2024-09-18T10:52:34Z</time>
      </trkpt>
      <trkpt lat="46.71265" lon="4.93431">
        <ele>183.6</ele>
        <time>2024-09-18T10:52:35Z</time>
      </trkpt>
      <trkpt lat="46.71262" lon="4.93424">
        <ele>183.6</ele>
        <time>2024-09-18T10:52:36Z</time>
      </trkpt>
      <trkpt lat="46.7126" lon="4.93417">
        <ele>183.6</ele>
        <time>2024-09-18T10:52:37Z</time>
      </trkpt>
      <trkpt lat="46.71258" lon="4.9341">
        <ele>183.6</ele>
        <time>2024-09-18T10:52:38Z</time>
      </trkpt>
      <trkpt lat="46.71256" lon="4.93403">
        <ele>183.6</ele>
        <time>2024-09-18T10:52:39Z</time>
      </trkpt>
      <trkpt lat="46.71253" lon="4.93396">
        <ele>184</ele>
        <time>2024-09-18T10:52:40Z</time>
      </trkpt>
      <trkpt lat="46.71251" lon="4.9339">
        <ele>184</ele>
        <time>2024-09-18T10:52:41Z</time>
      </trkpt>
      <trkpt lat="46.71249" lon="4.93383">
        <ele>184</ele>
        <time>2024-09-18T10:52:42Z</time>
      </trkpt>
      <trkpt lat="46.71247" lon="4.93377">
        <ele>184</ele>
        <time>2024-09-18T10:52:43Z</time>
      </trkpt>
      <trkpt lat="46.71245" lon="4.93371">
        <ele>184.4</ele>
        <time>2024-09-18T10:52:44Z</time>
      </trkpt>
      <trkpt lat="46.71242" lon="4.93365">
        <ele>184.6</ele>
        <time>2024-09-18T10:52:45Z</time>
      </trkpt>
      <trkpt lat="46.7124" lon="4.9336">
        <ele>184.6</ele>
        <time>2024-09-18T10:52:46Z</time>
      </trkpt>
      <trkpt lat="46.71237" lon="4.93355">
        <ele>184.6</ele>
        <time>2024-09-18T10:52:47Z</time>
      </trkpt>
      <trkpt lat="46.71235" lon="4.9335">
        <ele>184.6</ele>
        <time>2024-09-18T10:52:48Z</time>
      </trkpt>
      <trkpt lat="46.71232" lon="4.93345">
        <ele>185.6</ele>
        <time>2024-09-18T10:52:49Z</time>
      </trkpt>
      <trkpt lat="46.7123" lon="4.93341">
        <ele>185.6</ele>
        <time>2024-09-18T10:52:50Z</time>
      </trkpt>
      <trkpt lat="46.71227" lon="4.93336">
        <ele>185.6</ele>
        <time>2024-09-18T10:52:51Z</time>
      </trkpt>
      <trkpt lat="46.71224" lon="4.93332">
        <ele>185.6</ele>
        <time>2024-09-18T10:52:52Z</time>
      </trkpt>
      <trkpt lat="46.7122" lon="4.93327">
        <ele>186</ele>
        <time>2024-09-18T10:52:53Z</time>
      </trkpt>
      <trkpt lat="46.71217" lon="4.93323">
        <ele>186</ele>
        <time>2024-09-18T10:52:54Z</time>
      </trkpt>
      <trkpt lat="46.71214" lon="4.93318">
        <ele>186</ele>
        <time>2024-09-18T10:52:55Z</time>
      </trkpt>
      <trkpt lat="46.71211" lon="4.93314">
        <ele>186</ele>
        <time>2024-09-18T10:52:56Z</time>
      </trkpt>
      <trkpt lat="46.71208" lon="4.9331">
        <ele>186.4</ele>
        <time>2024-09-18T10:52:57Z</time>
      </trkpt>
      <trkpt lat="46.71204" lon="4.93306">
        <ele>186.8</ele>
        <time>2024-09-18T10:52:58Z</time>
      </trkpt>
      <trkpt lat="46.71201" lon="4.93302">
        <ele>186.8</ele>
        <time>2024-09-18T10:52:59Z</time>
      </trkpt>
      <trkpt lat="46.71198" lon="4.93298">
        <ele>186.8</ele>
        <time>2024-09-18T10:53:00Z</time>
      </trkpt>
      <trkpt lat="46.71195" lon="4.93294">
        <ele>187.4</ele>
        <time>2024-09-18T10:53:01Z</time>
      </trkpt>
      <trkpt lat="46.71192" lon="4.9329">
        <ele>187.4</ele>
        <time>2024-09-18T10:53:02Z</time>
      </trkpt>
      <trkpt lat="46.7119" lon="4.93286">
        <ele>187.4</ele>
        <time>2024-09-18T10:53:03Z</time>
      </trkpt>
      <trkpt lat="46.71187" lon="4.93282">
        <ele>187.4</ele>
        <time>2024-09-18T10:53:04Z</time>
      </trkpt>
      <trkpt lat="46.71184" lon="4.93279">
        <ele>187.4</ele>
        <time>2024-09-18T10:53:05Z</time>
      </trkpt>
      <trkpt lat="46.71181" lon="4.93275">
        <ele>188</ele>
        <time>2024-09-18T10:53:06Z</time>
      </trkpt>
      <trkpt lat="46.71178" lon="4.93272">
        <ele>188</ele>
        <time>2024-09-18T10:53:07Z</time>
      </trkpt>
      <trkpt lat="46.71176" lon="4.93268">
        <ele>188</ele>
        <time>2024-09-18T10:53:08Z</time>
      </trkpt>
      <trkpt lat="46.71173" lon="4.93264">
        <ele>188</ele>
        <time>2024-09-18T10:53:09Z</time>
      </trkpt>
      <trkpt lat="46.7117" lon="4.93261">
        <ele>188.4</ele>
        <time>2024-09-18T10:53:10Z</time>
      </trkpt>
      <trkpt lat="46.71168" lon="4.93258">
        <ele>188.6</ele>
        <time>2024-09-18T10:53:11Z</time>
      </trkpt>
      <trkpt lat="46.71165" lon="4.93255">
        <ele>188.6</ele>
        <time>2024-09-18T10:53:12Z</time>
      </trkpt>
      <trkpt lat="46.71163" lon="4.93251">
        <ele>188.6</ele>
        <time>2024-09-18T10:53:13Z</time>
      </trkpt>
      <trkpt lat="46.7116" lon="4.93248">
        <ele>189</ele>
        <time>2024-09-18T10:53:14Z</time>
      </trkpt>
      <trkpt lat="46.71158" lon="4.93245">
        <ele>189</ele>
        <time>2024-09-18T10:53:15Z</time>
      </trkpt>
      <trkpt lat="46.71156" lon="4.93242">
        <ele>189</ele>
        <time>2024-09-18T10:53:16Z</time>
      </trkpt>
      <trkpt lat="46.71154" lon="4.93239">
        <ele>189</ele>
        <time>2024-09-18T10:53:17Z</time>
      </trkpt>
      <trkpt lat="46.71152" lon="4.93237">
        <ele>189.6</ele>
        <time>2024-09-18T10:53:18Z</time>
      </trkpt>
      <trkpt lat="46.7115" lon="4.93234">
        <ele>189.6</ele>
        <time>2024-09-18T10:53:19Z</time>
      </trkpt>
      <trkpt lat="46.71149" lon="4.93232">
        <ele>189.6</ele>
        <time>2024-09-18T10:53:20Z</time>
      </trkpt>
      <trkpt lat="46.71148" lon="4.93231">
        <ele>189.6</ele>
        <time>2024-09-18T10:53:21Z</time>
      </trkpt>
      <trkpt lat="46.71147" lon="4.9323">
        <ele>189.6</ele>
        <time>2024-09-18T10:53:22Z</time>
      </trkpt>
      <trkpt lat="46.71146" lon="4.93229">
        <ele>189.6</ele>
        <time>2024-09-18T10:53:23Z</time>
      </trkpt>
      <trkpt lat="46.71146" lon="4.93229">
        <ele>189.6</ele>
        <time>2024-09-18T10:53:24Z</time>
      </trkpt>
      <trkpt lat="46.71146" lon="4.93229">
        <ele>199.2</ele>
        <time>2024-09-18T10:53:25Z</time>
      </trkpt>
      <trkpt lat="46.71145" lon="4.93228">
        <ele>199.2</ele>
        <time>2024-09-18T10:53:26Z</time>
      </trkpt>
      <trkpt lat="46.71145" lon="4.93228">
        <ele>199.2</ele>
        <time>2024-09-18T10:53:27Z</time>
      </trkpt>
      <trkpt lat="46.71144" lon="4.93228">
        <ele>198.2</ele>
        <time>2024-09-18T10:53:28Z</time>
      </trkpt>
      <trkpt lat="46.71144" lon="4.93228">
        <ele>191.8</ele>
        <time>2024-09-18T10:53:29Z</time>
      </trkpt>
      <trkpt lat="46.71144" lon="4.93228">
        <ele>191.8</ele>
        <time>2024-09-18T10:53:30Z</time>
      </trkpt>
      <trkpt lat="46.7114" lon="4.93227">
        <ele>190.2</ele>
        <time>2024-09-18T10:54:25Z</time>
      </trkpt>
      <trkpt lat="46.71139" lon="4.93225">
        <ele>190.2</ele>
        <time>2024-09-18T10:54:26Z</time>
      </trkpt>
      <trkpt lat="46.71138" lon="4.93224">
        <ele>190.2</ele>
        <time>2024-09-18T10:54:27Z</time>
      </trkpt>
      <trkpt lat="46.71137" lon="4.93223">
        <ele>190.2</ele>
        <time>2024-09-18T10:54:28Z</time>
      </trkpt>
      <trkpt lat="46.71136" lon="4.93221">
        <ele>190.2</ele>
        <time>2024-09-18T10:54:29Z</time>
      </trkpt>
      <trkpt lat="46.71134" lon="4.93219">
        <ele>190.2</ele>
        <time>2024-09-18T10:54:30Z</time>
      </trkpt>
      <trkpt lat="46.71133" lon="4.93217">
        <ele>190.2</ele>
        <time>2024-09-18T10:54:31Z</time>
      </trkpt>
      <trkpt lat="46.71131" lon="4.93215">
        <ele>190.4</ele>
        <time>2024-09-18T10:54:32Z</time>
      </trkpt>
      <trkpt lat="46.7113" lon="4.93212">
        <ele>190.4</ele>
        <time>2024-09-18T10:54:33Z</time>
      </trkpt>
      <trkpt lat="46.71128" lon="4.9321">
        <ele>190.4</ele>
        <time>2024-09-18T10:54:34Z</time>
      </trkpt>
      <trkpt lat="46.71126" lon="4.93207">
        <ele>190.4</ele>
        <time>2024-09-18T10:54:35Z</time>
      </trkpt>
      <trkpt lat="46.71124" lon="4.93204">
        <ele>190.4</ele>
        <time>2024-09-18T10:54:36Z</time>
      </trkpt>
      <trkpt lat="46.71122" lon="4.93202">
        <ele>190.6</ele>
        <time>2024-09-18T10:54:37Z</time>
      </trkpt>
      <trkpt lat="46.7112" lon="4.93199">
        <ele>190.6</ele>
        <time>2024-09-18T10:54:38Z</time>
      </trkpt>
      <trkpt lat="46.71118" lon="4.93196">
        <ele>190.6</ele>
        <time>2024-09-18T10:54:39Z</time>
      </trkpt>
      <trkpt lat="46.71116" lon="4.93193">
        <ele>190.6</ele>
        <time>2024-09-18T10:54:40Z</time>
      </trkpt>
      <trkpt lat="46.71113" lon="4.9319">
        <ele>190.6</ele>
        <time>2024-09-18T10:54:41Z</time>
      </trkpt>
      <trkpt lat="46.71111" lon="4.93187">
        <ele>190.8</ele>
        <time>2024-09-18T10:54:42Z</time>
      </trkpt>
      <trkpt lat="46.71109" lon="4.93183">
        <ele>190.8</ele>
        <time>2024-09-18T10:54:43Z</time>
      </trkpt>
      <trkpt lat="46.71106" lon="4.9318">
        <ele>190.8</ele>
        <time>2024-09-18T10:54:44Z</time>
      </trkpt>
      <trkpt lat="46.71103" lon="4.93176">
        <ele>191</ele>
        <time>2024-09-18T10:54:45Z</time>
      </trkpt>
      <trkpt lat="46.71101" lon="4.93173">
        <ele>191</ele>
        <time>2024-09-18T10:54:46Z</time>
      </trkpt>
      <trkpt lat="46.71098" lon="4.93169">
        <ele>191</ele>
        <time>2024-09-18T10:54:47Z</time>
      </trkpt>
      <trkpt lat="46.71095" lon="4.93165">
        <ele>190.8</ele>
        <time>2024-09-18T10:54:48Z</time>
      </trkpt>
      <trkpt lat="46.71092" lon="4.93161">
        <ele>190.6</ele>
        <time>2024-09-18T10:54:49Z</time>
      </trkpt>
      <trkpt lat="46.71089" lon="4.93157">
        <ele>190.6</ele>
        <time>2024-09-18T10:54:50Z</time>
      </trkpt>
      <trkpt lat="46.71086" lon="4.93153">
        <ele>190.6</ele>
        <time>2024-09-18T10:54:51Z</time>
      </trkpt>
      <trkpt lat="46.71083" lon="4.93149">
        <ele>190.6</ele>
        <time>2024-09-18T10:54:52Z</time>
      </trkpt>
      <trkpt lat="46.71079" lon="4.93144">
        <ele>190.6</ele>
        <time>2024-09-18T10:54:53Z</time>
      </trkpt>
      <trkpt lat="46.71076" lon="4.93139">
        <ele>190.4</ele>
        <time>2024-09-18T10:54:54Z</time>
      </trkpt>
      <trkpt lat="46.71072" lon="4.93135">
        <ele>190.4</ele>
        <time>2024-09-18T10:54:55Z</time>
      </trkpt>
      <trkpt lat="46.71069" lon="4.9313">
        <ele>190.4</ele>
        <time>2024-09-18T10:54:56Z</time>
      </trkpt>
      <trkpt lat="46.71065" lon="4.93125">
        <ele>190.4</ele>
        <time>2024-09-18T10:54:57Z</time>
      </trkpt>
      <trkpt lat="46.71061" lon="4.93119">
        <ele>189.8</ele>
        <time>2024-09-18T10:54:58Z</time>
      </trkpt>
      <trkpt lat="46.71057" lon="4.93114">
        <ele>189.6</ele>
        <time>2024-09-18T10:54:59Z</time>
      </trkpt>
      <trkpt lat="46.71053" lon="4.93109">
        <ele>189.6</ele>
        <time>2024-09-18T10:55:00Z</time>
      </trkpt>
      <trkpt lat="46.71049" lon="4.93104">
        <ele>189.6</ele>
        <time>2024-09-18T10:55:01Z</time>
      </trkpt>
      <trkpt lat="46.71046" lon="4.93101">
        <ele>189</ele>
        <time>2024-09-18T10:55:02Z</time>
      </trkpt>
      <trkpt lat="46.71044" lon="4.93097">
        <ele>189</ele>
        <time>2024-09-18T10:55:03Z</time>
      </trkpt>
      <trkpt lat="46.71042" lon="4.93095">
        <ele>189</ele>
        <time>2024-09-18T10:55:04Z</time>
      </trkpt>
      <trkpt lat="46.71041" lon="4.93094">
        <ele>189</ele>
        <time>2024-09-18T10:55:05Z</time>
      </trkpt>
      <trkpt lat="46.7104" lon="4.93093">
        <ele>189</ele>
        <time>2024-09-18T10:55:06Z</time>
      </trkpt>
      <trkpt lat="46.71038" lon="4.93092">
        <ele>189</ele>
        <time>2024-09-18T10:55:07Z</time>
      </trkpt>
      <trkpt lat="46.71036" lon="4.93089">
        <ele>188.2</ele>
        <time>2024-09-18T10:55:08Z</time>
      </trkpt>
      <trkpt lat="46.71035" lon="4.93087">
        <ele>188.2</ele>
        <time>2024-09-18T10:55:09Z</time>
      </trkpt>
      <trkpt lat="46.71034" lon="4.93085">
        <ele>188.2</ele>
        <time>2024-09-18T10:55:10Z</time>
      </trkpt>
      <trkpt lat="46.71033" lon="4.93084">
        <ele>188.2</ele>
        <time>2024-09-18T10:55:11Z</time>
      </trkpt>
      <trkpt lat="46.7103" lon="4.93077">
        <ele>187</ele>
        <time>2024-09-18T10:55:51Z</time>
      </trkpt>
      <trkpt lat="46.71028" lon="4.93075">
        <ele>187</ele>
        <time>2024-09-18T10:55:52Z</time>
      </trkpt>
      <trkpt lat="46.71026" lon="4.93072">
        <ele>187</ele>
        <time>2024-09-18T10:55:53Z</time>
      </trkpt>
      <trkpt lat="46.71023" lon="4.93068">
        <ele>186</ele>
        <time>2024-09-18T10:55:54Z</time>
      </trkpt>
      <trkpt lat="46.7102" lon="4.93065">
        <ele>186</ele>
        <time>2024-09-18T10:55:55Z</time>
      </trkpt>
      <trkpt lat="46.71017" lon="4.9306">
        <ele>186</ele>
        <time>2024-09-18T10:55:56Z</time>
      </trkpt>
      <trkpt lat="46.71014" lon="4.93056">
        <ele>186</ele>
        <time>2024-09-18T10:55:57Z</time>
      </trkpt>
      <trkpt lat="46.7101" lon="4.93051">
        <ele>185.8</ele>
        <time>2024-09-18T10:55:58Z</time>
      </trkpt>
      <trkpt lat="46.71007" lon="4.93046">
        <ele>185.8</ele>
        <time>2024-09-18T10:55:59Z</time>
      </trkpt>
      <trkpt lat="46.71003" lon="4.93041">
        <ele>185.8</ele>
        <time>2024-09-18T10:56:00Z</time>
      </trkpt>
      <trkpt lat="46.70999" lon="4.93035">
        <ele>185.8</ele>
        <time>2024-09-18T10:56:01Z</time>
      </trkpt>
      <trkpt lat="46.70995" lon="4.93029">
        <ele>185.8</ele>
        <time>2024-09-18T10:56:02Z</time>
      </trkpt>
      <trkpt lat="46.7099" lon="4.93023">
        <ele>185.4</ele>
        <time>2024-09-18T10:56:03Z</time>
      </trkpt>
      <trkpt lat="46.70986" lon="4.93017">
        <ele>185.4</ele>
        <time>2024-09-18T10:56:04Z</time>
      </trkpt>
      <trkpt lat="46.70982" lon="4.9301">
        <ele>185.4</ele>
        <time>2024-09-18T10:56:05Z</time>
      </trkpt>
      <trkpt lat="46.70978" lon="4.93004">
        <ele>184.8</ele>
        <time>2024-09-18T10:56:06Z</time>
      </trkpt>
      <trkpt lat="46.70974" lon="4.92997">
        <ele>184.8</ele>
        <time>2024-09-18T10:56:07Z</time>
      </trkpt>
      <trkpt lat="46.70969" lon="4.9299">
        <ele>184.8</ele>
        <time>2024-09-18T10:56:08Z</time>
      </trkpt>
      <trkpt lat="46.70965" lon="4.92983">
        <ele>184.8</ele>
        <time>2024-09-18T10:56:09Z</time>
      </trkpt>
      <trkpt lat="46.70961" lon="4.92977">
        <ele>184.8</ele>
        <time>2024-09-18T10:56:10Z</time>
      </trkpt>
      <trkpt lat="46.70957" lon="4.92971">
        <ele>184.8</ele>
        <time>2024-09-18T10:56:11Z</time>
      </trkpt>
      <trkpt lat="46.70954" lon="4.92965">
        <ele>183.8</ele>
        <time>2024-09-18T10:56:12Z</time>
      </trkpt>
      <trkpt lat="46.70951" lon="4.9296">
        <ele>183.8</ele>
        <time>2024-09-18T10:56:13Z</time>
      </trkpt>
      <trkpt lat="46.7095" lon="4.92955">
        <ele>183.8</ele>
        <time>2024-09-18T10:56:14Z</time>
      </trkpt>
      <trkpt lat="46.70952" lon="4.92951">
        <ele>183.8</ele>
        <time>2024-09-18T10:56:15Z</time>
      </trkpt>
      <trkpt lat="46.70954" lon="4.92949">
        <ele>183.8</ele>
        <time>2024-09-18T10:56:16Z</time>
      </trkpt>
      <trkpt lat="46.70957" lon="4.92951">
        <ele>183.4</ele>
        <time>2024-09-18T10:56:17Z</time>
      </trkpt>
      <trkpt lat="46.70959" lon="4.92954">
        <ele>183.4</ele>
        <time>2024-09-18T10:56:18Z</time>
      </trkpt>
      <trkpt lat="46.70961" lon="4.92957">
        <ele>183.4</ele>
        <time>2024-09-18T10:56:19Z</time>
      </trkpt>
      <trkpt lat="46.70963" lon="4.92961">
        <ele>183.2</ele>
        <time>2024-09-18T10:56:20Z</time>
      </trkpt>
      <trkpt lat="46.70965" lon="4.92965">
        <ele>183</ele>
        <time>2024-09-18T10:56:21Z</time>
      </trkpt>
      <trkpt lat="46.70966" lon="4.92969">
        <ele>183</ele>
        <time>2024-09-18T10:56:22Z</time>
      </trkpt>
      <trkpt lat="46.70969" lon="4.92972">
        <ele>183</ele>
        <time>2024-09-18T10:56:23Z</time>
      </trkpt>
      <trkpt lat="46.70971" lon="4.92976">
        <ele>183</ele>
        <time>2024-09-18T10:56:24Z</time>
      </trkpt>
      <trkpt lat="46.70974" lon="4.92981">
        <ele>183</ele>
        <time>2024-09-18T10:56:25Z</time>
      </trkpt>
      <trkpt lat="46.70977" lon="4.92985">
        <ele>183.2</ele>
        <time>2024-09-18T10:56:26Z</time>
      </trkpt>
      <trkpt lat="46.7098" lon="4.9299">
        <ele>183.2</ele>
        <time>2024-09-18T10:56:27Z</time>
      </trkpt>
      <trkpt lat="46.70983" lon="4.92994">
        <ele>183.2</ele>
        <time>2024-09-18T10:56:28Z</time>
      </trkpt>
      <trkpt lat="46.70987" lon="4.92999">
        <ele>183.2</ele>
        <time>2024-09-18T10:56:29Z</time>
      </trkpt>
      <trkpt lat="46.7099" lon="4.93004">
        <ele>183.2</ele>
        <time>2024-09-18T10:56:30Z</time>
      </trkpt>
      <trkpt lat="46.70992" lon="4.93009">
        <ele>183.2</ele>
        <time>2024-09-18T10:56:31Z</time>
      </trkpt>
      <trkpt lat="46.70994" lon="4.93014">
        <ele>183.2</ele>
        <time>2024-09-18T10:56:32Z</time>
      </trkpt>
      <trkpt lat="46.70997" lon="4.93019">
        <ele>183.2</ele>
        <time>2024-09-18T10:56:33Z</time>
      </trkpt>
      <trkpt lat="46.71" lon="4.93023">
        <ele>184</ele>
        <time>2024-09-18T10:56:34Z</time>
      </trkpt>
      <trkpt lat="46.71003" lon="4.93027">
        <ele>184</ele>
        <time>2024-09-18T10:56:35Z</time>
      </trkpt>
      <trkpt lat="46.71006" lon="4.93031">
        <ele>184</ele>
        <time>2024-09-18T10:56:36Z</time>
      </trkpt>
      <trkpt lat="46.7101" lon="4.93034">
        <ele>184</ele>
        <time>2024-09-18T10:56:37Z</time>
      </trkpt>
      <trkpt lat="46.71013" lon="4.93038">
        <ele>183.6</ele>
        <time>2024-09-18T10:56:38Z</time>
      </trkpt>
      <trkpt lat="46.71016" lon="4.93042">
        <ele>183.6</ele>
        <time>2024-09-18T10:56:39Z</time>
      </trkpt>
      <trkpt lat="46.71019" lon="4.93046">
        <ele>183.6</ele>
        <time>2024-09-18T10:56:40Z</time>
      </trkpt>
      <trkpt lat="46.71023" lon="4.9305">
        <ele>183.6</ele>
        <time>2024-09-18T10:56:41Z</time>
      </trkpt>
      <trkpt lat="46.71026" lon="4.93053">
        <ele>183.8</ele>
        <time>2024-09-18T10:56:42Z</time>
      </trkpt>
      <trkpt lat="46.7103" lon="4.93057">
        <ele>183.4</ele>
        <time>2024-09-18T10:56:43Z</time>
      </trkpt>
      <trkpt lat="46.71033" lon="4.9306">
        <ele>183.4</ele>
        <time>2024-09-18T10:56:44Z</time>
      </trkpt>
      <trkpt lat="46.71036" lon="4.93063">
        <ele>183.4</ele>
        <time>2024-09-18T10:56:45Z</time>
      </trkpt>
      <trkpt lat="46.71039" lon="4.93066">
        <ele>183.4</ele>
        <time>2024-09-18T10:56:46Z</time>
      </trkpt>
      <trkpt lat="46.71042" lon="4.9307">
        <ele>183.4</ele>
        <time>2024-09-18T10:56:47Z</time>
      </trkpt>
      <trkpt lat="46.71045" lon="4.93073">
        <ele>183.2</ele>
        <time>2024-09-18T10:56:48Z</time>
      </trkpt>
      <trkpt lat="46.71049" lon="4.93077">
        <ele>183.2</ele>
        <time>2024-09-18T10:56:49Z</time>
      </trkpt>
      <trkpt lat="46.71051" lon="4.9308">
        <ele>183.2</ele>
        <time>2024-09-18T10:56:50Z</time>
      </trkpt>
      <trkpt lat="46.71054" lon="4.93084">
        <ele>183.2</ele>
        <time>2024-09-18T10:56:51Z</time>
      </trkpt>
      <trkpt lat="46.71055" lon="4.93088">
        <ele>183.2</ele>
        <time>2024-09-18T10:56:52Z</time>
      </trkpt>
      <trkpt lat="46.71056" lon="4.93093">
        <ele>183.2</ele>
        <time>2024-09-18T10:56:53Z</time>
      </trkpt>
      <trkpt lat="46.71055" lon="4.93097">
        <ele>183.2</ele>
        <time>2024-09-18T10:56:54Z</time>
      </trkpt>
      <trkpt lat="46.71054" lon="4.93101">
        <ele>183.2</ele>
        <time>2024-09-18T10:56:55Z</time>
      </trkpt>
      <trkpt lat="46.71052" lon="4.93104">
        <ele>183.2</ele>
        <time>2024-09-18T10:56:56Z</time>
      </trkpt>
      <trkpt lat="46.71049" lon="4.93107">
        <ele>183.4</ele>
        <time>2024-09-18T10:56:57Z</time>
      </trkpt>
      <trkpt lat="46.71046" lon="4.9311">
        <ele>183.4</ele>
        <time>2024-09-18T10:56:58Z</time>
      </trkpt>
      <trkpt lat="46.71042" lon="4.93112">
        <ele>183.4</ele>
        <time>2024-09-18T10:56:59Z</time>
      </trkpt>
      <trkpt lat="46.71039" lon="4.93114">
        <ele>183.4</ele>
        <time>2024-09-18T10:57:00Z</time>
      </trkpt>
      <trkpt lat="46.71035" lon="4.93116">
        <ele>183.2</ele>
        <time>2024-09-18T10:57:01Z</time>
      </trkpt>
      <trkpt lat="46.71031" lon="4.93119">
        <ele>183.2</ele>
        <time>2024-09-18T10:57:02Z</time>
      </trkpt>
      <trkpt lat="46.71027" lon="4.93121">
        <ele>183.2</ele>
        <time>2024-09-18T10:57:03Z</time>
      </trkpt>
      <trkpt lat="46.71023" lon="4.93123">
        <ele>183.2</ele>
        <time>2024-09-18T10:57:04Z</time>
      </trkpt>
      <trkpt lat="46.71019" lon="4.93126">
        <ele>183.6</ele>
        <time>2024-09-18T10:57:05Z</time>
      </trkpt>
      <trkpt lat="46.71014" lon="4.93129">
        <ele>183</ele>
        <time>2024-09-18T10:57:06Z</time>
      </trkpt>
      <trkpt lat="46.7101" lon="4.93132">
        <ele>183</ele>
        <time>2024-09-18T10:57:07Z</time>
      </trkpt>
      <trkpt lat="46.71006" lon="4.93135">
        <ele>183</ele>
        <time>2024-09-18T10:57:08Z</time>
      </trkpt>
      <trkpt lat="46.71002" lon="4.93138">
        <ele>183</ele>
        <time>2024-09-18T10:57:09Z</time>
      </trkpt>
      <trkpt lat="46.70998" lon="4.93141">
        <ele>183.2</ele>
        <time>2024-09-18T10:57:10Z</time>
      </trkpt>
      <trkpt lat="46.70994" lon="4.93144">
        <ele>183</ele>
        <time>2024-09-18T10:57:11Z</time>
      </trkpt>
      <trkpt lat="46.7099" lon="4.93148">
        <ele>183</ele>
        <time>2024-09-18T10:57:12Z</time>
      </trkpt>
      <trkpt lat="46.70987" lon="4.93152">
        <ele>183</ele>
        <time>2024-09-18T10:57:13Z</time>
      </trkpt>
      <trkpt lat="46.70983" lon="4.93157">
        <ele>183</ele>
        <time>2024-09-18T10:57:14Z</time>
      </trkpt>
      <trkpt lat="46.70979" lon="4.93161">
        <ele>183</ele>
        <time>2024-09-18T10:57:15Z</time>
      </trkpt>
      <trkpt lat="46.70975" lon="4.93165">
        <ele>182.4</ele>
        <time>2024-09-18T10:57:16Z</time>
      </trkpt>
      <trkpt lat="46.70971" lon="4.9317">
        <ele>182.4</ele>
        <time>2024-09-18T10:57:17Z</time>
      </trkpt>
      <trkpt lat="46.70968" lon="4.93174">
        <ele>183</ele>
        <time>2024-09-18T10:57:18Z</time>
      </trkpt>
      <trkpt lat="46.70964" lon="4.93179">
        <ele>183</ele>
        <time>2024-09-18T10:57:19Z</time>
      </trkpt>
      <trkpt lat="46.7096" lon="4.93183">
        <ele>183</ele>
        <time>2024-09-18T10:57:20Z</time>
      </trkpt>
      <trkpt lat="46.70956" lon="4.93188">
        <ele>183</ele>
        <time>2024-09-18T10:57:21Z</time>
      </trkpt>
      <trkpt lat="46.70953" lon="4.93192">
        <ele>183</ele>
        <time>2024-09-18T10:57:22Z</time>
      </trkpt>
      <trkpt lat="46.70949" lon="4.93196">
        <ele>183</ele>
        <time>2024-09-18T10:57:23Z</time>
      </trkpt>
      <trkpt lat="46.70945" lon="4.93201">
        <ele>183.2</ele>
        <time>2024-09-18T10:57:24Z</time>
      </trkpt>
      <trkpt lat="46.70941" lon="4.93205">
        <ele>183.2</ele>
        <time>2024-09-18T10:57:25Z</time>
      </trkpt>
      <trkpt lat="46.70937" lon="4.9321">
        <ele>183.2</ele>
        <time>2024-09-18T10:57:26Z</time>
      </trkpt>
      <trkpt lat="46.70933" lon="4.93214">
        <ele>183.2</ele>
        <time>2024-09-18T10:57:27Z</time>
      </trkpt>
      <trkpt lat="46.70929" lon="4.93218">
        <ele>182.8</ele>
        <time>2024-09-18T10:57:28Z</time>
      </trkpt>
      <trkpt lat="46.70925" lon="4.93222">
        <ele>182.8</ele>
        <time>2024-09-18T10:57:29Z</time>
      </trkpt>
      <trkpt lat="46.70921" lon="4.93225">
        <ele>182.8</ele>
        <time>2024-09-18T10:57:30Z</time>
      </trkpt>
      <trkpt lat="46.70917" lon="4.93229">
        <ele>183.2</ele>
        <time>2024-09-18T10:57:31Z</time>
      </trkpt>
      <trkpt lat="46.70913" lon="4.93232">
        <ele>183.2</ele>
        <time>2024-09-18T10:57:32Z</time>
      </trkpt>
      <trkpt lat="46.70909" lon="4.93235">
        <ele>183.2</ele>
        <time>2024-09-18T10:57:33Z</time>
      </trkpt>
      <trkpt lat="46.70905" lon="4.93238">
        <ele>183.2</ele>
        <time>2024-09-18T10:57:34Z</time>
      </trkpt>
      <trkpt lat="46.70901" lon="4.93241">
        <ele>183.2</ele>
        <time>2024-09-18T10:57:35Z</time>
      </trkpt>
      <trkpt lat="46.70897" lon="4.93245">
        <ele>183.2</ele>
        <time>2024-09-18T10:57:36Z</time>
      </trkpt>
      <trkpt lat="46.70892" lon="4.93248">
        <ele>183</ele>
        <time>2024-09-18T10:57:37Z</time>
      </trkpt>
      <trkpt lat="46.70888" lon="4.93252">
        <ele>183</ele>
        <time>2024-09-18T10:57:38Z</time>
      </trkpt>
      <trkpt lat="46.70884" lon="4.93255">
        <ele>183</ele>
        <time>2024-09-18T10:57:39Z</time>
      </trkpt>
      <trkpt lat="46.7088" lon="4.93259">
        <ele>183</ele>
        <time>2024-09-18T10:57:40Z</time>
      </trkpt>
      <trkpt lat="46.70876" lon="4.93262">
        <ele>183</ele>
        <time>2024-09-18T10:57:41Z</time>
      </trkpt>
      <trkpt lat="46.70872" lon="4.93265">
        <ele>183.4</ele>
        <time>2024-09-18T10:57:42Z</time>
      </trkpt>
      <trkpt lat="46.70868" lon="4.93269">
        <ele>183.4</ele>
        <time>2024-09-18T10:57:43Z</time>
      </trkpt>
      <trkpt lat="46.70864" lon="4.93271">
        <ele>183.4</ele>
        <time>2024-09-18T10:57:44Z</time>
      </trkpt>
      <trkpt lat="46.70859" lon="4.93274">
        <ele>183.4</ele>
        <time>2024-09-18T10:57:45Z</time>
      </trkpt>
      <trkpt lat="46.70855" lon="4.93277">
        <ele>183.4</ele>
        <time>2024-09-18T10:57:46Z</time>
      </trkpt>
      <trkpt lat="46.70851" lon="4.9328">
        <ele>183</ele>
        <time>2024-09-18T10:57:47Z</time>
      </trkpt>
      <trkpt lat="46.70847" lon="4.93282">
        <ele>183</ele>
        <time>2024-09-18T10:57:48Z</time>
      </trkpt>
      <trkpt lat="46.70842" lon="4.93285">
        <ele>183</ele>
        <time>2024-09-18T10:57:49Z</time>
      </trkpt>
      <trkpt lat="46.70838" lon="4.93288">
        <ele>183.4</ele>
        <time>2024-09-18T10:57:50Z</time>
      </trkpt>
      <trkpt lat="46.70834" lon="4.9329">
        <ele>183.4</ele>
        <time>2024-09-18T10:57:51Z</time>
      </trkpt>
      <trkpt lat="46.70829" lon="4.93293">
        <ele>183.8</ele>
        <time>2024-09-18T10:57:52Z</time>
      </trkpt>
      <trkpt lat="46.70825" lon="4.93296">
        <ele>183.8</ele>
        <time>2024-09-18T10:57:53Z</time>
      </trkpt>
      <trkpt lat="46.7082" lon="4.93299">
        <ele>183.2</ele>
        <time>2024-09-18T10:57:54Z</time>
      </trkpt>
      <trkpt lat="46.70816" lon="4.93301">
        <ele>183</ele>
        <time>2024-09-18T10:57:55Z</time>
      </trkpt>
      <trkpt lat="46.70812" lon="4.93304">
        <ele>183</ele>
        <time>2024-09-18T10:57:56Z</time>
      </trkpt>
      <trkpt lat="46.70807" lon="4.93307">
        <ele>183</ele>
        <time>2024-09-18T10:57:57Z</time>
      </trkpt>
      <trkpt lat="46.70803" lon="4.9331">
        <ele>183</ele>
        <time>2024-09-18T10:57:58Z</time>
      </trkpt>
      <trkpt lat="46.70798" lon="4.93313">
        <ele>183.2</ele>
        <time>2024-09-18T10:57:59Z</time>
      </trkpt>
      <trkpt lat="46.70794" lon="4.93316">
        <ele>182.8</ele>
        <time>2024-09-18T10:58:00Z</time>
      </trkpt>
      <trkpt lat="46.70789" lon="4.93319">
        <ele>182.8</ele>
        <time>2024-09-18T10:58:01Z</time>
      </trkpt>
      <trkpt lat="46.70785" lon="4.93321">
        <ele>182.8</ele>
        <time>2024-09-18T10:58:02Z</time>
      </trkpt>
      <trkpt lat="46.70781" lon="4.93324">
        <ele>183</ele>
        <time>2024-09-18T10:58:03Z</time>
      </trkpt>
      <trkpt lat="46.70777" lon="4.93327">
        <ele>183</ele>
        <time>2024-09-18T10:58:04Z</time>
      </trkpt>
      <trkpt lat="46.70772" lon="4.93329">
        <ele>182.8</ele>
        <time>2024-09-18T10:58:05Z</time>
      </trkpt>
      <trkpt lat="46.70768" lon="4.93332">
        <ele>182.8</ele>
        <time>2024-09-18T10:58:06Z</time>
      </trkpt>
      <trkpt lat="46.70764" lon="4.93335">
        <ele>182.8</ele>
        <time>2024-09-18T10:58:07Z</time>
      </trkpt>
      <trkpt lat="46.70759" lon="4.93338">
        <ele>183.2</ele>
        <time>2024-09-18T10:58:08Z</time>
      </trkpt>
      <trkpt lat="46.70755" lon="4.9334">
        <ele>183.2</ele>
        <time>2024-09-18T10:58:09Z</time>
      </trkpt>
      <trkpt lat="46.7075" lon="4.93343">
        <ele>183.2</ele>
        <time>2024-09-18T10:58:10Z</time>
      </trkpt>
      <trkpt lat="46.70745" lon="4.93345">
        <ele>183.2</ele>
        <time>2024-09-18T10:58:11Z</time>
      </trkpt>
      <trkpt lat="46.70741" lon="4.93347">
        <ele>183.4</ele>
        <time>2024-09-18T10:58:12Z</time>
      </trkpt>
      <trkpt lat="46.70737" lon="4.93349">
        <ele>183.4</ele>
        <time>2024-09-18T10:58:13Z</time>
      </trkpt>
      <trkpt lat="46.70732" lon="4.93351">
        <ele>183.4</ele>
        <time>2024-09-18T10:58:14Z</time>
      </trkpt>
      <trkpt lat="46.70728" lon="4.93353">
        <ele>183.4</ele>
        <time>2024-09-18T10:58:15Z</time>
      </trkpt>
      <trkpt lat="46.70723" lon="4.93354">
        <ele>183.4</ele>
        <time>2024-09-18T10:58:16Z</time>
      </trkpt>
      <trkpt lat="46.70719" lon="4.93356">
        <ele>183.4</ele>
        <time>2024-09-18T10:58:17Z</time>
      </trkpt>
      <trkpt lat="46.70714" lon="4.93358">
        <ele>182.4</ele>
        <time>2024-09-18T10:58:18Z</time>
      </trkpt>
      <trkpt lat="46.7071" lon="4.9336">
        <ele>182.4</ele>
        <time>2024-09-18T10:58:19Z</time>
      </trkpt>
      <trkpt lat="46.70705" lon="4.93362">
        <ele>182.4</ele>
        <time>2024-09-18T10:58:20Z</time>
      </trkpt>
      <trkpt lat="46.70701" lon="4.93364">
        <ele>183</ele>
        <time>2024-09-18T10:58:21Z</time>
      </trkpt>
      <trkpt lat="46.70696" lon="4.93365">
        <ele>183</ele>
        <time>2024-09-18T10:58:22Z</time>
      </trkpt>
      <trkpt lat="46.70691" lon="4.93367">
        <ele>183</ele>
        <time>2024-09-18T10:58:23Z</time>
      </trkpt>
      <trkpt lat="46.70687" lon="4.93369">
        <ele>184.2</ele>
        <time>2024-09-18T10:58:24Z</time>
      </trkpt>
      <trkpt lat="46.70683" lon="4.93371">
        <ele>184.2</ele>
        <time>2024-09-18T10:58:25Z</time>
      </trkpt>
      <trkpt lat="46.70678" lon="4.93373">
        <ele>183.4</ele>
        <time>2024-09-18T10:58:26Z</time>
      </trkpt>
      <trkpt lat="46.70674" lon="4.93374">
        <ele>183.2</ele>
        <time>2024-09-18T10:58:27Z</time>
      </trkpt>
      <trkpt lat="46.7067" lon="4.93376">
        <ele>183.2</ele>
        <time>2024-09-18T10:58:28Z</time>
      </trkpt>
      <trkpt lat="46.70665" lon="4.93378">
        <ele>183.2</ele>
        <time>2024-09-18T10:58:29Z</time>
      </trkpt>
      <trkpt lat="46.70661" lon="4.9338">
        <ele>183.2</ele>
        <time>2024-09-18T10:58:30Z</time>
      </trkpt>
      <trkpt lat="46.70656" lon="4.93382">
        <ele>183.2</ele>
        <time>2024-09-18T10:58:31Z</time>
      </trkpt>
      <trkpt lat="46.70652" lon="4.93383">
        <ele>183</ele>
        <time>2024-09-18T10:58:32Z</time>
      </trkpt>
      <trkpt lat="46.70647" lon="4.93385">
        <ele>183</ele>
        <time>2024-09-18T10:58:33Z</time>
      </trkpt>
      <trkpt lat="46.70642" lon="4.93386">
        <ele>183</ele>
        <time>2024-09-18T10:58:34Z</time>
      </trkpt>
      <trkpt lat="46.70637" lon="4.93387">
        <ele>183</ele>
        <time>2024-09-18T10:58:35Z</time>
      </trkpt>
      <trkpt lat="46.70633" lon="4.93389">
        <ele>183.2</ele>
        <time>2024-09-18T10:58:36Z</time>
      </trkpt>
      <trkpt lat="46.70628" lon="4.93389">
        <ele>183.2</ele>
        <time>2024-09-18T10:58:37Z</time>
      </trkpt>
      <trkpt lat="46.70623" lon="4.9339">
        <ele>183.2</ele>
        <time>2024-09-18T10:58:38Z</time>
      </trkpt>
      <trkpt lat="46.70618" lon="4.93391">
        <ele>183.2</ele>
        <time>2024-09-18T10:58:39Z</time>
      </trkpt>
      <trkpt lat="46.70613" lon="4.93392">
        <ele>183.6</ele>
        <time>2024-09-18T10:58:40Z</time>
      </trkpt>
      <trkpt lat="46.70609" lon="4.93393">
        <ele>183.6</ele>
        <time>2024-09-18T10:58:41Z</time>
      </trkpt>
      <trkpt lat="46.70604" lon="4.93394">
        <ele>183.6</ele>
        <time>2024-09-18T10:58:42Z</time>
      </trkpt>
      <trkpt lat="46.70599" lon="4.93395">
        <ele>183.6</ele>
        <time>2024-09-18T10:58:43Z</time>
      </trkpt>
      <trkpt lat="46.70595" lon="4.93397">
        <ele>183.6</ele>
        <time>2024-09-18T10:58:44Z</time>
      </trkpt>
      <trkpt lat="46.7059" lon="4.93399">
        <ele>183.4</ele>
        <time>2024-09-18T10:58:45Z</time>
      </trkpt>
      <trkpt lat="46.70586" lon="4.93401">
        <ele>183.4</ele>
        <time>2024-09-18T10:58:46Z</time>
      </trkpt>
      <trkpt lat="46.70582" lon="4.93403">
        <ele>183.4</ele>
        <time>2024-09-18T10:58:47Z</time>
      </trkpt>
      <trkpt lat="46.70577" lon="4.93405">
        <ele>183.2</ele>
        <time>2024-09-18T10:58:48Z</time>
      </trkpt>
      <trkpt lat="46.70573" lon="4.93407">
        <ele>183</ele>
        <time>2024-09-18T10:58:49Z</time>
      </trkpt>
      <trkpt lat="46.70568" lon="4.93409">
        <ele>183</ele>
        <time>2024-09-18T10:58:50Z</time>
      </trkpt>
      <trkpt lat="46.70563" lon="4.93411">
        <ele>183</ele>
        <time>2024-09-18T10:58:51Z</time>
      </trkpt>
      <trkpt lat="46.70559" lon="4.93413">
        <ele>183</ele>
        <time>2024-09-18T10:58:52Z</time>
      </trkpt>
      <trkpt lat="46.70554" lon="4.93414">
        <ele>183.4</ele>
        <time>2024-09-18T10:58:53Z</time>
      </trkpt>
      <trkpt lat="46.7055" lon="4.93416">
        <ele>183.2</ele>
        <time>2024-09-18T10:58:54Z</time>
      </trkpt>
      <trkpt lat="46.70545" lon="4.93418">
        <ele>183.2</ele>
        <time>2024-09-18T10:58:55Z</time>
      </trkpt>
      <trkpt lat="46.7054" lon="4.9342">
        <ele>183.2</ele>
        <time>2024-09-18T10:58:56Z</time>
      </trkpt>
      <trkpt lat="46.70536" lon="4.93421">
        <ele>183.2</ele>
        <time>2024-09-18T10:58:57Z</time>
      </trkpt>
      <trkpt lat="46.70531" lon="4.93422">
        <ele>183</ele>
        <time>2024-09-18T10:58:58Z</time>
      </trkpt>
      <trkpt lat="46.70526" lon="4.93424">
        <ele>183</ele>
        <time>2024-09-18T10:58:59Z</time>
      </trkpt>
      <trkpt lat="46.70522" lon="4.93426">
        <ele>183</ele>
        <time>2024-09-18T10:59:00Z</time>
      </trkpt>
      <trkpt lat="46.70517" lon="4.93427">
        <ele>183</ele>
        <time>2024-09-18T10:59:01Z</time>
      </trkpt>
      <trkpt lat="46.70513" lon="4.93429">
        <ele>183.4</ele>
        <time>2024-09-18T10:59:02Z</time>
      </trkpt>
      <trkpt lat="46.70508" lon="4.93431">
        <ele>183.4</ele>
        <time>2024-09-18T10:59:03Z</time>
      </trkpt>
      <trkpt lat="46.70503" lon="4.93433">
        <ele>183.4</ele>
        <time>2024-09-18T10:59:04Z</time>
      </trkpt>
      <trkpt lat="46.70499" lon="4.93434">
        <ele>183.4</ele>
        <time>2024-09-18T10:59:05Z</time>
      </trkpt>
      <trkpt lat="46.70494" lon="4.93436">
        <ele>183.4</ele>
        <time>2024-09-18T10:59:06Z</time>
      </trkpt>
      <trkpt lat="46.70489" lon="4.93437">
        <ele>183.2</ele>
        <time>2024-09-18T10:59:07Z</time>
      </trkpt>
      <trkpt lat="46.70485" lon="4.93439">
        <ele>183.4</ele>
        <time>2024-09-18T10:59:08Z</time>
      </trkpt>
      <trkpt lat="46.7048" lon="4.9344">
        <ele>183.4</ele>
        <time>2024-09-18T10:59:09Z</time>
      </trkpt>
      <trkpt lat="46.70475" lon="4.93441">
        <ele>183.4</ele>
        <time>2024-09-18T10:59:10Z</time>
      </trkpt>
      <trkpt lat="46.70471" lon="4.93442">
        <ele>183.2</ele>
        <time>2024-09-18T10:59:11Z</time>
      </trkpt>
      <trkpt lat="46.70466" lon="4.93443">
        <ele>183.4</ele>
        <time>2024-09-18T10:59:12Z</time>
      </trkpt>
      <trkpt lat="46.70461" lon="4.93444">
        <ele>183.4</ele>
        <time>2024-09-18T10:59:13Z</time>
      </trkpt>
      <trkpt lat="46.70457" lon="4.93445">
        <ele>183.4</ele>
        <time>2024-09-18T10:59:14Z</time>
      </trkpt>
      <trkpt lat="46.70452" lon="4.93446">
        <ele>183.4</ele>
        <time>2024-09-18T10:59:15Z</time>
      </trkpt>
      <trkpt lat="46.70447" lon="4.93447">
        <ele>183.4</ele>
        <time>2024-09-18T10:59:16Z</time>
      </trkpt>
      <trkpt lat="46.70442" lon="4.93448">
        <ele>183.2</ele>
        <time>2024-09-18T10:59:17Z</time>
      </trkpt>
      <trkpt lat="46.70438" lon="4.93448">
        <ele>183.2</ele>
        <time>2024-09-18T10:59:18Z</time>
      </trkpt>
      <trkpt lat="46.70433" lon="4.93449">
        <ele>183.2</ele>
        <time>2024-09-18T10:59:19Z</time>
      </trkpt>
      <trkpt lat="46.70428" lon="4.93451">
        <ele>183</ele>
        <time>2024-09-18T10:59:20Z</time>
      </trkpt>
      <trkpt lat="46.70424" lon="4.93452">
        <ele>183.2</ele>
        <time>2024-09-18T10:59:21Z</time>
      </trkpt>
      <trkpt lat="46.70419" lon="4.93453">
        <ele>183.2</ele>
        <time>2024-09-18T10:59:22Z</time>
      </trkpt>
      <trkpt lat="46.70414" lon="4.93454">
        <ele>183.2</ele>
        <time>2024-09-18T10:59:23Z</time>
      </trkpt>
      <trkpt lat="46.70409" lon="4.93455">
        <ele>183.2</ele>
        <time>2024-09-18T10:59:24Z</time>
      </trkpt>
      <trkpt lat="46.70404" lon="4.93456">
        <ele>183.2</ele>
        <time>2024-09-18T10:59:25Z</time>
      </trkpt>
      <trkpt lat="46.704" lon="4.93456">
        <ele>183.2</ele>
        <time>2024-09-18T10:59:26Z</time>
      </trkpt>
      <trkpt lat="46.70395" lon="4.93457">
        <ele>183.2</ele>
        <time>2024-09-18T10:59:27Z</time>
      </trkpt>
      <trkpt lat="46.7039" lon="4.93457">
        <ele>183</ele>
        <time>2024-09-18T10:59:28Z</time>
      </trkpt>
      <trkpt lat="46.70385" lon="4.93457">
        <ele>183</ele>
        <time>2024-09-18T10:59:29Z</time>
      </trkpt>
      <trkpt lat="46.70381" lon="4.93458">
        <ele>183</ele>
        <time>2024-09-18T10:59:30Z</time>
      </trkpt>
      <trkpt lat="46.70376" lon="4.93459">
        <ele>183</ele>
        <time>2024-09-18T10:59:31Z</time>
      </trkpt>
      <trkpt lat="46.70371" lon="4.9346">
        <ele>183</ele>
        <time>2024-09-18T10:59:32Z</time>
      </trkpt>
      <trkpt lat="46.70367" lon="4.93462">
        <ele>183</ele>
        <time>2024-09-18T10:59:33Z</time>
      </trkpt>
      <trkpt lat="46.70362" lon="4.93464">
        <ele>183</ele>
        <time>2024-09-18T10:59:34Z</time>
      </trkpt>
      <trkpt lat="46.70358" lon="4.93467">
        <ele>183.2</ele>
        <time>2024-09-18T10:59:35Z</time>
      </trkpt>
      <trkpt lat="46.70354" lon="4.9347">
        <ele>183.2</ele>
        <time>2024-09-18T10:59:36Z</time>
      </trkpt>
      <trkpt lat="46.7035" lon="4.93474">
        <ele>183.2</ele>
        <time>2024-09-18T10:59:37Z</time>
      </trkpt>
      <trkpt lat="46.70346" lon="4.93477">
        <ele>183</ele>
        <time>2024-09-18T10:59:38Z</time>
      </trkpt>
      <trkpt lat="46.70342" lon="4.93481">
        <ele>183</ele>
        <time>2024-09-18T10:59:39Z</time>
      </trkpt>
      <trkpt lat="46.70338" lon="4.93484">
        <ele>183</ele>
        <time>2024-09-18T10:59:40Z</time>
      </trkpt>
      <trkpt lat="46.70334" lon="4.93487">
        <ele>183</ele>
        <time>2024-09-18T10:59:41Z</time>
      </trkpt>
      <trkpt lat="46.7033" lon="4.9349">
        <ele>183</ele>
        <time>2024-09-18T10:59:42Z</time>
      </trkpt>
      <trkpt lat="46.70325" lon="4.93493">
        <ele>183</ele>
        <time>2024-09-18T10:59:43Z</time>
      </trkpt>
      <trkpt lat="46.70321" lon="4.93495">
        <ele>183</ele>
        <time>2024-09-18T10:59:44Z</time>
      </trkpt>
      <trkpt lat="46.70316" lon="4.93497">
        <ele>183</ele>
        <time>2024-09-18T10:59:45Z</time>
      </trkpt>
      <trkpt lat="46.70312" lon="4.93498">
        <ele>183.2</ele>
        <time>2024-09-18T10:59:46Z</time>
      </trkpt>
      <trkpt lat="46.70307" lon="4.935">
        <ele>182.8</ele>
        <time>2024-09-18T10:59:47Z</time>
      </trkpt>
      <trkpt lat="46.70303" lon="4.93502">
        <ele>182.8</ele>
        <time>2024-09-18T10:59:48Z</time>
      </trkpt>
      <trkpt lat="46.70298" lon="4.93504">
        <ele>182.8</ele>
        <time>2024-09-18T10:59:49Z</time>
      </trkpt>
      <trkpt lat="46.70293" lon="4.93506">
        <ele>182.8</ele>
        <time>2024-09-18T10:59:50Z</time>
      </trkpt>
      <trkpt lat="46.70289" lon="4.93508">
        <ele>183.4</ele>
        <time>2024-09-18T10:59:51Z</time>
      </trkpt>
      <trkpt lat="46.70284" lon="4.9351">
        <ele>183.4</ele>
        <time>2024-09-18T10:59:52Z</time>
      </trkpt>
      <trkpt lat="46.7028" lon="4.93512">
        <ele>183.4</ele>
        <time>2024-09-18T10:59:53Z</time>
      </trkpt>
      <trkpt lat="46.70275" lon="4.93514">
        <ele>183.4</ele>
        <time>2024-09-18T10:59:54Z</time>
      </trkpt>
      <trkpt lat="46.70271" lon="4.93516">
        <ele>183.4</ele>
        <time>2024-09-18T10:59:55Z</time>
      </trkpt>
      <trkpt lat="46.70267" lon="4.93518">
        <ele>182.6</ele>
        <time>2024-09-18T10:59:56Z</time>
      </trkpt>
      <trkpt lat="46.70262" lon="4.9352">
        <ele>182.6</ele>
        <time>2024-09-18T10:59:57Z</time>
      </trkpt>
      <trkpt lat="46.70257" lon="4.93522">
        <ele>182.6</ele>
        <time>2024-09-18T10:59:58Z</time>
      </trkpt>
      <trkpt lat="46.70253" lon="4.93524">
        <ele>182.6</ele>
        <time>2024-09-18T10:59:59Z</time>
      </trkpt>
      <trkpt lat="46.70248" lon="4.93526">
        <ele>182.6</ele>
        <time>2024-09-18T11:00:00Z</time>
      </trkpt>
      <trkpt lat="46.70243" lon="4.93528">
        <ele>182.6</ele>
        <time>2024-09-18T11:00:01Z</time>
      </trkpt>
      <trkpt lat="46.70239" lon="4.9353">
        <ele>183</ele>
        <time>2024-09-18T11:00:02Z</time>
      </trkpt>
      <trkpt lat="46.70234" lon="4.93532">
        <ele>183</ele>
        <time>2024-09-18T11:00:03Z</time>
      </trkpt>
      <trkpt lat="46.70229" lon="4.93534">
        <ele>183</ele>
        <time>2024-09-18T11:00:04Z</time>
      </trkpt>
      <trkpt lat="46.70225" lon="4.93536">
        <ele>182.6</ele>
        <time>2024-09-18T11:00:05Z</time>
      </trkpt>
      <trkpt lat="46.7022" lon="4.93538">
        <ele>182.6</ele>
        <time>2024-09-18T11:00:06Z</time>
      </trkpt>
      <trkpt lat="46.70215" lon="4.93541">
        <ele>182.6</ele>
        <time>2024-09-18T11:00:07Z</time>
      </trkpt>
      <trkpt lat="46.70211" lon="4.93543">
        <ele>182.6</ele>
        <time>2024-09-18T11:00:08Z</time>
      </trkpt>
      <trkpt lat="46.70206" lon="4.93546">
        <ele>183.2</ele>
        <time>2024-09-18T11:00:09Z</time>
      </trkpt>
      <trkpt lat="46.70201" lon="4.93549">
        <ele>183</ele>
        <time>2024-09-18T11:00:10Z</time>
      </trkpt>
      <trkpt lat="46.70197" lon="4.93552">
        <ele>183</ele>
        <time>2024-09-18T11:00:11Z</time>
      </trkpt>
      <trkpt lat="46.70192" lon="4.93555">
        <ele>183</ele>
        <time>2024-09-18T11:00:12Z</time>
      </trkpt>
      <trkpt lat="46.70187" lon="4.93557">
        <ele>183</ele>
        <time>2024-09-18T11:00:13Z</time>
      </trkpt>
      <trkpt lat="46.70183" lon="4.9356">
        <ele>182.2</ele>
        <time>2024-09-18T11:00:14Z</time>
      </trkpt>
      <trkpt lat="46.70178" lon="4.93562">
        <ele>182.2</ele>
        <time>2024-09-18T11:00:15Z</time>
      </trkpt>
      <trkpt lat="46.70173" lon="4.93564">
        <ele>182.2</ele>
        <time>2024-09-18T11:00:16Z</time>
      </trkpt>
      <trkpt lat="46.70168" lon="4.93566">
        <ele>182.6</ele>
        <time>2024-09-18T11:00:17Z</time>
      </trkpt>
      <trkpt lat="46.70164" lon="4.93568">
        <ele>182.6</ele>
        <time>2024-09-18T11:00:18Z</time>
      </trkpt>
      <trkpt lat="46.70159" lon="4.93571">
        <ele>183</ele>
        <time>2024-09-18T11:00:19Z</time>
      </trkpt>
      <trkpt lat="46.70155" lon="4.93574">
        <ele>183</ele>
        <time>2024-09-18T11:00:20Z</time>
      </trkpt>
      <trkpt lat="46.7015" lon="4.93576">
        <ele>183</ele>
        <time>2024-09-18T11:00:21Z</time>
      </trkpt>
      <trkpt lat="46.70145" lon="4.93579">
        <ele>183</ele>
        <time>2024-09-18T11:00:22Z</time>
      </trkpt>
      <trkpt lat="46.70141" lon="4.93582">
        <ele>182.8</ele>
        <time>2024-09-18T11:00:23Z</time>
      </trkpt>
      <trkpt lat="46.70137" lon="4.93585">
        <ele>182.8</ele>
        <time>2024-09-18T11:00:24Z</time>
      </trkpt>
      <trkpt lat="46.70132" lon="4.93588">
        <ele>182.8</ele>
        <time>2024-09-18T11:00:25Z</time>
      </trkpt>
      <trkpt lat="46.70128" lon="4.93592">
        <ele>182.8</ele>
        <time>2024-09-18T11:00:26Z</time>
      </trkpt>
      <trkpt lat="46.70124" lon="4.93596">
        <ele>183</ele>
        <time>2024-09-18T11:00:27Z</time>
      </trkpt>
      <trkpt lat="46.7012" lon="4.936">
        <ele>183</ele>
        <time>2024-09-18T11:00:28Z</time>
      </trkpt>
      <trkpt lat="46.70117" lon="4.93605">
        <ele>183</ele>
        <time>2024-09-18T11:00:29Z</time>
      </trkpt>
      <trkpt lat="46.70113" lon="4.9361">
        <ele>183</ele>
        <time>2024-09-18T11:00:30Z</time>
      </trkpt>
      <trkpt lat="46.7011" lon="4.93615">
        <ele>183</ele>
        <time>2024-09-18T11:00:31Z</time>
      </trkpt>
      <trkpt lat="46.70107" lon="4.9362">
        <ele>182.8</ele>
        <time>2024-09-18T11:00:32Z</time>
      </trkpt>
      <trkpt lat="46.70105" lon="4.93626">
        <ele>182.8</ele>
        <time>2024-09-18T11:00:33Z</time>
      </trkpt>
      <trkpt lat="46.70102" lon="4.93632">
        <ele>182.8</ele>
        <time>2024-09-18T11:00:34Z</time>
      </trkpt>
      <trkpt lat="46.701" lon="4.93638">
        <ele>182.8</ele>
        <time>2024-09-18T11:00:35Z</time>
      </trkpt>
      <trkpt lat="46.70098" lon="4.93643">
        <ele>182.8</ele>
        <time>2024-09-18T11:00:36Z</time>
      </trkpt>
      <trkpt lat="46.70096" lon="4.93648">
        <ele>183</ele>
        <time>2024-09-18T11:00:37Z</time>
      </trkpt>
      <trkpt lat="46.70093" lon="4.93652">
        <ele>183</ele>
        <time>2024-09-18T11:00:38Z</time>
      </trkpt>
      <trkpt lat="46.70089" lon="4.93655">
        <ele>183</ele>
        <time>2024-09-18T11:00:39Z</time>
      </trkpt>
      <trkpt lat="46.70086" lon="4.93657">
        <ele>183.2</ele>
        <time>2024-09-18T11:00:40Z</time>
      </trkpt>
      <trkpt lat="46.70082" lon="4.93658">
        <ele>183.2</ele>
        <time>2024-09-18T11:00:41Z</time>
      </trkpt>
      <trkpt lat="46.70077" lon="4.93659">
        <ele>183.2</ele>
        <time>2024-09-18T11:00:42Z</time>
      </trkpt>
      <trkpt lat="46.70072" lon="4.93658">
        <ele>183.2</ele>
        <time>2024-09-18T11:00:43Z</time>
      </trkpt>
      <trkpt lat="46.70068" lon="4.93657">
        <ele>183.2</ele>
        <time>2024-09-18T11:00:44Z</time>
      </trkpt>
      <trkpt lat="46.70063" lon="4.93656">
        <ele>183.2</ele>
        <time>2024-09-18T11:00:45Z</time>
      </trkpt>
      <trkpt lat="46.70058" lon="4.93655">
        <ele>182.6</ele>
        <time>2024-09-18T11:00:46Z</time>
      </trkpt>
      <trkpt lat="46.70054" lon="4.93654">
        <ele>182.6</ele>
        <time>2024-09-18T11:00:47Z</time>
      </trkpt>
      <trkpt lat="46.70049" lon="4.93654">
        <ele>182.6</ele>
        <time>2024-09-18T11:00:48Z</time>
      </trkpt>
      <trkpt lat="46.70044" lon="4.93654">
        <ele>182.4</ele>
        <time>2024-09-18T11:00:49Z</time>
      </trkpt>
      <trkpt lat="46.70039" lon="4.93655">
        <ele>182.2</ele>
        <time>2024-09-18T11:00:50Z</time>
      </trkpt>
      <trkpt lat="46.70035" lon="4.93655">
        <ele>182.2</ele>
        <time>2024-09-18T11:00:51Z</time>
      </trkpt>
      <trkpt lat="46.7003" lon="4.93656">
        <ele>182.2</ele>
        <time>2024-09-18T11:00:52Z</time>
      </trkpt>
      <trkpt lat="46.70025" lon="4.93657">
        <ele>182.2</ele>
        <time>2024-09-18T11:00:53Z</time>
      </trkpt>
      <trkpt lat="46.7002" lon="4.93658">
        <ele>182.2</ele>
        <time>2024-09-18T11:00:54Z</time>
      </trkpt>
      <trkpt lat="46.70015" lon="4.93659">
        <ele>182.6</ele>
        <time>2024-09-18T11:00:55Z</time>
      </trkpt>
      <trkpt lat="46.7001" lon="4.9366">
        <ele>182.6</ele>
        <time>2024-09-18T11:00:56Z</time>
      </trkpt>
      <trkpt lat="46.70006" lon="4.93661">
        <ele>182.6</ele>
        <time>2024-09-18T11:00:57Z</time>
      </trkpt>
      <trkpt lat="46.70001" lon="4.93662">
        <ele>182.6</ele>
        <time>2024-09-18T11:00:58Z</time>
      </trkpt>
      <trkpt lat="46.69997" lon="4.93664">
        <ele>182.6</ele>
        <time>2024-09-18T11:00:59Z</time>
      </trkpt>
      <trkpt lat="46.69992" lon="4.93665">
        <ele>182.6</ele>
        <time>2024-09-18T11:01:00Z</time>
      </trkpt>
      <trkpt lat="46.69987" lon="4.93667">
        <ele>182.6</ele>
        <time>2024-09-18T11:01:01Z</time>
      </trkpt>
      <trkpt lat="46.69982" lon="4.93668">
        <ele>182.4</ele>
        <time>2024-09-18T11:01:02Z</time>
      </trkpt>
      <trkpt lat="46.69978" lon="4.9367">
        <ele>182.6</ele>
        <time>2024-09-18T11:01:03Z</time>
      </trkpt>
      <trkpt lat="46.69973" lon="4.93672">
        <ele>182.6</ele>
        <time>2024-09-18T11:01:04Z</time>
      </trkpt>
      <trkpt lat="46.69969" lon="4.93674">
        <ele>182.6</ele>
        <time>2024-09-18T11:01:05Z</time>
      </trkpt>
      <trkpt lat="46.69965" lon="4.93677">
        <ele>182.6</ele>
        <time>2024-09-18T11:01:06Z</time>
      </trkpt>
      <trkpt lat="46.69961" lon="4.93678">
        <ele>182.8</ele>
        <time>2024-09-18T11:01:07Z</time>
      </trkpt>
      <trkpt lat="46.69956" lon="4.9368">
        <ele>182.4</ele>
        <time>2024-09-18T11:01:08Z</time>
      </trkpt>
      <trkpt lat="46.69952" lon="4.93683">
        <ele>182.4</ele>
        <time>2024-09-18T11:01:09Z</time>
      </trkpt>
      <trkpt lat="46.69948" lon="4.93685">
        <ele>182.4</ele>
        <time>2024-09-18T11:01:10Z</time>
      </trkpt>
      <trkpt lat="46.69944" lon="4.93687">
        <ele>182.4</ele>
        <time>2024-09-18T11:01:11Z</time>
      </trkpt>
      <trkpt lat="46.69941" lon="4.9369">
        <ele>182.4</ele>
        <time>2024-09-18T11:01:12Z</time>
      </trkpt>
      <trkpt lat="46.69937" lon="4.93692">
        <ele>182.6</ele>
        <time>2024-09-18T11:01:13Z</time>
      </trkpt>
      <trkpt lat="46.69934" lon="4.93694">
        <ele>182.6</ele>
        <time>2024-09-18T11:01:14Z</time>
      </trkpt>
      <trkpt lat="46.69931" lon="4.93696">
        <ele>182.6</ele>
        <time>2024-09-18T11:01:15Z</time>
      </trkpt>
      <trkpt lat="46.69928" lon="4.93698">
        <ele>182.8</ele>
        <time>2024-09-18T11:01:16Z</time>
      </trkpt>
      <trkpt lat="46.69925" lon="4.93699">
        <ele>182.4</ele>
        <time>2024-09-18T11:01:17Z</time>
      </trkpt>
      <trkpt lat="46.69922" lon="4.93701">
        <ele>182.4</ele>
        <time>2024-09-18T11:01:18Z</time>
      </trkpt>
      <trkpt lat="46.69919" lon="4.93702">
        <ele>182.4</ele>
        <time>2024-09-18T11:01:19Z</time>
      </trkpt>
      <trkpt lat="46.69916" lon="4.93704">
        <ele>182.4</ele>
        <time>2024-09-18T11:01:20Z</time>
      </trkpt>
      <trkpt lat="46.69913" lon="4.93705">
        <ele>182.4</ele>
        <time>2024-09-18T11:01:21Z</time>
      </trkpt>
      <trkpt lat="46.6991" lon="4.93707">
        <ele>182.6</ele>
        <time>2024-09-18T11:01:22Z</time>
      </trkpt>
      <trkpt lat="46.69907" lon="4.9371">
        <ele>182.6</ele>
        <time>2024-09-18T11:01:23Z</time>
      </trkpt>
      <trkpt lat="46.69904" lon="4.93712">
        <ele>182.6</ele>
        <time>2024-09-18T11:01:24Z</time>
      </trkpt>
      <trkpt lat="46.69901" lon="4.93714">
        <ele>182.6</ele>
        <time>2024-09-18T11:01:25Z</time>
      </trkpt>
      <trkpt lat="46.69898" lon="4.93716">
        <ele>182.6</ele>
        <time>2024-09-18T11:01:26Z</time>
      </trkpt>
      <trkpt lat="46.69895" lon="4.9372">
        <ele>182.2</ele>
        <time>2024-09-18T11:01:27Z</time>
      </trkpt>
      <trkpt lat="46.69891" lon="4.93723">
        <ele>182.2</ele>
        <time>2024-09-18T11:01:28Z</time>
      </trkpt>
      <trkpt lat="46.69888" lon="4.93726">
        <ele>182.6</ele>
        <time>2024-09-18T11:01:29Z</time>
      </trkpt>
      <trkpt lat="46.69885" lon="4.9373">
        <ele>182.6</ele>
        <time>2024-09-18T11:01:30Z</time>
      </trkpt>
      <trkpt lat="46.69881" lon="4.93733">
        <ele>183.2</ele>
        <time>2024-09-18T11:01:31Z</time>
      </trkpt>
      <trkpt lat="46.69877" lon="4.93736">
        <ele>183.2</ele>
        <time>2024-09-18T11:01:32Z</time>
      </trkpt>
      <trkpt lat="46.69874" lon="4.9374">
        <ele>183.2</ele>
        <time>2024-09-18T11:01:33Z</time>
      </trkpt>
      <trkpt lat="46.6987" lon="4.93743">
        <ele>183.2</ele>
        <time>2024-09-18T11:01:34Z</time>
      </trkpt>
      <trkpt lat="46.69867" lon="4.93746">
        <ele>183.4</ele>
        <time>2024-09-18T11:01:35Z</time>
      </trkpt>
      <trkpt lat="46.69863" lon="4.9375">
        <ele>183.4</ele>
        <time>2024-09-18T11:01:36Z</time>
      </trkpt>
      <trkpt lat="46.6986" lon="4.93754">
        <ele>183.4</ele>
        <time>2024-09-18T11:01:37Z</time>
      </trkpt>
      <trkpt lat="46.69856" lon="4.93757">
        <ele>183.2</ele>
        <time>2024-09-18T11:01:38Z</time>
      </trkpt>
      <trkpt lat="46.69853" lon="4.93761">
        <ele>183</ele>
        <time>2024-09-18T11:01:39Z</time>
      </trkpt>
      <trkpt lat="46.69849" lon="4.93765">
        <ele>183</ele>
        <time>2024-09-18T11:01:40Z</time>
      </trkpt>
      <trkpt lat="46.69846" lon="4.93768">
        <ele>183</ele>
        <time>2024-09-18T11:01:41Z</time>
      </trkpt>
      <trkpt lat="46.69842" lon="4.93773">
        <ele>183</ele>
        <time>2024-09-18T11:01:42Z</time>
      </trkpt>
      <trkpt lat="46.69839" lon="4.93776">
        <ele>183</ele>
        <time>2024-09-18T11:01:43Z</time>
      </trkpt>
      <trkpt lat="46.69835" lon="4.9378">
        <ele>183.4</ele>
        <time>2024-09-18T11:01:44Z</time>
      </trkpt>
      <trkpt lat="46.69831" lon="4.93784">
        <ele>183.4</ele>
        <time>2024-09-18T11:01:45Z</time>
      </trkpt>
      <trkpt lat="46.69827" lon="4.93788">
        <ele>183.4</ele>
        <time>2024-09-18T11:01:46Z</time>
      </trkpt>
      <trkpt lat="46.69824" lon="4.93792">
        <ele>183.4</ele>
        <time>2024-09-18T11:01:47Z</time>
      </trkpt>
      <trkpt lat="46.6982" lon="4.93795">
        <ele>182.8</ele>
        <time>2024-09-18T11:01:48Z</time>
      </trkpt>
      <trkpt lat="46.69816" lon="4.93799">
        <ele>182.8</ele>
        <time>2024-09-18T11:01:49Z</time>
      </trkpt>
      <trkpt lat="46.69812" lon="4.93803">
        <ele>182.8</ele>
        <time>2024-09-18T11:01:50Z</time>
      </trkpt>
      <trkpt lat="46.69808" lon="4.93807">
        <ele>183</ele>
        <time>2024-09-18T11:01:51Z</time>
      </trkpt>
      <trkpt lat="46.69804" lon="4.93811">
        <ele>183.4</ele>
        <time>2024-09-18T11:01:52Z</time>
      </trkpt>
      <trkpt lat="46.698" lon="4.93814">
        <ele>183.4</ele>
        <time>2024-09-18T11:01:53Z</time>
      </trkpt>
      <trkpt lat="46.69796" lon="4.93818">
        <ele>183.4</ele>
        <time>2024-09-18T11:01:54Z</time>
      </trkpt>
      <trkpt lat="46.69792" lon="4.93821">
        <ele>183.4</ele>
        <time>2024-09-18T11:01:55Z</time>
      </trkpt>
      <trkpt lat="46.69788" lon="4.93825">
        <ele>183.4</ele>
        <time>2024-09-18T11:01:56Z</time>
      </trkpt>
      <trkpt lat="46.69784" lon="4.93828">
        <ele>183</ele>
        <time>2024-09-18T11:01:57Z</time>
      </trkpt>
      <trkpt lat="46.6978" lon="4.93831">
        <ele>183</ele>
        <time>2024-09-18T11:01:58Z</time>
      </trkpt>
      <trkpt lat="46.69776" lon="4.93835">
        <ele>183</ele>
        <time>2024-09-18T11:01:59Z</time>
      </trkpt>
      <trkpt lat="46.69772" lon="4.93838">
        <ele>183</ele>
        <time>2024-09-18T11:02:00Z</time>
      </trkpt>
      <trkpt lat="46.69768" lon="4.93842">
        <ele>183</ele>
        <time>2024-09-18T11:02:01Z</time>
      </trkpt>
      <trkpt lat="46.69764" lon="4.93846">
        <ele>183.4</ele>
        <time>2024-09-18T11:02:02Z</time>
      </trkpt>
      <trkpt lat="46.6976" lon="4.9385">
        <ele>183.4</ele>
        <time>2024-09-18T11:02:03Z</time>
      </trkpt>
      <trkpt lat="46.69756" lon="4.93854">
        <ele>183.4</ele>
        <time>2024-09-18T11:02:04Z</time>
      </trkpt>
      <trkpt lat="46.69753" lon="4.93858">
        <ele>183.4</ele>
        <time>2024-09-18T11:02:05Z</time>
      </trkpt>
      <trkpt lat="46.69749" lon="4.93863">
        <ele>183.2</ele>
        <time>2024-09-18T11:02:06Z</time>
      </trkpt>
      <trkpt lat="46.69745" lon="4.93867">
        <ele>182.6</ele>
        <time>2024-09-18T11:02:07Z</time>
      </trkpt>
      <trkpt lat="46.69741" lon="4.9387">
        <ele>182.6</ele>
        <time>2024-09-18T11:02:08Z</time>
      </trkpt>
      <trkpt lat="46.69737" lon="4.93874">
        <ele>182.6</ele>
        <time>2024-09-18T11:02:09Z</time>
      </trkpt>
      <trkpt lat="46.69733" lon="4.93878">
        <ele>182.8</ele>
        <time>2024-09-18T11:02:10Z</time>
      </trkpt>
      <trkpt lat="46.69728" lon="4.93882">
        <ele>183</ele>
        <time>2024-09-18T11:02:11Z</time>
      </trkpt>
      <trkpt lat="46.69724" lon="4.93885">
        <ele>183</ele>
        <time>2024-09-18T11:02:12Z</time>
      </trkpt>
      <trkpt lat="46.6972" lon="4.93888">
        <ele>183</ele>
        <time>2024-09-18T11:02:13Z</time>
      </trkpt>
      <trkpt lat="46.69716" lon="4.93891">
        <ele>183</ele>
        <time>2024-09-18T11:02:14Z</time>
      </trkpt>
      <trkpt lat="46.69712" lon="4.93895">
        <ele>182.4</ele>
        <time>2024-09-18T11:02:15Z</time>
      </trkpt>
      <trkpt lat="46.69708" lon="4.939">
        <ele>182.4</ele>
        <time>2024-09-18T11:02:16Z</time>
      </trkpt>
      <trkpt lat="46.69704" lon="4.93904">
        <ele>182.4</ele>
        <time>2024-09-18T11:02:17Z</time>
      </trkpt>
      <trkpt lat="46.697" lon="4.93907">
        <ele>183</ele>
        <time>2024-09-18T11:02:18Z</time>
      </trkpt>
      <trkpt lat="46.69696" lon="4.93911">
        <ele>183</ele>
        <time>2024-09-18T11:02:19Z</time>
      </trkpt>
      <trkpt lat="46.69692" lon="4.93914">
        <ele>183</ele>
        <time>2024-09-18T11:02:20Z</time>
      </trkpt>
      <trkpt lat="46.69688" lon="4.93918">
        <ele>183</ele>
        <time>2024-09-18T11:02:21Z</time>
      </trkpt>
      <trkpt lat="46.69683" lon="4.93921">
        <ele>183</ele>
        <time>2024-09-18T11:02:22Z</time>
      </trkpt>
      <trkpt lat="46.69679" lon="4.93924">
        <ele>183</ele>
        <time>2024-09-18T11:02:23Z</time>
      </trkpt>
      <trkpt lat="46.69676" lon="4.93928">
        <ele>183</ele>
        <time>2024-09-18T11:02:24Z</time>
      </trkpt>
      <trkpt lat="46.69672" lon="4.93932">
        <ele>183</ele>
        <time>2024-09-18T11:02:25Z</time>
      </trkpt>
      <trkpt lat="46.69668" lon="4.93935">
        <ele>183</ele>
        <time>2024-09-18T11:02:26Z</time>
      </trkpt>
      <trkpt lat="46.69664" lon="4.93939">
        <ele>183</ele>
        <time>2024-09-18T11:02:27Z</time>
      </trkpt>
      <trkpt lat="46.6966" lon="4.93942">
        <ele>183</ele>
        <time>2024-09-18T11:02:28Z</time>
      </trkpt>
      <trkpt lat="46.69656" lon="4.93946">
        <ele>183</ele>
        <time>2024-09-18T11:02:29Z</time>
      </trkpt>
      <trkpt lat="46.69651" lon="4.9395">
        <ele>183</ele>
        <time>2024-09-18T11:02:30Z</time>
      </trkpt>
      <trkpt lat="46.69647" lon="4.93954">
        <ele>183</ele>
        <time>2024-09-18T11:02:31Z</time>
      </trkpt>
      <trkpt lat="46.69643" lon="4.93957">
        <ele>183.2</ele>
        <time>2024-09-18T11:02:32Z</time>
      </trkpt>
      <trkpt lat="46.69639" lon="4.93961">
        <ele>183.2</ele>
        <time>2024-09-18T11:02:33Z</time>
      </trkpt>
      <trkpt lat="46.69635" lon="4.93965">
        <ele>183.2</ele>
        <time>2024-09-18T11:02:34Z</time>
      </trkpt>
      <trkpt lat="46.69631" lon="4.93969">
        <ele>183.2</ele>
        <time>2024-09-18T11:02:35Z</time>
      </trkpt>
      <trkpt lat="46.69627" lon="4.93972">
        <ele>183.2</ele>
        <time>2024-09-18T11:02:36Z</time>
      </trkpt>
      <trkpt lat="46.69623" lon="4.93976">
        <ele>183.2</ele>
        <time>2024-09-18T11:02:37Z</time>
      </trkpt>
      <trkpt lat="46.69619" lon="4.9398">
        <ele>183</ele>
        <time>2024-09-18T11:02:38Z</time>
      </trkpt>
      <trkpt lat="46.69615" lon="4.93983">
        <ele>183</ele>
        <time>2024-09-18T11:02:39Z</time>
      </trkpt>
      <trkpt lat="46.69611" lon="4.93987">
        <ele>183</ele>
        <time>2024-09-18T11:02:40Z</time>
      </trkpt>
      <trkpt lat="46.69607" lon="4.93991">
        <ele>182.6</ele>
        <time>2024-09-18T11:02:41Z</time>
      </trkpt>
      <trkpt lat="46.69603" lon="4.93995">
        <ele>183</ele>
        <time>2024-09-18T11:02:42Z</time>
      </trkpt>
      <trkpt lat="46.69599" lon="4.93999">
        <ele>183</ele>
        <time>2024-09-18T11:02:43Z</time>
      </trkpt>
      <trkpt lat="46.69595" lon="4.94003">
        <ele>183</ele>
        <time>2024-09-18T11:02:44Z</time>
      </trkpt>
      <trkpt lat="46.69591" lon="4.94007">
        <ele>183</ele>
        <time>2024-09-18T11:02:45Z</time>
      </trkpt>
      <trkpt lat="46.69587" lon="4.94011">
        <ele>183</ele>
        <time>2024-09-18T11:02:46Z</time>
      </trkpt>
      <trkpt lat="46.69583" lon="4.94014">
        <ele>183</ele>
        <time>2024-09-18T11:02:47Z</time>
      </trkpt>
      <trkpt lat="46.69578" lon="4.94018">
        <ele>183</ele>
        <time>2024-09-18T11:02:48Z</time>
      </trkpt>
      <trkpt lat="46.69574" lon="4.94021">
        <ele>183</ele>
        <time>2024-09-18T11:02:49Z</time>
      </trkpt>
      <trkpt lat="46.6957" lon="4.94025">
        <ele>182.6</ele>
        <time>2024-09-18T11:02:50Z</time>
      </trkpt>
      <trkpt lat="46.69566" lon="4.94029">
        <ele>182.6</ele>
        <time>2024-09-18T11:02:51Z</time>
      </trkpt>
      <trkpt lat="46.69562" lon="4.94033">
        <ele>183</ele>
        <time>2024-09-18T11:02:52Z</time>
      </trkpt>
      <trkpt lat="46.69558" lon="4.94036">
        <ele>183</ele>
        <time>2024-09-18T11:02:53Z</time>
      </trkpt>
      <trkpt lat="46.69553" lon="4.9404">
        <ele>183</ele>
        <time>2024-09-18T11:02:54Z</time>
      </trkpt>
      <trkpt lat="46.69549" lon="4.94043">
        <ele>183</ele>
        <time>2024-09-18T11:02:55Z</time>
      </trkpt>
      <trkpt lat="46.69545" lon="4.94047">
        <ele>183</ele>
        <time>2024-09-18T11:02:56Z</time>
      </trkpt>
      <trkpt lat="46.69541" lon="4.94051">
        <ele>183</ele>
        <time>2024-09-18T11:02:57Z</time>
      </trkpt>
      <trkpt lat="46.69537" lon="4.94054">
        <ele>183</ele>
        <time>2024-09-18T11:02:58Z</time>
      </trkpt>
      <trkpt lat="46.69533" lon="4.94058">
        <ele>183</ele>
        <time>2024-09-18T11:02:59Z</time>
      </trkpt>
      <trkpt lat="46.69528" lon="4.94062">
        <ele>182.8</ele>
        <time>2024-09-18T11:03:00Z</time>
      </trkpt>
      <trkpt lat="46.69524" lon="4.94066">
        <ele>182.8</ele>
        <time>2024-09-18T11:03:01Z</time>
      </trkpt>
      <trkpt lat="46.6952" lon="4.9407">
        <ele>182.8</ele>
        <time>2024-09-18T11:03:02Z</time>
      </trkpt>
      <trkpt lat="46.69516" lon="4.94073">
        <ele>183.2</ele>
        <time>2024-09-18T11:03:03Z</time>
      </trkpt>
      <trkpt lat="46.69511" lon="4.94076">
        <ele>183</ele>
        <time>2024-09-18T11:03:04Z</time>
      </trkpt>
      <trkpt lat="46.69507" lon="4.94079">
        <ele>183</ele>
        <time>2024-09-18T11:03:05Z</time>
      </trkpt>
      <trkpt lat="46.69503" lon="4.94082">
        <ele>183</ele>
        <time>2024-09-18T11:03:06Z</time>
      </trkpt>
      <trkpt lat="46.69498" lon="4.94085">
        <ele>183</ele>
        <time>2024-09-18T11:03:07Z</time>
      </trkpt>
      <trkpt lat="46.69494" lon="4.94088">
        <ele>183</ele>
        <time>2024-09-18T11:03:08Z</time>
      </trkpt>
      <trkpt lat="46.69489" lon="4.94091">
        <ele>183</ele>
        <time>2024-09-18T11:03:09Z</time>
      </trkpt>
      <trkpt lat="46.69485" lon="4.94093">
        <ele>183</ele>
        <time>2024-09-18T11:03:10Z</time>
      </trkpt>
      <trkpt lat="46.6948" lon="4.94096">
        <ele>183</ele>
        <time>2024-09-18T11:03:11Z</time>
      </trkpt>
      <trkpt lat="46.69476" lon="4.94099">
        <ele>183</ele>
        <time>2024-09-18T11:03:12Z</time>
      </trkpt>
      <trkpt lat="46.69471" lon="4.94102">
        <ele>182.8</ele>
        <time>2024-09-18T11:03:13Z</time>
      </trkpt>
      <trkpt lat="46.69467" lon="4.94105">
        <ele>182.8</ele>
        <time>2024-09-18T11:03:14Z</time>
      </trkpt>
      <trkpt lat="46.69462" lon="4.94108">
        <ele>182.8</ele>
        <time>2024-09-18T11:03:15Z</time>
      </trkpt>
      <trkpt lat="46.69457" lon="4.94111">
        <ele>182.8</ele>
        <time>2024-09-18T11:03:16Z</time>
      </trkpt>
      <trkpt lat="46.69453" lon="4.94113">
        <ele>183</ele>
        <time>2024-09-18T11:03:17Z</time>
      </trkpt>
      <trkpt lat="46.69448" lon="4.94116">
        <ele>183</ele>
        <time>2024-09-18T11:03:18Z</time>
      </trkpt>
      <trkpt lat="46.69443" lon="4.94118">
        <ele>183</ele>
        <time>2024-09-18T11:03:19Z</time>
      </trkpt>
      <trkpt lat="46.69439" lon="4.94121">
        <ele>183</ele>
        <time>2024-09-18T11:03:20Z</time>
      </trkpt>
      <trkpt lat="46.69434" lon="4.94123">
        <ele>183</ele>
        <time>2024-09-18T11:03:21Z</time>
      </trkpt>
      <trkpt lat="46.6943" lon="4.94125">
        <ele>182.8</ele>
        <time>2024-09-18T11:03:22Z</time>
      </trkpt>
      <trkpt lat="46.69425" lon="4.94127">
        <ele>183</ele>
        <time>2024-09-18T11:03:23Z</time>
      </trkpt>
      <trkpt lat="46.69421" lon="4.94128">
        <ele>183</ele>
        <time>2024-09-18T11:03:24Z</time>
      </trkpt>
      <trkpt lat="46.69417" lon="4.94129">
        <ele>183</ele>
        <time>2024-09-18T11:03:25Z</time>
      </trkpt>
      <trkpt lat="46.69412" lon="4.94131">
        <ele>182.6</ele>
        <time>2024-09-18T11:03:26Z</time>
      </trkpt>
      <trkpt lat="46.69408" lon="4.94132">
        <ele>183.4</ele>
        <time>2024-09-18T11:03:27Z</time>
      </trkpt>
      <trkpt lat="46.69403" lon="4.94133">
        <ele>183.4</ele>
        <time>2024-09-18T11:03:28Z</time>
      </trkpt>
      <trkpt lat="46.69399" lon="4.94135">
        <ele>183.4</ele>
        <time>2024-09-18T11:03:29Z</time>
      </trkpt>
      <trkpt lat="46.69392" lon="4.94137">
        <ele>182.8</ele>
        <time>2024-09-18T11:03:30Z</time>
      </trkpt>
      <trkpt lat="46.69389" lon="4.94138">
        <ele>182.8</ele>
        <time>2024-09-18T11:03:31Z</time>
      </trkpt>
      <trkpt lat="46.69384" lon="4.94139">
        <ele>183.2</ele>
        <time>2024-09-18T11:03:32Z</time>
      </trkpt>
      <trkpt lat="46.69379" lon="4.94141">
        <ele>183.2</ele>
        <time>2024-09-18T11:03:33Z</time>
      </trkpt>
      <trkpt lat="46.69374" lon="4.94142">
        <ele>183.2</ele>
        <time>2024-09-18T11:03:34Z</time>
      </trkpt>
      <trkpt lat="46.6937" lon="4.94144">
        <ele>183.2</ele>
        <time>2024-09-18T11:03:35Z</time>
      </trkpt>
      <trkpt lat="46.69365" lon="4.94146">
        <ele>182.6</ele>
        <time>2024-09-18T11:03:36Z</time>
      </trkpt>
      <trkpt lat="46.6936" lon="4.94147">
        <ele>182.6</ele>
        <time>2024-09-18T11:03:37Z</time>
      </trkpt>
      <trkpt lat="46.69355" lon="4.94149">
        <ele>182.6</ele>
        <time>2024-09-18T11:03:38Z</time>
      </trkpt>
      <trkpt lat="46.6935" lon="4.94151">
        <ele>183</ele>
        <time>2024-09-18T11:03:39Z</time>
      </trkpt>
      <trkpt lat="46.69345" lon="4.94153">
        <ele>182.6</ele>
        <time>2024-09-18T11:03:40Z</time>
      </trkpt>
      <trkpt lat="46.6934" lon="4.94155">
        <ele>182.6</ele>
        <time>2024-09-18T11:03:41Z</time>
      </trkpt>
      <trkpt lat="46.69335" lon="4.94156">
        <ele>182.6</ele>
        <time>2024-09-18T11:03:42Z</time>
      </trkpt>
      <trkpt lat="46.6933" lon="4.94157">
        <ele>182.6</ele>
        <time>2024-09-18T11:03:43Z</time>
      </trkpt>
      <trkpt lat="46.69325" lon="4.94158">
        <ele>182.6</ele>
        <time>2024-09-18T11:03:44Z</time>
      </trkpt>
      <trkpt lat="46.6932" lon="4.94159">
        <ele>182.4</ele>
        <time>2024-09-18T11:03:45Z</time>
      </trkpt>
      <trkpt lat="46.69316" lon="4.94161">
        <ele>182.4</ele>
        <time>2024-09-18T11:03:46Z</time>
      </trkpt>
      <trkpt lat="46.69311" lon="4.94163">
        <ele>182.4</ele>
        <time>2024-09-18T11:03:47Z</time>
      </trkpt>
      <trkpt lat="46.69306" lon="4.94165">
        <ele>182.6</ele>
        <time>2024-09-18T11:03:48Z</time>
      </trkpt>
      <trkpt lat="46.69302" lon="4.94167">
        <ele>182.8</ele>
        <time>2024-09-18T11:03:49Z</time>
      </trkpt>
      <trkpt lat="46.69297" lon="4.94169">
        <ele>182.8</ele>
        <time>2024-09-18T11:03:50Z</time>
      </trkpt>
      <trkpt lat="46.69292" lon="4.94171">
        <ele>182.8</ele>
        <time>2024-09-18T11:03:51Z</time>
      </trkpt>
      <trkpt lat="46.69288" lon="4.94173">
        <ele>182.8</ele>
        <time>2024-09-18T11:03:52Z</time>
      </trkpt>
      <trkpt lat="46.69283" lon="4.94175">
        <ele>182.8</ele>
        <time>2024-09-18T11:03:53Z</time>
      </trkpt>
      <trkpt lat="46.69278" lon="4.94176">
        <ele>182.8</ele>
        <time>2024-09-18T11:03:54Z</time>
      </trkpt>
      <trkpt lat="46.69274" lon="4.94178">
        <ele>182.8</ele>
        <time>2024-09-18T11:03:55Z</time>
      </trkpt>
      <trkpt lat="46.69269" lon="4.9418">
        <ele>182.8</ele>
        <time>2024-09-18T11:03:56Z</time>
      </trkpt>
      <trkpt lat="46.69264" lon="4.94181">
        <ele>182.8</ele>
        <time>2024-09-18T11:03:57Z</time>
      </trkpt>
      <trkpt lat="46.6926" lon="4.94182">
        <ele>183</ele>
        <time>2024-09-18T11:03:58Z</time>
      </trkpt>
      <trkpt lat="46.69255" lon="4.94184">
        <ele>183</ele>
        <time>2024-09-18T11:03:59Z</time>
      </trkpt>
      <trkpt lat="46.6925" lon="4.94185">
        <ele>183</ele>
        <time>2024-09-18T11:04:00Z</time>
      </trkpt>
      <trkpt lat="46.69245" lon="4.94186">
        <ele>183</ele>
        <time>2024-09-18T11:04:01Z</time>
      </trkpt>
      <trkpt lat="46.6924" lon="4.94187">
        <ele>183</ele>
        <time>2024-09-18T11:04:02Z</time>
      </trkpt>
      <trkpt lat="46.69235" lon="4.94188">
        <ele>183</ele>
        <time>2024-09-18T11:04:03Z</time>
      </trkpt>
      <trkpt lat="46.6923" lon="4.9419">
        <ele>182.6</ele>
        <time>2024-09-18T11:04:04Z</time>
      </trkpt>
      <trkpt lat="46.69225" lon="4.94191">
        <ele>182.6</ele>
        <time>2024-09-18T11:04:05Z</time>
      </trkpt>
      <trkpt lat="46.6922" lon="4.94193">
        <ele>182.8</ele>
        <time>2024-09-18T11:04:06Z</time>
      </trkpt>
      <trkpt lat="46.69216" lon="4.94194">
        <ele>183</ele>
        <time>2024-09-18T11:04:07Z</time>
      </trkpt>
      <trkpt lat="46.69211" lon="4.94196">
        <ele>183</ele>
        <time>2024-09-18T11:04:08Z</time>
      </trkpt>
      <trkpt lat="46.69206" lon="4.94197">
        <ele>183</ele>
        <time>2024-09-18T11:04:09Z</time>
      </trkpt>
      <trkpt lat="46.69201" lon="4.94199">
        <ele>183</ele>
        <time>2024-09-18T11:04:10Z</time>
      </trkpt>
      <trkpt lat="46.69196" lon="4.942">
        <ele>182.6</ele>
        <time>2024-09-18T11:04:11Z</time>
      </trkpt>
      <trkpt lat="46.69191" lon="4.94201">
        <ele>182.8</ele>
        <time>2024-09-18T11:04:12Z</time>
      </trkpt>
      <trkpt lat="46.69186" lon="4.94202">
        <ele>182.8</ele>
        <time>2024-09-18T11:04:13Z</time>
      </trkpt>
      <trkpt lat="46.69181" lon="4.94204">
        <ele>182.8</ele>
        <time>2024-09-18T11:04:14Z</time>
      </trkpt>
      <trkpt lat="46.69176" lon="4.94205">
        <ele>182.8</ele>
        <time>2024-09-18T11:04:15Z</time>
      </trkpt>
      <trkpt lat="46.69171" lon="4.94206">
        <ele>182.8</ele>
        <time>2024-09-18T11:04:16Z</time>
      </trkpt>
      <trkpt lat="46.69166" lon="4.94207">
        <ele>182.8</ele>
        <time>2024-09-18T11:04:17Z</time>
      </trkpt>
      <trkpt lat="46.69161" lon="4.94207">
        <ele>182.8</ele>
        <time>2024-09-18T11:04:18Z</time>
      </trkpt>
      <trkpt lat="46.69156" lon="4.94208">
        <ele>182.8</ele>
        <time>2024-09-18T11:04:19Z</time>
      </trkpt>
      <trkpt lat="46.6915" lon="4.94208">
        <ele>183</ele>
        <time>2024-09-18T11:04:20Z</time>
      </trkpt>
      <trkpt lat="46.69145" lon="4.94209">
        <ele>183</ele>
        <time>2024-09-18T11:04:21Z</time>
      </trkpt>
      <trkpt lat="46.6914" lon="4.94209">
        <ele>183</ele>
        <time>2024-09-18T11:04:22Z</time>
      </trkpt>
      <trkpt lat="46.69135" lon="4.9421">
        <ele>183</ele>
        <time>2024-09-18T11:04:23Z</time>
      </trkpt>
      <trkpt lat="46.6913" lon="4.9421">
        <ele>182.6</ele>
        <time>2024-09-18T11:04:24Z</time>
      </trkpt>
      <trkpt lat="46.69125" lon="4.94211">
        <ele>182.6</ele>
        <time>2024-09-18T11:04:25Z</time>
      </trkpt>
      <trkpt lat="46.69119" lon="4.94212">
        <ele>182.6</ele>
        <time>2024-09-18T11:04:26Z</time>
      </trkpt>
      <trkpt lat="46.69114" lon="4.94212">
        <ele>182.6</ele>
        <time>2024-09-18T11:04:27Z</time>
      </trkpt>
      <trkpt lat="46.6911" lon="4.94213">
        <ele>182.6</ele>
        <time>2024-09-18T11:04:28Z</time>
      </trkpt>
      <trkpt lat="46.69105" lon="4.94213">
        <ele>182.4</ele>
        <time>2024-09-18T11:04:29Z</time>
      </trkpt>
      <trkpt lat="46.691" lon="4.94214">
        <ele>182.4</ele>
        <time>2024-09-18T11:04:30Z</time>
      </trkpt>
      <trkpt lat="46.69095" lon="4.94214">
        <ele>182.4</ele>
        <time>2024-09-18T11:04:31Z</time>
      </trkpt>
      <trkpt lat="46.6909" lon="4.94215">
        <ele>182.8</ele>
        <time>2024-09-18T11:04:32Z</time>
      </trkpt>
      <trkpt lat="46.69085" lon="4.94215">
        <ele>182.8</ele>
        <time>2024-09-18T11:04:33Z</time>
      </trkpt>
      <trkpt lat="46.6908" lon="4.94216">
        <ele>182.8</ele>
        <time>2024-09-18T11:04:34Z</time>
      </trkpt>
      <trkpt lat="46.69075" lon="4.94217">
        <ele>182.8</ele>
        <time>2024-09-18T11:04:35Z</time>
      </trkpt>
      <trkpt lat="46.6907" lon="4.94217">
        <ele>182.8</ele>
        <time>2024-09-18T11:04:36Z</time>
      </trkpt>
      <trkpt lat="46.69065" lon="4.94218">
        <ele>182.8</ele>
        <time>2024-09-18T11:04:37Z</time>
      </trkpt>
      <trkpt lat="46.6906" lon="4.94218">
        <ele>182.6</ele>
        <time>2024-09-18T11:04:38Z</time>
      </trkpt>
      <trkpt lat="46.69055" lon="4.94219">
        <ele>182.6</ele>
        <time>2024-09-18T11:04:39Z</time>
      </trkpt>
      <trkpt lat="46.6905" lon="4.9422">
        <ele>182.6</ele>
        <time>2024-09-18T11:04:40Z</time>
      </trkpt>
      <trkpt lat="46.69046" lon="4.9422">
        <ele>183.2</ele>
        <time>2024-09-18T11:04:41Z</time>
      </trkpt>
      <trkpt lat="46.69041" lon="4.94221">
        <ele>182</ele>
        <time>2024-09-18T11:04:42Z</time>
      </trkpt>
      <trkpt lat="46.69036" lon="4.94222">
        <ele>182</ele>
        <time>2024-09-18T11:04:43Z</time>
      </trkpt>
      <trkpt lat="46.69031" lon="4.94222">
        <ele>182</ele>
        <time>2024-09-18T11:04:44Z</time>
      </trkpt>
      <trkpt lat="46.69027" lon="4.94223">
        <ele>182</ele>
        <time>2024-09-18T11:04:45Z</time>
      </trkpt>
      <trkpt lat="46.69022" lon="4.94223">
        <ele>182.6</ele>
        <time>2024-09-18T11:04:46Z</time>
      </trkpt>
      <trkpt lat="46.69017" lon="4.94223">
        <ele>182.6</ele>
        <time>2024-09-18T11:04:47Z</time>
      </trkpt>
      <trkpt lat="46.69012" lon="4.94224">
        <ele>182.8</ele>
        <time>2024-09-18T11:04:48Z</time>
      </trkpt>
      <trkpt lat="46.69008" lon="4.94224">
        <ele>182.8</ele>
        <time>2024-09-18T11:04:49Z</time>
      </trkpt>
      <trkpt lat="46.69003" lon="4.94224">
        <ele>182.8</ele>
        <time>2024-09-18T11:04:50Z</time>
      </trkpt>
      <trkpt lat="46.68998" lon="4.94225">
        <ele>182.8</ele>
        <time>2024-09-18T11:04:51Z</time>
      </trkpt>
      <trkpt lat="46.68993" lon="4.94225">
        <ele>182.6</ele>
        <time>2024-09-18T11:04:52Z</time>
      </trkpt>
      <trkpt lat="46.68988" lon="4.94225">
        <ele>182.6</ele>
        <time>2024-09-18T11:04:53Z</time>
      </trkpt>
      <trkpt lat="46.68983" lon="4.94225">
        <ele>182.6</ele>
        <time>2024-09-18T11:04:54Z</time>
      </trkpt>
      <trkpt lat="46.68979" lon="4.94225">
        <ele>182.6</ele>
        <time>2024-09-18T11:04:55Z</time>
      </trkpt>
      <trkpt lat="46.68974" lon="4.94226">
        <ele>183</ele>
        <time>2024-09-18T11:04:56Z</time>
      </trkpt>
      <trkpt lat="46.68969" lon="4.94226">
        <ele>183</ele>
        <time>2024-09-18T11:04:57Z</time>
      </trkpt>
      <trkpt lat="46.68964" lon="4.94226">
        <ele>183</ele>
        <time>2024-09-18T11:04:58Z</time>
      </trkpt>
      <trkpt lat="46.68959" lon="4.94226">
        <ele>183</ele>
        <time>2024-09-18T11:04:59Z</time>
      </trkpt>
      <trkpt lat="46.68955" lon="4.94227">
        <ele>183</ele>
        <time>2024-09-18T11:05:00Z</time>
      </trkpt>
      <trkpt lat="46.6895" lon="4.94227">
        <ele>182.8</ele>
        <time>2024-09-18T11:05:01Z</time>
      </trkpt>
      <trkpt lat="46.68945" lon="4.94227">
        <ele>182.8</ele>
        <time>2024-09-18T11:05:02Z</time>
      </trkpt>
      <trkpt lat="46.6894" lon="4.94228">
        <ele>182.8</ele>
        <time>2024-09-18T11:05:03Z</time>
      </trkpt>
      <trkpt lat="46.68936" lon="4.94229">
        <ele>182.8</ele>
        <time>2024-09-18T11:05:04Z</time>
      </trkpt>
      <trkpt lat="46.68931" lon="4.94229">
        <ele>182.8</ele>
        <time>2024-09-18T11:05:05Z</time>
      </trkpt>
      <trkpt lat="46.68926" lon="4.9423">
        <ele>182.8</ele>
        <time>2024-09-18T11:05:06Z</time>
      </trkpt>
      <trkpt lat="46.68921" lon="4.94231">
        <ele>182.8</ele>
        <time>2024-09-18T11:05:07Z</time>
      </trkpt>
      <trkpt lat="46.68917" lon="4.94232">
        <ele>182.8</ele>
        <time>2024-09-18T11:05:08Z</time>
      </trkpt>
      <trkpt lat="46.68912" lon="4.94232">
        <ele>182.8</ele>
        <time>2024-09-18T11:05:09Z</time>
      </trkpt>
      <trkpt lat="46.68906" lon="4.94233">
        <ele>182.8</ele>
        <time>2024-09-18T11:05:10Z</time>
      </trkpt>
      <trkpt lat="46.68901" lon="4.94234">
        <ele>182.8</ele>
        <time>2024-09-18T11:05:11Z</time>
      </trkpt>
      <trkpt lat="46.68896" lon="4.94234">
        <ele>182.6</ele>
        <time>2024-09-18T11:05:12Z</time>
      </trkpt>
      <trkpt lat="46.68891" lon="4.94235">
        <ele>182.4</ele>
        <time>2024-09-18T11:05:13Z</time>
      </trkpt>
      <trkpt lat="46.68887" lon="4.94236">
        <ele>182.4</ele>
        <time>2024-09-18T11:05:14Z</time>
      </trkpt>
      <trkpt lat="46.68882" lon="4.94237">
        <ele>182.4</ele>
        <time>2024-09-18T11:05:15Z</time>
      </trkpt>
      <trkpt lat="46.68877" lon="4.94238">
        <ele>182.4</ele>
        <time>2024-09-18T11:05:16Z</time>
      </trkpt>
      <trkpt lat="46.68872" lon="4.94239">
        <ele>182.6</ele>
        <time>2024-09-18T11:05:17Z</time>
      </trkpt>
      <trkpt lat="46.68868" lon="4.94239">
        <ele>182.4</ele>
        <time>2024-09-18T11:05:18Z</time>
      </trkpt>
      <trkpt lat="46.68863" lon="4.9424">
        <ele>182.4</ele>
        <time>2024-09-18T11:05:19Z</time>
      </trkpt>
      <trkpt lat="46.68858" lon="4.94241">
        <ele>182.4</ele>
        <time>2024-09-18T11:05:20Z</time>
      </trkpt>
      <trkpt lat="46.68853" lon="4.94242">
        <ele>182</ele>
        <time>2024-09-18T11:05:21Z</time>
      </trkpt>
      <trkpt lat="46.68849" lon="4.94244">
        <ele>182</ele>
        <time>2024-09-18T11:05:22Z</time>
      </trkpt>
      <trkpt lat="46.68844" lon="4.94245">
        <ele>182.6</ele>
        <time>2024-09-18T11:05:23Z</time>
      </trkpt>
      <trkpt lat="46.68839" lon="4.94245">
        <ele>182.6</ele>
        <time>2024-09-18T11:05:24Z</time>
      </trkpt>
      <trkpt lat="46.68835" lon="4.94246">
        <ele>182.6</ele>
        <time>2024-09-18T11:05:25Z</time>
      </trkpt>
      <trkpt lat="46.6883" lon="4.94247">
        <ele>182.6</ele>
        <time>2024-09-18T11:05:26Z</time>
      </trkpt>
      <trkpt lat="46.68826" lon="4.94247">
        <ele>182.6</ele>
        <time>2024-09-18T11:05:27Z</time>
      </trkpt>
      <trkpt lat="46.68821" lon="4.94248">
        <ele>182.6</ele>
        <time>2024-09-18T11:05:28Z</time>
      </trkpt>
      <trkpt lat="46.68816" lon="4.94249">
        <ele>182.6</ele>
        <time>2024-09-18T11:05:29Z</time>
      </trkpt>
      <trkpt lat="46.68811" lon="4.9425">
        <ele>182.6</ele>
        <time>2024-09-18T11:05:30Z</time>
      </trkpt>
      <trkpt lat="46.68807" lon="4.94251">
        <ele>182.6</ele>
        <time>2024-09-18T11:05:31Z</time>
      </trkpt>
      <trkpt lat="46.68802" lon="4.94251">
        <ele>182.8</ele>
        <time>2024-09-18T11:05:32Z</time>
      </trkpt>
      <trkpt lat="46.68797" lon="4.94252">
        <ele>182.8</ele>
        <time>2024-09-18T11:05:33Z</time>
      </trkpt>
      <trkpt lat="46.68792" lon="4.94253">
        <ele>182.8</ele>
        <time>2024-09-18T11:05:34Z</time>
      </trkpt>
      <trkpt lat="46.68787" lon="4.94253">
        <ele>182.8</ele>
        <time>2024-09-18T11:05:35Z</time>
      </trkpt>
      <trkpt lat="46.68783" lon="4.94254">
        <ele>183</ele>
        <time>2024-09-18T11:05:36Z</time>
      </trkpt>
      <trkpt lat="46.68778" lon="4.94255">
        <ele>183</ele>
        <time>2024-09-18T11:05:37Z</time>
      </trkpt>
      <trkpt lat="46.68774" lon="4.94255">
        <ele>183</ele>
        <time>2024-09-18T11:05:38Z</time>
      </trkpt>
      <trkpt lat="46.68769" lon="4.94256">
        <ele>183</ele>
        <time>2024-09-18T11:05:39Z</time>
      </trkpt>
      <trkpt lat="46.68765" lon="4.94257">
        <ele>183</ele>
        <time>2024-09-18T11:05:40Z</time>
      </trkpt>
      <trkpt lat="46.6876" lon="4.94258">
        <ele>182.8</ele>
        <time>2024-09-18T11:05:41Z</time>
      </trkpt>
      <trkpt lat="46.68756" lon="4.94259">
        <ele>182.8</ele>
        <time>2024-09-18T11:05:42Z</time>
      </trkpt>
      <trkpt lat="46.68752" lon="4.94259">
        <ele>182.8</ele>
        <time>2024-09-18T11:05:43Z</time>
      </trkpt>
      <trkpt lat="46.68747" lon="4.94259">
        <ele>183.2</ele>
        <time>2024-09-18T11:05:44Z</time>
      </trkpt>
      <trkpt lat="46.68743" lon="4.94259">
        <ele>183.2</ele>
        <time>2024-09-18T11:05:45Z</time>
      </trkpt>
      <trkpt lat="46.68739" lon="4.94259">
        <ele>182.8</ele>
        <time>2024-09-18T11:05:46Z</time>
      </trkpt>
      <trkpt lat="46.68734" lon="4.94259">
        <ele>182.8</ele>
        <time>2024-09-18T11:05:47Z</time>
      </trkpt>
      <trkpt lat="46.68729" lon="4.94259">
        <ele>182.8</ele>
        <time>2024-09-18T11:05:48Z</time>
      </trkpt>
      <trkpt lat="46.68725" lon="4.94259">
        <ele>182.8</ele>
        <time>2024-09-18T11:05:49Z</time>
      </trkpt>
      <trkpt lat="46.6872" lon="4.94259">
        <ele>182.8</ele>
        <time>2024-09-18T11:05:50Z</time>
      </trkpt>
      <trkpt lat="46.68715" lon="4.94259">
        <ele>182.8</ele>
        <time>2024-09-18T11:05:51Z</time>
      </trkpt>
      <trkpt lat="46.68711" lon="4.9426">
        <ele>182.8</ele>
        <time>2024-09-18T11:05:52Z</time>
      </trkpt>
      <trkpt lat="46.68706" lon="4.94261">
        <ele>182.8</ele>
        <time>2024-09-18T11:05:53Z</time>
      </trkpt>
      <trkpt lat="46.68701" lon="4.94261">
        <ele>182.6</ele>
        <time>2024-09-18T11:05:54Z</time>
      </trkpt>
      <trkpt lat="46.68696" lon="4.94262">
        <ele>182.6</ele>
        <time>2024-09-18T11:05:55Z</time>
      </trkpt>
      <trkpt lat="46.68691" lon="4.94262">
        <ele>182.6</ele>
        <time>2024-09-18T11:05:56Z</time>
      </trkpt>
      <trkpt lat="46.68687" lon="4.94263">
        <ele>182.6</ele>
        <time>2024-09-18T11:05:57Z</time>
      </trkpt>
      <trkpt lat="46.68682" lon="4.94264">
        <ele>182.4</ele>
        <time>2024-09-18T11:05:58Z</time>
      </trkpt>
      <trkpt lat="46.68678" lon="4.94265">
        <ele>182.4</ele>
        <time>2024-09-18T11:05:59Z</time>
      </trkpt>
      <trkpt lat="46.68673" lon="4.94266">
        <ele>182.4</ele>
        <time>2024-09-18T11:06:00Z</time>
      </trkpt>
      <trkpt lat="46.68669" lon="4.94267">
        <ele>182.4</ele>
        <time>2024-09-18T11:06:01Z</time>
      </trkpt>
      <trkpt lat="46.68664" lon="4.94268">
        <ele>182.6</ele>
        <time>2024-09-18T11:06:02Z</time>
      </trkpt>
      <trkpt lat="46.6866" lon="4.94269">
        <ele>182.6</ele>
        <time>2024-09-18T11:06:03Z</time>
      </trkpt>
      <trkpt lat="46.68655" lon="4.9427">
        <ele>182.6</ele>
        <time>2024-09-18T11:06:04Z</time>
      </trkpt>
      <trkpt lat="46.68651" lon="4.94271">
        <ele>182.6</ele>
        <time>2024-09-18T11:06:05Z</time>
      </trkpt>
      <trkpt lat="46.68646" lon="4.94273">
        <ele>182.6</ele>
        <time>2024-09-18T11:06:06Z</time>
      </trkpt>
      <trkpt lat="46.68642" lon="4.94274">
        <ele>182.4</ele>
        <time>2024-09-18T11:06:07Z</time>
      </trkpt>
      <trkpt lat="46.68637" lon="4.94275">
        <ele>182.4</ele>
        <time>2024-09-18T11:06:08Z</time>
      </trkpt>
      <trkpt lat="46.68633" lon="4.94277">
        <ele>182.4</ele>
        <time>2024-09-18T11:06:09Z</time>
      </trkpt>
      <trkpt lat="46.68628" lon="4.94278">
        <ele>182.4</ele>
        <time>2024-09-18T11:06:10Z</time>
      </trkpt>
      <trkpt lat="46.68624" lon="4.9428">
        <ele>182.4</ele>
        <time>2024-09-18T11:06:11Z</time>
      </trkpt>
      <trkpt lat="46.68619" lon="4.94281">
        <ele>182.2</ele>
        <time>2024-09-18T11:06:12Z</time>
      </trkpt>
      <trkpt lat="46.68615" lon="4.94282">
        <ele>182.2</ele>
        <time>2024-09-18T11:06:13Z</time>
      </trkpt>
      <trkpt lat="46.6861" lon="4.94283">
        <ele>182.2</ele>
        <time>2024-09-18T11:06:14Z</time>
      </trkpt>
      <trkpt lat="46.68606" lon="4.94284">
        <ele>182.2</ele>
        <time>2024-09-18T11:06:15Z</time>
      </trkpt>
      <trkpt lat="46.68601" lon="4.94286">
        <ele>182.2</ele>
        <time>2024-09-18T11:06:16Z</time>
      </trkpt>
      <trkpt lat="46.68596" lon="4.94287">
        <ele>182.2</ele>
        <time>2024-09-18T11:06:17Z</time>
      </trkpt>
      <trkpt lat="46.68592" lon="4.94288">
        <ele>182.2</ele>
        <time>2024-09-18T11:06:18Z</time>
      </trkpt>
      <trkpt lat="46.68587" lon="4.9429">
        <ele>182.2</ele>
        <time>2024-09-18T11:06:19Z</time>
      </trkpt>
      <trkpt lat="46.68583" lon="4.94291">
        <ele>182.2</ele>
        <time>2024-09-18T11:06:20Z</time>
      </trkpt>
      <trkpt lat="46.68578" lon="4.94292">
        <ele>182.2</ele>
        <time>2024-09-18T11:06:21Z</time>
      </trkpt>
      <trkpt lat="46.68573" lon="4.94294">
        <ele>182</ele>
        <time>2024-09-18T11:06:22Z</time>
      </trkpt>
      <trkpt lat="46.68569" lon="4.94295">
        <ele>182</ele>
        <time>2024-09-18T11:06:23Z</time>
      </trkpt>
      <trkpt lat="46.68564" lon="4.94296">
        <ele>182.6</ele>
        <time>2024-09-18T11:06:24Z</time>
      </trkpt>
      <trkpt lat="46.68559" lon="4.94297">
        <ele>182.2</ele>
        <time>2024-09-18T11:06:25Z</time>
      </trkpt>
      <trkpt lat="46.68555" lon="4.94298">
        <ele>182.2</ele>
        <time>2024-09-18T11:06:26Z</time>
      </trkpt>
      <trkpt lat="46.68551" lon="4.943">
        <ele>182.2</ele>
        <time>2024-09-18T11:06:27Z</time>
      </trkpt>
      <trkpt lat="46.68546" lon="4.94301">
        <ele>182.2</ele>
        <time>2024-09-18T11:06:28Z</time>
      </trkpt>
      <trkpt lat="46.68542" lon="4.94302">
        <ele>182.2</ele>
        <time>2024-09-18T11:06:29Z</time>
      </trkpt>
      <trkpt lat="46.68537" lon="4.94303">
        <ele>182</ele>
        <time>2024-09-18T11:06:30Z</time>
      </trkpt>
      <trkpt lat="46.68532" lon="4.94305">
        <ele>182</ele>
        <time>2024-09-18T11:06:31Z</time>
      </trkpt>
      <trkpt lat="46.68528" lon="4.94306">
        <ele>182</ele>
        <time>2024-09-18T11:06:32Z</time>
      </trkpt>
      <trkpt lat="46.68523" lon="4.94308">
        <ele>182</ele>
        <time>2024-09-18T11:06:33Z</time>
      </trkpt>
      <trkpt lat="46.68519" lon="4.94309">
        <ele>182</ele>
        <time>2024-09-18T11:06:34Z</time>
      </trkpt>
      <trkpt lat="46.68514" lon="4.9431">
        <ele>182</ele>
        <time>2024-09-18T11:06:35Z</time>
      </trkpt>
      <trkpt lat="46.6851" lon="4.94311">
        <ele>182</ele>
        <time>2024-09-18T11:06:36Z</time>
      </trkpt>
      <trkpt lat="46.68506" lon="4.94312">
        <ele>182</ele>
        <time>2024-09-18T11:06:37Z</time>
      </trkpt>
      <trkpt lat="46.68501" lon="4.94313">
        <ele>182.4</ele>
        <time>2024-09-18T11:06:38Z</time>
      </trkpt>
      <trkpt lat="46.68497" lon="4.94314">
        <ele>182.4</ele>
        <time>2024-09-18T11:06:39Z</time>
      </trkpt>
      <trkpt lat="46.68492" lon="4.94315">
        <ele>182.4</ele>
        <time>2024-09-18T11:06:40Z</time>
      </trkpt>
      <trkpt lat="46.68488" lon="4.94316">
        <ele>182.4</ele>
        <time>2024-09-18T11:06:41Z</time>
      </trkpt>
      <trkpt lat="46.68483" lon="4.94317">
        <ele>182.4</ele>
        <time>2024-09-18T11:06:42Z</time>
      </trkpt>
      <trkpt lat="46.68478" lon="4.94319">
        <ele>182.2</ele>
        <time>2024-09-18T11:06:43Z</time>
      </trkpt>
      <trkpt lat="46.68473" lon="4.9432">
        <ele>182.2</ele>
        <time>2024-09-18T11:06:44Z</time>
      </trkpt>
      <trkpt lat="46.68469" lon="4.94321">
        <ele>182.2</ele>
        <time>2024-09-18T11:06:45Z</time>
      </trkpt>
      <trkpt lat="46.68464" lon="4.94322">
        <ele>182.2</ele>
        <time>2024-09-18T11:06:46Z</time>
      </trkpt>
      <trkpt lat="46.68459" lon="4.94323">
        <ele>182.2</ele>
        <time>2024-09-18T11:06:47Z</time>
      </trkpt>
      <trkpt lat="46.68455" lon="4.94324">
        <ele>182.2</ele>
        <time>2024-09-18T11:06:48Z</time>
      </trkpt>
      <trkpt lat="46.6845" lon="4.94325">
        <ele>182.2</ele>
        <time>2024-09-18T11:06:49Z</time>
      </trkpt>
      <trkpt lat="46.68445" lon="4.94326">
        <ele>182.2</ele>
        <time>2024-09-18T11:06:50Z</time>
      </trkpt>
      <trkpt lat="46.6844" lon="4.94327">
        <ele>182</ele>
        <time>2024-09-18T11:06:51Z</time>
      </trkpt>
      <trkpt lat="46.68435" lon="4.94328">
        <ele>182</ele>
        <time>2024-09-18T11:06:52Z</time>
      </trkpt>
      <trkpt lat="46.6843" lon="4.94329">
        <ele>182</ele>
        <time>2024-09-18T11:06:53Z</time>
      </trkpt>
      <trkpt lat="46.68425" lon="4.9433">
        <ele>182</ele>
        <time>2024-09-18T11:06:54Z</time>
      </trkpt>
      <trkpt lat="46.6842" lon="4.94331">
        <ele>182</ele>
        <time>2024-09-18T11:06:55Z</time>
      </trkpt>
      <trkpt lat="46.68415" lon="4.94331">
        <ele>182</ele>
        <time>2024-09-18T11:06:56Z</time>
      </trkpt>
      <trkpt lat="46.68411" lon="4.94332">
        <ele>182.2</ele>
        <time>2024-09-18T11:06:57Z</time>
      </trkpt>
      <trkpt lat="46.68406" lon="4.94334">
        <ele>182.2</ele>
        <time>2024-09-18T11:06:58Z</time>
      </trkpt>
      <trkpt lat="46.68401" lon="4.94335">
        <ele>182.2</ele>
        <time>2024-09-18T11:06:59Z</time>
      </trkpt>
      <trkpt lat="46.68396" lon="4.94335">
        <ele>182.2</ele>
        <time>2024-09-18T11:07:00Z</time>
      </trkpt>
      <trkpt lat="46.68392" lon="4.94336">
        <ele>182.2</ele>
        <time>2024-09-18T11:07:01Z</time>
      </trkpt>
      <trkpt lat="46.68387" lon="4.94336">
        <ele>182.2</ele>
        <time>2024-09-18T11:07:02Z</time>
      </trkpt>
      <trkpt lat="46.68383" lon="4.94337">
        <ele>182.2</ele>
        <time>2024-09-18T11:07:03Z</time>
      </trkpt>
      <trkpt lat="46.68378" lon="4.94338">
        <ele>182.2</ele>
        <time>2024-09-18T11:07:04Z</time>
      </trkpt>
      <trkpt lat="46.68373" lon="4.94339">
        <ele>182.2</ele>
        <time>2024-09-18T11:07:05Z</time>
      </trkpt>
      <trkpt lat="46.68368" lon="4.94339">
        <ele>182.2</ele>
        <time>2024-09-18T11:07:06Z</time>
      </trkpt>
      <trkpt lat="46.68363" lon="4.9434">
        <ele>182.2</ele>
        <time>2024-09-18T11:07:07Z</time>
      </trkpt>
      <trkpt lat="46.68358" lon="4.94341">
        <ele>182.2</ele>
        <time>2024-09-18T11:07:08Z</time>
      </trkpt>
      <trkpt lat="46.68353" lon="4.94342">
        <ele>182.2</ele>
        <time>2024-09-18T11:07:09Z</time>
      </trkpt>
      <trkpt lat="46.68348" lon="4.94343">
        <ele>182.2</ele>
        <time>2024-09-18T11:07:10Z</time>
      </trkpt>
      <trkpt lat="46.68343" lon="4.94344">
        <ele>182.2</ele>
        <time>2024-09-18T11:07:11Z</time>
      </trkpt>
      <trkpt lat="46.68338" lon="4.94345">
        <ele>182.2</ele>
        <time>2024-09-18T11:07:12Z</time>
      </trkpt>
      <trkpt lat="46.68334" lon="4.94347">
        <ele>182.2</ele>
        <time>2024-09-18T11:07:13Z</time>
      </trkpt>
      <trkpt lat="46.68329" lon="4.94348">
        <ele>182.2</ele>
        <time>2024-09-18T11:07:14Z</time>
      </trkpt>
      <trkpt lat="46.68324" lon="4.9435">
        <ele>182.2</ele>
        <time>2024-09-18T11:07:15Z</time>
      </trkpt>
      <trkpt lat="46.68319" lon="4.94352">
        <ele>182.2</ele>
        <time>2024-09-18T11:07:16Z</time>
      </trkpt>
      <trkpt lat="46.68314" lon="4.94353">
        <ele>182.2</ele>
        <time>2024-09-18T11:07:17Z</time>
      </trkpt>
      <trkpt lat="46.68309" lon="4.94355">
        <ele>182.2</ele>
        <time>2024-09-18T11:07:18Z</time>
      </trkpt>
      <trkpt lat="46.68304" lon="4.94357">
        <ele>182.4</ele>
        <time>2024-09-18T11:07:19Z</time>
      </trkpt>
      <trkpt lat="46.68299" lon="4.94359">
        <ele>182.4</ele>
        <time>2024-09-18T11:07:20Z</time>
      </trkpt>
      <trkpt lat="46.68295" lon="4.9436">
        <ele>182.4</ele>
        <time>2024-09-18T11:07:21Z</time>
      </trkpt>
      <trkpt lat="46.6829" lon="4.94362">
        <ele>182.2</ele>
        <time>2024-09-18T11:07:22Z</time>
      </trkpt>
      <trkpt lat="46.68285" lon="4.94363">
        <ele>182.2</ele>
        <time>2024-09-18T11:07:23Z</time>
      </trkpt>
      <trkpt lat="46.68281" lon="4.94365">
        <ele>182.4</ele>
        <time>2024-09-18T11:07:24Z</time>
      </trkpt>
      <trkpt lat="46.68276" lon="4.94367">
        <ele>182.4</ele>
        <time>2024-09-18T11:07:25Z</time>
      </trkpt>
      <trkpt lat="46.68272" lon="4.94368">
        <ele>182.4</ele>
        <time>2024-09-18T11:07:26Z</time>
      </trkpt>
      <trkpt lat="46.68265" lon="4.94371">
        <ele>182.6</ele>
        <time>2024-09-18T11:07:27Z</time>
      </trkpt>
      <trkpt lat="46.68263" lon="4.94372">
        <ele>182.6</ele>
        <time>2024-09-18T11:07:28Z</time>
      </trkpt>
      <trkpt lat="46.68258" lon="4.94374">
        <ele>182.6</ele>
        <time>2024-09-18T11:07:29Z</time>
      </trkpt>
      <trkpt lat="46.68254" lon="4.94375">
        <ele>182.6</ele>
        <time>2024-09-18T11:07:30Z</time>
      </trkpt>
      <trkpt lat="46.6825" lon="4.94376">
        <ele>182.6</ele>
        <time>2024-09-18T11:07:31Z</time>
      </trkpt>
      <trkpt lat="46.68243" lon="4.94378">
        <ele>182.2</ele>
        <time>2024-09-18T11:07:32Z</time>
      </trkpt>
      <trkpt lat="46.68241" lon="4.94378">
        <ele>182.2</ele>
        <time>2024-09-18T11:07:33Z</time>
      </trkpt>
      <trkpt lat="46.68236" lon="4.94379">
        <ele>182.2</ele>
        <time>2024-09-18T11:07:34Z</time>
      </trkpt>
      <trkpt lat="46.68232" lon="4.94381">
        <ele>182.2</ele>
        <time>2024-09-18T11:07:35Z</time>
      </trkpt>
      <trkpt lat="46.68227" lon="4.94382">
        <ele>182.2</ele>
        <time>2024-09-18T11:07:36Z</time>
      </trkpt>
      <trkpt lat="46.68222" lon="4.94384">
        <ele>182.6</ele>
        <time>2024-09-18T11:07:37Z</time>
      </trkpt>
      <trkpt lat="46.68217" lon="4.94386">
        <ele>182.6</ele>
        <time>2024-09-18T11:07:38Z</time>
      </trkpt>
      <trkpt lat="46.68212" lon="4.94388">
        <ele>182.6</ele>
        <time>2024-09-18T11:07:39Z</time>
      </trkpt>
      <trkpt lat="46.68208" lon="4.9439">
        <ele>182.6</ele>
        <time>2024-09-18T11:07:40Z</time>
      </trkpt>
      <trkpt lat="46.68203" lon="4.94392">
        <ele>182.4</ele>
        <time>2024-09-18T11:07:41Z</time>
      </trkpt>
      <trkpt lat="46.68198" lon="4.94393">
        <ele>182.4</ele>
        <time>2024-09-18T11:07:42Z</time>
      </trkpt>
      <trkpt lat="46.68194" lon="4.94395">
        <ele>182.4</ele>
        <time>2024-09-18T11:07:43Z</time>
      </trkpt>
      <trkpt lat="46.68189" lon="4.94397">
        <ele>182.4</ele>
        <time>2024-09-18T11:07:44Z</time>
      </trkpt>
      <trkpt lat="46.68184" lon="4.94399">
        <ele>182.6</ele>
        <time>2024-09-18T11:07:45Z</time>
      </trkpt>
      <trkpt lat="46.6818" lon="4.94401">
        <ele>182.6</ele>
        <time>2024-09-18T11:07:46Z</time>
      </trkpt>
      <trkpt lat="46.68176" lon="4.94402">
        <ele>182.6</ele>
        <time>2024-09-18T11:07:47Z</time>
      </trkpt>
      <trkpt lat="46.68171" lon="4.94404">
        <ele>182.6</ele>
        <time>2024-09-18T11:07:48Z</time>
      </trkpt>
      <trkpt lat="46.68167" lon="4.94405">
        <ele>182.6</ele>
        <time>2024-09-18T11:07:49Z</time>
      </trkpt>
      <trkpt lat="46.68163" lon="4.94407">
        <ele>182.8</ele>
        <time>2024-09-18T11:07:50Z</time>
      </trkpt>
      <trkpt lat="46.68158" lon="4.94408">
        <ele>182.8</ele>
        <time>2024-09-18T11:07:51Z</time>
      </trkpt>
      <trkpt lat="46.68154" lon="4.94409">
        <ele>182.8</ele>
        <time>2024-09-18T11:07:52Z</time>
      </trkpt>
      <trkpt lat="46.68149" lon="4.9441">
        <ele>182.8</ele>
        <time>2024-09-18T11:07:53Z</time>
      </trkpt>
      <trkpt lat="46.68145" lon="4.94411">
        <ele>182.8</ele>
        <time>2024-09-18T11:07:54Z</time>
      </trkpt>
      <trkpt lat="46.6814" lon="4.94413">
        <ele>182.4</ele>
        <time>2024-09-18T11:07:55Z</time>
      </trkpt>
      <trkpt lat="46.68136" lon="4.94414">
        <ele>182.4</ele>
        <time>2024-09-18T11:07:56Z</time>
      </trkpt>
      <trkpt lat="46.68131" lon="4.94416">
        <ele>182.4</ele>
        <time>2024-09-18T11:07:57Z</time>
      </trkpt>
      <trkpt lat="46.68127" lon="4.94417">
        <ele>182.4</ele>
        <time>2024-09-18T11:07:58Z</time>
      </trkpt>
      <trkpt lat="46.68122" lon="4.94418">
        <ele>182.6</ele>
        <time>2024-09-18T11:07:59Z</time>
      </trkpt>
      <trkpt lat="46.68117" lon="4.9442">
        <ele>182.6</ele>
        <time>2024-09-18T11:08:00Z</time>
      </trkpt>
      <trkpt lat="46.68113" lon="4.94421">
        <ele>182.6</ele>
        <time>2024-09-18T11:08:01Z</time>
      </trkpt>
      <trkpt lat="46.68109" lon="4.94422">
        <ele>182.6</ele>
        <time>2024-09-18T11:08:02Z</time>
      </trkpt>
      <trkpt lat="46.68105" lon="4.94423">
        <ele>182.6</ele>
        <time>2024-09-18T11:08:03Z</time>
      </trkpt>
      <trkpt lat="46.681" lon="4.94425">
        <ele>183</ele>
        <time>2024-09-18T11:08:04Z</time>
      </trkpt>
      <trkpt lat="46.68096" lon="4.94426">
        <ele>183</ele>
        <time>2024-09-18T11:08:05Z</time>
      </trkpt>
      <trkpt lat="46.68091" lon="4.94428">
        <ele>183</ele>
        <time>2024-09-18T11:08:06Z</time>
      </trkpt>
      <trkpt lat="46.68087" lon="4.94429">
        <ele>183</ele>
        <time>2024-09-18T11:08:07Z</time>
      </trkpt>
      <trkpt lat="46.68082" lon="4.9443">
        <ele>182.8</ele>
        <time>2024-09-18T11:08:08Z</time>
      </trkpt>
      <trkpt lat="46.68078" lon="4.94432">
        <ele>182.8</ele>
        <time>2024-09-18T11:08:09Z</time>
      </trkpt>
      <trkpt lat="46.68073" lon="4.94434">
        <ele>182.8</ele>
        <time>2024-09-18T11:08:10Z</time>
      </trkpt>
      <trkpt lat="46.68069" lon="4.94436">
        <ele>182.8</ele>
        <time>2024-09-18T11:08:11Z</time>
      </trkpt>
      <trkpt lat="46.68064" lon="4.94438">
        <ele>182.6</ele>
        <time>2024-09-18T11:08:12Z</time>
      </trkpt>
      <trkpt lat="46.68059" lon="4.9444">
        <ele>182.6</ele>
        <time>2024-09-18T11:08:13Z</time>
      </trkpt>
      <trkpt lat="46.68055" lon="4.94441">
        <ele>182.6</ele>
        <time>2024-09-18T11:08:14Z</time>
      </trkpt>
      <trkpt lat="46.6805" lon="4.94443">
        <ele>183</ele>
        <time>2024-09-18T11:08:15Z</time>
      </trkpt>
      <trkpt lat="46.68045" lon="4.94445">
        <ele>183</ele>
        <time>2024-09-18T11:08:16Z</time>
      </trkpt>
      <trkpt lat="46.68041" lon="4.94447">
        <ele>183</ele>
        <time>2024-09-18T11:08:17Z</time>
      </trkpt>
      <trkpt lat="46.68036" lon="4.94449">
        <ele>182.8</ele>
        <time>2024-09-18T11:08:18Z</time>
      </trkpt>
      <trkpt lat="46.68031" lon="4.94451">
        <ele>182.8</ele>
        <time>2024-09-18T11:08:19Z</time>
      </trkpt>
      <trkpt lat="46.68026" lon="4.94453">
        <ele>183</ele>
        <time>2024-09-18T11:08:20Z</time>
      </trkpt>
      <trkpt lat="46.68021" lon="4.94455">
        <ele>183</ele>
        <time>2024-09-18T11:08:21Z</time>
      </trkpt>
      <trkpt lat="46.68017" lon="4.94457">
        <ele>182.8</ele>
        <time>2024-09-18T11:08:22Z</time>
      </trkpt>
      <trkpt lat="46.68012" lon="4.94459">
        <ele>182.8</ele>
        <time>2024-09-18T11:08:23Z</time>
      </trkpt>
      <trkpt lat="46.68007" lon="4.94461">
        <ele>182.8</ele>
        <time>2024-09-18T11:08:24Z</time>
      </trkpt>
      <trkpt lat="46.68002" lon="4.94464">
        <ele>182.8</ele>
        <time>2024-09-18T11:08:25Z</time>
      </trkpt>
      <trkpt lat="46.67998" lon="4.94466">
        <ele>182.8</ele>
        <time>2024-09-18T11:08:26Z</time>
      </trkpt>
      <trkpt lat="46.67993" lon="4.94469">
        <ele>182.8</ele>
        <time>2024-09-18T11:08:27Z</time>
      </trkpt>
      <trkpt lat="46.67986" lon="4.94473">
        <ele>182.8</ele>
        <time>2024-09-18T11:08:28Z</time>
      </trkpt>
      <trkpt lat="46.67984" lon="4.94474">
        <ele>182.8</ele>
        <time>2024-09-18T11:08:29Z</time>
      </trkpt>
      <trkpt lat="46.67979" lon="4.94476">
        <ele>183</ele>
        <time>2024-09-18T11:08:30Z</time>
      </trkpt>
      <trkpt lat="46.67975" lon="4.94478">
        <ele>183</ele>
        <time>2024-09-18T11:08:31Z</time>
      </trkpt>
      <trkpt lat="46.6797" lon="4.9448">
        <ele>183</ele>
        <time>2024-09-18T11:08:32Z</time>
      </trkpt>
      <trkpt lat="46.67966" lon="4.94483">
        <ele>183</ele>
        <time>2024-09-18T11:08:33Z</time>
      </trkpt>
      <trkpt lat="46.67961" lon="4.94485">
        <ele>183</ele>
        <time>2024-09-18T11:08:34Z</time>
      </trkpt>
      <trkpt lat="46.67956" lon="4.94486">
        <ele>182.8</ele>
        <time>2024-09-18T11:08:35Z</time>
      </trkpt>
      <trkpt lat="46.67952" lon="4.94488">
        <ele>182.8</ele>
        <time>2024-09-18T11:08:36Z</time>
      </trkpt>
      <trkpt lat="46.67947" lon="4.9449">
        <ele>182.8</ele>
        <time>2024-09-18T11:08:37Z</time>
      </trkpt>
      <trkpt lat="46.67943" lon="4.94492">
        <ele>182.8</ele>
        <time>2024-09-18T11:08:38Z</time>
      </trkpt>
      <trkpt lat="46.67938" lon="4.94495">
        <ele>183</ele>
        <time>2024-09-18T11:08:39Z</time>
      </trkpt>
      <trkpt lat="46.67933" lon="4.94497">
        <ele>183</ele>
        <time>2024-09-18T11:08:40Z</time>
      </trkpt>
      <trkpt lat="46.67928" lon="4.945">
        <ele>183</ele>
        <time>2024-09-18T11:08:41Z</time>
      </trkpt>
      <trkpt lat="46.67923" lon="4.94502">
        <ele>183</ele>
        <time>2024-09-18T11:08:42Z</time>
      </trkpt>
      <trkpt lat="46.67918" lon="4.94505">
        <ele>183</ele>
        <time>2024-09-18T11:08:43Z</time>
      </trkpt>
      <trkpt lat="46.67913" lon="4.94507">
        <ele>183.2</ele>
        <time>2024-09-18T11:08:44Z</time>
      </trkpt>
      <trkpt lat="46.67908" lon="4.9451">
        <ele>183.2</ele>
        <time>2024-09-18T11:08:45Z</time>
      </trkpt>
      <trkpt lat="46.67903" lon="4.94513">
        <ele>183.2</ele>
        <time>2024-09-18T11:08:46Z</time>
      </trkpt>
      <trkpt lat="46.67899" lon="4.94516">
        <ele>182.8</ele>
        <time>2024-09-18T11:08:47Z</time>
      </trkpt>
      <trkpt lat="46.67894" lon="4.94518">
        <ele>182.8</ele>
        <time>2024-09-18T11:08:48Z</time>
      </trkpt>
      <trkpt lat="46.67889" lon="4.94521">
        <ele>182.8</ele>
        <time>2024-09-18T11:08:49Z</time>
      </trkpt>
      <trkpt lat="46.67884" lon="4.94524">
        <ele>182.8</ele>
        <time>2024-09-18T11:08:50Z</time>
      </trkpt>
      <trkpt lat="46.6788" lon="4.94526">
        <ele>182.8</ele>
        <time>2024-09-18T11:08:51Z</time>
      </trkpt>
      <trkpt lat="46.67875" lon="4.9453">
        <ele>182.6</ele>
        <time>2024-09-18T11:08:52Z</time>
      </trkpt>
      <trkpt lat="46.6787" lon="4.94533">
        <ele>182.6</ele>
        <time>2024-09-18T11:08:53Z</time>
      </trkpt>
      <trkpt lat="46.67865" lon="4.94536">
        <ele>182.6</ele>
        <time>2024-09-18T11:08:54Z</time>
      </trkpt>
      <trkpt lat="46.67861" lon="4.94538">
        <ele>182.6</ele>
        <time>2024-09-18T11:08:55Z</time>
      </trkpt>
      <trkpt lat="46.67856" lon="4.94541">
        <ele>182.4</ele>
        <time>2024-09-18T11:08:56Z</time>
      </trkpt>
      <trkpt lat="46.67851" lon="4.94543">
        <ele>182.4</ele>
        <time>2024-09-18T11:08:57Z</time>
      </trkpt>
      <trkpt lat="46.67846" lon="4.94545">
        <ele>182.4</ele>
        <time>2024-09-18T11:08:58Z</time>
      </trkpt>
      <trkpt lat="46.67841" lon="4.94547">
        <ele>182.4</ele>
        <time>2024-09-18T11:08:59Z</time>
      </trkpt>
      <trkpt lat="46.67836" lon="4.9455">
        <ele>182.4</ele>
        <time>2024-09-18T11:09:00Z</time>
      </trkpt>
      <trkpt lat="46.67831" lon="4.94551">
        <ele>182.4</ele>
        <time>2024-09-18T11:09:01Z</time>
      </trkpt>
      <trkpt lat="46.67827" lon="4.94553">
        <ele>182.6</ele>
        <time>2024-09-18T11:09:02Z</time>
      </trkpt>
      <trkpt lat="46.67822" lon="4.94555">
        <ele>182.6</ele>
        <time>2024-09-18T11:09:03Z</time>
      </trkpt>
      <trkpt lat="46.67817" lon="4.94557">
        <ele>182.6</ele>
        <time>2024-09-18T11:09:04Z</time>
      </trkpt>
      <trkpt lat="46.67812" lon="4.94559">
        <ele>182.6</ele>
        <time>2024-09-18T11:09:05Z</time>
      </trkpt>
      <trkpt lat="46.67808" lon="4.94561">
        <ele>182.6</ele>
        <time>2024-09-18T11:09:06Z</time>
      </trkpt>
      <trkpt lat="46.67803" lon="4.94563">
        <ele>183</ele>
        <time>2024-09-18T11:09:07Z</time>
      </trkpt>
      <trkpt lat="46.67798" lon="4.94564">
        <ele>183</ele>
        <time>2024-09-18T11:09:08Z</time>
      </trkpt>
      <trkpt lat="46.67794" lon="4.94566">
        <ele>183</ele>
        <time>2024-09-18T11:09:09Z</time>
      </trkpt>
      <trkpt lat="46.67789" lon="4.94568">
        <ele>182.6</ele>
        <time>2024-09-18T11:09:10Z</time>
      </trkpt>
      <trkpt lat="46.67785" lon="4.94569">
        <ele>182.4</ele>
        <time>2024-09-18T11:09:11Z</time>
      </trkpt>
      <trkpt lat="46.67781" lon="4.94571">
        <ele>182.4</ele>
        <time>2024-09-18T11:09:12Z</time>
      </trkpt>
      <trkpt lat="46.67777" lon="4.94573">
        <ele>182.4</ele>
        <time>2024-09-18T11:09:13Z</time>
      </trkpt>
      <trkpt lat="46.67774" lon="4.94574">
        <ele>182.4</ele>
        <time>2024-09-18T11:09:14Z</time>
      </trkpt>
      <trkpt lat="46.67771" lon="4.94575">
        <ele>182.4</ele>
        <time>2024-09-18T11:09:15Z</time>
      </trkpt>
      <trkpt lat="46.67768" lon="4.94576">
        <ele>182.4</ele>
        <time>2024-09-18T11:09:16Z</time>
      </trkpt>
      <trkpt lat="46.67766" lon="4.94576">
        <ele>182.4</ele>
        <time>2024-09-18T11:09:17Z</time>
      </trkpt>
      <trkpt lat="46.67765" lon="4.94576">
        <ele>182.4</ele>
        <time>2024-09-18T11:09:18Z</time>
      </trkpt>
      <trkpt lat="46.67764" lon="4.94577">
        <ele>182.4</ele>
        <time>2024-09-18T11:09:19Z</time>
      </trkpt>
      <trkpt lat="46.67763" lon="4.94577">
        <ele>182.4</ele>
        <time>2024-09-18T11:09:20Z</time>
      </trkpt>
      <trkpt lat="46.67759" lon="4.94578">
        <ele>182.4</ele>
        <time>2024-09-18T11:10:43Z</time>
      </trkpt>
      <trkpt lat="46.67757" lon="4.94579">
        <ele>182.4</ele>
        <time>2024-09-18T11:10:44Z</time>
      </trkpt>
      <trkpt lat="46.67755" lon="4.9458">
        <ele>182.4</ele>
        <time>2024-09-18T11:10:45Z</time>
      </trkpt>
      <trkpt lat="46.67752" lon="4.94581">
        <ele>182.4</ele>
        <time>2024-09-18T11:10:46Z</time>
      </trkpt>
      <trkpt lat="46.67749" lon="4.94583">
        <ele>182.2</ele>
        <time>2024-09-18T11:10:47Z</time>
      </trkpt>
      <trkpt lat="46.67746" lon="4.94584">
        <ele>182.2</ele>
        <time>2024-09-18T11:10:48Z</time>
      </trkpt>
      <trkpt lat="46.67743" lon="4.94585">
        <ele>182.2</ele>
        <time>2024-09-18T11:10:49Z</time>
      </trkpt>
      <trkpt lat="46.6774" lon="4.94586">
        <ele>182.2</ele>
        <time>2024-09-18T11:10:50Z</time>
      </trkpt>
      <trkpt lat="46.67736" lon="4.94588">
        <ele>182.6</ele>
        <time>2024-09-18T11:10:51Z</time>
      </trkpt>
      <trkpt lat="46.67733" lon="4.94589">
        <ele>182.4</ele>
        <time>2024-09-18T11:10:52Z</time>
      </trkpt>
      <trkpt lat="46.67729" lon="4.94591">
        <ele>182.4</ele>
        <time>2024-09-18T11:10:53Z</time>
      </trkpt>
      <trkpt lat="46.67726" lon="4.94592">
        <ele>182.4</ele>
        <time>2024-09-18T11:10:54Z</time>
      </trkpt>
      <trkpt lat="46.67722" lon="4.94593">
        <ele>182.4</ele>
        <time>2024-09-18T11:10:55Z</time>
      </trkpt>
      <trkpt lat="46.67719" lon="4.94595">
        <ele>182.4</ele>
        <time>2024-09-18T11:10:56Z</time>
      </trkpt>
      <trkpt lat="46.67715" lon="4.94596">
        <ele>182.4</ele>
        <time>2024-09-18T11:10:57Z</time>
      </trkpt>
      <trkpt lat="46.67711" lon="4.94597">
        <ele>182.4</ele>
        <time>2024-09-18T11:10:58Z</time>
      </trkpt>
      <trkpt lat="46.67707" lon="4.94598">
        <ele>182.4</ele>
        <time>2024-09-18T11:10:59Z</time>
      </trkpt>
      <trkpt lat="46.67704" lon="4.946">
        <ele>182.4</ele>
        <time>2024-09-18T11:11:00Z</time>
      </trkpt>
      <trkpt lat="46.677" lon="4.94601">
        <ele>182.4</ele>
        <time>2024-09-18T11:11:01Z</time>
      </trkpt>
      <trkpt lat="46.67696" lon="4.94602">
        <ele>182.8</ele>
        <time>2024-09-18T11:11:02Z</time>
      </trkpt>
      <trkpt lat="46.67692" lon="4.94603">
        <ele>182.8</ele>
        <time>2024-09-18T11:11:03Z</time>
      </trkpt>
      <trkpt lat="46.67687" lon="4.94605">
        <ele>182.8</ele>
        <time>2024-09-18T11:11:04Z</time>
      </trkpt>
      <trkpt lat="46.67683" lon="4.94606">
        <ele>182.8</ele>
        <time>2024-09-18T11:11:05Z</time>
      </trkpt>
      <trkpt lat="46.67679" lon="4.94607">
        <ele>182.6</ele>
        <time>2024-09-18T11:11:06Z</time>
      </trkpt>
      <trkpt lat="46.67675" lon="4.94607">
        <ele>182.6</ele>
        <time>2024-09-18T11:11:07Z</time>
      </trkpt>
      <trkpt lat="46.6767" lon="4.94608">
        <ele>182.6</ele>
        <time>2024-09-18T11:11:08Z</time>
      </trkpt>
      <trkpt lat="46.67666" lon="4.94609">
        <ele>182.6</ele>
        <time>2024-09-18T11:11:09Z</time>
      </trkpt>
      <trkpt lat="46.67662" lon="4.9461">
        <ele>182.6</ele>
        <time>2024-09-18T11:11:10Z</time>
      </trkpt>
      <trkpt lat="46.67657" lon="4.94611">
        <ele>183</ele>
        <time>2024-09-18T11:11:11Z</time>
      </trkpt>
      <trkpt lat="46.67653" lon="4.94612">
        <ele>183</ele>
        <time>2024-09-18T11:11:12Z</time>
      </trkpt>
      <trkpt lat="46.67649" lon="4.94613">
        <ele>183</ele>
        <time>2024-09-18T11:11:13Z</time>
      </trkpt>
      <trkpt lat="46.67645" lon="4.94615">
        <ele>183</ele>
        <time>2024-09-18T11:11:14Z</time>
      </trkpt>
      <trkpt lat="46.6764" lon="4.94616">
        <ele>182.8</ele>
        <time>2024-09-18T11:11:15Z</time>
      </trkpt>
      <trkpt lat="46.67636" lon="4.94617">
        <ele>182.8</ele>
        <time>2024-09-18T11:11:16Z</time>
      </trkpt>
      <trkpt lat="46.67631" lon="4.94618">
        <ele>182.8</ele>
        <time>2024-09-18T11:11:17Z</time>
      </trkpt>
      <trkpt lat="46.67627" lon="4.94619">
        <ele>182.8</ele>
        <time>2024-09-18T11:11:18Z</time>
      </trkpt>
      <trkpt lat="46.67622" lon="4.94621">
        <ele>183</ele>
        <time>2024-09-18T11:11:19Z</time>
      </trkpt>
      <trkpt lat="46.67618" lon="4.94622">
        <ele>183</ele>
        <time>2024-09-18T11:11:20Z</time>
      </trkpt>
      <trkpt lat="46.67613" lon="4.94623">
        <ele>183</ele>
        <time>2024-09-18T11:11:21Z</time>
      </trkpt>
      <trkpt lat="46.67609" lon="4.94624">
        <ele>183</ele>
        <time>2024-09-18T11:11:22Z</time>
      </trkpt>
      <trkpt lat="46.67604" lon="4.94626">
        <ele>183</ele>
        <time>2024-09-18T11:11:23Z</time>
      </trkpt>
      <trkpt lat="46.676" lon="4.94627">
        <ele>182.6</ele>
        <time>2024-09-18T11:11:24Z</time>
      </trkpt>
      <trkpt lat="46.67595" lon="4.94628">
        <ele>182.6</ele>
        <time>2024-09-18T11:11:25Z</time>
      </trkpt>
      <trkpt lat="46.67591" lon="4.94629">
        <ele>182.6</ele>
        <time>2024-09-18T11:11:26Z</time>
      </trkpt>
      <trkpt lat="46.67586" lon="4.94631">
        <ele>182.8</ele>
        <time>2024-09-18T11:11:27Z</time>
      </trkpt>
      <trkpt lat="46.67581" lon="4.94632">
        <ele>183.2</ele>
        <time>2024-09-18T11:11:28Z</time>
      </trkpt>
      <trkpt lat="46.67577" lon="4.94633">
        <ele>183.2</ele>
        <time>2024-09-18T11:11:29Z</time>
      </trkpt>
      <trkpt lat="46.67572" lon="4.94634">
        <ele>183.2</ele>
        <time>2024-09-18T11:11:30Z</time>
      </trkpt>
      <trkpt lat="46.67568" lon="4.94635">
        <ele>183.2</ele>
        <time>2024-09-18T11:11:31Z</time>
      </trkpt>
      <trkpt lat="46.67563" lon="4.94637">
        <ele>183</ele>
        <time>2024-09-18T11:11:32Z</time>
      </trkpt>
      <trkpt lat="46.67559" lon="4.94638">
        <ele>183</ele>
        <time>2024-09-18T11:11:33Z</time>
      </trkpt>
      <trkpt lat="46.67554" lon="4.94639">
        <ele>183</ele>
        <time>2024-09-18T11:11:34Z</time>
      </trkpt>
      <trkpt lat="46.6755" lon="4.9464">
        <ele>183</ele>
        <time>2024-09-18T11:11:35Z</time>
      </trkpt>
      <trkpt lat="46.67546" lon="4.94641">
        <ele>183</ele>
        <time>2024-09-18T11:11:36Z</time>
      </trkpt>
      <trkpt lat="46.67541" lon="4.94642">
        <ele>183</ele>
        <time>2024-09-18T11:11:37Z</time>
      </trkpt>
      <trkpt lat="46.67537" lon="4.94644">
        <ele>183</ele>
        <time>2024-09-18T11:11:38Z</time>
      </trkpt>
      <trkpt lat="46.67533" lon="4.94645">
        <ele>183</ele>
        <time>2024-09-18T11:11:39Z</time>
      </trkpt>
      <trkpt lat="46.67529" lon="4.94647">
        <ele>183</ele>
        <time>2024-09-18T11:11:40Z</time>
      </trkpt>
      <trkpt lat="46.67525" lon="4.94648">
        <ele>183</ele>
        <time>2024-09-18T11:11:41Z</time>
      </trkpt>
      <trkpt lat="46.67521" lon="4.94649">
        <ele>183</ele>
        <time>2024-09-18T11:11:42Z</time>
      </trkpt>
      <trkpt lat="46.67517" lon="4.94651">
        <ele>183</ele>
        <time>2024-09-18T11:11:43Z</time>
      </trkpt>
      <trkpt lat="46.67512" lon="4.94651">
        <ele>183</ele>
        <time>2024-09-18T11:11:44Z</time>
      </trkpt>
      <trkpt lat="46.67508" lon="4.94652">
        <ele>183.2</ele>
        <time>2024-09-18T11:11:45Z</time>
      </trkpt>
      <trkpt lat="46.67503" lon="4.94653">
        <ele>183.4</ele>
        <time>2024-09-18T11:11:46Z</time>
      </trkpt>
      <trkpt lat="46.67499" lon="4.94654">
        <ele>183.4</ele>
        <time>2024-09-18T11:11:47Z</time>
      </trkpt>
      <trkpt lat="46.67495" lon="4.94655">
        <ele>183.4</ele>
        <time>2024-09-18T11:11:48Z</time>
      </trkpt>
      <trkpt lat="46.67491" lon="4.94657">
        <ele>183.4</ele>
        <time>2024-09-18T11:11:49Z</time>
      </trkpt>
      <trkpt lat="46.67486" lon="4.94658">
        <ele>183.4</ele>
        <time>2024-09-18T11:11:50Z</time>
      </trkpt>
      <trkpt lat="46.67482" lon="4.94659">
        <ele>183.6</ele>
        <time>2024-09-18T11:11:51Z</time>
      </trkpt>
      <trkpt lat="46.67478" lon="4.9466">
        <ele>183.6</ele>
        <time>2024-09-18T11:11:52Z</time>
      </trkpt>
      <trkpt lat="46.67473" lon="4.94661">
        <ele>183.6</ele>
        <time>2024-09-18T11:11:53Z</time>
      </trkpt>
      <trkpt lat="46.67469" lon="4.94663">
        <ele>183.6</ele>
        <time>2024-09-18T11:11:54Z</time>
      </trkpt>
      <trkpt lat="46.67465" lon="4.94664">
        <ele>183</ele>
        <time>2024-09-18T11:11:55Z</time>
      </trkpt>
      <trkpt lat="46.6746" lon="4.94665">
        <ele>183</ele>
        <time>2024-09-18T11:11:56Z</time>
      </trkpt>
      <trkpt lat="46.67456" lon="4.94667">
        <ele>183</ele>
        <time>2024-09-18T11:11:57Z</time>
      </trkpt>
      <trkpt lat="46.67451" lon="4.94668">
        <ele>183</ele>
        <time>2024-09-18T11:11:58Z</time>
      </trkpt>
      <trkpt lat="46.67447" lon="4.94669">
        <ele>183.6</ele>
        <time>2024-09-18T11:11:59Z</time>
      </trkpt>
      <trkpt lat="46.67442" lon="4.94671">
        <ele>183.6</ele>
        <time>2024-09-18T11:12:00Z</time>
      </trkpt>
      <trkpt lat="46.67438" lon="4.94673">
        <ele>183.6</ele>
        <time>2024-09-18T11:12:01Z</time>
      </trkpt>
      <trkpt lat="46.67433" lon="4.94674">
        <ele>183.6</ele>
        <time>2024-09-18T11:12:02Z</time>
      </trkpt>
      <trkpt lat="46.67428" lon="4.94675">
        <ele>183.6</ele>
        <time>2024-09-18T11:12:03Z</time>
      </trkpt>
      <trkpt lat="46.67424" lon="4.94676">
        <ele>183.6</ele>
        <time>2024-09-18T11:12:04Z</time>
      </trkpt>
      <trkpt lat="46.67419" lon="4.94678">
        <ele>183.6</ele>
        <time>2024-09-18T11:12:05Z</time>
      </trkpt>
      <trkpt lat="46.67415" lon="4.9468">
        <ele>183.6</ele>
        <time>2024-09-18T11:12:06Z</time>
      </trkpt>
      <trkpt lat="46.67411" lon="4.94681">
        <ele>183.6</ele>
        <time>2024-09-18T11:12:07Z</time>
      </trkpt>
      <trkpt lat="46.67406" lon="4.94682">
        <ele>183.4</ele>
        <time>2024-09-18T11:12:08Z</time>
      </trkpt>
      <trkpt lat="46.67402" lon="4.94683">
        <ele>183.4</ele>
        <time>2024-09-18T11:12:09Z</time>
      </trkpt>
      <trkpt lat="46.67397" lon="4.94684">
        <ele>183.4</ele>
        <time>2024-09-18T11:12:10Z</time>
      </trkpt>
      <trkpt lat="46.67393" lon="4.94685">
        <ele>183.4</ele>
        <time>2024-09-18T11:12:11Z</time>
      </trkpt>
      <trkpt lat="46.67388" lon="4.94687">
        <ele>183.4</ele>
        <time>2024-09-18T11:12:12Z</time>
      </trkpt>
      <trkpt lat="46.67384" lon="4.94688">
        <ele>183.2</ele>
        <time>2024-09-18T11:12:13Z</time>
      </trkpt>
      <trkpt lat="46.67379" lon="4.94689">
        <ele>183.2</ele>
        <time>2024-09-18T11:12:14Z</time>
      </trkpt>
      <trkpt lat="46.67375" lon="4.94689">
        <ele>183.2</ele>
        <time>2024-09-18T11:12:15Z</time>
      </trkpt>
      <trkpt lat="46.6737" lon="4.9469">
        <ele>183.4</ele>
        <time>2024-09-18T11:12:16Z</time>
      </trkpt>
      <trkpt lat="46.67366" lon="4.9469">
        <ele>183</ele>
        <time>2024-09-18T11:12:17Z</time>
      </trkpt>
      <trkpt lat="46.67361" lon="4.94691">
        <ele>183</ele>
        <time>2024-09-18T11:12:18Z</time>
      </trkpt>
      <trkpt lat="46.67357" lon="4.94693">
        <ele>183</ele>
        <time>2024-09-18T11:12:19Z</time>
      </trkpt>
      <trkpt lat="46.67352" lon="4.94693">
        <ele>183.6</ele>
        <time>2024-09-18T11:12:20Z</time>
      </trkpt>
      <trkpt lat="46.67347" lon="4.94694">
        <ele>183.4</ele>
        <time>2024-09-18T11:12:21Z</time>
      </trkpt>
      <trkpt lat="46.67343" lon="4.94694">
        <ele>183.4</ele>
        <time>2024-09-18T11:12:22Z</time>
      </trkpt>
      <trkpt lat="46.67338" lon="4.94695">
        <ele>183.4</ele>
        <time>2024-09-18T11:12:23Z</time>
      </trkpt>
      <trkpt lat="46.67333" lon="4.94697">
        <ele>183.4</ele>
        <time>2024-09-18T11:12:24Z</time>
      </trkpt>
      <trkpt lat="46.67329" lon="4.94698">
        <ele>183.4</ele>
        <time>2024-09-18T11:12:25Z</time>
      </trkpt>
      <trkpt lat="46.67324" lon="4.94701">
        <ele>183</ele>
        <time>2024-09-18T11:12:26Z</time>
      </trkpt>
      <trkpt lat="46.6732" lon="4.94703">
        <ele>183.2</ele>
        <time>2024-09-18T11:12:27Z</time>
      </trkpt>
      <trkpt lat="46.67316" lon="4.94705">
        <ele>183.2</ele>
        <time>2024-09-18T11:12:28Z</time>
      </trkpt>
      <trkpt lat="46.67312" lon="4.94708">
        <ele>183.2</ele>
        <time>2024-09-18T11:12:29Z</time>
      </trkpt>
      <trkpt lat="46.67307" lon="4.94709">
        <ele>183.2</ele>
        <time>2024-09-18T11:12:30Z</time>
      </trkpt>
      <trkpt lat="46.67303" lon="4.94711">
        <ele>183.2</ele>
        <time>2024-09-18T11:12:31Z</time>
      </trkpt>
      <trkpt lat="46.67299" lon="4.94712">
        <ele>183.4</ele>
        <time>2024-09-18T11:12:32Z</time>
      </trkpt>
      <trkpt lat="46.67294" lon="4.94713">
        <ele>183.4</ele>
        <time>2024-09-18T11:12:33Z</time>
      </trkpt>
      <trkpt lat="46.67289" lon="4.94714">
        <ele>182.8</ele>
        <time>2024-09-18T11:12:34Z</time>
      </trkpt>
      <trkpt lat="46.67284" lon="4.94715">
        <ele>182.8</ele>
        <time>2024-09-18T11:12:35Z</time>
      </trkpt>
      <trkpt lat="46.67279" lon="4.94716">
        <ele>183</ele>
        <time>2024-09-18T11:12:36Z</time>
      </trkpt>
      <trkpt lat="46.67275" lon="4.94717">
        <ele>183</ele>
        <time>2024-09-18T11:12:37Z</time>
      </trkpt>
      <trkpt lat="46.6727" lon="4.94718">
        <ele>183</ele>
        <time>2024-09-18T11:12:38Z</time>
      </trkpt>
      <trkpt lat="46.67265" lon="4.94719">
        <ele>183.2</ele>
        <time>2024-09-18T11:12:39Z</time>
      </trkpt>
      <trkpt lat="46.6726" lon="4.9472">
        <ele>183</ele>
        <time>2024-09-18T11:12:40Z</time>
      </trkpt>
      <trkpt lat="46.67256" lon="4.94721">
        <ele>183</ele>
        <time>2024-09-18T11:12:41Z</time>
      </trkpt>
      <trkpt lat="46.67252" lon="4.94721">
        <ele>183</ele>
        <time>2024-09-18T11:12:42Z</time>
      </trkpt>
      <trkpt lat="46.67247" lon="4.94722">
        <ele>182.6</ele>
        <time>2024-09-18T11:12:43Z</time>
      </trkpt>
      <trkpt lat="46.67243" lon="4.94723">
        <ele>182.8</ele>
        <time>2024-09-18T11:12:44Z</time>
      </trkpt>
      <trkpt lat="46.67238" lon="4.94723">
        <ele>182.8</ele>
        <time>2024-09-18T11:12:45Z</time>
      </trkpt>
      <trkpt lat="46.67233" lon="4.94724">
        <ele>182.8</ele>
        <time>2024-09-18T11:12:46Z</time>
      </trkpt>
      <trkpt lat="46.67229" lon="4.94724">
        <ele>182.8</ele>
        <time>2024-09-18T11:12:47Z</time>
      </trkpt>
      <trkpt lat="46.67224" lon="4.94724">
        <ele>182.8</ele>
        <time>2024-09-18T11:12:48Z</time>
      </trkpt>
      <trkpt lat="46.67219" lon="4.94725">
        <ele>182.6</ele>
        <time>2024-09-18T11:12:49Z</time>
      </trkpt>
      <trkpt lat="46.67214" lon="4.94726">
        <ele>182.6</ele>
        <time>2024-09-18T11:12:50Z</time>
      </trkpt>
      <trkpt lat="46.6721" lon="4.94727">
        <ele>182.6</ele>
        <time>2024-09-18T11:12:51Z</time>
      </trkpt>
      <trkpt lat="46.67205" lon="4.94728">
        <ele>182.6</ele>
        <time>2024-09-18T11:12:52Z</time>
      </trkpt>
      <trkpt lat="46.672" lon="4.94729">
        <ele>182.6</ele>
        <time>2024-09-18T11:12:53Z</time>
      </trkpt>
      <trkpt lat="46.67195" lon="4.9473">
        <ele>182.6</ele>
        <time>2024-09-18T11:12:54Z</time>
      </trkpt>
      <trkpt lat="46.67191" lon="4.94731">
        <ele>182.6</ele>
        <time>2024-09-18T11:12:55Z</time>
      </trkpt>
      <trkpt lat="46.67186" lon="4.94732">
        <ele>182.6</ele>
        <time>2024-09-18T11:12:56Z</time>
      </trkpt>
      <trkpt lat="46.67181" lon="4.94733">
        <ele>182.8</ele>
        <time>2024-09-18T11:12:57Z</time>
      </trkpt>
      <trkpt lat="46.67177" lon="4.94734">
        <ele>182.8</ele>
        <time>2024-09-18T11:12:58Z</time>
      </trkpt>
      <trkpt lat="46.67172" lon="4.94735">
        <ele>182.8</ele>
        <time>2024-09-18T11:12:59Z</time>
      </trkpt>
      <trkpt lat="46.67167" lon="4.94735">
        <ele>182.8</ele>
        <time>2024-09-18T11:13:00Z</time>
      </trkpt>
      <trkpt lat="46.67162" lon="4.94736">
        <ele>182.8</ele>
        <time>2024-09-18T11:13:01Z</time>
      </trkpt>
      <trkpt lat="46.67157" lon="4.94736">
        <ele>182.8</ele>
        <time>2024-09-18T11:13:02Z</time>
      </trkpt>
      <trkpt lat="46.67153" lon="4.94736">
        <ele>182.8</ele>
        <time>2024-09-18T11:13:03Z</time>
      </trkpt>
      <trkpt lat="46.67148" lon="4.94736">
        <ele>182.8</ele>
        <time>2024-09-18T11:13:04Z</time>
      </trkpt>
      <trkpt lat="46.67143" lon="4.94736">
        <ele>182.8</ele>
        <time>2024-09-18T11:13:05Z</time>
      </trkpt>
      <trkpt lat="46.67139" lon="4.94737">
        <ele>183</ele>
        <time>2024-09-18T11:13:06Z</time>
      </trkpt>
      <trkpt lat="46.67134" lon="4.94738">
        <ele>183</ele>
        <time>2024-09-18T11:13:07Z</time>
      </trkpt>
      <trkpt lat="46.67129" lon="4.94739">
        <ele>183</ele>
        <time>2024-09-18T11:13:08Z</time>
      </trkpt>
      <trkpt lat="46.67125" lon="4.94739">
        <ele>183</ele>
        <time>2024-09-18T11:13:09Z</time>
      </trkpt>
      <trkpt lat="46.6712" lon="4.9474">
        <ele>183</ele>
        <time>2024-09-18T11:13:10Z</time>
      </trkpt>
      <trkpt lat="46.67116" lon="4.94741">
        <ele>182.8</ele>
        <time>2024-09-18T11:13:11Z</time>
      </trkpt>
      <trkpt lat="46.67111" lon="4.94742">
        <ele>182.8</ele>
        <time>2024-09-18T11:13:12Z</time>
      </trkpt>
      <trkpt lat="46.67107" lon="4.94743">
        <ele>182.8</ele>
        <time>2024-09-18T11:13:13Z</time>
      </trkpt>
      <trkpt lat="46.67102" lon="4.94744">
        <ele>182.8</ele>
        <time>2024-09-18T11:13:14Z</time>
      </trkpt>
      <trkpt lat="46.67097" lon="4.94745">
        <ele>183</ele>
        <time>2024-09-18T11:13:15Z</time>
      </trkpt>
      <trkpt lat="46.67092" lon="4.94747">
        <ele>182.8</ele>
        <time>2024-09-18T11:13:16Z</time>
      </trkpt>
      <trkpt lat="46.67088" lon="4.94748">
        <ele>182.8</ele>
        <time>2024-09-18T11:13:17Z</time>
      </trkpt>
      <trkpt lat="46.67083" lon="4.9475">
        <ele>182.8</ele>
        <time>2024-09-18T11:13:18Z</time>
      </trkpt>
      <trkpt lat="46.67078" lon="4.94751">
        <ele>182.8</ele>
        <time>2024-09-18T11:13:19Z</time>
      </trkpt>
      <trkpt lat="46.67073" lon="4.94751">
        <ele>183.2</ele>
        <time>2024-09-18T11:13:20Z</time>
      </trkpt>
      <trkpt lat="46.67068" lon="4.94752">
        <ele>183.2</ele>
        <time>2024-09-18T11:13:21Z</time>
      </trkpt>
      <trkpt lat="46.67063" lon="4.94753">
        <ele>183.2</ele>
        <time>2024-09-18T11:13:22Z</time>
      </trkpt>
      <trkpt lat="46.67058" lon="4.94753">
        <ele>182.6</ele>
        <time>2024-09-18T11:13:23Z</time>
      </trkpt>
      <trkpt lat="46.67053" lon="4.94754">
        <ele>182.8</ele>
        <time>2024-09-18T11:13:24Z</time>
      </trkpt>
      <trkpt lat="46.67048" lon="4.94755">
        <ele>182.8</ele>
        <time>2024-09-18T11:13:25Z</time>
      </trkpt>
      <trkpt lat="46.67043" lon="4.94755">
        <ele>182.8</ele>
        <time>2024-09-18T11:13:26Z</time>
      </trkpt>
      <trkpt lat="46.67039" lon="4.94756">
        <ele>182.8</ele>
        <time>2024-09-18T11:13:27Z</time>
      </trkpt>
      <trkpt lat="46.67034" lon="4.94756">
        <ele>182.4</ele>
        <time>2024-09-18T11:13:28Z</time>
      </trkpt>
      <trkpt lat="46.67029" lon="4.94756">
        <ele>183</ele>
        <time>2024-09-18T11:13:29Z</time>
      </trkpt>
      <trkpt lat="46.67024" lon="4.94757">
        <ele>183</ele>
        <time>2024-09-18T11:13:30Z</time>
      </trkpt>
      <trkpt lat="46.67019" lon="4.94757">
        <ele>183</ele>
        <time>2024-09-18T11:13:31Z</time>
      </trkpt>
      <trkpt lat="46.67014" lon="4.94758">
        <ele>182.8</ele>
        <time>2024-09-18T11:13:32Z</time>
      </trkpt>
      <trkpt lat="46.6701" lon="4.94758">
        <ele>182.8</ele>
        <time>2024-09-18T11:13:33Z</time>
      </trkpt>
      <trkpt lat="46.67005" lon="4.94759">
        <ele>182.8</ele>
        <time>2024-09-18T11:13:34Z</time>
      </trkpt>
      <trkpt lat="46.67" lon="4.9476">
        <ele>182.8</ele>
        <time>2024-09-18T11:13:35Z</time>
      </trkpt>
      <trkpt lat="46.66995" lon="4.9476">
        <ele>182.8</ele>
        <time>2024-09-18T11:13:36Z</time>
      </trkpt>
      <trkpt lat="46.66991" lon="4.94761">
        <ele>182.8</ele>
        <time>2024-09-18T11:13:37Z</time>
      </trkpt>
      <trkpt lat="46.66986" lon="4.94761">
        <ele>183</ele>
        <time>2024-09-18T11:13:38Z</time>
      </trkpt>
      <trkpt lat="46.66981" lon="4.94761">
        <ele>183</ele>
        <time>2024-09-18T11:13:39Z</time>
      </trkpt>
      <trkpt lat="46.66976" lon="4.94761">
        <ele>183</ele>
        <time>2024-09-18T11:13:40Z</time>
      </trkpt>
      <trkpt lat="46.66972" lon="4.94762">
        <ele>183</ele>
        <time>2024-09-18T11:13:41Z</time>
      </trkpt>
      <trkpt lat="46.66967" lon="4.94763">
        <ele>183</ele>
        <time>2024-09-18T11:13:42Z</time>
      </trkpt>
      <trkpt lat="46.66962" lon="4.94763">
        <ele>183.2</ele>
        <time>2024-09-18T11:13:43Z</time>
      </trkpt>
      <trkpt lat="46.66958" lon="4.94763">
        <ele>183.2</ele>
        <time>2024-09-18T11:13:44Z</time>
      </trkpt>
      <trkpt lat="46.66953" lon="4.94764">
        <ele>183.2</ele>
        <time>2024-09-18T11:13:45Z</time>
      </trkpt>
      <trkpt lat="46.66948" lon="4.94765">
        <ele>183.2</ele>
        <time>2024-09-18T11:13:46Z</time>
      </trkpt>
      <trkpt lat="46.66944" lon="4.94765">
        <ele>183.2</ele>
        <time>2024-09-18T11:13:47Z</time>
      </trkpt>
      <trkpt lat="46.66939" lon="4.94766">
        <ele>183.2</ele>
        <time>2024-09-18T11:13:48Z</time>
      </trkpt>
      <trkpt lat="46.66935" lon="4.94766">
        <ele>183.2</ele>
        <time>2024-09-18T11:13:49Z</time>
      </trkpt>
      <trkpt lat="46.6693" lon="4.94767">
        <ele>183.2</ele>
        <time>2024-09-18T11:13:50Z</time>
      </trkpt>
      <trkpt lat="46.66925" lon="4.94768">
        <ele>182.8</ele>
        <time>2024-09-18T11:13:51Z</time>
      </trkpt>
      <trkpt lat="46.66921" lon="4.94769">
        <ele>182.8</ele>
        <time>2024-09-18T11:13:52Z</time>
      </trkpt>
      <trkpt lat="46.66916" lon="4.94769">
        <ele>182.8</ele>
        <time>2024-09-18T11:13:53Z</time>
      </trkpt>
      <trkpt lat="46.66912" lon="4.94769">
        <ele>182.8</ele>
        <time>2024-09-18T11:13:54Z</time>
      </trkpt>
      <trkpt lat="46.66907" lon="4.9477">
        <ele>182.8</ele>
        <time>2024-09-18T11:13:55Z</time>
      </trkpt>
      <trkpt lat="46.66903" lon="4.9477">
        <ele>182.8</ele>
        <time>2024-09-18T11:13:56Z</time>
      </trkpt>
      <trkpt lat="46.66898" lon="4.94771">
        <ele>182.8</ele>
        <time>2024-09-18T11:13:57Z</time>
      </trkpt>
      <trkpt lat="46.66894" lon="4.94772">
        <ele>182.8</ele>
        <time>2024-09-18T11:13:58Z</time>
      </trkpt>
      <trkpt lat="46.66889" lon="4.94772">
        <ele>182.8</ele>
        <time>2024-09-18T11:13:59Z</time>
      </trkpt>
      <trkpt lat="46.66885" lon="4.94773">
        <ele>182.8</ele>
        <time>2024-09-18T11:14:00Z</time>
      </trkpt>
      <trkpt lat="46.66881" lon="4.94774">
        <ele>182.8</ele>
        <time>2024-09-18T11:14:01Z</time>
      </trkpt>
      <trkpt lat="46.66876" lon="4.94774">
        <ele>182.8</ele>
        <time>2024-09-18T11:14:02Z</time>
      </trkpt>
      <trkpt lat="46.66872" lon="4.94775">
        <ele>182.8</ele>
        <time>2024-09-18T11:14:03Z</time>
      </trkpt>
      <trkpt lat="46.66868" lon="4.94776">
        <ele>182.8</ele>
        <time>2024-09-18T11:14:04Z</time>
      </trkpt>
      <trkpt lat="46.66864" lon="4.94777">
        <ele>183</ele>
        <time>2024-09-18T11:14:05Z</time>
      </trkpt>
      <trkpt lat="46.6686" lon="4.94777">
        <ele>183</ele>
        <time>2024-09-18T11:14:06Z</time>
      </trkpt>
      <trkpt lat="46.66855" lon="4.94778">
        <ele>183</ele>
        <time>2024-09-18T11:14:07Z</time>
      </trkpt>
      <trkpt lat="46.66851" lon="4.94778">
        <ele>182.6</ele>
        <time>2024-09-18T11:14:08Z</time>
      </trkpt>
      <trkpt lat="46.66847" lon="4.94779">
        <ele>183.2</ele>
        <time>2024-09-18T11:14:09Z</time>
      </trkpt>
      <trkpt lat="46.66843" lon="4.94779">
        <ele>183.2</ele>
        <time>2024-09-18T11:14:10Z</time>
      </trkpt>
      <trkpt lat="46.66839" lon="4.94778">
        <ele>183.2</ele>
        <time>2024-09-18T11:14:11Z</time>
      </trkpt>
      <trkpt lat="46.66835" lon="4.94776">
        <ele>182.6</ele>
        <time>2024-09-18T11:14:12Z</time>
      </trkpt>
      <trkpt lat="46.66832" lon="4.94774">
        <ele>182.8</ele>
        <time>2024-09-18T11:14:13Z</time>
      </trkpt>
      <trkpt lat="46.66829" lon="4.94771">
        <ele>182.8</ele>
        <time>2024-09-18T11:14:14Z</time>
      </trkpt>
      <trkpt lat="46.66827" lon="4.94767">
        <ele>182.8</ele>
        <time>2024-09-18T11:14:15Z</time>
      </trkpt>
      <trkpt lat="46.66825" lon="4.94762">
        <ele>182.8</ele>
        <time>2024-09-18T11:14:16Z</time>
      </trkpt>
      <trkpt lat="46.66823" lon="4.94757">
        <ele>182.8</ele>
        <time>2024-09-18T11:14:17Z</time>
      </trkpt>
      <trkpt lat="46.66822" lon="4.94752">
        <ele>183</ele>
        <time>2024-09-18T11:14:18Z</time>
      </trkpt>
      <trkpt lat="46.66821" lon="4.94747">
        <ele>183</ele>
        <time>2024-09-18T11:14:19Z</time>
      </trkpt>
      <trkpt lat="46.66821" lon="4.94742">
        <ele>183</ele>
        <time>2024-09-18T11:14:20Z</time>
      </trkpt>
      <trkpt lat="46.6682" lon="4.94737">
        <ele>183.4</ele>
        <time>2024-09-18T11:14:21Z</time>
      </trkpt>
      <trkpt lat="46.66819" lon="4.94732">
        <ele>183.4</ele>
        <time>2024-09-18T11:14:22Z</time>
      </trkpt>
      <trkpt lat="46.66818" lon="4.94728">
        <ele>183.8</ele>
        <time>2024-09-18T11:14:23Z</time>
      </trkpt>
      <trkpt lat="46.66817" lon="4.94723">
        <ele>183.8</ele>
        <time>2024-09-18T11:14:24Z</time>
      </trkpt>
      <trkpt lat="46.66817" lon="4.94718">
        <ele>184</ele>
        <time>2024-09-18T11:14:25Z</time>
      </trkpt>
      <trkpt lat="46.66816" lon="4.94713">
        <ele>184.4</ele>
        <time>2024-09-18T11:14:26Z</time>
      </trkpt>
      <trkpt lat="46.66815" lon="4.94708">
        <ele>184.4</ele>
        <time>2024-09-18T11:14:27Z</time>
      </trkpt>
      <trkpt lat="46.66814" lon="4.94704">
        <ele>184.4</ele>
        <time>2024-09-18T11:14:28Z</time>
      </trkpt>
      <trkpt lat="46.66812" lon="4.94701">
        <ele>185</ele>
        <time>2024-09-18T11:14:29Z</time>
      </trkpt>
      <trkpt lat="46.66811" lon="4.94697">
        <ele>185</ele>
        <time>2024-09-18T11:14:30Z</time>
      </trkpt>
      <trkpt lat="46.6681" lon="4.94694">
        <ele>185</ele>
        <time>2024-09-18T11:14:31Z</time>
      </trkpt>
      <trkpt lat="46.66809" lon="4.9469">
        <ele>185</ele>
        <time>2024-09-18T11:14:32Z</time>
      </trkpt>
      <trkpt lat="46.66809" lon="4.94686">
        <ele>185</ele>
        <time>2024-09-18T11:14:33Z</time>
      </trkpt>
      <trkpt lat="46.66808" lon="4.94681">
        <ele>185</ele>
        <time>2024-09-18T11:14:34Z</time>
      </trkpt>
      <trkpt lat="46.66807" lon="4.94676">
        <ele>185</ele>
        <time>2024-09-18T11:14:35Z</time>
      </trkpt>
      <trkpt lat="46.66806" lon="4.94671">
        <ele>184.8</ele>
        <time>2024-09-18T11:14:36Z</time>
      </trkpt>
      <trkpt lat="46.66806" lon="4.94665">
        <ele>184.8</ele>
        <time>2024-09-18T11:14:37Z</time>
      </trkpt>
      <trkpt lat="46.66805" lon="4.94659">
        <ele>184.8</ele>
        <time>2024-09-18T11:14:38Z</time>
      </trkpt>
      <trkpt lat="46.66804" lon="4.94653">
        <ele>184.4</ele>
        <time>2024-09-18T11:14:39Z</time>
      </trkpt>
      <trkpt lat="46.66802" lon="4.94647">
        <ele>184.2</ele>
        <time>2024-09-18T11:14:40Z</time>
      </trkpt>
      <trkpt lat="46.66801" lon="4.94641">
        <ele>184.2</ele>
        <time>2024-09-18T11:14:41Z</time>
      </trkpt>
      <trkpt lat="46.66799" lon="4.94635">
        <ele>184.2</ele>
        <time>2024-09-18T11:14:42Z</time>
      </trkpt>
      <trkpt lat="46.66797" lon="4.94629">
        <ele>184.2</ele>
        <time>2024-09-18T11:14:43Z</time>
      </trkpt>
      <trkpt lat="46.66794" lon="4.94624">
        <ele>183.8</ele>
        <time>2024-09-18T11:14:44Z</time>
      </trkpt>
      <trkpt lat="46.66791" lon="4.94619">
        <ele>183.8</ele>
        <time>2024-09-18T11:14:45Z</time>
      </trkpt>
      <trkpt lat="46.66789" lon="4.94614">
        <ele>183.8</ele>
        <time>2024-09-18T11:14:46Z</time>
      </trkpt>
      <trkpt lat="46.66785" lon="4.9461">
        <ele>183.8</ele>
        <time>2024-09-18T11:14:47Z</time>
      </trkpt>
      <trkpt lat="46.66782" lon="4.94606">
        <ele>183.8</ele>
        <time>2024-09-18T11:14:48Z</time>
      </trkpt>
      <trkpt lat="46.66779" lon="4.94603">
        <ele>184.2</ele>
        <time>2024-09-18T11:14:49Z</time>
      </trkpt>
      <trkpt lat="46.66775" lon="4.946">
        <ele>184.2</ele>
        <time>2024-09-18T11:14:50Z</time>
      </trkpt>
      <trkpt lat="46.66771" lon="4.94598">
        <ele>184.2</ele>
        <time>2024-09-18T11:14:51Z</time>
      </trkpt>
      <trkpt lat="46.66767" lon="4.94596">
        <ele>184.2</ele>
        <time>2024-09-18T11:14:52Z</time>
      </trkpt>
      <trkpt lat="46.66762" lon="4.94594">
        <ele>184.2</ele>
        <time>2024-09-18T11:14:53Z</time>
      </trkpt>
      <trkpt lat="46.66758" lon="4.94593">
        <ele>184.6</ele>
        <time>2024-09-18T11:14:54Z</time>
      </trkpt>
      <trkpt lat="46.66753" lon="4.94592">
        <ele>184.6</ele>
        <time>2024-09-18T11:14:55Z</time>
      </trkpt>
      <trkpt lat="46.66749" lon="4.94592">
        <ele>184.6</ele>
        <time>2024-09-18T11:14:56Z</time>
      </trkpt>
      <trkpt lat="46.66744" lon="4.94592">
        <ele>184.6</ele>
        <time>2024-09-18T11:14:57Z</time>
      </trkpt>
      <trkpt lat="46.66739" lon="4.94591">
        <ele>184.6</ele>
        <time>2024-09-18T11:14:58Z</time>
      </trkpt>
      <trkpt lat="46.66734" lon="4.94591">
        <ele>184.4</ele>
        <time>2024-09-18T11:14:59Z</time>
      </trkpt>
      <trkpt lat="46.66729" lon="4.94591">
        <ele>184.4</ele>
        <time>2024-09-18T11:15:00Z</time>
      </trkpt>
      <trkpt lat="46.66724" lon="4.94591">
        <ele>184.8</ele>
        <time>2024-09-18T11:15:01Z</time>
      </trkpt>
      <trkpt lat="46.66719" lon="4.94591">
        <ele>184.8</ele>
        <time>2024-09-18T11:15:02Z</time>
      </trkpt>
      <trkpt lat="46.66714" lon="4.94591">
        <ele>184.8</ele>
        <time>2024-09-18T11:15:03Z</time>
      </trkpt>
      <trkpt lat="46.6671" lon="4.94591">
        <ele>184.8</ele>
        <time>2024-09-18T11:15:04Z</time>
      </trkpt>
      <trkpt lat="46.66705" lon="4.94591">
        <ele>184.8</ele>
        <time>2024-09-18T11:15:05Z</time>
      </trkpt>
      <trkpt lat="46.667" lon="4.94591">
        <ele>184.8</ele>
        <time>2024-09-18T11:15:06Z</time>
      </trkpt>
      <trkpt lat="46.66695" lon="4.94591">
        <ele>184.8</ele>
        <time>2024-09-18T11:15:07Z</time>
      </trkpt>
      <trkpt lat="46.6669" lon="4.94591">
        <ele>184.8</ele>
        <time>2024-09-18T11:15:08Z</time>
      </trkpt>
      <trkpt lat="46.66685" lon="4.94591">
        <ele>184.8</ele>
        <time>2024-09-18T11:15:09Z</time>
      </trkpt>
      <trkpt lat="46.6668" lon="4.94591">
        <ele>184.8</ele>
        <time>2024-09-18T11:15:10Z</time>
      </trkpt>
      <trkpt lat="46.66675" lon="4.94591">
        <ele>185</ele>
        <time>2024-09-18T11:15:11Z</time>
      </trkpt>
      <trkpt lat="46.6667" lon="4.94591">
        <ele>185</ele>
        <time>2024-09-18T11:15:12Z</time>
      </trkpt>
      <trkpt lat="46.66665" lon="4.94591">
        <ele>185</ele>
        <time>2024-09-18T11:15:13Z</time>
      </trkpt>
      <trkpt lat="46.6666" lon="4.94591">
        <ele>185</ele>
        <time>2024-09-18T11:15:14Z</time>
      </trkpt>
      <trkpt lat="46.66655" lon="4.94591">
        <ele>184.8</ele>
        <time>2024-09-18T11:15:15Z</time>
      </trkpt>
      <trkpt lat="46.6665" lon="4.94591">
        <ele>184.8</ele>
        <time>2024-09-18T11:15:16Z</time>
      </trkpt>
      <trkpt lat="46.66645" lon="4.94591">
        <ele>184.8</ele>
        <time>2024-09-18T11:15:17Z</time>
      </trkpt>
      <trkpt lat="46.6664" lon="4.94591">
        <ele>184.8</ele>
        <time>2024-09-18T11:15:18Z</time>
      </trkpt>
      <trkpt lat="46.66635" lon="4.94591">
        <ele>184.8</ele>
        <time>2024-09-18T11:15:19Z</time>
      </trkpt>
      <trkpt lat="46.6663" lon="4.9459">
        <ele>184.6</ele>
        <time>2024-09-18T11:15:20Z</time>
      </trkpt>
      <trkpt lat="46.66625" lon="4.9459">
        <ele>184.6</ele>
        <time>2024-09-18T11:15:21Z</time>
      </trkpt>
      <trkpt lat="46.6662" lon="4.94591">
        <ele>184.6</ele>
        <time>2024-09-18T11:15:22Z</time>
      </trkpt>
      <trkpt lat="46.66615" lon="4.94591">
        <ele>184.6</ele>
        <time>2024-09-18T11:15:23Z</time>
      </trkpt>
      <trkpt lat="46.6661" lon="4.94591">
        <ele>184.6</ele>
        <time>2024-09-18T11:15:24Z</time>
      </trkpt>
      <trkpt lat="46.66606" lon="4.94591">
        <ele>184.8</ele>
        <time>2024-09-18T11:15:25Z</time>
      </trkpt>
      <trkpt lat="46.66601" lon="4.94591">
        <ele>184.8</ele>
        <time>2024-09-18T11:15:26Z</time>
      </trkpt>
      <trkpt lat="46.66596" lon="4.94591">
        <ele>184.8</ele>
        <time>2024-09-18T11:15:27Z</time>
      </trkpt>
      <trkpt lat="46.66591" lon="4.94591">
        <ele>184.8</ele>
        <time>2024-09-18T11:15:28Z</time>
      </trkpt>
      <trkpt lat="46.66586" lon="4.94591">
        <ele>184.8</ele>
        <time>2024-09-18T11:15:29Z</time>
      </trkpt>
      <trkpt lat="46.66582" lon="4.94591">
        <ele>184.8</ele>
        <time>2024-09-18T11:15:30Z</time>
      </trkpt>
      <trkpt lat="46.66577" lon="4.94591">
        <ele>184.8</ele>
        <time>2024-09-18T11:15:31Z</time>
      </trkpt>
      <trkpt lat="46.66572" lon="4.94591">
        <ele>184.8</ele>
        <time>2024-09-18T11:15:32Z</time>
      </trkpt>
      <trkpt lat="46.66567" lon="4.94591">
        <ele>184.8</ele>
        <time>2024-09-18T11:15:33Z</time>
      </trkpt>
      <trkpt lat="46.66562" lon="4.94591">
        <ele>184.4</ele>
        <time>2024-09-18T11:15:34Z</time>
      </trkpt>
      <trkpt lat="46.66557" lon="4.94591">
        <ele>184.4</ele>
        <time>2024-09-18T11:15:35Z</time>
      </trkpt>
      <trkpt lat="46.66551" lon="4.94591">
        <ele>184.4</ele>
        <time>2024-09-18T11:15:36Z</time>
      </trkpt>
      <trkpt lat="46.66546" lon="4.94591">
        <ele>184.6</ele>
        <time>2024-09-18T11:15:37Z</time>
      </trkpt>
      <trkpt lat="46.66541" lon="4.94592">
        <ele>184.6</ele>
        <time>2024-09-18T11:15:38Z</time>
      </trkpt>
      <trkpt lat="46.66536" lon="4.94592">
        <ele>184.6</ele>
        <time>2024-09-18T11:15:39Z</time>
      </trkpt>
      <trkpt lat="46.6653" lon="4.94593">
        <ele>184.6</ele>
        <time>2024-09-18T11:15:40Z</time>
      </trkpt>
      <trkpt lat="46.66525" lon="4.94593">
        <ele>184.6</ele>
        <time>2024-09-18T11:15:41Z</time>
      </trkpt>
      <trkpt lat="46.6652" lon="4.94593">
        <ele>184.8</ele>
        <time>2024-09-18T11:15:42Z</time>
      </trkpt>
      <trkpt lat="46.66515" lon="4.94593">
        <ele>184.8</ele>
        <time>2024-09-18T11:15:43Z</time>
      </trkpt>
      <trkpt lat="46.6651" lon="4.94592">
        <ele>184.8</ele>
        <time>2024-09-18T11:15:44Z</time>
      </trkpt>
      <trkpt lat="46.66505" lon="4.94592">
        <ele>184.8</ele>
        <time>2024-09-18T11:15:45Z</time>
      </trkpt>
      <trkpt lat="46.66501" lon="4.94592">
        <ele>184.8</ele>
        <time>2024-09-18T11:15:46Z</time>
      </trkpt>
      <trkpt lat="46.66496" lon="4.94593">
        <ele>184.6</ele>
        <time>2024-09-18T11:15:47Z</time>
      </trkpt>
      <trkpt lat="46.66491" lon="4.94593">
        <ele>184.6</ele>
        <time>2024-09-18T11:15:48Z</time>
      </trkpt>
      <trkpt lat="46.66486" lon="4.94593">
        <ele>184.6</ele>
        <time>2024-09-18T11:15:49Z</time>
      </trkpt>
      <trkpt lat="46.66481" lon="4.94593">
        <ele>184.8</ele>
        <time>2024-09-18T11:15:50Z</time>
      </trkpt>
      <trkpt lat="46.66476" lon="4.94593">
        <ele>184.8</ele>
        <time>2024-09-18T11:15:51Z</time>
      </trkpt>
      <trkpt lat="46.66471" lon="4.94593">
        <ele>184.8</ele>
        <time>2024-09-18T11:15:52Z</time>
      </trkpt>
      <trkpt lat="46.66465" lon="4.94593">
        <ele>184.8</ele>
        <time>2024-09-18T11:15:53Z</time>
      </trkpt>
      <trkpt lat="46.6646" lon="4.94592">
        <ele>184.8</ele>
        <time>2024-09-18T11:15:54Z</time>
      </trkpt>
      <trkpt lat="46.66455" lon="4.94592">
        <ele>184.8</ele>
        <time>2024-09-18T11:15:55Z</time>
      </trkpt>
      <trkpt lat="46.6645" lon="4.9459">
        <ele>184.2</ele>
        <time>2024-09-18T11:15:56Z</time>
      </trkpt>
      <trkpt lat="46.66445" lon="4.94589">
        <ele>184.2</ele>
        <time>2024-09-18T11:15:57Z</time>
      </trkpt>
      <trkpt lat="46.6644" lon="4.94587">
        <ele>184.2</ele>
        <time>2024-09-18T11:15:58Z</time>
      </trkpt>
      <trkpt lat="46.66435" lon="4.94584">
        <ele>184.2</ele>
        <time>2024-09-18T11:15:59Z</time>
      </trkpt>
      <trkpt lat="46.6643" lon="4.94581">
        <ele>184.2</ele>
        <time>2024-09-18T11:16:00Z</time>
      </trkpt>
      <trkpt lat="46.66426" lon="4.94578">
        <ele>184.2</ele>
        <time>2024-09-18T11:16:01Z</time>
      </trkpt>
      <trkpt lat="46.66421" lon="4.94574">
        <ele>184.2</ele>
        <time>2024-09-18T11:16:02Z</time>
      </trkpt>
      <trkpt lat="46.66417" lon="4.9457">
        <ele>184.2</ele>
        <time>2024-09-18T11:16:03Z</time>
      </trkpt>
      <trkpt lat="46.66413" lon="4.94564">
        <ele>184.4</ele>
        <time>2024-09-18T11:16:04Z</time>
      </trkpt>
      <trkpt lat="46.6641" lon="4.94559">
        <ele>184.6</ele>
        <time>2024-09-18T11:16:05Z</time>
      </trkpt>
      <trkpt lat="46.66407" lon="4.94554">
        <ele>184.6</ele>
        <time>2024-09-18T11:16:06Z</time>
      </trkpt>
      <trkpt lat="46.66404" lon="4.94548">
        <ele>184.6</ele>
        <time>2024-09-18T11:16:07Z</time>
      </trkpt>
      <trkpt lat="46.66401" lon="4.94542">
        <ele>184.6</ele>
        <time>2024-09-18T11:16:08Z</time>
      </trkpt>
      <trkpt lat="46.66399" lon="4.94536">
        <ele>184.8</ele>
        <time>2024-09-18T11:16:09Z</time>
      </trkpt>
      <trkpt lat="46.66396" lon="4.9453">
        <ele>184.8</ele>
        <time>2024-09-18T11:16:10Z</time>
      </trkpt>
      <trkpt lat="46.66394" lon="4.94524">
        <ele>184.8</ele>
        <time>2024-09-18T11:16:11Z</time>
      </trkpt>
      <trkpt lat="46.66391" lon="4.94518">
        <ele>184.8</ele>
        <time>2024-09-18T11:16:12Z</time>
      </trkpt>
      <trkpt lat="46.66389" lon="4.94513">
        <ele>184.8</ele>
        <time>2024-09-18T11:16:13Z</time>
      </trkpt>
      <trkpt lat="46.66386" lon="4.94508">
        <ele>184.8</ele>
        <time>2024-09-18T11:16:14Z</time>
      </trkpt>
      <trkpt lat="46.66382" lon="4.94503">
        <ele>184.8</ele>
        <time>2024-09-18T11:16:15Z</time>
      </trkpt>
      <trkpt lat="46.66379" lon="4.94499">
        <ele>184.8</ele>
        <time>2024-09-18T11:16:16Z</time>
      </trkpt>
      <trkpt lat="46.66375" lon="4.94495">
        <ele>184.8</ele>
        <time>2024-09-18T11:16:17Z</time>
      </trkpt>
      <trkpt lat="46.6637" lon="4.94492">
        <ele>185.2</ele>
        <time>2024-09-18T11:16:18Z</time>
      </trkpt>
      <trkpt lat="46.66366" lon="4.9449">
        <ele>185.2</ele>
        <time>2024-09-18T11:16:19Z</time>
      </trkpt>
      <trkpt lat="46.66361" lon="4.94488">
        <ele>185.2</ele>
        <time>2024-09-18T11:16:20Z</time>
      </trkpt>
      <trkpt lat="46.66356" lon="4.94486">
        <ele>185.2</ele>
        <time>2024-09-18T11:16:21Z</time>
      </trkpt>
      <trkpt lat="46.66352" lon="4.94485">
        <ele>185.2</ele>
        <time>2024-09-18T11:16:22Z</time>
      </trkpt>
      <trkpt lat="46.66347" lon="4.94484">
        <ele>185.2</ele>
        <time>2024-09-18T11:16:23Z</time>
      </trkpt>
      <trkpt lat="46.66342" lon="4.94485">
        <ele>185.2</ele>
        <time>2024-09-18T11:16:24Z</time>
      </trkpt>
      <trkpt lat="46.66337" lon="4.94485">
        <ele>185.2</ele>
        <time>2024-09-18T11:16:25Z</time>
      </trkpt>
      <trkpt lat="46.66332" lon="4.94486">
        <ele>185.2</ele>
        <time>2024-09-18T11:16:26Z</time>
      </trkpt>
      <trkpt lat="46.66327" lon="4.94486">
        <ele>185.2</ele>
        <time>2024-09-18T11:16:27Z</time>
      </trkpt>
      <trkpt lat="46.66322" lon="4.94487">
        <ele>185.2</ele>
        <time>2024-09-18T11:16:28Z</time>
      </trkpt>
      <trkpt lat="46.66317" lon="4.94488">
        <ele>185.2</ele>
        <time>2024-09-18T11:16:29Z</time>
      </trkpt>
      <trkpt lat="46.66312" lon="4.94489">
        <ele>185.2</ele>
        <time>2024-09-18T11:16:30Z</time>
      </trkpt>
      <trkpt lat="46.66307" lon="4.9449">
        <ele>185.2</ele>
        <time>2024-09-18T11:16:31Z</time>
      </trkpt>
      <trkpt lat="46.66301" lon="4.94492">
        <ele>185</ele>
        <time>2024-09-18T11:16:32Z</time>
      </trkpt>
      <trkpt lat="46.66294" lon="4.94494">
        <ele>185</ele>
        <time>2024-09-18T11:16:33Z</time>
      </trkpt>
      <trkpt lat="46.66292" lon="4.94495">
        <ele>185</ele>
        <time>2024-09-18T11:16:34Z</time>
      </trkpt>
      <trkpt lat="46.66287" lon="4.94496">
        <ele>185</ele>
        <time>2024-09-18T11:16:35Z</time>
      </trkpt>
      <trkpt lat="46.66282" lon="4.94497">
        <ele>185</ele>
        <time>2024-09-18T11:16:36Z</time>
      </trkpt>
      <trkpt lat="46.66277" lon="4.94499">
        <ele>185.4</ele>
        <time>2024-09-18T11:16:37Z</time>
      </trkpt>
      <trkpt lat="46.66272" lon="4.945">
        <ele>185.4</ele>
        <time>2024-09-18T11:16:38Z</time>
      </trkpt>
      <trkpt lat="46.66267" lon="4.94501">
        <ele>185.4</ele>
        <time>2024-09-18T11:16:39Z</time>
      </trkpt>
      <trkpt lat="46.66262" lon="4.94502">
        <ele>185.4</ele>
        <time>2024-09-18T11:16:40Z</time>
      </trkpt>
      <trkpt lat="46.66257" lon="4.94504">
        <ele>185.4</ele>
        <time>2024-09-18T11:16:41Z</time>
      </trkpt>
      <trkpt lat="46.66253" lon="4.94505">
        <ele>185.2</ele>
        <time>2024-09-18T11:16:42Z</time>
      </trkpt>
      <trkpt lat="46.66249" lon="4.94506">
        <ele>185.2</ele>
        <time>2024-09-18T11:16:43Z</time>
      </trkpt>
      <trkpt lat="46.66244" lon="4.94506">
        <ele>185.2</ele>
        <time>2024-09-18T11:16:44Z</time>
      </trkpt>
      <trkpt lat="46.6624" lon="4.94506">
        <ele>185.2</ele>
        <time>2024-09-18T11:16:45Z</time>
      </trkpt>
      <trkpt lat="46.66236" lon="4.94507">
        <ele>186.2</ele>
        <time>2024-09-18T11:16:46Z</time>
      </trkpt>
      <trkpt lat="46.66231" lon="4.94507">
        <ele>186.2</ele>
        <time>2024-09-18T11:16:47Z</time>
      </trkpt>
      <trkpt lat="46.66225" lon="4.94508">
        <ele>186.2</ele>
        <time>2024-09-18T11:16:48Z</time>
      </trkpt>
      <trkpt lat="46.66223" lon="4.94508">
        <ele>186.2</ele>
        <time>2024-09-18T11:16:49Z</time>
      </trkpt>
      <trkpt lat="46.66219" lon="4.94508">
        <ele>186</ele>
        <time>2024-09-18T11:16:50Z</time>
      </trkpt>
      <trkpt lat="46.66215" lon="4.94508">
        <ele>186</ele>
        <time>2024-09-18T11:16:51Z</time>
      </trkpt>
      <trkpt lat="46.66212" lon="4.94509">
        <ele>186</ele>
        <time>2024-09-18T11:16:52Z</time>
      </trkpt>
      <trkpt lat="46.66208" lon="4.94509">
        <ele>186.4</ele>
        <time>2024-09-18T11:16:53Z</time>
      </trkpt>
      <trkpt lat="46.66205" lon="4.9451">
        <ele>186.4</ele>
        <time>2024-09-18T11:16:54Z</time>
      </trkpt>
      <trkpt lat="46.66202" lon="4.94511">
        <ele>186.6</ele>
        <time>2024-09-18T11:16:55Z</time>
      </trkpt>
      <trkpt lat="46.662" lon="4.94511">
        <ele>186.6</ele>
        <time>2024-09-18T11:16:56Z</time>
      </trkpt>
      <trkpt lat="46.66198" lon="4.94513">
        <ele>186.6</ele>
        <time>2024-09-18T11:16:57Z</time>
      </trkpt>
      <trkpt lat="46.66196" lon="4.94515">
        <ele>186.6</ele>
        <time>2024-09-18T11:16:58Z</time>
      </trkpt>
      <trkpt lat="46.66195" lon="4.94516">
        <ele>186.6</ele>
        <time>2024-09-18T11:16:59Z</time>
      </trkpt>
      <trkpt lat="46.66196" lon="4.94518">
        <ele>186.6</ele>
        <time>2024-09-18T11:17:00Z</time>
      </trkpt>
      <trkpt lat="46.66196" lon="4.9452">
        <ele>186.6</ele>
        <time>2024-09-18T11:17:01Z</time>
      </trkpt>
      <trkpt lat="46.66198" lon="4.94522">
        <ele>186.6</ele>
        <time>2024-09-18T11:17:02Z</time>
      </trkpt>
      <trkpt lat="46.662" lon="4.94525">
        <ele>186.6</ele>
        <time>2024-09-18T11:17:03Z</time>
      </trkpt>
      <trkpt lat="46.66202" lon="4.94526">
        <ele>186.4</ele>
        <time>2024-09-18T11:17:04Z</time>
      </trkpt>
      <trkpt lat="46.66204" lon="4.94528">
        <ele>186.4</ele>
        <time>2024-09-18T11:17:05Z</time>
      </trkpt>
      <trkpt lat="46.66204" lon="4.94531">
        <ele>186.4</ele>
        <time>2024-09-18T11:17:06Z</time>
      </trkpt>
      <trkpt lat="46.66204" lon="4.94534">
        <ele>186.6</ele>
        <time>2024-09-18T11:17:07Z</time>
      </trkpt>
      <trkpt lat="46.66203" lon="4.94536">
        <ele>186.8</ele>
        <time>2024-09-18T11:17:08Z</time>
      </trkpt>
      <trkpt lat="46.66201" lon="4.94537">
        <ele>186.8</ele>
        <time>2024-09-18T11:17:09Z</time>
      </trkpt>
      <trkpt lat="46.662" lon="4.94538">
        <ele>186.8</ele>
        <time>2024-09-18T11:17:10Z</time>
      </trkpt>
      <trkpt lat="46.662" lon="4.94538">
        <ele>186.8</ele>
        <time>2024-09-18T11:17:11Z</time>
      </trkpt>
      <trkpt lat="46.66197" lon="4.94538">
        <ele>186.8</ele>
        <time>2024-09-18T11:17:20Z</time>
      </trkpt>
      <trkpt lat="46.66197" lon="4.9454">
        <ele>186.8</ele>
        <time>2024-09-18T11:17:21Z</time>
      </trkpt>
      <trkpt lat="46.66197" lon="4.94541">
        <ele>186.8</ele>
        <time>2024-09-18T11:17:22Z</time>
      </trkpt>
      <trkpt lat="46.66197" lon="4.94543">
        <ele>186.8</ele>
        <time>2024-09-18T11:17:23Z</time>
      </trkpt>
      <trkpt lat="46.66197" lon="4.94544">
        <ele>186.8</ele>
        <time>2024-09-18T11:17:24Z</time>
      </trkpt>
      <trkpt lat="46.66197" lon="4.94545">
        <ele>187</ele>
        <time>2024-09-18T11:17:25Z</time>
      </trkpt>
      <trkpt lat="46.66198" lon="4.94544">
        <ele>187</ele>
        <time>2024-09-18T11:17:26Z</time>
      </trkpt>
      <trkpt lat="46.66198" lon="4.94544">
        <ele>187</ele>
        <time>2024-09-18T11:17:27Z</time>
      </trkpt>
      <trkpt lat="46.66198" lon="4.94544">
        <ele>187</ele>
        <time>2024-09-18T11:17:28Z</time>
      </trkpt>
      <trkpt lat="46.66198" lon="4.94544">
        <ele>183.4</ele>
        <time>2024-09-18T12:16:37Z</time>
      </trkpt>
      <trkpt lat="46.66198" lon="4.94544">
        <ele>183.4</ele>
        <time>2024-09-18T12:16:38Z</time>
      </trkpt>
      <trkpt lat="46.66198" lon="4.94544">
        <ele>183.4</ele>
        <time>2024-09-18T12:16:39Z</time>
      </trkpt>
      <trkpt lat="46.66198" lon="4.94544">
        <ele>183.4</ele>
        <time>2024-09-18T12:16:40Z</time>
      </trkpt>
      <trkpt lat="46.66198" lon="4.94544">
        <ele>183.4</ele>
        <time>2024-09-18T12:16:41Z</time>
      </trkpt>
      <trkpt lat="46.66198" lon="4.94544">
        <ele>183.4</ele>
        <time>2024-09-18T12:16:42Z</time>
      </trkpt>
      <trkpt lat="46.66198" lon="4.94544">
        <ele>183.4</ele>
        <time>2024-09-18T12:16:43Z</time>
      </trkpt>
      <trkpt lat="46.66198" lon="4.94544">
        <ele>183.4</ele>
        <time>2024-09-18T12:16:44Z</time>
      </trkpt>
      <trkpt lat="46.66198" lon="4.94544">
        <ele>183.4</ele>
        <time>2024-09-18T12:16:45Z</time>
      </trkpt>
      <trkpt lat="46.66198" lon="4.94544">
        <ele>183.4</ele>
        <time>2024-09-18T12:16:46Z</time>
      </trkpt>
      <trkpt lat="46.66198" lon="4.94544">
        <ele>183.4</ele>
        <time>2024-09-18T12:16:47Z</time>
      </trkpt>
      <trkpt lat="46.66198" lon="4.94544">
        <ele>183.4</ele>
        <time>2024-09-18T12:16:48Z</time>
      </trkpt>
      <trkpt lat="46.66198" lon="4.94544">
        <ele>183.4</ele>
        <time>2024-09-18T12:16:49Z</time>
      </trkpt>
      <trkpt lat="46.66198" lon="4.94544">
        <ele>183.4</ele>
        <time>2024-09-18T12:16:50Z</time>
      </trkpt>
      <trkpt lat="46.66198" lon="4.94544">
        <ele>183.4</ele>
        <time>2024-09-18T12:16:51Z</time>
      </trkpt>
      <trkpt lat="46.66198" lon="4.94544">
        <ele>183.4</ele>
        <time>2024-09-18T12:16:52Z</time>
      </trkpt>
      <trkpt lat="46.66198" lon="4.94544">
        <ele>183.4</ele>
        <time>2024-09-18T12:16:53Z</time>
      </trkpt>
      <trkpt lat="46.66198" lon="4.94544">
        <ele>183.4</ele>
        <time>2024-09-18T12:16:54Z</time>
      </trkpt>
      <trkpt lat="46.66198" lon="4.94544">
        <ele>183.4</ele>
        <time>2024-09-18T12:16:55Z</time>
      </trkpt>
      <trkpt lat="46.66198" lon="4.94544">
        <ele>187.4</ele>
        <time>2024-09-18T12:16:56Z</time>
      </trkpt>
      <trkpt lat="46.66198" lon="4.94544">
        <ele>187.4</ele>
        <time>2024-09-18T12:16:57Z</time>
      </trkpt>
      <trkpt lat="46.66195" lon="4.94535">
        <ele>187.6</ele>
        <time>2024-09-18T12:18:37Z</time>
      </trkpt>
      <trkpt lat="46.66194" lon="4.94533">
        <ele>187.4</ele>
        <time>2024-09-18T12:18:38Z</time>
      </trkpt>
      <trkpt lat="46.66192" lon="4.94532">
        <ele>187.4</ele>
        <time>2024-09-18T12:18:39Z</time>
      </trkpt>
      <trkpt lat="46.66191" lon="4.94531">
        <ele>187.4</ele>
        <time>2024-09-18T12:18:40Z</time>
      </trkpt>
      <trkpt lat="46.66189" lon="4.9453">
        <ele>187.4</ele>
        <time>2024-09-18T12:18:41Z</time>
      </trkpt>
      <trkpt lat="46.66187" lon="4.9453">
        <ele>187</ele>
        <time>2024-09-18T12:18:42Z</time>
      </trkpt>
      <trkpt lat="46.66185" lon="4.9453">
        <ele>186.8</ele>
        <time>2024-09-18T12:18:43Z</time>
      </trkpt>
      <trkpt lat="46.66182" lon="4.94529">
        <ele>186.8</ele>
        <time>2024-09-18T12:18:44Z</time>
      </trkpt>
      <trkpt lat="46.6618" lon="4.94529">
        <ele>186.8</ele>
        <time>2024-09-18T12:18:45Z</time>
      </trkpt>
      <trkpt lat="46.66178" lon="4.94528">
        <ele>186.8</ele>
        <time>2024-09-18T12:18:46Z</time>
      </trkpt>
      <trkpt lat="46.66176" lon="4.94528">
        <ele>186.8</ele>
        <time>2024-09-18T12:18:47Z</time>
      </trkpt>
      <trkpt lat="46.66174" lon="4.94528">
        <ele>186.6</ele>
        <time>2024-09-18T12:18:48Z</time>
      </trkpt>
      <trkpt lat="46.66173" lon="4.94529">
        <ele>186.6</ele>
        <time>2024-09-18T12:18:49Z</time>
      </trkpt>
      <trkpt lat="46.66172" lon="4.9453">
        <ele>186.6</ele>
        <time>2024-09-18T12:18:50Z</time>
      </trkpt>
      <trkpt lat="46.6617" lon="4.94531">
        <ele>186.4</ele>
        <time>2024-09-18T12:18:51Z</time>
      </trkpt>
      <trkpt lat="46.66169" lon="4.94531">
        <ele>186.4</ele>
        <time>2024-09-18T12:18:52Z</time>
      </trkpt>
      <trkpt lat="46.66168" lon="4.94532">
        <ele>186.4</ele>
        <time>2024-09-18T12:18:53Z</time>
      </trkpt>
      <trkpt lat="46.66168" lon="4.94534">
        <ele>186.4</ele>
        <time>2024-09-18T12:18:54Z</time>
      </trkpt>
      <trkpt lat="46.66167" lon="4.94536">
        <ele>186.4</ele>
        <time>2024-09-18T12:18:55Z</time>
      </trkpt>
      <trkpt lat="46.66167" lon="4.94539">
        <ele>186.2</ele>
        <time>2024-09-18T12:18:56Z</time>
      </trkpt>
      <trkpt lat="46.66166" lon="4.94542">
        <ele>185.8</ele>
        <time>2024-09-18T12:18:57Z</time>
      </trkpt>
      <trkpt lat="46.66166" lon="4.94545">
        <ele>185.8</ele>
        <time>2024-09-18T12:18:58Z</time>
      </trkpt>
      <trkpt lat="46.66166" lon="4.9455">
        <ele>185.8</ele>
        <time>2024-09-18T12:18:59Z</time>
      </trkpt>
      <trkpt lat="46.66166" lon="4.94555">
        <ele>185.8</ele>
        <time>2024-09-18T12:19:00Z</time>
      </trkpt>
      <trkpt lat="46.66166" lon="4.94561">
        <ele>185.4</ele>
        <time>2024-09-18T12:19:01Z</time>
      </trkpt>
      <trkpt lat="46.66166" lon="4.94566">
        <ele>185.4</ele>
        <time>2024-09-18T12:19:02Z</time>
      </trkpt>
      <trkpt lat="46.66166" lon="4.94572">
        <ele>185.4</ele>
        <time>2024-09-18T12:19:03Z</time>
      </trkpt>
      <trkpt lat="46.66165" lon="4.94578">
        <ele>185</ele>
        <time>2024-09-18T12:19:04Z</time>
      </trkpt>
      <trkpt lat="46.66165" lon="4.94584">
        <ele>185</ele>
        <time>2024-09-18T12:19:05Z</time>
      </trkpt>
      <trkpt lat="46.66164" lon="4.94591">
        <ele>185</ele>
        <time>2024-09-18T12:19:06Z</time>
      </trkpt>
      <trkpt lat="46.66164" lon="4.94597">
        <ele>185</ele>
        <time>2024-09-18T12:19:07Z</time>
      </trkpt>
      <trkpt lat="46.66163" lon="4.94603">
        <ele>185</ele>
        <time>2024-09-18T12:19:08Z</time>
      </trkpt>
      <trkpt lat="46.66162" lon="4.94609">
        <ele>184.2</ele>
        <time>2024-09-18T12:19:09Z</time>
      </trkpt>
      <trkpt lat="46.66162" lon="4.94615">
        <ele>184.6</ele>
        <time>2024-09-18T12:19:10Z</time>
      </trkpt>
      <trkpt lat="46.66161" lon="4.94621">
        <ele>184.6</ele>
        <time>2024-09-18T12:19:11Z</time>
      </trkpt>
      <trkpt lat="46.6616" lon="4.94627">
        <ele>184.6</ele>
        <time>2024-09-18T12:19:12Z</time>
      </trkpt>
      <trkpt lat="46.66157" lon="4.94631">
        <ele>184.6</ele>
        <time>2024-09-18T12:19:13Z</time>
      </trkpt>
      <trkpt lat="46.66153" lon="4.94633">
        <ele>184.4</ele>
        <time>2024-09-18T12:19:14Z</time>
      </trkpt>
      <trkpt lat="46.6615" lon="4.94634">
        <ele>184.4</ele>
        <time>2024-09-18T12:19:15Z</time>
      </trkpt>
      <trkpt lat="46.66146" lon="4.94635">
        <ele>184.4</ele>
        <time>2024-09-18T12:19:16Z</time>
      </trkpt>
      <trkpt lat="46.66143" lon="4.94635">
        <ele>184.4</ele>
        <time>2024-09-18T12:19:17Z</time>
      </trkpt>
      <trkpt lat="46.66139" lon="4.94635">
        <ele>184.4</ele>
        <time>2024-09-18T12:19:18Z</time>
      </trkpt>
      <trkpt lat="46.66136" lon="4.94635">
        <ele>184.4</ele>
        <time>2024-09-18T12:19:19Z</time>
      </trkpt>
      <trkpt lat="46.66133" lon="4.94635">
        <ele>184.6</ele>
        <time>2024-09-18T12:19:20Z</time>
      </trkpt>
      <trkpt lat="46.6613" lon="4.94635">
        <ele>184.6</ele>
        <time>2024-09-18T12:19:21Z</time>
      </trkpt>
      <trkpt lat="46.66127" lon="4.94635">
        <ele>184.6</ele>
        <time>2024-09-18T12:19:22Z</time>
      </trkpt>
      <trkpt lat="46.66124" lon="4.94635">
        <ele>184.4</ele>
        <time>2024-09-18T12:19:23Z</time>
      </trkpt>
      <trkpt lat="46.66121" lon="4.94635">
        <ele>184.6</ele>
        <time>2024-09-18T12:19:24Z</time>
      </trkpt>
      <trkpt lat="46.66118" lon="4.94635">
        <ele>184.6</ele>
        <time>2024-09-18T12:19:25Z</time>
      </trkpt>
      <trkpt lat="46.66116" lon="4.94634">
        <ele>184.6</ele>
        <time>2024-09-18T12:19:26Z</time>
      </trkpt>
      <trkpt lat="46.66113" lon="4.94634">
        <ele>184.6</ele>
        <time>2024-09-18T12:19:27Z</time>
      </trkpt>
      <trkpt lat="46.6611" lon="4.94633">
        <ele>184.6</ele>
        <time>2024-09-18T12:19:28Z</time>
      </trkpt>
      <trkpt lat="46.66107" lon="4.94632">
        <ele>184.6</ele>
        <time>2024-09-18T12:19:29Z</time>
      </trkpt>
      <trkpt lat="46.66103" lon="4.94632">
        <ele>184.6</ele>
        <time>2024-09-18T12:19:30Z</time>
      </trkpt>
      <trkpt lat="46.661" lon="4.94631">
        <ele>184.6</ele>
        <time>2024-09-18T12:19:31Z</time>
      </trkpt>
      <trkpt lat="46.66097" lon="4.9463">
        <ele>185.2</ele>
        <time>2024-09-18T12:19:32Z</time>
      </trkpt>
      <trkpt lat="46.66093" lon="4.94629">
        <ele>184.6</ele>
        <time>2024-09-18T12:19:33Z</time>
      </trkpt>
      <trkpt lat="46.6609" lon="4.94629">
        <ele>184.6</ele>
        <time>2024-09-18T12:19:34Z</time>
      </trkpt>
      <trkpt lat="46.66086" lon="4.94628">
        <ele>184.6</ele>
        <time>2024-09-18T12:19:35Z</time>
      </trkpt>
      <trkpt lat="46.66083" lon="4.94627">
        <ele>185.4</ele>
        <time>2024-09-18T12:19:36Z</time>
      </trkpt>
      <trkpt lat="46.66079" lon="4.94627">
        <ele>185.2</ele>
        <time>2024-09-18T12:19:37Z</time>
      </trkpt>
      <trkpt lat="46.66075" lon="4.94626">
        <ele>185.2</ele>
        <time>2024-09-18T12:19:38Z</time>
      </trkpt>
      <trkpt lat="46.66071" lon="4.94625">
        <ele>185.2</ele>
        <time>2024-09-18T12:19:39Z</time>
      </trkpt>
      <trkpt lat="46.66067" lon="4.94624">
        <ele>185.2</ele>
        <time>2024-09-18T12:19:40Z</time>
      </trkpt>
      <trkpt lat="46.66063" lon="4.94623">
        <ele>185.2</ele>
        <time>2024-09-18T12:19:41Z</time>
      </trkpt>
      <trkpt lat="46.66059" lon="4.94622">
        <ele>185</ele>
        <time>2024-09-18T12:19:42Z</time>
      </trkpt>
      <trkpt lat="46.66055" lon="4.94621">
        <ele>185</ele>
        <time>2024-09-18T12:19:43Z</time>
      </trkpt>
      <trkpt lat="46.66051" lon="4.9462">
        <ele>185</ele>
        <time>2024-09-18T12:19:44Z</time>
      </trkpt>
      <trkpt lat="46.66047" lon="4.94619">
        <ele>185.4</ele>
        <time>2024-09-18T12:19:45Z</time>
      </trkpt>
      <trkpt lat="46.66043" lon="4.94618">
        <ele>185.4</ele>
        <time>2024-09-18T12:19:46Z</time>
      </trkpt>
      <trkpt lat="46.66039" lon="4.94617">
        <ele>185.6</ele>
        <time>2024-09-18T12:19:47Z</time>
      </trkpt>
      <trkpt lat="46.66035" lon="4.94617">
        <ele>185.6</ele>
        <time>2024-09-18T12:19:48Z</time>
      </trkpt>
      <trkpt lat="46.66032" lon="4.94615">
        <ele>185.6</ele>
        <time>2024-09-18T12:19:49Z</time>
      </trkpt>
      <trkpt lat="46.66029" lon="4.94614">
        <ele>185.6</ele>
        <time>2024-09-18T12:19:50Z</time>
      </trkpt>
      <trkpt lat="46.66025" lon="4.94612">
        <ele>185.2</ele>
        <time>2024-09-18T12:19:51Z</time>
      </trkpt>
      <trkpt lat="46.66021" lon="4.94611">
        <ele>185.2</ele>
        <time>2024-09-18T12:19:52Z</time>
      </trkpt>
      <trkpt lat="46.66018" lon="4.9461">
        <ele>185.2</ele>
        <time>2024-09-18T12:19:53Z</time>
      </trkpt>
      <trkpt lat="46.66014" lon="4.94609">
        <ele>185.2</ele>
        <time>2024-09-18T12:19:54Z</time>
      </trkpt>
      <trkpt lat="46.6601" lon="4.94608">
        <ele>185.2</ele>
        <time>2024-09-18T12:19:55Z</time>
      </trkpt>
      <trkpt lat="46.66006" lon="4.94608">
        <ele>185</ele>
        <time>2024-09-18T12:19:56Z</time>
      </trkpt>
      <trkpt lat="46.66003" lon="4.94607">
        <ele>185</ele>
        <time>2024-09-18T12:19:57Z</time>
      </trkpt>
      <trkpt lat="46.65999" lon="4.94606">
        <ele>185</ele>
        <time>2024-09-18T12:19:58Z</time>
      </trkpt>
      <trkpt lat="46.65995" lon="4.94605">
        <ele>185.2</ele>
        <time>2024-09-18T12:19:59Z</time>
      </trkpt>
      <trkpt lat="46.65991" lon="4.94604">
        <ele>185.2</ele>
        <time>2024-09-18T12:20:00Z</time>
      </trkpt>
      <trkpt lat="46.65987" lon="4.94602">
        <ele>185.4</ele>
        <time>2024-09-18T12:20:01Z</time>
      </trkpt>
      <trkpt lat="46.65983" lon="4.94602">
        <ele>185.4</ele>
        <time>2024-09-18T12:20:02Z</time>
      </trkpt>
      <trkpt lat="46.65978" lon="4.946">
        <ele>185.4</ele>
        <time>2024-09-18T12:20:03Z</time>
      </trkpt>
      <trkpt lat="46.65974" lon="4.94599">
        <ele>185.4</ele>
        <time>2024-09-18T12:20:04Z</time>
      </trkpt>
      <trkpt lat="46.6597" lon="4.94598">
        <ele>185.4</ele>
        <time>2024-09-18T12:20:05Z</time>
      </trkpt>
      <trkpt lat="46.65966" lon="4.94597">
        <ele>185.6</ele>
        <time>2024-09-18T12:20:06Z</time>
      </trkpt>
      <trkpt lat="46.65962" lon="4.94596">
        <ele>185.6</ele>
        <time>2024-09-18T12:20:07Z</time>
      </trkpt>
      <trkpt lat="46.65958" lon="4.94595">
        <ele>185</ele>
        <time>2024-09-18T12:20:08Z</time>
      </trkpt>
      <trkpt lat="46.65954" lon="4.94594">
        <ele>185.4</ele>
        <time>2024-09-18T12:20:09Z</time>
      </trkpt>
      <trkpt lat="46.65949" lon="4.94593">
        <ele>185.4</ele>
        <time>2024-09-18T12:20:10Z</time>
      </trkpt>
      <trkpt lat="46.65945" lon="4.94592">
        <ele>185.4</ele>
        <time>2024-09-18T12:20:11Z</time>
      </trkpt>
      <trkpt lat="46.65941" lon="4.94591">
        <ele>185.4</ele>
        <time>2024-09-18T12:20:12Z</time>
      </trkpt>
      <trkpt lat="46.65937" lon="4.9459">
        <ele>185.4</ele>
        <time>2024-09-18T12:20:13Z</time>
      </trkpt>
      <trkpt lat="46.65933" lon="4.94589">
        <ele>185.8</ele>
        <time>2024-09-18T12:20:14Z</time>
      </trkpt>
      <trkpt lat="46.65929" lon="4.94588">
        <ele>185.8</ele>
        <time>2024-09-18T12:20:15Z</time>
      </trkpt>
      <trkpt lat="46.65924" lon="4.94587">
        <ele>185.8</ele>
        <time>2024-09-18T12:20:16Z</time>
      </trkpt>
      <trkpt lat="46.6592" lon="4.94586">
        <ele>185.6</ele>
        <time>2024-09-18T12:20:17Z</time>
      </trkpt>
      <trkpt lat="46.65916" lon="4.94585">
        <ele>186</ele>
        <time>2024-09-18T12:20:18Z</time>
      </trkpt>
      <trkpt lat="46.65912" lon="4.94584">
        <ele>186</ele>
        <time>2024-09-18T12:20:19Z</time>
      </trkpt>
      <trkpt lat="46.65908" lon="4.94583">
        <ele>186</ele>
        <time>2024-09-18T12:20:20Z</time>
      </trkpt>
      <trkpt lat="46.65903" lon="4.94582">
        <ele>186</ele>
        <time>2024-09-18T12:20:21Z</time>
      </trkpt>
      <trkpt lat="46.65899" lon="4.94581">
        <ele>185.6</ele>
        <time>2024-09-18T12:20:22Z</time>
      </trkpt>
      <trkpt lat="46.65895" lon="4.9458">
        <ele>185.8</ele>
        <time>2024-09-18T12:20:23Z</time>
      </trkpt>
      <trkpt lat="46.65891" lon="4.94579">
        <ele>185.8</ele>
        <time>2024-09-18T12:20:24Z</time>
      </trkpt>
      <trkpt lat="46.65886" lon="4.94578">
        <ele>185.8</ele>
        <time>2024-09-18T12:20:25Z</time>
      </trkpt>
      <trkpt lat="46.65882" lon="4.94578">
        <ele>185.8</ele>
        <time>2024-09-18T12:20:26Z</time>
      </trkpt>
      <trkpt lat="46.65878" lon="4.94577">
        <ele>185.6</ele>
        <time>2024-09-18T12:20:27Z</time>
      </trkpt>
      <trkpt lat="46.65873" lon="4.94576">
        <ele>185.6</ele>
        <time>2024-09-18T12:20:28Z</time>
      </trkpt>
      <trkpt lat="46.65869" lon="4.94575">
        <ele>185.6</ele>
        <time>2024-09-18T12:20:29Z</time>
      </trkpt>
      <trkpt lat="46.65865" lon="4.94573">
        <ele>185.6</ele>
        <time>2024-09-18T12:20:30Z</time>
      </trkpt>
      <trkpt lat="46.6586" lon="4.94572">
        <ele>185.2</ele>
        <time>2024-09-18T12:20:31Z</time>
      </trkpt>
      <trkpt lat="46.65856" lon="4.94571">
        <ele>185.2</ele>
        <time>2024-09-18T12:20:32Z</time>
      </trkpt>
      <trkpt lat="46.65852" lon="4.94571">
        <ele>185.2</ele>
        <time>2024-09-18T12:20:33Z</time>
      </trkpt>
      <trkpt lat="46.65849" lon="4.94572">
        <ele>185.2</ele>
        <time>2024-09-18T12:20:34Z</time>
      </trkpt>
      <trkpt lat="46.65846" lon="4.94575">
        <ele>185.2</ele>
        <time>2024-09-18T12:20:35Z</time>
      </trkpt>
      <trkpt lat="46.65844" lon="4.94579">
        <ele>185.2</ele>
        <time>2024-09-18T12:20:36Z</time>
      </trkpt>
      <trkpt lat="46.65843" lon="4.94584">
        <ele>185.2</ele>
        <time>2024-09-18T12:20:37Z</time>
      </trkpt>
      <trkpt lat="46.65843" lon="4.9459">
        <ele>185.2</ele>
        <time>2024-09-18T12:20:38Z</time>
      </trkpt>
      <trkpt lat="46.65842" lon="4.94595">
        <ele>185.2</ele>
        <time>2024-09-18T12:20:39Z</time>
      </trkpt>
      <trkpt lat="46.65841" lon="4.94601">
        <ele>185.2</ele>
        <time>2024-09-18T12:20:40Z</time>
      </trkpt>
      <trkpt lat="46.65841" lon="4.94607">
        <ele>184.6</ele>
        <time>2024-09-18T12:20:41Z</time>
      </trkpt>
      <trkpt lat="46.6584" lon="4.94613">
        <ele>184.6</ele>
        <time>2024-09-18T12:20:42Z</time>
      </trkpt>
      <trkpt lat="46.6584" lon="4.94619">
        <ele>184.6</ele>
        <time>2024-09-18T12:20:43Z</time>
      </trkpt>
      <trkpt lat="46.6584" lon="4.94625">
        <ele>184.6</ele>
        <time>2024-09-18T12:20:44Z</time>
      </trkpt>
      <trkpt lat="46.65839" lon="4.94631">
        <ele>184.2</ele>
        <time>2024-09-18T12:20:45Z</time>
      </trkpt>
      <trkpt lat="46.65839" lon="4.94637">
        <ele>184.2</ele>
        <time>2024-09-18T12:20:46Z</time>
      </trkpt>
      <trkpt lat="46.65838" lon="4.94644">
        <ele>184.2</ele>
        <time>2024-09-18T12:20:47Z</time>
      </trkpt>
      <trkpt lat="46.65838" lon="4.94651">
        <ele>184.2</ele>
        <time>2024-09-18T12:20:48Z</time>
      </trkpt>
      <trkpt lat="46.65837" lon="4.94658">
        <ele>184</ele>
        <time>2024-09-18T12:20:49Z</time>
      </trkpt>
      <trkpt lat="46.65837" lon="4.94665">
        <ele>183.6</ele>
        <time>2024-09-18T12:20:50Z</time>
      </trkpt>
      <trkpt lat="46.65836" lon="4.94672">
        <ele>183.6</ele>
        <time>2024-09-18T12:20:51Z</time>
      </trkpt>
      <trkpt lat="46.65836" lon="4.94679">
        <ele>183.6</ele>
        <time>2024-09-18T12:20:52Z</time>
      </trkpt>
      <trkpt lat="46.65836" lon="4.94686">
        <ele>183.6</ele>
        <time>2024-09-18T12:20:53Z</time>
      </trkpt>
      <trkpt lat="46.65835" lon="4.94693">
        <ele>183.8</ele>
        <time>2024-09-18T12:20:54Z</time>
      </trkpt>
      <trkpt lat="46.65835" lon="4.947">
        <ele>183.8</ele>
        <time>2024-09-18T12:20:55Z</time>
      </trkpt>
      <trkpt lat="46.65834" lon="4.94708">
        <ele>183.8</ele>
        <time>2024-09-18T12:20:56Z</time>
      </trkpt>
      <trkpt lat="46.65834" lon="4.94714">
        <ele>183.8</ele>
        <time>2024-09-18T12:20:57Z</time>
      </trkpt>
      <trkpt lat="46.65833" lon="4.94721">
        <ele>183.8</ele>
        <time>2024-09-18T12:20:58Z</time>
      </trkpt>
      <trkpt lat="46.65833" lon="4.94728">
        <ele>183.2</ele>
        <time>2024-09-18T12:20:59Z</time>
      </trkpt>
      <trkpt lat="46.65832" lon="4.94734">
        <ele>183.2</ele>
        <time>2024-09-18T12:21:00Z</time>
      </trkpt>
      <trkpt lat="46.65832" lon="4.94741">
        <ele>183.2</ele>
        <time>2024-09-18T12:21:01Z</time>
      </trkpt>
      <trkpt lat="46.65832" lon="4.94747">
        <ele>183.2</ele>
        <time>2024-09-18T12:21:02Z</time>
      </trkpt>
      <trkpt lat="46.65832" lon="4.94754">
        <ele>183.4</ele>
        <time>2024-09-18T12:21:03Z</time>
      </trkpt>
      <trkpt lat="46.65831" lon="4.9476">
        <ele>183.4</ele>
        <time>2024-09-18T12:21:04Z</time>
      </trkpt>
      <trkpt lat="46.65831" lon="4.94766">
        <ele>183.4</ele>
        <time>2024-09-18T12:21:05Z</time>
      </trkpt>
      <trkpt lat="46.6583" lon="4.94772">
        <ele>183.4</ele>
        <time>2024-09-18T12:21:06Z</time>
      </trkpt>
      <trkpt lat="46.6583" lon="4.94778">
        <ele>183.4</ele>
        <time>2024-09-18T12:21:07Z</time>
      </trkpt>
      <trkpt lat="46.65829" lon="4.94784">
        <ele>183.4</ele>
        <time>2024-09-18T12:21:08Z</time>
      </trkpt>
      <trkpt lat="46.65829" lon="4.9479">
        <ele>183.4</ele>
        <time>2024-09-18T12:21:09Z</time>
      </trkpt>
      <trkpt lat="46.6583" lon="4.94797">
        <ele>183.4</ele>
        <time>2024-09-18T12:21:10Z</time>
      </trkpt>
      <trkpt lat="46.65829" lon="4.94803">
        <ele>183.4</ele>
        <time>2024-09-18T12:21:11Z</time>
      </trkpt>
      <trkpt lat="46.65829" lon="4.94809">
        <ele>183</ele>
        <time>2024-09-18T12:21:12Z</time>
      </trkpt>
      <trkpt lat="46.65829" lon="4.94815">
        <ele>183</ele>
        <time>2024-09-18T12:21:13Z</time>
      </trkpt>
      <trkpt lat="46.65828" lon="4.94821">
        <ele>183</ele>
        <time>2024-09-18T12:21:14Z</time>
      </trkpt>
      <trkpt lat="46.65828" lon="4.94828">
        <ele>183</ele>
        <time>2024-09-18T12:21:15Z</time>
      </trkpt>
      <trkpt lat="46.65827" lon="4.94835">
        <ele>183.2</ele>
        <time>2024-09-18T12:21:16Z</time>
      </trkpt>
      <trkpt lat="46.65827" lon="4.94841">
        <ele>183.2</ele>
        <time>2024-09-18T12:21:17Z</time>
      </trkpt>
      <trkpt lat="46.65826" lon="4.94848">
        <ele>183.2</ele>
        <time>2024-09-18T12:21:18Z</time>
      </trkpt>
      <trkpt lat="46.65826" lon="4.94854">
        <ele>183.2</ele>
        <time>2024-09-18T12:21:19Z</time>
      </trkpt>
      <trkpt lat="46.65826" lon="4.94861">
        <ele>183.2</ele>
        <time>2024-09-18T12:21:20Z</time>
      </trkpt>
      <trkpt lat="46.65825" lon="4.94868">
        <ele>183.2</ele>
        <time>2024-09-18T12:21:21Z</time>
      </trkpt>
      <trkpt lat="46.65824" lon="4.94874">
        <ele>183.4</ele>
        <time>2024-09-18T12:21:22Z</time>
      </trkpt>
      <trkpt lat="46.65824" lon="4.94881">
        <ele>183.4</ele>
        <time>2024-09-18T12:21:23Z</time>
      </trkpt>
      <trkpt lat="46.65824" lon="4.94887">
        <ele>183.4</ele>
        <time>2024-09-18T12:21:24Z</time>
      </trkpt>
      <trkpt lat="46.65823" lon="4.94894">
        <ele>183.6</ele>
        <time>2024-09-18T12:21:25Z</time>
      </trkpt>
      <trkpt lat="46.65823" lon="4.949">
        <ele>183.6</ele>
        <time>2024-09-18T12:21:26Z</time>
      </trkpt>
      <trkpt lat="46.65823" lon="4.94906">
        <ele>183.6</ele>
        <time>2024-09-18T12:21:27Z</time>
      </trkpt>
      <trkpt lat="46.65822" lon="4.94913">
        <ele>183.6</ele>
        <time>2024-09-18T12:21:28Z</time>
      </trkpt>
      <trkpt lat="46.65822" lon="4.94919">
        <ele>183.6</ele>
        <time>2024-09-18T12:21:29Z</time>
      </trkpt>
      <trkpt lat="46.65822" lon="4.94925">
        <ele>183.6</ele>
        <time>2024-09-18T12:21:30Z</time>
      </trkpt>
      <trkpt lat="46.65821" lon="4.94931">
        <ele>183.8</ele>
        <time>2024-09-18T12:21:31Z</time>
      </trkpt>
      <trkpt lat="46.65821" lon="4.94938">
        <ele>183.8</ele>
        <time>2024-09-18T12:21:32Z</time>
      </trkpt>
      <trkpt lat="46.65821" lon="4.94944">
        <ele>183.8</ele>
        <time>2024-09-18T12:21:33Z</time>
      </trkpt>
      <trkpt lat="46.6582" lon="4.9495">
        <ele>183.8</ele>
        <time>2024-09-18T12:21:34Z</time>
      </trkpt>
      <trkpt lat="46.6582" lon="4.94956">
        <ele>183.4</ele>
        <time>2024-09-18T12:21:35Z</time>
      </trkpt>
      <trkpt lat="46.6582" lon="4.94962">
        <ele>183.4</ele>
        <time>2024-09-18T12:21:36Z</time>
      </trkpt>
      <trkpt lat="46.6582" lon="4.94968">
        <ele>183.4</ele>
        <time>2024-09-18T12:21:37Z</time>
      </trkpt>
      <trkpt lat="46.6582" lon="4.94974">
        <ele>183.6</ele>
        <time>2024-09-18T12:21:38Z</time>
      </trkpt>
      <trkpt lat="46.6582" lon="4.9498">
        <ele>183.8</ele>
        <time>2024-09-18T12:21:39Z</time>
      </trkpt>
      <trkpt lat="46.65819" lon="4.94986">
        <ele>183.8</ele>
        <time>2024-09-18T12:21:40Z</time>
      </trkpt>
      <trkpt lat="46.6582" lon="4.94992">
        <ele>183.8</ele>
        <time>2024-09-18T12:21:41Z</time>
      </trkpt>
      <trkpt lat="46.6582" lon="4.94999">
        <ele>183.8</ele>
        <time>2024-09-18T12:21:42Z</time>
      </trkpt>
      <trkpt lat="46.6582" lon="4.95005">
        <ele>183.8</ele>
        <time>2024-09-18T12:21:43Z</time>
      </trkpt>
      <trkpt lat="46.6582" lon="4.95011">
        <ele>183.6</ele>
        <time>2024-09-18T12:21:44Z</time>
      </trkpt>
      <trkpt lat="46.6582" lon="4.95017">
        <ele>183.6</ele>
        <time>2024-09-18T12:21:45Z</time>
      </trkpt>
      <trkpt lat="46.6582" lon="4.95023">
        <ele>183.6</ele>
        <time>2024-09-18T12:21:46Z</time>
      </trkpt>
      <trkpt lat="46.6582" lon="4.95029">
        <ele>184</ele>
        <time>2024-09-18T12:21:47Z</time>
      </trkpt>
      <trkpt lat="46.6582" lon="4.95036">
        <ele>184.2</ele>
        <time>2024-09-18T12:21:48Z</time>
      </trkpt>
      <trkpt lat="46.6582" lon="4.95042">
        <ele>184.2</ele>
        <time>2024-09-18T12:21:49Z</time>
      </trkpt>
      <trkpt lat="46.6582" lon="4.95048">
        <ele>184.2</ele>
        <time>2024-09-18T12:21:50Z</time>
      </trkpt>
      <trkpt lat="46.65819" lon="4.95055">
        <ele>183.8</ele>
        <time>2024-09-18T12:21:51Z</time>
      </trkpt>
      <trkpt lat="46.65819" lon="4.95061">
        <ele>183.4</ele>
        <time>2024-09-18T12:21:52Z</time>
      </trkpt>
      <trkpt lat="46.65818" lon="4.95068">
        <ele>183.4</ele>
        <time>2024-09-18T12:21:53Z</time>
      </trkpt>
      <trkpt lat="46.65818" lon="4.95075">
        <ele>183.4</ele>
        <time>2024-09-18T12:21:54Z</time>
      </trkpt>
      <trkpt lat="46.65817" lon="4.95081">
        <ele>183.4</ele>
        <time>2024-09-18T12:21:55Z</time>
      </trkpt>
      <trkpt lat="46.65816" lon="4.95088">
        <ele>183.6</ele>
        <time>2024-09-18T12:21:56Z</time>
      </trkpt>
      <trkpt lat="46.65815" lon="4.95094">
        <ele>183.4</ele>
        <time>2024-09-18T12:21:57Z</time>
      </trkpt>
      <trkpt lat="46.65815" lon="4.95101">
        <ele>183.4</ele>
        <time>2024-09-18T12:21:58Z</time>
      </trkpt>
      <trkpt lat="46.65814" lon="4.95107">
        <ele>183.4</ele>
        <time>2024-09-18T12:21:59Z</time>
      </trkpt>
      <trkpt lat="46.65814" lon="4.95114">
        <ele>183.4</ele>
        <time>2024-09-18T12:22:00Z</time>
      </trkpt>
      <trkpt lat="46.65813" lon="4.9512">
        <ele>182.8</ele>
        <time>2024-09-18T12:22:01Z</time>
      </trkpt>
      <trkpt lat="46.65813" lon="4.95125">
        <ele>182.8</ele>
        <time>2024-09-18T12:22:02Z</time>
      </trkpt>
      <trkpt lat="46.65812" lon="4.95131">
        <ele>182.8</ele>
        <time>2024-09-18T12:22:03Z</time>
      </trkpt>
      <trkpt lat="46.65812" lon="4.95136">
        <ele>182.8</ele>
        <time>2024-09-18T12:22:04Z</time>
      </trkpt>
      <trkpt lat="46.65811" lon="4.95141">
        <ele>182.8</ele>
        <time>2024-09-18T12:22:05Z</time>
      </trkpt>
      <trkpt lat="46.65811" lon="4.95146">
        <ele>182.8</ele>
        <time>2024-09-18T12:22:06Z</time>
      </trkpt>
      <trkpt lat="46.6581" lon="4.95151">
        <ele>183</ele>
        <time>2024-09-18T12:22:07Z</time>
      </trkpt>
      <trkpt lat="46.65809" lon="4.95156">
        <ele>183</ele>
        <time>2024-09-18T12:22:08Z</time>
      </trkpt>
      <trkpt lat="46.65808" lon="4.9516">
        <ele>183</ele>
        <time>2024-09-18T12:22:09Z</time>
      </trkpt>
      <trkpt lat="46.65805" lon="4.95163">
        <ele>183.6</ele>
        <time>2024-09-18T12:22:10Z</time>
      </trkpt>
      <trkpt lat="46.65802" lon="4.95166">
        <ele>183.6</ele>
        <time>2024-09-18T12:22:11Z</time>
      </trkpt>
      <trkpt lat="46.65799" lon="4.95169">
        <ele>183.6</ele>
        <time>2024-09-18T12:22:12Z</time>
      </trkpt>
      <trkpt lat="46.65796" lon="4.95171">
        <ele>183.6</ele>
        <time>2024-09-18T12:22:13Z</time>
      </trkpt>
      <trkpt lat="46.65793" lon="4.95173">
        <ele>183.6</ele>
        <time>2024-09-18T12:22:14Z</time>
      </trkpt>
      <trkpt lat="46.65789" lon="4.95174">
        <ele>183.8</ele>
        <time>2024-09-18T12:22:15Z</time>
      </trkpt>
      <trkpt lat="46.65785" lon="4.95175">
        <ele>184</ele>
        <time>2024-09-18T12:22:16Z</time>
      </trkpt>
      <trkpt lat="46.65782" lon="4.95177">
        <ele>184</ele>
        <time>2024-09-18T12:22:17Z</time>
      </trkpt>
      <trkpt lat="46.65778" lon="4.95178">
        <ele>184</ele>
        <time>2024-09-18T12:22:18Z</time>
      </trkpt>
      <trkpt lat="46.65775" lon="4.95179">
        <ele>183.8</ele>
        <time>2024-09-18T12:22:19Z</time>
      </trkpt>
      <trkpt lat="46.65771" lon="4.95181">
        <ele>184.2</ele>
        <time>2024-09-18T12:22:20Z</time>
      </trkpt>
      <trkpt lat="46.65767" lon="4.95182">
        <ele>184.2</ele>
        <time>2024-09-18T12:22:21Z</time>
      </trkpt>
      <trkpt lat="46.65764" lon="4.95184">
        <ele>184.2</ele>
        <time>2024-09-18T12:22:22Z</time>
      </trkpt>
      <trkpt lat="46.65761" lon="4.95185">
        <ele>184.2</ele>
        <time>2024-09-18T12:22:23Z</time>
      </trkpt>
      <trkpt lat="46.65757" lon="4.95186">
        <ele>184.2</ele>
        <time>2024-09-18T12:22:24Z</time>
      </trkpt>
      <trkpt lat="46.65754" lon="4.95187">
        <ele>184</ele>
        <time>2024-09-18T12:22:25Z</time>
      </trkpt>
      <trkpt lat="46.65751" lon="4.95189">
        <ele>184</ele>
        <time>2024-09-18T12:22:26Z</time>
      </trkpt>
      <trkpt lat="46.65747" lon="4.9519">
        <ele>184</ele>
        <time>2024-09-18T12:22:27Z</time>
      </trkpt>
      <trkpt lat="46.65744" lon="4.95191">
        <ele>184.2</ele>
        <time>2024-09-18T12:22:28Z</time>
      </trkpt>
      <trkpt lat="46.65741" lon="4.95193">
        <ele>184.2</ele>
        <time>2024-09-18T12:22:29Z</time>
      </trkpt>
      <trkpt lat="46.65737" lon="4.95194">
        <ele>184.2</ele>
        <time>2024-09-18T12:22:30Z</time>
      </trkpt>
      <trkpt lat="46.65734" lon="4.95195">
        <ele>184.2</ele>
        <time>2024-09-18T12:22:31Z</time>
      </trkpt>
      <trkpt lat="46.65731" lon="4.95196">
        <ele>184.2</ele>
        <time>2024-09-18T12:22:32Z</time>
      </trkpt>
      <trkpt lat="46.65728" lon="4.95197">
        <ele>184.2</ele>
        <time>2024-09-18T12:22:33Z</time>
      </trkpt>
      <trkpt lat="46.65724" lon="4.95198">
        <ele>184</ele>
        <time>2024-09-18T12:22:34Z</time>
      </trkpt>
      <trkpt lat="46.65721" lon="4.95199">
        <ele>184</ele>
        <time>2024-09-18T12:22:35Z</time>
      </trkpt>
      <trkpt lat="46.65718" lon="4.952">
        <ele>184</ele>
        <time>2024-09-18T12:22:36Z</time>
      </trkpt>
      <trkpt lat="46.65714" lon="4.95201">
        <ele>184</ele>
        <time>2024-09-18T12:22:37Z</time>
      </trkpt>
      <trkpt lat="46.65711" lon="4.95202">
        <ele>184.4</ele>
        <time>2024-09-18T12:22:38Z</time>
      </trkpt>
      <trkpt lat="46.65708" lon="4.95203">
        <ele>184.4</ele>
        <time>2024-09-18T12:22:39Z</time>
      </trkpt>
      <trkpt lat="46.65704" lon="4.95204">
        <ele>184.4</ele>
        <time>2024-09-18T12:22:40Z</time>
      </trkpt>
      <trkpt lat="46.65701" lon="4.95206">
        <ele>184</ele>
        <time>2024-09-18T12:22:41Z</time>
      </trkpt>
      <trkpt lat="46.65698" lon="4.95208">
        <ele>184</ele>
        <time>2024-09-18T12:22:42Z</time>
      </trkpt>
      <trkpt lat="46.65694" lon="4.95209">
        <ele>184</ele>
        <time>2024-09-18T12:22:43Z</time>
      </trkpt>
      <trkpt lat="46.65691" lon="4.95211">
        <ele>184</ele>
        <time>2024-09-18T12:22:44Z</time>
      </trkpt>
      <trkpt lat="46.65687" lon="4.95213">
        <ele>184</ele>
        <time>2024-09-18T12:22:45Z</time>
      </trkpt>
      <trkpt lat="46.65683" lon="4.95214">
        <ele>184</ele>
        <time>2024-09-18T12:22:46Z</time>
      </trkpt>
      <trkpt lat="46.65679" lon="4.95216">
        <ele>184</ele>
        <time>2024-09-18T12:22:47Z</time>
      </trkpt>
      <trkpt lat="46.65675" lon="4.95217">
        <ele>184</ele>
        <time>2024-09-18T12:22:48Z</time>
      </trkpt>
      <trkpt lat="46.6567" lon="4.95218">
        <ele>184</ele>
        <time>2024-09-18T12:22:49Z</time>
      </trkpt>
      <trkpt lat="46.65666" lon="4.9522">
        <ele>184</ele>
        <time>2024-09-18T12:22:50Z</time>
      </trkpt>
      <trkpt lat="46.65661" lon="4.95221">
        <ele>184</ele>
        <time>2024-09-18T12:22:51Z</time>
      </trkpt>
      <trkpt lat="46.65657" lon="4.95222">
        <ele>184</ele>
        <time>2024-09-18T12:22:52Z</time>
      </trkpt>
      <trkpt lat="46.65652" lon="4.95223">
        <ele>183.8</ele>
        <time>2024-09-18T12:22:53Z</time>
      </trkpt>
      <trkpt lat="46.65648" lon="4.95225">
        <ele>183.8</ele>
        <time>2024-09-18T12:22:54Z</time>
      </trkpt>
      <trkpt lat="46.65644" lon="4.95226">
        <ele>183.8</ele>
        <time>2024-09-18T12:22:55Z</time>
      </trkpt>
      <trkpt lat="46.65639" lon="4.95227">
        <ele>183.8</ele>
        <time>2024-09-18T12:22:56Z</time>
      </trkpt>
      <trkpt lat="46.65635" lon="4.95229">
        <ele>184</ele>
        <time>2024-09-18T12:22:57Z</time>
      </trkpt>
      <trkpt lat="46.6563" lon="4.95231">
        <ele>184</ele>
        <time>2024-09-18T12:22:58Z</time>
      </trkpt>
      <trkpt lat="46.65626" lon="4.95232">
        <ele>184</ele>
        <time>2024-09-18T12:22:59Z</time>
      </trkpt>
      <trkpt lat="46.65621" lon="4.95234">
        <ele>184</ele>
        <time>2024-09-18T12:23:00Z</time>
      </trkpt>
      <trkpt lat="46.65617" lon="4.95235">
        <ele>183.8</ele>
        <time>2024-09-18T12:23:01Z</time>
      </trkpt>
      <trkpt lat="46.65612" lon="4.95236">
        <ele>183.8</ele>
        <time>2024-09-18T12:23:02Z</time>
      </trkpt>
      <trkpt lat="46.65608" lon="4.95237">
        <ele>183.8</ele>
        <time>2024-09-18T12:23:03Z</time>
      </trkpt>
      <trkpt lat="46.65603" lon="4.95239">
        <ele>184.2</ele>
        <time>2024-09-18T12:23:04Z</time>
      </trkpt>
      <trkpt lat="46.65599" lon="4.9524">
        <ele>184.2</ele>
        <time>2024-09-18T12:23:05Z</time>
      </trkpt>
      <trkpt lat="46.65594" lon="4.95241">
        <ele>184.4</ele>
        <time>2024-09-18T12:23:06Z</time>
      </trkpt>
      <trkpt lat="46.6559" lon="4.95242">
        <ele>184.4</ele>
        <time>2024-09-18T12:23:07Z</time>
      </trkpt>
      <trkpt lat="46.65585" lon="4.95243">
        <ele>184.4</ele>
        <time>2024-09-18T12:23:08Z</time>
      </trkpt>
      <trkpt lat="46.65581" lon="4.95244">
        <ele>184.2</ele>
        <time>2024-09-18T12:23:09Z</time>
      </trkpt>
      <trkpt lat="46.65577" lon="4.95244">
        <ele>184.2</ele>
        <time>2024-09-18T12:23:10Z</time>
      </trkpt>
      <trkpt lat="46.65573" lon="4.95245">
        <ele>184.2</ele>
        <time>2024-09-18T12:23:11Z</time>
      </trkpt>
      <trkpt lat="46.65569" lon="4.95245">
        <ele>184.2</ele>
        <time>2024-09-18T12:23:12Z</time>
      </trkpt>
      <trkpt lat="46.65564" lon="4.95246">
        <ele>184.4</ele>
        <time>2024-09-18T12:23:13Z</time>
      </trkpt>
      <trkpt lat="46.6556" lon="4.95246">
        <ele>184.4</ele>
        <time>2024-09-18T12:23:14Z</time>
      </trkpt>
      <trkpt lat="46.65556" lon="4.95247">
        <ele>184.4</ele>
        <time>2024-09-18T12:23:15Z</time>
      </trkpt>
      <trkpt lat="46.65552" lon="4.95247">
        <ele>184.4</ele>
        <time>2024-09-18T12:23:16Z</time>
      </trkpt>
      <trkpt lat="46.65548" lon="4.95248">
        <ele>184.2</ele>
        <time>2024-09-18T12:23:17Z</time>
      </trkpt>
      <trkpt lat="46.65544" lon="4.95248">
        <ele>184.2</ele>
        <time>2024-09-18T12:23:18Z</time>
      </trkpt>
      <trkpt lat="46.65539" lon="4.95248">
        <ele>184.4</ele>
        <time>2024-09-18T12:23:19Z</time>
      </trkpt>
      <trkpt lat="46.65535" lon="4.95249">
        <ele>184.4</ele>
        <time>2024-09-18T12:23:20Z</time>
      </trkpt>
      <trkpt lat="46.65531" lon="4.95249">
        <ele>184.4</ele>
        <time>2024-09-18T12:23:21Z</time>
      </trkpt>
      <trkpt lat="46.65526" lon="4.9525">
        <ele>184.4</ele>
        <time>2024-09-18T12:23:22Z</time>
      </trkpt>
      <trkpt lat="46.65522" lon="4.9525">
        <ele>184.4</ele>
        <time>2024-09-18T12:23:23Z</time>
      </trkpt>
      <trkpt lat="46.65518" lon="4.9525">
        <ele>184.4</ele>
        <time>2024-09-18T12:23:24Z</time>
      </trkpt>
      <trkpt lat="46.65513" lon="4.9525">
        <ele>184.4</ele>
        <time>2024-09-18T12:23:25Z</time>
      </trkpt>
      <trkpt lat="46.65509" lon="4.95251">
        <ele>184.8</ele>
        <time>2024-09-18T12:23:26Z</time>
      </trkpt>
      <trkpt lat="46.65505" lon="4.95251">
        <ele>184.4</ele>
        <time>2024-09-18T12:23:27Z</time>
      </trkpt>
      <trkpt lat="46.655" lon="4.95252">
        <ele>184.4</ele>
        <time>2024-09-18T12:23:28Z</time>
      </trkpt>
      <trkpt lat="46.65496" lon="4.95252">
        <ele>184.4</ele>
        <time>2024-09-18T12:23:29Z</time>
      </trkpt>
      <trkpt lat="46.65492" lon="4.95253">
        <ele>184.4</ele>
        <time>2024-09-18T12:23:30Z</time>
      </trkpt>
      <trkpt lat="46.65487" lon="4.95253">
        <ele>184.6</ele>
        <time>2024-09-18T12:23:31Z</time>
      </trkpt>
      <trkpt lat="46.65483" lon="4.95254">
        <ele>184.6</ele>
        <time>2024-09-18T12:23:32Z</time>
      </trkpt>
      <trkpt lat="46.65479" lon="4.95254">
        <ele>184.6</ele>
        <time>2024-09-18T12:23:33Z</time>
      </trkpt>
      <trkpt lat="46.65475" lon="4.95254">
        <ele>184.6</ele>
        <time>2024-09-18T12:23:34Z</time>
      </trkpt>
      <trkpt lat="46.6547" lon="4.95255">
        <ele>184.6</ele>
        <time>2024-09-18T12:23:35Z</time>
      </trkpt>
      <trkpt lat="46.65466" lon="4.95255">
        <ele>184.8</ele>
        <time>2024-09-18T12:23:36Z</time>
      </trkpt>
      <trkpt lat="46.65463" lon="4.95256">
        <ele>185</ele>
        <time>2024-09-18T12:23:37Z</time>
      </trkpt>
      <trkpt lat="46.65459" lon="4.95257">
        <ele>185</ele>
        <time>2024-09-18T12:23:38Z</time>
      </trkpt>
      <trkpt lat="46.65455" lon="4.95257">
        <ele>185</ele>
        <time>2024-09-18T12:23:39Z</time>
      </trkpt>
      <trkpt lat="46.65451" lon="4.95258">
        <ele>185</ele>
        <time>2024-09-18T12:23:40Z</time>
      </trkpt>
      <trkpt lat="46.65448" lon="4.9526">
        <ele>185</ele>
        <time>2024-09-18T12:23:41Z</time>
      </trkpt>
      <trkpt lat="46.65444" lon="4.95261">
        <ele>184.8</ele>
        <time>2024-09-18T12:23:42Z</time>
      </trkpt>
      <trkpt lat="46.65441" lon="4.95261">
        <ele>184.8</ele>
        <time>2024-09-18T12:23:43Z</time>
      </trkpt>
      <trkpt lat="46.65437" lon="4.95262">
        <ele>184.8</ele>
        <time>2024-09-18T12:23:44Z</time>
      </trkpt>
      <trkpt lat="46.65433" lon="4.95262">
        <ele>184.8</ele>
        <time>2024-09-18T12:23:45Z</time>
      </trkpt>
      <trkpt lat="46.65429" lon="4.95262">
        <ele>184.8</ele>
        <time>2024-09-18T12:23:46Z</time>
      </trkpt>
      <trkpt lat="46.65425" lon="4.95262">
        <ele>184.8</ele>
        <time>2024-09-18T12:23:47Z</time>
      </trkpt>
      <trkpt lat="46.65421" lon="4.95262">
        <ele>184.8</ele>
        <time>2024-09-18T12:23:48Z</time>
      </trkpt>
      <trkpt lat="46.65418" lon="4.95262">
        <ele>184.8</ele>
        <time>2024-09-18T12:23:49Z</time>
      </trkpt>
      <trkpt lat="46.65415" lon="4.95261">
        <ele>184.8</ele>
        <time>2024-09-18T12:23:50Z</time>
      </trkpt>
      <trkpt lat="46.65413" lon="4.95261">
        <ele>184.8</ele>
        <time>2024-09-18T12:23:51Z</time>
      </trkpt>
      <trkpt lat="46.65412" lon="4.9526">
        <ele>184.8</ele>
        <time>2024-09-18T12:23:52Z</time>
      </trkpt>
      <trkpt lat="46.6541" lon="4.9526">
        <ele>184.4</ele>
        <time>2024-09-18T12:23:53Z</time>
      </trkpt>
      <trkpt lat="46.65408" lon="4.95261">
        <ele>184.4</ele>
        <time>2024-09-18T12:23:54Z</time>
      </trkpt>
      <trkpt lat="46.65406" lon="4.95262">
        <ele>184.4</ele>
        <time>2024-09-18T12:23:55Z</time>
      </trkpt>
      <trkpt lat="46.65404" lon="4.95263">
        <ele>184.4</ele>
        <time>2024-09-18T12:23:56Z</time>
      </trkpt>
      <trkpt lat="46.65402" lon="4.95263">
        <ele>184.4</ele>
        <time>2024-09-18T12:23:57Z</time>
      </trkpt>
      <trkpt lat="46.65399" lon="4.95263">
        <ele>184.4</ele>
        <time>2024-09-18T12:23:58Z</time>
      </trkpt>
      <trkpt lat="46.65396" lon="4.95264">
        <ele>184.4</ele>
        <time>2024-09-18T12:23:59Z</time>
      </trkpt>
      <trkpt lat="46.65393" lon="4.95265">
        <ele>184.4</ele>
        <time>2024-09-18T12:24:00Z</time>
      </trkpt>
      <trkpt lat="46.6539" lon="4.95266">
        <ele>184.4</ele>
        <time>2024-09-18T12:24:01Z</time>
      </trkpt>
      <trkpt lat="46.65388" lon="4.95267">
        <ele>184.4</ele>
        <time>2024-09-18T12:24:02Z</time>
      </trkpt>
      <trkpt lat="46.65385" lon="4.95268">
        <ele>184</ele>
        <time>2024-09-18T12:24:03Z</time>
      </trkpt>
      <trkpt lat="46.65382" lon="4.95268">
        <ele>184</ele>
        <time>2024-09-18T12:24:04Z</time>
      </trkpt>
      <trkpt lat="46.6538" lon="4.95268">
        <ele>184</ele>
        <time>2024-09-18T12:24:05Z</time>
      </trkpt>
      <trkpt lat="46.65377" lon="4.95269">
        <ele>184</ele>
        <time>2024-09-18T12:24:06Z</time>
      </trkpt>
      <trkpt lat="46.65374" lon="4.9527">
        <ele>184</ele>
        <time>2024-09-18T12:24:07Z</time>
      </trkpt>
      <trkpt lat="46.65371" lon="4.95271">
        <ele>183.8</ele>
        <time>2024-09-18T12:24:08Z</time>
      </trkpt>
      <trkpt lat="46.65368" lon="4.95271">
        <ele>183.8</ele>
        <time>2024-09-18T12:24:09Z</time>
      </trkpt>
      <trkpt lat="46.65365" lon="4.95272">
        <ele>183.8</ele>
        <time>2024-09-18T12:24:10Z</time>
      </trkpt>
      <trkpt lat="46.65362" lon="4.95273">
        <ele>183.8</ele>
        <time>2024-09-18T12:24:11Z</time>
      </trkpt>
      <trkpt lat="46.65358" lon="4.95273">
        <ele>184</ele>
        <time>2024-09-18T12:24:12Z</time>
      </trkpt>
      <trkpt lat="46.65355" lon="4.95273">
        <ele>183.8</ele>
        <time>2024-09-18T12:24:13Z</time>
      </trkpt>
      <trkpt lat="46.65351" lon="4.95274">
        <ele>183.8</ele>
        <time>2024-09-18T12:24:14Z</time>
      </trkpt>
      <trkpt lat="46.65347" lon="4.95274">
        <ele>183.8</ele>
        <time>2024-09-18T12:24:15Z</time>
      </trkpt>
      <trkpt lat="46.65343" lon="4.95275">
        <ele>183.8</ele>
        <time>2024-09-18T12:24:16Z</time>
      </trkpt>
      <trkpt lat="46.6534" lon="4.95275">
        <ele>183.8</ele>
        <time>2024-09-18T12:24:17Z</time>
      </trkpt>
      <trkpt lat="46.65336" lon="4.95275">
        <ele>184.2</ele>
        <time>2024-09-18T12:24:18Z</time>
      </trkpt>
      <trkpt lat="46.65332" lon="4.95275">
        <ele>184.2</ele>
        <time>2024-09-18T12:24:19Z</time>
      </trkpt>
      <trkpt lat="46.65328" lon="4.95276">
        <ele>184.2</ele>
        <time>2024-09-18T12:24:20Z</time>
      </trkpt>
      <trkpt lat="46.65324" lon="4.95276">
        <ele>184.2</ele>
        <time>2024-09-18T12:24:21Z</time>
      </trkpt>
      <trkpt lat="46.65321" lon="4.95277">
        <ele>184.2</ele>
        <time>2024-09-18T12:24:22Z</time>
      </trkpt>
      <trkpt lat="46.65317" lon="4.95277">
        <ele>184.2</ele>
        <time>2024-09-18T12:24:23Z</time>
      </trkpt>
      <trkpt lat="46.65313" lon="4.95277">
        <ele>184.2</ele>
        <time>2024-09-18T12:24:24Z</time>
      </trkpt>
      <trkpt lat="46.65309" lon="4.95277">
        <ele>184.2</ele>
        <time>2024-09-18T12:24:25Z</time>
      </trkpt>
      <trkpt lat="46.65305" lon="4.95277">
        <ele>184.2</ele>
        <time>2024-09-18T12:24:26Z</time>
      </trkpt>
      <trkpt lat="46.653" lon="4.95277">
        <ele>184.4</ele>
        <time>2024-09-18T12:24:27Z</time>
      </trkpt>
      <trkpt lat="46.65296" lon="4.95277">
        <ele>184.4</ele>
        <time>2024-09-18T12:24:28Z</time>
      </trkpt>
      <trkpt lat="46.65292" lon="4.95278">
        <ele>184.4</ele>
        <time>2024-09-18T12:24:29Z</time>
      </trkpt>
      <trkpt lat="46.65288" lon="4.95278">
        <ele>184.4</ele>
        <time>2024-09-18T12:24:30Z</time>
      </trkpt>
      <trkpt lat="46.65284" lon="4.95278">
        <ele>184.4</ele>
        <time>2024-09-18T12:24:31Z</time>
      </trkpt>
      <trkpt lat="46.6528" lon="4.95278">
        <ele>184.4</ele>
        <time>2024-09-18T12:24:32Z</time>
      </trkpt>
      <trkpt lat="46.65275" lon="4.95278">
        <ele>184.4</ele>
        <time>2024-09-18T12:24:33Z</time>
      </trkpt>
      <trkpt lat="46.65271" lon="4.95278">
        <ele>184.4</ele>
        <time>2024-09-18T12:24:34Z</time>
      </trkpt>
      <trkpt lat="46.65266" lon="4.95279">
        <ele>184.2</ele>
        <time>2024-09-18T12:24:35Z</time>
      </trkpt>
      <trkpt lat="46.65262" lon="4.95279">
        <ele>184.2</ele>
        <time>2024-09-18T12:24:36Z</time>
      </trkpt>
      <trkpt lat="46.65258" lon="4.95279">
        <ele>184.2</ele>
        <time>2024-09-18T12:24:37Z</time>
      </trkpt>
      <trkpt lat="46.65253" lon="4.9528">
        <ele>184.2</ele>
        <time>2024-09-18T12:24:38Z</time>
      </trkpt>
      <trkpt lat="46.65249" lon="4.9528">
        <ele>184.6</ele>
        <time>2024-09-18T12:24:39Z</time>
      </trkpt>
      <trkpt lat="46.65245" lon="4.95281">
        <ele>184.6</ele>
        <time>2024-09-18T12:24:40Z</time>
      </trkpt>
      <trkpt lat="46.6524" lon="4.95281">
        <ele>184.6</ele>
        <time>2024-09-18T12:24:41Z</time>
      </trkpt>
      <trkpt lat="46.65236" lon="4.95281">
        <ele>184.6</ele>
        <time>2024-09-18T12:24:42Z</time>
      </trkpt>
      <trkpt lat="46.65232" lon="4.95281">
        <ele>184.4</ele>
        <time>2024-09-18T12:24:43Z</time>
      </trkpt>
      <trkpt lat="46.65227" lon="4.95281">
        <ele>184.4</ele>
        <time>2024-09-18T12:24:44Z</time>
      </trkpt>
      <trkpt lat="46.65223" lon="4.95281">
        <ele>184.4</ele>
        <time>2024-09-18T12:24:45Z</time>
      </trkpt>
      <trkpt lat="46.65219" lon="4.95282">
        <ele>184.4</ele>
        <time>2024-09-18T12:24:46Z</time>
      </trkpt>
      <trkpt lat="46.65215" lon="4.95282">
        <ele>184.4</ele>
        <time>2024-09-18T12:24:47Z</time>
      </trkpt>
      <trkpt lat="46.65212" lon="4.95283">
        <ele>184.4</ele>
        <time>2024-09-18T12:24:48Z</time>
      </trkpt>
      <trkpt lat="46.65208" lon="4.95283">
        <ele>184.4</ele>
        <time>2024-09-18T12:24:49Z</time>
      </trkpt>
      <trkpt lat="46.65204" lon="4.95283">
        <ele>184.4</ele>
        <time>2024-09-18T12:24:50Z</time>
      </trkpt>
      <trkpt lat="46.652" lon="4.95284">
        <ele>184.4</ele>
        <time>2024-09-18T12:24:51Z</time>
      </trkpt>
      <trkpt lat="46.65197" lon="4.95285">
        <ele>184.4</ele>
        <time>2024-09-18T12:24:52Z</time>
      </trkpt>
      <trkpt lat="46.65193" lon="4.95286">
        <ele>184.4</ele>
        <time>2024-09-18T12:24:53Z</time>
      </trkpt>
      <trkpt lat="46.65189" lon="4.95287">
        <ele>184.4</ele>
        <time>2024-09-18T12:24:54Z</time>
      </trkpt>
      <trkpt lat="46.65185" lon="4.95288">
        <ele>184.4</ele>
        <time>2024-09-18T12:24:55Z</time>
      </trkpt>
      <trkpt lat="46.65181" lon="4.95289">
        <ele>184.4</ele>
        <time>2024-09-18T12:24:56Z</time>
      </trkpt>
      <trkpt lat="46.65178" lon="4.9529">
        <ele>184.4</ele>
        <time>2024-09-18T12:24:57Z</time>
      </trkpt>
      <trkpt lat="46.65174" lon="4.9529">
        <ele>184.4</ele>
        <time>2024-09-18T12:24:58Z</time>
      </trkpt>
      <trkpt lat="46.65171" lon="4.9529">
        <ele>184.6</ele>
        <time>2024-09-18T12:24:59Z</time>
      </trkpt>
      <trkpt lat="46.65167" lon="4.95291">
        <ele>184.6</ele>
        <time>2024-09-18T12:25:00Z</time>
      </trkpt>
      <trkpt lat="46.65164" lon="4.95291">
        <ele>185</ele>
        <time>2024-09-18T12:25:01Z</time>
      </trkpt>
      <trkpt lat="46.65161" lon="4.95291">
        <ele>185.2</ele>
        <time>2024-09-18T12:25:02Z</time>
      </trkpt>
      <trkpt lat="46.65158" lon="4.95291">
        <ele>185.2</ele>
        <time>2024-09-18T12:25:03Z</time>
      </trkpt>
      <trkpt lat="46.65155" lon="4.95292">
        <ele>185.2</ele>
        <time>2024-09-18T12:25:04Z</time>
      </trkpt>
      <trkpt lat="46.65151" lon="4.95292">
        <ele>185.2</ele>
        <time>2024-09-18T12:25:05Z</time>
      </trkpt>
      <trkpt lat="46.65148" lon="4.95292">
        <ele>185.2</ele>
        <time>2024-09-18T12:25:06Z</time>
      </trkpt>
      <trkpt lat="46.65144" lon="4.95292">
        <ele>185.8</ele>
        <time>2024-09-18T12:25:07Z</time>
      </trkpt>
      <trkpt lat="46.6514" lon="4.95293">
        <ele>185.8</ele>
        <time>2024-09-18T12:25:08Z</time>
      </trkpt>
      <trkpt lat="46.65137" lon="4.95293">
        <ele>185.8</ele>
        <time>2024-09-18T12:25:09Z</time>
      </trkpt>
      <trkpt lat="46.65133" lon="4.95294">
        <ele>185.8</ele>
        <time>2024-09-18T12:25:10Z</time>
      </trkpt>
      <trkpt lat="46.65129" lon="4.95295">
        <ele>186</ele>
        <time>2024-09-18T12:25:11Z</time>
      </trkpt>
      <trkpt lat="46.65125" lon="4.95296">
        <ele>186</ele>
        <time>2024-09-18T12:25:12Z</time>
      </trkpt>
      <trkpt lat="46.65121" lon="4.95297">
        <ele>186</ele>
        <time>2024-09-18T12:25:13Z</time>
      </trkpt>
      <trkpt lat="46.65117" lon="4.95298">
        <ele>185.6</ele>
        <time>2024-09-18T12:25:14Z</time>
      </trkpt>
      <trkpt lat="46.65113" lon="4.95299">
        <ele>185.6</ele>
        <time>2024-09-18T12:25:15Z</time>
      </trkpt>
      <trkpt lat="46.6511" lon="4.95301">
        <ele>185.4</ele>
        <time>2024-09-18T12:25:16Z</time>
      </trkpt>
      <trkpt lat="46.65106" lon="4.95302">
        <ele>185.4</ele>
        <time>2024-09-18T12:25:17Z</time>
      </trkpt>
      <trkpt lat="46.65102" lon="4.95303">
        <ele>185.4</ele>
        <time>2024-09-18T12:25:18Z</time>
      </trkpt>
      <trkpt lat="46.65098" lon="4.95304">
        <ele>185.6</ele>
        <time>2024-09-18T12:25:19Z</time>
      </trkpt>
      <trkpt lat="46.65095" lon="4.95306">
        <ele>185.6</ele>
        <time>2024-09-18T12:25:20Z</time>
      </trkpt>
      <trkpt lat="46.65091" lon="4.95307">
        <ele>185.6</ele>
        <time>2024-09-18T12:25:21Z</time>
      </trkpt>
      <trkpt lat="46.65087" lon="4.95309">
        <ele>185.6</ele>
        <time>2024-09-18T12:25:22Z</time>
      </trkpt>
      <trkpt lat="46.65084" lon="4.95311">
        <ele>185.6</ele>
        <time>2024-09-18T12:25:23Z</time>
      </trkpt>
      <trkpt lat="46.6508" lon="4.95312">
        <ele>185.6</ele>
        <time>2024-09-18T12:25:24Z</time>
      </trkpt>
      <trkpt lat="46.65076" lon="4.95314">
        <ele>185.6</ele>
        <time>2024-09-18T12:25:25Z</time>
      </trkpt>
      <trkpt lat="46.65072" lon="4.95315">
        <ele>185.6</ele>
        <time>2024-09-18T12:25:26Z</time>
      </trkpt>
      <trkpt lat="46.65068" lon="4.95316">
        <ele>185.6</ele>
        <time>2024-09-18T12:25:27Z</time>
      </trkpt>
      <trkpt lat="46.65064" lon="4.95317">
        <ele>185.8</ele>
        <time>2024-09-18T12:25:28Z</time>
      </trkpt>
      <trkpt lat="46.6506" lon="4.95318">
        <ele>185.8</ele>
        <time>2024-09-18T12:25:29Z</time>
      </trkpt>
      <trkpt lat="46.65056" lon="4.95319">
        <ele>185.8</ele>
        <time>2024-09-18T12:25:30Z</time>
      </trkpt>
      <trkpt lat="46.65052" lon="4.9532">
        <ele>185.8</ele>
        <time>2024-09-18T12:25:31Z</time>
      </trkpt>
      <trkpt lat="46.65048" lon="4.9532">
        <ele>186</ele>
        <time>2024-09-18T12:25:32Z</time>
      </trkpt>
      <trkpt lat="46.65044" lon="4.9532">
        <ele>186.2</ele>
        <time>2024-09-18T12:25:33Z</time>
      </trkpt>
      <trkpt lat="46.6504" lon="4.9532">
        <ele>186.2</ele>
        <time>2024-09-18T12:25:34Z</time>
      </trkpt>
      <trkpt lat="46.65036" lon="4.95321">
        <ele>186.2</ele>
        <time>2024-09-18T12:25:35Z</time>
      </trkpt>
      <trkpt lat="46.65032" lon="4.95321">
        <ele>186.2</ele>
        <time>2024-09-18T12:25:36Z</time>
      </trkpt>
      <trkpt lat="46.65027" lon="4.95322">
        <ele>186.2</ele>
        <time>2024-09-18T12:25:37Z</time>
      </trkpt>
      <trkpt lat="46.65023" lon="4.95323">
        <ele>186.2</ele>
        <time>2024-09-18T12:25:38Z</time>
      </trkpt>
      <trkpt lat="46.65019" lon="4.95324">
        <ele>185.6</ele>
        <time>2024-09-18T12:25:39Z</time>
      </trkpt>
      <trkpt lat="46.65014" lon="4.95324">
        <ele>185.6</ele>
        <time>2024-09-18T12:25:40Z</time>
      </trkpt>
      <trkpt lat="46.6501" lon="4.95325">
        <ele>185.6</ele>
        <time>2024-09-18T12:25:41Z</time>
      </trkpt>
      <trkpt lat="46.65006" lon="4.95325">
        <ele>186.4</ele>
        <time>2024-09-18T12:25:42Z</time>
      </trkpt>
      <trkpt lat="46.65001" lon="4.95325">
        <ele>186.4</ele>
        <time>2024-09-18T12:25:43Z</time>
      </trkpt>
      <trkpt lat="46.64997" lon="4.95326">
        <ele>185.8</ele>
        <time>2024-09-18T12:25:44Z</time>
      </trkpt>
      <trkpt lat="46.64993" lon="4.95326">
        <ele>185.8</ele>
        <time>2024-09-18T12:25:45Z</time>
      </trkpt>
      <trkpt lat="46.64988" lon="4.95327">
        <ele>185.8</ele>
        <time>2024-09-18T12:25:46Z</time>
      </trkpt>
      <trkpt lat="46.64983" lon="4.95327">
        <ele>185.8</ele>
        <time>2024-09-18T12:25:47Z</time>
      </trkpt>
      <trkpt lat="46.64979" lon="4.95327">
        <ele>185.8</ele>
        <time>2024-09-18T12:25:48Z</time>
      </trkpt>
      <trkpt lat="46.64975" lon="4.95327">
        <ele>185.8</ele>
        <time>2024-09-18T12:25:49Z</time>
      </trkpt>
      <trkpt lat="46.6497" lon="4.95328">
        <ele>185.8</ele>
        <time>2024-09-18T12:25:50Z</time>
      </trkpt>
      <trkpt lat="46.64965" lon="4.95328">
        <ele>185.8</ele>
        <time>2024-09-18T12:25:51Z</time>
      </trkpt>
      <trkpt lat="46.64961" lon="4.95329">
        <ele>185.6</ele>
        <time>2024-09-18T12:25:52Z</time>
      </trkpt>
      <trkpt lat="46.64956" lon="4.95329">
        <ele>185.6</ele>
        <time>2024-09-18T12:25:53Z</time>
      </trkpt>
      <trkpt lat="46.64952" lon="4.95329">
        <ele>185.6</ele>
        <time>2024-09-18T12:25:54Z</time>
      </trkpt>
      <trkpt lat="46.64947" lon="4.9533">
        <ele>185.6</ele>
        <time>2024-09-18T12:25:55Z</time>
      </trkpt>
      <trkpt lat="46.64942" lon="4.9533">
        <ele>186.2</ele>
        <time>2024-09-18T12:25:56Z</time>
      </trkpt>
      <trkpt lat="46.64938" lon="4.95331">
        <ele>186.2</ele>
        <time>2024-09-18T12:25:57Z</time>
      </trkpt>
      <trkpt lat="46.64933" lon="4.95332">
        <ele>186.2</ele>
        <time>2024-09-18T12:25:58Z</time>
      </trkpt>
      <trkpt lat="46.64928" lon="4.95332">
        <ele>186.2</ele>
        <time>2024-09-18T12:25:59Z</time>
      </trkpt>
      <trkpt lat="46.64924" lon="4.95332">
        <ele>185.4</ele>
        <time>2024-09-18T12:26:00Z</time>
      </trkpt>
      <trkpt lat="46.6492" lon="4.95333">
        <ele>185.8</ele>
        <time>2024-09-18T12:26:01Z</time>
      </trkpt>
      <trkpt lat="46.64916" lon="4.95333">
        <ele>185.8</ele>
        <time>2024-09-18T12:26:02Z</time>
      </trkpt>
      <trkpt lat="46.64912" lon="4.95333">
        <ele>185.8</ele>
        <time>2024-09-18T12:26:03Z</time>
      </trkpt>
      <trkpt lat="46.64908" lon="4.95333">
        <ele>185.8</ele>
        <time>2024-09-18T12:26:04Z</time>
      </trkpt>
      <trkpt lat="46.64904" lon="4.95333">
        <ele>185.6</ele>
        <time>2024-09-18T12:26:05Z</time>
      </trkpt>
      <trkpt lat="46.649" lon="4.95333">
        <ele>185.6</ele>
        <time>2024-09-18T12:26:06Z</time>
      </trkpt>
      <trkpt lat="46.64896" lon="4.95334">
        <ele>185.6</ele>
        <time>2024-09-18T12:26:07Z</time>
      </trkpt>
      <trkpt lat="46.64891" lon="4.95334">
        <ele>185.6</ele>
        <time>2024-09-18T12:26:08Z</time>
      </trkpt>
      <trkpt lat="46.64887" lon="4.95335">
        <ele>185.8</ele>
        <time>2024-09-18T12:26:09Z</time>
      </trkpt>
      <trkpt lat="46.64883" lon="4.95335">
        <ele>185.6</ele>
        <time>2024-09-18T12:26:10Z</time>
      </trkpt>
      <trkpt lat="46.64879" lon="4.95336">
        <ele>185.6</ele>
        <time>2024-09-18T12:26:11Z</time>
      </trkpt>
      <trkpt lat="46.64874" lon="4.95336">
        <ele>185.6</ele>
        <time>2024-09-18T12:26:12Z</time>
      </trkpt>
      <trkpt lat="46.6487" lon="4.95336">
        <ele>185.6</ele>
        <time>2024-09-18T12:26:13Z</time>
      </trkpt>
      <trkpt lat="46.64865" lon="4.95337">
        <ele>185.6</ele>
        <time>2024-09-18T12:26:14Z</time>
      </trkpt>
      <trkpt lat="46.64861" lon="4.95337">
        <ele>185.6</ele>
        <time>2024-09-18T12:26:15Z</time>
      </trkpt>
      <trkpt lat="46.64856" lon="4.95338">
        <ele>185.6</ele>
        <time>2024-09-18T12:26:16Z</time>
      </trkpt>
      <trkpt lat="46.64852" lon="4.95338">
        <ele>185.6</ele>
        <time>2024-09-18T12:26:17Z</time>
      </trkpt>
      <trkpt lat="46.64847" lon="4.95338">
        <ele>185.4</ele>
        <time>2024-09-18T12:26:18Z</time>
      </trkpt>
      <trkpt lat="46.64843" lon="4.95338">
        <ele>185.4</ele>
        <time>2024-09-18T12:26:19Z</time>
      </trkpt>
      <trkpt lat="46.64839" lon="4.95339">
        <ele>185.4</ele>
        <time>2024-09-18T12:26:20Z</time>
      </trkpt>
      <trkpt lat="46.64834" lon="4.95339">
        <ele>185.4</ele>
        <time>2024-09-18T12:26:21Z</time>
      </trkpt>
      <trkpt lat="46.6483" lon="4.95339">
        <ele>185.4</ele>
        <time>2024-09-18T12:26:22Z</time>
      </trkpt>
      <trkpt lat="46.64825" lon="4.95339">
        <ele>185.4</ele>
        <time>2024-09-18T12:26:23Z</time>
      </trkpt>
      <trkpt lat="46.64821" lon="4.9534">
        <ele>185.2</ele>
        <time>2024-09-18T12:26:24Z</time>
      </trkpt>
      <trkpt lat="46.64816" lon="4.9534">
        <ele>185.2</ele>
        <time>2024-09-18T12:26:25Z</time>
      </trkpt>
      <trkpt lat="46.64811" lon="4.9534">
        <ele>185.2</ele>
        <time>2024-09-18T12:26:26Z</time>
      </trkpt>
      <trkpt lat="46.64807" lon="4.95341">
        <ele>185.4</ele>
        <time>2024-09-18T12:26:27Z</time>
      </trkpt>
      <trkpt lat="46.64802" lon="4.95341">
        <ele>185.4</ele>
        <time>2024-09-18T12:26:28Z</time>
      </trkpt>
      <trkpt lat="46.64797" lon="4.95342">
        <ele>185.4</ele>
        <time>2024-09-18T12:26:29Z</time>
      </trkpt>
      <trkpt lat="46.64792" lon="4.95343">
        <ele>185.4</ele>
        <time>2024-09-18T12:26:30Z</time>
      </trkpt>
      <trkpt lat="46.64787" lon="4.95344">
        <ele>185.4</ele>
        <time>2024-09-18T12:26:31Z</time>
      </trkpt>
      <trkpt lat="46.64782" lon="4.95344">
        <ele>185</ele>
        <time>2024-09-18T12:26:32Z</time>
      </trkpt>
      <trkpt lat="46.64776" lon="4.95345">
        <ele>185</ele>
        <time>2024-09-18T12:26:33Z</time>
      </trkpt>
      <trkpt lat="46.64771" lon="4.95345">
        <ele>185</ele>
        <time>2024-09-18T12:26:34Z</time>
      </trkpt>
      <trkpt lat="46.64766" lon="4.95346">
        <ele>185</ele>
        <time>2024-09-18T12:26:35Z</time>
      </trkpt>
      <trkpt lat="46.64761" lon="4.95346">
        <ele>184.6</ele>
        <time>2024-09-18T12:26:36Z</time>
      </trkpt>
      <trkpt lat="46.64756" lon="4.95347">
        <ele>184.8</ele>
        <time>2024-09-18T12:26:37Z</time>
      </trkpt>
      <trkpt lat="46.64751" lon="4.95347">
        <ele>184.8</ele>
        <time>2024-09-18T12:26:38Z</time>
      </trkpt>
      <trkpt lat="46.64747" lon="4.95348">
        <ele>184.8</ele>
        <time>2024-09-18T12:26:39Z</time>
      </trkpt>
      <trkpt lat="46.64742" lon="4.95348">
        <ele>184.8</ele>
        <time>2024-09-18T12:26:40Z</time>
      </trkpt>
      <trkpt lat="46.64738" lon="4.95349">
        <ele>184.8</ele>
        <time>2024-09-18T12:26:41Z</time>
      </trkpt>
      <trkpt lat="46.64733" lon="4.9535">
        <ele>184.6</ele>
        <time>2024-09-18T12:26:42Z</time>
      </trkpt>
      <trkpt lat="46.64728" lon="4.9535">
        <ele>184.6</ele>
        <time>2024-09-18T12:26:43Z</time>
      </trkpt>
      <trkpt lat="46.64724" lon="4.95351">
        <ele>184.6</ele>
        <time>2024-09-18T12:26:44Z</time>
      </trkpt>
      <trkpt lat="46.64719" lon="4.95351">
        <ele>184.6</ele>
        <time>2024-09-18T12:26:45Z</time>
      </trkpt>
      <trkpt lat="46.64715" lon="4.95352">
        <ele>184.6</ele>
        <time>2024-09-18T12:26:46Z</time>
      </trkpt>
      <trkpt lat="46.6471" lon="4.95353">
        <ele>184.6</ele>
        <time>2024-09-18T12:26:47Z</time>
      </trkpt>
      <trkpt lat="46.64706" lon="4.95353">
        <ele>184.6</ele>
        <time>2024-09-18T12:26:48Z</time>
      </trkpt>
      <trkpt lat="46.64701" lon="4.95354">
        <ele>184.6</ele>
        <time>2024-09-18T12:26:49Z</time>
      </trkpt>
      <trkpt lat="46.64697" lon="4.95355">
        <ele>184.6</ele>
        <time>2024-09-18T12:26:50Z</time>
      </trkpt>
      <trkpt lat="46.64693" lon="4.95356">
        <ele>184.4</ele>
        <time>2024-09-18T12:26:51Z</time>
      </trkpt>
      <trkpt lat="46.64688" lon="4.95357">
        <ele>184.4</ele>
        <time>2024-09-18T12:26:52Z</time>
      </trkpt>
      <trkpt lat="46.64684" lon="4.95358">
        <ele>184.4</ele>
        <time>2024-09-18T12:26:53Z</time>
      </trkpt>
      <trkpt lat="46.64679" lon="4.95358">
        <ele>184.4</ele>
        <time>2024-09-18T12:26:54Z</time>
      </trkpt>
      <trkpt lat="46.64674" lon="4.95359">
        <ele>184.2</ele>
        <time>2024-09-18T12:26:55Z</time>
      </trkpt>
      <trkpt lat="46.6467" lon="4.9536">
        <ele>184.2</ele>
        <time>2024-09-18T12:26:56Z</time>
      </trkpt>
      <trkpt lat="46.64665" lon="4.95361">
        <ele>184.2</ele>
        <time>2024-09-18T12:26:57Z</time>
      </trkpt>
      <trkpt lat="46.6466" lon="4.95362">
        <ele>184.8</ele>
        <time>2024-09-18T12:26:58Z</time>
      </trkpt>
      <trkpt lat="46.64655" lon="4.95362">
        <ele>184.4</ele>
        <time>2024-09-18T12:26:59Z</time>
      </trkpt>
      <trkpt lat="46.6465" lon="4.95362">
        <ele>184.4</ele>
        <time>2024-09-18T12:27:00Z</time>
      </trkpt>
      <trkpt lat="46.64646" lon="4.95363">
        <ele>184.4</ele>
        <time>2024-09-18T12:27:01Z</time>
      </trkpt>
      <trkpt lat="46.64641" lon="4.95364">
        <ele>184.4</ele>
        <time>2024-09-18T12:27:02Z</time>
      </trkpt>
      <trkpt lat="46.64636" lon="4.95364">
        <ele>184.4</ele>
        <time>2024-09-18T12:27:03Z</time>
      </trkpt>
      <trkpt lat="46.64632" lon="4.95364">
        <ele>184.4</ele>
        <time>2024-09-18T12:27:04Z</time>
      </trkpt>
      <trkpt lat="46.64627" lon="4.95365">
        <ele>184.6</ele>
        <time>2024-09-18T12:27:05Z</time>
      </trkpt>
      <trkpt lat="46.64623" lon="4.95365">
        <ele>184.6</ele>
        <time>2024-09-18T12:27:06Z</time>
      </trkpt>
      <trkpt lat="46.64619" lon="4.95365">
        <ele>184.6</ele>
        <time>2024-09-18T12:27:07Z</time>
      </trkpt>
      <trkpt lat="46.64615" lon="4.95365">
        <ele>184.6</ele>
        <time>2024-09-18T12:27:08Z</time>
      </trkpt>
      <trkpt lat="46.64612" lon="4.95365">
        <ele>184.6</ele>
        <time>2024-09-18T12:27:09Z</time>
      </trkpt>
      <trkpt lat="46.64609" lon="4.95365">
        <ele>185.2</ele>
        <time>2024-09-18T12:27:10Z</time>
      </trkpt>
      <trkpt lat="46.64606" lon="4.95364">
        <ele>185.2</ele>
        <time>2024-09-18T12:27:11Z</time>
      </trkpt>
      <trkpt lat="46.64603" lon="4.95364">
        <ele>186</ele>
        <time>2024-09-18T12:27:12Z</time>
      </trkpt>
      <trkpt lat="46.646" lon="4.95364">
        <ele>186</ele>
        <time>2024-09-18T12:27:13Z</time>
      </trkpt>
      <trkpt lat="46.64597" lon="4.95363">
        <ele>185.8</ele>
        <time>2024-09-18T12:27:14Z</time>
      </trkpt>
      <trkpt lat="46.64593" lon="4.95363">
        <ele>185.8</ele>
        <time>2024-09-18T12:27:15Z</time>
      </trkpt>
      <trkpt lat="46.64588" lon="4.95361">
        <ele>185.8</ele>
        <time>2024-09-18T12:27:16Z</time>
      </trkpt>
      <trkpt lat="46.64586" lon="4.95361">
        <ele>185.4</ele>
        <time>2024-09-18T12:27:17Z</time>
      </trkpt>
      <trkpt lat="46.64582" lon="4.9536">
        <ele>185.4</ele>
        <time>2024-09-18T12:27:18Z</time>
      </trkpt>
      <trkpt lat="46.64578" lon="4.95359">
        <ele>185.6</ele>
        <time>2024-09-18T12:27:19Z</time>
      </trkpt>
      <trkpt lat="46.64574" lon="4.95357">
        <ele>185.6</ele>
        <time>2024-09-18T12:27:20Z</time>
      </trkpt>
      <trkpt lat="46.6457" lon="4.95356">
        <ele>184.6</ele>
        <time>2024-09-18T12:27:21Z</time>
      </trkpt>
      <trkpt lat="46.64566" lon="4.95355">
        <ele>184.6</ele>
        <time>2024-09-18T12:27:22Z</time>
      </trkpt>
      <trkpt lat="46.64562" lon="4.95353">
        <ele>184.6</ele>
        <time>2024-09-18T12:27:23Z</time>
      </trkpt>
      <trkpt lat="46.64558" lon="4.95351">
        <ele>184.6</ele>
        <time>2024-09-18T12:27:24Z</time>
      </trkpt>
      <trkpt lat="46.64554" lon="4.9535">
        <ele>184.6</ele>
        <time>2024-09-18T12:27:25Z</time>
      </trkpt>
      <trkpt lat="46.6455" lon="4.95348">
        <ele>184.6</ele>
        <time>2024-09-18T12:27:26Z</time>
      </trkpt>
      <trkpt lat="46.64545" lon="4.95347">
        <ele>184.4</ele>
        <time>2024-09-18T12:27:27Z</time>
      </trkpt>
      <trkpt lat="46.64542" lon="4.95346">
        <ele>184.4</ele>
        <time>2024-09-18T12:27:28Z</time>
      </trkpt>
      <trkpt lat="46.64539" lon="4.95345">
        <ele>184.4</ele>
        <time>2024-09-18T12:27:29Z</time>
      </trkpt>
      <trkpt lat="46.64537" lon="4.95344">
        <ele>184.4</ele>
        <time>2024-09-18T12:27:30Z</time>
      </trkpt>
      <trkpt lat="46.64535" lon="4.95343">
        <ele>184.4</ele>
        <time>2024-09-18T12:27:31Z</time>
      </trkpt>
      <trkpt lat="46.64533" lon="4.95342">
        <ele>184.4</ele>
        <time>2024-09-18T12:27:32Z</time>
      </trkpt>
      <trkpt lat="46.64531" lon="4.95341">
        <ele>184.4</ele>
        <time>2024-09-18T12:27:33Z</time>
      </trkpt>
      <trkpt lat="46.64529" lon="4.9534">
        <ele>184</ele>
        <time>2024-09-18T12:27:34Z</time>
      </trkpt>
      <trkpt lat="46.64526" lon="4.95339">
        <ele>184.2</ele>
        <time>2024-09-18T12:27:35Z</time>
      </trkpt>
      <trkpt lat="46.64524" lon="4.95338">
        <ele>184.2</ele>
        <time>2024-09-18T12:27:36Z</time>
      </trkpt>
      <trkpt lat="46.64521" lon="4.95337">
        <ele>184.2</ele>
        <time>2024-09-18T12:27:37Z</time>
      </trkpt>
      <trkpt lat="46.64519" lon="4.95336">
        <ele>184.2</ele>
        <time>2024-09-18T12:27:38Z</time>
      </trkpt>
      <trkpt lat="46.64516" lon="4.95335">
        <ele>184</ele>
        <time>2024-09-18T12:27:39Z</time>
      </trkpt>
      <trkpt lat="46.64514" lon="4.95334">
        <ele>184</ele>
        <time>2024-09-18T12:27:40Z</time>
      </trkpt>
      <trkpt lat="46.64511" lon="4.95334">
        <ele>184</ele>
        <time>2024-09-18T12:27:41Z</time>
      </trkpt>
      <trkpt lat="46.64509" lon="4.95333">
        <ele>184</ele>
        <time>2024-09-18T12:27:42Z</time>
      </trkpt>
      <trkpt lat="46.64506" lon="4.95332">
        <ele>184</ele>
        <time>2024-09-18T12:27:43Z</time>
      </trkpt>
      <trkpt lat="46.64503" lon="4.95331">
        <ele>183.8</ele>
        <time>2024-09-18T12:27:44Z</time>
      </trkpt>
      <trkpt lat="46.64499" lon="4.9533">
        <ele>183.8</ele>
        <time>2024-09-18T12:27:45Z</time>
      </trkpt>
      <trkpt lat="46.64496" lon="4.95329">
        <ele>183.8</ele>
        <time>2024-09-18T12:27:46Z</time>
      </trkpt>
      <trkpt lat="46.64493" lon="4.95328">
        <ele>183.8</ele>
        <time>2024-09-18T12:27:47Z</time>
      </trkpt>
      <trkpt lat="46.64489" lon="4.95327">
        <ele>183.8</ele>
        <time>2024-09-18T12:27:48Z</time>
      </trkpt>
      <trkpt lat="46.64485" lon="4.95325">
        <ele>183.8</ele>
        <time>2024-09-18T12:27:49Z</time>
      </trkpt>
      <trkpt lat="46.64482" lon="4.95324">
        <ele>183.8</ele>
        <time>2024-09-18T12:27:50Z</time>
      </trkpt>
      <trkpt lat="46.64478" lon="4.95323">
        <ele>183.8</ele>
        <time>2024-09-18T12:27:51Z</time>
      </trkpt>
      <trkpt lat="46.64474" lon="4.95322">
        <ele>183.8</ele>
        <time>2024-09-18T12:27:52Z</time>
      </trkpt>
      <trkpt lat="46.6447" lon="4.95321">
        <ele>183.8</ele>
        <time>2024-09-18T12:27:53Z</time>
      </trkpt>
      <trkpt lat="46.64466" lon="4.9532">
        <ele>183.8</ele>
        <time>2024-09-18T12:27:54Z</time>
      </trkpt>
      <trkpt lat="46.64462" lon="4.9532">
        <ele>183.8</ele>
        <time>2024-09-18T12:27:55Z</time>
      </trkpt>
      <trkpt lat="46.64458" lon="4.9532">
        <ele>183.8</ele>
        <time>2024-09-18T12:27:56Z</time>
      </trkpt>
      <trkpt lat="46.64454" lon="4.95319">
        <ele>184.2</ele>
        <time>2024-09-18T12:27:57Z</time>
      </trkpt>
      <trkpt lat="46.6445" lon="4.95318">
        <ele>184.2</ele>
        <time>2024-09-18T12:27:58Z</time>
      </trkpt>
      <trkpt lat="46.64445" lon="4.95318">
        <ele>184.2</ele>
        <time>2024-09-18T12:27:59Z</time>
      </trkpt>
      <trkpt lat="46.64441" lon="4.95317">
        <ele>184.2</ele>
        <time>2024-09-18T12:28:00Z</time>
      </trkpt>
      <trkpt lat="46.64437" lon="4.95317">
        <ele>184.2</ele>
        <time>2024-09-18T12:28:01Z</time>
      </trkpt>
      <trkpt lat="46.64433" lon="4.95317">
        <ele>184.4</ele>
        <time>2024-09-18T12:28:02Z</time>
      </trkpt>
      <trkpt lat="46.64429" lon="4.95317">
        <ele>184.2</ele>
        <time>2024-09-18T12:28:03Z</time>
      </trkpt>
      <trkpt lat="46.64425" lon="4.95316">
        <ele>184.2</ele>
        <time>2024-09-18T12:28:04Z</time>
      </trkpt>
      <trkpt lat="46.64421" lon="4.95316">
        <ele>184.2</ele>
        <time>2024-09-18T12:28:05Z</time>
      </trkpt>
      <trkpt lat="46.64417" lon="4.95316">
        <ele>185</ele>
        <time>2024-09-18T12:28:06Z</time>
      </trkpt>
      <trkpt lat="46.64413" lon="4.95315">
        <ele>184.6</ele>
        <time>2024-09-18T12:28:07Z</time>
      </trkpt>
      <trkpt lat="46.64409" lon="4.95315">
        <ele>184.6</ele>
        <time>2024-09-18T12:28:08Z</time>
      </trkpt>
      <trkpt lat="46.64405" lon="4.95315">
        <ele>184.6</ele>
        <time>2024-09-18T12:28:09Z</time>
      </trkpt>
      <trkpt lat="46.64401" lon="4.95314">
        <ele>184.6</ele>
        <time>2024-09-18T12:28:10Z</time>
      </trkpt>
      <trkpt lat="46.64397" lon="4.95314">
        <ele>184.6</ele>
        <time>2024-09-18T12:28:11Z</time>
      </trkpt>
      <trkpt lat="46.64392" lon="4.95314">
        <ele>184.8</ele>
        <time>2024-09-18T12:28:12Z</time>
      </trkpt>
      <trkpt lat="46.64388" lon="4.95314">
        <ele>184.8</ele>
        <time>2024-09-18T12:28:13Z</time>
      </trkpt>
      <trkpt lat="46.64383" lon="4.95314">
        <ele>184.8</ele>
        <time>2024-09-18T12:28:14Z</time>
      </trkpt>
      <trkpt lat="46.64379" lon="4.95314">
        <ele>184.8</ele>
        <time>2024-09-18T12:28:15Z</time>
      </trkpt>
      <trkpt lat="46.64374" lon="4.95314">
        <ele>184.6</ele>
        <time>2024-09-18T12:28:16Z</time>
      </trkpt>
      <trkpt lat="46.6437" lon="4.95314">
        <ele>184.6</ele>
        <time>2024-09-18T12:28:17Z</time>
      </trkpt>
      <trkpt lat="46.64365" lon="4.95314">
        <ele>184.6</ele>
        <time>2024-09-18T12:28:18Z</time>
      </trkpt>
      <trkpt lat="46.64361" lon="4.95314">
        <ele>184.6</ele>
        <time>2024-09-18T12:28:19Z</time>
      </trkpt>
      <trkpt lat="46.64356" lon="4.95313">
        <ele>184.4</ele>
        <time>2024-09-18T12:28:20Z</time>
      </trkpt>
      <trkpt lat="46.64351" lon="4.95313">
        <ele>184.4</ele>
        <time>2024-09-18T12:28:21Z</time>
      </trkpt>
      <trkpt lat="46.64347" lon="4.95313">
        <ele>184.4</ele>
        <time>2024-09-18T12:28:22Z</time>
      </trkpt>
      <trkpt lat="46.64342" lon="4.95313">
        <ele>184.4</ele>
        <time>2024-09-18T12:28:23Z</time>
      </trkpt>
      <trkpt lat="46.64337" lon="4.95313">
        <ele>184.4</ele>
        <time>2024-09-18T12:28:24Z</time>
      </trkpt>
      <trkpt lat="46.64332" lon="4.95314">
        <ele>184.6</ele>
        <time>2024-09-18T12:28:25Z</time>
      </trkpt>
      <trkpt lat="46.64327" lon="4.95314">
        <ele>184.6</ele>
        <time>2024-09-18T12:28:26Z</time>
      </trkpt>
      <trkpt lat="46.64323" lon="4.95314">
        <ele>184.6</ele>
        <time>2024-09-18T12:28:27Z</time>
      </trkpt>
      <trkpt lat="46.64318" lon="4.95314">
        <ele>184.6</ele>
        <time>2024-09-18T12:28:28Z</time>
      </trkpt>
      <trkpt lat="46.64313" lon="4.95314">
        <ele>184.6</ele>
        <time>2024-09-18T12:28:29Z</time>
      </trkpt>
      <trkpt lat="46.64308" lon="4.95314">
        <ele>184.4</ele>
        <time>2024-09-18T12:28:30Z</time>
      </trkpt>
      <trkpt lat="46.64304" lon="4.95314">
        <ele>184.4</ele>
        <time>2024-09-18T12:28:31Z</time>
      </trkpt>
      <trkpt lat="46.64299" lon="4.95314">
        <ele>184.4</ele>
        <time>2024-09-18T12:28:32Z</time>
      </trkpt>
      <trkpt lat="46.64294" lon="4.95314">
        <ele>185</ele>
        <time>2024-09-18T12:28:33Z</time>
      </trkpt>
      <trkpt lat="46.64289" lon="4.95315">
        <ele>185</ele>
        <time>2024-09-18T12:28:34Z</time>
      </trkpt>
      <trkpt lat="46.64284" lon="4.95316">
        <ele>184.8</ele>
        <time>2024-09-18T12:28:35Z</time>
      </trkpt>
      <trkpt lat="46.6428" lon="4.95316">
        <ele>184.8</ele>
        <time>2024-09-18T12:28:36Z</time>
      </trkpt>
      <trkpt lat="46.64275" lon="4.95317">
        <ele>184.8</ele>
        <time>2024-09-18T12:28:37Z</time>
      </trkpt>
      <trkpt lat="46.6427" lon="4.95318">
        <ele>184</ele>
        <time>2024-09-18T12:28:38Z</time>
      </trkpt>
      <trkpt lat="46.64265" lon="4.95319">
        <ele>184</ele>
        <time>2024-09-18T12:28:39Z</time>
      </trkpt>
      <trkpt lat="46.6426" lon="4.9532">
        <ele>184.6</ele>
        <time>2024-09-18T12:28:40Z</time>
      </trkpt>
      <trkpt lat="46.64255" lon="4.95321">
        <ele>184.6</ele>
        <time>2024-09-18T12:28:41Z</time>
      </trkpt>
      <trkpt lat="46.64249" lon="4.95322">
        <ele>184.2</ele>
        <time>2024-09-18T12:28:42Z</time>
      </trkpt>
      <trkpt lat="46.64244" lon="4.95323">
        <ele>184</ele>
        <time>2024-09-18T12:28:43Z</time>
      </trkpt>
      <trkpt lat="46.64239" lon="4.95324">
        <ele>184</ele>
        <time>2024-09-18T12:28:44Z</time>
      </trkpt>
      <trkpt lat="46.64234" lon="4.95325">
        <ele>184</ele>
        <time>2024-09-18T12:28:45Z</time>
      </trkpt>
      <trkpt lat="46.64228" lon="4.95325">
        <ele>184</ele>
        <time>2024-09-18T12:28:46Z</time>
      </trkpt>
      <trkpt lat="46.64223" lon="4.95326">
        <ele>184</ele>
        <time>2024-09-18T12:28:47Z</time>
      </trkpt>
      <trkpt lat="46.64219" lon="4.95326">
        <ele>183</ele>
        <time>2024-09-18T12:28:48Z</time>
      </trkpt>
      <trkpt lat="46.64214" lon="4.95327">
        <ele>183</ele>
        <time>2024-09-18T12:28:49Z</time>
      </trkpt>
      <trkpt lat="46.64209" lon="4.95327">
        <ele>183</ele>
        <time>2024-09-18T12:28:50Z</time>
      </trkpt>
      <trkpt lat="46.64204" lon="4.95328">
        <ele>184</ele>
        <time>2024-09-18T12:28:51Z</time>
      </trkpt>
      <trkpt lat="46.64199" lon="4.95328">
        <ele>184.4</ele>
        <time>2024-09-18T12:28:52Z</time>
      </trkpt>
      <trkpt lat="46.64194" lon="4.95329">
        <ele>184.4</ele>
        <time>2024-09-18T12:28:53Z</time>
      </trkpt>
      <trkpt lat="46.6419" lon="4.95329">
        <ele>184.4</ele>
        <time>2024-09-18T12:28:54Z</time>
      </trkpt>
      <trkpt lat="46.64185" lon="4.9533">
        <ele>184.2</ele>
        <time>2024-09-18T12:28:55Z</time>
      </trkpt>
      <trkpt lat="46.6418" lon="4.9533">
        <ele>184.2</ele>
        <time>2024-09-18T12:28:56Z</time>
      </trkpt>
      <trkpt lat="46.64175" lon="4.95331">
        <ele>184.4</ele>
        <time>2024-09-18T12:28:57Z</time>
      </trkpt>
      <trkpt lat="46.6417" lon="4.95331">
        <ele>184.4</ele>
        <time>2024-09-18T12:28:58Z</time>
      </trkpt>
      <trkpt lat="46.64165" lon="4.95332">
        <ele>184.4</ele>
        <time>2024-09-18T12:28:59Z</time>
      </trkpt>
      <trkpt lat="46.6416" lon="4.95332">
        <ele>183.6</ele>
        <time>2024-09-18T12:29:00Z</time>
      </trkpt>
      <trkpt lat="46.64155" lon="4.95332">
        <ele>184</ele>
        <time>2024-09-18T12:29:01Z</time>
      </trkpt>
      <trkpt lat="46.6415" lon="4.95333">
        <ele>184</ele>
        <time>2024-09-18T12:29:02Z</time>
      </trkpt>
      <trkpt lat="46.64145" lon="4.95333">
        <ele>184</ele>
        <time>2024-09-18T12:29:03Z</time>
      </trkpt>
      <trkpt lat="46.64141" lon="4.95333">
        <ele>184</ele>
        <time>2024-09-18T12:29:04Z</time>
      </trkpt>
      <trkpt lat="46.64136" lon="4.95333">
        <ele>184</ele>
        <time>2024-09-18T12:29:05Z</time>
      </trkpt>
      <trkpt lat="46.64131" lon="4.95334">
        <ele>184</ele>
        <time>2024-09-18T12:29:06Z</time>
      </trkpt>
      <trkpt lat="46.64126" lon="4.95334">
        <ele>184</ele>
        <time>2024-09-18T12:29:07Z</time>
      </trkpt>
      <trkpt lat="46.64121" lon="4.95334">
        <ele>184</ele>
        <time>2024-09-18T12:29:08Z</time>
      </trkpt>
      <trkpt lat="46.64116" lon="4.95335">
        <ele>184</ele>
        <time>2024-09-18T12:29:09Z</time>
      </trkpt>
      <trkpt lat="46.64111" lon="4.95335">
        <ele>184.4</ele>
        <time>2024-09-18T12:29:10Z</time>
      </trkpt>
      <trkpt lat="46.64107" lon="4.95335">
        <ele>184.4</ele>
        <time>2024-09-18T12:29:11Z</time>
      </trkpt>
      <trkpt lat="46.64102" lon="4.95335">
        <ele>184.4</ele>
        <time>2024-09-18T12:29:12Z</time>
      </trkpt>
      <trkpt lat="46.64097" lon="4.95335">
        <ele>184.4</ele>
        <time>2024-09-18T12:29:13Z</time>
      </trkpt>
      <trkpt lat="46.64092" lon="4.95335">
        <ele>184.2</ele>
        <time>2024-09-18T12:29:14Z</time>
      </trkpt>
      <trkpt lat="46.64087" lon="4.95335">
        <ele>184.2</ele>
        <time>2024-09-18T12:29:15Z</time>
      </trkpt>
      <trkpt lat="46.64081" lon="4.95336">
        <ele>183.8</ele>
        <time>2024-09-18T12:29:16Z</time>
      </trkpt>
      <trkpt lat="46.64076" lon="4.95337">
        <ele>183.8</ele>
        <time>2024-09-18T12:29:17Z</time>
      </trkpt>
      <trkpt lat="46.64071" lon="4.95338">
        <ele>183.8</ele>
        <time>2024-09-18T12:29:18Z</time>
      </trkpt>
      <trkpt lat="46.64066" lon="4.95339">
        <ele>184.4</ele>
        <time>2024-09-18T12:29:19Z</time>
      </trkpt>
      <trkpt lat="46.64061" lon="4.95341">
        <ele>184.4</ele>
        <time>2024-09-18T12:29:20Z</time>
      </trkpt>
      <trkpt lat="46.64056" lon="4.95342">
        <ele>184.4</ele>
        <time>2024-09-18T12:29:21Z</time>
      </trkpt>
      <trkpt lat="46.64051" lon="4.95344">
        <ele>184.4</ele>
        <time>2024-09-18T12:29:22Z</time>
      </trkpt>
      <trkpt lat="46.64047" lon="4.95346">
        <ele>184.4</ele>
        <time>2024-09-18T12:29:23Z</time>
      </trkpt>
      <trkpt lat="46.64042" lon="4.95348">
        <ele>184.4</ele>
        <time>2024-09-18T12:29:24Z</time>
      </trkpt>
      <trkpt lat="46.64038" lon="4.9535">
        <ele>184.4</ele>
        <time>2024-09-18T12:29:25Z</time>
      </trkpt>
      <trkpt lat="46.64033" lon="4.95352">
        <ele>184.4</ele>
        <time>2024-09-18T12:29:26Z</time>
      </trkpt>
      <trkpt lat="46.64029" lon="4.95354">
        <ele>184.4</ele>
        <time>2024-09-18T12:29:27Z</time>
      </trkpt>
      <trkpt lat="46.64025" lon="4.95356">
        <ele>184.2</ele>
        <time>2024-09-18T12:29:28Z</time>
      </trkpt>
      <trkpt lat="46.6402" lon="4.95359">
        <ele>184.2</ele>
        <time>2024-09-18T12:29:29Z</time>
      </trkpt>
      <trkpt lat="46.64015" lon="4.95361">
        <ele>184.2</ele>
        <time>2024-09-18T12:29:30Z</time>
      </trkpt>
      <trkpt lat="46.64011" lon="4.95364">
        <ele>184.2</ele>
        <time>2024-09-18T12:29:31Z</time>
      </trkpt>
      <trkpt lat="46.64006" lon="4.95366">
        <ele>184.2</ele>
        <time>2024-09-18T12:29:32Z</time>
      </trkpt>
      <trkpt lat="46.64001" lon="4.95368">
        <ele>184</ele>
        <time>2024-09-18T12:29:33Z</time>
      </trkpt>
      <trkpt lat="46.63997" lon="4.95371">
        <ele>184</ele>
        <time>2024-09-18T12:29:34Z</time>
      </trkpt>
      <trkpt lat="46.63993" lon="4.95373">
        <ele>184</ele>
        <time>2024-09-18T12:29:35Z</time>
      </trkpt>
      <trkpt lat="46.63988" lon="4.95375">
        <ele>184</ele>
        <time>2024-09-18T12:29:36Z</time>
      </trkpt>
      <trkpt lat="46.63984" lon="4.95377">
        <ele>184.4</ele>
        <time>2024-09-18T12:29:37Z</time>
      </trkpt>
      <trkpt lat="46.63979" lon="4.95379">
        <ele>184.4</ele>
        <time>2024-09-18T12:29:38Z</time>
      </trkpt>
      <trkpt lat="46.63975" lon="4.95382">
        <ele>184.4</ele>
        <time>2024-09-18T12:29:39Z</time>
      </trkpt>
      <trkpt lat="46.6397" lon="4.95384">
        <ele>184.2</ele>
        <time>2024-09-18T12:29:40Z</time>
      </trkpt>
      <trkpt lat="46.63966" lon="4.95386">
        <ele>184.2</ele>
        <time>2024-09-18T12:29:41Z</time>
      </trkpt>
      <trkpt lat="46.63961" lon="4.95389">
        <ele>184</ele>
        <time>2024-09-18T12:29:42Z</time>
      </trkpt>
      <trkpt lat="46.63957" lon="4.95391">
        <ele>184</ele>
        <time>2024-09-18T12:29:43Z</time>
      </trkpt>
      <trkpt lat="46.63952" lon="4.95393">
        <ele>184</ele>
        <time>2024-09-18T12:29:44Z</time>
      </trkpt>
      <trkpt lat="46.63948" lon="4.95395">
        <ele>184.2</ele>
        <time>2024-09-18T12:29:45Z</time>
      </trkpt>
      <trkpt lat="46.63943" lon="4.95397">
        <ele>184.6</ele>
        <time>2024-09-18T12:29:46Z</time>
      </trkpt>
      <trkpt lat="46.63938" lon="4.95399">
        <ele>184.6</ele>
        <time>2024-09-18T12:29:47Z</time>
      </trkpt>
      <trkpt lat="46.63934" lon="4.95401">
        <ele>184.6</ele>
        <time>2024-09-18T12:29:48Z</time>
      </trkpt>
      <trkpt lat="46.63929" lon="4.95403">
        <ele>184.6</ele>
        <time>2024-09-18T12:29:49Z</time>
      </trkpt>
      <trkpt lat="46.63925" lon="4.95405">
        <ele>184.4</ele>
        <time>2024-09-18T12:29:50Z</time>
      </trkpt>
      <trkpt lat="46.6392" lon="4.95407">
        <ele>184.4</ele>
        <time>2024-09-18T12:29:51Z</time>
      </trkpt>
      <trkpt lat="46.63916" lon="4.95409">
        <ele>184.4</ele>
        <time>2024-09-18T12:29:52Z</time>
      </trkpt>
      <trkpt lat="46.63911" lon="4.9541">
        <ele>184.4</ele>
        <time>2024-09-18T12:29:53Z</time>
      </trkpt>
      <trkpt lat="46.63906" lon="4.95412">
        <ele>184.4</ele>
        <time>2024-09-18T12:29:54Z</time>
      </trkpt>
      <trkpt lat="46.63901" lon="4.95413">
        <ele>184.4</ele>
        <time>2024-09-18T12:29:55Z</time>
      </trkpt>
      <trkpt lat="46.63897" lon="4.95415">
        <ele>184.6</ele>
        <time>2024-09-18T12:29:56Z</time>
      </trkpt>
      <trkpt lat="46.63892" lon="4.95416">
        <ele>184.6</ele>
        <time>2024-09-18T12:29:57Z</time>
      </trkpt>
      <trkpt lat="46.63888" lon="4.95417">
        <ele>184.6</ele>
        <time>2024-09-18T12:29:58Z</time>
      </trkpt>
      <trkpt lat="46.63883" lon="4.95419">
        <ele>184.6</ele>
        <time>2024-09-18T12:29:59Z</time>
      </trkpt>
      <trkpt lat="46.63878" lon="4.9542">
        <ele>184.6</ele>
        <time>2024-09-18T12:30:00Z</time>
      </trkpt>
      <trkpt lat="46.63873" lon="4.95421">
        <ele>184.6</ele>
        <time>2024-09-18T12:30:01Z</time>
      </trkpt>
      <trkpt lat="46.63869" lon="4.95422">
        <ele>184.6</ele>
        <time>2024-09-18T12:30:02Z</time>
      </trkpt>
      <trkpt lat="46.63864" lon="4.95423">
        <ele>184.6</ele>
        <time>2024-09-18T12:30:03Z</time>
      </trkpt>
      <trkpt lat="46.63859" lon="4.95424">
        <ele>184.6</ele>
        <time>2024-09-18T12:30:04Z</time>
      </trkpt>
      <trkpt lat="46.63854" lon="4.95426">
        <ele>184.6</ele>
        <time>2024-09-18T12:30:05Z</time>
      </trkpt>
      <trkpt lat="46.63849" lon="4.95427">
        <ele>184.6</ele>
        <time>2024-09-18T12:30:06Z</time>
      </trkpt>
      <trkpt lat="46.63844" lon="4.95428">
        <ele>184.6</ele>
        <time>2024-09-18T12:30:07Z</time>
      </trkpt>
      <trkpt lat="46.63839" lon="4.95428">
        <ele>184.4</ele>
        <time>2024-09-18T12:30:08Z</time>
      </trkpt>
      <trkpt lat="46.63835" lon="4.95429">
        <ele>184.4</ele>
        <time>2024-09-18T12:30:09Z</time>
      </trkpt>
      <trkpt lat="46.6383" lon="4.9543">
        <ele>184.2</ele>
        <time>2024-09-18T12:30:10Z</time>
      </trkpt>
      <trkpt lat="46.63825" lon="4.95431">
        <ele>184.2</ele>
        <time>2024-09-18T12:30:11Z</time>
      </trkpt>
      <trkpt lat="46.6382" lon="4.95431">
        <ele>184</ele>
        <time>2024-09-18T12:30:12Z</time>
      </trkpt>
      <trkpt lat="46.63815" lon="4.95432">
        <ele>184</ele>
        <time>2024-09-18T12:30:13Z</time>
      </trkpt>
      <trkpt lat="46.63811" lon="4.95432">
        <ele>184.2</ele>
        <time>2024-09-18T12:30:14Z</time>
      </trkpt>
      <trkpt lat="46.63806" lon="4.95432">
        <ele>184.2</ele>
        <time>2024-09-18T12:30:15Z</time>
      </trkpt>
      <trkpt lat="46.63802" lon="4.95433">
        <ele>184.2</ele>
        <time>2024-09-18T12:30:16Z</time>
      </trkpt>
      <trkpt lat="46.63798" lon="4.95433">
        <ele>184.2</ele>
        <time>2024-09-18T12:30:17Z</time>
      </trkpt>
      <trkpt lat="46.63794" lon="4.95433">
        <ele>184.2</ele>
        <time>2024-09-18T12:30:18Z</time>
      </trkpt>
      <trkpt lat="46.6379" lon="4.95434">
        <ele>184.2</ele>
        <time>2024-09-18T12:30:19Z</time>
      </trkpt>
      <trkpt lat="46.63786" lon="4.95434">
        <ele>184.2</ele>
        <time>2024-09-18T12:30:20Z</time>
      </trkpt>
      <trkpt lat="46.63782" lon="4.95434">
        <ele>184.2</ele>
        <time>2024-09-18T12:30:21Z</time>
      </trkpt>
      <trkpt lat="46.63777" lon="4.95435">
        <ele>184.6</ele>
        <time>2024-09-18T12:30:22Z</time>
      </trkpt>
      <trkpt lat="46.63773" lon="4.95435">
        <ele>184.6</ele>
        <time>2024-09-18T12:30:23Z</time>
      </trkpt>
      <trkpt lat="46.63768" lon="4.95435">
        <ele>184.6</ele>
        <time>2024-09-18T12:30:24Z</time>
      </trkpt>
      <trkpt lat="46.63763" lon="4.95436">
        <ele>184.6</ele>
        <time>2024-09-18T12:30:25Z</time>
      </trkpt>
      <trkpt lat="46.63759" lon="4.95436">
        <ele>185</ele>
        <time>2024-09-18T12:30:26Z</time>
      </trkpt>
      <trkpt lat="46.63754" lon="4.95436">
        <ele>185</ele>
        <time>2024-09-18T12:30:27Z</time>
      </trkpt>
      <trkpt lat="46.6375" lon="4.95436">
        <ele>185</ele>
        <time>2024-09-18T12:30:28Z</time>
      </trkpt>
      <trkpt lat="46.63745" lon="4.95436">
        <ele>185</ele>
        <time>2024-09-18T12:30:29Z</time>
      </trkpt>
      <trkpt lat="46.63741" lon="4.95436">
        <ele>184.6</ele>
        <time>2024-09-18T12:30:30Z</time>
      </trkpt>
      <trkpt lat="46.63736" lon="4.95436">
        <ele>184.8</ele>
        <time>2024-09-18T12:30:31Z</time>
      </trkpt>
      <trkpt lat="46.63732" lon="4.95436">
        <ele>184.8</ele>
        <time>2024-09-18T12:30:32Z</time>
      </trkpt>
      <trkpt lat="46.63728" lon="4.95435">
        <ele>184.8</ele>
        <time>2024-09-18T12:30:33Z</time>
      </trkpt>
      <trkpt lat="46.63723" lon="4.95435">
        <ele>184.8</ele>
        <time>2024-09-18T12:30:34Z</time>
      </trkpt>
      <trkpt lat="46.63719" lon="4.95434">
        <ele>184.8</ele>
        <time>2024-09-18T12:30:35Z</time>
      </trkpt>
      <trkpt lat="46.63714" lon="4.95434">
        <ele>184.8</ele>
        <time>2024-09-18T12:30:36Z</time>
      </trkpt>
      <trkpt lat="46.63709" lon="4.95433">
        <ele>184.8</ele>
        <time>2024-09-18T12:30:37Z</time>
      </trkpt>
      <trkpt lat="46.63705" lon="4.95432">
        <ele>184.8</ele>
        <time>2024-09-18T12:30:38Z</time>
      </trkpt>
      <trkpt lat="46.637" lon="4.95432">
        <ele>184.8</ele>
        <time>2024-09-18T12:30:39Z</time>
      </trkpt>
      <trkpt lat="46.63695" lon="4.95431">
        <ele>184.8</ele>
        <time>2024-09-18T12:30:40Z</time>
      </trkpt>
      <trkpt lat="46.63691" lon="4.9543">
        <ele>184.8</ele>
        <time>2024-09-18T12:30:41Z</time>
      </trkpt>
      <trkpt lat="46.63687" lon="4.95429">
        <ele>184.8</ele>
        <time>2024-09-18T12:30:42Z</time>
      </trkpt>
      <trkpt lat="46.63682" lon="4.95428">
        <ele>184.8</ele>
        <time>2024-09-18T12:30:43Z</time>
      </trkpt>
      <trkpt lat="46.63677" lon="4.95427">
        <ele>185</ele>
        <time>2024-09-18T12:30:44Z</time>
      </trkpt>
      <trkpt lat="46.63673" lon="4.95426">
        <ele>185</ele>
        <time>2024-09-18T12:30:45Z</time>
      </trkpt>
      <trkpt lat="46.63668" lon="4.95425">
        <ele>185</ele>
        <time>2024-09-18T12:30:46Z</time>
      </trkpt>
      <trkpt lat="46.63663" lon="4.95424">
        <ele>185</ele>
        <time>2024-09-18T12:30:47Z</time>
      </trkpt>
      <trkpt lat="46.63658" lon="4.95422">
        <ele>184.8</ele>
        <time>2024-09-18T12:30:48Z</time>
      </trkpt>
      <trkpt lat="46.63654" lon="4.9542">
        <ele>184.8</ele>
        <time>2024-09-18T12:30:49Z</time>
      </trkpt>
      <trkpt lat="46.63649" lon="4.95419">
        <ele>185</ele>
        <time>2024-09-18T12:30:50Z</time>
      </trkpt>
      <trkpt lat="46.63645" lon="4.95417">
        <ele>185</ele>
        <time>2024-09-18T12:30:51Z</time>
      </trkpt>
      <trkpt lat="46.63641" lon="4.95415">
        <ele>185</ele>
        <time>2024-09-18T12:30:52Z</time>
      </trkpt>
      <trkpt lat="46.63637" lon="4.95413">
        <ele>185</ele>
        <time>2024-09-18T12:30:53Z</time>
      </trkpt>
      <trkpt lat="46.63632" lon="4.95412">
        <ele>184.8</ele>
        <time>2024-09-18T12:30:54Z</time>
      </trkpt>
      <trkpt lat="46.63628" lon="4.95411">
        <ele>184.8</ele>
        <time>2024-09-18T12:30:55Z</time>
      </trkpt>
      <trkpt lat="46.63624" lon="4.95411">
        <ele>184.8</ele>
        <time>2024-09-18T12:30:56Z</time>
      </trkpt>
      <trkpt lat="46.6362" lon="4.95412">
        <ele>184.8</ele>
        <time>2024-09-18T12:30:57Z</time>
      </trkpt>
      <trkpt lat="46.63617" lon="4.95413">
        <ele>184.8</ele>
        <time>2024-09-18T12:30:58Z</time>
      </trkpt>
      <trkpt lat="46.63613" lon="4.95415">
        <ele>184.6</ele>
        <time>2024-09-18T12:30:59Z</time>
      </trkpt>
      <trkpt lat="46.6361" lon="4.95417">
        <ele>184.6</ele>
        <time>2024-09-18T12:31:00Z</time>
      </trkpt>
      <trkpt lat="46.63606" lon="4.95418">
        <ele>184.6</ele>
        <time>2024-09-18T12:31:01Z</time>
      </trkpt>
      <trkpt lat="46.63602" lon="4.9542">
        <ele>184.6</ele>
        <time>2024-09-18T12:31:02Z</time>
      </trkpt>
      <trkpt lat="46.63598" lon="4.95422">
        <ele>184.6</ele>
        <time>2024-09-18T12:31:03Z</time>
      </trkpt>
      <trkpt lat="46.63594" lon="4.95424">
        <ele>184.6</ele>
        <time>2024-09-18T12:31:04Z</time>
      </trkpt>
      <trkpt lat="46.6359" lon="4.95425">
        <ele>184.6</ele>
        <time>2024-09-18T12:31:05Z</time>
      </trkpt>
      <trkpt lat="46.63585" lon="4.95426">
        <ele>184.6</ele>
        <time>2024-09-18T12:31:06Z</time>
      </trkpt>
      <trkpt lat="46.63581" lon="4.95426">
        <ele>184.6</ele>
        <time>2024-09-18T12:31:07Z</time>
      </trkpt>
      <trkpt lat="46.63576" lon="4.95426">
        <ele>184.8</ele>
        <time>2024-09-18T12:31:08Z</time>
      </trkpt>
      <trkpt lat="46.63572" lon="4.95426">
        <ele>184.8</ele>
        <time>2024-09-18T12:31:09Z</time>
      </trkpt>
      <trkpt lat="46.63567" lon="4.95426">
        <ele>184.8</ele>
        <time>2024-09-18T12:31:10Z</time>
      </trkpt>
      <trkpt lat="46.63562" lon="4.95426">
        <ele>184.8</ele>
        <time>2024-09-18T12:31:11Z</time>
      </trkpt>
      <trkpt lat="46.63558" lon="4.95426">
        <ele>184.8</ele>
        <time>2024-09-18T12:31:12Z</time>
      </trkpt>
      <trkpt lat="46.63553" lon="4.95425">
        <ele>184.8</ele>
        <time>2024-09-18T12:31:13Z</time>
      </trkpt>
      <trkpt lat="46.63548" lon="4.95425">
        <ele>184.8</ele>
        <time>2024-09-18T12:31:14Z</time>
      </trkpt>
      <trkpt lat="46.63543" lon="4.95425">
        <ele>184.8</ele>
        <time>2024-09-18T12:31:15Z</time>
      </trkpt>
      <trkpt lat="46.63539" lon="4.95425">
        <ele>185</ele>
        <time>2024-09-18T12:31:16Z</time>
      </trkpt>
      <trkpt lat="46.63534" lon="4.95425">
        <ele>185</ele>
        <time>2024-09-18T12:31:17Z</time>
      </trkpt>
      <trkpt lat="46.63529" lon="4.95425">
        <ele>185</ele>
        <time>2024-09-18T12:31:18Z</time>
      </trkpt>
      <trkpt lat="46.63524" lon="4.95425">
        <ele>185</ele>
        <time>2024-09-18T12:31:19Z</time>
      </trkpt>
      <trkpt lat="46.63519" lon="4.95425">
        <ele>184.6</ele>
        <time>2024-09-18T12:31:20Z</time>
      </trkpt>
      <trkpt lat="46.63515" lon="4.95424">
        <ele>184.6</ele>
        <time>2024-09-18T12:31:21Z</time>
      </trkpt>
      <trkpt lat="46.6351" lon="4.95424">
        <ele>184.2</ele>
        <time>2024-09-18T12:31:22Z</time>
      </trkpt>
      <trkpt lat="46.63505" lon="4.95424">
        <ele>184.2</ele>
        <time>2024-09-18T12:31:23Z</time>
      </trkpt>
      <trkpt lat="46.63501" lon="4.95424">
        <ele>184.2</ele>
        <time>2024-09-18T12:31:24Z</time>
      </trkpt>
      <trkpt lat="46.63496" lon="4.95424">
        <ele>185</ele>
        <time>2024-09-18T12:31:25Z</time>
      </trkpt>
      <trkpt lat="46.63491" lon="4.95424">
        <ele>184.8</ele>
        <time>2024-09-18T12:31:26Z</time>
      </trkpt>
      <trkpt lat="46.63486" lon="4.95424">
        <ele>184.8</ele>
        <time>2024-09-18T12:31:27Z</time>
      </trkpt>
      <trkpt lat="46.63481" lon="4.95423">
        <ele>184.8</ele>
        <time>2024-09-18T12:31:28Z</time>
      </trkpt>
      <trkpt lat="46.63477" lon="4.95423">
        <ele>185</ele>
        <time>2024-09-18T12:31:29Z</time>
      </trkpt>
      <trkpt lat="46.63472" lon="4.95422">
        <ele>185.2</ele>
        <time>2024-09-18T12:31:30Z</time>
      </trkpt>
      <trkpt lat="46.63467" lon="4.95422">
        <ele>185.2</ele>
        <time>2024-09-18T12:31:31Z</time>
      </trkpt>
      <trkpt lat="46.63462" lon="4.95422">
        <ele>185.2</ele>
        <time>2024-09-18T12:31:32Z</time>
      </trkpt>
      <trkpt lat="46.63457" lon="4.95422">
        <ele>185.2</ele>
        <time>2024-09-18T12:31:33Z</time>
      </trkpt>
      <trkpt lat="46.63453" lon="4.95422">
        <ele>185.2</ele>
        <time>2024-09-18T12:31:34Z</time>
      </trkpt>
      <trkpt lat="46.63448" lon="4.95421">
        <ele>185</ele>
        <time>2024-09-18T12:31:35Z</time>
      </trkpt>
      <trkpt lat="46.63443" lon="4.95421">
        <ele>185</ele>
        <time>2024-09-18T12:31:36Z</time>
      </trkpt>
      <trkpt lat="46.63438" lon="4.95421">
        <ele>185</ele>
        <time>2024-09-18T12:31:37Z</time>
      </trkpt>
      <trkpt lat="46.63433" lon="4.95421">
        <ele>185</ele>
        <time>2024-09-18T12:31:38Z</time>
      </trkpt>
      <trkpt lat="46.63428" lon="4.95421">
        <ele>185</ele>
        <time>2024-09-18T12:31:39Z</time>
      </trkpt>
      <trkpt lat="46.63423" lon="4.95421">
        <ele>185</ele>
        <time>2024-09-18T12:31:40Z</time>
      </trkpt>
      <trkpt lat="46.63418" lon="4.95421">
        <ele>185</ele>
        <time>2024-09-18T12:31:41Z</time>
      </trkpt>
      <trkpt lat="46.63413" lon="4.95422">
        <ele>185</ele>
        <time>2024-09-18T12:31:42Z</time>
      </trkpt>
      <trkpt lat="46.63408" lon="4.95422">
        <ele>185.4</ele>
        <time>2024-09-18T12:31:43Z</time>
      </trkpt>
      <trkpt lat="46.63403" lon="4.95422">
        <ele>184.6</ele>
        <time>2024-09-18T12:31:44Z</time>
      </trkpt>
      <trkpt lat="46.63398" lon="4.95422">
        <ele>184.6</ele>
        <time>2024-09-18T12:31:45Z</time>
      </trkpt>
      <trkpt lat="46.63393" lon="4.95422">
        <ele>184.6</ele>
        <time>2024-09-18T12:31:46Z</time>
      </trkpt>
      <trkpt lat="46.63388" lon="4.95423">
        <ele>185</ele>
        <time>2024-09-18T12:31:47Z</time>
      </trkpt>
      <trkpt lat="46.63383" lon="4.95423">
        <ele>185</ele>
        <time>2024-09-18T12:31:48Z</time>
      </trkpt>
      <trkpt lat="46.63378" lon="4.95423">
        <ele>185</ele>
        <time>2024-09-18T12:31:49Z</time>
      </trkpt>
      <trkpt lat="46.63373" lon="4.95424">
        <ele>185</ele>
        <time>2024-09-18T12:31:50Z</time>
      </trkpt>
      <trkpt lat="46.63369" lon="4.95424">
        <ele>185</ele>
        <time>2024-09-18T12:31:51Z</time>
      </trkpt>
      <trkpt lat="46.63364" lon="4.95424">
        <ele>185</ele>
        <time>2024-09-18T12:31:52Z</time>
      </trkpt>
      <trkpt lat="46.63359" lon="4.95424">
        <ele>185.2</ele>
        <time>2024-09-18T12:31:53Z</time>
      </trkpt>
      <trkpt lat="46.63354" lon="4.95424">
        <ele>185.2</ele>
        <time>2024-09-18T12:31:54Z</time>
      </trkpt>
      <trkpt lat="46.63349" lon="4.95423">
        <ele>185.2</ele>
        <time>2024-09-18T12:31:55Z</time>
      </trkpt>
      <trkpt lat="46.63344" lon="4.95423">
        <ele>185.2</ele>
        <time>2024-09-18T12:31:56Z</time>
      </trkpt>
      <trkpt lat="46.63339" lon="4.95422">
        <ele>185</ele>
        <time>2024-09-18T12:31:57Z</time>
      </trkpt>
      <trkpt lat="46.63334" lon="4.95422">
        <ele>185</ele>
        <time>2024-09-18T12:31:58Z</time>
      </trkpt>
      <trkpt lat="46.63328" lon="4.95421">
        <ele>185</ele>
        <time>2024-09-18T12:31:59Z</time>
      </trkpt>
      <trkpt lat="46.63323" lon="4.9542">
        <ele>185</ele>
        <time>2024-09-18T12:32:00Z</time>
      </trkpt>
      <trkpt lat="46.63318" lon="4.9542">
        <ele>185</ele>
        <time>2024-09-18T12:32:01Z</time>
      </trkpt>
      <trkpt lat="46.63313" lon="4.95419">
        <ele>185</ele>
        <time>2024-09-18T12:32:02Z</time>
      </trkpt>
      <trkpt lat="46.63308" lon="4.95419">
        <ele>184.6</ele>
        <time>2024-09-18T12:32:03Z</time>
      </trkpt>
      <trkpt lat="46.63304" lon="4.95419">
        <ele>184.6</ele>
        <time>2024-09-18T12:32:04Z</time>
      </trkpt>
      <trkpt lat="46.63299" lon="4.95418">
        <ele>184.6</ele>
        <time>2024-09-18T12:32:05Z</time>
      </trkpt>
      <trkpt lat="46.63294" lon="4.95418">
        <ele>184.6</ele>
        <time>2024-09-18T12:32:06Z</time>
      </trkpt>
      <trkpt lat="46.6329" lon="4.95417">
        <ele>185.4</ele>
        <time>2024-09-18T12:32:07Z</time>
      </trkpt>
      <trkpt lat="46.63286" lon="4.95417">
        <ele>185.4</ele>
        <time>2024-09-18T12:32:08Z</time>
      </trkpt>
      <trkpt lat="46.63282" lon="4.95417">
        <ele>185.4</ele>
        <time>2024-09-18T12:32:09Z</time>
      </trkpt>
      <trkpt lat="46.63277" lon="4.95416">
        <ele>185.4</ele>
        <time>2024-09-18T12:32:10Z</time>
      </trkpt>
      <trkpt lat="46.63273" lon="4.95416">
        <ele>185.4</ele>
        <time>2024-09-18T12:32:11Z</time>
      </trkpt>
      <trkpt lat="46.63269" lon="4.95415">
        <ele>186</ele>
        <time>2024-09-18T12:32:12Z</time>
      </trkpt>
      <trkpt lat="46.63265" lon="4.95413">
        <ele>186</ele>
        <time>2024-09-18T12:32:13Z</time>
      </trkpt>
      <trkpt lat="46.63261" lon="4.95412">
        <ele>186</ele>
        <time>2024-09-18T12:32:14Z</time>
      </trkpt>
      <trkpt lat="46.63257" lon="4.95411">
        <ele>186</ele>
        <time>2024-09-18T12:32:15Z</time>
      </trkpt>
      <trkpt lat="46.63252" lon="4.9541">
        <ele>185.4</ele>
        <time>2024-09-18T12:32:16Z</time>
      </trkpt>
      <trkpt lat="46.63248" lon="4.95409">
        <ele>185.4</ele>
        <time>2024-09-18T12:32:17Z</time>
      </trkpt>
      <trkpt lat="46.63243" lon="4.95407">
        <ele>185.4</ele>
        <time>2024-09-18T12:32:18Z</time>
      </trkpt>
      <trkpt lat="46.63239" lon="4.95406">
        <ele>185.4</ele>
        <time>2024-09-18T12:32:19Z</time>
      </trkpt>
      <trkpt lat="46.63234" lon="4.95405">
        <ele>185.4</ele>
        <time>2024-09-18T12:32:20Z</time>
      </trkpt>
      <trkpt lat="46.6323" lon="4.95403">
        <ele>185.4</ele>
        <time>2024-09-18T12:32:21Z</time>
      </trkpt>
      <trkpt lat="46.63225" lon="4.95402">
        <ele>185.4</ele>
        <time>2024-09-18T12:32:22Z</time>
      </trkpt>
      <trkpt lat="46.6322" lon="4.954">
        <ele>185.4</ele>
        <time>2024-09-18T12:32:23Z</time>
      </trkpt>
      <trkpt lat="46.63216" lon="4.95399">
        <ele>185.6</ele>
        <time>2024-09-18T12:32:24Z</time>
      </trkpt>
      <trkpt lat="46.63211" lon="4.95397">
        <ele>185.2</ele>
        <time>2024-09-18T12:32:25Z</time>
      </trkpt>
      <trkpt lat="46.63206" lon="4.95396">
        <ele>185.2</ele>
        <time>2024-09-18T12:32:26Z</time>
      </trkpt>
      <trkpt lat="46.63201" lon="4.95394">
        <ele>185.2</ele>
        <time>2024-09-18T12:32:27Z</time>
      </trkpt>
      <trkpt lat="46.63196" lon="4.95392">
        <ele>185.2</ele>
        <time>2024-09-18T12:32:28Z</time>
      </trkpt>
      <trkpt lat="46.63192" lon="4.95391">
        <ele>185.6</ele>
        <time>2024-09-18T12:32:29Z</time>
      </trkpt>
      <trkpt lat="46.63187" lon="4.95389">
        <ele>185.6</ele>
        <time>2024-09-18T12:32:30Z</time>
      </trkpt>
      <trkpt lat="46.63182" lon="4.95387">
        <ele>185.6</ele>
        <time>2024-09-18T12:32:31Z</time>
      </trkpt>
      <trkpt lat="46.63178" lon="4.95385">
        <ele>185.6</ele>
        <time>2024-09-18T12:32:32Z</time>
      </trkpt>
      <trkpt lat="46.63173" lon="4.95384">
        <ele>185.6</ele>
        <time>2024-09-18T12:32:33Z</time>
      </trkpt>
      <trkpt lat="46.63168" lon="4.95382">
        <ele>185.6</ele>
        <time>2024-09-18T12:32:34Z</time>
      </trkpt>
      <trkpt lat="46.63163" lon="4.9538">
        <ele>185.6</ele>
        <time>2024-09-18T12:32:35Z</time>
      </trkpt>
      <trkpt lat="46.63158" lon="4.95378">
        <ele>185.6</ele>
        <time>2024-09-18T12:32:36Z</time>
      </trkpt>
      <trkpt lat="46.63153" lon="4.95377">
        <ele>184.8</ele>
        <time>2024-09-18T12:32:37Z</time>
      </trkpt>
      <trkpt lat="46.63148" lon="4.95375">
        <ele>185.2</ele>
        <time>2024-09-18T12:32:38Z</time>
      </trkpt>
      <trkpt lat="46.63142" lon="4.95373">
        <ele>185.2</ele>
        <time>2024-09-18T12:32:39Z</time>
      </trkpt>
      <trkpt lat="46.63137" lon="4.9537">
        <ele>185.2</ele>
        <time>2024-09-18T12:32:40Z</time>
      </trkpt>
      <trkpt lat="46.63132" lon="4.95368">
        <ele>184.6</ele>
        <time>2024-09-18T12:32:41Z</time>
      </trkpt>
      <trkpt lat="46.63126" lon="4.95366">
        <ele>184.6</ele>
        <time>2024-09-18T12:32:42Z</time>
      </trkpt>
      <trkpt lat="46.63121" lon="4.95363">
        <ele>184.6</ele>
        <time>2024-09-18T12:32:43Z</time>
      </trkpt>
      <trkpt lat="46.63116" lon="4.95361">
        <ele>184.6</ele>
        <time>2024-09-18T12:32:44Z</time>
      </trkpt>
      <trkpt lat="46.63111" lon="4.95359">
        <ele>184.6</ele>
        <time>2024-09-18T12:32:45Z</time>
      </trkpt>
      <trkpt lat="46.63106" lon="4.95357">
        <ele>184.6</ele>
        <time>2024-09-18T12:32:46Z</time>
      </trkpt>
      <trkpt lat="46.63101" lon="4.95354">
        <ele>184.6</ele>
        <time>2024-09-18T12:32:47Z</time>
      </trkpt>
      <trkpt lat="46.63096" lon="4.95352">
        <ele>184.4</ele>
        <time>2024-09-18T12:32:48Z</time>
      </trkpt>
      <trkpt lat="46.63091" lon="4.9535">
        <ele>184.4</ele>
        <time>2024-09-18T12:32:49Z</time>
      </trkpt>
      <trkpt lat="46.63086" lon="4.95348">
        <ele>184.4</ele>
        <time>2024-09-18T12:32:50Z</time>
      </trkpt>
      <trkpt lat="46.63081" lon="4.95346">
        <ele>184.4</ele>
        <time>2024-09-18T12:32:51Z</time>
      </trkpt>
      <trkpt lat="46.63076" lon="4.95343">
        <ele>184.4</ele>
        <time>2024-09-18T12:32:52Z</time>
      </trkpt>
      <trkpt lat="46.63071" lon="4.9534">
        <ele>184.6</ele>
        <time>2024-09-18T12:32:53Z</time>
      </trkpt>
      <trkpt lat="46.63067" lon="4.95338">
        <ele>184.6</ele>
        <time>2024-09-18T12:32:54Z</time>
      </trkpt>
      <trkpt lat="46.63062" lon="4.95335">
        <ele>184.6</ele>
        <time>2024-09-18T12:32:55Z</time>
      </trkpt>
      <trkpt lat="46.63058" lon="4.95332">
        <ele>185</ele>
        <time>2024-09-18T12:32:56Z</time>
      </trkpt>
      <trkpt lat="46.63054" lon="4.95329">
        <ele>185</ele>
        <time>2024-09-18T12:32:57Z</time>
      </trkpt>
      <trkpt lat="46.63049" lon="4.95327">
        <ele>185</ele>
        <time>2024-09-18T12:32:58Z</time>
      </trkpt>
      <trkpt lat="46.63045" lon="4.95324">
        <ele>185</ele>
        <time>2024-09-18T12:32:59Z</time>
      </trkpt>
      <trkpt lat="46.6304" lon="4.95322">
        <ele>184.8</ele>
        <time>2024-09-18T12:33:00Z</time>
      </trkpt>
      <trkpt lat="46.63036" lon="4.9532">
        <ele>184.8</ele>
        <time>2024-09-18T12:33:01Z</time>
      </trkpt>
      <trkpt lat="46.63032" lon="4.95317">
        <ele>184.8</ele>
        <time>2024-09-18T12:33:02Z</time>
      </trkpt>
      <trkpt lat="46.63027" lon="4.95315">
        <ele>184.8</ele>
        <time>2024-09-18T12:33:03Z</time>
      </trkpt>
      <trkpt lat="46.63023" lon="4.95313">
        <ele>184.8</ele>
        <time>2024-09-18T12:33:04Z</time>
      </trkpt>
      <trkpt lat="46.63018" lon="4.9531">
        <ele>184.8</ele>
        <time>2024-09-18T12:33:05Z</time>
      </trkpt>
      <trkpt lat="46.63014" lon="4.95308">
        <ele>184.8</ele>
        <time>2024-09-18T12:33:06Z</time>
      </trkpt>
      <trkpt lat="46.63009" lon="4.95306">
        <ele>184.8</ele>
        <time>2024-09-18T12:33:07Z</time>
      </trkpt>
      <trkpt lat="46.63004" lon="4.95304">
        <ele>184.8</ele>
        <time>2024-09-18T12:33:08Z</time>
      </trkpt>
      <trkpt lat="46.63" lon="4.95301">
        <ele>184.8</ele>
        <time>2024-09-18T12:33:09Z</time>
      </trkpt>
      <trkpt lat="46.62995" lon="4.95298">
        <ele>184.8</ele>
        <time>2024-09-18T12:33:10Z</time>
      </trkpt>
      <trkpt lat="46.6299" lon="4.95296">
        <ele>184.8</ele>
        <time>2024-09-18T12:33:11Z</time>
      </trkpt>
      <trkpt lat="46.62985" lon="4.95294">
        <ele>184.8</ele>
        <time>2024-09-18T12:33:12Z</time>
      </trkpt>
      <trkpt lat="46.6298" lon="4.95291">
        <ele>184.8</ele>
        <time>2024-09-18T12:33:13Z</time>
      </trkpt>
      <trkpt lat="46.62975" lon="4.95289">
        <ele>184.6</ele>
        <time>2024-09-18T12:33:14Z</time>
      </trkpt>
      <trkpt lat="46.62971" lon="4.95287">
        <ele>184.6</ele>
        <time>2024-09-18T12:33:15Z</time>
      </trkpt>
      <trkpt lat="46.62966" lon="4.95285">
        <ele>184.6</ele>
        <time>2024-09-18T12:33:16Z</time>
      </trkpt>
      <trkpt lat="46.62961" lon="4.95283">
        <ele>184.6</ele>
        <time>2024-09-18T12:33:17Z</time>
      </trkpt>
      <trkpt lat="46.62956" lon="4.95282">
        <ele>184.6</ele>
        <time>2024-09-18T12:33:18Z</time>
      </trkpt>
      <trkpt lat="46.62952" lon="4.9528">
        <ele>184.6</ele>
        <time>2024-09-18T12:33:19Z</time>
      </trkpt>
      <trkpt lat="46.62947" lon="4.95278">
        <ele>184.6</ele>
        <time>2024-09-18T12:33:20Z</time>
      </trkpt>
      <trkpt lat="46.62942" lon="4.95277">
        <ele>184.6</ele>
        <time>2024-09-18T12:33:21Z</time>
      </trkpt>
      <trkpt lat="46.62937" lon="4.95275">
        <ele>184.6</ele>
        <time>2024-09-18T12:33:22Z</time>
      </trkpt>
      <trkpt lat="46.62932" lon="4.95274">
        <ele>184.8</ele>
        <time>2024-09-18T12:33:23Z</time>
      </trkpt>
      <trkpt lat="46.62928" lon="4.95272">
        <ele>184.8</ele>
        <time>2024-09-18T12:33:24Z</time>
      </trkpt>
      <trkpt lat="46.62923" lon="4.95271">
        <ele>184.8</ele>
        <time>2024-09-18T12:33:25Z</time>
      </trkpt>
      <trkpt lat="46.6292" lon="4.9527">
        <ele>184.8</ele>
        <time>2024-09-18T12:33:26Z</time>
      </trkpt>
      <trkpt lat="46.62916" lon="4.95269">
        <ele>184.8</ele>
        <time>2024-09-18T12:33:27Z</time>
      </trkpt>
      <trkpt lat="46.62912" lon="4.95267">
        <ele>184.8</ele>
        <time>2024-09-18T12:33:28Z</time>
      </trkpt>
      <trkpt lat="46.62909" lon="4.95265">
        <ele>184.8</ele>
        <time>2024-09-18T12:33:29Z</time>
      </trkpt>
      <trkpt lat="46.62905" lon="4.95263">
        <ele>184.8</ele>
        <time>2024-09-18T12:33:30Z</time>
      </trkpt>
      <trkpt lat="46.62902" lon="4.9526">
        <ele>184.8</ele>
        <time>2024-09-18T12:33:31Z</time>
      </trkpt>
      <trkpt lat="46.62898" lon="4.95257">
        <ele>184.6</ele>
        <time>2024-09-18T12:33:32Z</time>
      </trkpt>
      <trkpt lat="46.62894" lon="4.95256">
        <ele>184.8</ele>
        <time>2024-09-18T12:33:33Z</time>
      </trkpt>
      <trkpt lat="46.6289" lon="4.95254">
        <ele>184.8</ele>
        <time>2024-09-18T12:33:34Z</time>
      </trkpt>
      <trkpt lat="46.62886" lon="4.95252">
        <ele>184.8</ele>
        <time>2024-09-18T12:33:35Z</time>
      </trkpt>
      <trkpt lat="46.62882" lon="4.9525">
        <ele>184.8</ele>
        <time>2024-09-18T12:33:36Z</time>
      </trkpt>
      <trkpt lat="46.62878" lon="4.95247">
        <ele>185.2</ele>
        <time>2024-09-18T12:33:37Z</time>
      </trkpt>
      <trkpt lat="46.62874" lon="4.95245">
        <ele>185.2</ele>
        <time>2024-09-18T12:33:38Z</time>
      </trkpt>
      <trkpt lat="46.6287" lon="4.95243">
        <ele>185.2</ele>
        <time>2024-09-18T12:33:39Z</time>
      </trkpt>
      <trkpt lat="46.62866" lon="4.95241">
        <ele>185.2</ele>
        <time>2024-09-18T12:33:40Z</time>
      </trkpt>
      <trkpt lat="46.62863" lon="4.95239">
        <ele>185.2</ele>
        <time>2024-09-18T12:33:41Z</time>
      </trkpt>
      <trkpt lat="46.62859" lon="4.95238">
        <ele>184.8</ele>
        <time>2024-09-18T12:33:42Z</time>
      </trkpt>
      <trkpt lat="46.62855" lon="4.95236">
        <ele>184.8</ele>
        <time>2024-09-18T12:33:43Z</time>
      </trkpt>
      <trkpt lat="46.62852" lon="4.95233">
        <ele>184.8</ele>
        <time>2024-09-18T12:33:44Z</time>
      </trkpt>
      <trkpt lat="46.62848" lon="4.95231">
        <ele>185</ele>
        <time>2024-09-18T12:33:45Z</time>
      </trkpt>
      <trkpt lat="46.62844" lon="4.95229">
        <ele>185</ele>
        <time>2024-09-18T12:33:46Z</time>
      </trkpt>
      <trkpt lat="46.62841" lon="4.95226">
        <ele>185</ele>
        <time>2024-09-18T12:33:47Z</time>
      </trkpt>
      <trkpt lat="46.62837" lon="4.95224">
        <ele>185</ele>
        <time>2024-09-18T12:33:48Z</time>
      </trkpt>
      <trkpt lat="46.62834" lon="4.95222">
        <ele>185</ele>
        <time>2024-09-18T12:33:49Z</time>
      </trkpt>
      <trkpt lat="46.6283" lon="4.95219">
        <ele>185</ele>
        <time>2024-09-18T12:33:50Z</time>
      </trkpt>
      <trkpt lat="46.62826" lon="4.95217">
        <ele>185</ele>
        <time>2024-09-18T12:33:51Z</time>
      </trkpt>
      <trkpt lat="46.62822" lon="4.95214">
        <ele>184.8</ele>
        <time>2024-09-18T12:33:52Z</time>
      </trkpt>
      <trkpt lat="46.62818" lon="4.95211">
        <ele>184.8</ele>
        <time>2024-09-18T12:33:53Z</time>
      </trkpt>
      <trkpt lat="46.62814" lon="4.95208">
        <ele>184.8</ele>
        <time>2024-09-18T12:33:54Z</time>
      </trkpt>
      <trkpt lat="46.6281" lon="4.95205">
        <ele>185.2</ele>
        <time>2024-09-18T12:33:55Z</time>
      </trkpt>
      <trkpt lat="46.62805" lon="4.95202">
        <ele>185.2</ele>
        <time>2024-09-18T12:33:56Z</time>
      </trkpt>
      <trkpt lat="46.62801" lon="4.95198">
        <ele>185.2</ele>
        <time>2024-09-18T12:33:57Z</time>
      </trkpt>
      <trkpt lat="46.62797" lon="4.95195">
        <ele>185.2</ele>
        <time>2024-09-18T12:33:58Z</time>
      </trkpt>
      <trkpt lat="46.62793" lon="4.95191">
        <ele>185</ele>
        <time>2024-09-18T12:33:59Z</time>
      </trkpt>
      <trkpt lat="46.62789" lon="4.95188">
        <ele>185.2</ele>
        <time>2024-09-18T12:34:00Z</time>
      </trkpt>
      <trkpt lat="46.62785" lon="4.95184">
        <ele>185.2</ele>
        <time>2024-09-18T12:34:01Z</time>
      </trkpt>
      <trkpt lat="46.62782" lon="4.9518">
        <ele>185.2</ele>
        <time>2024-09-18T12:34:02Z</time>
      </trkpt>
      <trkpt lat="46.62778" lon="4.95176">
        <ele>185</ele>
        <time>2024-09-18T12:34:03Z</time>
      </trkpt>
      <trkpt lat="46.62774" lon="4.95173">
        <ele>185.6</ele>
        <time>2024-09-18T12:34:04Z</time>
      </trkpt>
      <trkpt lat="46.6277" lon="4.9517">
        <ele>185.6</ele>
        <time>2024-09-18T12:34:05Z</time>
      </trkpt>
      <trkpt lat="46.62766" lon="4.95167">
        <ele>185.6</ele>
        <time>2024-09-18T12:34:06Z</time>
      </trkpt>
      <trkpt lat="46.62762" lon="4.95163">
        <ele>185.2</ele>
        <time>2024-09-18T12:34:07Z</time>
      </trkpt>
      <trkpt lat="46.62757" lon="4.95158">
        <ele>185.2</ele>
        <time>2024-09-18T12:34:08Z</time>
      </trkpt>
      <trkpt lat="46.62755" lon="4.95156">
        <ele>185</ele>
        <time>2024-09-18T12:34:09Z</time>
      </trkpt>
      <trkpt lat="46.62751" lon="4.95152">
        <ele>185</ele>
        <time>2024-09-18T12:34:10Z</time>
      </trkpt>
      <trkpt lat="46.62748" lon="4.95148">
        <ele>185</ele>
        <time>2024-09-18T12:34:11Z</time>
      </trkpt>
      <trkpt lat="46.62744" lon="4.95144">
        <ele>185</ele>
        <time>2024-09-18T12:34:12Z</time>
      </trkpt>
      <trkpt lat="46.6274" lon="4.9514">
        <ele>185</ele>
        <time>2024-09-18T12:34:13Z</time>
      </trkpt>
      <trkpt lat="46.62736" lon="4.95137">
        <ele>185.2</ele>
        <time>2024-09-18T12:34:14Z</time>
      </trkpt>
      <trkpt lat="46.62732" lon="4.95134">
        <ele>185.2</ele>
        <time>2024-09-18T12:34:15Z</time>
      </trkpt>
      <trkpt lat="46.62726" lon="4.95129">
        <ele>185.2</ele>
        <time>2024-09-18T12:34:16Z</time>
      </trkpt>
      <trkpt lat="46.62725" lon="4.95127">
        <ele>185.2</ele>
        <time>2024-09-18T12:34:17Z</time>
      </trkpt>
      <trkpt lat="46.62721" lon="4.95123">
        <ele>185.2</ele>
        <time>2024-09-18T12:34:18Z</time>
      </trkpt>
      <trkpt lat="46.62717" lon="4.95119">
        <ele>185.2</ele>
        <time>2024-09-18T12:34:19Z</time>
      </trkpt>
      <trkpt lat="46.62713" lon="4.95116">
        <ele>185.2</ele>
        <time>2024-09-18T12:34:20Z</time>
      </trkpt>
      <trkpt lat="46.6271" lon="4.95112">
        <ele>185.2</ele>
        <time>2024-09-18T12:34:21Z</time>
      </trkpt>
      <trkpt lat="46.62706" lon="4.95108">
        <ele>185.2</ele>
        <time>2024-09-18T12:34:22Z</time>
      </trkpt>
      <trkpt lat="46.62702" lon="4.95105">
        <ele>185.2</ele>
        <time>2024-09-18T12:34:23Z</time>
      </trkpt>
      <trkpt lat="46.62698" lon="4.95101">
        <ele>185.2</ele>
        <time>2024-09-18T12:34:24Z</time>
      </trkpt>
      <trkpt lat="46.62694" lon="4.95097">
        <ele>185.2</ele>
        <time>2024-09-18T12:34:25Z</time>
      </trkpt>
      <trkpt lat="46.62691" lon="4.95093">
        <ele>185.6</ele>
        <time>2024-09-18T12:34:26Z</time>
      </trkpt>
      <trkpt lat="46.62687" lon="4.95089">
        <ele>185.4</ele>
        <time>2024-09-18T12:34:27Z</time>
      </trkpt>
      <trkpt lat="46.62684" lon="4.95086">
        <ele>185.4</ele>
        <time>2024-09-18T12:34:28Z</time>
      </trkpt>
      <trkpt lat="46.6268" lon="4.95082">
        <ele>185.4</ele>
        <time>2024-09-18T12:34:29Z</time>
      </trkpt>
      <trkpt lat="46.62676" lon="4.95077">
        <ele>185</ele>
        <time>2024-09-18T12:34:30Z</time>
      </trkpt>
      <trkpt lat="46.62672" lon="4.95073">
        <ele>185</ele>
        <time>2024-09-18T12:34:31Z</time>
      </trkpt>
      <trkpt lat="46.62669" lon="4.95068">
        <ele>185</ele>
        <time>2024-09-18T12:34:32Z</time>
      </trkpt>
      <trkpt lat="46.62665" lon="4.95063">
        <ele>185</ele>
        <time>2024-09-18T12:34:33Z</time>
      </trkpt>
      <trkpt lat="46.62661" lon="4.95059">
        <ele>185</ele>
        <time>2024-09-18T12:34:34Z</time>
      </trkpt>
      <trkpt lat="46.62658" lon="4.95055">
        <ele>184.8</ele>
        <time>2024-09-18T12:34:35Z</time>
      </trkpt>
      <trkpt lat="46.62654" lon="4.9505">
        <ele>184.6</ele>
        <time>2024-09-18T12:34:36Z</time>
      </trkpt>
      <trkpt lat="46.6265" lon="4.95045">
        <ele>184.6</ele>
        <time>2024-09-18T12:34:37Z</time>
      </trkpt>
      <trkpt lat="46.62646" lon="4.9504">
        <ele>184.6</ele>
        <time>2024-09-18T12:34:38Z</time>
      </trkpt>
      <trkpt lat="46.62642" lon="4.95036">
        <ele>185.2</ele>
        <time>2024-09-18T12:34:39Z</time>
      </trkpt>
      <trkpt lat="46.62639" lon="4.95032">
        <ele>184.8</ele>
        <time>2024-09-18T12:34:40Z</time>
      </trkpt>
      <trkpt lat="46.62635" lon="4.95028">
        <ele>184.8</ele>
        <time>2024-09-18T12:34:41Z</time>
      </trkpt>
      <trkpt lat="46.62632" lon="4.95024">
        <ele>184.8</ele>
        <time>2024-09-18T12:34:42Z</time>
      </trkpt>
      <trkpt lat="46.62628" lon="4.9502">
        <ele>185</ele>
        <time>2024-09-18T12:34:43Z</time>
      </trkpt>
      <trkpt lat="46.62625" lon="4.95015">
        <ele>185</ele>
        <time>2024-09-18T12:34:44Z</time>
      </trkpt>
      <trkpt lat="46.62621" lon="4.95011">
        <ele>185.4</ele>
        <time>2024-09-18T12:34:45Z</time>
      </trkpt>
      <trkpt lat="46.62618" lon="4.95007">
        <ele>185.4</ele>
        <time>2024-09-18T12:34:46Z</time>
      </trkpt>
      <trkpt lat="46.62615" lon="4.95001">
        <ele>185.4</ele>
        <time>2024-09-18T12:34:47Z</time>
      </trkpt>
      <trkpt lat="46.62612" lon="4.94997">
        <ele>185.2</ele>
        <time>2024-09-18T12:34:48Z</time>
      </trkpt>
      <trkpt lat="46.62608" lon="4.94992">
        <ele>184.8</ele>
        <time>2024-09-18T12:34:49Z</time>
      </trkpt>
      <trkpt lat="46.62605" lon="4.94987">
        <ele>184.8</ele>
        <time>2024-09-18T12:34:50Z</time>
      </trkpt>
      <trkpt lat="46.62602" lon="4.94982">
        <ele>184.8</ele>
        <time>2024-09-18T12:34:51Z</time>
      </trkpt>
      <trkpt lat="46.62599" lon="4.94977">
        <ele>184.8</ele>
        <time>2024-09-18T12:34:52Z</time>
      </trkpt>
      <trkpt lat="46.62595" lon="4.94972">
        <ele>185.2</ele>
        <time>2024-09-18T12:34:53Z</time>
      </trkpt>
      <trkpt lat="46.62592" lon="4.94967">
        <ele>185.2</ele>
        <time>2024-09-18T12:34:54Z</time>
      </trkpt>
      <trkpt lat="46.62589" lon="4.94962">
        <ele>185.2</ele>
        <time>2024-09-18T12:34:55Z</time>
      </trkpt>
      <trkpt lat="46.62585" lon="4.94957">
        <ele>185.2</ele>
        <time>2024-09-18T12:34:56Z</time>
      </trkpt>
      <trkpt lat="46.62582" lon="4.94952">
        <ele>185.2</ele>
        <time>2024-09-18T12:34:57Z</time>
      </trkpt>
      <trkpt lat="46.62579" lon="4.94947">
        <ele>185.2</ele>
        <time>2024-09-18T12:34:58Z</time>
      </trkpt>
      <trkpt lat="46.62576" lon="4.94942">
        <ele>185</ele>
        <time>2024-09-18T12:34:59Z</time>
      </trkpt>
      <trkpt lat="46.62573" lon="4.94937">
        <ele>185</ele>
        <time>2024-09-18T12:35:00Z</time>
      </trkpt>
      <trkpt lat="46.6257" lon="4.94932">
        <ele>185</ele>
        <time>2024-09-18T12:35:01Z</time>
      </trkpt>
      <trkpt lat="46.62567" lon="4.94927">
        <ele>185</ele>
        <time>2024-09-18T12:35:02Z</time>
      </trkpt>
      <trkpt lat="46.62564" lon="4.94922">
        <ele>184.2</ele>
        <time>2024-09-18T12:35:03Z</time>
      </trkpt>
      <trkpt lat="46.62561" lon="4.94918">
        <ele>184.2</ele>
        <time>2024-09-18T12:35:04Z</time>
      </trkpt>
      <trkpt lat="46.62558" lon="4.94913">
        <ele>184.2</ele>
        <time>2024-09-18T12:35:05Z</time>
      </trkpt>
      <trkpt lat="46.62555" lon="4.94908">
        <ele>184.2</ele>
        <time>2024-09-18T12:35:06Z</time>
      </trkpt>
      <trkpt lat="46.62552" lon="4.94903">
        <ele>185.2</ele>
        <time>2024-09-18T12:35:07Z</time>
      </trkpt>
      <trkpt lat="46.62548" lon="4.94898">
        <ele>185</ele>
        <time>2024-09-18T12:35:08Z</time>
      </trkpt>
      <trkpt lat="46.62545" lon="4.94892">
        <ele>185</ele>
        <time>2024-09-18T12:35:09Z</time>
      </trkpt>
      <trkpt lat="46.62543" lon="4.94887">
        <ele>185</ele>
        <time>2024-09-18T12:35:10Z</time>
      </trkpt>
      <trkpt lat="46.6254" lon="4.94881">
        <ele>185</ele>
        <time>2024-09-18T12:35:11Z</time>
      </trkpt>
      <trkpt lat="46.62537" lon="4.94876">
        <ele>184.6</ele>
        <time>2024-09-18T12:35:12Z</time>
      </trkpt>
      <trkpt lat="46.62534" lon="4.94871">
        <ele>184.6</ele>
        <time>2024-09-18T12:35:13Z</time>
      </trkpt>
      <trkpt lat="46.62531" lon="4.94866">
        <ele>184.6</ele>
        <time>2024-09-18T12:35:14Z</time>
      </trkpt>
      <trkpt lat="46.62528" lon="4.94861">
        <ele>184.6</ele>
        <time>2024-09-18T12:35:15Z</time>
      </trkpt>
      <trkpt lat="46.62525" lon="4.94855">
        <ele>184.8</ele>
        <time>2024-09-18T12:35:16Z</time>
      </trkpt>
      <trkpt lat="46.62522" lon="4.9485">
        <ele>184.6</ele>
        <time>2024-09-18T12:35:17Z</time>
      </trkpt>
      <trkpt lat="46.62519" lon="4.94844">
        <ele>184.6</ele>
        <time>2024-09-18T12:35:18Z</time>
      </trkpt>
      <trkpt lat="46.62516" lon="4.94839">
        <ele>184.6</ele>
        <time>2024-09-18T12:35:19Z</time>
      </trkpt>
      <trkpt lat="46.62514" lon="4.94834">
        <ele>185</ele>
        <time>2024-09-18T12:35:20Z</time>
      </trkpt>
      <trkpt lat="46.62511" lon="4.94828">
        <ele>184.6</ele>
        <time>2024-09-18T12:35:21Z</time>
      </trkpt>
      <trkpt lat="46.62508" lon="4.94823">
        <ele>184.6</ele>
        <time>2024-09-18T12:35:22Z</time>
      </trkpt>
      <trkpt lat="46.62506" lon="4.94818">
        <ele>184.6</ele>
        <time>2024-09-18T12:35:23Z</time>
      </trkpt>
      <trkpt lat="46.62503" lon="4.94813">
        <ele>184.6</ele>
        <time>2024-09-18T12:35:24Z</time>
      </trkpt>
      <trkpt lat="46.62499" lon="4.94808">
        <ele>184.6</ele>
        <time>2024-09-18T12:35:25Z</time>
      </trkpt>
      <trkpt lat="46.62496" lon="4.94802">
        <ele>184.6</ele>
        <time>2024-09-18T12:35:26Z</time>
      </trkpt>
      <trkpt lat="46.62493" lon="4.94798">
        <ele>184.6</ele>
        <time>2024-09-18T12:35:27Z</time>
      </trkpt>
      <trkpt lat="46.6249" lon="4.94794">
        <ele>184.6</ele>
        <time>2024-09-18T12:35:28Z</time>
      </trkpt>
      <trkpt lat="46.62488" lon="4.94789">
        <ele>185</ele>
        <time>2024-09-18T12:35:29Z</time>
      </trkpt>
      <trkpt lat="46.62485" lon="4.94784">
        <ele>184.4</ele>
        <time>2024-09-18T12:35:30Z</time>
      </trkpt>
      <trkpt lat="46.62482" lon="4.94779">
        <ele>184.4</ele>
        <time>2024-09-18T12:35:31Z</time>
      </trkpt>
      <trkpt lat="46.62479" lon="4.94775">
        <ele>184.4</ele>
        <time>2024-09-18T12:35:32Z</time>
      </trkpt>
      <trkpt lat="46.62476" lon="4.9477">
        <ele>185</ele>
        <time>2024-09-18T12:35:33Z</time>
      </trkpt>
      <trkpt lat="46.62473" lon="4.94766">
        <ele>184.8</ele>
        <time>2024-09-18T12:35:34Z</time>
      </trkpt>
      <trkpt lat="46.62469" lon="4.94761">
        <ele>184.8</ele>
        <time>2024-09-18T12:35:35Z</time>
      </trkpt>
      <trkpt lat="46.62466" lon="4.94757">
        <ele>184.8</ele>
        <time>2024-09-18T12:35:36Z</time>
      </trkpt>
      <trkpt lat="46.62463" lon="4.94753">
        <ele>184.8</ele>
        <time>2024-09-18T12:35:37Z</time>
      </trkpt>
      <trkpt lat="46.6246" lon="4.94748">
        <ele>184.8</ele>
        <time>2024-09-18T12:35:38Z</time>
      </trkpt>
      <trkpt lat="46.62457" lon="4.94743">
        <ele>185.2</ele>
        <time>2024-09-18T12:35:39Z</time>
      </trkpt>
      <trkpt lat="46.62454" lon="4.94739">
        <ele>185</ele>
        <time>2024-09-18T12:35:40Z</time>
      </trkpt>
      <trkpt lat="46.62451" lon="4.94734">
        <ele>185</ele>
        <time>2024-09-18T12:35:41Z</time>
      </trkpt>
      <trkpt lat="46.62446" lon="4.94727">
        <ele>185</ele>
        <time>2024-09-18T12:35:42Z</time>
      </trkpt>
      <trkpt lat="46.62445" lon="4.94724">
        <ele>185</ele>
        <time>2024-09-18T12:35:43Z</time>
      </trkpt>
      <trkpt lat="46.62442" lon="4.94719">
        <ele>185</ele>
        <time>2024-09-18T12:35:44Z</time>
      </trkpt>
      <trkpt lat="46.62439" lon="4.94714">
        <ele>184.6</ele>
        <time>2024-09-18T12:35:45Z</time>
      </trkpt>
      <trkpt lat="46.62435" lon="4.9471">
        <ele>184.6</ele>
        <time>2024-09-18T12:35:46Z</time>
      </trkpt>
      <trkpt lat="46.62432" lon="4.94706">
        <ele>184.6</ele>
        <time>2024-09-18T12:35:47Z</time>
      </trkpt>
      <trkpt lat="46.62428" lon="4.94701">
        <ele>184.6</ele>
        <time>2024-09-18T12:35:48Z</time>
      </trkpt>
      <trkpt lat="46.62425" lon="4.94697">
        <ele>185</ele>
        <time>2024-09-18T12:35:49Z</time>
      </trkpt>
      <trkpt lat="46.62421" lon="4.94692">
        <ele>185</ele>
        <time>2024-09-18T12:35:50Z</time>
      </trkpt>
      <trkpt lat="46.62418" lon="4.94688">
        <ele>185</ele>
        <time>2024-09-18T12:35:51Z</time>
      </trkpt>
      <trkpt lat="46.62414" lon="4.94684">
        <ele>185</ele>
        <time>2024-09-18T12:35:52Z</time>
      </trkpt>
      <trkpt lat="46.6241" lon="4.94679">
        <ele>184.6</ele>
        <time>2024-09-18T12:35:53Z</time>
      </trkpt>
      <trkpt lat="46.62406" lon="4.94674">
        <ele>184.6</ele>
        <time>2024-09-18T12:35:54Z</time>
      </trkpt>
      <trkpt lat="46.62403" lon="4.9467">
        <ele>184.6</ele>
        <time>2024-09-18T12:35:55Z</time>
      </trkpt>
      <trkpt lat="46.624" lon="4.94664">
        <ele>185</ele>
        <time>2024-09-18T12:35:56Z</time>
      </trkpt>
      <trkpt lat="46.62398" lon="4.94659">
        <ele>185.2</ele>
        <time>2024-09-18T12:35:57Z</time>
      </trkpt>
      <trkpt lat="46.62395" lon="4.94655">
        <ele>185.2</ele>
        <time>2024-09-18T12:35:58Z</time>
      </trkpt>
      <trkpt lat="46.62391" lon="4.94649">
        <ele>185.2</ele>
        <time>2024-09-18T12:35:59Z</time>
      </trkpt>
      <trkpt lat="46.62387" lon="4.94644">
        <ele>185.2</ele>
        <time>2024-09-18T12:36:00Z</time>
      </trkpt>
      <trkpt lat="46.62384" lon="4.94639">
        <ele>184.6</ele>
        <time>2024-09-18T12:36:01Z</time>
      </trkpt>
      <trkpt lat="46.62381" lon="4.94633">
        <ele>185.2</ele>
        <time>2024-09-18T12:36:02Z</time>
      </trkpt>
      <trkpt lat="46.62378" lon="4.94628">
        <ele>185.2</ele>
        <time>2024-09-18T12:36:03Z</time>
      </trkpt>
      <trkpt lat="46.62375" lon="4.94624">
        <ele>185.2</ele>
        <time>2024-09-18T12:36:04Z</time>
      </trkpt>
      <trkpt lat="46.62372" lon="4.94619">
        <ele>184.8</ele>
        <time>2024-09-18T12:36:05Z</time>
      </trkpt>
      <trkpt lat="46.62369" lon="4.94615">
        <ele>185</ele>
        <time>2024-09-18T12:36:06Z</time>
      </trkpt>
      <trkpt lat="46.62366" lon="4.94609">
        <ele>185</ele>
        <time>2024-09-18T12:36:07Z</time>
      </trkpt>
      <trkpt lat="46.62363" lon="4.94605">
        <ele>185</ele>
        <time>2024-09-18T12:36:08Z</time>
      </trkpt>
      <trkpt lat="46.6236" lon="4.946">
        <ele>185</ele>
        <time>2024-09-18T12:36:09Z</time>
      </trkpt>
      <trkpt lat="46.62357" lon="4.94594">
        <ele>185</ele>
        <time>2024-09-18T12:36:10Z</time>
      </trkpt>
      <trkpt lat="46.62353" lon="4.94589">
        <ele>185</ele>
        <time>2024-09-18T12:36:11Z</time>
      </trkpt>
      <trkpt lat="46.62349" lon="4.94584">
        <ele>185</ele>
        <time>2024-09-18T12:36:12Z</time>
      </trkpt>
      <trkpt lat="46.62346" lon="4.94579">
        <ele>185</ele>
        <time>2024-09-18T12:36:13Z</time>
      </trkpt>
      <trkpt lat="46.62343" lon="4.94574">
        <ele>185</ele>
        <time>2024-09-18T12:36:14Z</time>
      </trkpt>
      <trkpt lat="46.62339" lon="4.94569">
        <ele>185.2</ele>
        <time>2024-09-18T12:36:15Z</time>
      </trkpt>
      <trkpt lat="46.62336" lon="4.94565">
        <ele>185.2</ele>
        <time>2024-09-18T12:36:16Z</time>
      </trkpt>
      <trkpt lat="46.62332" lon="4.9456">
        <ele>185.2</ele>
        <time>2024-09-18T12:36:17Z</time>
      </trkpt>
      <trkpt lat="46.62328" lon="4.94556">
        <ele>185.4</ele>
        <time>2024-09-18T12:36:18Z</time>
      </trkpt>
      <trkpt lat="46.62324" lon="4.94552">
        <ele>185.4</ele>
        <time>2024-09-18T12:36:19Z</time>
      </trkpt>
      <trkpt lat="46.6232" lon="4.94548">
        <ele>185.2</ele>
        <time>2024-09-18T12:36:20Z</time>
      </trkpt>
      <trkpt lat="46.62316" lon="4.94544">
        <ele>185.2</ele>
        <time>2024-09-18T12:36:21Z</time>
      </trkpt>
      <trkpt lat="46.62312" lon="4.9454">
        <ele>185.2</ele>
        <time>2024-09-18T12:36:22Z</time>
      </trkpt>
      <trkpt lat="46.62308" lon="4.94537">
        <ele>185.2</ele>
        <time>2024-09-18T12:36:23Z</time>
      </trkpt>
      <trkpt lat="46.62304" lon="4.94533">
        <ele>185.2</ele>
        <time>2024-09-18T12:36:24Z</time>
      </trkpt>
      <trkpt lat="46.623" lon="4.94529">
        <ele>185.2</ele>
        <time>2024-09-18T12:36:25Z</time>
      </trkpt>
      <trkpt lat="46.62296" lon="4.94526">
        <ele>185.2</ele>
        <time>2024-09-18T12:36:26Z</time>
      </trkpt>
      <trkpt lat="46.62292" lon="4.94523">
        <ele>185.2</ele>
        <time>2024-09-18T12:36:27Z</time>
      </trkpt>
      <trkpt lat="46.62288" lon="4.94519">
        <ele>185.2</ele>
        <time>2024-09-18T12:36:28Z</time>
      </trkpt>
      <trkpt lat="46.62285" lon="4.94516">
        <ele>185.4</ele>
        <time>2024-09-18T12:36:29Z</time>
      </trkpt>
      <trkpt lat="46.62281" lon="4.94513">
        <ele>185.4</ele>
        <time>2024-09-18T12:36:30Z</time>
      </trkpt>
      <trkpt lat="46.62277" lon="4.94509">
        <ele>185.4</ele>
        <time>2024-09-18T12:36:31Z</time>
      </trkpt>
      <trkpt lat="46.62273" lon="4.94505">
        <ele>185.4</ele>
        <time>2024-09-18T12:36:32Z</time>
      </trkpt>
      <trkpt lat="46.62269" lon="4.94502">
        <ele>185.4</ele>
        <time>2024-09-18T12:36:33Z</time>
      </trkpt>
      <trkpt lat="46.62265" lon="4.94499">
        <ele>185.4</ele>
        <time>2024-09-18T12:36:34Z</time>
      </trkpt>
      <trkpt lat="46.62261" lon="4.94495">
        <ele>185.4</ele>
        <time>2024-09-18T12:36:35Z</time>
      </trkpt>
      <trkpt lat="46.62257" lon="4.94492">
        <ele>185.2</ele>
        <time>2024-09-18T12:36:36Z</time>
      </trkpt>
      <trkpt lat="46.62253" lon="4.94488">
        <ele>184.8</ele>
        <time>2024-09-18T12:36:37Z</time>
      </trkpt>
      <trkpt lat="46.62249" lon="4.94484">
        <ele>184.8</ele>
        <time>2024-09-18T12:36:38Z</time>
      </trkpt>
      <trkpt lat="46.62245" lon="4.9448">
        <ele>184.8</ele>
        <time>2024-09-18T12:36:39Z</time>
      </trkpt>
      <trkpt lat="46.62241" lon="4.94476">
        <ele>184.8</ele>
        <time>2024-09-18T12:36:40Z</time>
      </trkpt>
      <trkpt lat="46.62237" lon="4.94473">
        <ele>185</ele>
        <time>2024-09-18T12:36:41Z</time>
      </trkpt>
      <trkpt lat="46.62233" lon="4.94469">
        <ele>185.2</ele>
        <time>2024-09-18T12:36:42Z</time>
      </trkpt>
      <trkpt lat="46.62229" lon="4.94466">
        <ele>185.2</ele>
        <time>2024-09-18T12:36:43Z</time>
      </trkpt>
      <trkpt lat="46.62225" lon="4.94462">
        <ele>185.2</ele>
        <time>2024-09-18T12:36:44Z</time>
      </trkpt>
      <trkpt lat="46.62222" lon="4.94459">
        <ele>185.2</ele>
        <time>2024-09-18T12:36:45Z</time>
      </trkpt>
      <trkpt lat="46.62218" lon="4.94456">
        <ele>185</ele>
        <time>2024-09-18T12:36:46Z</time>
      </trkpt>
      <trkpt lat="46.62214" lon="4.94454">
        <ele>185</ele>
        <time>2024-09-18T12:36:47Z</time>
      </trkpt>
      <trkpt lat="46.62211" lon="4.94451">
        <ele>185</ele>
        <time>2024-09-18T12:36:48Z</time>
      </trkpt>
      <trkpt lat="46.62207" lon="4.94448">
        <ele>185</ele>
        <time>2024-09-18T12:36:49Z</time>
      </trkpt>
      <trkpt lat="46.62204" lon="4.94445">
        <ele>185</ele>
        <time>2024-09-18T12:36:50Z</time>
      </trkpt>
      <trkpt lat="46.62201" lon="4.94442">
        <ele>185.2</ele>
        <time>2024-09-18T12:36:51Z</time>
      </trkpt>
      <trkpt lat="46.62197" lon="4.94438">
        <ele>185.2</ele>
        <time>2024-09-18T12:36:52Z</time>
      </trkpt>
      <trkpt lat="46.62194" lon="4.94435">
        <ele>185.2</ele>
        <time>2024-09-18T12:36:53Z</time>
      </trkpt>
      <trkpt lat="46.6219" lon="4.94432">
        <ele>185.2</ele>
        <time>2024-09-18T12:36:54Z</time>
      </trkpt>
      <trkpt lat="46.62186" lon="4.94428">
        <ele>184.8</ele>
        <time>2024-09-18T12:36:55Z</time>
      </trkpt>
      <trkpt lat="46.62182" lon="4.94424">
        <ele>184.8</ele>
        <time>2024-09-18T12:36:56Z</time>
      </trkpt>
      <trkpt lat="46.62178" lon="4.94421">
        <ele>184.8</ele>
        <time>2024-09-18T12:36:57Z</time>
      </trkpt>
      <trkpt lat="46.62174" lon="4.94418">
        <ele>185.2</ele>
        <time>2024-09-18T12:36:58Z</time>
      </trkpt>
      <trkpt lat="46.6217" lon="4.94415">
        <ele>185.2</ele>
        <time>2024-09-18T12:36:59Z</time>
      </trkpt>
      <trkpt lat="46.62166" lon="4.94411">
        <ele>185.2</ele>
        <time>2024-09-18T12:37:00Z</time>
      </trkpt>
      <trkpt lat="46.62162" lon="4.94408">
        <ele>185.2</ele>
        <time>2024-09-18T12:37:01Z</time>
      </trkpt>
      <trkpt lat="46.62158" lon="4.94405">
        <ele>185.2</ele>
        <time>2024-09-18T12:37:02Z</time>
      </trkpt>
      <trkpt lat="46.62154" lon="4.94401">
        <ele>185.2</ele>
        <time>2024-09-18T12:37:03Z</time>
      </trkpt>
      <trkpt lat="46.6215" lon="4.94398">
        <ele>185.4</ele>
        <time>2024-09-18T12:37:04Z</time>
      </trkpt>
      <trkpt lat="46.62146" lon="4.94394">
        <ele>184.8</ele>
        <time>2024-09-18T12:37:05Z</time>
      </trkpt>
      <trkpt lat="46.62141" lon="4.94391">
        <ele>184.8</ele>
        <time>2024-09-18T12:37:06Z</time>
      </trkpt>
      <trkpt lat="46.62137" lon="4.94388">
        <ele>184.8</ele>
        <time>2024-09-18T12:37:07Z</time>
      </trkpt>
      <trkpt lat="46.62133" lon="4.94384">
        <ele>184.8</ele>
        <time>2024-09-18T12:37:08Z</time>
      </trkpt>
      <trkpt lat="46.62129" lon="4.9438">
        <ele>185.4</ele>
        <time>2024-09-18T12:37:09Z</time>
      </trkpt>
      <trkpt lat="46.62125" lon="4.94377">
        <ele>185.4</ele>
        <time>2024-09-18T12:37:10Z</time>
      </trkpt>
      <trkpt lat="46.62121" lon="4.94374">
        <ele>185.4</ele>
        <time>2024-09-18T12:37:11Z</time>
      </trkpt>
      <trkpt lat="46.62117" lon="4.94371">
        <ele>185.4</ele>
        <time>2024-09-18T12:37:12Z</time>
      </trkpt>
      <trkpt lat="46.62113" lon="4.94368">
        <ele>185.4</ele>
        <time>2024-09-18T12:37:13Z</time>
      </trkpt>
      <trkpt lat="46.62109" lon="4.94366">
        <ele>185.4</ele>
        <time>2024-09-18T12:37:14Z</time>
      </trkpt>
      <trkpt lat="46.62104" lon="4.94362">
        <ele>185.4</ele>
        <time>2024-09-18T12:37:15Z</time>
      </trkpt>
      <trkpt lat="46.62099" lon="4.94358">
        <ele>185.4</ele>
        <time>2024-09-18T12:37:16Z</time>
      </trkpt>
      <trkpt lat="46.62097" lon="4.94357">
        <ele>185.4</ele>
        <time>2024-09-18T12:37:17Z</time>
      </trkpt>
      <trkpt lat="46.62093" lon="4.94355">
        <ele>185.4</ele>
        <time>2024-09-18T12:37:18Z</time>
      </trkpt>
      <trkpt lat="46.62089" lon="4.94353">
        <ele>184.8</ele>
        <time>2024-09-18T12:37:19Z</time>
      </trkpt>
      <trkpt lat="46.62085" lon="4.94352">
        <ele>184.8</ele>
        <time>2024-09-18T12:37:20Z</time>
      </trkpt>
      <trkpt lat="46.6208" lon="4.9435">
        <ele>185.2</ele>
        <time>2024-09-18T12:37:21Z</time>
      </trkpt>
      <trkpt lat="46.62077" lon="4.94347">
        <ele>184.8</ele>
        <time>2024-09-18T12:37:22Z</time>
      </trkpt>
      <trkpt lat="46.62073" lon="4.94345">
        <ele>184.8</ele>
        <time>2024-09-18T12:37:23Z</time>
      </trkpt>
      <trkpt lat="46.62068" lon="4.94342">
        <ele>184.8</ele>
        <time>2024-09-18T12:37:24Z</time>
      </trkpt>
      <trkpt lat="46.62064" lon="4.9434">
        <ele>184.8</ele>
        <time>2024-09-18T12:37:25Z</time>
      </trkpt>
      <trkpt lat="46.6206" lon="4.94339">
        <ele>185.8</ele>
        <time>2024-09-18T12:37:26Z</time>
      </trkpt>
      <trkpt lat="46.62055" lon="4.94337">
        <ele>185</ele>
        <time>2024-09-18T12:37:27Z</time>
      </trkpt>
      <trkpt lat="46.62051" lon="4.94336">
        <ele>185</ele>
        <time>2024-09-18T12:37:28Z</time>
      </trkpt>
      <trkpt lat="46.62046" lon="4.94334">
        <ele>185</ele>
        <time>2024-09-18T12:37:29Z</time>
      </trkpt>
      <trkpt lat="46.62042" lon="4.94332">
        <ele>185.2</ele>
        <time>2024-09-18T12:37:30Z</time>
      </trkpt>
      <trkpt lat="46.62038" lon="4.9433">
        <ele>185.2</ele>
        <time>2024-09-18T12:37:31Z</time>
      </trkpt>
      <trkpt lat="46.62034" lon="4.94329">
        <ele>185.2</ele>
        <time>2024-09-18T12:37:32Z</time>
      </trkpt>
      <trkpt lat="46.62029" lon="4.94327">
        <ele>185.2</ele>
        <time>2024-09-18T12:37:33Z</time>
      </trkpt>
      <trkpt lat="46.62025" lon="4.94325">
        <ele>185.2</ele>
        <time>2024-09-18T12:37:34Z</time>
      </trkpt>
      <trkpt lat="46.6202" lon="4.94323">
        <ele>185.2</ele>
        <time>2024-09-18T12:37:35Z</time>
      </trkpt>
      <trkpt lat="46.62016" lon="4.94321">
        <ele>184.8</ele>
        <time>2024-09-18T12:37:36Z</time>
      </trkpt>
      <trkpt lat="46.62011" lon="4.94318">
        <ele>184.8</ele>
        <time>2024-09-18T12:37:37Z</time>
      </trkpt>
      <trkpt lat="46.62007" lon="4.94316">
        <ele>184.8</ele>
        <time>2024-09-18T12:37:38Z</time>
      </trkpt>
      <trkpt lat="46.62003" lon="4.94315">
        <ele>185.4</ele>
        <time>2024-09-18T12:37:39Z</time>
      </trkpt>
      <trkpt lat="46.61998" lon="4.94313">
        <ele>185</ele>
        <time>2024-09-18T12:37:40Z</time>
      </trkpt>
      <trkpt lat="46.61994" lon="4.9431">
        <ele>185</ele>
        <time>2024-09-18T12:37:41Z</time>
      </trkpt>
      <trkpt lat="46.61989" lon="4.94309">
        <ele>185</ele>
        <time>2024-09-18T12:37:42Z</time>
      </trkpt>
      <trkpt lat="46.61984" lon="4.94307">
        <ele>185</ele>
        <time>2024-09-18T12:37:43Z</time>
      </trkpt>
      <trkpt lat="46.6198" lon="4.94305">
        <ele>185.4</ele>
        <time>2024-09-18T12:37:44Z</time>
      </trkpt>
      <trkpt lat="46.61976" lon="4.94304">
        <ele>185.4</ele>
        <time>2024-09-18T12:37:45Z</time>
      </trkpt>
      <trkpt lat="46.61972" lon="4.94302">
        <ele>185.4</ele>
        <time>2024-09-18T12:37:46Z</time>
      </trkpt>
      <trkpt lat="46.61968" lon="4.943">
        <ele>185.4</ele>
        <time>2024-09-18T12:37:47Z</time>
      </trkpt>
      <trkpt lat="46.61963" lon="4.94298">
        <ele>185.4</ele>
        <time>2024-09-18T12:37:48Z</time>
      </trkpt>
      <trkpt lat="46.61959" lon="4.94296">
        <ele>185.4</ele>
        <time>2024-09-18T12:37:49Z</time>
      </trkpt>
      <trkpt lat="46.61955" lon="4.94295">
        <ele>185.4</ele>
        <time>2024-09-18T12:37:50Z</time>
      </trkpt>
      <trkpt lat="46.61951" lon="4.94293">
        <ele>185.6</ele>
        <time>2024-09-18T12:37:51Z</time>
      </trkpt>
      <trkpt lat="46.61946" lon="4.94291">
        <ele>185.6</ele>
        <time>2024-09-18T12:37:52Z</time>
      </trkpt>
      <trkpt lat="46.61942" lon="4.9429">
        <ele>185.6</ele>
        <time>2024-09-18T12:37:53Z</time>
      </trkpt>
      <trkpt lat="46.61938" lon="4.94288">
        <ele>185.2</ele>
        <time>2024-09-18T12:37:54Z</time>
      </trkpt>
      <trkpt lat="46.61933" lon="4.94286">
        <ele>185.2</ele>
        <time>2024-09-18T12:37:55Z</time>
      </trkpt>
      <trkpt lat="46.61929" lon="4.94284">
        <ele>185.2</ele>
        <time>2024-09-18T12:37:56Z</time>
      </trkpt>
      <trkpt lat="46.61925" lon="4.94283">
        <ele>185.2</ele>
        <time>2024-09-18T12:37:57Z</time>
      </trkpt>
      <trkpt lat="46.61921" lon="4.94281">
        <ele>185.4</ele>
        <time>2024-09-18T12:37:58Z</time>
      </trkpt>
      <trkpt lat="46.61916" lon="4.94279">
        <ele>186</ele>
        <time>2024-09-18T12:37:59Z</time>
      </trkpt>
      <trkpt lat="46.61912" lon="4.94278">
        <ele>186</ele>
        <time>2024-09-18T12:38:00Z</time>
      </trkpt>
      <trkpt lat="46.61908" lon="4.94276">
        <ele>186</ele>
        <time>2024-09-18T12:38:01Z</time>
      </trkpt>
      <trkpt lat="46.61904" lon="4.94274">
        <ele>186</ele>
        <time>2024-09-18T12:38:02Z</time>
      </trkpt>
      <trkpt lat="46.61899" lon="4.94272">
        <ele>185.6</ele>
        <time>2024-09-18T12:38:03Z</time>
      </trkpt>
      <trkpt lat="46.61895" lon="4.94271">
        <ele>185.6</ele>
        <time>2024-09-18T12:38:04Z</time>
      </trkpt>
      <trkpt lat="46.6189" lon="4.94269">
        <ele>185.6</ele>
        <time>2024-09-18T12:38:05Z</time>
      </trkpt>
      <trkpt lat="46.61886" lon="4.94268">
        <ele>185.6</ele>
        <time>2024-09-18T12:38:06Z</time>
      </trkpt>
      <trkpt lat="46.61881" lon="4.94267">
        <ele>185.8</ele>
        <time>2024-09-18T12:38:07Z</time>
      </trkpt>
      <trkpt lat="46.61877" lon="4.94265">
        <ele>185.6</ele>
        <time>2024-09-18T12:38:08Z</time>
      </trkpt>
      <trkpt lat="46.61872" lon="4.94264">
        <ele>185.6</ele>
        <time>2024-09-18T12:38:09Z</time>
      </trkpt>
      <trkpt lat="46.61868" lon="4.94262">
        <ele>185.6</ele>
        <time>2024-09-18T12:38:10Z</time>
      </trkpt>
      <trkpt lat="46.61863" lon="4.94261">
        <ele>185.6</ele>
        <time>2024-09-18T12:38:11Z</time>
      </trkpt>
      <trkpt lat="46.61859" lon="4.9426">
        <ele>186</ele>
        <time>2024-09-18T12:38:12Z</time>
      </trkpt>
      <trkpt lat="46.61854" lon="4.94258">
        <ele>186</ele>
        <time>2024-09-18T12:38:13Z</time>
      </trkpt>
      <trkpt lat="46.6185" lon="4.94256">
        <ele>186</ele>
        <time>2024-09-18T12:38:14Z</time>
      </trkpt>
      <trkpt lat="46.61845" lon="4.94255">
        <ele>186</ele>
        <time>2024-09-18T12:38:15Z</time>
      </trkpt>
      <trkpt lat="46.61841" lon="4.94253">
        <ele>186</ele>
        <time>2024-09-18T12:38:16Z</time>
      </trkpt>
      <trkpt lat="46.61837" lon="4.94252">
        <ele>186.6</ele>
        <time>2024-09-18T12:38:17Z</time>
      </trkpt>
      <trkpt lat="46.61832" lon="4.9425">
        <ele>186.6</ele>
        <time>2024-09-18T12:38:18Z</time>
      </trkpt>
      <trkpt lat="46.61828" lon="4.94248">
        <ele>186.6</ele>
        <time>2024-09-18T12:38:19Z</time>
      </trkpt>
      <trkpt lat="46.61823" lon="4.94246">
        <ele>186</ele>
        <time>2024-09-18T12:38:20Z</time>
      </trkpt>
      <trkpt lat="46.61819" lon="4.94244">
        <ele>185.6</ele>
        <time>2024-09-18T12:38:21Z</time>
      </trkpt>
      <trkpt lat="46.61815" lon="4.94243">
        <ele>185.6</ele>
        <time>2024-09-18T12:38:22Z</time>
      </trkpt>
      <trkpt lat="46.6181" lon="4.94241">
        <ele>185.6</ele>
        <time>2024-09-18T12:38:23Z</time>
      </trkpt>
      <trkpt lat="46.61805" lon="4.94239">
        <ele>186</ele>
        <time>2024-09-18T12:38:24Z</time>
      </trkpt>
      <trkpt lat="46.61801" lon="4.94238">
        <ele>185.4</ele>
        <time>2024-09-18T12:38:25Z</time>
      </trkpt>
      <trkpt lat="46.61796" lon="4.94237">
        <ele>185.4</ele>
        <time>2024-09-18T12:38:26Z</time>
      </trkpt>
      <trkpt lat="46.61791" lon="4.94235">
        <ele>185.4</ele>
        <time>2024-09-18T12:38:27Z</time>
      </trkpt>
      <trkpt lat="46.61787" lon="4.94233">
        <ele>185.6</ele>
        <time>2024-09-18T12:38:28Z</time>
      </trkpt>
      <trkpt lat="46.61783" lon="4.94231">
        <ele>185.6</ele>
        <time>2024-09-18T12:38:29Z</time>
      </trkpt>
      <trkpt lat="46.61778" lon="4.94229">
        <ele>186.4</ele>
        <time>2024-09-18T12:38:30Z</time>
      </trkpt>
      <trkpt lat="46.61773" lon="4.94228">
        <ele>186.4</ele>
        <time>2024-09-18T12:38:31Z</time>
      </trkpt>
      <trkpt lat="46.61768" lon="4.94226">
        <ele>186.4</ele>
        <time>2024-09-18T12:38:32Z</time>
      </trkpt>
      <trkpt lat="46.61764" lon="4.94224">
        <ele>186.4</ele>
        <time>2024-09-18T12:38:33Z</time>
      </trkpt>
      <trkpt lat="46.61759" lon="4.94223">
        <ele>185.8</ele>
        <time>2024-09-18T12:38:34Z</time>
      </trkpt>
      <trkpt lat="46.61754" lon="4.94221">
        <ele>185.8</ele>
        <time>2024-09-18T12:38:35Z</time>
      </trkpt>
      <trkpt lat="46.61749" lon="4.9422">
        <ele>186.2</ele>
        <time>2024-09-18T12:38:36Z</time>
      </trkpt>
      <trkpt lat="46.61745" lon="4.94219">
        <ele>186.2</ele>
        <time>2024-09-18T12:38:37Z</time>
      </trkpt>
      <trkpt lat="46.6174" lon="4.94217">
        <ele>186</ele>
        <time>2024-09-18T12:38:38Z</time>
      </trkpt>
      <trkpt lat="46.61736" lon="4.94215">
        <ele>186</ele>
        <time>2024-09-18T12:38:39Z</time>
      </trkpt>
      <trkpt lat="46.61731" lon="4.94214">
        <ele>186</ele>
        <time>2024-09-18T12:38:40Z</time>
      </trkpt>
      <trkpt lat="46.61726" lon="4.94213">
        <ele>186</ele>
        <time>2024-09-18T12:38:41Z</time>
      </trkpt>
      <trkpt lat="46.61722" lon="4.94211">
        <ele>186</ele>
        <time>2024-09-18T12:38:42Z</time>
      </trkpt>
      <trkpt lat="46.61717" lon="4.9421">
        <ele>186.2</ele>
        <time>2024-09-18T12:38:43Z</time>
      </trkpt>
      <trkpt lat="46.61712" lon="4.94209">
        <ele>186.2</ele>
        <time>2024-09-18T12:38:44Z</time>
      </trkpt>
      <trkpt lat="46.61707" lon="4.94207">
        <ele>186.2</ele>
        <time>2024-09-18T12:38:45Z</time>
      </trkpt>
      <trkpt lat="46.61703" lon="4.94205">
        <ele>186.2</ele>
        <time>2024-09-18T12:38:46Z</time>
      </trkpt>
      <trkpt lat="46.61698" lon="4.94204">
        <ele>186.2</ele>
        <time>2024-09-18T12:38:47Z</time>
      </trkpt>
      <trkpt lat="46.61694" lon="4.94203">
        <ele>186.2</ele>
        <time>2024-09-18T12:38:48Z</time>
      </trkpt>
      <trkpt lat="46.61689" lon="4.94202">
        <ele>186.2</ele>
        <time>2024-09-18T12:38:49Z</time>
      </trkpt>
      <trkpt lat="46.61685" lon="4.94201">
        <ele>186.2</ele>
        <time>2024-09-18T12:38:50Z</time>
      </trkpt>
      <trkpt lat="46.6168" lon="4.942">
        <ele>186.2</ele>
        <time>2024-09-18T12:38:51Z</time>
      </trkpt>
      <trkpt lat="46.61676" lon="4.94199">
        <ele>186.2</ele>
        <time>2024-09-18T12:38:52Z</time>
      </trkpt>
      <trkpt lat="46.61672" lon="4.94198">
        <ele>186</ele>
        <time>2024-09-18T12:38:53Z</time>
      </trkpt>
      <trkpt lat="46.61667" lon="4.94197">
        <ele>186</ele>
        <time>2024-09-18T12:38:54Z</time>
      </trkpt>
      <trkpt lat="46.61662" lon="4.94196">
        <ele>186</ele>
        <time>2024-09-18T12:38:55Z</time>
      </trkpt>
      <trkpt lat="46.61658" lon="4.94195">
        <ele>186</ele>
        <time>2024-09-18T12:38:56Z</time>
      </trkpt>
      <trkpt lat="46.61654" lon="4.94195">
        <ele>186</ele>
        <time>2024-09-18T12:38:57Z</time>
      </trkpt>
      <trkpt lat="46.61649" lon="4.94194">
        <ele>186</ele>
        <time>2024-09-18T12:38:58Z</time>
      </trkpt>
      <trkpt lat="46.61645" lon="4.94192">
        <ele>186</ele>
        <time>2024-09-18T12:38:59Z</time>
      </trkpt>
      <trkpt lat="46.6164" lon="4.94191">
        <ele>186</ele>
        <time>2024-09-18T12:39:00Z</time>
      </trkpt>
      <trkpt lat="46.61635" lon="4.9419">
        <ele>186</ele>
        <time>2024-09-18T12:39:01Z</time>
      </trkpt>
      <trkpt lat="46.6163" lon="4.94189">
        <ele>186</ele>
        <time>2024-09-18T12:39:02Z</time>
      </trkpt>
      <trkpt lat="46.61625" lon="4.94188">
        <ele>186</ele>
        <time>2024-09-18T12:39:03Z</time>
      </trkpt>
      <trkpt lat="46.6162" lon="4.94187">
        <ele>186</ele>
        <time>2024-09-18T12:39:04Z</time>
      </trkpt>
      <trkpt lat="46.61615" lon="4.94186">
        <ele>186</ele>
        <time>2024-09-18T12:39:05Z</time>
      </trkpt>
      <trkpt lat="46.6161" lon="4.94186">
        <ele>186.2</ele>
        <time>2024-09-18T12:39:06Z</time>
      </trkpt>
      <trkpt lat="46.61606" lon="4.94185">
        <ele>186.2</ele>
        <time>2024-09-18T12:39:07Z</time>
      </trkpt>
      <trkpt lat="46.61601" lon="4.94184">
        <ele>186.2</ele>
        <time>2024-09-18T12:39:08Z</time>
      </trkpt>
      <trkpt lat="46.61596" lon="4.94183">
        <ele>186.2</ele>
        <time>2024-09-18T12:39:09Z</time>
      </trkpt>
      <trkpt lat="46.61592" lon="4.94183">
        <ele>185.6</ele>
        <time>2024-09-18T12:39:10Z</time>
      </trkpt>
      <trkpt lat="46.61587" lon="4.94182">
        <ele>185.6</ele>
        <time>2024-09-18T12:39:11Z</time>
      </trkpt>
      <trkpt lat="46.61582" lon="4.94181">
        <ele>185.6</ele>
        <time>2024-09-18T12:39:12Z</time>
      </trkpt>
      <trkpt lat="46.61578" lon="4.9418">
        <ele>185.6</ele>
        <time>2024-09-18T12:39:13Z</time>
      </trkpt>
      <trkpt lat="46.61573" lon="4.94179">
        <ele>185.6</ele>
        <time>2024-09-18T12:39:14Z</time>
      </trkpt>
      <trkpt lat="46.61568" lon="4.94179">
        <ele>185.6</ele>
        <time>2024-09-18T12:39:15Z</time>
      </trkpt>
      <trkpt lat="46.61564" lon="4.94178">
        <ele>186</ele>
        <time>2024-09-18T12:39:16Z</time>
      </trkpt>
      <trkpt lat="46.61559" lon="4.94177">
        <ele>186</ele>
        <time>2024-09-18T12:39:17Z</time>
      </trkpt>
      <trkpt lat="46.61554" lon="4.94175">
        <ele>186</ele>
        <time>2024-09-18T12:39:18Z</time>
      </trkpt>
      <trkpt lat="46.6155" lon="4.94174">
        <ele>186</ele>
        <time>2024-09-18T12:39:19Z</time>
      </trkpt>
      <trkpt lat="46.61545" lon="4.94173">
        <ele>185.8</ele>
        <time>2024-09-18T12:39:20Z</time>
      </trkpt>
      <trkpt lat="46.6154" lon="4.94172">
        <ele>185.8</ele>
        <time>2024-09-18T12:39:21Z</time>
      </trkpt>
      <trkpt lat="46.61536" lon="4.94171">
        <ele>185.8</ele>
        <time>2024-09-18T12:39:22Z</time>
      </trkpt>
      <trkpt lat="46.61532" lon="4.9417">
        <ele>186.4</ele>
        <time>2024-09-18T12:39:23Z</time>
      </trkpt>
      <trkpt lat="46.61527" lon="4.94169">
        <ele>186.4</ele>
        <time>2024-09-18T12:39:24Z</time>
      </trkpt>
      <trkpt lat="46.61523" lon="4.94168">
        <ele>186.4</ele>
        <time>2024-09-18T12:39:25Z</time>
      </trkpt>
      <trkpt lat="46.61518" lon="4.94167">
        <ele>186.4</ele>
        <time>2024-09-18T12:39:26Z</time>
      </trkpt>
      <trkpt lat="46.61514" lon="4.94166">
        <ele>186.4</ele>
        <time>2024-09-18T12:39:27Z</time>
      </trkpt>
      <trkpt lat="46.61509" lon="4.94165">
        <ele>186.2</ele>
        <time>2024-09-18T12:39:28Z</time>
      </trkpt>
      <trkpt lat="46.61504" lon="4.94164">
        <ele>186.2</ele>
        <time>2024-09-18T12:39:29Z</time>
      </trkpt>
      <trkpt lat="46.615" lon="4.94163">
        <ele>186.2</ele>
        <time>2024-09-18T12:39:30Z</time>
      </trkpt>
      <trkpt lat="46.61495" lon="4.94162">
        <ele>186.2</ele>
        <time>2024-09-18T12:39:31Z</time>
      </trkpt>
      <trkpt lat="46.6149" lon="4.94161">
        <ele>186.2</ele>
        <time>2024-09-18T12:39:32Z</time>
      </trkpt>
      <trkpt lat="46.61486" lon="4.9416">
        <ele>186</ele>
        <time>2024-09-18T12:39:33Z</time>
      </trkpt>
      <trkpt lat="46.61481" lon="4.94159">
        <ele>186</ele>
        <time>2024-09-18T12:39:34Z</time>
      </trkpt>
      <trkpt lat="46.61477" lon="4.94158">
        <ele>186</ele>
        <time>2024-09-18T12:39:35Z</time>
      </trkpt>
      <trkpt lat="46.61472" lon="4.94157">
        <ele>186</ele>
        <time>2024-09-18T12:39:36Z</time>
      </trkpt>
      <trkpt lat="46.61468" lon="4.94157">
        <ele>185.8</ele>
        <time>2024-09-18T12:39:37Z</time>
      </trkpt>
      <trkpt lat="46.61464" lon="4.94157">
        <ele>185.8</ele>
        <time>2024-09-18T12:39:38Z</time>
      </trkpt>
      <trkpt lat="46.61459" lon="4.94157">
        <ele>185.8</ele>
        <time>2024-09-18T12:39:39Z</time>
      </trkpt>
      <trkpt lat="46.61455" lon="4.94157">
        <ele>185.8</ele>
        <time>2024-09-18T12:39:40Z</time>
      </trkpt>
      <trkpt lat="46.61451" lon="4.94156">
        <ele>185.8</ele>
        <time>2024-09-18T12:39:41Z</time>
      </trkpt>
      <trkpt lat="46.61446" lon="4.94155">
        <ele>185.6</ele>
        <time>2024-09-18T12:39:42Z</time>
      </trkpt>
      <trkpt lat="46.61442" lon="4.94154">
        <ele>185.6</ele>
        <time>2024-09-18T12:39:43Z</time>
      </trkpt>
      <trkpt lat="46.61439" lon="4.94153">
        <ele>185.6</ele>
        <time>2024-09-18T12:39:44Z</time>
      </trkpt>
      <trkpt lat="46.61436" lon="4.94153">
        <ele>185.6</ele>
        <time>2024-09-18T12:39:45Z</time>
      </trkpt>
      <trkpt lat="46.61434" lon="4.94152">
        <ele>185.6</ele>
        <time>2024-09-18T12:39:46Z</time>
      </trkpt>
      <trkpt lat="46.61431" lon="4.94151">
        <ele>185.6</ele>
        <time>2024-09-18T12:39:47Z</time>
      </trkpt>
      <trkpt lat="46.61428" lon="4.9415">
        <ele>185.6</ele>
        <time>2024-09-18T12:39:48Z</time>
      </trkpt>
      <trkpt lat="46.61424" lon="4.94148">
        <ele>185.6</ele>
        <time>2024-09-18T12:39:49Z</time>
      </trkpt>
      <trkpt lat="46.6142" lon="4.94147">
        <ele>185.6</ele>
        <time>2024-09-18T12:39:50Z</time>
      </trkpt>
      <trkpt lat="46.61416" lon="4.94146">
        <ele>185.4</ele>
        <time>2024-09-18T12:39:51Z</time>
      </trkpt>
      <trkpt lat="46.61412" lon="4.94145">
        <ele>185.4</ele>
        <time>2024-09-18T12:39:52Z</time>
      </trkpt>
      <trkpt lat="46.61407" lon="4.94145">
        <ele>185.4</ele>
        <time>2024-09-18T12:39:53Z</time>
      </trkpt>
      <trkpt lat="46.61403" lon="4.94144">
        <ele>185.4</ele>
        <time>2024-09-18T12:39:54Z</time>
      </trkpt>
      <trkpt lat="46.61398" lon="4.94143">
        <ele>185.4</ele>
        <time>2024-09-18T12:39:55Z</time>
      </trkpt>
      <trkpt lat="46.61394" lon="4.94142">
        <ele>185.6</ele>
        <time>2024-09-18T12:39:56Z</time>
      </trkpt>
      <trkpt lat="46.61389" lon="4.94141">
        <ele>185.6</ele>
        <time>2024-09-18T12:39:57Z</time>
      </trkpt>
      <trkpt lat="46.61385" lon="4.9414">
        <ele>185.6</ele>
        <time>2024-09-18T12:39:58Z</time>
      </trkpt>
      <trkpt lat="46.61381" lon="4.94139">
        <ele>185.6</ele>
        <time>2024-09-18T12:39:59Z</time>
      </trkpt>
      <trkpt lat="46.61376" lon="4.94138">
        <ele>185.6</ele>
        <time>2024-09-18T12:40:00Z</time>
      </trkpt>
      <trkpt lat="46.61372" lon="4.94137">
        <ele>185.4</ele>
        <time>2024-09-18T12:40:01Z</time>
      </trkpt>
      <trkpt lat="46.61367" lon="4.94136">
        <ele>185.4</ele>
        <time>2024-09-18T12:40:02Z</time>
      </trkpt>
      <trkpt lat="46.61363" lon="4.94135">
        <ele>185.4</ele>
        <time>2024-09-18T12:40:03Z</time>
      </trkpt>
      <trkpt lat="46.61359" lon="4.94133">
        <ele>186</ele>
        <time>2024-09-18T12:40:04Z</time>
      </trkpt>
      <trkpt lat="46.61354" lon="4.94132">
        <ele>186</ele>
        <time>2024-09-18T12:40:05Z</time>
      </trkpt>
      <trkpt lat="46.6135" lon="4.9413">
        <ele>185.4</ele>
        <time>2024-09-18T12:40:06Z</time>
      </trkpt>
      <trkpt lat="46.61346" lon="4.94128">
        <ele>185.4</ele>
        <time>2024-09-18T12:40:07Z</time>
      </trkpt>
      <trkpt lat="46.61342" lon="4.94126">
        <ele>185.4</ele>
        <time>2024-09-18T12:40:08Z</time>
      </trkpt>
      <trkpt lat="46.61337" lon="4.94123">
        <ele>185.8</ele>
        <time>2024-09-18T12:40:09Z</time>
      </trkpt>
      <trkpt lat="46.61333" lon="4.94121">
        <ele>185.8</ele>
        <time>2024-09-18T12:40:10Z</time>
      </trkpt>
      <trkpt lat="46.61329" lon="4.94118">
        <ele>185.8</ele>
        <time>2024-09-18T12:40:11Z</time>
      </trkpt>
      <trkpt lat="46.61325" lon="4.94116">
        <ele>185.8</ele>
        <time>2024-09-18T12:40:12Z</time>
      </trkpt>
      <trkpt lat="46.61321" lon="4.94113">
        <ele>185.8</ele>
        <time>2024-09-18T12:40:13Z</time>
      </trkpt>
      <trkpt lat="46.61318" lon="4.9411">
        <ele>186</ele>
        <time>2024-09-18T12:40:14Z</time>
      </trkpt>
      <trkpt lat="46.61314" lon="4.94108">
        <ele>186</ele>
        <time>2024-09-18T12:40:15Z</time>
      </trkpt>
      <trkpt lat="46.6131" lon="4.94107">
        <ele>186</ele>
        <time>2024-09-18T12:40:16Z</time>
      </trkpt>
      <trkpt lat="46.61307" lon="4.94105">
        <ele>186</ele>
        <time>2024-09-18T12:40:17Z</time>
      </trkpt>
      <trkpt lat="46.61303" lon="4.94104">
        <ele>186</ele>
        <time>2024-09-18T12:40:18Z</time>
      </trkpt>
      <trkpt lat="46.61299" lon="4.94102">
        <ele>186</ele>
        <time>2024-09-18T12:40:19Z</time>
      </trkpt>
      <trkpt lat="46.61295" lon="4.941">
        <ele>186</ele>
        <time>2024-09-18T12:40:20Z</time>
      </trkpt>
      <trkpt lat="46.61291" lon="4.94097">
        <ele>186</ele>
        <time>2024-09-18T12:40:21Z</time>
      </trkpt>
      <trkpt lat="46.61287" lon="4.94095">
        <ele>186</ele>
        <time>2024-09-18T12:40:22Z</time>
      </trkpt>
      <trkpt lat="46.61283" lon="4.94093">
        <ele>186.2</ele>
        <time>2024-09-18T12:40:23Z</time>
      </trkpt>
      <trkpt lat="46.61279" lon="4.94091">
        <ele>186.2</ele>
        <time>2024-09-18T12:40:24Z</time>
      </trkpt>
      <trkpt lat="46.61275" lon="4.94088">
        <ele>186.2</ele>
        <time>2024-09-18T12:40:25Z</time>
      </trkpt>
      <trkpt lat="46.6127" lon="4.94086">
        <ele>186.2</ele>
        <time>2024-09-18T12:40:26Z</time>
      </trkpt>
      <trkpt lat="46.61266" lon="4.94084">
        <ele>186.2</ele>
        <time>2024-09-18T12:40:27Z</time>
      </trkpt>
      <trkpt lat="46.61262" lon="4.94081">
        <ele>186.4</ele>
        <time>2024-09-18T12:40:28Z</time>
      </trkpt>
      <trkpt lat="46.61258" lon="4.94078">
        <ele>186.4</ele>
        <time>2024-09-18T12:40:29Z</time>
      </trkpt>
      <trkpt lat="46.61253" lon="4.94076">
        <ele>186.2</ele>
        <time>2024-09-18T12:40:30Z</time>
      </trkpt>
      <trkpt lat="46.61249" lon="4.94073">
        <ele>186.2</ele>
        <time>2024-09-18T12:40:31Z</time>
      </trkpt>
      <trkpt lat="46.61245" lon="4.9407">
        <ele>186.4</ele>
        <time>2024-09-18T12:40:32Z</time>
      </trkpt>
      <trkpt lat="46.61241" lon="4.94067">
        <ele>186.4</ele>
        <time>2024-09-18T12:40:33Z</time>
      </trkpt>
      <trkpt lat="46.61237" lon="4.94064">
        <ele>186.4</ele>
        <time>2024-09-18T12:40:34Z</time>
      </trkpt>
      <trkpt lat="46.61233" lon="4.94061">
        <ele>186.4</ele>
        <time>2024-09-18T12:40:35Z</time>
      </trkpt>
      <trkpt lat="46.61229" lon="4.94058">
        <ele>186.2</ele>
        <time>2024-09-18T12:40:36Z</time>
      </trkpt>
      <trkpt lat="46.61225" lon="4.94055">
        <ele>186.2</ele>
        <time>2024-09-18T12:40:37Z</time>
      </trkpt>
      <trkpt lat="46.61221" lon="4.94052">
        <ele>186.2</ele>
        <time>2024-09-18T12:40:38Z</time>
      </trkpt>
      <trkpt lat="46.61217" lon="4.94049">
        <ele>186.2</ele>
        <time>2024-09-18T12:40:39Z</time>
      </trkpt>
      <trkpt lat="46.61213" lon="4.94045">
        <ele>186.2</ele>
        <time>2024-09-18T12:40:40Z</time>
      </trkpt>
      <trkpt lat="46.61209" lon="4.94042">
        <ele>185.8</ele>
        <time>2024-09-18T12:40:41Z</time>
      </trkpt>
      <trkpt lat="46.61205" lon="4.94039">
        <ele>185.8</ele>
        <time>2024-09-18T12:40:42Z</time>
      </trkpt>
      <trkpt lat="46.61201" lon="4.94035">
        <ele>185.8</ele>
        <time>2024-09-18T12:40:43Z</time>
      </trkpt>
      <trkpt lat="46.61197" lon="4.94032">
        <ele>186.2</ele>
        <time>2024-09-18T12:40:44Z</time>
      </trkpt>
      <trkpt lat="46.61193" lon="4.94029">
        <ele>186.2</ele>
        <time>2024-09-18T12:40:45Z</time>
      </trkpt>
      <trkpt lat="46.61189" lon="4.94026">
        <ele>186.2</ele>
        <time>2024-09-18T12:40:46Z</time>
      </trkpt>
      <trkpt lat="46.61185" lon="4.94022">
        <ele>186.2</ele>
        <time>2024-09-18T12:40:47Z</time>
      </trkpt>
      <trkpt lat="46.61181" lon="4.94018">
        <ele>186.2</ele>
        <time>2024-09-18T12:40:48Z</time>
      </trkpt>
      <trkpt lat="46.61177" lon="4.94015">
        <ele>186</ele>
        <time>2024-09-18T12:40:49Z</time>
      </trkpt>
      <trkpt lat="46.61172" lon="4.94012">
        <ele>186.2</ele>
        <time>2024-09-18T12:40:50Z</time>
      </trkpt>
      <trkpt lat="46.61168" lon="4.94008">
        <ele>186.2</ele>
        <time>2024-09-18T12:40:51Z</time>
      </trkpt>
      <trkpt lat="46.61164" lon="4.94005">
        <ele>186.2</ele>
        <time>2024-09-18T12:40:52Z</time>
      </trkpt>
      <trkpt lat="46.6116" lon="4.94002">
        <ele>186.2</ele>
        <time>2024-09-18T12:40:53Z</time>
      </trkpt>
      <trkpt lat="46.61155" lon="4.93999">
        <ele>186.2</ele>
        <time>2024-09-18T12:40:54Z</time>
      </trkpt>
      <trkpt lat="46.61151" lon="4.93996">
        <ele>186.2</ele>
        <time>2024-09-18T12:40:55Z</time>
      </trkpt>
      <trkpt lat="46.61148" lon="4.93993">
        <ele>186.2</ele>
        <time>2024-09-18T12:40:56Z</time>
      </trkpt>
      <trkpt lat="46.61144" lon="4.9399">
        <ele>186.2</ele>
        <time>2024-09-18T12:40:57Z</time>
      </trkpt>
      <trkpt lat="46.61139" lon="4.93987">
        <ele>186.2</ele>
        <time>2024-09-18T12:40:58Z</time>
      </trkpt>
      <trkpt lat="46.61135" lon="4.93984">
        <ele>186.4</ele>
        <time>2024-09-18T12:40:59Z</time>
      </trkpt>
      <trkpt lat="46.61131" lon="4.9398">
        <ele>186.4</ele>
        <time>2024-09-18T12:41:00Z</time>
      </trkpt>
      <trkpt lat="46.61128" lon="4.93977">
        <ele>186.4</ele>
        <time>2024-09-18T12:41:01Z</time>
      </trkpt>
      <trkpt lat="46.61124" lon="4.93974">
        <ele>186.2</ele>
        <time>2024-09-18T12:41:02Z</time>
      </trkpt>
      <trkpt lat="46.6112" lon="4.93971">
        <ele>186.2</ele>
        <time>2024-09-18T12:41:03Z</time>
      </trkpt>
      <trkpt lat="46.61116" lon="4.93967">
        <ele>185.8</ele>
        <time>2024-09-18T12:41:04Z</time>
      </trkpt>
      <trkpt lat="46.61112" lon="4.93964">
        <ele>185.8</ele>
        <time>2024-09-18T12:41:05Z</time>
      </trkpt>
      <trkpt lat="46.61108" lon="4.93961">
        <ele>186.2</ele>
        <time>2024-09-18T12:41:06Z</time>
      </trkpt>
      <trkpt lat="46.61104" lon="4.93958">
        <ele>186.4</ele>
        <time>2024-09-18T12:41:07Z</time>
      </trkpt>
      <trkpt lat="46.611" lon="4.93955">
        <ele>186.4</ele>
        <time>2024-09-18T12:41:08Z</time>
      </trkpt>
      <trkpt lat="46.61096" lon="4.93952">
        <ele>186.4</ele>
        <time>2024-09-18T12:41:09Z</time>
      </trkpt>
      <trkpt lat="46.61092" lon="4.93949">
        <ele>186.4</ele>
        <time>2024-09-18T12:41:10Z</time>
      </trkpt>
      <trkpt lat="46.61088" lon="4.93946">
        <ele>186.4</ele>
        <time>2024-09-18T12:41:11Z</time>
      </trkpt>
      <trkpt lat="46.61084" lon="4.93942">
        <ele>186.4</ele>
        <time>2024-09-18T12:41:12Z</time>
      </trkpt>
      <trkpt lat="46.6108" lon="4.93939">
        <ele>186.4</ele>
        <time>2024-09-18T12:41:13Z</time>
      </trkpt>
      <trkpt lat="46.61076" lon="4.93936">
        <ele>186.4</ele>
        <time>2024-09-18T12:41:14Z</time>
      </trkpt>
      <trkpt lat="46.61073" lon="4.93932">
        <ele>186.4</ele>
        <time>2024-09-18T12:41:15Z</time>
      </trkpt>
      <trkpt lat="46.61069" lon="4.93929">
        <ele>186.6</ele>
        <time>2024-09-18T12:41:16Z</time>
      </trkpt>
      <trkpt lat="46.61065" lon="4.93925">
        <ele>186.6</ele>
        <time>2024-09-18T12:41:17Z</time>
      </trkpt>
      <trkpt lat="46.61061" lon="4.93922">
        <ele>186.6</ele>
        <time>2024-09-18T12:41:18Z</time>
      </trkpt>
      <trkpt lat="46.61057" lon="4.93919">
        <ele>186.6</ele>
        <time>2024-09-18T12:41:19Z</time>
      </trkpt>
      <trkpt lat="46.61053" lon="4.93916">
        <ele>186.6</ele>
        <time>2024-09-18T12:41:20Z</time>
      </trkpt>
      <trkpt lat="46.6105" lon="4.93912">
        <ele>186.4</ele>
        <time>2024-09-18T12:41:21Z</time>
      </trkpt>
      <trkpt lat="46.61046" lon="4.93909">
        <ele>186.4</ele>
        <time>2024-09-18T12:41:22Z</time>
      </trkpt>
      <trkpt lat="46.61042" lon="4.93906">
        <ele>186.4</ele>
        <time>2024-09-18T12:41:23Z</time>
      </trkpt>
      <trkpt lat="46.61038" lon="4.93903">
        <ele>186.4</ele>
        <time>2024-09-18T12:41:24Z</time>
      </trkpt>
      <trkpt lat="46.61034" lon="4.939">
        <ele>186</ele>
        <time>2024-09-18T12:41:25Z</time>
      </trkpt>
      <trkpt lat="46.6103" lon="4.93896">
        <ele>186</ele>
        <time>2024-09-18T12:41:26Z</time>
      </trkpt>
      <trkpt lat="46.61026" lon="4.93894">
        <ele>186.4</ele>
        <time>2024-09-18T12:41:27Z</time>
      </trkpt>
      <trkpt lat="46.61022" lon="4.93891">
        <ele>186.4</ele>
        <time>2024-09-18T12:41:28Z</time>
      </trkpt>
      <trkpt lat="46.61017" lon="4.93889">
        <ele>186</ele>
        <time>2024-09-18T12:41:29Z</time>
      </trkpt>
      <trkpt lat="46.61013" lon="4.93886">
        <ele>185.6</ele>
        <time>2024-09-18T12:41:30Z</time>
      </trkpt>
      <trkpt lat="46.61005" lon="4.93883">
        <ele>185.6</ele>
        <time>2024-09-18T12:41:31Z</time>
      </trkpt>
      <trkpt lat="46.61003" lon="4.93882">
        <ele>185.6</ele>
        <time>2024-09-18T12:41:32Z</time>
      </trkpt>
      <trkpt lat="46.60998" lon="4.9388">
        <ele>185.6</ele>
        <time>2024-09-18T12:41:33Z</time>
      </trkpt>
      <trkpt lat="46.60993" lon="4.93877">
        <ele>185.6</ele>
        <time>2024-09-18T12:41:34Z</time>
      </trkpt>
      <trkpt lat="46.60988" lon="4.93875">
        <ele>185.2</ele>
        <time>2024-09-18T12:41:35Z</time>
      </trkpt>
      <trkpt lat="46.60984" lon="4.93871">
        <ele>185.2</ele>
        <time>2024-09-18T12:41:36Z</time>
      </trkpt>
      <trkpt lat="46.60979" lon="4.93867">
        <ele>185.2</ele>
        <time>2024-09-18T12:41:37Z</time>
      </trkpt>
      <trkpt lat="46.60975" lon="4.93864">
        <ele>185.2</ele>
        <time>2024-09-18T12:41:38Z</time>
      </trkpt>
      <trkpt lat="46.60971" lon="4.9386">
        <ele>186</ele>
        <time>2024-09-18T12:41:39Z</time>
      </trkpt>
      <trkpt lat="46.60967" lon="4.93856">
        <ele>186</ele>
        <time>2024-09-18T12:41:40Z</time>
      </trkpt>
      <trkpt lat="46.60963" lon="4.93853">
        <ele>186</ele>
        <time>2024-09-18T12:41:41Z</time>
      </trkpt>
      <trkpt lat="46.60959" lon="4.9385">
        <ele>186</ele>
        <time>2024-09-18T12:41:42Z</time>
      </trkpt>
      <trkpt lat="46.60955" lon="4.93846">
        <ele>186</ele>
        <time>2024-09-18T12:41:43Z</time>
      </trkpt>
      <trkpt lat="46.60952" lon="4.93843">
        <ele>186.2</ele>
        <time>2024-09-18T12:41:44Z</time>
      </trkpt>
      <trkpt lat="46.60948" lon="4.93839">
        <ele>186.2</ele>
        <time>2024-09-18T12:41:45Z</time>
      </trkpt>
      <trkpt lat="46.60944" lon="4.93836">
        <ele>186.2</ele>
        <time>2024-09-18T12:41:46Z</time>
      </trkpt>
      <trkpt lat="46.6094" lon="4.93833">
        <ele>186.2</ele>
        <time>2024-09-18T12:41:47Z</time>
      </trkpt>
      <trkpt lat="46.60936" lon="4.9383">
        <ele>186.2</ele>
        <time>2024-09-18T12:41:48Z</time>
      </trkpt>
      <trkpt lat="46.60932" lon="4.93827">
        <ele>186.2</ele>
        <time>2024-09-18T12:41:49Z</time>
      </trkpt>
      <trkpt lat="46.60928" lon="4.93824">
        <ele>186.2</ele>
        <time>2024-09-18T12:41:50Z</time>
      </trkpt>
      <trkpt lat="46.60924" lon="4.93821">
        <ele>186.2</ele>
        <time>2024-09-18T12:41:51Z</time>
      </trkpt>
      <trkpt lat="46.6092" lon="4.93818">
        <ele>186.2</ele>
        <time>2024-09-18T12:41:52Z</time>
      </trkpt>
      <trkpt lat="46.60915" lon="4.93815">
        <ele>185.8</ele>
        <time>2024-09-18T12:41:53Z</time>
      </trkpt>
      <trkpt lat="46.60911" lon="4.93811">
        <ele>185.8</ele>
        <time>2024-09-18T12:41:54Z</time>
      </trkpt>
      <trkpt lat="46.60906" lon="4.93808">
        <ele>185.8</ele>
        <time>2024-09-18T12:41:55Z</time>
      </trkpt>
      <trkpt lat="46.60902" lon="4.93805">
        <ele>186.2</ele>
        <time>2024-09-18T12:41:56Z</time>
      </trkpt>
      <trkpt lat="46.60898" lon="4.938">
        <ele>186</ele>
        <time>2024-09-18T12:41:57Z</time>
      </trkpt>
      <trkpt lat="46.60894" lon="4.93796">
        <ele>186</ele>
        <time>2024-09-18T12:41:58Z</time>
      </trkpt>
      <trkpt lat="46.6089" lon="4.93792">
        <ele>186</ele>
        <time>2024-09-18T12:41:59Z</time>
      </trkpt>
      <trkpt lat="46.60886" lon="4.93789">
        <ele>186</ele>
        <time>2024-09-18T12:42:00Z</time>
      </trkpt>
      <trkpt lat="46.60882" lon="4.93785">
        <ele>186.2</ele>
        <time>2024-09-18T12:42:01Z</time>
      </trkpt>
      <trkpt lat="46.60877" lon="4.93781">
        <ele>186.2</ele>
        <time>2024-09-18T12:42:02Z</time>
      </trkpt>
      <trkpt lat="46.60873" lon="4.93777">
        <ele>186.2</ele>
        <time>2024-09-18T12:42:03Z</time>
      </trkpt>
      <trkpt lat="46.60869" lon="4.93774">
        <ele>185.8</ele>
        <time>2024-09-18T12:42:04Z</time>
      </trkpt>
      <trkpt lat="46.60865" lon="4.9377">
        <ele>185.8</ele>
        <time>2024-09-18T12:42:05Z</time>
      </trkpt>
      <trkpt lat="46.60862" lon="4.93765">
        <ele>186</ele>
        <time>2024-09-18T12:42:06Z</time>
      </trkpt>
      <trkpt lat="46.60858" lon="4.93762">
        <ele>186</ele>
        <time>2024-09-18T12:42:07Z</time>
      </trkpt>
      <trkpt lat="46.60854" lon="4.93758">
        <ele>186</ele>
        <time>2024-09-18T12:42:08Z</time>
      </trkpt>
      <trkpt lat="46.6085" lon="4.93754">
        <ele>186</ele>
        <time>2024-09-18T12:42:09Z</time>
      </trkpt>
      <trkpt lat="46.60846" lon="4.9375">
        <ele>186</ele>
        <time>2024-09-18T12:42:10Z</time>
      </trkpt>
      <trkpt lat="46.60842" lon="4.93745">
        <ele>185.8</ele>
        <time>2024-09-18T12:42:11Z</time>
      </trkpt>
      <trkpt lat="46.60839" lon="4.93741">
        <ele>185.8</ele>
        <time>2024-09-18T12:42:12Z</time>
      </trkpt>
      <trkpt lat="46.60835" lon="4.93737">
        <ele>185.8</ele>
        <time>2024-09-18T12:42:13Z</time>
      </trkpt>
      <trkpt lat="46.60831" lon="4.93733">
        <ele>186.4</ele>
        <time>2024-09-18T12:42:14Z</time>
      </trkpt>
      <trkpt lat="46.60827" lon="4.93729">
        <ele>186.4</ele>
        <time>2024-09-18T12:42:15Z</time>
      </trkpt>
      <trkpt lat="46.60823" lon="4.93725">
        <ele>186</ele>
        <time>2024-09-18T12:42:16Z</time>
      </trkpt>
      <trkpt lat="46.60819" lon="4.93722">
        <ele>186</ele>
        <time>2024-09-18T12:42:17Z</time>
      </trkpt>
      <trkpt lat="46.60815" lon="4.93718">
        <ele>186</ele>
        <time>2024-09-18T12:42:18Z</time>
      </trkpt>
      <trkpt lat="46.60811" lon="4.93714">
        <ele>186</ele>
        <time>2024-09-18T12:42:19Z</time>
      </trkpt>
      <trkpt lat="46.60808" lon="4.9371">
        <ele>186</ele>
        <time>2024-09-18T12:42:20Z</time>
      </trkpt>
      <trkpt lat="46.60804" lon="4.93705">
        <ele>186</ele>
        <time>2024-09-18T12:42:21Z</time>
      </trkpt>
      <trkpt lat="46.60799" lon="4.93701">
        <ele>186</ele>
        <time>2024-09-18T12:42:22Z</time>
      </trkpt>
      <trkpt lat="46.60795" lon="4.93697">
        <ele>186</ele>
        <time>2024-09-18T12:42:23Z</time>
      </trkpt>
      <trkpt lat="46.60791" lon="4.93693">
        <ele>186</ele>
        <time>2024-09-18T12:42:24Z</time>
      </trkpt>
      <trkpt lat="46.60787" lon="4.93689">
        <ele>186</ele>
        <time>2024-09-18T12:42:25Z</time>
      </trkpt>
      <trkpt lat="46.60782" lon="4.93685">
        <ele>186</ele>
        <time>2024-09-18T12:42:26Z</time>
      </trkpt>
      <trkpt lat="46.60778" lon="4.9368">
        <ele>185.8</ele>
        <time>2024-09-18T12:42:27Z</time>
      </trkpt>
      <trkpt lat="46.60774" lon="4.93676">
        <ele>186</ele>
        <time>2024-09-18T12:42:28Z</time>
      </trkpt>
      <trkpt lat="46.6077" lon="4.93671">
        <ele>186</ele>
        <time>2024-09-18T12:42:29Z</time>
      </trkpt>
      <trkpt lat="46.60767" lon="4.93665">
        <ele>186</ele>
        <time>2024-09-18T12:42:30Z</time>
      </trkpt>
      <trkpt lat="46.60763" lon="4.9366">
        <ele>186</ele>
        <time>2024-09-18T12:42:31Z</time>
      </trkpt>
      <trkpt lat="46.60759" lon="4.93655">
        <ele>186</ele>
        <time>2024-09-18T12:42:32Z</time>
      </trkpt>
      <trkpt lat="46.60755" lon="4.9365">
        <ele>186</ele>
        <time>2024-09-18T12:42:33Z</time>
      </trkpt>
      <trkpt lat="46.60751" lon="4.93645">
        <ele>186</ele>
        <time>2024-09-18T12:42:34Z</time>
      </trkpt>
      <trkpt lat="46.60747" lon="4.9364">
        <ele>186</ele>
        <time>2024-09-18T12:42:35Z</time>
      </trkpt>
      <trkpt lat="46.60743" lon="4.93635">
        <ele>186</ele>
        <time>2024-09-18T12:42:36Z</time>
      </trkpt>
      <trkpt lat="46.60739" lon="4.9363">
        <ele>186</ele>
        <time>2024-09-18T12:42:37Z</time>
      </trkpt>
      <trkpt lat="46.60735" lon="4.93626">
        <ele>186</ele>
        <time>2024-09-18T12:42:38Z</time>
      </trkpt>
      <trkpt lat="46.60731" lon="4.93621">
        <ele>186</ele>
        <time>2024-09-18T12:42:39Z</time>
      </trkpt>
      <trkpt lat="46.60727" lon="4.93617">
        <ele>186</ele>
        <time>2024-09-18T12:42:40Z</time>
      </trkpt>
      <trkpt lat="46.60723" lon="4.93613">
        <ele>186</ele>
        <time>2024-09-18T12:42:41Z</time>
      </trkpt>
      <trkpt lat="46.60719" lon="4.93608">
        <ele>185.6</ele>
        <time>2024-09-18T12:42:42Z</time>
      </trkpt>
      <trkpt lat="46.60715" lon="4.93604">
        <ele>185.6</ele>
        <time>2024-09-18T12:42:43Z</time>
      </trkpt>
      <trkpt lat="46.6071" lon="4.936">
        <ele>185.6</ele>
        <time>2024-09-18T12:42:44Z</time>
      </trkpt>
      <trkpt lat="46.60706" lon="4.93596">
        <ele>185.8</ele>
        <time>2024-09-18T12:42:45Z</time>
      </trkpt>
      <trkpt lat="46.60702" lon="4.93591">
        <ele>185.8</ele>
        <time>2024-09-18T12:42:46Z</time>
      </trkpt>
      <trkpt lat="46.60698" lon="4.93587">
        <ele>185.8</ele>
        <time>2024-09-18T12:42:47Z</time>
      </trkpt>
      <trkpt lat="46.60694" lon="4.93583">
        <ele>185.8</ele>
        <time>2024-09-18T12:42:48Z</time>
      </trkpt>
      <trkpt lat="46.6069" lon="4.93579">
        <ele>185.8</ele>
        <time>2024-09-18T12:42:49Z</time>
      </trkpt>
      <trkpt lat="46.60686" lon="4.93574">
        <ele>185.8</ele>
        <time>2024-09-18T12:42:50Z</time>
      </trkpt>
      <trkpt lat="46.60682" lon="4.9357">
        <ele>186</ele>
        <time>2024-09-18T12:42:51Z</time>
      </trkpt>
      <trkpt lat="46.60678" lon="4.93566">
        <ele>185.8</ele>
        <time>2024-09-18T12:42:52Z</time>
      </trkpt>
      <trkpt lat="46.60675" lon="4.93562">
        <ele>185.8</ele>
        <time>2024-09-18T12:42:53Z</time>
      </trkpt>
      <trkpt lat="46.60671" lon="4.93558">
        <ele>185.8</ele>
        <time>2024-09-18T12:42:54Z</time>
      </trkpt>
      <trkpt lat="46.60667" lon="4.93554">
        <ele>185.8</ele>
        <time>2024-09-18T12:42:55Z</time>
      </trkpt>
      <trkpt lat="46.60663" lon="4.9355">
        <ele>185.8</ele>
        <time>2024-09-18T12:42:56Z</time>
      </trkpt>
      <trkpt lat="46.60659" lon="4.93546">
        <ele>185.6</ele>
        <time>2024-09-18T12:42:57Z</time>
      </trkpt>
      <trkpt lat="46.60655" lon="4.93541">
        <ele>185.6</ele>
        <time>2024-09-18T12:42:58Z</time>
      </trkpt>
      <trkpt lat="46.60651" lon="4.93537">
        <ele>185.6</ele>
        <time>2024-09-18T12:42:59Z</time>
      </trkpt>
      <trkpt lat="46.60648" lon="4.93533">
        <ele>185.8</ele>
        <time>2024-09-18T12:43:00Z</time>
      </trkpt>
      <trkpt lat="46.60644" lon="4.93529">
        <ele>186</ele>
        <time>2024-09-18T12:43:01Z</time>
      </trkpt>
      <trkpt lat="46.6064" lon="4.93525">
        <ele>186</ele>
        <time>2024-09-18T12:43:02Z</time>
      </trkpt>
      <trkpt lat="46.60636" lon="4.93521">
        <ele>186</ele>
        <time>2024-09-18T12:43:03Z</time>
      </trkpt>
      <trkpt lat="46.60632" lon="4.93516">
        <ele>186</ele>
        <time>2024-09-18T12:43:04Z</time>
      </trkpt>
      <trkpt lat="46.60629" lon="4.93512">
        <ele>186</ele>
        <time>2024-09-18T12:43:05Z</time>
      </trkpt>
      <trkpt lat="46.60625" lon="4.93508">
        <ele>185.2</ele>
        <time>2024-09-18T12:43:06Z</time>
      </trkpt>
      <trkpt lat="46.60621" lon="4.93504">
        <ele>185.2</ele>
        <time>2024-09-18T12:43:07Z</time>
      </trkpt>
      <trkpt lat="46.60617" lon="4.935">
        <ele>185.2</ele>
        <time>2024-09-18T12:43:08Z</time>
      </trkpt>
      <trkpt lat="46.60613" lon="4.93495">
        <ele>185.6</ele>
        <time>2024-09-18T12:43:09Z</time>
      </trkpt>
      <trkpt lat="46.6061" lon="4.93491">
        <ele>185.6</ele>
        <time>2024-09-18T12:43:10Z</time>
      </trkpt>
      <trkpt lat="46.60606" lon="4.93487">
        <ele>185.6</ele>
        <time>2024-09-18T12:43:11Z</time>
      </trkpt>
      <trkpt lat="46.60602" lon="4.93482">
        <ele>185.6</ele>
        <time>2024-09-18T12:43:12Z</time>
      </trkpt>
      <trkpt lat="46.60598" lon="4.93478">
        <ele>185.6</ele>
        <time>2024-09-18T12:43:13Z</time>
      </trkpt>
      <trkpt lat="46.60594" lon="4.93474">
        <ele>185.8</ele>
        <time>2024-09-18T12:43:14Z</time>
      </trkpt>
      <trkpt lat="46.6059" lon="4.9347">
        <ele>185.8</ele>
        <time>2024-09-18T12:43:15Z</time>
      </trkpt>
      <trkpt lat="46.60587" lon="4.93466">
        <ele>185.8</ele>
        <time>2024-09-18T12:43:16Z</time>
      </trkpt>
      <trkpt lat="46.60583" lon="4.93462">
        <ele>185.6</ele>
        <time>2024-09-18T12:43:17Z</time>
      </trkpt>
      <trkpt lat="46.60579" lon="4.93457">
        <ele>185.6</ele>
        <time>2024-09-18T12:43:18Z</time>
      </trkpt>
      <trkpt lat="46.60575" lon="4.93453">
        <ele>185.6</ele>
        <time>2024-09-18T12:43:19Z</time>
      </trkpt>
      <trkpt lat="46.60571" lon="4.93449">
        <ele>185.6</ele>
        <time>2024-09-18T12:43:20Z</time>
      </trkpt>
      <trkpt lat="46.60567" lon="4.93445">
        <ele>185.6</ele>
        <time>2024-09-18T12:43:21Z</time>
      </trkpt>
      <trkpt lat="46.60563" lon="4.9344">
        <ele>186</ele>
        <time>2024-09-18T12:43:22Z</time>
      </trkpt>
      <trkpt lat="46.6056" lon="4.93435">
        <ele>185.8</ele>
        <time>2024-09-18T12:43:23Z</time>
      </trkpt>
      <trkpt lat="46.60556" lon="4.93431">
        <ele>185.8</ele>
        <time>2024-09-18T12:43:24Z</time>
      </trkpt>
      <trkpt lat="46.60551" lon="4.93428">
        <ele>185.8</ele>
        <time>2024-09-18T12:43:25Z</time>
      </trkpt>
      <trkpt lat="46.60547" lon="4.93424">
        <ele>185.8</ele>
        <time>2024-09-18T12:43:26Z</time>
      </trkpt>
      <trkpt lat="46.60544" lon="4.9342">
        <ele>185.6</ele>
        <time>2024-09-18T12:43:27Z</time>
      </trkpt>
      <trkpt lat="46.6054" lon="4.93416">
        <ele>185.6</ele>
        <time>2024-09-18T12:43:28Z</time>
      </trkpt>
      <trkpt lat="46.60536" lon="4.93411">
        <ele>185.6</ele>
        <time>2024-09-18T12:43:29Z</time>
      </trkpt>
      <trkpt lat="46.60532" lon="4.93407">
        <ele>185.2</ele>
        <time>2024-09-18T12:43:30Z</time>
      </trkpt>
      <trkpt lat="46.60528" lon="4.93403">
        <ele>185.4</ele>
        <time>2024-09-18T12:43:31Z</time>
      </trkpt>
      <trkpt lat="46.60524" lon="4.93399">
        <ele>185.4</ele>
        <time>2024-09-18T12:43:32Z</time>
      </trkpt>
      <trkpt lat="46.6052" lon="4.93395">
        <ele>185.4</ele>
        <time>2024-09-18T12:43:33Z</time>
      </trkpt>
      <trkpt lat="46.60516" lon="4.93391">
        <ele>185.4</ele>
        <time>2024-09-18T12:43:34Z</time>
      </trkpt>
      <trkpt lat="46.60512" lon="4.93387">
        <ele>185.4</ele>
        <time>2024-09-18T12:43:35Z</time>
      </trkpt>
      <trkpt lat="46.60508" lon="4.93383">
        <ele>185.6</ele>
        <time>2024-09-18T12:43:36Z</time>
      </trkpt>
      <trkpt lat="46.60504" lon="4.93378">
        <ele>185.4</ele>
        <time>2024-09-18T12:43:37Z</time>
      </trkpt>
      <trkpt lat="46.605" lon="4.93374">
        <ele>185.4</ele>
        <time>2024-09-18T12:43:38Z</time>
      </trkpt>
      <trkpt lat="46.60496" lon="4.9337">
        <ele>185.4</ele>
        <time>2024-09-18T12:43:39Z</time>
      </trkpt>
      <trkpt lat="46.60492" lon="4.93366">
        <ele>185.4</ele>
        <time>2024-09-18T12:43:40Z</time>
      </trkpt>
      <trkpt lat="46.60488" lon="4.93362">
        <ele>185.2</ele>
        <time>2024-09-18T12:43:41Z</time>
      </trkpt>
      <trkpt lat="46.60484" lon="4.93358">
        <ele>185.2</ele>
        <time>2024-09-18T12:43:42Z</time>
      </trkpt>
      <trkpt lat="46.6048" lon="4.93354">
        <ele>185.2</ele>
        <time>2024-09-18T12:43:43Z</time>
      </trkpt>
      <trkpt lat="46.60476" lon="4.9335">
        <ele>185.2</ele>
        <time>2024-09-18T12:43:44Z</time>
      </trkpt>
      <trkpt lat="46.60473" lon="4.93346">
        <ele>185.4</ele>
        <time>2024-09-18T12:43:45Z</time>
      </trkpt>
      <trkpt lat="46.60469" lon="4.93341">
        <ele>185.4</ele>
        <time>2024-09-18T12:43:46Z</time>
      </trkpt>
      <trkpt lat="46.60465" lon="4.93337">
        <ele>185.4</ele>
        <time>2024-09-18T12:43:47Z</time>
      </trkpt>
      <trkpt lat="46.60461" lon="4.93333">
        <ele>185.4</ele>
        <time>2024-09-18T12:43:48Z</time>
      </trkpt>
      <trkpt lat="46.60457" lon="4.93329">
        <ele>185.4</ele>
        <time>2024-09-18T12:43:49Z</time>
      </trkpt>
      <trkpt lat="46.60454" lon="4.93325">
        <ele>185.6</ele>
        <time>2024-09-18T12:43:50Z</time>
      </trkpt>
      <trkpt lat="46.6045" lon="4.93322">
        <ele>185.6</ele>
        <time>2024-09-18T12:43:51Z</time>
      </trkpt>
      <trkpt lat="46.60446" lon="4.93317">
        <ele>185.6</ele>
        <time>2024-09-18T12:43:52Z</time>
      </trkpt>
      <trkpt lat="46.60442" lon="4.93313">
        <ele>185.6</ele>
        <time>2024-09-18T12:43:53Z</time>
      </trkpt>
      <trkpt lat="46.60439" lon="4.93308">
        <ele>185.4</ele>
        <time>2024-09-18T12:43:54Z</time>
      </trkpt>
      <trkpt lat="46.60435" lon="4.93304">
        <ele>185.4</ele>
        <time>2024-09-18T12:43:55Z</time>
      </trkpt>
      <trkpt lat="46.60431" lon="4.93299">
        <ele>185.4</ele>
        <time>2024-09-18T12:43:56Z</time>
      </trkpt>
      <trkpt lat="46.60428" lon="4.93295">
        <ele>185.4</ele>
        <time>2024-09-18T12:43:57Z</time>
      </trkpt>
      <trkpt lat="46.60424" lon="4.9329">
        <ele>185.6</ele>
        <time>2024-09-18T12:43:58Z</time>
      </trkpt>
      <trkpt lat="46.6042" lon="4.93286">
        <ele>185.6</ele>
        <time>2024-09-18T12:43:59Z</time>
      </trkpt>
      <trkpt lat="46.60417" lon="4.93281">
        <ele>185.6</ele>
        <time>2024-09-18T12:44:00Z</time>
      </trkpt>
      <trkpt lat="46.60413" lon="4.93277">
        <ele>185.6</ele>
        <time>2024-09-18T12:44:01Z</time>
      </trkpt>
      <trkpt lat="46.6041" lon="4.93272">
        <ele>185.6</ele>
        <time>2024-09-18T12:44:02Z</time>
      </trkpt>
      <trkpt lat="46.60406" lon="4.93268">
        <ele>185.2</ele>
        <time>2024-09-18T12:44:03Z</time>
      </trkpt>
      <trkpt lat="46.60403" lon="4.93264">
        <ele>185.2</ele>
        <time>2024-09-18T12:44:04Z</time>
      </trkpt>
      <trkpt lat="46.60399" lon="4.93259">
        <ele>185.2</ele>
        <time>2024-09-18T12:44:05Z</time>
      </trkpt>
      <trkpt lat="46.60395" lon="4.93255">
        <ele>185.2</ele>
        <time>2024-09-18T12:44:06Z</time>
      </trkpt>
      <trkpt lat="46.60391" lon="4.93251">
        <ele>185.2</ele>
        <time>2024-09-18T12:44:07Z</time>
      </trkpt>
      <trkpt lat="46.60388" lon="4.93247">
        <ele>185.2</ele>
        <time>2024-09-18T12:44:08Z</time>
      </trkpt>
      <trkpt lat="46.60384" lon="4.93242">
        <ele>185.2</ele>
        <time>2024-09-18T12:44:09Z</time>
      </trkpt>
      <trkpt lat="46.6038" lon="4.93238">
        <ele>185.2</ele>
        <time>2024-09-18T12:44:10Z</time>
      </trkpt>
      <trkpt lat="46.60376" lon="4.93234">
        <ele>185.6</ele>
        <time>2024-09-18T12:44:11Z</time>
      </trkpt>
      <trkpt lat="46.60372" lon="4.93229">
        <ele>185.2</ele>
        <time>2024-09-18T12:44:12Z</time>
      </trkpt>
      <trkpt lat="46.60369" lon="4.93225">
        <ele>185.2</ele>
        <time>2024-09-18T12:44:13Z</time>
      </trkpt>
      <trkpt lat="46.60365" lon="4.93221">
        <ele>185.2</ele>
        <time>2024-09-18T12:44:14Z</time>
      </trkpt>
      <trkpt lat="46.60361" lon="4.93217">
        <ele>185.2</ele>
        <time>2024-09-18T12:44:15Z</time>
      </trkpt>
      <trkpt lat="46.60357" lon="4.93213">
        <ele>185.6</ele>
        <time>2024-09-18T12:44:16Z</time>
      </trkpt>
      <trkpt lat="46.60353" lon="4.93208">
        <ele>185.6</ele>
        <time>2024-09-18T12:44:17Z</time>
      </trkpt>
      <trkpt lat="46.60349" lon="4.93204">
        <ele>185.4</ele>
        <time>2024-09-18T12:44:18Z</time>
      </trkpt>
      <trkpt lat="46.60345" lon="4.932">
        <ele>185.4</ele>
        <time>2024-09-18T12:44:19Z</time>
      </trkpt>
      <trkpt lat="46.60341" lon="4.93196">
        <ele>185.4</ele>
        <time>2024-09-18T12:44:20Z</time>
      </trkpt>
      <trkpt lat="46.60337" lon="4.93191">
        <ele>185.2</ele>
        <time>2024-09-18T12:44:21Z</time>
      </trkpt>
      <trkpt lat="46.60333" lon="4.93187">
        <ele>185.6</ele>
        <time>2024-09-18T12:44:22Z</time>
      </trkpt>
      <trkpt lat="46.6033" lon="4.93182">
        <ele>185.6</ele>
        <time>2024-09-18T12:44:23Z</time>
      </trkpt>
      <trkpt lat="46.60326" lon="4.93178">
        <ele>185.6</ele>
        <time>2024-09-18T12:44:24Z</time>
      </trkpt>
      <trkpt lat="46.60323" lon="4.93174">
        <ele>185.4</ele>
        <time>2024-09-18T12:44:25Z</time>
      </trkpt>
      <trkpt lat="46.60319" lon="4.9317">
        <ele>185.2</ele>
        <time>2024-09-18T12:44:26Z</time>
      </trkpt>
      <trkpt lat="46.60315" lon="4.93167">
        <ele>185.2</ele>
        <time>2024-09-18T12:44:27Z</time>
      </trkpt>
      <trkpt lat="46.60312" lon="4.93163">
        <ele>185.2</ele>
        <time>2024-09-18T12:44:28Z</time>
      </trkpt>
      <trkpt lat="46.60309" lon="4.93159">
        <ele>185.2</ele>
        <time>2024-09-18T12:44:29Z</time>
      </trkpt>
      <trkpt lat="46.60305" lon="4.93156">
        <ele>186</ele>
        <time>2024-09-18T12:44:30Z</time>
      </trkpt>
      <trkpt lat="46.60302" lon="4.93152">
        <ele>186</ele>
        <time>2024-09-18T12:44:31Z</time>
      </trkpt>
      <trkpt lat="46.60299" lon="4.93149">
        <ele>186</ele>
        <time>2024-09-18T12:44:32Z</time>
      </trkpt>
      <trkpt lat="46.60295" lon="4.93146">
        <ele>186</ele>
        <time>2024-09-18T12:44:33Z</time>
      </trkpt>
      <trkpt lat="46.60292" lon="4.93143">
        <ele>186</ele>
        <time>2024-09-18T12:44:34Z</time>
      </trkpt>
      <trkpt lat="46.60288" lon="4.9314">
        <ele>186.2</ele>
        <time>2024-09-18T12:44:35Z</time>
      </trkpt>
      <trkpt lat="46.60285" lon="4.93137">
        <ele>186.2</ele>
        <time>2024-09-18T12:44:36Z</time>
      </trkpt>
      <trkpt lat="46.60281" lon="4.93134">
        <ele>186.2</ele>
        <time>2024-09-18T12:44:37Z</time>
      </trkpt>
      <trkpt lat="46.60278" lon="4.93131">
        <ele>186.2</ele>
        <time>2024-09-18T12:44:38Z</time>
      </trkpt>
      <trkpt lat="46.60275" lon="4.93128">
        <ele>186.4</ele>
        <time>2024-09-18T12:44:39Z</time>
      </trkpt>
      <trkpt lat="46.60271" lon="4.93125">
        <ele>186.4</ele>
        <time>2024-09-18T12:44:40Z</time>
      </trkpt>
      <trkpt lat="46.60267" lon="4.93122">
        <ele>186.4</ele>
        <time>2024-09-18T12:44:41Z</time>
      </trkpt>
      <trkpt lat="46.60264" lon="4.93118">
        <ele>186.4</ele>
        <time>2024-09-18T12:44:42Z</time>
      </trkpt>
      <trkpt lat="46.6026" lon="4.93114">
        <ele>186.4</ele>
        <time>2024-09-18T12:44:43Z</time>
      </trkpt>
      <trkpt lat="46.60256" lon="4.9311">
        <ele>185.8</ele>
        <time>2024-09-18T12:44:44Z</time>
      </trkpt>
      <trkpt lat="46.60252" lon="4.93106">
        <ele>185.8</ele>
        <time>2024-09-18T12:44:45Z</time>
      </trkpt>
      <trkpt lat="46.60247" lon="4.93102">
        <ele>185.8</ele>
        <time>2024-09-18T12:44:46Z</time>
      </trkpt>
      <trkpt lat="46.60243" lon="4.93098">
        <ele>186</ele>
        <time>2024-09-18T12:44:47Z</time>
      </trkpt>
      <trkpt lat="46.60239" lon="4.93094">
        <ele>185.6</ele>
        <time>2024-09-18T12:44:48Z</time>
      </trkpt>
      <trkpt lat="46.60235" lon="4.9309">
        <ele>185.6</ele>
        <time>2024-09-18T12:44:49Z</time>
      </trkpt>
      <trkpt lat="46.60231" lon="4.93086">
        <ele>185.6</ele>
        <time>2024-09-18T12:44:50Z</time>
      </trkpt>
      <trkpt lat="46.60227" lon="4.93082">
        <ele>185.8</ele>
        <time>2024-09-18T12:44:51Z</time>
      </trkpt>
      <trkpt lat="46.60223" lon="4.93078">
        <ele>185.8</ele>
        <time>2024-09-18T12:44:52Z</time>
      </trkpt>
      <trkpt lat="46.60219" lon="4.93074">
        <ele>186.4</ele>
        <time>2024-09-18T12:44:53Z</time>
      </trkpt>
      <trkpt lat="46.60215" lon="4.9307">
        <ele>186.4</ele>
        <time>2024-09-18T12:44:54Z</time>
      </trkpt>
      <trkpt lat="46.60211" lon="4.93067">
        <ele>186.4</ele>
        <time>2024-09-18T12:44:55Z</time>
      </trkpt>
      <trkpt lat="46.60207" lon="4.93064">
        <ele>186</ele>
        <time>2024-09-18T12:44:56Z</time>
      </trkpt>
      <trkpt lat="46.60203" lon="4.9306">
        <ele>186</ele>
        <time>2024-09-18T12:44:57Z</time>
      </trkpt>
      <trkpt lat="46.60198" lon="4.93057">
        <ele>185.8</ele>
        <time>2024-09-18T12:44:58Z</time>
      </trkpt>
      <trkpt lat="46.60194" lon="4.93054">
        <ele>185.8</ele>
        <time>2024-09-18T12:44:59Z</time>
      </trkpt>
      <trkpt lat="46.6019" lon="4.93051">
        <ele>185.8</ele>
        <time>2024-09-18T12:45:00Z</time>
      </trkpt>
      <trkpt lat="46.60186" lon="4.93048">
        <ele>185.8</ele>
        <time>2024-09-18T12:45:01Z</time>
      </trkpt>
      <trkpt lat="46.60182" lon="4.93045">
        <ele>185.8</ele>
        <time>2024-09-18T12:45:02Z</time>
      </trkpt>
      <trkpt lat="46.60178" lon="4.93041">
        <ele>185.8</ele>
        <time>2024-09-18T12:45:03Z</time>
      </trkpt>
      <trkpt lat="46.60173" lon="4.93039">
        <ele>185.8</ele>
        <time>2024-09-18T12:45:04Z</time>
      </trkpt>
      <trkpt lat="46.60169" lon="4.93036">
        <ele>185.8</ele>
        <time>2024-09-18T12:45:05Z</time>
      </trkpt>
      <trkpt lat="46.60164" lon="4.93033">
        <ele>185.8</ele>
        <time>2024-09-18T12:45:06Z</time>
      </trkpt>
      <trkpt lat="46.6016" lon="4.9303">
        <ele>185.8</ele>
        <time>2024-09-18T12:45:07Z</time>
      </trkpt>
      <trkpt lat="46.60156" lon="4.93027">
        <ele>185.8</ele>
        <time>2024-09-18T12:45:08Z</time>
      </trkpt>
      <trkpt lat="46.60151" lon="4.93024">
        <ele>185.8</ele>
        <time>2024-09-18T12:45:09Z</time>
      </trkpt>
      <trkpt lat="46.60147" lon="4.93021">
        <ele>185.8</ele>
        <time>2024-09-18T12:45:10Z</time>
      </trkpt>
      <trkpt lat="46.60143" lon="4.93019">
        <ele>185.8</ele>
        <time>2024-09-18T12:45:11Z</time>
      </trkpt>
      <trkpt lat="46.60138" lon="4.93016">
        <ele>185.8</ele>
        <time>2024-09-18T12:45:12Z</time>
      </trkpt>
      <trkpt lat="46.60134" lon="4.93013">
        <ele>185.8</ele>
        <time>2024-09-18T12:45:13Z</time>
      </trkpt>
      <trkpt lat="46.6013" lon="4.9301">
        <ele>185.8</ele>
        <time>2024-09-18T12:45:14Z</time>
      </trkpt>
      <trkpt lat="46.60126" lon="4.93007">
        <ele>185.8</ele>
        <time>2024-09-18T12:45:15Z</time>
      </trkpt>
      <trkpt lat="46.60122" lon="4.93004">
        <ele>185.8</ele>
        <time>2024-09-18T12:45:16Z</time>
      </trkpt>
      <trkpt lat="46.60118" lon="4.93001">
        <ele>185.8</ele>
        <time>2024-09-18T12:45:17Z</time>
      </trkpt>
      <trkpt lat="46.60114" lon="4.92997">
        <ele>185.8</ele>
        <time>2024-09-18T12:45:18Z</time>
      </trkpt>
      <trkpt lat="46.6011" lon="4.92994">
        <ele>185.8</ele>
        <time>2024-09-18T12:45:19Z</time>
      </trkpt>
      <trkpt lat="46.60106" lon="4.92991">
        <ele>185.6</ele>
        <time>2024-09-18T12:45:20Z</time>
      </trkpt>
      <trkpt lat="46.60102" lon="4.92988">
        <ele>185.6</ele>
        <time>2024-09-18T12:45:21Z</time>
      </trkpt>
      <trkpt lat="46.60098" lon="4.92985">
        <ele>185.6</ele>
        <time>2024-09-18T12:45:22Z</time>
      </trkpt>
      <trkpt lat="46.60094" lon="4.92982">
        <ele>185.6</ele>
        <time>2024-09-18T12:45:23Z</time>
      </trkpt>
      <trkpt lat="46.6009" lon="4.92979">
        <ele>185.6</ele>
        <time>2024-09-18T12:45:24Z</time>
      </trkpt>
      <trkpt lat="46.60086" lon="4.92976">
        <ele>186</ele>
        <time>2024-09-18T12:45:25Z</time>
      </trkpt>
      <trkpt lat="46.60083" lon="4.92973">
        <ele>186</ele>
        <time>2024-09-18T12:45:26Z</time>
      </trkpt>
      <trkpt lat="46.6008" lon="4.9297">
        <ele>186</ele>
        <time>2024-09-18T12:45:27Z</time>
      </trkpt>
      <trkpt lat="46.60077" lon="4.92967">
        <ele>186</ele>
        <time>2024-09-18T12:45:28Z</time>
      </trkpt>
      <trkpt lat="46.60074" lon="4.92965">
        <ele>185.6</ele>
        <time>2024-09-18T12:45:29Z</time>
      </trkpt>
      <trkpt lat="46.60071" lon="4.92962">
        <ele>185.6</ele>
        <time>2024-09-18T12:45:30Z</time>
      </trkpt>
      <trkpt lat="46.60069" lon="4.9296">
        <ele>185.6</ele>
        <time>2024-09-18T12:45:31Z</time>
      </trkpt>
      <trkpt lat="46.60066" lon="4.92958">
        <ele>185.4</ele>
        <time>2024-09-18T12:45:32Z</time>
      </trkpt>
      <trkpt lat="46.60063" lon="4.92956">
        <ele>185.2</ele>
        <time>2024-09-18T12:45:33Z</time>
      </trkpt>
      <trkpt lat="46.6006" lon="4.92954">
        <ele>185.2</ele>
        <time>2024-09-18T12:45:34Z</time>
      </trkpt>
      <trkpt lat="46.60057" lon="4.92952">
        <ele>185.2</ele>
        <time>2024-09-18T12:45:35Z</time>
      </trkpt>
      <trkpt lat="46.60054" lon="4.9295">
        <ele>185.2</ele>
        <time>2024-09-18T12:45:36Z</time>
      </trkpt>
      <trkpt lat="46.6005" lon="4.92948">
        <ele>185.2</ele>
        <time>2024-09-18T12:45:37Z</time>
      </trkpt>
      <trkpt lat="46.60046" lon="4.92945">
        <ele>185.2</ele>
        <time>2024-09-18T12:45:38Z</time>
      </trkpt>
      <trkpt lat="46.60043" lon="4.92942">
        <ele>185.2</ele>
        <time>2024-09-18T12:45:39Z</time>
      </trkpt>
      <trkpt lat="46.60039" lon="4.92939">
        <ele>185.2</ele>
        <time>2024-09-18T12:45:40Z</time>
      </trkpt>
      <trkpt lat="46.60035" lon="4.92935">
        <ele>185.2</ele>
        <time>2024-09-18T12:45:41Z</time>
      </trkpt>
      <trkpt lat="46.60032" lon="4.92932">
        <ele>185.2</ele>
        <time>2024-09-18T12:45:42Z</time>
      </trkpt>
      <trkpt lat="46.60028" lon="4.92928">
        <ele>185.2</ele>
        <time>2024-09-18T12:45:43Z</time>
      </trkpt>
      <trkpt lat="46.60024" lon="4.92925">
        <ele>185.2</ele>
        <time>2024-09-18T12:45:44Z</time>
      </trkpt>
      <trkpt lat="46.6002" lon="4.92922">
        <ele>185.2</ele>
        <time>2024-09-18T12:45:45Z</time>
      </trkpt>
      <trkpt lat="46.60016" lon="4.92919">
        <ele>185.4</ele>
        <time>2024-09-18T12:45:46Z</time>
      </trkpt>
      <trkpt lat="46.60013" lon="4.92915">
        <ele>185.2</ele>
        <time>2024-09-18T12:45:47Z</time>
      </trkpt>
      <trkpt lat="46.60009" lon="4.92912">
        <ele>185.2</ele>
        <time>2024-09-18T12:45:48Z</time>
      </trkpt>
      <trkpt lat="46.60006" lon="4.92908">
        <ele>185.2</ele>
        <time>2024-09-18T12:45:49Z</time>
      </trkpt>
      <trkpt lat="46.60002" lon="4.92905">
        <ele>185.2</ele>
        <time>2024-09-18T12:45:50Z</time>
      </trkpt>
      <trkpt lat="46.59999" lon="4.92901">
        <ele>185.2</ele>
        <time>2024-09-18T12:45:51Z</time>
      </trkpt>
      <trkpt lat="46.59995" lon="4.92898">
        <ele>185.6</ele>
        <time>2024-09-18T12:45:52Z</time>
      </trkpt>
      <trkpt lat="46.59991" lon="4.92895">
        <ele>185.6</ele>
        <time>2024-09-18T12:45:53Z</time>
      </trkpt>
      <trkpt lat="46.59987" lon="4.92891">
        <ele>185.6</ele>
        <time>2024-09-18T12:45:54Z</time>
      </trkpt>
      <trkpt lat="46.59984" lon="4.92887">
        <ele>185.6</ele>
        <time>2024-09-18T12:45:55Z</time>
      </trkpt>
      <trkpt lat="46.5998" lon="4.92883">
        <ele>185.6</ele>
        <time>2024-09-18T12:45:56Z</time>
      </trkpt>
      <trkpt lat="46.59976" lon="4.92879">
        <ele>185.6</ele>
        <time>2024-09-18T12:45:57Z</time>
      </trkpt>
      <trkpt lat="46.59972" lon="4.92875">
        <ele>185.6</ele>
        <time>2024-09-18T12:45:58Z</time>
      </trkpt>
      <trkpt lat="46.59968" lon="4.92872">
        <ele>185.6</ele>
        <time>2024-09-18T12:45:59Z</time>
      </trkpt>
      <trkpt lat="46.59965" lon="4.92869">
        <ele>185.2</ele>
        <time>2024-09-18T12:46:00Z</time>
      </trkpt>
      <trkpt lat="46.59961" lon="4.92865">
        <ele>185.2</ele>
        <time>2024-09-18T12:46:01Z</time>
      </trkpt>
      <trkpt lat="46.59958" lon="4.92861">
        <ele>185.2</ele>
        <time>2024-09-18T12:46:02Z</time>
      </trkpt>
      <trkpt lat="46.59954" lon="4.92858">
        <ele>185.2</ele>
        <time>2024-09-18T12:46:03Z</time>
      </trkpt>
      <trkpt lat="46.5995" lon="4.92854">
        <ele>185.2</ele>
        <time>2024-09-18T12:46:04Z</time>
      </trkpt>
      <trkpt lat="46.59947" lon="4.92851">
        <ele>185.4</ele>
        <time>2024-09-18T12:46:05Z</time>
      </trkpt>
      <trkpt lat="46.59943" lon="4.92848">
        <ele>185.4</ele>
        <time>2024-09-18T12:46:06Z</time>
      </trkpt>
      <trkpt lat="46.59939" lon="4.92845">
        <ele>185.4</ele>
        <time>2024-09-18T12:46:07Z</time>
      </trkpt>
      <trkpt lat="46.59935" lon="4.92841">
        <ele>185.6</ele>
        <time>2024-09-18T12:46:08Z</time>
      </trkpt>
      <trkpt lat="46.59931" lon="4.92839">
        <ele>185.8</ele>
        <time>2024-09-18T12:46:09Z</time>
      </trkpt>
      <trkpt lat="46.59927" lon="4.92836">
        <ele>185.8</ele>
        <time>2024-09-18T12:46:10Z</time>
      </trkpt>
      <trkpt lat="46.59923" lon="4.92835">
        <ele>185.8</ele>
        <time>2024-09-18T12:46:11Z</time>
      </trkpt>
      <trkpt lat="46.59919" lon="4.92834">
        <ele>185.8</ele>
        <time>2024-09-18T12:46:12Z</time>
      </trkpt>
      <trkpt lat="46.59915" lon="4.92834">
        <ele>185.8</ele>
        <time>2024-09-18T12:46:13Z</time>
      </trkpt>
      <trkpt lat="46.59911" lon="4.92834">
        <ele>186</ele>
        <time>2024-09-18T12:46:14Z</time>
      </trkpt>
      <trkpt lat="46.59907" lon="4.92834">
        <ele>186</ele>
        <time>2024-09-18T12:46:15Z</time>
      </trkpt>
      <trkpt lat="46.59903" lon="4.92834">
        <ele>186</ele>
        <time>2024-09-18T12:46:16Z</time>
      </trkpt>
      <trkpt lat="46.59899" lon="4.92834">
        <ele>185.6</ele>
        <time>2024-09-18T12:46:17Z</time>
      </trkpt>
      <trkpt lat="46.59894" lon="4.92834">
        <ele>186</ele>
        <time>2024-09-18T12:46:18Z</time>
      </trkpt>
      <trkpt lat="46.5989" lon="4.92834">
        <ele>186</ele>
        <time>2024-09-18T12:46:19Z</time>
      </trkpt>
      <trkpt lat="46.59886" lon="4.92833">
        <ele>186</ele>
        <time>2024-09-18T12:46:20Z</time>
      </trkpt>
      <trkpt lat="46.59882" lon="4.92832">
        <ele>185.8</ele>
        <time>2024-09-18T12:46:21Z</time>
      </trkpt>
      <trkpt lat="46.59878" lon="4.92831">
        <ele>185.8</ele>
        <time>2024-09-18T12:46:22Z</time>
      </trkpt>
      <trkpt lat="46.59873" lon="4.92829">
        <ele>185.6</ele>
        <time>2024-09-18T12:46:23Z</time>
      </trkpt>
      <trkpt lat="46.59869" lon="4.92828">
        <ele>185.6</ele>
        <time>2024-09-18T12:46:24Z</time>
      </trkpt>
      <trkpt lat="46.59865" lon="4.92827">
        <ele>185.6</ele>
        <time>2024-09-18T12:46:25Z</time>
      </trkpt>
      <trkpt lat="46.59861" lon="4.92826">
        <ele>185.6</ele>
        <time>2024-09-18T12:46:26Z</time>
      </trkpt>
      <trkpt lat="46.59857" lon="4.92825">
        <ele>185.8</ele>
        <time>2024-09-18T12:46:27Z</time>
      </trkpt>
      <trkpt lat="46.59853" lon="4.92824">
        <ele>185.8</ele>
        <time>2024-09-18T12:46:28Z</time>
      </trkpt>
      <trkpt lat="46.59849" lon="4.92823">
        <ele>185.4</ele>
        <time>2024-09-18T12:46:29Z</time>
      </trkpt>
      <trkpt lat="46.59845" lon="4.92822">
        <ele>185.4</ele>
        <time>2024-09-18T12:46:30Z</time>
      </trkpt>
      <trkpt lat="46.59841" lon="4.92821">
        <ele>185.8</ele>
        <time>2024-09-18T12:46:31Z</time>
      </trkpt>
      <trkpt lat="46.59837" lon="4.92819">
        <ele>185.8</ele>
        <time>2024-09-18T12:46:32Z</time>
      </trkpt>
      <trkpt lat="46.59833" lon="4.92818">
        <ele>185.8</ele>
        <time>2024-09-18T12:46:33Z</time>
      </trkpt>
      <trkpt lat="46.5983" lon="4.92817">
        <ele>185.8</ele>
        <time>2024-09-18T12:46:34Z</time>
      </trkpt>
      <trkpt lat="46.59826" lon="4.92815">
        <ele>185.8</ele>
        <time>2024-09-18T12:46:35Z</time>
      </trkpt>
      <trkpt lat="46.59822" lon="4.92814">
        <ele>185.8</ele>
        <time>2024-09-18T12:46:36Z</time>
      </trkpt>
      <trkpt lat="46.59818" lon="4.92813">
        <ele>185.8</ele>
        <time>2024-09-18T12:46:37Z</time>
      </trkpt>
      <trkpt lat="46.59814" lon="4.92811">
        <ele>185.8</ele>
        <time>2024-09-18T12:46:38Z</time>
      </trkpt>
      <trkpt lat="46.59811" lon="4.92808">
        <ele>185.8</ele>
        <time>2024-09-18T12:46:39Z</time>
      </trkpt>
      <trkpt lat="46.59807" lon="4.92806">
        <ele>185.8</ele>
        <time>2024-09-18T12:46:40Z</time>
      </trkpt>
      <trkpt lat="46.59804" lon="4.92804">
        <ele>185.6</ele>
        <time>2024-09-18T12:46:41Z</time>
      </trkpt>
      <trkpt lat="46.598" lon="4.92802">
        <ele>185.6</ele>
        <time>2024-09-18T12:46:42Z</time>
      </trkpt>
      <trkpt lat="46.59796" lon="4.928">
        <ele>185.6</ele>
        <time>2024-09-18T12:46:43Z</time>
      </trkpt>
      <trkpt lat="46.59792" lon="4.92797">
        <ele>185.6</ele>
        <time>2024-09-18T12:46:44Z</time>
      </trkpt>
      <trkpt lat="46.59788" lon="4.92794">
        <ele>186.2</ele>
        <time>2024-09-18T12:46:45Z</time>
      </trkpt>
      <trkpt lat="46.59784" lon="4.92791">
        <ele>186.2</ele>
        <time>2024-09-18T12:46:46Z</time>
      </trkpt>
      <trkpt lat="46.59779" lon="4.92788">
        <ele>186.2</ele>
        <time>2024-09-18T12:46:47Z</time>
      </trkpt>
      <trkpt lat="46.59775" lon="4.92785">
        <ele>186.2</ele>
        <time>2024-09-18T12:46:48Z</time>
      </trkpt>
      <trkpt lat="46.59771" lon="4.92782">
        <ele>186</ele>
        <time>2024-09-18T12:46:49Z</time>
      </trkpt>
      <trkpt lat="46.59767" lon="4.92779">
        <ele>185.8</ele>
        <time>2024-09-18T12:46:50Z</time>
      </trkpt>
      <trkpt lat="46.59763" lon="4.92776">
        <ele>185.8</ele>
        <time>2024-09-18T12:46:51Z</time>
      </trkpt>
      <trkpt lat="46.59759" lon="4.92773">
        <ele>185.8</ele>
        <time>2024-09-18T12:46:52Z</time>
      </trkpt>
      <trkpt lat="46.59755" lon="4.9277">
        <ele>185.8</ele>
        <time>2024-09-18T12:46:53Z</time>
      </trkpt>
      <trkpt lat="46.59751" lon="4.92767">
        <ele>185.8</ele>
        <time>2024-09-18T12:46:54Z</time>
      </trkpt>
      <trkpt lat="46.59747" lon="4.92764">
        <ele>186</ele>
        <time>2024-09-18T12:46:55Z</time>
      </trkpt>
      <trkpt lat="46.59743" lon="4.92761">
        <ele>186</ele>
        <time>2024-09-18T12:46:56Z</time>
      </trkpt>
      <trkpt lat="46.59739" lon="4.92758">
        <ele>186</ele>
        <time>2024-09-18T12:46:57Z</time>
      </trkpt>
      <trkpt lat="46.59734" lon="4.92755">
        <ele>185.6</ele>
        <time>2024-09-18T12:46:58Z</time>
      </trkpt>
      <trkpt lat="46.5973" lon="4.92753">
        <ele>185.8</ele>
        <time>2024-09-18T12:46:59Z</time>
      </trkpt>
      <trkpt lat="46.59726" lon="4.9275">
        <ele>185.8</ele>
        <time>2024-09-18T12:47:00Z</time>
      </trkpt>
      <trkpt lat="46.59722" lon="4.92747">
        <ele>185.8</ele>
        <time>2024-09-18T12:47:01Z</time>
      </trkpt>
      <trkpt lat="46.59717" lon="4.92744">
        <ele>185.8</ele>
        <time>2024-09-18T12:47:02Z</time>
      </trkpt>
      <trkpt lat="46.59713" lon="4.92741">
        <ele>185.6</ele>
        <time>2024-09-18T12:47:03Z</time>
      </trkpt>
      <trkpt lat="46.59709" lon="4.92739">
        <ele>185.6</ele>
        <time>2024-09-18T12:47:04Z</time>
      </trkpt>
      <trkpt lat="46.59705" lon="4.92736">
        <ele>185.6</ele>
        <time>2024-09-18T12:47:05Z</time>
      </trkpt>
      <trkpt lat="46.59701" lon="4.92733">
        <ele>185.6</ele>
        <time>2024-09-18T12:47:06Z</time>
      </trkpt>
      <trkpt lat="46.59697" lon="4.9273">
        <ele>185.6</ele>
        <time>2024-09-18T12:47:07Z</time>
      </trkpt>
      <trkpt lat="46.59693" lon="4.92728">
        <ele>185.6</ele>
        <time>2024-09-18T12:47:08Z</time>
      </trkpt>
      <trkpt lat="46.59689" lon="4.92725">
        <ele>186</ele>
        <time>2024-09-18T12:47:09Z</time>
      </trkpt>
      <trkpt lat="46.59685" lon="4.92723">
        <ele>186</ele>
        <time>2024-09-18T12:47:10Z</time>
      </trkpt>
      <trkpt lat="46.59681" lon="4.92721">
        <ele>186</ele>
        <time>2024-09-18T12:47:11Z</time>
      </trkpt>
      <trkpt lat="46.59677" lon="4.92719">
        <ele>186.2</ele>
        <time>2024-09-18T12:47:12Z</time>
      </trkpt>
      <trkpt lat="46.59673" lon="4.92717">
        <ele>186</ele>
        <time>2024-09-18T12:47:13Z</time>
      </trkpt>
      <trkpt lat="46.59669" lon="4.92714">
        <ele>186</ele>
        <time>2024-09-18T12:47:14Z</time>
      </trkpt>
      <trkpt lat="46.59664" lon="4.92712">
        <ele>186</ele>
        <time>2024-09-18T12:47:15Z</time>
      </trkpt>
      <trkpt lat="46.5966" lon="4.9271">
        <ele>185.6</ele>
        <time>2024-09-18T12:47:16Z</time>
      </trkpt>
      <trkpt lat="46.59656" lon="4.92708">
        <ele>185.6</ele>
        <time>2024-09-18T12:47:17Z</time>
      </trkpt>
      <trkpt lat="46.59652" lon="4.92705">
        <ele>185.6</ele>
        <time>2024-09-18T12:47:18Z</time>
      </trkpt>
      <trkpt lat="46.59648" lon="4.92703">
        <ele>185.6</ele>
        <time>2024-09-18T12:47:19Z</time>
      </trkpt>
      <trkpt lat="46.59644" lon="4.92701">
        <ele>185.6</ele>
        <time>2024-09-18T12:47:20Z</time>
      </trkpt>
      <trkpt lat="46.5964" lon="4.92698">
        <ele>185.8</ele>
        <time>2024-09-18T12:47:21Z</time>
      </trkpt>
      <trkpt lat="46.59635" lon="4.92696">
        <ele>185.8</ele>
        <time>2024-09-18T12:47:22Z</time>
      </trkpt>
      <trkpt lat="46.59631" lon="4.92694">
        <ele>185.8</ele>
        <time>2024-09-18T12:47:23Z</time>
      </trkpt>
      <trkpt lat="46.59627" lon="4.92691">
        <ele>185.8</ele>
        <time>2024-09-18T12:47:24Z</time>
      </trkpt>
      <trkpt lat="46.59623" lon="4.92689">
        <ele>185.8</ele>
        <time>2024-09-18T12:47:25Z</time>
      </trkpt>
      <trkpt lat="46.59618" lon="4.92686">
        <ele>185.8</ele>
        <time>2024-09-18T12:47:26Z</time>
      </trkpt>
      <trkpt lat="46.59614" lon="4.92683">
        <ele>185.8</ele>
        <time>2024-09-18T12:47:27Z</time>
      </trkpt>
      <trkpt lat="46.5961" lon="4.92681">
        <ele>185.8</ele>
        <time>2024-09-18T12:47:28Z</time>
      </trkpt>
      <trkpt lat="46.59606" lon="4.92678">
        <ele>185.8</ele>
        <time>2024-09-18T12:47:29Z</time>
      </trkpt>
      <trkpt lat="46.59602" lon="4.92675">
        <ele>185.8</ele>
        <time>2024-09-18T12:47:30Z</time>
      </trkpt>
      <trkpt lat="46.59598" lon="4.92672">
        <ele>186</ele>
        <time>2024-09-18T12:47:31Z</time>
      </trkpt>
      <trkpt lat="46.59594" lon="4.92669">
        <ele>186</ele>
        <time>2024-09-18T12:47:32Z</time>
      </trkpt>
      <trkpt lat="46.5959" lon="4.92666">
        <ele>186</ele>
        <time>2024-09-18T12:47:33Z</time>
      </trkpt>
      <trkpt lat="46.59586" lon="4.92664">
        <ele>186</ele>
        <time>2024-09-18T12:47:34Z</time>
      </trkpt>
      <trkpt lat="46.59582" lon="4.92661">
        <ele>185</ele>
        <time>2024-09-18T12:47:35Z</time>
      </trkpt>
      <trkpt lat="46.59578" lon="4.92658">
        <ele>185</ele>
        <time>2024-09-18T12:47:36Z</time>
      </trkpt>
      <trkpt lat="46.59574" lon="4.92656">
        <ele>185</ele>
        <time>2024-09-18T12:47:37Z</time>
      </trkpt>
      <trkpt lat="46.5957" lon="4.92653">
        <ele>186</ele>
        <time>2024-09-18T12:47:38Z</time>
      </trkpt>
      <trkpt lat="46.59566" lon="4.92649">
        <ele>185.8</ele>
        <time>2024-09-18T12:47:39Z</time>
      </trkpt>
      <trkpt lat="46.59562" lon="4.92645">
        <ele>185.8</ele>
        <time>2024-09-18T12:47:40Z</time>
      </trkpt>
      <trkpt lat="46.59558" lon="4.92641">
        <ele>185.8</ele>
        <time>2024-09-18T12:47:41Z</time>
      </trkpt>
      <trkpt lat="46.59554" lon="4.92637">
        <ele>185.8</ele>
        <time>2024-09-18T12:47:42Z</time>
      </trkpt>
      <trkpt lat="46.5955" lon="4.92634">
        <ele>185.8</ele>
        <time>2024-09-18T12:47:43Z</time>
      </trkpt>
      <trkpt lat="46.59546" lon="4.9263">
        <ele>185.6</ele>
        <time>2024-09-18T12:47:44Z</time>
      </trkpt>
      <trkpt lat="46.59543" lon="4.92627">
        <ele>185.6</ele>
        <time>2024-09-18T12:47:45Z</time>
      </trkpt>
      <trkpt lat="46.59539" lon="4.92623">
        <ele>185.6</ele>
        <time>2024-09-18T12:47:46Z</time>
      </trkpt>
      <trkpt lat="46.59535" lon="4.92619">
        <ele>185.6</ele>
        <time>2024-09-18T12:47:47Z</time>
      </trkpt>
      <trkpt lat="46.59531" lon="4.92615">
        <ele>185.8</ele>
        <time>2024-09-18T12:47:48Z</time>
      </trkpt>
      <trkpt lat="46.59528" lon="4.9261">
        <ele>185.8</ele>
        <time>2024-09-18T12:47:49Z</time>
      </trkpt>
      <trkpt lat="46.59524" lon="4.92607">
        <ele>185.8</ele>
        <time>2024-09-18T12:47:50Z</time>
      </trkpt>
      <trkpt lat="46.5952" lon="4.92603">
        <ele>185.8</ele>
        <time>2024-09-18T12:47:51Z</time>
      </trkpt>
      <trkpt lat="46.59517" lon="4.92599">
        <ele>185.6</ele>
        <time>2024-09-18T12:47:52Z</time>
      </trkpt>
      <trkpt lat="46.59513" lon="4.92595">
        <ele>185.6</ele>
        <time>2024-09-18T12:47:53Z</time>
      </trkpt>
      <trkpt lat="46.59509" lon="4.92591">
        <ele>185.8</ele>
        <time>2024-09-18T12:47:54Z</time>
      </trkpt>
      <trkpt lat="46.59506" lon="4.92587">
        <ele>185.8</ele>
        <time>2024-09-18T12:47:55Z</time>
      </trkpt>
      <trkpt lat="46.59502" lon="4.92583">
        <ele>185.8</ele>
        <time>2024-09-18T12:47:56Z</time>
      </trkpt>
      <trkpt lat="46.59499" lon="4.92579">
        <ele>185.8</ele>
        <time>2024-09-18T12:47:57Z</time>
      </trkpt>
      <trkpt lat="46.59495" lon="4.92575">
        <ele>185.8</ele>
        <time>2024-09-18T12:47:58Z</time>
      </trkpt>
      <trkpt lat="46.59492" lon="4.92572">
        <ele>185.8</ele>
        <time>2024-09-18T12:47:59Z</time>
      </trkpt>
      <trkpt lat="46.59488" lon="4.92568">
        <ele>185.8</ele>
        <time>2024-09-18T12:48:00Z</time>
      </trkpt>
      <trkpt lat="46.59485" lon="4.92564">
        <ele>185.8</ele>
        <time>2024-09-18T12:48:01Z</time>
      </trkpt>
      <trkpt lat="46.59481" lon="4.9256">
        <ele>185.8</ele>
        <time>2024-09-18T12:48:02Z</time>
      </trkpt>
      <trkpt lat="46.59478" lon="4.92556">
        <ele>186</ele>
        <time>2024-09-18T12:48:03Z</time>
      </trkpt>
      <trkpt lat="46.59474" lon="4.92552">
        <ele>186</ele>
        <time>2024-09-18T12:48:04Z</time>
      </trkpt>
      <trkpt lat="46.59471" lon="4.92548">
        <ele>186</ele>
        <time>2024-09-18T12:48:05Z</time>
      </trkpt>
      <trkpt lat="46.59468" lon="4.92544">
        <ele>186</ele>
        <time>2024-09-18T12:48:06Z</time>
      </trkpt>
      <trkpt lat="46.59464" lon="4.9254">
        <ele>185.8</ele>
        <time>2024-09-18T12:48:07Z</time>
      </trkpt>
      <trkpt lat="46.59461" lon="4.92536">
        <ele>185.8</ele>
        <time>2024-09-18T12:48:08Z</time>
      </trkpt>
      <trkpt lat="46.59457" lon="4.92531">
        <ele>185.8</ele>
        <time>2024-09-18T12:48:09Z</time>
      </trkpt>
      <trkpt lat="46.59453" lon="4.92527">
        <ele>185.6</ele>
        <time>2024-09-18T12:48:10Z</time>
      </trkpt>
      <trkpt lat="46.5945" lon="4.92522">
        <ele>185.6</ele>
        <time>2024-09-18T12:48:11Z</time>
      </trkpt>
      <trkpt lat="46.59446" lon="4.92518">
        <ele>186.2</ele>
        <time>2024-09-18T12:48:12Z</time>
      </trkpt>
      <trkpt lat="46.59443" lon="4.92513">
        <ele>186.2</ele>
        <time>2024-09-18T12:48:13Z</time>
      </trkpt>
      <trkpt lat="46.5944" lon="4.92509">
        <ele>186.2</ele>
        <time>2024-09-18T12:48:14Z</time>
      </trkpt>
      <trkpt lat="46.59436" lon="4.92504">
        <ele>185.4</ele>
        <time>2024-09-18T12:48:15Z</time>
      </trkpt>
      <trkpt lat="46.59433" lon="4.925">
        <ele>185.6</ele>
        <time>2024-09-18T12:48:16Z</time>
      </trkpt>
      <trkpt lat="46.5943" lon="4.92496">
        <ele>185.6</ele>
        <time>2024-09-18T12:48:17Z</time>
      </trkpt>
      <trkpt lat="46.59427" lon="4.92491">
        <ele>185.6</ele>
        <time>2024-09-18T12:48:18Z</time>
      </trkpt>
      <trkpt lat="46.59424" lon="4.92487">
        <ele>185.6</ele>
        <time>2024-09-18T12:48:19Z</time>
      </trkpt>
      <trkpt lat="46.59421" lon="4.92483">
        <ele>185.6</ele>
        <time>2024-09-18T12:48:20Z</time>
      </trkpt>
      <trkpt lat="46.59419" lon="4.92479">
        <ele>185.6</ele>
        <time>2024-09-18T12:48:21Z</time>
      </trkpt>
      <trkpt lat="46.59416" lon="4.92475">
        <ele>185.6</ele>
        <time>2024-09-18T12:48:22Z</time>
      </trkpt>
      <trkpt lat="46.59413" lon="4.92471">
        <ele>185.6</ele>
        <time>2024-09-18T12:48:23Z</time>
      </trkpt>
      <trkpt lat="46.59409" lon="4.92468">
        <ele>186.6</ele>
        <time>2024-09-18T12:48:24Z</time>
      </trkpt>
      <trkpt lat="46.59406" lon="4.92465">
        <ele>186</ele>
        <time>2024-09-18T12:48:25Z</time>
      </trkpt>
      <trkpt lat="46.59402" lon="4.92462">
        <ele>186</ele>
        <time>2024-09-18T12:48:26Z</time>
      </trkpt>
      <trkpt lat="46.59399" lon="4.92459">
        <ele>186</ele>
        <time>2024-09-18T12:48:27Z</time>
      </trkpt>
      <trkpt lat="46.59395" lon="4.92456">
        <ele>186</ele>
        <time>2024-09-18T12:48:28Z</time>
      </trkpt>
      <trkpt lat="46.59392" lon="4.92452">
        <ele>186.4</ele>
        <time>2024-09-18T12:48:29Z</time>
      </trkpt>
      <trkpt lat="46.59388" lon="4.92449">
        <ele>186.4</ele>
        <time>2024-09-18T12:48:30Z</time>
      </trkpt>
      <trkpt lat="46.59385" lon="4.92446">
        <ele>186.4</ele>
        <time>2024-09-18T12:48:31Z</time>
      </trkpt>
      <trkpt lat="46.59381" lon="4.92443">
        <ele>186.4</ele>
        <time>2024-09-18T12:48:32Z</time>
      </trkpt>
      <trkpt lat="46.59378" lon="4.9244">
        <ele>186.4</ele>
        <time>2024-09-18T12:48:33Z</time>
      </trkpt>
      <trkpt lat="46.59375" lon="4.92436">
        <ele>186.2</ele>
        <time>2024-09-18T12:48:34Z</time>
      </trkpt>
      <trkpt lat="46.59371" lon="4.92433">
        <ele>186.2</ele>
        <time>2024-09-18T12:48:35Z</time>
      </trkpt>
      <trkpt lat="46.59368" lon="4.9243">
        <ele>186.2</ele>
        <time>2024-09-18T12:48:36Z</time>
      </trkpt>
      <trkpt lat="46.59364" lon="4.92427">
        <ele>186.2</ele>
        <time>2024-09-18T12:48:37Z</time>
      </trkpt>
      <trkpt lat="46.59362" lon="4.92423">
        <ele>186.2</ele>
        <time>2024-09-18T12:48:38Z</time>
      </trkpt>
      <trkpt lat="46.59359" lon="4.92418">
        <ele>186.4</ele>
        <time>2024-09-18T12:48:39Z</time>
      </trkpt>
      <trkpt lat="46.59356" lon="4.92414">
        <ele>186.4</ele>
        <time>2024-09-18T12:48:40Z</time>
      </trkpt>
      <trkpt lat="46.59353" lon="4.92409">
        <ele>186.4</ele>
        <time>2024-09-18T12:48:41Z</time>
      </trkpt>
      <trkpt lat="46.5935" lon="4.92405">
        <ele>186.4</ele>
        <time>2024-09-18T12:48:42Z</time>
      </trkpt>
      <trkpt lat="46.59347" lon="4.92402">
        <ele>186.4</ele>
        <time>2024-09-18T12:48:43Z</time>
      </trkpt>
      <trkpt lat="46.59343" lon="4.92398">
        <ele>186.4</ele>
        <time>2024-09-18T12:48:44Z</time>
      </trkpt>
      <trkpt lat="46.5934" lon="4.92394">
        <ele>186.4</ele>
        <time>2024-09-18T12:48:45Z</time>
      </trkpt>
      <trkpt lat="46.59336" lon="4.92391">
        <ele>186.4</ele>
        <time>2024-09-18T12:48:46Z</time>
      </trkpt>
      <trkpt lat="46.59333" lon="4.92387">
        <ele>186.4</ele>
        <time>2024-09-18T12:48:47Z</time>
      </trkpt>
      <trkpt lat="46.59329" lon="4.92383">
        <ele>186.2</ele>
        <time>2024-09-18T12:48:48Z</time>
      </trkpt>
      <trkpt lat="46.59326" lon="4.9238">
        <ele>186.2</ele>
        <time>2024-09-18T12:48:49Z</time>
      </trkpt>
      <trkpt lat="46.59322" lon="4.92377">
        <ele>186.2</ele>
        <time>2024-09-18T12:48:50Z</time>
      </trkpt>
      <trkpt lat="46.59319" lon="4.92373">
        <ele>186.2</ele>
        <time>2024-09-18T12:48:51Z</time>
      </trkpt>
      <trkpt lat="46.59316" lon="4.9237">
        <ele>186.4</ele>
        <time>2024-09-18T12:48:52Z</time>
      </trkpt>
      <trkpt lat="46.59312" lon="4.92367">
        <ele>186.4</ele>
        <time>2024-09-18T12:48:53Z</time>
      </trkpt>
      <trkpt lat="46.59309" lon="4.92364">
        <ele>186.4</ele>
        <time>2024-09-18T12:48:54Z</time>
      </trkpt>
      <trkpt lat="46.59305" lon="4.9236">
        <ele>186.4</ele>
        <time>2024-09-18T12:48:55Z</time>
      </trkpt>
      <trkpt lat="46.59301" lon="4.92357">
        <ele>186.4</ele>
        <time>2024-09-18T12:48:56Z</time>
      </trkpt>
      <trkpt lat="46.59298" lon="4.92353">
        <ele>186.6</ele>
        <time>2024-09-18T12:48:57Z</time>
      </trkpt>
      <trkpt lat="46.59294" lon="4.9235">
        <ele>186.6</ele>
        <time>2024-09-18T12:48:58Z</time>
      </trkpt>
      <trkpt lat="46.5929" lon="4.92346">
        <ele>186.2</ele>
        <time>2024-09-18T12:48:59Z</time>
      </trkpt>
      <trkpt lat="46.59286" lon="4.92342">
        <ele>186.4</ele>
        <time>2024-09-18T12:49:00Z</time>
      </trkpt>
      <trkpt lat="46.59283" lon="4.92339">
        <ele>186.4</ele>
        <time>2024-09-18T12:49:01Z</time>
      </trkpt>
      <trkpt lat="46.59279" lon="4.92335">
        <ele>186.4</ele>
        <time>2024-09-18T12:49:02Z</time>
      </trkpt>
      <trkpt lat="46.59275" lon="4.92331">
        <ele>186.4</ele>
        <time>2024-09-18T12:49:03Z</time>
      </trkpt>
      <trkpt lat="46.59271" lon="4.92327">
        <ele>186.4</ele>
        <time>2024-09-18T12:49:04Z</time>
      </trkpt>
      <trkpt lat="46.59268" lon="4.92322">
        <ele>186.4</ele>
        <time>2024-09-18T12:49:05Z</time>
      </trkpt>
      <trkpt lat="46.59264" lon="4.92318">
        <ele>186.4</ele>
        <time>2024-09-18T12:49:06Z</time>
      </trkpt>
      <trkpt lat="46.5926" lon="4.92314">
        <ele>186.4</ele>
        <time>2024-09-18T12:49:07Z</time>
      </trkpt>
      <trkpt lat="46.59256" lon="4.9231">
        <ele>186.4</ele>
        <time>2024-09-18T12:49:08Z</time>
      </trkpt>
      <trkpt lat="46.59252" lon="4.92306">
        <ele>186.4</ele>
        <time>2024-09-18T12:49:09Z</time>
      </trkpt>
      <trkpt lat="46.59248" lon="4.92303">
        <ele>186.4</ele>
        <time>2024-09-18T12:49:10Z</time>
      </trkpt>
      <trkpt lat="46.59245" lon="4.92299">
        <ele>186.4</ele>
        <time>2024-09-18T12:49:11Z</time>
      </trkpt>
      <trkpt lat="46.59241" lon="4.92295">
        <ele>186.4</ele>
        <time>2024-09-18T12:49:12Z</time>
      </trkpt>
      <trkpt lat="46.59238" lon="4.92291">
        <ele>186.4</ele>
        <time>2024-09-18T12:49:13Z</time>
      </trkpt>
      <trkpt lat="46.59234" lon="4.92288">
        <ele>186.8</ele>
        <time>2024-09-18T12:49:14Z</time>
      </trkpt>
      <trkpt lat="46.5923" lon="4.92284">
        <ele>186.8</ele>
        <time>2024-09-18T12:49:15Z</time>
      </trkpt>
      <trkpt lat="46.59227" lon="4.9228">
        <ele>186.8</ele>
        <time>2024-09-18T12:49:16Z</time>
      </trkpt>
      <trkpt lat="46.59223" lon="4.92276">
        <ele>186.8</ele>
        <time>2024-09-18T12:49:17Z</time>
      </trkpt>
      <trkpt lat="46.5922" lon="4.92272">
        <ele>186.8</ele>
        <time>2024-09-18T12:49:18Z</time>
      </trkpt>
      <trkpt lat="46.59216" lon="4.92268">
        <ele>185.8</ele>
        <time>2024-09-18T12:49:19Z</time>
      </trkpt>
      <trkpt lat="46.59213" lon="4.92265">
        <ele>185.8</ele>
        <time>2024-09-18T12:49:20Z</time>
      </trkpt>
      <trkpt lat="46.59209" lon="4.92261">
        <ele>185.8</ele>
        <time>2024-09-18T12:49:21Z</time>
      </trkpt>
      <trkpt lat="46.59206" lon="4.92258">
        <ele>185.8</ele>
        <time>2024-09-18T12:49:22Z</time>
      </trkpt>
      <trkpt lat="46.59203" lon="4.92254">
        <ele>186</ele>
        <time>2024-09-18T12:49:23Z</time>
      </trkpt>
      <trkpt lat="46.59199" lon="4.92249">
        <ele>186.8</ele>
        <time>2024-09-18T12:49:24Z</time>
      </trkpt>
      <trkpt lat="46.59196" lon="4.92245">
        <ele>186.8</ele>
        <time>2024-09-18T12:49:25Z</time>
      </trkpt>
      <trkpt lat="46.59192" lon="4.92241">
        <ele>186.8</ele>
        <time>2024-09-18T12:49:26Z</time>
      </trkpt>
      <trkpt lat="46.59189" lon="4.92237">
        <ele>186</ele>
        <time>2024-09-18T12:49:27Z</time>
      </trkpt>
      <trkpt lat="46.59183" lon="4.9223">
        <ele>186.8</ele>
        <time>2024-09-18T12:49:28Z</time>
      </trkpt>
      <trkpt lat="46.59181" lon="4.92227">
        <ele>186.8</ele>
        <time>2024-09-18T12:49:29Z</time>
      </trkpt>
      <trkpt lat="46.59177" lon="4.92223">
        <ele>186.8</ele>
        <time>2024-09-18T12:49:30Z</time>
      </trkpt>
      <trkpt lat="46.59174" lon="4.92219">
        <ele>186.8</ele>
        <time>2024-09-18T12:49:31Z</time>
      </trkpt>
      <trkpt lat="46.59171" lon="4.92215">
        <ele>185.8</ele>
        <time>2024-09-18T12:49:32Z</time>
      </trkpt>
      <trkpt lat="46.59168" lon="4.92212">
        <ele>186</ele>
        <time>2024-09-18T12:49:33Z</time>
      </trkpt>
      <trkpt lat="46.59166" lon="4.92209">
        <ele>186</ele>
        <time>2024-09-18T12:49:34Z</time>
      </trkpt>
      <trkpt lat="46.59163" lon="4.92206">
        <ele>186</ele>
        <time>2024-09-18T12:49:35Z</time>
      </trkpt>
      <trkpt lat="46.5916" lon="4.92203">
        <ele>186.6</ele>
        <time>2024-09-18T12:49:36Z</time>
      </trkpt>
      <trkpt lat="46.59157" lon="4.92199">
        <ele>185.8</ele>
        <time>2024-09-18T12:49:37Z</time>
      </trkpt>
      <trkpt lat="46.59154" lon="4.92195">
        <ele>185.8</ele>
        <time>2024-09-18T12:49:38Z</time>
      </trkpt>
      <trkpt lat="46.5915" lon="4.92192">
        <ele>185.8</ele>
        <time>2024-09-18T12:49:39Z</time>
      </trkpt>
      <trkpt lat="46.59145" lon="4.92188">
        <ele>185.8</ele>
        <time>2024-09-18T12:49:40Z</time>
      </trkpt>
      <trkpt lat="46.59141" lon="4.92183">
        <ele>185.8</ele>
        <time>2024-09-18T12:49:41Z</time>
      </trkpt>
      <trkpt lat="46.59137" lon="4.92178">
        <ele>186</ele>
        <time>2024-09-18T12:49:42Z</time>
      </trkpt>
      <trkpt lat="46.59134" lon="4.92173">
        <ele>186</ele>
        <time>2024-09-18T12:49:43Z</time>
      </trkpt>
      <trkpt lat="46.5913" lon="4.92168">
        <ele>186</ele>
        <time>2024-09-18T12:49:44Z</time>
      </trkpt>
      <trkpt lat="46.59126" lon="4.92164">
        <ele>186</ele>
        <time>2024-09-18T12:49:45Z</time>
      </trkpt>
      <trkpt lat="46.59123" lon="4.92159">
        <ele>185.6</ele>
        <time>2024-09-18T12:49:46Z</time>
      </trkpt>
      <trkpt lat="46.59119" lon="4.92155">
        <ele>185.6</ele>
        <time>2024-09-18T12:49:47Z</time>
      </trkpt>
      <trkpt lat="46.59115" lon="4.92151">
        <ele>185.6</ele>
        <time>2024-09-18T12:49:48Z</time>
      </trkpt>
      <trkpt lat="46.59112" lon="4.92147">
        <ele>185.6</ele>
        <time>2024-09-18T12:49:49Z</time>
      </trkpt>
      <trkpt lat="46.59109" lon="4.92143">
        <ele>185.8</ele>
        <time>2024-09-18T12:49:50Z</time>
      </trkpt>
      <trkpt lat="46.59106" lon="4.92138">
        <ele>185.8</ele>
        <time>2024-09-18T12:49:51Z</time>
      </trkpt>
      <trkpt lat="46.59102" lon="4.92134">
        <ele>185.8</ele>
        <time>2024-09-18T12:49:52Z</time>
      </trkpt>
      <trkpt lat="46.59098" lon="4.92129">
        <ele>185.8</ele>
        <time>2024-09-18T12:49:53Z</time>
      </trkpt>
      <trkpt lat="46.59095" lon="4.92125">
        <ele>185.8</ele>
        <time>2024-09-18T12:49:54Z</time>
      </trkpt>
      <trkpt lat="46.59092" lon="4.92119">
        <ele>186.4</ele>
        <time>2024-09-18T12:49:55Z</time>
      </trkpt>
      <trkpt lat="46.59087" lon="4.92112">
        <ele>186.4</ele>
        <time>2024-09-18T12:49:56Z</time>
      </trkpt>
      <trkpt lat="46.59085" lon="4.92109">
        <ele>186.4</ele>
        <time>2024-09-18T12:49:57Z</time>
      </trkpt>
      <trkpt lat="46.59082" lon="4.92104">
        <ele>186.4</ele>
        <time>2024-09-18T12:49:58Z</time>
      </trkpt>
      <trkpt lat="46.59078" lon="4.92099">
        <ele>186</ele>
        <time>2024-09-18T12:49:59Z</time>
      </trkpt>
      <trkpt lat="46.59074" lon="4.92093">
        <ele>186</ele>
        <time>2024-09-18T12:50:00Z</time>
      </trkpt>
      <trkpt lat="46.59071" lon="4.92087">
        <ele>186</ele>
        <time>2024-09-18T12:50:01Z</time>
      </trkpt>
      <trkpt lat="46.59067" lon="4.92082">
        <ele>186</ele>
        <time>2024-09-18T12:50:02Z</time>
      </trkpt>
      <trkpt lat="46.59064" lon="4.92077">
        <ele>186</ele>
        <time>2024-09-18T12:50:03Z</time>
      </trkpt>
      <trkpt lat="46.59061" lon="4.92072">
        <ele>186</ele>
        <time>2024-09-18T12:50:04Z</time>
      </trkpt>
      <trkpt lat="46.59058" lon="4.92068">
        <ele>186.6</ele>
        <time>2024-09-18T12:50:05Z</time>
      </trkpt>
      <trkpt lat="46.59054" lon="4.92062">
        <ele>186.6</ele>
        <time>2024-09-18T12:50:06Z</time>
      </trkpt>
      <trkpt lat="46.59051" lon="4.92057">
        <ele>186.6</ele>
        <time>2024-09-18T12:50:07Z</time>
      </trkpt>
      <trkpt lat="46.59048" lon="4.92053">
        <ele>185.8</ele>
        <time>2024-09-18T12:50:08Z</time>
      </trkpt>
      <trkpt lat="46.59046" lon="4.92048">
        <ele>186</ele>
        <time>2024-09-18T12:50:09Z</time>
      </trkpt>
      <trkpt lat="46.59043" lon="4.92044">
        <ele>186</ele>
        <time>2024-09-18T12:50:10Z</time>
      </trkpt>
      <trkpt lat="46.5904" lon="4.92039">
        <ele>186</ele>
        <time>2024-09-18T12:50:11Z</time>
      </trkpt>
      <trkpt lat="46.59036" lon="4.92035">
        <ele>186</ele>
        <time>2024-09-18T12:50:12Z</time>
      </trkpt>
      <trkpt lat="46.59033" lon="4.92031">
        <ele>186</ele>
        <time>2024-09-18T12:50:13Z</time>
      </trkpt>
      <trkpt lat="46.5903" lon="4.92026">
        <ele>186</ele>
        <time>2024-09-18T12:50:14Z</time>
      </trkpt>
      <trkpt lat="46.59027" lon="4.92022">
        <ele>186</ele>
        <time>2024-09-18T12:50:15Z</time>
      </trkpt>
      <trkpt lat="46.59024" lon="4.92016">
        <ele>186</ele>
        <time>2024-09-18T12:50:16Z</time>
      </trkpt>
      <trkpt lat="46.59021" lon="4.92011">
        <ele>186</ele>
        <time>2024-09-18T12:50:17Z</time>
      </trkpt>
      <trkpt lat="46.59019" lon="4.92006">
        <ele>186.6</ele>
        <time>2024-09-18T12:50:18Z</time>
      </trkpt>
      <trkpt lat="46.59016" lon="4.92">
        <ele>186.6</ele>
        <time>2024-09-18T12:50:19Z</time>
      </trkpt>
      <trkpt lat="46.59013" lon="4.91994">
        <ele>186.6</ele>
        <time>2024-09-18T12:50:20Z</time>
      </trkpt>
      <trkpt lat="46.5901" lon="4.91988">
        <ele>186.2</ele>
        <time>2024-09-18T12:50:21Z</time>
      </trkpt>
      <trkpt lat="46.59007" lon="4.91983">
        <ele>186.2</ele>
        <time>2024-09-18T12:50:22Z</time>
      </trkpt>
      <trkpt lat="46.59005" lon="4.91977">
        <ele>186.2</ele>
        <time>2024-09-18T12:50:23Z</time>
      </trkpt>
      <trkpt lat="46.59002" lon="4.91972">
        <ele>186.2</ele>
        <time>2024-09-18T12:50:24Z</time>
      </trkpt>
      <trkpt lat="46.58999" lon="4.91966">
        <ele>186.2</ele>
        <time>2024-09-18T12:50:25Z</time>
      </trkpt>
      <trkpt lat="46.58996" lon="4.9196">
        <ele>186.2</ele>
        <time>2024-09-18T12:50:26Z</time>
      </trkpt>
      <trkpt lat="46.58993" lon="4.91954">
        <ele>186.2</ele>
        <time>2024-09-18T12:50:27Z</time>
      </trkpt>
      <trkpt lat="46.58991" lon="4.91948">
        <ele>186.2</ele>
        <time>2024-09-18T12:50:28Z</time>
      </trkpt>
      <trkpt lat="46.58988" lon="4.91942">
        <ele>186.2</ele>
        <time>2024-09-18T12:50:29Z</time>
      </trkpt>
      <trkpt lat="46.58985" lon="4.91936">
        <ele>186.2</ele>
        <time>2024-09-18T12:50:30Z</time>
      </trkpt>
      <trkpt lat="46.58982" lon="4.9193">
        <ele>185.8</ele>
        <time>2024-09-18T12:50:31Z</time>
      </trkpt>
      <trkpt lat="46.58979" lon="4.91924">
        <ele>185.8</ele>
        <time>2024-09-18T12:50:32Z</time>
      </trkpt>
      <trkpt lat="46.58975" lon="4.91919">
        <ele>185.8</ele>
        <time>2024-09-18T12:50:33Z</time>
      </trkpt>
      <trkpt lat="46.58972" lon="4.91913">
        <ele>186.2</ele>
        <time>2024-09-18T12:50:34Z</time>
      </trkpt>
      <trkpt lat="46.58969" lon="4.91908">
        <ele>186.6</ele>
        <time>2024-09-18T12:50:35Z</time>
      </trkpt>
      <trkpt lat="46.58965" lon="4.91903">
        <ele>186.6</ele>
        <time>2024-09-18T12:50:36Z</time>
      </trkpt>
      <trkpt lat="46.58962" lon="4.91899">
        <ele>186.6</ele>
        <time>2024-09-18T12:50:37Z</time>
      </trkpt>
      <trkpt lat="46.58959" lon="4.91895">
        <ele>186.6</ele>
        <time>2024-09-18T12:50:38Z</time>
      </trkpt>
      <trkpt lat="46.58956" lon="4.91891">
        <ele>186.4</ele>
        <time>2024-09-18T12:50:39Z</time>
      </trkpt>
      <trkpt lat="46.58953" lon="4.91887">
        <ele>186.4</ele>
        <time>2024-09-18T12:50:40Z</time>
      </trkpt>
      <trkpt lat="46.5895" lon="4.91883">
        <ele>185.8</ele>
        <time>2024-09-18T12:50:41Z</time>
      </trkpt>
      <trkpt lat="46.58947" lon="4.91879">
        <ele>185.8</ele>
        <time>2024-09-18T12:50:42Z</time>
      </trkpt>
      <trkpt lat="46.58943" lon="4.91876">
        <ele>185.8</ele>
        <time>2024-09-18T12:50:43Z</time>
      </trkpt>
      <trkpt lat="46.5894" lon="4.91873">
        <ele>186.6</ele>
        <time>2024-09-18T12:50:44Z</time>
      </trkpt>
      <trkpt lat="46.58937" lon="4.9187">
        <ele>186.6</ele>
        <time>2024-09-18T12:50:45Z</time>
      </trkpt>
      <trkpt lat="46.58934" lon="4.91867">
        <ele>186.6</ele>
        <time>2024-09-18T12:50:46Z</time>
      </trkpt>
      <trkpt lat="46.5893" lon="4.91864">
        <ele>186.6</ele>
        <time>2024-09-18T12:50:47Z</time>
      </trkpt>
      <trkpt lat="46.58927" lon="4.9186">
        <ele>186.6</ele>
        <time>2024-09-18T12:50:48Z</time>
      </trkpt>
      <trkpt lat="46.58923" lon="4.91857">
        <ele>186.2</ele>
        <time>2024-09-18T12:50:49Z</time>
      </trkpt>
      <trkpt lat="46.5892" lon="4.91853">
        <ele>186.2</ele>
        <time>2024-09-18T12:50:50Z</time>
      </trkpt>
      <trkpt lat="46.58916" lon="4.91849">
        <ele>186.2</ele>
        <time>2024-09-18T12:50:51Z</time>
      </trkpt>
      <trkpt lat="46.58912" lon="4.91845">
        <ele>186.2</ele>
        <time>2024-09-18T12:50:52Z</time>
      </trkpt>
      <trkpt lat="46.58908" lon="4.91841">
        <ele>186.2</ele>
        <time>2024-09-18T12:50:53Z</time>
      </trkpt>
      <trkpt lat="46.58904" lon="4.91837">
        <ele>186.2</ele>
        <time>2024-09-18T12:50:54Z</time>
      </trkpt>
      <trkpt lat="46.58901" lon="4.91833">
        <ele>186</ele>
        <time>2024-09-18T12:50:55Z</time>
      </trkpt>
      <trkpt lat="46.58898" lon="4.91829">
        <ele>186</ele>
        <time>2024-09-18T12:50:56Z</time>
      </trkpt>
      <trkpt lat="46.58894" lon="4.91824">
        <ele>186.2</ele>
        <time>2024-09-18T12:50:57Z</time>
      </trkpt>
      <trkpt lat="46.5889" lon="4.9182">
        <ele>186.2</ele>
        <time>2024-09-18T12:50:58Z</time>
      </trkpt>
      <trkpt lat="46.58886" lon="4.91817">
        <ele>186.2</ele>
        <time>2024-09-18T12:50:59Z</time>
      </trkpt>
      <trkpt lat="46.58882" lon="4.91813">
        <ele>186.2</ele>
        <time>2024-09-18T12:51:00Z</time>
      </trkpt>
      <trkpt lat="46.58878" lon="4.91808">
        <ele>186.2</ele>
        <time>2024-09-18T12:51:01Z</time>
      </trkpt>
      <trkpt lat="46.58874" lon="4.91804">
        <ele>186.2</ele>
        <time>2024-09-18T12:51:02Z</time>
      </trkpt>
      <trkpt lat="46.5887" lon="4.91801">
        <ele>186</ele>
        <time>2024-09-18T12:51:03Z</time>
      </trkpt>
      <trkpt lat="46.58866" lon="4.91797">
        <ele>186</ele>
        <time>2024-09-18T12:51:04Z</time>
      </trkpt>
      <trkpt lat="46.58862" lon="4.91793">
        <ele>186</ele>
        <time>2024-09-18T12:51:05Z</time>
      </trkpt>
      <trkpt lat="46.58859" lon="4.91789">
        <ele>186</ele>
        <time>2024-09-18T12:51:06Z</time>
      </trkpt>
      <trkpt lat="46.58855" lon="4.91785">
        <ele>186</ele>
        <time>2024-09-18T12:51:07Z</time>
      </trkpt>
      <trkpt lat="46.58852" lon="4.91781">
        <ele>186</ele>
        <time>2024-09-18T12:51:08Z</time>
      </trkpt>
      <trkpt lat="46.58848" lon="4.91777">
        <ele>186</ele>
        <time>2024-09-18T12:51:09Z</time>
      </trkpt>
      <trkpt lat="46.58845" lon="4.91773">
        <ele>186</ele>
        <time>2024-09-18T12:51:10Z</time>
      </trkpt>
      <trkpt lat="46.58841" lon="4.9177">
        <ele>186</ele>
        <time>2024-09-18T12:51:11Z</time>
      </trkpt>
      <trkpt lat="46.58837" lon="4.91766">
        <ele>186</ele>
        <time>2024-09-18T12:51:12Z</time>
      </trkpt>
      <trkpt lat="46.58834" lon="4.91762">
        <ele>186</ele>
        <time>2024-09-18T12:51:13Z</time>
      </trkpt>
      <trkpt lat="46.58831" lon="4.91759">
        <ele>186</ele>
        <time>2024-09-18T12:51:14Z</time>
      </trkpt>
      <trkpt lat="46.58828" lon="4.91756">
        <ele>186</ele>
        <time>2024-09-18T12:51:15Z</time>
      </trkpt>
      <trkpt lat="46.58824" lon="4.91753">
        <ele>186</ele>
        <time>2024-09-18T12:51:16Z</time>
      </trkpt>
      <trkpt lat="46.5882" lon="4.91749">
        <ele>185.8</ele>
        <time>2024-09-18T12:51:17Z</time>
      </trkpt>
      <trkpt lat="46.58817" lon="4.91745">
        <ele>185.8</ele>
        <time>2024-09-18T12:51:18Z</time>
      </trkpt>
      <trkpt lat="46.58813" lon="4.9174">
        <ele>185.8</ele>
        <time>2024-09-18T12:51:19Z</time>
      </trkpt>
      <trkpt lat="46.58809" lon="4.91736">
        <ele>186.2</ele>
        <time>2024-09-18T12:51:20Z</time>
      </trkpt>
      <trkpt lat="46.58805" lon="4.91732">
        <ele>186.2</ele>
        <time>2024-09-18T12:51:21Z</time>
      </trkpt>
      <trkpt lat="46.58802" lon="4.91728">
        <ele>186.2</ele>
        <time>2024-09-18T12:51:22Z</time>
      </trkpt>
      <trkpt lat="46.58798" lon="4.91724">
        <ele>186.2</ele>
        <time>2024-09-18T12:51:23Z</time>
      </trkpt>
      <trkpt lat="46.58795" lon="4.9172">
        <ele>186.2</ele>
        <time>2024-09-18T12:51:24Z</time>
      </trkpt>
      <trkpt lat="46.58791" lon="4.91716">
        <ele>186.2</ele>
        <time>2024-09-18T12:51:25Z</time>
      </trkpt>
      <trkpt lat="46.58788" lon="4.91712">
        <ele>186</ele>
        <time>2024-09-18T12:51:26Z</time>
      </trkpt>
      <trkpt lat="46.58784" lon="4.91708">
        <ele>186</ele>
        <time>2024-09-18T12:51:27Z</time>
      </trkpt>
      <trkpt lat="46.5878" lon="4.91704">
        <ele>186</ele>
        <time>2024-09-18T12:51:28Z</time>
      </trkpt>
      <trkpt lat="46.58777" lon="4.917">
        <ele>186</ele>
        <time>2024-09-18T12:51:29Z</time>
      </trkpt>
      <trkpt lat="46.58773" lon="4.91695">
        <ele>186</ele>
        <time>2024-09-18T12:51:30Z</time>
      </trkpt>
      <trkpt lat="46.58769" lon="4.91691">
        <ele>186</ele>
        <time>2024-09-18T12:51:31Z</time>
      </trkpt>
      <trkpt lat="46.58766" lon="4.91687">
        <ele>186</ele>
        <time>2024-09-18T12:51:32Z</time>
      </trkpt>
      <trkpt lat="46.58762" lon="4.91683">
        <ele>186</ele>
        <time>2024-09-18T12:51:33Z</time>
      </trkpt>
      <trkpt lat="46.58758" lon="4.91678">
        <ele>186</ele>
        <time>2024-09-18T12:51:34Z</time>
      </trkpt>
      <trkpt lat="46.58754" lon="4.91674">
        <ele>186.2</ele>
        <time>2024-09-18T12:51:35Z</time>
      </trkpt>
      <trkpt lat="46.58751" lon="4.9167">
        <ele>186.2</ele>
        <time>2024-09-18T12:51:36Z</time>
      </trkpt>
      <trkpt lat="46.58747" lon="4.91666">
        <ele>186.2</ele>
        <time>2024-09-18T12:51:37Z</time>
      </trkpt>
      <trkpt lat="46.58743" lon="4.91663">
        <ele>186.2</ele>
        <time>2024-09-18T12:51:38Z</time>
      </trkpt>
      <trkpt lat="46.5874" lon="4.91659">
        <ele>185.6</ele>
        <time>2024-09-18T12:51:39Z</time>
      </trkpt>
      <trkpt lat="46.58736" lon="4.91655">
        <ele>185.6</ele>
        <time>2024-09-18T12:51:40Z</time>
      </trkpt>
      <trkpt lat="46.58732" lon="4.91651">
        <ele>185.6</ele>
        <time>2024-09-18T12:51:41Z</time>
      </trkpt>
      <trkpt lat="46.58728" lon="4.91647">
        <ele>185.6</ele>
        <time>2024-09-18T12:51:42Z</time>
      </trkpt>
      <trkpt lat="46.58725" lon="4.91643">
        <ele>186</ele>
        <time>2024-09-18T12:51:43Z</time>
      </trkpt>
      <trkpt lat="46.58721" lon="4.91639">
        <ele>186</ele>
        <time>2024-09-18T12:51:44Z</time>
      </trkpt>
      <trkpt lat="46.58718" lon="4.91635">
        <ele>186</ele>
        <time>2024-09-18T12:51:45Z</time>
      </trkpt>
      <trkpt lat="46.58714" lon="4.91631">
        <ele>186</ele>
        <time>2024-09-18T12:51:46Z</time>
      </trkpt>
      <trkpt lat="46.5871" lon="4.91627">
        <ele>186</ele>
        <time>2024-09-18T12:51:47Z</time>
      </trkpt>
      <trkpt lat="46.58706" lon="4.91623">
        <ele>186.4</ele>
        <time>2024-09-18T12:51:48Z</time>
      </trkpt>
      <trkpt lat="46.58703" lon="4.91619">
        <ele>186.4</ele>
        <time>2024-09-18T12:51:49Z</time>
      </trkpt>
      <trkpt lat="46.58699" lon="4.91615">
        <ele>186.4</ele>
        <time>2024-09-18T12:51:50Z</time>
      </trkpt>
      <trkpt lat="46.58695" lon="4.91611">
        <ele>186.4</ele>
        <time>2024-09-18T12:51:51Z</time>
      </trkpt>
      <trkpt lat="46.58691" lon="4.91607">
        <ele>186.2</ele>
        <time>2024-09-18T12:51:52Z</time>
      </trkpt>
      <trkpt lat="46.58687" lon="4.91603">
        <ele>186.2</ele>
        <time>2024-09-18T12:51:53Z</time>
      </trkpt>
      <trkpt lat="46.58683" lon="4.916">
        <ele>186.2</ele>
        <time>2024-09-18T12:51:54Z</time>
      </trkpt>
      <trkpt lat="46.58679" lon="4.91596">
        <ele>186.2</ele>
        <time>2024-09-18T12:51:55Z</time>
      </trkpt>
      <trkpt lat="46.58675" lon="4.91592">
        <ele>185.8</ele>
        <time>2024-09-18T12:51:56Z</time>
      </trkpt>
      <trkpt lat="46.58671" lon="4.91588">
        <ele>185.8</ele>
        <time>2024-09-18T12:51:57Z</time>
      </trkpt>
      <trkpt lat="46.58667" lon="4.91584">
        <ele>185.8</ele>
        <time>2024-09-18T12:51:58Z</time>
      </trkpt>
      <trkpt lat="46.58663" lon="4.9158">
        <ele>185.8</ele>
        <time>2024-09-18T12:51:59Z</time>
      </trkpt>
      <trkpt lat="46.58659" lon="4.91577">
        <ele>185.8</ele>
        <time>2024-09-18T12:52:00Z</time>
      </trkpt>
      <trkpt lat="46.58655" lon="4.91573">
        <ele>186.2</ele>
        <time>2024-09-18T12:52:01Z</time>
      </trkpt>
      <trkpt lat="46.58651" lon="4.9157">
        <ele>186.2</ele>
        <time>2024-09-18T12:52:02Z</time>
      </trkpt>
      <trkpt lat="46.58647" lon="4.91566">
        <ele>186.2</ele>
        <time>2024-09-18T12:52:03Z</time>
      </trkpt>
      <trkpt lat="46.58643" lon="4.91563">
        <ele>186.2</ele>
        <time>2024-09-18T12:52:04Z</time>
      </trkpt>
      <trkpt lat="46.58639" lon="4.91559">
        <ele>186.2</ele>
        <time>2024-09-18T12:52:05Z</time>
      </trkpt>
      <trkpt lat="46.58634" lon="4.91556">
        <ele>186</ele>
        <time>2024-09-18T12:52:06Z</time>
      </trkpt>
      <trkpt lat="46.5863" lon="4.91552">
        <ele>186</ele>
        <time>2024-09-18T12:52:07Z</time>
      </trkpt>
      <trkpt lat="46.58626" lon="4.91549">
        <ele>186</ele>
        <time>2024-09-18T12:52:08Z</time>
      </trkpt>
      <trkpt lat="46.58622" lon="4.91547">
        <ele>186</ele>
        <time>2024-09-18T12:52:09Z</time>
      </trkpt>
      <trkpt lat="46.58618" lon="4.91544">
        <ele>186</ele>
        <time>2024-09-18T12:52:10Z</time>
      </trkpt>
      <trkpt lat="46.58615" lon="4.91542">
        <ele>186</ele>
        <time>2024-09-18T12:52:11Z</time>
      </trkpt>
      <trkpt lat="46.58611" lon="4.91539">
        <ele>186</ele>
        <time>2024-09-18T12:52:12Z</time>
      </trkpt>
      <trkpt lat="46.58607" lon="4.91536">
        <ele>186</ele>
        <time>2024-09-18T12:52:13Z</time>
      </trkpt>
      <trkpt lat="46.58604" lon="4.91534">
        <ele>186</ele>
        <time>2024-09-18T12:52:14Z</time>
      </trkpt>
      <trkpt lat="46.586" lon="4.91531">
        <ele>185.8</ele>
        <time>2024-09-18T12:52:15Z</time>
      </trkpt>
      <trkpt lat="46.58595" lon="4.91528">
        <ele>185.8</ele>
        <time>2024-09-18T12:52:16Z</time>
      </trkpt>
      <trkpt lat="46.58593" lon="4.91527">
        <ele>185.8</ele>
        <time>2024-09-18T12:52:17Z</time>
      </trkpt>
      <trkpt lat="46.58589" lon="4.91525">
        <ele>185.8</ele>
        <time>2024-09-18T12:52:18Z</time>
      </trkpt>
      <trkpt lat="46.58586" lon="4.91523">
        <ele>185.8</ele>
        <time>2024-09-18T12:52:19Z</time>
      </trkpt>
      <trkpt lat="46.58583" lon="4.91521">
        <ele>186</ele>
        <time>2024-09-18T12:52:20Z</time>
      </trkpt>
      <trkpt lat="46.5858" lon="4.9152">
        <ele>186</ele>
        <time>2024-09-18T12:52:21Z</time>
      </trkpt>
      <trkpt lat="46.58578" lon="4.9152">
        <ele>186</ele>
        <time>2024-09-18T12:52:22Z</time>
      </trkpt>
      <trkpt lat="46.58576" lon="4.91521">
        <ele>185.2</ele>
        <time>2024-09-18T12:52:23Z</time>
      </trkpt>
      <trkpt lat="46.58574" lon="4.91523">
        <ele>185.2</ele>
        <time>2024-09-18T12:52:24Z</time>
      </trkpt>
      <trkpt lat="46.58572" lon="4.91525">
        <ele>185.2</ele>
        <time>2024-09-18T12:52:25Z</time>
      </trkpt>
      <trkpt lat="46.58571" lon="4.91527">
        <ele>185.2</ele>
        <time>2024-09-18T12:52:26Z</time>
      </trkpt>
      <trkpt lat="46.5857" lon="4.91529">
        <ele>185.2</ele>
        <time>2024-09-18T12:52:27Z</time>
      </trkpt>
      <trkpt lat="46.58569" lon="4.91529">
        <ele>184.6</ele>
        <time>2024-09-18T12:52:28Z</time>
      </trkpt>
      <trkpt lat="46.58569" lon="4.9153">
        <ele>184.4</ele>
        <time>2024-09-18T12:52:29Z</time>
      </trkpt>
      <trkpt lat="46.58569" lon="4.9153">
        <ele>184.4</ele>
        <time>2024-09-18T12:52:30Z</time>
      </trkpt>
      <trkpt lat="46.58569" lon="4.9153">
        <ele>184.4</ele>
        <time>2024-09-18T12:52:31Z</time>
      </trkpt>
      <trkpt lat="46.58571" lon="4.91532">
        <ele>183.4</ele>
        <time>2024-09-18T12:52:45Z</time>
      </trkpt>
      <trkpt lat="46.58572" lon="4.91533">
        <ele>183.4</ele>
        <time>2024-09-18T12:52:46Z</time>
      </trkpt>
      <trkpt lat="46.58573" lon="4.91533">
        <ele>183.4</ele>
        <time>2024-09-18T12:52:47Z</time>
      </trkpt>
      <trkpt lat="46.58574" lon="4.91533">
        <ele>183.4</ele>
        <time>2024-09-18T12:52:48Z</time>
      </trkpt>
      <trkpt lat="46.58576" lon="4.91532">
        <ele>184</ele>
        <time>2024-09-18T12:52:49Z</time>
      </trkpt>
      <trkpt lat="46.58577" lon="4.91532">
        <ele>184</ele>
        <time>2024-09-18T12:52:50Z</time>
      </trkpt>
      <trkpt lat="46.58577" lon="4.91531">
        <ele>183.8</ele>
        <time>2024-09-18T12:52:51Z</time>
      </trkpt>
      <trkpt lat="46.58577" lon="4.9153">
        <ele>183.8</ele>
        <time>2024-09-18T12:52:52Z</time>
      </trkpt>
      <trkpt lat="46.58577" lon="4.91529">
        <ele>184.2</ele>
        <time>2024-09-18T12:52:53Z</time>
      </trkpt>
      <trkpt lat="46.58577" lon="4.91529">
        <ele>184.2</ele>
        <time>2024-09-18T12:52:54Z</time>
      </trkpt>
      <trkpt lat="46.58576" lon="4.91527">
        <ele>185</ele>
        <time>2024-09-18T12:55:05Z</time>
      </trkpt>
      <trkpt lat="46.58575" lon="4.91526">
        <ele>185</ele>
        <time>2024-09-18T12:55:06Z</time>
      </trkpt>
      <trkpt lat="46.58574" lon="4.91525">
        <ele>185</ele>
        <time>2024-09-18T12:55:07Z</time>
      </trkpt>
      <trkpt lat="46.58574" lon="4.91524">
        <ele>185</ele>
        <time>2024-09-18T12:55:08Z</time>
      </trkpt>
      <trkpt lat="46.58573" lon="4.91523">
        <ele>185</ele>
        <time>2024-09-18T12:55:09Z</time>
      </trkpt>
      <trkpt lat="46.58573" lon="4.91523">
        <ele>185</ele>
        <time>2024-09-18T12:55:10Z</time>
      </trkpt>
      <trkpt lat="46.58573" lon="4.91523">
        <ele>185</ele>
        <time>2024-09-18T12:55:11Z</time>
      </trkpt>
      <trkpt lat="46.58572" lon="4.91518">
        <ele>185.8</ele>
        <time>2024-09-18T12:59:07Z</time>
      </trkpt>
      <trkpt lat="46.58571" lon="4.91517">
        <ele>185.8</ele>
        <time>2024-09-18T12:59:08Z</time>
      </trkpt>
      <trkpt lat="46.5857" lon="4.91516">
        <ele>185.8</ele>
        <time>2024-09-18T12:59:09Z</time>
      </trkpt>
      <trkpt lat="46.58569" lon="4.91515">
        <ele>185.8</ele>
        <time>2024-09-18T12:59:10Z</time>
      </trkpt>
      <trkpt lat="46.58567" lon="4.91514">
        <ele>185.8</ele>
        <time>2024-09-18T12:59:11Z</time>
      </trkpt>
      <trkpt lat="46.58565" lon="4.91512">
        <ele>185.8</ele>
        <time>2024-09-18T12:59:12Z</time>
      </trkpt>
      <trkpt lat="46.58564" lon="4.91511">
        <ele>185.8</ele>
        <time>2024-09-18T12:59:13Z</time>
      </trkpt>
      <trkpt lat="46.58563" lon="4.91509">
        <ele>185.8</ele>
        <time>2024-09-18T12:59:14Z</time>
      </trkpt>
      <trkpt lat="46.58561" lon="4.91507">
        <ele>186</ele>
        <time>2024-09-18T12:59:15Z</time>
      </trkpt>
      <trkpt lat="46.5856" lon="4.91505">
        <ele>186</ele>
        <time>2024-09-18T12:59:16Z</time>
      </trkpt>
      <trkpt lat="46.58558" lon="4.91504">
        <ele>186</ele>
        <time>2024-09-18T12:59:17Z</time>
      </trkpt>
      <trkpt lat="46.58556" lon="4.91503">
        <ele>186</ele>
        <time>2024-09-18T12:59:18Z</time>
      </trkpt>
      <trkpt lat="46.58554" lon="4.91501">
        <ele>186</ele>
        <time>2024-09-18T12:59:19Z</time>
      </trkpt>
      <trkpt lat="46.58551" lon="4.915">
        <ele>186</ele>
        <time>2024-09-18T12:59:20Z</time>
      </trkpt>
      <trkpt lat="46.58549" lon="4.91498">
        <ele>186</ele>
        <time>2024-09-18T12:59:21Z</time>
      </trkpt>
      <trkpt lat="46.58547" lon="4.91497">
        <ele>186</ele>
        <time>2024-09-18T12:59:22Z</time>
      </trkpt>
      <trkpt lat="46.58545" lon="4.91495">
        <ele>186</ele>
        <time>2024-09-18T12:59:23Z</time>
      </trkpt>
      <trkpt lat="46.58543" lon="4.91494">
        <ele>186</ele>
        <time>2024-09-18T12:59:24Z</time>
      </trkpt>
      <trkpt lat="46.58541" lon="4.91492">
        <ele>186.2</ele>
        <time>2024-09-18T12:59:25Z</time>
      </trkpt>
      <trkpt lat="46.58538" lon="4.9149">
        <ele>186.2</ele>
        <time>2024-09-18T12:59:26Z</time>
      </trkpt>
      <trkpt lat="46.58536" lon="4.91488">
        <ele>186.2</ele>
        <time>2024-09-18T12:59:27Z</time>
      </trkpt>
      <trkpt lat="46.58533" lon="4.91486">
        <ele>186</ele>
        <time>2024-09-18T12:59:28Z</time>
      </trkpt>
      <trkpt lat="46.58531" lon="4.91483">
        <ele>186</ele>
        <time>2024-09-18T12:59:29Z</time>
      </trkpt>
      <trkpt lat="46.58529" lon="4.91481">
        <ele>186</ele>
        <time>2024-09-18T12:59:30Z</time>
      </trkpt>
      <trkpt lat="46.58526" lon="4.91478">
        <ele>186</ele>
        <time>2024-09-18T12:59:31Z</time>
      </trkpt>
      <trkpt lat="46.58524" lon="4.91476">
        <ele>186</ele>
        <time>2024-09-18T12:59:32Z</time>
      </trkpt>
      <trkpt lat="46.58522" lon="4.91473">
        <ele>186.2</ele>
        <time>2024-09-18T12:59:33Z</time>
      </trkpt>
      <trkpt lat="46.58519" lon="4.91472">
        <ele>186.2</ele>
        <time>2024-09-18T12:59:34Z</time>
      </trkpt>
      <trkpt lat="46.58517" lon="4.91471">
        <ele>186.2</ele>
        <time>2024-09-18T12:59:35Z</time>
      </trkpt>
      <trkpt lat="46.58515" lon="4.91471">
        <ele>186.2</ele>
        <time>2024-09-18T12:59:36Z</time>
      </trkpt>
      <trkpt lat="46.58512" lon="4.91469">
        <ele>186.2</ele>
        <time>2024-09-18T12:59:37Z</time>
      </trkpt>
      <trkpt lat="46.58509" lon="4.91468">
        <ele>186.2</ele>
        <time>2024-09-18T12:59:38Z</time>
      </trkpt>
      <trkpt lat="46.58505" lon="4.91467">
        <ele>186</ele>
        <time>2024-09-18T12:59:39Z</time>
      </trkpt>
      <trkpt lat="46.58502" lon="4.91465">
        <ele>186</ele>
        <time>2024-09-18T12:59:40Z</time>
      </trkpt>
      <trkpt lat="46.58499" lon="4.91463">
        <ele>186</ele>
        <time>2024-09-18T12:59:41Z</time>
      </trkpt>
      <trkpt lat="46.58495" lon="4.91462">
        <ele>186</ele>
        <time>2024-09-18T12:59:42Z</time>
      </trkpt>
      <trkpt lat="46.58492" lon="4.9146">
        <ele>185.8</ele>
        <time>2024-09-18T12:59:43Z</time>
      </trkpt>
      <trkpt lat="46.58488" lon="4.91458">
        <ele>185.8</ele>
        <time>2024-09-18T12:59:44Z</time>
      </trkpt>
      <trkpt lat="46.58485" lon="4.91455">
        <ele>185.8</ele>
        <time>2024-09-18T12:59:45Z</time>
      </trkpt>
      <trkpt lat="46.58479" lon="4.91451">
        <ele>186</ele>
        <time>2024-09-18T12:59:46Z</time>
      </trkpt>
      <trkpt lat="46.58477" lon="4.9145">
        <ele>186</ele>
        <time>2024-09-18T12:59:47Z</time>
      </trkpt>
      <trkpt lat="46.58473" lon="4.91447">
        <ele>186</ele>
        <time>2024-09-18T12:59:48Z</time>
      </trkpt>
      <trkpt lat="46.58469" lon="4.91445">
        <ele>186</ele>
        <time>2024-09-18T12:59:49Z</time>
      </trkpt>
      <trkpt lat="46.58465" lon="4.91442">
        <ele>186</ele>
        <time>2024-09-18T12:59:50Z</time>
      </trkpt>
      <trkpt lat="46.58461" lon="4.91439">
        <ele>186</ele>
        <time>2024-09-18T12:59:51Z</time>
      </trkpt>
      <trkpt lat="46.58456" lon="4.91437">
        <ele>186.2</ele>
        <time>2024-09-18T12:59:52Z</time>
      </trkpt>
      <trkpt lat="46.58452" lon="4.91434">
        <ele>186.2</ele>
        <time>2024-09-18T12:59:53Z</time>
      </trkpt>
      <trkpt lat="46.58448" lon="4.91431">
        <ele>186.2</ele>
        <time>2024-09-18T12:59:54Z</time>
      </trkpt>
      <trkpt lat="46.58444" lon="4.91428">
        <ele>186.2</ele>
        <time>2024-09-18T12:59:55Z</time>
      </trkpt>
      <trkpt lat="46.5844" lon="4.91426">
        <ele>186.2</ele>
        <time>2024-09-18T12:59:56Z</time>
      </trkpt>
      <trkpt lat="46.58436" lon="4.91423">
        <ele>186.2</ele>
        <time>2024-09-18T12:59:57Z</time>
      </trkpt>
      <trkpt lat="46.58432" lon="4.9142">
        <ele>186.2</ele>
        <time>2024-09-18T12:59:58Z</time>
      </trkpt>
      <trkpt lat="46.58427" lon="4.91417">
        <ele>186.2</ele>
        <time>2024-09-18T12:59:59Z</time>
      </trkpt>
      <trkpt lat="46.58423" lon="4.91414">
        <ele>186</ele>
        <time>2024-09-18T13:00:00Z</time>
      </trkpt>
      <trkpt lat="46.58419" lon="4.91411">
        <ele>186.2</ele>
        <time>2024-09-18T13:00:01Z</time>
      </trkpt>
      <trkpt lat="46.58415" lon="4.91408">
        <ele>186.2</ele>
        <time>2024-09-18T13:00:02Z</time>
      </trkpt>
      <trkpt lat="46.5841" lon="4.91405">
        <ele>186.2</ele>
        <time>2024-09-18T13:00:03Z</time>
      </trkpt>
      <trkpt lat="46.58406" lon="4.91401">
        <ele>186.2</ele>
        <time>2024-09-18T13:00:04Z</time>
      </trkpt>
      <trkpt lat="46.58402" lon="4.91398">
        <ele>186.2</ele>
        <time>2024-09-18T13:00:05Z</time>
      </trkpt>
      <trkpt lat="46.58398" lon="4.91395">
        <ele>186.2</ele>
        <time>2024-09-18T13:00:06Z</time>
      </trkpt>
      <trkpt lat="46.58393" lon="4.91392">
        <ele>186.2</ele>
        <time>2024-09-18T13:00:07Z</time>
      </trkpt>
      <trkpt lat="46.58389" lon="4.91389">
        <ele>186.2</ele>
        <time>2024-09-18T13:00:08Z</time>
      </trkpt>
      <trkpt lat="46.58385" lon="4.91386">
        <ele>186.2</ele>
        <time>2024-09-18T13:00:09Z</time>
      </trkpt>
      <trkpt lat="46.58381" lon="4.91383">
        <ele>186.2</ele>
        <time>2024-09-18T13:00:10Z</time>
      </trkpt>
      <trkpt lat="46.58377" lon="4.9138">
        <ele>186.2</ele>
        <time>2024-09-18T13:00:11Z</time>
      </trkpt>
      <trkpt lat="46.58373" lon="4.91377">
        <ele>186.2</ele>
        <time>2024-09-18T13:00:12Z</time>
      </trkpt>
      <trkpt lat="46.58369" lon="4.91374">
        <ele>186.4</ele>
        <time>2024-09-18T13:00:13Z</time>
      </trkpt>
      <trkpt lat="46.58365" lon="4.91371">
        <ele>186.2</ele>
        <time>2024-09-18T13:00:14Z</time>
      </trkpt>
      <trkpt lat="46.58361" lon="4.91368">
        <ele>186.2</ele>
        <time>2024-09-18T13:00:15Z</time>
      </trkpt>
      <trkpt lat="46.58356" lon="4.91365">
        <ele>186.2</ele>
        <time>2024-09-18T13:00:16Z</time>
      </trkpt>
      <trkpt lat="46.58352" lon="4.91362">
        <ele>186.2</ele>
        <time>2024-09-18T13:00:17Z</time>
      </trkpt>
      <trkpt lat="46.58348" lon="4.91359">
        <ele>186.2</ele>
        <time>2024-09-18T13:00:18Z</time>
      </trkpt>
      <trkpt lat="46.58344" lon="4.91356">
        <ele>186.4</ele>
        <time>2024-09-18T13:00:19Z</time>
      </trkpt>
      <trkpt lat="46.58339" lon="4.91353">
        <ele>186.4</ele>
        <time>2024-09-18T13:00:20Z</time>
      </trkpt>
      <trkpt lat="46.58335" lon="4.9135">
        <ele>186.4</ele>
        <time>2024-09-18T13:00:21Z</time>
      </trkpt>
      <trkpt lat="46.58331" lon="4.91347">
        <ele>186.4</ele>
        <time>2024-09-18T13:00:22Z</time>
      </trkpt>
      <trkpt lat="46.58326" lon="4.91344">
        <ele>186.4</ele>
        <time>2024-09-18T13:00:23Z</time>
      </trkpt>
      <trkpt lat="46.58322" lon="4.91341">
        <ele>186.2</ele>
        <time>2024-09-18T13:00:24Z</time>
      </trkpt>
      <trkpt lat="46.58318" lon="4.91338">
        <ele>186.2</ele>
        <time>2024-09-18T13:00:25Z</time>
      </trkpt>
      <trkpt lat="46.58313" lon="4.91335">
        <ele>186.2</ele>
        <time>2024-09-18T13:00:26Z</time>
      </trkpt>
      <trkpt lat="46.58309" lon="4.91333">
        <ele>186.4</ele>
        <time>2024-09-18T13:00:27Z</time>
      </trkpt>
      <trkpt lat="46.58305" lon="4.9133">
        <ele>186.6</ele>
        <time>2024-09-18T13:00:28Z</time>
      </trkpt>
      <trkpt lat="46.583" lon="4.91327">
        <ele>186.6</ele>
        <time>2024-09-18T13:00:29Z</time>
      </trkpt>
      <trkpt lat="46.58296" lon="4.91324">
        <ele>186.6</ele>
        <time>2024-09-18T13:00:30Z</time>
      </trkpt>
      <trkpt lat="46.58292" lon="4.91321">
        <ele>186.6</ele>
        <time>2024-09-18T13:00:31Z</time>
      </trkpt>
      <trkpt lat="46.58287" lon="4.91318">
        <ele>186.4</ele>
        <time>2024-09-18T13:00:32Z</time>
      </trkpt>
      <trkpt lat="46.58283" lon="4.91315">
        <ele>186.4</ele>
        <time>2024-09-18T13:00:33Z</time>
      </trkpt>
      <trkpt lat="46.58278" lon="4.91312">
        <ele>186.4</ele>
        <time>2024-09-18T13:00:34Z</time>
      </trkpt>
      <trkpt lat="46.58274" lon="4.9131">
        <ele>186.4</ele>
        <time>2024-09-18T13:00:35Z</time>
      </trkpt>
      <trkpt lat="46.58269" lon="4.91307">
        <ele>186.4</ele>
        <time>2024-09-18T13:00:36Z</time>
      </trkpt>
      <trkpt lat="46.58265" lon="4.91304">
        <ele>186.4</ele>
        <time>2024-09-18T13:00:37Z</time>
      </trkpt>
      <trkpt lat="46.5826" lon="4.91302">
        <ele>186.4</ele>
        <time>2024-09-18T13:00:38Z</time>
      </trkpt>
      <trkpt lat="46.58256" lon="4.91299">
        <ele>186.4</ele>
        <time>2024-09-18T13:00:39Z</time>
      </trkpt>
      <trkpt lat="46.58251" lon="4.91297">
        <ele>186.4</ele>
        <time>2024-09-18T13:00:40Z</time>
      </trkpt>
      <trkpt lat="46.58246" lon="4.91294">
        <ele>186.4</ele>
        <time>2024-09-18T13:00:41Z</time>
      </trkpt>
      <trkpt lat="46.58242" lon="4.91292">
        <ele>186.4</ele>
        <time>2024-09-18T13:00:42Z</time>
      </trkpt>
      <trkpt lat="46.58237" lon="4.91289">
        <ele>186.4</ele>
        <time>2024-09-18T13:00:43Z</time>
      </trkpt>
      <trkpt lat="46.58232" lon="4.91287">
        <ele>186.4</ele>
        <time>2024-09-18T13:00:44Z</time>
      </trkpt>
      <trkpt lat="46.58228" lon="4.91284">
        <ele>186.4</ele>
        <time>2024-09-18T13:00:45Z</time>
      </trkpt>
      <trkpt lat="46.58223" lon="4.91281">
        <ele>186.4</ele>
        <time>2024-09-18T13:00:46Z</time>
      </trkpt>
      <trkpt lat="46.58218" lon="4.91279">
        <ele>186.4</ele>
        <time>2024-09-18T13:00:47Z</time>
      </trkpt>
      <trkpt lat="46.58214" lon="4.91276">
        <ele>186.4</ele>
        <time>2024-09-18T13:00:48Z</time>
      </trkpt>
      <trkpt lat="46.58209" lon="4.91274">
        <ele>186.4</ele>
        <time>2024-09-18T13:00:49Z</time>
      </trkpt>
      <trkpt lat="46.58205" lon="4.91271">
        <ele>186.2</ele>
        <time>2024-09-18T13:00:50Z</time>
      </trkpt>
      <trkpt lat="46.582" lon="4.91269">
        <ele>186.2</ele>
        <time>2024-09-18T13:00:51Z</time>
      </trkpt>
      <trkpt lat="46.58196" lon="4.91267">
        <ele>186.2</ele>
        <time>2024-09-18T13:00:52Z</time>
      </trkpt>
      <trkpt lat="46.58191" lon="4.91264">
        <ele>186.2</ele>
        <time>2024-09-18T13:00:53Z</time>
      </trkpt>
      <trkpt lat="46.58187" lon="4.91262">
        <ele>186.6</ele>
        <time>2024-09-18T13:00:54Z</time>
      </trkpt>
      <trkpt lat="46.58182" lon="4.91259">
        <ele>186.6</ele>
        <time>2024-09-18T13:00:55Z</time>
      </trkpt>
      <trkpt lat="46.58178" lon="4.91257">
        <ele>186.6</ele>
        <time>2024-09-18T13:00:56Z</time>
      </trkpt>
      <trkpt lat="46.58173" lon="4.91254">
        <ele>186.6</ele>
        <time>2024-09-18T13:00:57Z</time>
      </trkpt>
      <trkpt lat="46.58169" lon="4.91252">
        <ele>186.4</ele>
        <time>2024-09-18T13:00:58Z</time>
      </trkpt>
      <trkpt lat="46.58164" lon="4.91249">
        <ele>186.4</ele>
        <time>2024-09-18T13:00:59Z</time>
      </trkpt>
      <trkpt lat="46.5816" lon="4.91247">
        <ele>186.4</ele>
        <time>2024-09-18T13:01:00Z</time>
      </trkpt>
      <trkpt lat="46.58155" lon="4.91245">
        <ele>186.4</ele>
        <time>2024-09-18T13:01:01Z</time>
      </trkpt>
      <trkpt lat="46.58151" lon="4.91242">
        <ele>186.4</ele>
        <time>2024-09-18T13:01:02Z</time>
      </trkpt>
      <trkpt lat="46.58146" lon="4.9124">
        <ele>186.6</ele>
        <time>2024-09-18T13:01:03Z</time>
      </trkpt>
      <trkpt lat="46.58142" lon="4.91238">
        <ele>186.6</ele>
        <time>2024-09-18T13:01:04Z</time>
      </trkpt>
      <trkpt lat="46.58137" lon="4.91235">
        <ele>186.6</ele>
        <time>2024-09-18T13:01:05Z</time>
      </trkpt>
      <trkpt lat="46.58133" lon="4.91233">
        <ele>186.6</ele>
        <time>2024-09-18T13:01:06Z</time>
      </trkpt>
      <trkpt lat="46.58129" lon="4.91231">
        <ele>186.6</ele>
        <time>2024-09-18T13:01:07Z</time>
      </trkpt>
      <trkpt lat="46.58124" lon="4.91229">
        <ele>186.6</ele>
        <time>2024-09-18T13:01:08Z</time>
      </trkpt>
      <trkpt lat="46.5812" lon="4.91227">
        <ele>186.8</ele>
        <time>2024-09-18T13:01:09Z</time>
      </trkpt>
      <trkpt lat="46.58115" lon="4.91225">
        <ele>186.8</ele>
        <time>2024-09-18T13:01:10Z</time>
      </trkpt>
      <trkpt lat="46.58111" lon="4.91222">
        <ele>186.8</ele>
        <time>2024-09-18T13:01:11Z</time>
      </trkpt>
      <trkpt lat="46.58107" lon="4.9122">
        <ele>187</ele>
        <time>2024-09-18T13:01:12Z</time>
      </trkpt>
      <trkpt lat="46.58102" lon="4.91219">
        <ele>187</ele>
        <time>2024-09-18T13:01:13Z</time>
      </trkpt>
      <trkpt lat="46.58098" lon="4.91217">
        <ele>187</ele>
        <time>2024-09-18T13:01:14Z</time>
      </trkpt>
      <trkpt lat="46.58093" lon="4.91215">
        <ele>187</ele>
        <time>2024-09-18T13:01:15Z</time>
      </trkpt>
      <trkpt lat="46.58089" lon="4.91214">
        <ele>187</ele>
        <time>2024-09-18T13:01:16Z</time>
      </trkpt>
      <trkpt lat="46.58085" lon="4.91213">
        <ele>187</ele>
        <time>2024-09-18T13:01:17Z</time>
      </trkpt>
      <trkpt lat="46.5808" lon="4.91211">
        <ele>187</ele>
        <time>2024-09-18T13:01:18Z</time>
      </trkpt>
      <trkpt lat="46.58076" lon="4.9121">
        <ele>187</ele>
        <time>2024-09-18T13:01:19Z</time>
      </trkpt>
      <trkpt lat="46.58071" lon="4.91209">
        <ele>187</ele>
        <time>2024-09-18T13:01:20Z</time>
      </trkpt>
      <trkpt lat="46.58066" lon="4.91208">
        <ele>187</ele>
        <time>2024-09-18T13:01:21Z</time>
      </trkpt>
      <trkpt lat="46.58061" lon="4.91206">
        <ele>186.8</ele>
        <time>2024-09-18T13:01:22Z</time>
      </trkpt>
      <trkpt lat="46.58056" lon="4.91205">
        <ele>186.8</ele>
        <time>2024-09-18T13:01:23Z</time>
      </trkpt>
      <trkpt lat="46.58052" lon="4.91204">
        <ele>186.8</ele>
        <time>2024-09-18T13:01:24Z</time>
      </trkpt>
      <trkpt lat="46.58047" lon="4.91202">
        <ele>186.8</ele>
        <time>2024-09-18T13:01:25Z</time>
      </trkpt>
      <trkpt lat="46.58042" lon="4.91201">
        <ele>187</ele>
        <time>2024-09-18T13:01:26Z</time>
      </trkpt>
      <trkpt lat="46.58037" lon="4.912">
        <ele>187</ele>
        <time>2024-09-18T13:01:27Z</time>
      </trkpt>
      <trkpt lat="46.58032" lon="4.91199">
        <ele>187</ele>
        <time>2024-09-18T13:01:28Z</time>
      </trkpt>
      <trkpt lat="46.58027" lon="4.91198">
        <ele>187</ele>
        <time>2024-09-18T13:01:29Z</time>
      </trkpt>
      <trkpt lat="46.58023" lon="4.91197">
        <ele>187</ele>
        <time>2024-09-18T13:01:30Z</time>
      </trkpt>
      <trkpt lat="46.58018" lon="4.91197">
        <ele>187</ele>
        <time>2024-09-18T13:01:31Z</time>
      </trkpt>
      <trkpt lat="46.58013" lon="4.91196">
        <ele>187</ele>
        <time>2024-09-18T13:01:32Z</time>
      </trkpt>
      <trkpt lat="46.58008" lon="4.91196">
        <ele>187</ele>
        <time>2024-09-18T13:01:33Z</time>
      </trkpt>
      <trkpt lat="46.58003" lon="4.91196">
        <ele>187</ele>
        <time>2024-09-18T13:01:34Z</time>
      </trkpt>
      <trkpt lat="46.57999" lon="4.91195">
        <ele>186.8</ele>
        <time>2024-09-18T13:01:35Z</time>
      </trkpt>
      <trkpt lat="46.57994" lon="4.91195">
        <ele>186.8</ele>
        <time>2024-09-18T13:01:36Z</time>
      </trkpt>
      <trkpt lat="46.57989" lon="4.91195">
        <ele>186.8</ele>
        <time>2024-09-18T13:01:37Z</time>
      </trkpt>
      <trkpt lat="46.57984" lon="4.91195">
        <ele>186.8</ele>
        <time>2024-09-18T13:01:38Z</time>
      </trkpt>
      <trkpt lat="46.5798" lon="4.91196">
        <ele>187</ele>
        <time>2024-09-18T13:01:39Z</time>
      </trkpt>
      <trkpt lat="46.57975" lon="4.91195">
        <ele>187</ele>
        <time>2024-09-18T13:01:40Z</time>
      </trkpt>
      <trkpt lat="46.5797" lon="4.91196">
        <ele>187</ele>
        <time>2024-09-18T13:01:41Z</time>
      </trkpt>
      <trkpt lat="46.57965" lon="4.91196">
        <ele>187</ele>
        <time>2024-09-18T13:01:42Z</time>
      </trkpt>
      <trkpt lat="46.5796" lon="4.91196">
        <ele>187</ele>
        <time>2024-09-18T13:01:43Z</time>
      </trkpt>
      <trkpt lat="46.57956" lon="4.91197">
        <ele>187.2</ele>
        <time>2024-09-18T13:01:44Z</time>
      </trkpt>
      <trkpt lat="46.57951" lon="4.91197">
        <ele>187</ele>
        <time>2024-09-18T13:01:45Z</time>
      </trkpt>
      <trkpt lat="46.57946" lon="4.91197">
        <ele>187</ele>
        <time>2024-09-18T13:01:46Z</time>
      </trkpt>
      <trkpt lat="46.57942" lon="4.91197">
        <ele>187</ele>
        <time>2024-09-18T13:01:47Z</time>
      </trkpt>
      <trkpt lat="46.57937" lon="4.91198">
        <ele>187</ele>
        <time>2024-09-18T13:01:48Z</time>
      </trkpt>
      <trkpt lat="46.57933" lon="4.91198">
        <ele>187</ele>
        <time>2024-09-18T13:01:49Z</time>
      </trkpt>
      <trkpt lat="46.57928" lon="4.91199">
        <ele>187</ele>
        <time>2024-09-18T13:01:50Z</time>
      </trkpt>
      <trkpt lat="46.57923" lon="4.91199">
        <ele>187</ele>
        <time>2024-09-18T13:01:51Z</time>
      </trkpt>
      <trkpt lat="46.57919" lon="4.91199">
        <ele>187</ele>
        <time>2024-09-18T13:01:52Z</time>
      </trkpt>
      <trkpt lat="46.57914" lon="4.912">
        <ele>187.2</ele>
        <time>2024-09-18T13:01:53Z</time>
      </trkpt>
      <trkpt lat="46.5791" lon="4.912">
        <ele>187</ele>
        <time>2024-09-18T13:01:54Z</time>
      </trkpt>
      <trkpt lat="46.57905" lon="4.91201">
        <ele>187</ele>
        <time>2024-09-18T13:01:55Z</time>
      </trkpt>
      <trkpt lat="46.579" lon="4.91201">
        <ele>187</ele>
        <time>2024-09-18T13:01:56Z</time>
      </trkpt>
      <trkpt lat="46.57893" lon="4.912">
        <ele>187</ele>
        <time>2024-09-18T13:01:57Z</time>
      </trkpt>
      <trkpt lat="46.57891" lon="4.912">
        <ele>187</ele>
        <time>2024-09-18T13:01:58Z</time>
      </trkpt>
      <trkpt lat="46.57887" lon="4.91199">
        <ele>187</ele>
        <time>2024-09-18T13:01:59Z</time>
      </trkpt>
      <trkpt lat="46.57883" lon="4.91199">
        <ele>187</ele>
        <time>2024-09-18T13:02:00Z</time>
      </trkpt>
      <trkpt lat="46.57878" lon="4.91198">
        <ele>187</ele>
        <time>2024-09-18T13:02:01Z</time>
      </trkpt>
      <trkpt lat="46.57873" lon="4.91197">
        <ele>187</ele>
        <time>2024-09-18T13:02:02Z</time>
      </trkpt>
      <trkpt lat="46.57868" lon="4.91197">
        <ele>187</ele>
        <time>2024-09-18T13:02:03Z</time>
      </trkpt>
      <trkpt lat="46.57863" lon="4.91196">
        <ele>187</ele>
        <time>2024-09-18T13:02:04Z</time>
      </trkpt>
      <trkpt lat="46.57858" lon="4.91194">
        <ele>187</ele>
        <time>2024-09-18T13:02:05Z</time>
      </trkpt>
      <trkpt lat="46.57854" lon="4.91193">
        <ele>186.8</ele>
        <time>2024-09-18T13:02:06Z</time>
      </trkpt>
      <trkpt lat="46.57849" lon="4.91192">
        <ele>186.8</ele>
        <time>2024-09-18T13:02:07Z</time>
      </trkpt>
      <trkpt lat="46.57844" lon="4.91192">
        <ele>186.8</ele>
        <time>2024-09-18T13:02:08Z</time>
      </trkpt>
      <trkpt lat="46.57839" lon="4.91191">
        <ele>186.8</ele>
        <time>2024-09-18T13:02:09Z</time>
      </trkpt>
      <trkpt lat="46.57835" lon="4.91191">
        <ele>186.8</ele>
        <time>2024-09-18T13:02:10Z</time>
      </trkpt>
      <trkpt lat="46.57831" lon="4.91191">
        <ele>186.8</ele>
        <time>2024-09-18T13:02:11Z</time>
      </trkpt>
      <trkpt lat="46.57827" lon="4.91191">
        <ele>187</ele>
        <time>2024-09-18T13:02:12Z</time>
      </trkpt>
      <trkpt lat="46.57822" lon="4.9119">
        <ele>187</ele>
        <time>2024-09-18T13:02:13Z</time>
      </trkpt>
      <trkpt lat="46.57818" lon="4.9119">
        <ele>187</ele>
        <time>2024-09-18T13:02:14Z</time>
      </trkpt>
      <trkpt lat="46.57813" lon="4.9119">
        <ele>187</ele>
        <time>2024-09-18T13:02:15Z</time>
      </trkpt>
      <trkpt lat="46.57808" lon="4.9119">
        <ele>187</ele>
        <time>2024-09-18T13:02:16Z</time>
      </trkpt>
      <trkpt lat="46.57803" lon="4.91189">
        <ele>187</ele>
        <time>2024-09-18T13:02:17Z</time>
      </trkpt>
      <trkpt lat="46.57798" lon="4.91189">
        <ele>187</ele>
        <time>2024-09-18T13:02:18Z</time>
      </trkpt>
      <trkpt lat="46.57793" lon="4.91189">
        <ele>186.8</ele>
        <time>2024-09-18T13:02:19Z</time>
      </trkpt>
      <trkpt lat="46.57788" lon="4.91188">
        <ele>186.8</ele>
        <time>2024-09-18T13:02:20Z</time>
      </trkpt>
      <trkpt lat="46.57783" lon="4.91188">
        <ele>186.8</ele>
        <time>2024-09-18T13:02:21Z</time>
      </trkpt>
      <trkpt lat="46.57778" lon="4.91188">
        <ele>186.8</ele>
        <time>2024-09-18T13:02:22Z</time>
      </trkpt>
      <trkpt lat="46.57774" lon="4.91188">
        <ele>186.8</ele>
        <time>2024-09-18T13:02:23Z</time>
      </trkpt>
      <trkpt lat="46.57769" lon="4.91188">
        <ele>187</ele>
        <time>2024-09-18T13:02:24Z</time>
      </trkpt>
      <trkpt lat="46.57764" lon="4.91188">
        <ele>187</ele>
        <time>2024-09-18T13:02:25Z</time>
      </trkpt>
      <trkpt lat="46.57759" lon="4.91188">
        <ele>187</ele>
        <time>2024-09-18T13:02:26Z</time>
      </trkpt>
      <trkpt lat="46.57754" lon="4.91188">
        <ele>187</ele>
        <time>2024-09-18T13:02:27Z</time>
      </trkpt>
      <trkpt lat="46.5775" lon="4.91188">
        <ele>187</ele>
        <time>2024-09-18T13:02:28Z</time>
      </trkpt>
      <trkpt lat="46.57745" lon="4.91189">
        <ele>187</ele>
        <time>2024-09-18T13:02:29Z</time>
      </trkpt>
      <trkpt lat="46.5774" lon="4.91188">
        <ele>187</ele>
        <time>2024-09-18T13:02:30Z</time>
      </trkpt>
      <trkpt lat="46.57735" lon="4.91188">
        <ele>187</ele>
        <time>2024-09-18T13:02:31Z</time>
      </trkpt>
      <trkpt lat="46.57731" lon="4.91187">
        <ele>187</ele>
        <time>2024-09-18T13:02:32Z</time>
      </trkpt>
      <trkpt lat="46.57726" lon="4.91187">
        <ele>186.8</ele>
        <time>2024-09-18T13:02:33Z</time>
      </trkpt>
      <trkpt lat="46.57721" lon="4.91187">
        <ele>187</ele>
        <time>2024-09-18T13:02:34Z</time>
      </trkpt>
      <trkpt lat="46.57716" lon="4.91186">
        <ele>187</ele>
        <time>2024-09-18T13:02:35Z</time>
      </trkpt>
      <trkpt lat="46.57712" lon="4.91186">
        <ele>187</ele>
        <time>2024-09-18T13:02:36Z</time>
      </trkpt>
      <trkpt lat="46.57707" lon="4.91186">
        <ele>187</ele>
        <time>2024-09-18T13:02:37Z</time>
      </trkpt>
      <trkpt lat="46.57702" lon="4.91185">
        <ele>186.8</ele>
        <time>2024-09-18T13:02:38Z</time>
      </trkpt>
      <trkpt lat="46.57697" lon="4.91185">
        <ele>186.6</ele>
        <time>2024-09-18T13:02:39Z</time>
      </trkpt>
      <trkpt lat="46.57692" lon="4.91185">
        <ele>186.6</ele>
        <time>2024-09-18T13:02:40Z</time>
      </trkpt>
      <trkpt lat="46.57688" lon="4.91184">
        <ele>186.6</ele>
        <time>2024-09-18T13:02:41Z</time>
      </trkpt>
      <trkpt lat="46.57683" lon="4.91184">
        <ele>186.6</ele>
        <time>2024-09-18T13:02:42Z</time>
      </trkpt>
      <trkpt lat="46.57678" lon="4.91183">
        <ele>186.8</ele>
        <time>2024-09-18T13:02:43Z</time>
      </trkpt>
      <trkpt lat="46.57674" lon="4.91183">
        <ele>186.8</ele>
        <time>2024-09-18T13:02:44Z</time>
      </trkpt>
      <trkpt lat="46.57669" lon="4.91183">
        <ele>186.8</ele>
        <time>2024-09-18T13:02:45Z</time>
      </trkpt>
      <trkpt lat="46.57665" lon="4.91183">
        <ele>186.8</ele>
        <time>2024-09-18T13:02:46Z</time>
      </trkpt>
      <trkpt lat="46.5766" lon="4.91182">
        <ele>187</ele>
        <time>2024-09-18T13:02:47Z</time>
      </trkpt>
      <trkpt lat="46.57656" lon="4.91182">
        <ele>187.2</ele>
        <time>2024-09-18T13:02:48Z</time>
      </trkpt>
      <trkpt lat="46.57651" lon="4.91181">
        <ele>187.2</ele>
        <time>2024-09-18T13:02:49Z</time>
      </trkpt>
      <trkpt lat="46.57646" lon="4.91181">
        <ele>187.2</ele>
        <time>2024-09-18T13:02:50Z</time>
      </trkpt>
      <trkpt lat="46.57642" lon="4.91181">
        <ele>187</ele>
        <time>2024-09-18T13:02:51Z</time>
      </trkpt>
      <trkpt lat="46.57637" lon="4.9118">
        <ele>187</ele>
        <time>2024-09-18T13:02:52Z</time>
      </trkpt>
      <trkpt lat="46.57633" lon="4.9118">
        <ele>187</ele>
        <time>2024-09-18T13:02:53Z</time>
      </trkpt>
      <trkpt lat="46.57628" lon="4.9118">
        <ele>187</ele>
        <time>2024-09-18T13:02:54Z</time>
      </trkpt>
      <trkpt lat="46.57624" lon="4.91181">
        <ele>187</ele>
        <time>2024-09-18T13:02:55Z</time>
      </trkpt>
      <trkpt lat="46.57619" lon="4.91181">
        <ele>187</ele>
        <time>2024-09-18T13:02:56Z</time>
      </trkpt>
      <trkpt lat="46.57615" lon="4.91181">
        <ele>187</ele>
        <time>2024-09-18T13:02:57Z</time>
      </trkpt>
      <trkpt lat="46.57611" lon="4.91182">
        <ele>187</ele>
        <time>2024-09-18T13:02:58Z</time>
      </trkpt>
      <trkpt lat="46.57607" lon="4.91183">
        <ele>187</ele>
        <time>2024-09-18T13:02:59Z</time>
      </trkpt>
      <trkpt lat="46.57603" lon="4.91184">
        <ele>187.2</ele>
        <time>2024-09-18T13:03:00Z</time>
      </trkpt>
      <trkpt lat="46.57599" lon="4.91184">
        <ele>187.2</ele>
        <time>2024-09-18T13:03:01Z</time>
      </trkpt>
      <trkpt lat="46.57595" lon="4.91185">
        <ele>187.2</ele>
        <time>2024-09-18T13:03:02Z</time>
      </trkpt>
      <trkpt lat="46.57591" lon="4.91186">
        <ele>187.2</ele>
        <time>2024-09-18T13:03:03Z</time>
      </trkpt>
      <trkpt lat="46.57587" lon="4.91187">
        <ele>187.2</ele>
        <time>2024-09-18T13:03:04Z</time>
      </trkpt>
      <trkpt lat="46.57582" lon="4.91189">
        <ele>187.2</ele>
        <time>2024-09-18T13:03:05Z</time>
      </trkpt>
      <trkpt lat="46.57578" lon="4.9119">
        <ele>187.2</ele>
        <time>2024-09-18T13:03:06Z</time>
      </trkpt>
      <trkpt lat="46.57574" lon="4.91191">
        <ele>187.2</ele>
        <time>2024-09-18T13:03:07Z</time>
      </trkpt>
      <trkpt lat="46.57569" lon="4.91193">
        <ele>187.2</ele>
        <time>2024-09-18T13:03:08Z</time>
      </trkpt>
      <trkpt lat="46.57565" lon="4.91194">
        <ele>187.2</ele>
        <time>2024-09-18T13:03:09Z</time>
      </trkpt>
      <trkpt lat="46.5756" lon="4.91195">
        <ele>187.2</ele>
        <time>2024-09-18T13:03:10Z</time>
      </trkpt>
      <trkpt lat="46.57556" lon="4.91197">
        <ele>187.2</ele>
        <time>2024-09-18T13:03:11Z</time>
      </trkpt>
      <trkpt lat="46.57551" lon="4.91198">
        <ele>187.2</ele>
        <time>2024-09-18T13:03:12Z</time>
      </trkpt>
      <trkpt lat="46.57547" lon="4.912">
        <ele>187.2</ele>
        <time>2024-09-18T13:03:13Z</time>
      </trkpt>
      <trkpt lat="46.57542" lon="4.91201">
        <ele>187</ele>
        <time>2024-09-18T13:03:14Z</time>
      </trkpt>
      <trkpt lat="46.57537" lon="4.91202">
        <ele>187</ele>
        <time>2024-09-18T13:03:15Z</time>
      </trkpt>
      <trkpt lat="46.57533" lon="4.91203">
        <ele>187</ele>
        <time>2024-09-18T13:03:16Z</time>
      </trkpt>
      <trkpt lat="46.57529" lon="4.91204">
        <ele>187</ele>
        <time>2024-09-18T13:03:17Z</time>
      </trkpt>
      <trkpt lat="46.57524" lon="4.91204">
        <ele>187</ele>
        <time>2024-09-18T13:03:18Z</time>
      </trkpt>
      <trkpt lat="46.5752" lon="4.91205">
        <ele>187</ele>
        <time>2024-09-18T13:03:19Z</time>
      </trkpt>
      <trkpt lat="46.57516" lon="4.91205">
        <ele>187</ele>
        <time>2024-09-18T13:03:20Z</time>
      </trkpt>
      <trkpt lat="46.57512" lon="4.91206">
        <ele>187</ele>
        <time>2024-09-18T13:03:21Z</time>
      </trkpt>
      <trkpt lat="46.57508" lon="4.91207">
        <ele>187</ele>
        <time>2024-09-18T13:03:22Z</time>
      </trkpt>
      <trkpt lat="46.57503" lon="4.91207">
        <ele>187</ele>
        <time>2024-09-18T13:03:23Z</time>
      </trkpt>
      <trkpt lat="46.57499" lon="4.91208">
        <ele>187</ele>
        <time>2024-09-18T13:03:24Z</time>
      </trkpt>
      <trkpt lat="46.57494" lon="4.91209">
        <ele>187</ele>
        <time>2024-09-18T13:03:25Z</time>
      </trkpt>
      <trkpt lat="46.5749" lon="4.9121">
        <ele>187</ele>
        <time>2024-09-18T13:03:26Z</time>
      </trkpt>
      <trkpt lat="46.57485" lon="4.91211">
        <ele>187</ele>
        <time>2024-09-18T13:03:27Z</time>
      </trkpt>
      <trkpt lat="46.57481" lon="4.91212">
        <ele>186.8</ele>
        <time>2024-09-18T13:03:28Z</time>
      </trkpt>
      <trkpt lat="46.57476" lon="4.91213">
        <ele>186.8</ele>
        <time>2024-09-18T13:03:29Z</time>
      </trkpt>
      <trkpt lat="46.57471" lon="4.91214">
        <ele>186.8</ele>
        <time>2024-09-18T13:03:30Z</time>
      </trkpt>
      <trkpt lat="46.57466" lon="4.91215">
        <ele>186.8</ele>
        <time>2024-09-18T13:03:31Z</time>
      </trkpt>
      <trkpt lat="46.57461" lon="4.91215">
        <ele>186.8</ele>
        <time>2024-09-18T13:03:32Z</time>
      </trkpt>
      <trkpt lat="46.57457" lon="4.91217">
        <ele>186.8</ele>
        <time>2024-09-18T13:03:33Z</time>
      </trkpt>
      <trkpt lat="46.57452" lon="4.91218">
        <ele>186.8</ele>
        <time>2024-09-18T13:03:34Z</time>
      </trkpt>
      <trkpt lat="46.57447" lon="4.91218">
        <ele>186.8</ele>
        <time>2024-09-18T13:03:35Z</time>
      </trkpt>
      <trkpt lat="46.57442" lon="4.91219">
        <ele>187</ele>
        <time>2024-09-18T13:03:36Z</time>
      </trkpt>
      <trkpt lat="46.57438" lon="4.9122">
        <ele>186.6</ele>
        <time>2024-09-18T13:03:37Z</time>
      </trkpt>
      <trkpt lat="46.57433" lon="4.91221">
        <ele>186.6</ele>
        <time>2024-09-18T13:03:38Z</time>
      </trkpt>
      <trkpt lat="46.57429" lon="4.91222">
        <ele>186.6</ele>
        <time>2024-09-18T13:03:39Z</time>
      </trkpt>
      <trkpt lat="46.57424" lon="4.91222">
        <ele>186.6</ele>
        <time>2024-09-18T13:03:40Z</time>
      </trkpt>
      <trkpt lat="46.5742" lon="4.91223">
        <ele>186.6</ele>
        <time>2024-09-18T13:03:41Z</time>
      </trkpt>
      <trkpt lat="46.57415" lon="4.91224">
        <ele>186.6</ele>
        <time>2024-09-18T13:03:42Z</time>
      </trkpt>
      <trkpt lat="46.57411" lon="4.91224">
        <ele>186.6</ele>
        <time>2024-09-18T13:03:43Z</time>
      </trkpt>
      <trkpt lat="46.57407" lon="4.91225">
        <ele>186.6</ele>
        <time>2024-09-18T13:03:44Z</time>
      </trkpt>
      <trkpt lat="46.57402" lon="4.91226">
        <ele>186.8</ele>
        <time>2024-09-18T13:03:45Z</time>
      </trkpt>
      <trkpt lat="46.57398" lon="4.91227">
        <ele>186.8</ele>
        <time>2024-09-18T13:03:46Z</time>
      </trkpt>
      <trkpt lat="46.57393" lon="4.91227">
        <ele>186.8</ele>
        <time>2024-09-18T13:03:47Z</time>
      </trkpt>
      <trkpt lat="46.57388" lon="4.91229">
        <ele>186.8</ele>
        <time>2024-09-18T13:03:48Z</time>
      </trkpt>
      <trkpt lat="46.57384" lon="4.9123">
        <ele>186.8</ele>
        <time>2024-09-18T13:03:49Z</time>
      </trkpt>
      <trkpt lat="46.57379" lon="4.91231">
        <ele>186.8</ele>
        <time>2024-09-18T13:03:50Z</time>
      </trkpt>
      <trkpt lat="46.57374" lon="4.91231">
        <ele>186.8</ele>
        <time>2024-09-18T13:03:51Z</time>
      </trkpt>
      <trkpt lat="46.57369" lon="4.91232">
        <ele>186.8</ele>
        <time>2024-09-18T13:03:52Z</time>
      </trkpt>
      <trkpt lat="46.57364" lon="4.91232">
        <ele>186.8</ele>
        <time>2024-09-18T13:03:53Z</time>
      </trkpt>
      <trkpt lat="46.57359" lon="4.91233">
        <ele>186.8</ele>
        <time>2024-09-18T13:03:54Z</time>
      </trkpt>
      <trkpt lat="46.57354" lon="4.91233">
        <ele>186.8</ele>
        <time>2024-09-18T13:03:55Z</time>
      </trkpt>
      <trkpt lat="46.5735" lon="4.91233">
        <ele>187</ele>
        <time>2024-09-18T13:03:56Z</time>
      </trkpt>
      <trkpt lat="46.57345" lon="4.91234">
        <ele>187</ele>
        <time>2024-09-18T13:03:57Z</time>
      </trkpt>
      <trkpt lat="46.5734" lon="4.91235">
        <ele>187</ele>
        <time>2024-09-18T13:03:58Z</time>
      </trkpt>
      <trkpt lat="46.57336" lon="4.91237">
        <ele>187</ele>
        <time>2024-09-18T13:03:59Z</time>
      </trkpt>
      <trkpt lat="46.57331" lon="4.91237">
        <ele>186.8</ele>
        <time>2024-09-18T13:04:00Z</time>
      </trkpt>
      <trkpt lat="46.57326" lon="4.91238">
        <ele>186.8</ele>
        <time>2024-09-18T13:04:01Z</time>
      </trkpt>
      <trkpt lat="46.57321" lon="4.91238">
        <ele>186.8</ele>
        <time>2024-09-18T13:04:02Z</time>
      </trkpt>
      <trkpt lat="46.57317" lon="4.91239">
        <ele>186.8</ele>
        <time>2024-09-18T13:04:03Z</time>
      </trkpt>
      <trkpt lat="46.57312" lon="4.91239">
        <ele>186.8</ele>
        <time>2024-09-18T13:04:04Z</time>
      </trkpt>
      <trkpt lat="46.57307" lon="4.9124">
        <ele>186.8</ele>
        <time>2024-09-18T13:04:05Z</time>
      </trkpt>
      <trkpt lat="46.57302" lon="4.9124">
        <ele>186.8</ele>
        <time>2024-09-18T13:04:06Z</time>
      </trkpt>
      <trkpt lat="46.57297" lon="4.91241">
        <ele>186.8</ele>
        <time>2024-09-18T13:04:07Z</time>
      </trkpt>
      <trkpt lat="46.57292" lon="4.91241">
        <ele>186.6</ele>
        <time>2024-09-18T13:04:08Z</time>
      </trkpt>
      <trkpt lat="46.57287" lon="4.91242">
        <ele>186.8</ele>
        <time>2024-09-18T13:04:09Z</time>
      </trkpt>
      <trkpt lat="46.57282" lon="4.91241">
        <ele>186.8</ele>
        <time>2024-09-18T13:04:10Z</time>
      </trkpt>
      <trkpt lat="46.57278" lon="4.91241">
        <ele>186.8</ele>
        <time>2024-09-18T13:04:11Z</time>
      </trkpt>
      <trkpt lat="46.57274" lon="4.9124">
        <ele>186.8</ele>
        <time>2024-09-18T13:04:12Z</time>
      </trkpt>
      <trkpt lat="46.57269" lon="4.91239">
        <ele>186.8</ele>
        <time>2024-09-18T13:04:13Z</time>
      </trkpt>
      <trkpt lat="46.57265" lon="4.91239">
        <ele>186.8</ele>
        <time>2024-09-18T13:04:14Z</time>
      </trkpt>
      <trkpt lat="46.5726" lon="4.91238">
        <ele>186.8</ele>
        <time>2024-09-18T13:04:15Z</time>
      </trkpt>
      <trkpt lat="46.57255" lon="4.91238">
        <ele>186.8</ele>
        <time>2024-09-18T13:04:16Z</time>
      </trkpt>
      <trkpt lat="46.57251" lon="4.91237">
        <ele>186.6</ele>
        <time>2024-09-18T13:04:17Z</time>
      </trkpt>
      <trkpt lat="46.57246" lon="4.91237">
        <ele>186.6</ele>
        <time>2024-09-18T13:04:18Z</time>
      </trkpt>
      <trkpt lat="46.57241" lon="4.91236">
        <ele>186.8</ele>
        <time>2024-09-18T13:04:19Z</time>
      </trkpt>
      <trkpt lat="46.57237" lon="4.91236">
        <ele>186.8</ele>
        <time>2024-09-18T13:04:20Z</time>
      </trkpt>
      <trkpt lat="46.57232" lon="4.91235">
        <ele>187</ele>
        <time>2024-09-18T13:04:21Z</time>
      </trkpt>
      <trkpt lat="46.57227" lon="4.91235">
        <ele>186.8</ele>
        <time>2024-09-18T13:04:22Z</time>
      </trkpt>
      <trkpt lat="46.57222" lon="4.91234">
        <ele>186.8</ele>
        <time>2024-09-18T13:04:23Z</time>
      </trkpt>
      <trkpt lat="46.57218" lon="4.91234">
        <ele>186.8</ele>
        <time>2024-09-18T13:04:24Z</time>
      </trkpt>
      <trkpt lat="46.57213" lon="4.91234">
        <ele>187</ele>
        <time>2024-09-18T13:04:25Z</time>
      </trkpt>
      <trkpt lat="46.57208" lon="4.91233">
        <ele>187</ele>
        <time>2024-09-18T13:04:26Z</time>
      </trkpt>
      <trkpt lat="46.57203" lon="4.91233">
        <ele>186.8</ele>
        <time>2024-09-18T13:04:27Z</time>
      </trkpt>
      <trkpt lat="46.57198" lon="4.91233">
        <ele>186.8</ele>
        <time>2024-09-18T13:04:28Z</time>
      </trkpt>
      <trkpt lat="46.57193" lon="4.91233">
        <ele>186.8</ele>
        <time>2024-09-18T13:04:29Z</time>
      </trkpt>
      <trkpt lat="46.57188" lon="4.91232">
        <ele>186.8</ele>
        <time>2024-09-18T13:04:30Z</time>
      </trkpt>
      <trkpt lat="46.57183" lon="4.91232">
        <ele>186.6</ele>
        <time>2024-09-18T13:04:31Z</time>
      </trkpt>
      <trkpt lat="46.57178" lon="4.91231">
        <ele>186.6</ele>
        <time>2024-09-18T13:04:32Z</time>
      </trkpt>
      <trkpt lat="46.57173" lon="4.9123">
        <ele>186.6</ele>
        <time>2024-09-18T13:04:33Z</time>
      </trkpt>
      <trkpt lat="46.57166" lon="4.91229">
        <ele>186.6</ele>
        <time>2024-09-18T13:04:34Z</time>
      </trkpt>
      <trkpt lat="46.57163" lon="4.91229">
        <ele>186.6</ele>
        <time>2024-09-18T13:04:35Z</time>
      </trkpt>
      <trkpt lat="46.57158" lon="4.91228">
        <ele>186.8</ele>
        <time>2024-09-18T13:04:36Z</time>
      </trkpt>
      <trkpt lat="46.57153" lon="4.91227">
        <ele>186.8</ele>
        <time>2024-09-18T13:04:37Z</time>
      </trkpt>
      <trkpt lat="46.57148" lon="4.91225">
        <ele>186.8</ele>
        <time>2024-09-18T13:04:38Z</time>
      </trkpt>
      <trkpt lat="46.57143" lon="4.91224">
        <ele>186.8</ele>
        <time>2024-09-18T13:04:39Z</time>
      </trkpt>
      <trkpt lat="46.57138" lon="4.91223">
        <ele>186.8</ele>
        <time>2024-09-18T13:04:40Z</time>
      </trkpt>
      <trkpt lat="46.57134" lon="4.91222">
        <ele>187</ele>
        <time>2024-09-18T13:04:41Z</time>
      </trkpt>
      <trkpt lat="46.57129" lon="4.91221">
        <ele>187</ele>
        <time>2024-09-18T13:04:42Z</time>
      </trkpt>
      <trkpt lat="46.57124" lon="4.9122">
        <ele>187</ele>
        <time>2024-09-18T13:04:43Z</time>
      </trkpt>
      <trkpt lat="46.57119" lon="4.91218">
        <ele>187</ele>
        <time>2024-09-18T13:04:44Z</time>
      </trkpt>
      <trkpt lat="46.57114" lon="4.91217">
        <ele>186.8</ele>
        <time>2024-09-18T13:04:45Z</time>
      </trkpt>
      <trkpt lat="46.57109" lon="4.91216">
        <ele>186.8</ele>
        <time>2024-09-18T13:04:46Z</time>
      </trkpt>
      <trkpt lat="46.57105" lon="4.91215">
        <ele>186.8</ele>
        <time>2024-09-18T13:04:47Z</time>
      </trkpt>
      <trkpt lat="46.57099" lon="4.91214">
        <ele>186.8</ele>
        <time>2024-09-18T13:04:48Z</time>
      </trkpt>
      <trkpt lat="46.57094" lon="4.91213">
        <ele>187</ele>
        <time>2024-09-18T13:04:49Z</time>
      </trkpt>
      <trkpt lat="46.57089" lon="4.91212">
        <ele>187</ele>
        <time>2024-09-18T13:04:50Z</time>
      </trkpt>
      <trkpt lat="46.57084" lon="4.91211">
        <ele>187</ele>
        <time>2024-09-18T13:04:51Z</time>
      </trkpt>
      <trkpt lat="46.57079" lon="4.91209">
        <ele>187</ele>
        <time>2024-09-18T13:04:52Z</time>
      </trkpt>
      <trkpt lat="46.57074" lon="4.91208">
        <ele>187</ele>
        <time>2024-09-18T13:04:53Z</time>
      </trkpt>
      <trkpt lat="46.57069" lon="4.91206">
        <ele>187</ele>
        <time>2024-09-18T13:04:54Z</time>
      </trkpt>
      <trkpt lat="46.57064" lon="4.91204">
        <ele>187</ele>
        <time>2024-09-18T13:04:55Z</time>
      </trkpt>
      <trkpt lat="46.57059" lon="4.91203">
        <ele>187</ele>
        <time>2024-09-18T13:04:56Z</time>
      </trkpt>
      <trkpt lat="46.57054" lon="4.91201">
        <ele>187</ele>
        <time>2024-09-18T13:04:57Z</time>
      </trkpt>
      <trkpt lat="46.57049" lon="4.912">
        <ele>187</ele>
        <time>2024-09-18T13:04:58Z</time>
      </trkpt>
      <trkpt lat="46.57044" lon="4.91198">
        <ele>186.8</ele>
        <time>2024-09-18T13:04:59Z</time>
      </trkpt>
      <trkpt lat="46.57039" lon="4.91197">
        <ele>186.8</ele>
        <time>2024-09-18T13:05:00Z</time>
      </trkpt>
      <trkpt lat="46.57035" lon="4.91195">
        <ele>186.8</ele>
        <time>2024-09-18T13:05:01Z</time>
      </trkpt>
      <trkpt lat="46.57031" lon="4.91193">
        <ele>186.8</ele>
        <time>2024-09-18T13:05:02Z</time>
      </trkpt>
      <trkpt lat="46.57026" lon="4.91192">
        <ele>186.8</ele>
        <time>2024-09-18T13:05:03Z</time>
      </trkpt>
      <trkpt lat="46.57022" lon="4.91191">
        <ele>186.8</ele>
        <time>2024-09-18T13:05:04Z</time>
      </trkpt>
      <trkpt lat="46.57018" lon="4.91191">
        <ele>186.8</ele>
        <time>2024-09-18T13:05:05Z</time>
      </trkpt>
      <trkpt lat="46.57013" lon="4.9119">
        <ele>186.8</ele>
        <time>2024-09-18T13:05:06Z</time>
      </trkpt>
      <trkpt lat="46.57009" lon="4.91189">
        <ele>187</ele>
        <time>2024-09-18T13:05:07Z</time>
      </trkpt>
      <trkpt lat="46.57005" lon="4.91188">
        <ele>187</ele>
        <time>2024-09-18T13:05:08Z</time>
      </trkpt>
      <trkpt lat="46.57001" lon="4.91187">
        <ele>187</ele>
        <time>2024-09-18T13:05:09Z</time>
      </trkpt>
      <trkpt lat="46.56998" lon="4.91185">
        <ele>187</ele>
        <time>2024-09-18T13:05:10Z</time>
      </trkpt>
      <trkpt lat="46.56994" lon="4.91184">
        <ele>187</ele>
        <time>2024-09-18T13:05:11Z</time>
      </trkpt>
      <trkpt lat="46.56991" lon="4.91183">
        <ele>187</ele>
        <time>2024-09-18T13:05:12Z</time>
      </trkpt>
      <trkpt lat="46.56988" lon="4.91182">
        <ele>187</ele>
        <time>2024-09-18T13:05:13Z</time>
      </trkpt>
      <trkpt lat="46.56984" lon="4.91181">
        <ele>187</ele>
        <time>2024-09-18T13:05:14Z</time>
      </trkpt>
      <trkpt lat="46.56981" lon="4.9118">
        <ele>187</ele>
        <time>2024-09-18T13:05:15Z</time>
      </trkpt>
      <trkpt lat="46.56978" lon="4.91179">
        <ele>187</ele>
        <time>2024-09-18T13:05:16Z</time>
      </trkpt>
      <trkpt lat="46.56975" lon="4.91178">
        <ele>187</ele>
        <time>2024-09-18T13:05:17Z</time>
      </trkpt>
      <trkpt lat="46.56972" lon="4.91177">
        <ele>187</ele>
        <time>2024-09-18T13:05:18Z</time>
      </trkpt>
      <trkpt lat="46.56969" lon="4.91176">
        <ele>187</ele>
        <time>2024-09-18T13:05:19Z</time>
      </trkpt>
      <trkpt lat="46.56965" lon="4.91175">
        <ele>187</ele>
        <time>2024-09-18T13:05:20Z</time>
      </trkpt>
      <trkpt lat="46.56962" lon="4.91174">
        <ele>187</ele>
        <time>2024-09-18T13:05:21Z</time>
      </trkpt>
      <trkpt lat="46.56958" lon="4.91172">
        <ele>187.2</ele>
        <time>2024-09-18T13:05:22Z</time>
      </trkpt>
      <trkpt lat="46.56955" lon="4.91171">
        <ele>187.2</ele>
        <time>2024-09-18T13:05:23Z</time>
      </trkpt>
      <trkpt lat="46.56951" lon="4.9117">
        <ele>187.2</ele>
        <time>2024-09-18T13:05:24Z</time>
      </trkpt>
      <trkpt lat="46.56948" lon="4.91169">
        <ele>187.2</ele>
        <time>2024-09-18T13:05:25Z</time>
      </trkpt>
      <trkpt lat="46.56945" lon="4.91168">
        <ele>187</ele>
        <time>2024-09-18T13:05:26Z</time>
      </trkpt>
      <trkpt lat="46.56941" lon="4.91167">
        <ele>187</ele>
        <time>2024-09-18T13:05:27Z</time>
      </trkpt>
      <trkpt lat="46.56938" lon="4.91165">
        <ele>187</ele>
        <time>2024-09-18T13:05:28Z</time>
      </trkpt>
      <trkpt lat="46.56934" lon="4.91164">
        <ele>187</ele>
        <time>2024-09-18T13:05:29Z</time>
      </trkpt>
      <trkpt lat="46.5693" lon="4.91163">
        <ele>187.2</ele>
        <time>2024-09-18T13:05:30Z</time>
      </trkpt>
      <trkpt lat="46.56927" lon="4.91162">
        <ele>187.2</ele>
        <time>2024-09-18T13:05:31Z</time>
      </trkpt>
      <trkpt lat="46.56922" lon="4.9116">
        <ele>187.2</ele>
        <time>2024-09-18T13:05:32Z</time>
      </trkpt>
      <trkpt lat="46.56918" lon="4.91158">
        <ele>187.2</ele>
        <time>2024-09-18T13:05:33Z</time>
      </trkpt>
      <trkpt lat="46.56914" lon="4.91157">
        <ele>187.2</ele>
        <time>2024-09-18T13:05:34Z</time>
      </trkpt>
      <trkpt lat="46.5691" lon="4.91156">
        <ele>187</ele>
        <time>2024-09-18T13:05:35Z</time>
      </trkpt>
      <trkpt lat="46.56906" lon="4.91155">
        <ele>187</ele>
        <time>2024-09-18T13:05:36Z</time>
      </trkpt>
      <trkpt lat="46.56902" lon="4.91154">
        <ele>187</ele>
        <time>2024-09-18T13:05:37Z</time>
      </trkpt>
      <trkpt lat="46.56897" lon="4.91153">
        <ele>187</ele>
        <time>2024-09-18T13:05:38Z</time>
      </trkpt>
      <trkpt lat="46.56893" lon="4.91152">
        <ele>187</ele>
        <time>2024-09-18T13:05:39Z</time>
      </trkpt>
      <trkpt lat="46.56889" lon="4.91151">
        <ele>187</ele>
        <time>2024-09-18T13:05:40Z</time>
      </trkpt>
      <trkpt lat="46.56885" lon="4.91149">
        <ele>187</ele>
        <time>2024-09-18T13:05:41Z</time>
      </trkpt>
      <trkpt lat="46.56881" lon="4.91148">
        <ele>187</ele>
        <time>2024-09-18T13:05:42Z</time>
      </trkpt>
      <trkpt lat="46.56877" lon="4.91147">
        <ele>187</ele>
        <time>2024-09-18T13:05:43Z</time>
      </trkpt>
      <trkpt lat="46.56873" lon="4.91145">
        <ele>187</ele>
        <time>2024-09-18T13:05:44Z</time>
      </trkpt>
      <trkpt lat="46.56869" lon="4.91144">
        <ele>187.2</ele>
        <time>2024-09-18T13:05:45Z</time>
      </trkpt>
      <trkpt lat="46.56864" lon="4.91142">
        <ele>187.2</ele>
        <time>2024-09-18T13:05:46Z</time>
      </trkpt>
      <trkpt lat="46.5686" lon="4.91141">
        <ele>187.2</ele>
        <time>2024-09-18T13:05:47Z</time>
      </trkpt>
      <trkpt lat="46.56855" lon="4.9114">
        <ele>187</ele>
        <time>2024-09-18T13:05:48Z</time>
      </trkpt>
      <trkpt lat="46.56851" lon="4.91138">
        <ele>187</ele>
        <time>2024-09-18T13:05:49Z</time>
      </trkpt>
      <trkpt lat="46.56847" lon="4.91137">
        <ele>187</ele>
        <time>2024-09-18T13:05:50Z</time>
      </trkpt>
      <trkpt lat="46.56842" lon="4.91136">
        <ele>187</ele>
        <time>2024-09-18T13:05:51Z</time>
      </trkpt>
      <trkpt lat="46.56838" lon="4.91135">
        <ele>187</ele>
        <time>2024-09-18T13:05:52Z</time>
      </trkpt>
      <trkpt lat="46.56833" lon="4.91133">
        <ele>187</ele>
        <time>2024-09-18T13:05:53Z</time>
      </trkpt>
      <trkpt lat="46.56829" lon="4.91132">
        <ele>187</ele>
        <time>2024-09-18T13:05:54Z</time>
      </trkpt>
      <trkpt lat="46.56825" lon="4.91131">
        <ele>187</ele>
        <time>2024-09-18T13:05:55Z</time>
      </trkpt>
      <trkpt lat="46.5682" lon="4.91129">
        <ele>187</ele>
        <time>2024-09-18T13:05:56Z</time>
      </trkpt>
      <trkpt lat="46.56816" lon="4.91128">
        <ele>187</ele>
        <time>2024-09-18T13:05:57Z</time>
      </trkpt>
      <trkpt lat="46.56812" lon="4.91127">
        <ele>187</ele>
        <time>2024-09-18T13:05:58Z</time>
      </trkpt>
      <trkpt lat="46.56807" lon="4.91125">
        <ele>187</ele>
        <time>2024-09-18T13:05:59Z</time>
      </trkpt>
      <trkpt lat="46.56803" lon="4.91125">
        <ele>187</ele>
        <time>2024-09-18T13:06:00Z</time>
      </trkpt>
      <trkpt lat="46.56799" lon="4.91124">
        <ele>187.2</ele>
        <time>2024-09-18T13:06:01Z</time>
      </trkpt>
      <trkpt lat="46.56795" lon="4.91122">
        <ele>187.2</ele>
        <time>2024-09-18T13:06:02Z</time>
      </trkpt>
      <trkpt lat="46.56791" lon="4.91121">
        <ele>187.8</ele>
        <time>2024-09-18T13:06:03Z</time>
      </trkpt>
      <trkpt lat="46.56788" lon="4.9112">
        <ele>187.8</ele>
        <time>2024-09-18T13:06:04Z</time>
      </trkpt>
      <trkpt lat="46.56784" lon="4.91119">
        <ele>187.8</ele>
        <time>2024-09-18T13:06:05Z</time>
      </trkpt>
      <trkpt lat="46.5678" lon="4.91118">
        <ele>187.4</ele>
        <time>2024-09-18T13:06:06Z</time>
      </trkpt>
      <trkpt lat="46.56776" lon="4.91116">
        <ele>187</ele>
        <time>2024-09-18T13:06:07Z</time>
      </trkpt>
      <trkpt lat="46.56773" lon="4.91115">
        <ele>187</ele>
        <time>2024-09-18T13:06:08Z</time>
      </trkpt>
      <trkpt lat="46.56769" lon="4.91114">
        <ele>187</ele>
        <time>2024-09-18T13:06:09Z</time>
      </trkpt>
      <trkpt lat="46.56765" lon="4.91112">
        <ele>187</ele>
        <time>2024-09-18T13:06:10Z</time>
      </trkpt>
      <trkpt lat="46.56761" lon="4.91112">
        <ele>188</ele>
        <time>2024-09-18T13:06:11Z</time>
      </trkpt>
      <trkpt lat="46.56757" lon="4.91112">
        <ele>188</ele>
        <time>2024-09-18T13:06:12Z</time>
      </trkpt>
      <trkpt lat="46.56753" lon="4.91112">
        <ele>188</ele>
        <time>2024-09-18T13:06:13Z</time>
      </trkpt>
      <trkpt lat="46.5675" lon="4.91111">
        <ele>188</ele>
        <time>2024-09-18T13:06:14Z</time>
      </trkpt>
      <trkpt lat="46.56746" lon="4.91111">
        <ele>188.2</ele>
        <time>2024-09-18T13:06:15Z</time>
      </trkpt>
      <trkpt lat="46.56742" lon="4.91111">
        <ele>188.2</ele>
        <time>2024-09-18T13:06:16Z</time>
      </trkpt>
      <trkpt lat="46.56738" lon="4.91111">
        <ele>188.2</ele>
        <time>2024-09-18T13:06:17Z</time>
      </trkpt>
      <trkpt lat="46.56735" lon="4.91111">
        <ele>188.2</ele>
        <time>2024-09-18T13:06:18Z</time>
      </trkpt>
      <trkpt lat="46.56731" lon="4.91111">
        <ele>188.2</ele>
        <time>2024-09-18T13:06:19Z</time>
      </trkpt>
      <trkpt lat="46.56728" lon="4.9111">
        <ele>188.2</ele>
        <time>2024-09-18T13:06:20Z</time>
      </trkpt>
      <trkpt lat="46.56724" lon="4.9111">
        <ele>188.2</ele>
        <time>2024-09-18T13:06:21Z</time>
      </trkpt>
      <trkpt lat="46.56721" lon="4.9111">
        <ele>188.2</ele>
        <time>2024-09-18T13:06:22Z</time>
      </trkpt>
      <trkpt lat="46.56718" lon="4.9111">
        <ele>188.2</ele>
        <time>2024-09-18T13:06:23Z</time>
      </trkpt>
      <trkpt lat="46.56715" lon="4.9111">
        <ele>188.4</ele>
        <time>2024-09-18T13:06:24Z</time>
      </trkpt>
      <trkpt lat="46.56712" lon="4.9111">
        <ele>188.4</ele>
        <time>2024-09-18T13:06:25Z</time>
      </trkpt>
      <trkpt lat="46.56709" lon="4.9111">
        <ele>188.4</ele>
        <time>2024-09-18T13:06:26Z</time>
      </trkpt>
      <trkpt lat="46.56706" lon="4.91109">
        <ele>188.4</ele>
        <time>2024-09-18T13:06:27Z</time>
      </trkpt>
      <trkpt lat="46.56703" lon="4.91109">
        <ele>188.2</ele>
        <time>2024-09-18T13:06:28Z</time>
      </trkpt>
      <trkpt lat="46.567" lon="4.91108">
        <ele>188.2</ele>
        <time>2024-09-18T13:06:29Z</time>
      </trkpt>
      <trkpt lat="46.56697" lon="4.91106">
        <ele>188.2</ele>
        <time>2024-09-18T13:06:30Z</time>
      </trkpt>
      <trkpt lat="46.56696" lon="4.91103">
        <ele>188.2</ele>
        <time>2024-09-18T13:06:31Z</time>
      </trkpt>
      <trkpt lat="46.56694" lon="4.911">
        <ele>188.2</ele>
        <time>2024-09-18T13:06:32Z</time>
      </trkpt>
      <trkpt lat="46.56693" lon="4.91097">
        <ele>188.4</ele>
        <time>2024-09-18T13:06:33Z</time>
      </trkpt>
      <trkpt lat="46.56692" lon="4.91095">
        <ele>188.4</ele>
        <time>2024-09-18T13:06:34Z</time>
      </trkpt>
      <trkpt lat="46.56691" lon="4.91093">
        <ele>188.4</ele>
        <time>2024-09-18T13:06:35Z</time>
      </trkpt>
      <trkpt lat="46.56689" lon="4.91091">
        <ele>188.4</ele>
        <time>2024-09-18T13:06:36Z</time>
      </trkpt>
      <trkpt lat="46.56688" lon="4.9109">
        <ele>188.4</ele>
        <time>2024-09-18T13:06:37Z</time>
      </trkpt>
      <trkpt lat="46.56686" lon="4.91089">
        <ele>188.4</ele>
        <time>2024-09-18T13:06:38Z</time>
      </trkpt>
      <trkpt lat="46.56684" lon="4.91089">
        <ele>188.4</ele>
        <time>2024-09-18T13:06:39Z</time>
      </trkpt>
      <trkpt lat="46.56681" lon="4.91089">
        <ele>188.4</ele>
        <time>2024-09-18T13:06:40Z</time>
      </trkpt>
      <trkpt lat="46.56679" lon="4.91089">
        <ele>188.4</ele>
        <time>2024-09-18T13:06:41Z</time>
      </trkpt>
      <trkpt lat="46.56677" lon="4.91089">
        <ele>188.6</ele>
        <time>2024-09-18T13:06:42Z</time>
      </trkpt>
      <trkpt lat="46.56675" lon="4.91088">
        <ele>188.6</ele>
        <time>2024-09-18T13:06:43Z</time>
      </trkpt>
      <trkpt lat="46.56674" lon="4.91088">
        <ele>188.6</ele>
        <time>2024-09-18T13:06:44Z</time>
      </trkpt>
      <trkpt lat="46.56673" lon="4.91086">
        <ele>188.6</ele>
        <time>2024-09-18T13:06:45Z</time>
      </trkpt>
      <trkpt lat="46.56672" lon="4.91083">
        <ele>188.6</ele>
        <time>2024-09-18T13:06:46Z</time>
      </trkpt>
      <trkpt lat="46.56671" lon="4.9108">
        <ele>188.6</ele>
        <time>2024-09-18T13:06:47Z</time>
      </trkpt>
      <trkpt lat="46.5667" lon="4.91078">
        <ele>188.6</ele>
        <time>2024-09-18T13:06:48Z</time>
      </trkpt>
      <trkpt lat="46.56669" lon="4.91076">
        <ele>188.8</ele>
        <time>2024-09-18T13:06:49Z</time>
      </trkpt>
      <trkpt lat="46.56667" lon="4.91075">
        <ele>188.8</ele>
        <time>2024-09-18T13:06:50Z</time>
      </trkpt>
      <trkpt lat="46.56665" lon="4.91076">
        <ele>188.8</ele>
        <time>2024-09-18T13:06:51Z</time>
      </trkpt>
      <trkpt lat="46.56663" lon="4.91076">
        <ele>189</ele>
        <time>2024-09-18T13:06:52Z</time>
      </trkpt>
      <trkpt lat="46.56661" lon="4.91077">
        <ele>189</ele>
        <time>2024-09-18T13:06:53Z</time>
      </trkpt>
      <trkpt lat="46.56659" lon="4.91078">
        <ele>189</ele>
        <time>2024-09-18T13:06:54Z</time>
      </trkpt>
      <trkpt lat="46.56657" lon="4.9108">
        <ele>189</ele>
        <time>2024-09-18T13:06:55Z</time>
      </trkpt>
      <trkpt lat="46.56655" lon="4.91081">
        <ele>189</ele>
        <time>2024-09-18T13:06:56Z</time>
      </trkpt>
      <trkpt lat="46.56654" lon="4.91083">
        <ele>188.6</ele>
        <time>2024-09-18T13:06:57Z</time>
      </trkpt>
      <trkpt lat="46.56652" lon="4.91083">
        <ele>188.6</ele>
        <time>2024-09-18T13:06:58Z</time>
      </trkpt>
      <trkpt lat="46.56651" lon="4.91084">
        <ele>188.6</ele>
        <time>2024-09-18T13:06:59Z</time>
      </trkpt>
      <trkpt lat="46.56649" lon="4.91084">
        <ele>188.6</ele>
        <time>2024-09-18T13:07:00Z</time>
      </trkpt>
      <trkpt lat="46.56647" lon="4.91084">
        <ele>188</ele>
        <time>2024-09-18T13:07:01Z</time>
      </trkpt>
      <trkpt lat="46.56646" lon="4.91084">
        <ele>188</ele>
        <time>2024-09-18T13:07:02Z</time>
      </trkpt>
      <trkpt lat="46.56644" lon="4.91084">
        <ele>188</ele>
        <time>2024-09-18T13:07:03Z</time>
      </trkpt>
      <trkpt lat="46.56643" lon="4.91084">
        <ele>188</ele>
        <time>2024-09-18T13:07:04Z</time>
      </trkpt>
      <trkpt lat="46.56641" lon="4.91085">
        <ele>189</ele>
        <time>2024-09-18T13:07:05Z</time>
      </trkpt>
      <trkpt lat="46.5664" lon="4.91087">
        <ele>189</ele>
        <time>2024-09-18T13:07:06Z</time>
      </trkpt>
      <trkpt lat="46.56638" lon="4.91089">
        <ele>189</ele>
        <time>2024-09-18T13:07:07Z</time>
      </trkpt>
      <trkpt lat="46.56637" lon="4.9109">
        <ele>189</ele>
        <time>2024-09-18T13:07:08Z</time>
      </trkpt>
      <trkpt lat="46.56635" lon="4.91091">
        <ele>189</ele>
        <time>2024-09-18T13:07:09Z</time>
      </trkpt>
      <trkpt lat="46.56634" lon="4.91093">
        <ele>189</ele>
        <time>2024-09-18T13:07:10Z</time>
      </trkpt>
      <trkpt lat="46.56632" lon="4.91094">
        <ele>189</ele>
        <time>2024-09-18T13:07:11Z</time>
      </trkpt>
      <trkpt lat="46.5663" lon="4.91096">
        <ele>189</ele>
        <time>2024-09-18T13:07:12Z</time>
      </trkpt>
      <trkpt lat="46.56628" lon="4.91097">
        <ele>188.8</ele>
        <time>2024-09-18T13:07:13Z</time>
      </trkpt>
      <trkpt lat="46.56625" lon="4.91098">
        <ele>188.6</ele>
        <time>2024-09-18T13:07:14Z</time>
      </trkpt>
      <trkpt lat="46.56623" lon="4.91099">
        <ele>188.6</ele>
        <time>2024-09-18T13:07:15Z</time>
      </trkpt>
      <trkpt lat="46.5662" lon="4.91101">
        <ele>188.6</ele>
        <time>2024-09-18T13:07:16Z</time>
      </trkpt>
      <trkpt lat="46.56618" lon="4.91102">
        <ele>188.6</ele>
        <time>2024-09-18T13:07:17Z</time>
      </trkpt>
      <trkpt lat="46.56615" lon="4.91104">
        <ele>189</ele>
        <time>2024-09-18T13:07:18Z</time>
      </trkpt>
      <trkpt lat="46.56613" lon="4.91105">
        <ele>189.2</ele>
        <time>2024-09-18T13:07:19Z</time>
      </trkpt>
      <trkpt lat="46.5661" lon="4.91106">
        <ele>189.2</ele>
        <time>2024-09-18T13:07:20Z</time>
      </trkpt>
      <trkpt lat="46.56608" lon="4.91107">
        <ele>189.2</ele>
        <time>2024-09-18T13:07:21Z</time>
      </trkpt>
      <trkpt lat="46.56605" lon="4.91108">
        <ele>189</ele>
        <time>2024-09-18T13:07:22Z</time>
      </trkpt>
      <trkpt lat="46.56603" lon="4.91109">
        <ele>189</ele>
        <time>2024-09-18T13:07:23Z</time>
      </trkpt>
      <trkpt lat="46.566" lon="4.9111">
        <ele>189</ele>
        <time>2024-09-18T13:07:24Z</time>
      </trkpt>
      <trkpt lat="46.56597" lon="4.9111">
        <ele>189</ele>
        <time>2024-09-18T13:07:25Z</time>
      </trkpt>
      <trkpt lat="46.56595" lon="4.91111">
        <ele>189</ele>
        <time>2024-09-18T13:07:26Z</time>
      </trkpt>
      <trkpt lat="46.56592" lon="4.91111">
        <ele>189</ele>
        <time>2024-09-18T13:07:27Z</time>
      </trkpt>
      <trkpt lat="46.5659" lon="4.91113">
        <ele>188.8</ele>
        <time>2024-09-18T13:07:28Z</time>
      </trkpt>
      <trkpt lat="46.56588" lon="4.91114">
        <ele>188.8</ele>
        <time>2024-09-18T13:07:29Z</time>
      </trkpt>
      <trkpt lat="46.56586" lon="4.91115">
        <ele>188.8</ele>
        <time>2024-09-18T13:07:30Z</time>
      </trkpt>
      <trkpt lat="46.56584" lon="4.91115">
        <ele>188.8</ele>
        <time>2024-09-18T13:07:31Z</time>
      </trkpt>
      <trkpt lat="46.56582" lon="4.91116">
        <ele>189</ele>
        <time>2024-09-18T13:07:32Z</time>
      </trkpt>
      <trkpt lat="46.5658" lon="4.91117">
        <ele>189</ele>
        <time>2024-09-18T13:07:33Z</time>
      </trkpt>
      <trkpt lat="46.56579" lon="4.91117">
        <ele>189</ele>
        <time>2024-09-18T13:07:34Z</time>
      </trkpt>
      <trkpt lat="46.56578" lon="4.91117">
        <ele>189</ele>
        <time>2024-09-18T13:07:35Z</time>
      </trkpt>
      <trkpt lat="46.56577" lon="4.91117">
        <ele>189</ele>
        <time>2024-09-18T13:07:36Z</time>
      </trkpt>
      <trkpt lat="46.56576" lon="4.91116">
        <ele>189</ele>
        <time>2024-09-18T13:07:37Z</time>
      </trkpt>
      <trkpt lat="46.56576" lon="4.91115">
        <ele>189</ele>
        <time>2024-09-18T13:07:38Z</time>
      </trkpt>
      <trkpt lat="46.56575" lon="4.91113">
        <ele>189</ele>
        <time>2024-09-18T13:07:39Z</time>
      </trkpt>
      <trkpt lat="46.56574" lon="4.91111">
        <ele>189</ele>
        <time>2024-09-18T13:07:40Z</time>
      </trkpt>
      <trkpt lat="46.56573" lon="4.91109">
        <ele>189</ele>
        <time>2024-09-18T13:07:41Z</time>
      </trkpt>
      <trkpt lat="46.56572" lon="4.91107">
        <ele>189.2</ele>
        <time>2024-09-18T13:07:42Z</time>
      </trkpt>
      <trkpt lat="46.56571" lon="4.91104">
        <ele>189.2</ele>
        <time>2024-09-18T13:07:43Z</time>
      </trkpt>
      <trkpt lat="46.5657" lon="4.91101">
        <ele>189.2</ele>
        <time>2024-09-18T13:07:44Z</time>
      </trkpt>
      <trkpt lat="46.56569" lon="4.91098">
        <ele>189.2</ele>
        <time>2024-09-18T13:07:45Z</time>
      </trkpt>
      <trkpt lat="46.56568" lon="4.91095">
        <ele>189.4</ele>
        <time>2024-09-18T13:07:46Z</time>
      </trkpt>
      <trkpt lat="46.56567" lon="4.91092">
        <ele>189.4</ele>
        <time>2024-09-18T13:07:47Z</time>
      </trkpt>
      <trkpt lat="46.56566" lon="4.91089">
        <ele>189.4</ele>
        <time>2024-09-18T13:07:48Z</time>
      </trkpt>
      <trkpt lat="46.56566" lon="4.91085">
        <ele>189.6</ele>
        <time>2024-09-18T13:07:49Z</time>
      </trkpt>
      <trkpt lat="46.56566" lon="4.91081">
        <ele>189.6</ele>
        <time>2024-09-18T13:07:50Z</time>
      </trkpt>
      <trkpt lat="46.56566" lon="4.91078">
        <ele>189.6</ele>
        <time>2024-09-18T13:07:51Z</time>
      </trkpt>
      <trkpt lat="46.56566" lon="4.91075">
        <ele>189.6</ele>
        <time>2024-09-18T13:07:52Z</time>
      </trkpt>
      <trkpt lat="46.56565" lon="4.91072">
        <ele>189.6</ele>
        <time>2024-09-18T13:07:53Z</time>
      </trkpt>
      <trkpt lat="46.56565" lon="4.91069">
        <ele>190.2</ele>
        <time>2024-09-18T13:07:54Z</time>
      </trkpt>
      <trkpt lat="46.56564" lon="4.91066">
        <ele>190.4</ele>
        <time>2024-09-18T13:07:55Z</time>
      </trkpt>
      <trkpt lat="46.56563" lon="4.91063">
        <ele>190.4</ele>
        <time>2024-09-18T13:07:56Z</time>
      </trkpt>
      <trkpt lat="46.56562" lon="4.9106">
        <ele>190.4</ele>
        <time>2024-09-18T13:07:57Z</time>
      </trkpt>
      <trkpt lat="46.56561" lon="4.91058">
        <ele>191</ele>
        <time>2024-09-18T13:07:58Z</time>
      </trkpt>
      <trkpt lat="46.5656" lon="4.91056">
        <ele>191</ele>
        <time>2024-09-18T13:07:59Z</time>
      </trkpt>
      <trkpt lat="46.56559" lon="4.91054">
        <ele>191</ele>
        <time>2024-09-18T13:08:00Z</time>
      </trkpt>
      <trkpt lat="46.56558" lon="4.91052">
        <ele>191</ele>
        <time>2024-09-18T13:08:01Z</time>
      </trkpt>
      <trkpt lat="46.56556" lon="4.91051">
        <ele>191</ele>
        <time>2024-09-18T13:08:02Z</time>
      </trkpt>
      <trkpt lat="46.56555" lon="4.91049">
        <ele>191.8</ele>
        <time>2024-09-18T13:08:03Z</time>
      </trkpt>
      <trkpt lat="46.56553" lon="4.91048">
        <ele>192</ele>
        <time>2024-09-18T13:08:04Z</time>
      </trkpt>
      <trkpt lat="46.5655" lon="4.91047">
        <ele>192</ele>
        <time>2024-09-18T13:08:05Z</time>
      </trkpt>
      <trkpt lat="46.56549" lon="4.91046">
        <ele>192</ele>
        <time>2024-09-18T13:08:06Z</time>
      </trkpt>
      <trkpt lat="46.56547" lon="4.91044">
        <ele>192.2</ele>
        <time>2024-09-18T13:08:07Z</time>
      </trkpt>
      <trkpt lat="46.56545" lon="4.91043">
        <ele>192.4</ele>
        <time>2024-09-18T13:08:08Z</time>
      </trkpt>
      <trkpt lat="46.56543" lon="4.91043">
        <ele>192.4</ele>
        <time>2024-09-18T13:08:09Z</time>
      </trkpt>
      <trkpt lat="46.56541" lon="4.91042">
        <ele>192.4</ele>
        <time>2024-09-18T13:08:10Z</time>
      </trkpt>
      <trkpt lat="46.56539" lon="4.91041">
        <ele>192.4</ele>
        <time>2024-09-18T13:08:11Z</time>
      </trkpt>
      <trkpt lat="46.56537" lon="4.9104">
        <ele>192.4</ele>
        <time>2024-09-18T13:08:12Z</time>
      </trkpt>
      <trkpt lat="46.56535" lon="4.91038">
        <ele>192.6</ele>
        <time>2024-09-18T13:08:13Z</time>
      </trkpt>
      <trkpt lat="46.56533" lon="4.91036">
        <ele>192.6</ele>
        <time>2024-09-18T13:08:14Z</time>
      </trkpt>
      <trkpt lat="46.56531" lon="4.91034">
        <ele>192.6</ele>
        <time>2024-09-18T13:08:15Z</time>
      </trkpt>
      <trkpt lat="46.56529" lon="4.91032">
        <ele>192.6</ele>
        <time>2024-09-18T13:08:16Z</time>
      </trkpt>
      <trkpt lat="46.56528" lon="4.91029">
        <ele>192.8</ele>
        <time>2024-09-18T13:08:17Z</time>
      </trkpt>
      <trkpt lat="46.56528" lon="4.91027">
        <ele>193.4</ele>
        <time>2024-09-18T13:08:18Z</time>
      </trkpt>
      <trkpt lat="46.56527" lon="4.91025">
        <ele>193.4</ele>
        <time>2024-09-18T13:08:19Z</time>
      </trkpt>
      <trkpt lat="46.56524" lon="4.91023">
        <ele>193.4</ele>
        <time>2024-09-18T13:08:20Z</time>
      </trkpt>
      <trkpt lat="46.56522" lon="4.91021">
        <ele>193.6</ele>
        <time>2024-09-18T13:08:21Z</time>
      </trkpt>
      <trkpt lat="46.5652" lon="4.9102">
        <ele>194</ele>
        <time>2024-09-18T13:08:22Z</time>
      </trkpt>
      <trkpt lat="46.56518" lon="4.91018">
        <ele>194</ele>
        <time>2024-09-18T13:08:23Z</time>
      </trkpt>
      <trkpt lat="46.56515" lon="4.91017">
        <ele>194</ele>
        <time>2024-09-18T13:08:24Z</time>
      </trkpt>
      <trkpt lat="46.56513" lon="4.91017">
        <ele>194</ele>
        <time>2024-09-18T13:08:25Z</time>
      </trkpt>
      <trkpt lat="46.56511" lon="4.91015">
        <ele>194</ele>
        <time>2024-09-18T13:08:26Z</time>
      </trkpt>
      <trkpt lat="46.56509" lon="4.91013">
        <ele>194.4</ele>
        <time>2024-09-18T13:08:27Z</time>
      </trkpt>
      <trkpt lat="46.56507" lon="4.91011">
        <ele>194.4</ele>
        <time>2024-09-18T13:08:28Z</time>
      </trkpt>
      <trkpt lat="46.56505" lon="4.91009">
        <ele>194.4</ele>
        <time>2024-09-18T13:08:29Z</time>
      </trkpt>
      <trkpt lat="46.56503" lon="4.91007">
        <ele>195.2</ele>
        <time>2024-09-18T13:08:30Z</time>
      </trkpt>
      <trkpt lat="46.56502" lon="4.91006">
        <ele>195.4</ele>
        <time>2024-09-18T13:08:31Z</time>
      </trkpt>
      <trkpt lat="46.565" lon="4.91005">
        <ele>195.4</ele>
        <time>2024-09-18T13:08:32Z</time>
      </trkpt>
      <trkpt lat="46.56498" lon="4.91003">
        <ele>195.4</ele>
        <time>2024-09-18T13:08:33Z</time>
      </trkpt>
      <trkpt lat="46.56496" lon="4.91001">
        <ele>195.4</ele>
        <time>2024-09-18T13:08:34Z</time>
      </trkpt>
      <trkpt lat="46.56494" lon="4.90998">
        <ele>196.2</ele>
        <time>2024-09-18T13:08:35Z</time>
      </trkpt>
      <trkpt lat="46.56492" lon="4.90997">
        <ele>196.2</ele>
        <time>2024-09-18T13:08:36Z</time>
      </trkpt>
      <trkpt lat="46.5649" lon="4.90996">
        <ele>196.2</ele>
        <time>2024-09-18T13:08:37Z</time>
      </trkpt>
      <trkpt lat="46.56488" lon="4.90995">
        <ele>196.2</ele>
        <time>2024-09-18T13:08:38Z</time>
      </trkpt>
      <trkpt lat="46.56487" lon="4.90993">
        <ele>196.6</ele>
        <time>2024-09-18T13:08:39Z</time>
      </trkpt>
      <trkpt lat="46.56485" lon="4.90992">
        <ele>197</ele>
        <time>2024-09-18T13:08:40Z</time>
      </trkpt>
      <trkpt lat="46.56483" lon="4.9099">
        <ele>197</ele>
        <time>2024-09-18T13:08:41Z</time>
      </trkpt>
      <trkpt lat="46.56482" lon="4.90988">
        <ele>197</ele>
        <time>2024-09-18T13:08:42Z</time>
      </trkpt>
      <trkpt lat="46.56481" lon="4.90986">
        <ele>197</ele>
        <time>2024-09-18T13:08:43Z</time>
      </trkpt>
      <trkpt lat="46.56479" lon="4.90984">
        <ele>197.6</ele>
        <time>2024-09-18T13:08:44Z</time>
      </trkpt>
      <trkpt lat="46.56478" lon="4.90983">
        <ele>197.6</ele>
        <time>2024-09-18T13:08:45Z</time>
      </trkpt>
      <trkpt lat="46.56477" lon="4.90981">
        <ele>197.6</ele>
        <time>2024-09-18T13:08:46Z</time>
      </trkpt>
      <trkpt lat="46.56476" lon="4.90978">
        <ele>198.2</ele>
        <time>2024-09-18T13:08:47Z</time>
      </trkpt>
      <trkpt lat="46.56475" lon="4.90976">
        <ele>198.4</ele>
        <time>2024-09-18T13:08:48Z</time>
      </trkpt>
      <trkpt lat="46.56474" lon="4.90974">
        <ele>198.4</ele>
        <time>2024-09-18T13:08:49Z</time>
      </trkpt>
      <trkpt lat="46.56473" lon="4.90972">
        <ele>198.4</ele>
        <time>2024-09-18T13:08:50Z</time>
      </trkpt>
      <trkpt lat="46.56471" lon="4.90971">
        <ele>198.4</ele>
        <time>2024-09-18T13:08:51Z</time>
      </trkpt>
      <trkpt lat="46.56469" lon="4.90969">
        <ele>198.4</ele>
        <time>2024-09-18T13:08:52Z</time>
      </trkpt>
      <trkpt lat="46.56468" lon="4.90968">
        <ele>198.8</ele>
        <time>2024-09-18T13:08:53Z</time>
      </trkpt>
      <trkpt lat="46.56467" lon="4.90966">
        <ele>199</ele>
        <time>2024-09-18T13:08:54Z</time>
      </trkpt>
      <trkpt lat="46.56467" lon="4.90964">
        <ele>199</ele>
        <time>2024-09-18T13:08:55Z</time>
      </trkpt>
      <trkpt lat="46.56467" lon="4.90962">
        <ele>199</ele>
        <time>2024-09-18T13:08:56Z</time>
      </trkpt>
      <trkpt lat="46.56466" lon="4.9096">
        <ele>199.6</ele>
        <time>2024-09-18T13:08:57Z</time>
      </trkpt>
      <trkpt lat="46.56466" lon="4.90958">
        <ele>199.6</ele>
        <time>2024-09-18T13:08:58Z</time>
      </trkpt>
      <trkpt lat="46.56466" lon="4.90957">
        <ele>199.6</ele>
        <time>2024-09-18T13:08:59Z</time>
      </trkpt>
      <trkpt lat="46.56466" lon="4.90955">
        <ele>199.6</ele>
        <time>2024-09-18T13:09:00Z</time>
      </trkpt>
      <trkpt lat="46.56466" lon="4.90953">
        <ele>199.6</ele>
        <time>2024-09-18T13:09:01Z</time>
      </trkpt>
      <trkpt lat="46.56466" lon="4.90953">
        <ele>199.8</ele>
        <time>2024-09-18T13:09:02Z</time>
      </trkpt>
      <trkpt lat="46.56466" lon="4.90953">
        <ele>200</ele>
        <time>2024-09-18T13:09:03Z</time>
      </trkpt>
      <trkpt lat="46.56466" lon="4.90953">
        <ele>200</ele>
        <time>2024-09-18T13:09:04Z</time>
      </trkpt>
      <trkpt lat="46.56466" lon="4.90953">
        <ele>200</ele>
        <time>2024-09-18T13:09:05Z</time>
      </trkpt>
      <trkpt lat="46.56466" lon="4.90953">
        <ele>200</ele>
        <time>2024-09-18T13:09:06Z</time>
      </trkpt>
      <trkpt lat="46.56466" lon="4.90953">
        <ele>200.2</ele>
        <time>2024-09-18T13:09:07Z</time>
      </trkpt>
      <trkpt lat="46.56468" lon="4.9095">
        <ele>199.8</ele>
        <time>2024-09-18T13:10:09Z</time>
      </trkpt>
      <trkpt lat="46.56469" lon="4.90948">
        <ele>199.8</ele>
        <time>2024-09-18T13:10:10Z</time>
      </trkpt>
      <trkpt lat="46.5647" lon="4.90945">
        <ele>200.2</ele>
        <time>2024-09-18T13:10:11Z</time>
      </trkpt>
      <trkpt lat="46.56471" lon="4.90943">
        <ele>200.2</ele>
        <time>2024-09-18T13:10:12Z</time>
      </trkpt>
      <trkpt lat="46.56472" lon="4.9094">
        <ele>200.2</ele>
        <time>2024-09-18T13:10:13Z</time>
      </trkpt>
      <trkpt lat="46.56473" lon="4.90937">
        <ele>200.2</ele>
        <time>2024-09-18T13:10:14Z</time>
      </trkpt>
      <trkpt lat="46.56473" lon="4.90934">
        <ele>199.8</ele>
        <time>2024-09-18T13:10:15Z</time>
      </trkpt>
      <trkpt lat="46.56474" lon="4.90931">
        <ele>199.8</ele>
        <time>2024-09-18T13:10:16Z</time>
      </trkpt>
      <trkpt lat="46.56476" lon="4.90928">
        <ele>199.8</ele>
        <time>2024-09-18T13:10:17Z</time>
      </trkpt>
      <trkpt lat="46.56477" lon="4.90924">
        <ele>200.2</ele>
        <time>2024-09-18T13:10:18Z</time>
      </trkpt>
      <trkpt lat="46.56478" lon="4.90921">
        <ele>200.2</ele>
        <time>2024-09-18T13:10:19Z</time>
      </trkpt>
      <trkpt lat="46.5648" lon="4.90917">
        <ele>200.2</ele>
        <time>2024-09-18T13:10:20Z</time>
      </trkpt>
      <trkpt lat="46.56481" lon="4.90914">
        <ele>200.2</ele>
        <time>2024-09-18T13:10:21Z</time>
      </trkpt>
      <trkpt lat="46.56482" lon="4.90911">
        <ele>200.2</ele>
        <time>2024-09-18T13:10:22Z</time>
      </trkpt>
      <trkpt lat="46.56482" lon="4.90908">
        <ele>200.2</ele>
        <time>2024-09-18T13:10:23Z</time>
      </trkpt>
      <trkpt lat="46.56484" lon="4.90905">
        <ele>200.4</ele>
        <time>2024-09-18T13:10:24Z</time>
      </trkpt>
      <trkpt lat="46.56486" lon="4.90903">
        <ele>200.4</ele>
        <time>2024-09-18T13:10:25Z</time>
      </trkpt>
      <trkpt lat="46.56488" lon="4.90901">
        <ele>200.4</ele>
        <time>2024-09-18T13:10:26Z</time>
      </trkpt>
      <trkpt lat="46.56491" lon="4.90901">
        <ele>200.4</ele>
        <time>2024-09-18T13:10:27Z</time>
      </trkpt>
      <trkpt lat="46.56493" lon="4.90902">
        <ele>200.4</ele>
        <time>2024-09-18T13:10:28Z</time>
      </trkpt>
      <trkpt lat="46.56495" lon="4.90903">
        <ele>200.6</ele>
        <time>2024-09-18T13:10:29Z</time>
      </trkpt>
      <trkpt lat="46.56497" lon="4.90905">
        <ele>200.6</ele>
        <time>2024-09-18T13:10:30Z</time>
      </trkpt>
      <trkpt lat="46.56499" lon="4.90906">
        <ele>200.6</ele>
        <time>2024-09-18T13:10:31Z</time>
      </trkpt>
      <trkpt lat="46.56502" lon="4.90907">
        <ele>200.6</ele>
        <time>2024-09-18T13:10:32Z</time>
      </trkpt>
      <trkpt lat="46.56504" lon="4.90907">
        <ele>200.6</ele>
        <time>2024-09-18T13:10:33Z</time>
      </trkpt>
      <trkpt lat="46.56506" lon="4.90907">
        <ele>201</ele>
        <time>2024-09-18T13:10:34Z</time>
      </trkpt>
      <trkpt lat="46.56509" lon="4.90908">
        <ele>201</ele>
        <time>2024-09-18T13:10:35Z</time>
      </trkpt>
      <trkpt lat="46.5651" lon="4.90909">
        <ele>201</ele>
        <time>2024-09-18T13:10:36Z</time>
      </trkpt>
      <trkpt lat="46.56514" lon="4.9091">
        <ele>201</ele>
        <time>2024-09-18T13:10:37Z</time>
      </trkpt>
      <trkpt lat="46.56515" lon="4.9091">
        <ele>201.2</ele>
        <time>2024-09-18T13:10:38Z</time>
      </trkpt>
      <trkpt lat="46.56517" lon="4.9091">
        <ele>201.2</ele>
        <time>2024-09-18T13:10:39Z</time>
      </trkpt>
      <trkpt lat="46.56518" lon="4.90909">
        <ele>201.2</ele>
        <time>2024-09-18T13:10:40Z</time>
      </trkpt>
      <trkpt lat="46.5652" lon="4.90907">
        <ele>201.4</ele>
        <time>2024-09-18T13:10:41Z</time>
      </trkpt>
      <trkpt lat="46.56521" lon="4.90905">
        <ele>201.8</ele>
        <time>2024-09-18T13:10:42Z</time>
      </trkpt>
      <trkpt lat="46.56521" lon="4.90902">
        <ele>201.8</ele>
        <time>2024-09-18T13:10:43Z</time>
      </trkpt>
      <trkpt lat="46.56521" lon="4.90899">
        <ele>201.8</ele>
        <time>2024-09-18T13:10:44Z</time>
      </trkpt>
      <trkpt lat="46.56521" lon="4.90896">
        <ele>201.8</ele>
        <time>2024-09-18T13:10:45Z</time>
      </trkpt>
      <trkpt lat="46.56522" lon="4.90894">
        <ele>202</ele>
        <time>2024-09-18T13:10:46Z</time>
      </trkpt>
      <trkpt lat="46.56523" lon="4.90892">
        <ele>202</ele>
        <time>2024-09-18T13:10:47Z</time>
      </trkpt>
      <trkpt lat="46.56524" lon="4.9089">
        <ele>202</ele>
        <time>2024-09-18T13:10:48Z</time>
      </trkpt>
      <trkpt lat="46.56525" lon="4.90888">
        <ele>202</ele>
        <time>2024-09-18T13:10:49Z</time>
      </trkpt>
      <trkpt lat="46.56527" lon="4.90885">
        <ele>202</ele>
        <time>2024-09-18T13:10:50Z</time>
      </trkpt>
      <trkpt lat="46.56528" lon="4.90883">
        <ele>202</ele>
        <time>2024-09-18T13:10:51Z</time>
      </trkpt>
      <trkpt lat="46.5653" lon="4.90881">
        <ele>202.2</ele>
        <time>2024-09-18T13:10:52Z</time>
      </trkpt>
      <trkpt lat="46.56532" lon="4.90879">
        <ele>202.2</ele>
        <time>2024-09-18T13:10:53Z</time>
      </trkpt>
      <trkpt lat="46.56533" lon="4.90878">
        <ele>202.2</ele>
        <time>2024-09-18T13:10:54Z</time>
      </trkpt>
      <trkpt lat="46.56534" lon="4.90876">
        <ele>202.2</ele>
        <time>2024-09-18T13:10:55Z</time>
      </trkpt>
      <trkpt lat="46.56536" lon="4.90875">
        <ele>202.4</ele>
        <time>2024-09-18T13:10:56Z</time>
      </trkpt>
      <trkpt lat="46.56538" lon="4.90873">
        <ele>202.4</ele>
        <time>2024-09-18T13:10:57Z</time>
      </trkpt>
      <trkpt lat="46.5654" lon="4.90872">
        <ele>202.4</ele>
        <time>2024-09-18T13:10:58Z</time>
      </trkpt>
      <trkpt lat="46.56542" lon="4.9087">
        <ele>202.4</ele>
        <time>2024-09-18T13:10:59Z</time>
      </trkpt>
      <trkpt lat="46.56544" lon="4.90868">
        <ele>202.6</ele>
        <time>2024-09-18T13:11:00Z</time>
      </trkpt>
      <trkpt lat="46.56545" lon="4.90867">
        <ele>202.6</ele>
        <time>2024-09-18T13:11:01Z</time>
      </trkpt>
      <trkpt lat="46.56547" lon="4.90866">
        <ele>202.6</ele>
        <time>2024-09-18T13:11:02Z</time>
      </trkpt>
      <trkpt lat="46.56549" lon="4.90864">
        <ele>202.8</ele>
        <time>2024-09-18T13:11:03Z</time>
      </trkpt>
      <trkpt lat="46.5655" lon="4.90862">
        <ele>202.8</ele>
        <time>2024-09-18T13:11:04Z</time>
      </trkpt>
      <trkpt lat="46.56552" lon="4.9086">
        <ele>203</ele>
        <time>2024-09-18T13:11:05Z</time>
      </trkpt>
      <trkpt lat="46.56553" lon="4.90859">
        <ele>203</ele>
        <time>2024-09-18T13:11:06Z</time>
      </trkpt>
      <trkpt lat="46.56555" lon="4.90857">
        <ele>203</ele>
        <time>2024-09-18T13:11:07Z</time>
      </trkpt>
      <trkpt lat="46.56556" lon="4.90855">
        <ele>203.2</ele>
        <time>2024-09-18T13:11:08Z</time>
      </trkpt>
      <trkpt lat="46.56558" lon="4.90854">
        <ele>203.2</ele>
        <time>2024-09-18T13:11:09Z</time>
      </trkpt>
      <trkpt lat="46.56559" lon="4.90852">
        <ele>203.2</ele>
        <time>2024-09-18T13:11:10Z</time>
      </trkpt>
      <trkpt lat="46.56561" lon="4.9085">
        <ele>203.2</ele>
        <time>2024-09-18T13:11:11Z</time>
      </trkpt>
      <trkpt lat="46.56562" lon="4.90849">
        <ele>203.2</ele>
        <time>2024-09-18T13:11:12Z</time>
      </trkpt>
      <trkpt lat="46.56564" lon="4.90847">
        <ele>203.6</ele>
        <time>2024-09-18T13:11:13Z</time>
      </trkpt>
      <trkpt lat="46.56566" lon="4.90846">
        <ele>203.8</ele>
        <time>2024-09-18T13:11:14Z</time>
      </trkpt>
      <trkpt lat="46.56567" lon="4.90844">
        <ele>203.8</ele>
        <time>2024-09-18T13:11:15Z</time>
      </trkpt>
      <trkpt lat="46.56568" lon="4.90843">
        <ele>203.8</ele>
        <time>2024-09-18T13:11:16Z</time>
      </trkpt>
      <trkpt lat="46.5657" lon="4.90842">
        <ele>203.8</ele>
        <time>2024-09-18T13:11:17Z</time>
      </trkpt>
      <trkpt lat="46.56571" lon="4.90842">
        <ele>204</ele>
        <time>2024-09-18T13:11:18Z</time>
      </trkpt>
      <trkpt lat="46.56572" lon="4.90841">
        <ele>204.2</ele>
        <time>2024-09-18T13:11:19Z</time>
      </trkpt>
      <trkpt lat="46.56573" lon="4.9084">
        <ele>204.2</ele>
        <time>2024-09-18T13:11:20Z</time>
      </trkpt>
      <trkpt lat="46.56574" lon="4.9084">
        <ele>204.2</ele>
        <time>2024-09-18T13:11:21Z</time>
      </trkpt>
      <trkpt lat="46.56575" lon="4.9084">
        <ele>204.2</ele>
        <time>2024-09-18T13:11:22Z</time>
      </trkpt>
      <trkpt lat="46.56576" lon="4.9084">
        <ele>204.4</ele>
        <time>2024-09-18T13:11:23Z</time>
      </trkpt>
      <trkpt lat="46.56578" lon="4.9084">
        <ele>204.4</ele>
        <time>2024-09-18T13:11:24Z</time>
      </trkpt>
      <trkpt lat="46.56579" lon="4.90841">
        <ele>204.4</ele>
        <time>2024-09-18T13:11:25Z</time>
      </trkpt>
      <trkpt lat="46.56581" lon="4.90842">
        <ele>204.4</ele>
        <time>2024-09-18T13:11:26Z</time>
      </trkpt>
      <trkpt lat="46.56582" lon="4.90843">
        <ele>204.4</ele>
        <time>2024-09-18T13:11:27Z</time>
      </trkpt>
      <trkpt lat="46.56583" lon="4.90845">
        <ele>204</ele>
        <time>2024-09-18T13:11:28Z</time>
      </trkpt>
      <trkpt lat="46.56583" lon="4.90846">
        <ele>204</ele>
        <time>2024-09-18T13:11:29Z</time>
      </trkpt>
      <trkpt lat="46.56584" lon="4.90848">
        <ele>204</ele>
        <time>2024-09-18T13:11:30Z</time>
      </trkpt>
      <trkpt lat="46.56585" lon="4.90849">
        <ele>204</ele>
        <time>2024-09-18T13:11:31Z</time>
      </trkpt>
      <trkpt lat="46.56585" lon="4.90851">
        <ele>204.4</ele>
        <time>2024-09-18T13:11:32Z</time>
      </trkpt>
      <trkpt lat="46.56586" lon="4.90852">
        <ele>204.4</ele>
        <time>2024-09-18T13:11:33Z</time>
      </trkpt>
      <trkpt lat="46.56587" lon="4.90854">
        <ele>204.4</ele>
        <time>2024-09-18T13:11:34Z</time>
      </trkpt>
      <trkpt lat="46.56587" lon="4.90855">
        <ele>204.4</ele>
        <time>2024-09-18T13:11:35Z</time>
      </trkpt>
      <trkpt lat="46.56588" lon="4.90856">
        <ele>204.4</ele>
        <time>2024-09-18T13:11:36Z</time>
      </trkpt>
      <trkpt lat="46.56589" lon="4.90857">
        <ele>204.6</ele>
        <time>2024-09-18T13:11:37Z</time>
      </trkpt>
      <trkpt lat="46.5659" lon="4.90858">
        <ele>204.6</ele>
        <time>2024-09-18T13:11:38Z</time>
      </trkpt>
      <trkpt lat="46.5659" lon="4.9086">
        <ele>204.6</ele>
        <time>2024-09-18T13:11:39Z</time>
      </trkpt>
      <trkpt lat="46.56591" lon="4.90862">
        <ele>204.6</ele>
        <time>2024-09-18T13:11:40Z</time>
      </trkpt>
      <trkpt lat="46.56592" lon="4.90865">
        <ele>204.8</ele>
        <time>2024-09-18T13:11:41Z</time>
      </trkpt>
      <trkpt lat="46.56593" lon="4.90867">
        <ele>204.8</ele>
        <time>2024-09-18T13:11:42Z</time>
      </trkpt>
      <trkpt lat="46.56593" lon="4.9087">
        <ele>204.8</ele>
        <time>2024-09-18T13:11:43Z</time>
      </trkpt>
      <trkpt lat="46.56595" lon="4.90873">
        <ele>204.8</ele>
        <time>2024-09-18T13:11:44Z</time>
      </trkpt>
      <trkpt lat="46.56596" lon="4.90875">
        <ele>204.8</ele>
        <time>2024-09-18T13:11:45Z</time>
      </trkpt>
      <trkpt lat="46.56598" lon="4.90878">
        <ele>204.8</ele>
        <time>2024-09-18T13:11:46Z</time>
      </trkpt>
      <trkpt lat="46.56599" lon="4.90881">
        <ele>204.8</ele>
        <time>2024-09-18T13:11:47Z</time>
      </trkpt>
      <trkpt lat="46.566" lon="4.90884">
        <ele>204.8</ele>
        <time>2024-09-18T13:11:48Z</time>
      </trkpt>
      <trkpt lat="46.56601" lon="4.90888">
        <ele>204.6</ele>
        <time>2024-09-18T13:11:49Z</time>
      </trkpt>
      <trkpt lat="46.56602" lon="4.90892">
        <ele>204.4</ele>
        <time>2024-09-18T13:11:50Z</time>
      </trkpt>
      <trkpt lat="46.56603" lon="4.90896">
        <ele>204.4</ele>
        <time>2024-09-18T13:11:51Z</time>
      </trkpt>
      <trkpt lat="46.56604" lon="4.90899">
        <ele>204.4</ele>
        <time>2024-09-18T13:11:52Z</time>
      </trkpt>
      <trkpt lat="46.56605" lon="4.90902">
        <ele>204.4</ele>
        <time>2024-09-18T13:11:53Z</time>
      </trkpt>
      <trkpt lat="46.56604" lon="4.90902">
        <ele>204.2</ele>
        <time>2024-09-18T13:11:54Z</time>
      </trkpt>
      <trkpt lat="46.56603" lon="4.90901">
        <ele>204.2</ele>
        <time>2024-09-18T13:11:55Z</time>
      </trkpt>
      <trkpt lat="46.56603" lon="4.90901">
        <ele>204.2</ele>
        <time>2024-09-18T13:11:56Z</time>
      </trkpt>
      <trkpt lat="46.56602" lon="4.909">
        <ele>204.2</ele>
        <time>2024-09-18T13:11:57Z</time>
      </trkpt>
      <trkpt lat="46.56601" lon="4.909">
        <ele>203.8</ele>
        <time>2024-09-18T13:14:14Z</time>
      </trkpt>
      <trkpt lat="46.56601" lon="4.90899">
        <ele>203.8</ele>
        <time>2024-09-18T13:14:15Z</time>
      </trkpt>
      <trkpt lat="46.566" lon="4.90899">
        <ele>203.8</ele>
        <time>2024-09-18T13:14:16Z</time>
      </trkpt>
      <trkpt lat="46.566" lon="4.90898">
        <ele>203.8</ele>
        <time>2024-09-18T13:14:17Z</time>
      </trkpt>
      <trkpt lat="46.56599" lon="4.90898">
        <ele>203.8</ele>
        <time>2024-09-18T13:14:22Z</time>
      </trkpt>
      <trkpt lat="46.56598" lon="4.90897">
        <ele>204.2</ele>
        <time>2024-09-18T13:14:23Z</time>
      </trkpt>
      <trkpt lat="46.56598" lon="4.90897">
        <ele>204.2</ele>
        <time>2024-09-18T13:14:24Z</time>
      </trkpt>
      <trkpt lat="46.56597" lon="4.90897">
        <ele>204.2</ele>
        <time>2024-09-18T13:14:25Z</time>
      </trkpt>
      <trkpt lat="46.56597" lon="4.90896">
        <ele>204.2</ele>
        <time>2024-09-18T13:14:26Z</time>
      </trkpt>
      <trkpt lat="46.56596" lon="4.90896">
        <ele>204.4</ele>
        <time>2024-09-18T13:14:27Z</time>
      </trkpt>
      <trkpt lat="46.56595" lon="4.90895">
        <ele>204.4</ele>
        <time>2024-09-18T13:14:28Z</time>
      </trkpt>
      <trkpt lat="46.56595" lon="4.90895">
        <ele>204.4</ele>
        <time>2024-09-18T13:14:29Z</time>
      </trkpt>
      <trkpt lat="46.56594" lon="4.90894">
        <ele>204.4</ele>
        <time>2024-09-18T13:14:30Z</time>
      </trkpt>
      <trkpt lat="46.56594" lon="4.90894">
        <ele>204.4</ele>
        <time>2024-09-18T13:14:31Z</time>
      </trkpt>
      <trkpt lat="46.56593" lon="4.90893">
        <ele>204.6</ele>
        <time>2024-09-18T13:14:32Z</time>
      </trkpt>
      <trkpt lat="46.56592" lon="4.90893">
        <ele>204.6</ele>
        <time>2024-09-18T13:14:33Z</time>
      </trkpt>
      <trkpt lat="46.56592" lon="4.90892">
        <ele>204.6</ele>
        <time>2024-09-18T13:14:34Z</time>
      </trkpt>
      <trkpt lat="46.56591" lon="4.90892">
        <ele>204.8</ele>
        <time>2024-09-18T13:14:35Z</time>
      </trkpt>
      <trkpt lat="46.5659" lon="4.90891">
        <ele>204.8</ele>
        <time>2024-09-18T13:14:36Z</time>
      </trkpt>
      <trkpt lat="46.5659" lon="4.90891">
        <ele>204.8</ele>
        <time>2024-09-18T13:14:37Z</time>
      </trkpt>
      <trkpt lat="46.56589" lon="4.9089">
        <ele>204.8</ele>
        <time>2024-09-18T13:14:38Z</time>
      </trkpt>
      <trkpt lat="46.56589" lon="4.9089">
        <ele>204.8</ele>
        <time>2024-09-18T13:14:39Z</time>
      </trkpt>
      <trkpt lat="46.56588" lon="4.90889">
        <ele>204.8</ele>
        <time>2024-09-18T13:14:40Z</time>
      </trkpt>
      <trkpt lat="46.56587" lon="4.90889">
        <ele>204.8</ele>
        <time>2024-09-18T13:14:41Z</time>
      </trkpt>
      <trkpt lat="46.56587" lon="4.90888">
        <ele>204.8</ele>
        <time>2024-09-18T13:14:42Z</time>
      </trkpt>
      <trkpt lat="46.56586" lon="4.90888">
        <ele>204.8</ele>
        <time>2024-09-18T13:14:43Z</time>
      </trkpt>
      <trkpt lat="46.56586" lon="4.90887">
        <ele>204.8</ele>
        <time>2024-09-18T13:14:44Z</time>
      </trkpt>
      <trkpt lat="46.56585" lon="4.90887">
        <ele>204.8</ele>
        <time>2024-09-18T13:14:45Z</time>
      </trkpt>
      <trkpt lat="46.56584" lon="4.90887">
        <ele>204.8</ele>
        <time>2024-09-18T13:14:46Z</time>
      </trkpt>
      <trkpt lat="46.56584" lon="4.90886">
        <ele>204.8</ele>
        <time>2024-09-18T13:14:47Z</time>
      </trkpt>
      <trkpt lat="46.56583" lon="4.90886">
        <ele>204.8</ele>
        <time>2024-09-18T13:14:48Z</time>
      </trkpt>
      <trkpt lat="46.56582" lon="4.90885">
        <ele>204.8</ele>
        <time>2024-09-18T13:14:49Z</time>
      </trkpt>
      <trkpt lat="46.56582" lon="4.90885">
        <ele>204.8</ele>
        <time>2024-09-18T13:14:50Z</time>
      </trkpt>
      <trkpt lat="46.56581" lon="4.90884">
        <ele>204.8</ele>
        <time>2024-09-18T13:14:51Z</time>
      </trkpt>
      <trkpt lat="46.56581" lon="4.90884">
        <ele>204.8</ele>
        <time>2024-09-18T13:14:52Z</time>
      </trkpt>
      <trkpt lat="46.5658" lon="4.90883">
        <ele>204.8</ele>
        <time>2024-09-18T13:14:53Z</time>
      </trkpt>
      <trkpt lat="46.56579" lon="4.90883">
        <ele>204.8</ele>
        <time>2024-09-18T13:14:54Z</time>
      </trkpt>
      <trkpt lat="46.56579" lon="4.90882">
        <ele>204.8</ele>
        <time>2024-09-18T13:14:55Z</time>
      </trkpt>
      <trkpt lat="46.56578" lon="4.90882">
        <ele>204.8</ele>
        <time>2024-09-18T13:14:56Z</time>
      </trkpt>
      <trkpt lat="46.56578" lon="4.90881">
        <ele>204.8</ele>
        <time>2024-09-18T13:14:57Z</time>
      </trkpt>
      <trkpt lat="46.56577" lon="4.90881">
        <ele>204.8</ele>
        <time>2024-09-18T13:14:58Z</time>
      </trkpt>
      <trkpt lat="46.56576" lon="4.9088">
        <ele>204.8</ele>
        <time>2024-09-18T13:14:59Z</time>
      </trkpt>
      <trkpt lat="46.56576" lon="4.9088">
        <ele>204.8</ele>
        <time>2024-09-18T13:15:00Z</time>
      </trkpt>
      <trkpt lat="46.56575" lon="4.90879">
        <ele>204.8</ele>
        <time>2024-09-18T13:15:01Z</time>
      </trkpt>
      <trkpt lat="46.56575" lon="4.90879">
        <ele>204.8</ele>
        <time>2024-09-18T13:15:02Z</time>
      </trkpt>
      <trkpt lat="46.56574" lon="4.90878">
        <ele>204.8</ele>
        <time>2024-09-18T13:15:03Z</time>
      </trkpt>
      <trkpt lat="46.56573" lon="4.90878">
        <ele>204.6</ele>
        <time>2024-09-18T13:15:04Z</time>
      </trkpt>
      <trkpt lat="46.56573" lon="4.90877">
        <ele>204.6</ele>
        <time>2024-09-18T13:15:05Z</time>
      </trkpt>
      <trkpt lat="46.56572" lon="4.90877">
        <ele>204.6</ele>
        <time>2024-09-18T13:15:06Z</time>
      </trkpt>
      <trkpt lat="46.56571" lon="4.90876">
        <ele>204.6</ele>
        <time>2024-09-18T13:15:07Z</time>
      </trkpt>
      <trkpt lat="46.56571" lon="4.90876">
        <ele>204.6</ele>
        <time>2024-09-18T13:15:08Z</time>
      </trkpt>
      <trkpt lat="46.5657" lon="4.90876">
        <ele>204.6</ele>
        <time>2024-09-18T13:15:09Z</time>
      </trkpt>
      <trkpt lat="46.5657" lon="4.90875">
        <ele>204.6</ele>
        <time>2024-09-18T13:15:10Z</time>
      </trkpt>
      <trkpt lat="46.56569" lon="4.90875">
        <ele>204.6</ele>
        <time>2024-09-18T13:15:11Z</time>
      </trkpt>
      <trkpt lat="46.56568" lon="4.90874">
        <ele>204.6</ele>
        <time>2024-09-18T13:15:12Z</time>
      </trkpt>
      <trkpt lat="46.56568" lon="4.90874">
        <ele>204.6</ele>
        <time>2024-09-18T13:15:13Z</time>
      </trkpt>
      <trkpt lat="46.56567" lon="4.90873">
        <ele>204.6</ele>
        <time>2024-09-18T13:15:14Z</time>
      </trkpt>
      <trkpt lat="46.56567" lon="4.90873">
        <ele>204.6</ele>
        <time>2024-09-18T13:15:15Z</time>
      </trkpt>
      <trkpt lat="46.56566" lon="4.90872">
        <ele>204.6</ele>
        <time>2024-09-18T13:15:16Z</time>
      </trkpt>
      <trkpt lat="46.56565" lon="4.90872">
        <ele>204.6</ele>
        <time>2024-09-18T13:15:17Z</time>
      </trkpt>
      <trkpt lat="46.56565" lon="4.90871">
        <ele>204.6</ele>
        <time>2024-09-18T13:15:18Z</time>
      </trkpt>
      <trkpt lat="46.56564" lon="4.90871">
        <ele>204.6</ele>
        <time>2024-09-18T13:15:19Z</time>
      </trkpt>
      <trkpt lat="46.56563" lon="4.9087">
        <ele>204.6</ele>
        <time>2024-09-18T13:15:20Z</time>
      </trkpt>
      <trkpt lat="46.56563" lon="4.9087">
        <ele>204.6</ele>
        <time>2024-09-18T13:15:21Z</time>
      </trkpt>
      <trkpt lat="46.56562" lon="4.90869">
        <ele>204.6</ele>
        <time>2024-09-18T13:15:22Z</time>
      </trkpt>
      <trkpt lat="46.56562" lon="4.90869">
        <ele>204.6</ele>
        <time>2024-09-18T13:15:23Z</time>
      </trkpt>
      <trkpt lat="46.56561" lon="4.90868">
        <ele>204.8</ele>
        <time>2024-09-18T13:15:24Z</time>
      </trkpt>
      <trkpt lat="46.5656" lon="4.90868">
        <ele>204.6</ele>
        <time>2024-09-18T13:15:25Z</time>
      </trkpt>
      <trkpt lat="46.5656" lon="4.90867">
        <ele>204.6</ele>
        <time>2024-09-18T13:15:26Z</time>
      </trkpt>
      <trkpt lat="46.56559" lon="4.90867">
        <ele>204.6</ele>
        <time>2024-09-18T13:15:27Z</time>
      </trkpt>
      <trkpt lat="46.56559" lon="4.90866">
        <ele>204.6</ele>
        <time>2024-09-18T13:15:28Z</time>
      </trkpt>
      <trkpt lat="46.56558" lon="4.90866">
        <ele>204.6</ele>
        <time>2024-09-18T13:15:29Z</time>
      </trkpt>
      <trkpt lat="46.56557" lon="4.90865">
        <ele>204.4</ele>
        <time>2024-09-18T13:15:30Z</time>
      </trkpt>
      <trkpt lat="46.56557" lon="4.90865">
        <ele>204.4</ele>
        <time>2024-09-18T13:15:31Z</time>
      </trkpt>
      <trkpt lat="46.56556" lon="4.90865">
        <ele>204.4</ele>
        <time>2024-09-18T13:15:32Z</time>
      </trkpt>
      <trkpt lat="46.56556" lon="4.90864">
        <ele>204.4</ele>
        <time>2024-09-18T13:15:33Z</time>
      </trkpt>
      <trkpt lat="46.56555" lon="4.90864">
        <ele>204.4</ele>
        <time>2024-09-18T13:15:34Z</time>
      </trkpt>
      <trkpt lat="46.56554" lon="4.90863">
        <ele>204.4</ele>
        <time>2024-09-18T13:15:35Z</time>
      </trkpt>
      <trkpt lat="46.56554" lon="4.90863">
        <ele>204.4</ele>
        <time>2024-09-18T13:15:36Z</time>
      </trkpt>
      <trkpt lat="46.56553" lon="4.90862">
        <ele>204.4</ele>
        <time>2024-09-18T13:15:37Z</time>
      </trkpt>
      <trkpt lat="46.56552" lon="4.90862">
        <ele>204.2</ele>
        <time>2024-09-18T13:15:38Z</time>
      </trkpt>
      <trkpt lat="46.56552" lon="4.90861">
        <ele>204.6</ele>
        <time>2024-09-18T13:18:45Z</time>
      </trkpt>
      <trkpt lat="46.56551" lon="4.90861">
        <ele>204.6</ele>
        <time>2024-09-18T13:18:46Z</time>
      </trkpt>
      <trkpt lat="46.56551" lon="4.9086">
        <ele>204.6</ele>
        <time>2024-09-18T13:18:47Z</time>
      </trkpt>
      <trkpt lat="46.5655" lon="4.9086">
        <ele>204.6</ele>
        <time>2024-09-18T13:18:48Z</time>
      </trkpt>
      <trkpt lat="46.56549" lon="4.90859">
        <ele>203.6</ele>
        <time>2024-09-18T13:18:49Z</time>
      </trkpt>
      <trkpt lat="46.56549" lon="4.90859">
        <ele>203.6</ele>
        <time>2024-09-18T13:18:50Z</time>
      </trkpt>
      <trkpt lat="46.56548" lon="4.90858">
        <ele>203.6</ele>
        <time>2024-09-18T13:18:51Z</time>
      </trkpt>
      <trkpt lat="46.56548" lon="4.90858">
        <ele>203.6</ele>
        <time>2024-09-18T13:18:52Z</time>
      </trkpt>
      <trkpt lat="46.56547" lon="4.90854">
        <ele>203.4</ele>
        <time>2024-09-18T13:18:53Z</time>
      </trkpt>
      <trkpt lat="46.56551" lon="4.90847">
        <ele>203</ele>
        <time>2024-09-18T13:18:54Z</time>
      </trkpt>
      <trkpt lat="46.56552" lon="4.90846">
        <ele>203</ele>
        <time>2024-09-18T13:18:55Z</time>
      </trkpt>
      <trkpt lat="46.56555" lon="4.9084">
        <ele>203</ele>
        <time>2024-09-18T13:18:56Z</time>
      </trkpt>
      <trkpt lat="46.56556" lon="4.90838">
        <ele>203.4</ele>
        <time>2024-09-18T13:18:57Z</time>
      </trkpt>
      <trkpt lat="46.56556" lon="4.90837">
        <ele>203.4</ele>
        <time>2024-09-18T13:18:58Z</time>
      </trkpt>
      <trkpt lat="46.56556" lon="4.90836">
        <ele>203.4</ele>
        <time>2024-09-18T13:18:59Z</time>
      </trkpt>
      <trkpt lat="46.56557" lon="4.90834">
        <ele>203.4</ele>
        <time>2024-09-18T13:19:00Z</time>
      </trkpt>
      <trkpt lat="46.56557" lon="4.90833">
        <ele>203.4</ele>
        <time>2024-09-18T13:19:01Z</time>
      </trkpt>
      <trkpt lat="46.56558" lon="4.90831">
        <ele>203.4</ele>
        <time>2024-09-18T13:19:02Z</time>
      </trkpt>
      <trkpt lat="46.56561" lon="4.90821">
        <ele>203.4</ele>
        <time>2024-09-18T13:19:03Z</time>
      </trkpt>
      <trkpt lat="46.56562" lon="4.90825">
        <ele>203.4</ele>
        <time>2024-09-18T13:19:04Z</time>
      </trkpt>
      <trkpt lat="46.56562" lon="4.90825">
        <ele>203.4</ele>
        <time>2024-09-18T13:19:05Z</time>
      </trkpt>
      <trkpt lat="46.56613" lon="4.9098">
        <ele>203.6</ele>
        <time>2024-09-18T13:23:19Z</time>
      </trkpt>
      <trkpt lat="46.56612" lon="4.90982">
        <ele>203.6</ele>
        <time>2024-09-18T13:23:20Z</time>
      </trkpt>
      <trkpt lat="46.56613" lon="4.90988">
        <ele>203.6</ele>
        <time>2024-09-18T13:23:21Z</time>
      </trkpt>
      <trkpt lat="46.56614" lon="4.90991">
        <ele>203.6</ele>
        <time>2024-09-18T13:23:22Z</time>
      </trkpt>
      <trkpt lat="46.56614" lon="4.90989">
        <ele>203.6</ele>
        <time>2024-09-18T13:23:23Z</time>
      </trkpt>
      <trkpt lat="46.56615" lon="4.90989">
        <ele>203.6</ele>
        <time>2024-09-18T13:23:24Z</time>
      </trkpt>
      <trkpt lat="46.56613" lon="4.90987">
        <ele>203.6</ele>
        <time>2024-09-18T13:23:25Z</time>
      </trkpt>
      <trkpt lat="46.56612" lon="4.90989">
        <ele>203.6</ele>
        <time>2024-09-18T13:23:26Z</time>
      </trkpt>
      <trkpt lat="46.5661" lon="4.90992">
        <ele>203.6</ele>
        <time>2024-09-18T13:23:27Z</time>
      </trkpt>
      <trkpt lat="46.56611" lon="4.90992">
        <ele>203.6</ele>
        <time>2024-09-18T13:23:28Z</time>
      </trkpt>
      <trkpt lat="46.5661" lon="4.90987">
        <ele>203.6</ele>
        <time>2024-09-18T13:23:29Z</time>
      </trkpt>
      <trkpt lat="46.5661" lon="4.90986">
        <ele>203.6</ele>
        <time>2024-09-18T13:23:30Z</time>
      </trkpt>
      <trkpt lat="46.5661" lon="4.90982">
        <ele>203.6</ele>
        <time>2024-09-18T13:23:31Z</time>
      </trkpt>
      <trkpt lat="46.56647" lon="4.90844">
        <ele>203.8</ele>
        <time>2024-09-18T13:24:28Z</time>
      </trkpt>
      <trkpt lat="46.56646" lon="4.90848">
        <ele>204</ele>
        <time>2024-09-18T13:24:29Z</time>
      </trkpt>
      <trkpt lat="46.56644" lon="4.90852">
        <ele>204</ele>
        <time>2024-09-18T13:24:30Z</time>
      </trkpt>
      <trkpt lat="46.56644" lon="4.90852">
        <ele>204</ele>
        <time>2024-09-18T13:24:31Z</time>
      </trkpt>
      <trkpt lat="46.56644" lon="4.90852">
        <ele>204</ele>
        <time>2024-09-18T13:24:32Z</time>
      </trkpt>
      <trkpt lat="46.56644" lon="4.90852">
        <ele>203.8</ele>
        <time>2024-09-18T13:24:33Z</time>
      </trkpt>
      <trkpt lat="46.56622" lon="4.90872">
        <ele>204</ele>
        <time>2024-09-18T13:24:37Z</time>
      </trkpt>
      <trkpt lat="46.56618" lon="4.90872">
        <ele>204</ele>
        <time>2024-09-18T13:24:38Z</time>
      </trkpt>
      <trkpt lat="46.56619" lon="4.90883">
        <ele>204</ele>
        <time>2024-09-18T13:24:39Z</time>
      </trkpt>
      <trkpt lat="46.56618" lon="4.9089">
        <ele>204</ele>
        <time>2024-09-18T13:24:40Z</time>
      </trkpt>
      <trkpt lat="46.56617" lon="4.90902">
        <ele>204</ele>
        <time>2024-09-18T13:24:41Z</time>
      </trkpt>
      <trkpt lat="46.56615" lon="4.9091">
        <ele>203.8</ele>
        <time>2024-09-18T13:24:42Z</time>
      </trkpt>
      <trkpt lat="46.56614" lon="4.90913">
        <ele>203.8</ele>
        <time>2024-09-18T13:24:43Z</time>
      </trkpt>
      <trkpt lat="46.56612" lon="4.9092">
        <ele>203.8</ele>
        <time>2024-09-18T13:24:44Z</time>
      </trkpt>
      <trkpt lat="46.56611" lon="4.90921">
        <ele>203.8</ele>
        <time>2024-09-18T13:24:45Z</time>
      </trkpt>
      <trkpt lat="46.56611" lon="4.90924">
        <ele>203.8</ele>
        <time>2024-09-18T13:24:46Z</time>
      </trkpt>
      <trkpt lat="46.5661" lon="4.90931">
        <ele>203.8</ele>
        <time>2024-09-18T13:24:47Z</time>
      </trkpt>
      <trkpt lat="46.5661" lon="4.90933">
        <ele>203.8</ele>
        <time>2024-09-18T13:24:48Z</time>
      </trkpt>
      <trkpt lat="46.5661" lon="4.90938">
        <ele>203.8</ele>
        <time>2024-09-18T13:24:49Z</time>
      </trkpt>
      <trkpt lat="46.5661" lon="4.90938">
        <ele>203.2</ele>
        <time>2024-09-18T13:24:50Z</time>
      </trkpt>
      <trkpt lat="46.5661" lon="4.90938">
        <ele>203.2</ele>
        <time>2024-09-18T13:24:51Z</time>
      </trkpt>
      <trkpt lat="46.5661" lon="4.90938">
        <ele>203.2</ele>
        <time>2024-09-18T13:24:52Z</time>
      </trkpt>
      <trkpt lat="46.5661" lon="4.90938">
        <ele>203.2</ele>
        <time>2024-09-18T13:24:53Z</time>
      </trkpt>
      <trkpt lat="46.5661" lon="4.90938">
        <ele>203.6</ele>
        <time>2024-09-18T13:24:54Z</time>
      </trkpt>
      <trkpt lat="46.5661" lon="4.90938">
        <ele>203.6</ele>
        <time>2024-09-18T13:24:55Z</time>
      </trkpt>
      <trkpt lat="46.5661" lon="4.90938">
        <ele>203.6</ele>
        <time>2024-09-18T13:24:56Z</time>
      </trkpt>
      <trkpt lat="46.5661" lon="4.90938">
        <ele>203.6</ele>
        <time>2024-09-18T13:24:57Z</time>
      </trkpt>
      <trkpt lat="46.5661" lon="4.90938">
        <ele>203.6</ele>
        <time>2024-09-18T13:24:58Z</time>
      </trkpt>
      <trkpt lat="46.5661" lon="4.90938">
        <ele>203.6</ele>
        <time>2024-09-18T13:24:59Z</time>
      </trkpt>
      <trkpt lat="46.5661" lon="4.90938">
        <ele>203.6</ele>
        <time>2024-09-18T13:25:00Z</time>
      </trkpt>
      <trkpt lat="46.5661" lon="4.90938">
        <ele>203.6</ele>
        <time>2024-09-18T13:25:01Z</time>
      </trkpt>
      <trkpt lat="46.5661" lon="4.90938">
        <ele>203.4</ele>
        <time>2024-09-18T13:25:02Z</time>
      </trkpt>
      <trkpt lat="46.5661" lon="4.90938">
        <ele>203.4</ele>
        <time>2024-09-18T13:25:03Z</time>
      </trkpt>
      <trkpt lat="46.5661" lon="4.90938">
        <ele>203.4</ele>
        <time>2024-09-18T13:25:04Z</time>
      </trkpt>
      <trkpt lat="46.5661" lon="4.90938">
        <ele>203.4</ele>
        <time>2024-09-18T13:25:05Z</time>
      </trkpt>
      <trkpt lat="46.5661" lon="4.90938">
        <ele>203.4</ele>
        <time>2024-09-18T13:25:06Z</time>
      </trkpt>
      <trkpt lat="46.5661" lon="4.90938">
        <ele>203.4</ele>
        <time>2024-09-18T13:25:07Z</time>
      </trkpt>
      <trkpt lat="46.5661" lon="4.90938">
        <ele>203.4</ele>
        <time>2024-09-18T13:25:08Z</time>
      </trkpt>
      <trkpt lat="46.5661" lon="4.90938">
        <ele>203.4</ele>
        <time>2024-09-18T13:25:09Z</time>
      </trkpt>
      <trkpt lat="46.5661" lon="4.90938">
        <ele>203.4</ele>
        <time>2024-09-18T13:25:10Z</time>
      </trkpt>
      <trkpt lat="46.5661" lon="4.90938">
        <ele>203.4</ele>
        <time>2024-09-18T13:25:11Z</time>
      </trkpt>
      <trkpt lat="46.5661" lon="4.90938">
        <ele>203.4</ele>
        <time>2024-09-18T13:25:12Z</time>
      </trkpt>
      <trkpt lat="46.5661" lon="4.90938">
        <ele>203</ele>
        <time>2024-09-18T13:25:13Z</time>
      </trkpt>
      <trkpt lat="46.5661" lon="4.90938">
        <ele>203</ele>
        <time>2024-09-18T13:25:14Z</time>
      </trkpt>
      <trkpt lat="46.5661" lon="4.90938">
        <ele>203</ele>
        <time>2024-09-18T13:25:15Z</time>
      </trkpt>
      <trkpt lat="46.5661" lon="4.90938">
        <ele>203</ele>
        <time>2024-09-18T13:25:16Z</time>
      </trkpt>
      <trkpt lat="46.5661" lon="4.90938">
        <ele>203.2</ele>
        <time>2024-09-18T13:25:17Z</time>
      </trkpt>
      <trkpt lat="46.5661" lon="4.90938">
        <ele>203.4</ele>
        <time>2024-09-18T13:25:18Z</time>
      </trkpt>
      <trkpt lat="46.5661" lon="4.90938">
        <ele>203.4</ele>
        <time>2024-09-18T13:25:19Z</time>
      </trkpt>
      <trkpt lat="46.5661" lon="4.90938">
        <ele>203.4</ele>
        <time>2024-09-18T13:25:20Z</time>
      </trkpt>
      <trkpt lat="46.5661" lon="4.90938">
        <ele>203.4</ele>
        <time>2024-09-18T13:25:21Z</time>
      </trkpt>
      <trkpt lat="46.5661" lon="4.90938">
        <ele>203.6</ele>
        <time>2024-09-18T13:25:22Z</time>
      </trkpt>
      <trkpt lat="46.5661" lon="4.90938">
        <ele>203.6</ele>
        <time>2024-09-18T13:25:23Z</time>
      </trkpt>
      <trkpt lat="46.5661" lon="4.90938">
        <ele>203.6</ele>
        <time>2024-09-18T13:25:24Z</time>
      </trkpt>
      <trkpt lat="46.5661" lon="4.90938">
        <ele>203.4</ele>
        <time>2024-09-18T13:25:25Z</time>
      </trkpt>
      <trkpt lat="46.5661" lon="4.90938">
        <ele>203.6</ele>
        <time>2024-09-18T13:25:26Z</time>
      </trkpt>
      <trkpt lat="46.5661" lon="4.90938">
        <ele>203.6</ele>
        <time>2024-09-18T13:25:27Z</time>
      </trkpt>
      <trkpt lat="46.5661" lon="4.90938">
        <ele>203.6</ele>
        <time>2024-09-18T13:25:28Z</time>
      </trkpt>
      <trkpt lat="46.5661" lon="4.90938">
        <ele>203.6</ele>
        <time>2024-09-18T13:25:29Z</time>
      </trkpt>
      <trkpt lat="46.5661" lon="4.90938">
        <ele>203.4</ele>
        <time>2024-09-18T13:25:30Z</time>
      </trkpt>
      <trkpt lat="46.5661" lon="4.90938">
        <ele>203</ele>
        <time>2024-09-18T13:25:31Z</time>
      </trkpt>
      <trkpt lat="46.5661" lon="4.90938">
        <ele>203</ele>
        <time>2024-09-18T13:25:32Z</time>
      </trkpt>
      <trkpt lat="46.5661" lon="4.90938">
        <ele>203</ele>
        <time>2024-09-18T13:25:33Z</time>
      </trkpt>
      <trkpt lat="46.5661" lon="4.90938">
        <ele>203.4</ele>
        <time>2024-09-18T13:25:34Z</time>
      </trkpt>
      <trkpt lat="46.5661" lon="4.90938">
        <ele>203.6</ele>
        <time>2024-09-18T13:25:35Z</time>
      </trkpt>
      <trkpt lat="46.5661" lon="4.90938">
        <ele>203.6</ele>
        <time>2024-09-18T13:25:36Z</time>
      </trkpt>
      <trkpt lat="46.5661" lon="4.90938">
        <ele>203.6</ele>
        <time>2024-09-18T13:25:37Z</time>
      </trkpt>
      <trkpt lat="46.5661" lon="4.90938">
        <ele>203.2</ele>
        <time>2024-09-18T13:25:38Z</time>
      </trkpt>
      <trkpt lat="46.5661" lon="4.90938">
        <ele>203.2</ele>
        <time>2024-09-18T13:25:39Z</time>
      </trkpt>
      <trkpt lat="46.5661" lon="4.90938">
        <ele>203.2</ele>
        <time>2024-09-18T13:25:40Z</time>
      </trkpt>
      <trkpt lat="46.5661" lon="4.90938">
        <ele>203.2</ele>
        <time>2024-09-18T13:25:41Z</time>
      </trkpt>
      <trkpt lat="46.5661" lon="4.90938">
        <ele>203.2</ele>
        <time>2024-09-18T13:25:42Z</time>
      </trkpt>
      <trkpt lat="46.5661" lon="4.90938">
        <ele>203.2</ele>
        <time>2024-09-18T13:25:43Z</time>
      </trkpt>
      <trkpt lat="46.5661" lon="4.90938">
        <ele>203</ele>
        <time>2024-09-18T13:25:44Z</time>
      </trkpt>
      <trkpt lat="46.5661" lon="4.90938">
        <ele>203</ele>
        <time>2024-09-18T13:25:45Z</time>
      </trkpt>
      <trkpt lat="46.5661" lon="4.90938">
        <ele>203</ele>
        <time>2024-09-18T13:25:46Z</time>
      </trkpt>
      <trkpt lat="46.5661" lon="4.90938">
        <ele>203.6</ele>
        <time>2024-09-18T13:25:47Z</time>
      </trkpt>
      <trkpt lat="46.5661" lon="4.90938">
        <ele>203.6</ele>
        <time>2024-09-18T13:25:48Z</time>
      </trkpt>
      <trkpt lat="46.5661" lon="4.90938">
        <ele>203.6</ele>
        <time>2024-09-18T13:25:49Z</time>
      </trkpt>
      <trkpt lat="46.5661" lon="4.90938">
        <ele>203</ele>
        <time>2024-09-18T13:25:50Z</time>
      </trkpt>
      <trkpt lat="46.5661" lon="4.90938">
        <ele>203</ele>
        <time>2024-09-18T13:25:51Z</time>
      </trkpt>
      <trkpt lat="46.5661" lon="4.90938">
        <ele>203</ele>
        <time>2024-09-18T13:25:52Z</time>
      </trkpt>
      <trkpt lat="46.5661" lon="4.90938">
        <ele>203</ele>
        <time>2024-09-18T13:25:53Z</time>
      </trkpt>
      <trkpt lat="46.5661" lon="4.90938">
        <ele>203.6</ele>
        <time>2024-09-18T13:25:54Z</time>
      </trkpt>
      <trkpt lat="46.5661" lon="4.90938">
        <ele>203.6</ele>
        <time>2024-09-18T13:25:55Z</time>
      </trkpt>
      <trkpt lat="46.5661" lon="4.90938">
        <ele>203.6</ele>
        <time>2024-09-18T13:25:56Z</time>
      </trkpt>
      <trkpt lat="46.5661" lon="4.90938">
        <ele>203.4</ele>
        <time>2024-09-18T13:25:57Z</time>
      </trkpt>
      <trkpt lat="46.5661" lon="4.90938">
        <ele>203.4</ele>
        <time>2024-09-18T13:25:58Z</time>
      </trkpt>
      <trkpt lat="46.5661" lon="4.90938">
        <ele>203.4</ele>
        <time>2024-09-18T13:25:59Z</time>
      </trkpt>
      <trkpt lat="46.5661" lon="4.90938">
        <ele>203.4</ele>
        <time>2024-09-18T13:26:00Z</time>
      </trkpt>
      <trkpt lat="46.5661" lon="4.90938">
        <ele>203.4</ele>
        <time>2024-09-18T13:26:01Z</time>
      </trkpt>
      <trkpt lat="46.5661" lon="4.90938">
        <ele>203.6</ele>
        <time>2024-09-18T13:26:02Z</time>
      </trkpt>
      <trkpt lat="46.5661" lon="4.90938">
        <ele>203.6</ele>
        <time>2024-09-18T13:26:03Z</time>
      </trkpt>
      <trkpt lat="46.5661" lon="4.90938">
        <ele>203.6</ele>
        <time>2024-09-18T13:26:04Z</time>
      </trkpt>
      <trkpt lat="46.5661" lon="4.90938">
        <ele>203.6</ele>
        <time>2024-09-18T13:26:05Z</time>
      </trkpt>
      <trkpt lat="46.5661" lon="4.90938">
        <ele>203.6</ele>
        <time>2024-09-18T13:26:06Z</time>
      </trkpt>
      <trkpt lat="46.5661" lon="4.90938">
        <ele>202.8</ele>
        <time>2024-09-18T13:26:07Z</time>
      </trkpt>
      <trkpt lat="46.5661" lon="4.90938">
        <ele>202.8</ele>
        <time>2024-09-18T13:26:08Z</time>
      </trkpt>
      <trkpt lat="46.5661" lon="4.90938">
        <ele>202.8</ele>
        <time>2024-09-18T13:26:09Z</time>
      </trkpt>
      <trkpt lat="46.5661" lon="4.90938">
        <ele>203.2</ele>
        <time>2024-09-18T13:26:10Z</time>
      </trkpt>
      <trkpt lat="46.5661" lon="4.90938">
        <ele>203.6</ele>
        <time>2024-09-18T13:26:11Z</time>
      </trkpt>
      <trkpt lat="46.5661" lon="4.90938">
        <ele>203.6</ele>
        <time>2024-09-18T13:26:12Z</time>
      </trkpt>
      <trkpt lat="46.5661" lon="4.90938">
        <ele>203.6</ele>
        <time>2024-09-18T13:26:13Z</time>
      </trkpt>
      <trkpt lat="46.5661" lon="4.90938">
        <ele>203.6</ele>
        <time>2024-09-18T13:26:14Z</time>
      </trkpt>
      <trkpt lat="46.5661" lon="4.90938">
        <ele>203.6</ele>
        <time>2024-09-18T13:26:15Z</time>
      </trkpt>
      <trkpt lat="46.5661" lon="4.90938">
        <ele>203.4</ele>
        <time>2024-09-18T13:26:16Z</time>
      </trkpt>
      <trkpt lat="46.5661" lon="4.90938">
        <ele>203.4</ele>
        <time>2024-09-18T13:26:17Z</time>
      </trkpt>
      <trkpt lat="46.5661" lon="4.90938">
        <ele>203.4</ele>
        <time>2024-09-18T13:26:18Z</time>
      </trkpt>
      <trkpt lat="46.5661" lon="4.90938">
        <ele>203.4</ele>
        <time>2024-09-18T13:26:19Z</time>
      </trkpt>
      <trkpt lat="46.5661" lon="4.90938">
        <ele>203.4</ele>
        <time>2024-09-18T13:26:20Z</time>
      </trkpt>
      <trkpt lat="46.5661" lon="4.90938">
        <ele>203.4</ele>
        <time>2024-09-18T13:26:21Z</time>
      </trkpt>
      <trkpt lat="46.5661" lon="4.90938">
        <ele>203.4</ele>
        <time>2024-09-18T13:26:22Z</time>
      </trkpt>
      <trkpt lat="46.5661" lon="4.90938">
        <ele>203.4</ele>
        <time>2024-09-18T13:26:23Z</time>
      </trkpt>
      <trkpt lat="46.5661" lon="4.90938">
        <ele>203.4</ele>
        <time>2024-09-18T13:26:24Z</time>
      </trkpt>
      <trkpt lat="46.5661" lon="4.90938">
        <ele>202.8</ele>
        <time>2024-09-18T13:26:25Z</time>
      </trkpt>
      <trkpt lat="46.5661" lon="4.90938">
        <ele>202.8</ele>
        <time>2024-09-18T13:26:26Z</time>
      </trkpt>
      <trkpt lat="46.5661" lon="4.90938">
        <ele>202.8</ele>
        <time>2024-09-18T13:26:27Z</time>
      </trkpt>
      <trkpt lat="46.5661" lon="4.90938">
        <ele>203.4</ele>
        <time>2024-09-18T13:26:28Z</time>
      </trkpt>
      <trkpt lat="46.5661" lon="4.90938">
        <ele>203.4</ele>
        <time>2024-09-18T13:26:29Z</time>
      </trkpt>
      <trkpt lat="46.5661" lon="4.90938">
        <ele>203</ele>
        <time>2024-09-18T13:26:30Z</time>
      </trkpt>
      <trkpt lat="46.5661" lon="4.90938">
        <ele>203</ele>
        <time>2024-09-18T13:26:31Z</time>
      </trkpt>
      <trkpt lat="46.5661" lon="4.90938">
        <ele>203</ele>
        <time>2024-09-18T13:26:32Z</time>
      </trkpt>
      <trkpt lat="46.5661" lon="4.90938">
        <ele>203.4</ele>
        <time>2024-09-18T13:26:33Z</time>
      </trkpt>
      <trkpt lat="46.5661" lon="4.90938">
        <ele>203</ele>
        <time>2024-09-18T13:26:34Z</time>
      </trkpt>
      <trkpt lat="46.5661" lon="4.90938">
        <ele>203</ele>
        <time>2024-09-18T13:26:35Z</time>
      </trkpt>
      <trkpt lat="46.5661" lon="4.90938">
        <ele>203</ele>
        <time>2024-09-18T13:26:36Z</time>
      </trkpt>
      <trkpt lat="46.5661" lon="4.90938">
        <ele>203</ele>
        <time>2024-09-18T13:26:37Z</time>
      </trkpt>
      <trkpt lat="46.5661" lon="4.90938">
        <ele>203.6</ele>
        <time>2024-09-18T13:26:38Z</time>
      </trkpt>
      <trkpt lat="46.5661" lon="4.90938">
        <ele>203.4</ele>
        <time>2024-09-18T13:26:39Z</time>
      </trkpt>
      <trkpt lat="46.5661" lon="4.90938">
        <ele>203.4</ele>
        <time>2024-09-18T13:26:40Z</time>
      </trkpt>
      <trkpt lat="46.5661" lon="4.90938">
        <ele>203.4</ele>
        <time>2024-09-18T13:26:41Z</time>
      </trkpt>
      <trkpt lat="46.5661" lon="4.90938">
        <ele>203.4</ele>
        <time>2024-09-18T13:26:42Z</time>
      </trkpt>
      <trkpt lat="46.5661" lon="4.90938">
        <ele>203.2</ele>
        <time>2024-09-18T13:26:43Z</time>
      </trkpt>
      <trkpt lat="46.5661" lon="4.90938">
        <ele>203.2</ele>
        <time>2024-09-18T13:26:44Z</time>
      </trkpt>
      <trkpt lat="46.5661" lon="4.90938">
        <ele>203.2</ele>
        <time>2024-09-18T13:26:45Z</time>
      </trkpt>
      <trkpt lat="46.5661" lon="4.90938">
        <ele>203.6</ele>
        <time>2024-09-18T13:26:46Z</time>
      </trkpt>
      <trkpt lat="46.5661" lon="4.90938">
        <ele>203.4</ele>
        <time>2024-09-18T13:26:47Z</time>
      </trkpt>
      <trkpt lat="46.5661" lon="4.90938">
        <ele>203.4</ele>
        <time>2024-09-18T13:26:48Z</time>
      </trkpt>
      <trkpt lat="46.5661" lon="4.90938">
        <ele>203.4</ele>
        <time>2024-09-18T13:26:49Z</time>
      </trkpt>
      <trkpt lat="46.5661" lon="4.90938">
        <ele>203.4</ele>
        <time>2024-09-18T13:26:50Z</time>
      </trkpt>
      <trkpt lat="46.5661" lon="4.90938">
        <ele>203.4</ele>
        <time>2024-09-18T13:26:51Z</time>
      </trkpt>
      <trkpt lat="46.5661" lon="4.90938">
        <ele>203.4</ele>
        <time>2024-09-18T13:26:52Z</time>
      </trkpt>
      <trkpt lat="46.5661" lon="4.90938">
        <ele>203.4</ele>
        <time>2024-09-18T13:26:53Z</time>
      </trkpt>
      <trkpt lat="46.5661" lon="4.90938">
        <ele>203.4</ele>
        <time>2024-09-18T13:26:54Z</time>
      </trkpt>
      <trkpt lat="46.5661" lon="4.90938">
        <ele>203.4</ele>
        <time>2024-09-18T13:26:55Z</time>
      </trkpt>
      <trkpt lat="46.5661" lon="4.90938">
        <ele>203.4</ele>
        <time>2024-09-18T13:26:56Z</time>
      </trkpt>
      <trkpt lat="46.5661" lon="4.90938">
        <ele>203.4</ele>
        <time>2024-09-18T13:26:57Z</time>
      </trkpt>
      <trkpt lat="46.5661" lon="4.90938">
        <ele>203.4</ele>
        <time>2024-09-18T13:26:58Z</time>
      </trkpt>
      <trkpt lat="46.5661" lon="4.90938">
        <ele>203.4</ele>
        <time>2024-09-18T13:26:59Z</time>
      </trkpt>
      <trkpt lat="46.5661" lon="4.90938">
        <ele>203.4</ele>
        <time>2024-09-18T13:27:00Z</time>
      </trkpt>
      <trkpt lat="46.5661" lon="4.90938">
        <ele>203.4</ele>
        <time>2024-09-18T13:27:01Z</time>
      </trkpt>
      <trkpt lat="46.5661" lon="4.90938">
        <ele>203.4</ele>
        <time>2024-09-18T13:27:02Z</time>
      </trkpt>
      <trkpt lat="46.5661" lon="4.90938">
        <ele>203.4</ele>
        <time>2024-09-18T13:27:03Z</time>
      </trkpt>
      <trkpt lat="46.5661" lon="4.90938">
        <ele>203.4</ele>
        <time>2024-09-18T13:27:04Z</time>
      </trkpt>
      <trkpt lat="46.5661" lon="4.90938">
        <ele>203.2</ele>
        <time>2024-09-18T13:27:05Z</time>
      </trkpt>
      <trkpt lat="46.5661" lon="4.90938">
        <ele>203.2</ele>
        <time>2024-09-18T13:27:06Z</time>
      </trkpt>
      <trkpt lat="46.5661" lon="4.90938">
        <ele>203.2</ele>
        <time>2024-09-18T13:27:07Z</time>
      </trkpt>
      <trkpt lat="46.5661" lon="4.90938">
        <ele>203.4</ele>
        <time>2024-09-18T13:27:08Z</time>
      </trkpt>
      <trkpt lat="46.5661" lon="4.90938">
        <ele>203.2</ele>
        <time>2024-09-18T13:27:09Z</time>
      </trkpt>
      <trkpt lat="46.5661" lon="4.90938">
        <ele>203.2</ele>
        <time>2024-09-18T13:27:10Z</time>
      </trkpt>
      <trkpt lat="46.5661" lon="4.90938">
        <ele>203.2</ele>
        <time>2024-09-18T13:27:11Z</time>
      </trkpt>
      <trkpt lat="46.5661" lon="4.90938">
        <ele>203.2</ele>
        <time>2024-09-18T13:27:12Z</time>
      </trkpt>
      <trkpt lat="46.5661" lon="4.90938">
        <ele>203.2</ele>
        <time>2024-09-18T13:27:13Z</time>
      </trkpt>
      <trkpt lat="46.5661" lon="4.90938">
        <ele>203.2</ele>
        <time>2024-09-18T13:27:14Z</time>
      </trkpt>
      <trkpt lat="46.5661" lon="4.90938">
        <ele>203.2</ele>
        <time>2024-09-18T13:27:15Z</time>
      </trkpt>
      <trkpt lat="46.5661" lon="4.90938">
        <ele>203.2</ele>
        <time>2024-09-18T13:27:16Z</time>
      </trkpt>
      <trkpt lat="46.5661" lon="4.90938">
        <ele>203.2</ele>
        <time>2024-09-18T13:27:17Z</time>
      </trkpt>
      <trkpt lat="46.5661" lon="4.90938">
        <ele>203.4</ele>
        <time>2024-09-18T13:27:18Z</time>
      </trkpt>
      <trkpt lat="46.5661" lon="4.90938">
        <ele>203.4</ele>
        <time>2024-09-18T13:27:19Z</time>
      </trkpt>
      <trkpt lat="46.5661" lon="4.90938">
        <ele>203.4</ele>
        <time>2024-09-18T13:27:20Z</time>
      </trkpt>
      <trkpt lat="46.5661" lon="4.90938">
        <ele>203.4</ele>
        <time>2024-09-18T13:27:21Z</time>
      </trkpt>
      <trkpt lat="46.5661" lon="4.90938">
        <ele>203.4</ele>
        <time>2024-09-18T13:27:22Z</time>
      </trkpt>
      <trkpt lat="46.5661" lon="4.90938">
        <ele>203.4</ele>
        <time>2024-09-18T13:27:23Z</time>
      </trkpt>
      <trkpt lat="46.5661" lon="4.90938">
        <ele>203.4</ele>
        <time>2024-09-18T13:27:24Z</time>
      </trkpt>
      <trkpt lat="46.5661" lon="4.90938">
        <ele>203.4</ele>
        <time>2024-09-18T13:27:25Z</time>
      </trkpt>
      <trkpt lat="46.5661" lon="4.90938">
        <ele>203.4</ele>
        <time>2024-09-18T13:27:26Z</time>
      </trkpt>
      <trkpt lat="46.5661" lon="4.90938">
        <ele>203.4</ele>
        <time>2024-09-18T13:27:27Z</time>
      </trkpt>
      <trkpt lat="46.5661" lon="4.90938">
        <ele>203.4</ele>
        <time>2024-09-18T13:27:28Z</time>
      </trkpt>
      <trkpt lat="46.5661" lon="4.90938">
        <ele>203.4</ele>
        <time>2024-09-18T13:27:29Z</time>
      </trkpt>
      <trkpt lat="46.5661" lon="4.90938">
        <ele>203.4</ele>
        <time>2024-09-18T13:27:30Z</time>
      </trkpt>
      <trkpt lat="46.5661" lon="4.90938">
        <ele>203.4</ele>
        <time>2024-09-18T13:27:31Z</time>
      </trkpt>
      <trkpt lat="46.5661" lon="4.90938">
        <ele>203.4</ele>
        <time>2024-09-18T13:27:32Z</time>
      </trkpt>
      <trkpt lat="46.5661" lon="4.90938">
        <ele>203.4</ele>
        <time>2024-09-18T13:27:33Z</time>
      </trkpt>
      <trkpt lat="46.5661" lon="4.90938">
        <ele>203.4</ele>
        <time>2024-09-18T13:27:34Z</time>
      </trkpt>
      <trkpt lat="46.5661" lon="4.90938">
        <ele>203.4</ele>
        <time>2024-09-18T13:27:35Z</time>
      </trkpt>
      <trkpt lat="46.5661" lon="4.90938">
        <ele>203.4</ele>
        <time>2024-09-18T13:27:36Z</time>
      </trkpt>
      <trkpt lat="46.5661" lon="4.90938">
        <ele>203.4</ele>
        <time>2024-09-18T13:27:37Z</time>
      </trkpt>
      <trkpt lat="46.5661" lon="4.90938">
        <ele>203.4</ele>
        <time>2024-09-18T13:27:38Z</time>
      </trkpt>
      <trkpt lat="46.5661" lon="4.90938">
        <ele>203.4</ele>
        <time>2024-09-18T13:27:39Z</time>
      </trkpt>
      <trkpt lat="46.5661" lon="4.90938">
        <ele>203.4</ele>
        <time>2024-09-18T13:27:40Z</time>
      </trkpt>
      <trkpt lat="46.5661" lon="4.90938">
        <ele>203.4</ele>
        <time>2024-09-18T13:27:41Z</time>
      </trkpt>
      <trkpt lat="46.5661" lon="4.90938">
        <ele>203.4</ele>
        <time>2024-09-18T13:27:42Z</time>
      </trkpt>
      <trkpt lat="46.5661" lon="4.90938">
        <ele>203.4</ele>
        <time>2024-09-18T13:27:43Z</time>
      </trkpt>
      <trkpt lat="46.5661" lon="4.90938">
        <ele>203</ele>
        <time>2024-09-18T13:27:44Z</time>
      </trkpt>
      <trkpt lat="46.5661" lon="4.90938">
        <ele>203.6</ele>
        <time>2024-09-18T13:27:45Z</time>
      </trkpt>
      <trkpt lat="46.5661" lon="4.90938">
        <ele>203.6</ele>
        <time>2024-09-18T13:27:46Z</time>
      </trkpt>
      <trkpt lat="46.5661" lon="4.90938">
        <ele>203.6</ele>
        <time>2024-09-18T13:27:47Z</time>
      </trkpt>
      <trkpt lat="46.5661" lon="4.90938">
        <ele>203.4</ele>
        <time>2024-09-18T13:27:48Z</time>
      </trkpt>
      <trkpt lat="46.5661" lon="4.90938">
        <ele>203.4</ele>
        <time>2024-09-18T13:27:49Z</time>
      </trkpt>
      <trkpt lat="46.5661" lon="4.90938">
        <ele>203.6</ele>
        <time>2024-09-18T13:27:50Z</time>
      </trkpt>
      <trkpt lat="46.5661" lon="4.90938">
        <ele>203.6</ele>
        <time>2024-09-18T13:27:51Z</time>
      </trkpt>
      <trkpt lat="46.5661" lon="4.90938">
        <ele>203.6</ele>
        <time>2024-09-18T13:27:52Z</time>
      </trkpt>
      <trkpt lat="46.5661" lon="4.90938">
        <ele>203.6</ele>
        <time>2024-09-18T13:27:53Z</time>
      </trkpt>
      <trkpt lat="46.5661" lon="4.90938">
        <ele>203.2</ele>
        <time>2024-09-18T13:27:54Z</time>
      </trkpt>
      <trkpt lat="46.5661" lon="4.90938">
        <ele>203.2</ele>
        <time>2024-09-18T13:27:55Z</time>
      </trkpt>
      <trkpt lat="46.5661" lon="4.90938">
        <ele>203.2</ele>
        <time>2024-09-18T13:27:56Z</time>
      </trkpt>
      <trkpt lat="46.5661" lon="4.90938">
        <ele>203.2</ele>
        <time>2024-09-18T13:27:57Z</time>
      </trkpt>
      <trkpt lat="46.5661" lon="4.90938">
        <ele>203.4</ele>
        <time>2024-09-18T13:27:58Z</time>
      </trkpt>
      <trkpt lat="46.5661" lon="4.90938">
        <ele>203.4</ele>
        <time>2024-09-18T13:27:59Z</time>
      </trkpt>
      <trkpt lat="46.5661" lon="4.90938">
        <ele>203.4</ele>
        <time>2024-09-18T13:28:00Z</time>
      </trkpt>
      <trkpt lat="46.5661" lon="4.90938">
        <ele>203.4</ele>
        <time>2024-09-18T13:28:01Z</time>
      </trkpt>
      <trkpt lat="46.5661" lon="4.90938">
        <ele>203.4</ele>
        <time>2024-09-18T13:28:02Z</time>
      </trkpt>
      <trkpt lat="46.5661" lon="4.90938">
        <ele>203.4</ele>
        <time>2024-09-18T13:28:03Z</time>
      </trkpt>
      <trkpt lat="46.5661" lon="4.90938">
        <ele>203.2</ele>
        <time>2024-09-18T13:28:04Z</time>
      </trkpt>
      <trkpt lat="46.5661" lon="4.90938">
        <ele>203.2</ele>
        <time>2024-09-18T13:28:05Z</time>
      </trkpt>
      <trkpt lat="46.5661" lon="4.90938">
        <ele>203.2</ele>
        <time>2024-09-18T13:28:06Z</time>
      </trkpt>
      <trkpt lat="46.5661" lon="4.90938">
        <ele>203.4</ele>
        <time>2024-09-18T13:28:07Z</time>
      </trkpt>
      <trkpt lat="46.5661" lon="4.90938">
        <ele>203.4</ele>
        <time>2024-09-18T13:28:08Z</time>
      </trkpt>
      <trkpt lat="46.5661" lon="4.90938">
        <ele>203.4</ele>
        <time>2024-09-18T13:28:09Z</time>
      </trkpt>
      <trkpt lat="46.5661" lon="4.90938">
        <ele>203.4</ele>
        <time>2024-09-18T13:28:10Z</time>
      </trkpt>
      <trkpt lat="46.5661" lon="4.90938">
        <ele>203.4</ele>
        <time>2024-09-18T13:28:11Z</time>
      </trkpt>
      <trkpt lat="46.5661" lon="4.90938">
        <ele>203.4</ele>
        <time>2024-09-18T13:28:12Z</time>
      </trkpt>
      <trkpt lat="46.5661" lon="4.90938">
        <ele>203.4</ele>
        <time>2024-09-18T13:28:13Z</time>
      </trkpt>
      <trkpt lat="46.5661" lon="4.90938">
        <ele>203.4</ele>
        <time>2024-09-18T13:28:14Z</time>
      </trkpt>
      <trkpt lat="46.5661" lon="4.90938">
        <ele>203.4</ele>
        <time>2024-09-18T13:28:15Z</time>
      </trkpt>
      <trkpt lat="46.5661" lon="4.90938">
        <ele>203.4</ele>
        <time>2024-09-18T13:28:16Z</time>
      </trkpt>
      <trkpt lat="46.5661" lon="4.90938">
        <ele>203.2</ele>
        <time>2024-09-18T13:28:17Z</time>
      </trkpt>
      <trkpt lat="46.5661" lon="4.90938">
        <ele>203.2</ele>
        <time>2024-09-18T13:28:18Z</time>
      </trkpt>
      <trkpt lat="46.5661" lon="4.90938">
        <ele>203.2</ele>
        <time>2024-09-18T13:28:19Z</time>
      </trkpt>
      <trkpt lat="46.5661" lon="4.90938">
        <ele>203.2</ele>
        <time>2024-09-18T13:28:20Z</time>
      </trkpt>
      <trkpt lat="46.5661" lon="4.90938">
        <ele>203</ele>
        <time>2024-09-18T13:28:21Z</time>
      </trkpt>
      <trkpt lat="46.5661" lon="4.90938">
        <ele>203</ele>
        <time>2024-09-18T13:28:22Z</time>
      </trkpt>
      <trkpt lat="46.5661" lon="4.90938">
        <ele>203</ele>
        <time>2024-09-18T13:28:23Z</time>
      </trkpt>
      <trkpt lat="46.5661" lon="4.90938">
        <ele>203.8</ele>
        <time>2024-09-18T13:28:24Z</time>
      </trkpt>
      <trkpt lat="46.5661" lon="4.90938">
        <ele>203.4</ele>
        <time>2024-09-18T13:28:25Z</time>
      </trkpt>
      <trkpt lat="46.5661" lon="4.90938">
        <ele>203.4</ele>
        <time>2024-09-18T13:28:26Z</time>
      </trkpt>
      <trkpt lat="46.5661" lon="4.90938">
        <ele>203.4</ele>
        <time>2024-09-18T13:28:27Z</time>
      </trkpt>
      <trkpt lat="46.5661" lon="4.90938">
        <ele>203.2</ele>
        <time>2024-09-18T13:28:28Z</time>
      </trkpt>
      <trkpt lat="46.5661" lon="4.90938">
        <ele>203.2</ele>
        <time>2024-09-18T13:28:29Z</time>
      </trkpt>
      <trkpt lat="46.5661" lon="4.90938">
        <ele>203</ele>
        <time>2024-09-18T13:28:30Z</time>
      </trkpt>
      <trkpt lat="46.5661" lon="4.90938">
        <ele>203</ele>
        <time>2024-09-18T13:28:31Z</time>
      </trkpt>
      <trkpt lat="46.5661" lon="4.90938">
        <ele>203</ele>
        <time>2024-09-18T13:28:32Z</time>
      </trkpt>
      <trkpt lat="46.5661" lon="4.90938">
        <ele>203.6</ele>
        <time>2024-09-18T13:28:33Z</time>
      </trkpt>
      <trkpt lat="46.5661" lon="4.90938">
        <ele>203.6</ele>
        <time>2024-09-18T13:28:34Z</time>
      </trkpt>
      <trkpt lat="46.5661" lon="4.90938">
        <ele>203.6</ele>
        <time>2024-09-18T13:28:35Z</time>
      </trkpt>
      <trkpt lat="46.5661" lon="4.90938">
        <ele>203.6</ele>
        <time>2024-09-18T13:28:36Z</time>
      </trkpt>
      <trkpt lat="46.5661" lon="4.90938">
        <ele>203.6</ele>
        <time>2024-09-18T13:28:37Z</time>
      </trkpt>
      <trkpt lat="46.5661" lon="4.90938">
        <ele>203.6</ele>
        <time>2024-09-18T13:28:38Z</time>
      </trkpt>
      <trkpt lat="46.5661" lon="4.90938">
        <ele>203.6</ele>
        <time>2024-09-18T13:28:39Z</time>
      </trkpt>
      <trkpt lat="46.5661" lon="4.90938">
        <ele>203.6</ele>
        <time>2024-09-18T13:28:40Z</time>
      </trkpt>
      <trkpt lat="46.5661" lon="4.90938">
        <ele>203.6</ele>
        <time>2024-09-18T13:28:41Z</time>
      </trkpt>
      <trkpt lat="46.5661" lon="4.90938">
        <ele>203.4</ele>
        <time>2024-09-18T13:28:42Z</time>
      </trkpt>
      <trkpt lat="46.5661" lon="4.90938">
        <ele>203.4</ele>
        <time>2024-09-18T13:28:43Z</time>
      </trkpt>
      <trkpt lat="46.5661" lon="4.90938">
        <ele>203.4</ele>
        <time>2024-09-18T13:28:44Z</time>
      </trkpt>
      <trkpt lat="46.5661" lon="4.90938">
        <ele>203.4</ele>
        <time>2024-09-18T13:28:45Z</time>
      </trkpt>
      <trkpt lat="46.5661" lon="4.90938">
        <ele>203.4</ele>
        <time>2024-09-18T13:28:46Z</time>
      </trkpt>
      <trkpt lat="46.5661" lon="4.90938">
        <ele>203.4</ele>
        <time>2024-09-18T13:28:47Z</time>
      </trkpt>
      <trkpt lat="46.5661" lon="4.90938">
        <ele>203.4</ele>
        <time>2024-09-18T13:28:48Z</time>
      </trkpt>
      <trkpt lat="46.5661" lon="4.90938">
        <ele>203.4</ele>
        <time>2024-09-18T13:28:49Z</time>
      </trkpt>
      <trkpt lat="46.5661" lon="4.90938">
        <ele>203.4</ele>
        <time>2024-09-18T13:28:50Z</time>
      </trkpt>
      <trkpt lat="46.5661" lon="4.90938">
        <ele>203.4</ele>
        <time>2024-09-18T13:28:51Z</time>
      </trkpt>
      <trkpt lat="46.5661" lon="4.90938">
        <ele>203.4</ele>
        <time>2024-09-18T13:28:52Z</time>
      </trkpt>
      <trkpt lat="46.5661" lon="4.90938">
        <ele>203.4</ele>
        <time>2024-09-18T13:28:53Z</time>
      </trkpt>
      <trkpt lat="46.5661" lon="4.90938">
        <ele>203.4</ele>
        <time>2024-09-18T13:28:54Z</time>
      </trkpt>
      <trkpt lat="46.5661" lon="4.90938">
        <ele>203.4</ele>
        <time>2024-09-18T13:28:55Z</time>
      </trkpt>
      <trkpt lat="46.5661" lon="4.90938">
        <ele>203.4</ele>
        <time>2024-09-18T13:28:56Z</time>
      </trkpt>
      <trkpt lat="46.5661" lon="4.90938">
        <ele>203.4</ele>
        <time>2024-09-18T13:28:57Z</time>
      </trkpt>
      <trkpt lat="46.5661" lon="4.90938">
        <ele>203.4</ele>
        <time>2024-09-18T13:28:58Z</time>
      </trkpt>
      <trkpt lat="46.5661" lon="4.90938">
        <ele>203.4</ele>
        <time>2024-09-18T13:28:59Z</time>
      </trkpt>
      <trkpt lat="46.5661" lon="4.90938">
        <ele>203.4</ele>
        <time>2024-09-18T13:29:00Z</time>
      </trkpt>
      <trkpt lat="46.5661" lon="4.90938">
        <ele>203.4</ele>
        <time>2024-09-18T13:29:01Z</time>
      </trkpt>
      <trkpt lat="46.5661" lon="4.90938">
        <ele>203.4</ele>
        <time>2024-09-18T13:29:02Z</time>
      </trkpt>
      <trkpt lat="46.5661" lon="4.90938">
        <ele>203.4</ele>
        <time>2024-09-18T13:29:03Z</time>
      </trkpt>
      <trkpt lat="46.5661" lon="4.90938">
        <ele>203.4</ele>
        <time>2024-09-18T13:29:04Z</time>
      </trkpt>
      <trkpt lat="46.5661" lon="4.90938">
        <ele>203.4</ele>
        <time>2024-09-18T13:29:05Z</time>
      </trkpt>
      <trkpt lat="46.5661" lon="4.90938">
        <ele>203.4</ele>
        <time>2024-09-18T13:29:06Z</time>
      </trkpt>
      <trkpt lat="46.5661" lon="4.90938">
        <ele>203.4</ele>
        <time>2024-09-18T13:29:07Z</time>
      </trkpt>
      <trkpt lat="46.5661" lon="4.90938">
        <ele>203.4</ele>
        <time>2024-09-18T13:29:08Z</time>
      </trkpt>
      <trkpt lat="46.5661" lon="4.90938">
        <ele>203.4</ele>
        <time>2024-09-18T13:29:09Z</time>
      </trkpt>
      <trkpt lat="46.5661" lon="4.90938">
        <ele>203.4</ele>
        <time>2024-09-18T13:29:10Z</time>
      </trkpt>
      <trkpt lat="46.5661" lon="4.90938">
        <ele>203.4</ele>
        <time>2024-09-18T13:29:11Z</time>
      </trkpt>
      <trkpt lat="46.5661" lon="4.90938">
        <ele>203.4</ele>
        <time>2024-09-18T13:29:12Z</time>
      </trkpt>
      <trkpt lat="46.5661" lon="4.90938">
        <ele>203.4</ele>
        <time>2024-09-18T13:29:13Z</time>
      </trkpt>
      <trkpt lat="46.5661" lon="4.90938">
        <ele>203.4</ele>
        <time>2024-09-18T13:29:14Z</time>
      </trkpt>
      <trkpt lat="46.5661" lon="4.90938">
        <ele>203.4</ele>
        <time>2024-09-18T13:29:15Z</time>
      </trkpt>
      <trkpt lat="46.5661" lon="4.90938">
        <ele>203.4</ele>
        <time>2024-09-18T13:29:16Z</time>
      </trkpt>
      <trkpt lat="46.5661" lon="4.90938">
        <ele>203.4</ele>
        <time>2024-09-18T13:29:17Z</time>
      </trkpt>
      <trkpt lat="46.5661" lon="4.90938">
        <ele>203.2</ele>
        <time>2024-09-18T13:29:18Z</time>
      </trkpt>
      <trkpt lat="46.5661" lon="4.90938">
        <ele>203.2</ele>
        <time>2024-09-18T13:29:19Z</time>
      </trkpt>
      <trkpt lat="46.5661" lon="4.90938">
        <ele>203.2</ele>
        <time>2024-09-18T13:29:20Z</time>
      </trkpt>
      <trkpt lat="46.5661" lon="4.90938">
        <ele>203.2</ele>
        <time>2024-09-18T13:29:21Z</time>
      </trkpt>
      <trkpt lat="46.5661" lon="4.90938">
        <ele>203.2</ele>
        <time>2024-09-18T13:29:22Z</time>
      </trkpt>
      <trkpt lat="46.5661" lon="4.90938">
        <ele>203.4</ele>
        <time>2024-09-18T13:29:23Z</time>
      </trkpt>
      <trkpt lat="46.5661" lon="4.90938">
        <ele>203.4</ele>
        <time>2024-09-18T13:29:24Z</time>
      </trkpt>
      <trkpt lat="46.5661" lon="4.90938">
        <ele>203.4</ele>
        <time>2024-09-18T13:29:25Z</time>
      </trkpt>
      <trkpt lat="46.5661" lon="4.90938">
        <ele>203.4</ele>
        <time>2024-09-18T13:29:26Z</time>
      </trkpt>
      <trkpt lat="46.5661" lon="4.90938">
        <ele>203.4</ele>
        <time>2024-09-18T13:29:27Z</time>
      </trkpt>
      <trkpt lat="46.5661" lon="4.90938">
        <ele>203.4</ele>
        <time>2024-09-18T13:29:28Z</time>
      </trkpt>
      <trkpt lat="46.5661" lon="4.90938">
        <ele>203.4</ele>
        <time>2024-09-18T13:29:29Z</time>
      </trkpt>
      <trkpt lat="46.5661" lon="4.90938">
        <ele>203.4</ele>
        <time>2024-09-18T13:29:30Z</time>
      </trkpt>
      <trkpt lat="46.5661" lon="4.90938">
        <ele>203.4</ele>
        <time>2024-09-18T13:29:31Z</time>
      </trkpt>
      <trkpt lat="46.5661" lon="4.90938">
        <ele>203.4</ele>
        <time>2024-09-18T13:29:32Z</time>
      </trkpt>
      <trkpt lat="46.5661" lon="4.90938">
        <ele>203.4</ele>
        <time>2024-09-18T13:29:33Z</time>
      </trkpt>
      <trkpt lat="46.5661" lon="4.90938">
        <ele>203.4</ele>
        <time>2024-09-18T13:29:34Z</time>
      </trkpt>
      <trkpt lat="46.5661" lon="4.90938">
        <ele>203.4</ele>
        <time>2024-09-18T13:29:35Z</time>
      </trkpt>
      <trkpt lat="46.5661" lon="4.90938">
        <ele>203.4</ele>
        <time>2024-09-18T13:29:36Z</time>
      </trkpt>
      <trkpt lat="46.5661" lon="4.90938">
        <ele>203.4</ele>
        <time>2024-09-18T13:29:37Z</time>
      </trkpt>
      <trkpt lat="46.5661" lon="4.90938">
        <ele>203.4</ele>
        <time>2024-09-18T13:29:38Z</time>
      </trkpt>
      <trkpt lat="46.5661" lon="4.90938">
        <ele>203.4</ele>
        <time>2024-09-18T13:29:39Z</time>
      </trkpt>
      <trkpt lat="46.5661" lon="4.90938">
        <ele>203.4</ele>
        <time>2024-09-18T13:29:40Z</time>
      </trkpt>
      <trkpt lat="46.5661" lon="4.90938">
        <ele>203.4</ele>
        <time>2024-09-18T13:29:41Z</time>
      </trkpt>
      <trkpt lat="46.5661" lon="4.90938">
        <ele>203.4</ele>
        <time>2024-09-18T13:29:42Z</time>
      </trkpt>
      <trkpt lat="46.5661" lon="4.90938">
        <ele>203.4</ele>
        <time>2024-09-18T13:29:43Z</time>
      </trkpt>
      <trkpt lat="46.5661" lon="4.90938">
        <ele>203.4</ele>
        <time>2024-09-18T13:29:44Z</time>
      </trkpt>
      <trkpt lat="46.5661" lon="4.90938">
        <ele>203.2</ele>
        <time>2024-09-18T13:29:45Z</time>
      </trkpt>
      <trkpt lat="46.5661" lon="4.90938">
        <ele>203.2</ele>
        <time>2024-09-18T13:29:46Z</time>
      </trkpt>
      <trkpt lat="46.5661" lon="4.90938">
        <ele>203.2</ele>
        <time>2024-09-18T13:29:47Z</time>
      </trkpt>
      <trkpt lat="46.5661" lon="4.90938">
        <ele>203.2</ele>
        <time>2024-09-18T13:29:48Z</time>
      </trkpt>
      <trkpt lat="46.5661" lon="4.90938">
        <ele>203.2</ele>
        <time>2024-09-18T13:29:49Z</time>
      </trkpt>
      <trkpt lat="46.5661" lon="4.90938">
        <ele>203.2</ele>
        <time>2024-09-18T13:29:50Z</time>
      </trkpt>
      <trkpt lat="46.5661" lon="4.90938">
        <ele>203.2</ele>
        <time>2024-09-18T13:29:51Z</time>
      </trkpt>
      <trkpt lat="46.5661" lon="4.90938">
        <ele>203.2</ele>
        <time>2024-09-18T13:29:52Z</time>
      </trkpt>
      <trkpt lat="46.5661" lon="4.90938">
        <ele>203.2</ele>
        <time>2024-09-18T13:29:53Z</time>
      </trkpt>
      <trkpt lat="46.5661" lon="4.90938">
        <ele>203.2</ele>
        <time>2024-09-18T13:29:54Z</time>
      </trkpt>
      <trkpt lat="46.5661" lon="4.90938">
        <ele>203.2</ele>
        <time>2024-09-18T13:29:55Z</time>
      </trkpt>
      <trkpt lat="46.5661" lon="4.90938">
        <ele>203.2</ele>
        <time>2024-09-18T13:29:56Z</time>
      </trkpt>
      <trkpt lat="46.5661" lon="4.90938">
        <ele>203.2</ele>
        <time>2024-09-18T13:29:57Z</time>
      </trkpt>
      <trkpt lat="46.5661" lon="4.90938">
        <ele>203.2</ele>
        <time>2024-09-18T13:29:58Z</time>
      </trkpt>
      <trkpt lat="46.5661" lon="4.90938">
        <ele>203.2</ele>
        <time>2024-09-18T13:29:59Z</time>
      </trkpt>
      <trkpt lat="46.5661" lon="4.90938">
        <ele>203.2</ele>
        <time>2024-09-18T13:30:00Z</time>
      </trkpt>
      <trkpt lat="46.5661" lon="4.90938">
        <ele>203.2</ele>
        <time>2024-09-18T13:30:01Z</time>
      </trkpt>
      <trkpt lat="46.5661" lon="4.90938">
        <ele>203.2</ele>
        <time>2024-09-18T13:30:02Z</time>
      </trkpt>
      <trkpt lat="46.5661" lon="4.90938">
        <ele>203.2</ele>
        <time>2024-09-18T13:30:03Z</time>
      </trkpt>
      <trkpt lat="46.5661" lon="4.90938">
        <ele>203.2</ele>
        <time>2024-09-18T13:30:04Z</time>
      </trkpt>
      <trkpt lat="46.5661" lon="4.90938">
        <ele>203.2</ele>
        <time>2024-09-18T13:30:05Z</time>
      </trkpt>
      <trkpt lat="46.5661" lon="4.90938">
        <ele>203.2</ele>
        <time>2024-09-18T13:30:06Z</time>
      </trkpt>
      <trkpt lat="46.5661" lon="4.90938">
        <ele>203.2</ele>
        <time>2024-09-18T13:30:07Z</time>
      </trkpt>
      <trkpt lat="46.5661" lon="4.90938">
        <ele>203.4</ele>
        <time>2024-09-18T13:30:08Z</time>
      </trkpt>
      <trkpt lat="46.5661" lon="4.90938">
        <ele>203.4</ele>
        <time>2024-09-18T13:30:09Z</time>
      </trkpt>
      <trkpt lat="46.5661" lon="4.90938">
        <ele>203.4</ele>
        <time>2024-09-18T13:30:10Z</time>
      </trkpt>
      <trkpt lat="46.5661" lon="4.90938">
        <ele>203.4</ele>
        <time>2024-09-18T13:30:11Z</time>
      </trkpt>
      <trkpt lat="46.5661" lon="4.90938">
        <ele>203.4</ele>
        <time>2024-09-18T13:30:12Z</time>
      </trkpt>
      <trkpt lat="46.5661" lon="4.90938">
        <ele>203.4</ele>
        <time>2024-09-18T13:30:13Z</time>
      </trkpt>
      <trkpt lat="46.5661" lon="4.90938">
        <ele>203.4</ele>
        <time>2024-09-18T13:30:14Z</time>
      </trkpt>
      <trkpt lat="46.5661" lon="4.90938">
        <ele>203.4</ele>
        <time>2024-09-18T13:30:15Z</time>
      </trkpt>
      <trkpt lat="46.5661" lon="4.90938">
        <ele>203.2</ele>
        <time>2024-09-18T13:30:16Z</time>
      </trkpt>
      <trkpt lat="46.5661" lon="4.90938">
        <ele>203.2</ele>
        <time>2024-09-18T13:30:17Z</time>
      </trkpt>
      <trkpt lat="46.5661" lon="4.90938">
        <ele>203.2</ele>
        <time>2024-09-18T13:30:18Z</time>
      </trkpt>
      <trkpt lat="46.5661" lon="4.90938">
        <ele>203.2</ele>
        <time>2024-09-18T13:30:19Z</time>
      </trkpt>
      <trkpt lat="46.5661" lon="4.90938">
        <ele>203.6</ele>
        <time>2024-09-18T13:30:20Z</time>
      </trkpt>
      <trkpt lat="46.5661" lon="4.90938">
        <ele>203.6</ele>
        <time>2024-09-18T13:30:21Z</time>
      </trkpt>
      <trkpt lat="46.5661" lon="4.90938">
        <ele>203</ele>
        <time>2024-09-18T13:30:22Z</time>
      </trkpt>
      <trkpt lat="46.5661" lon="4.90938">
        <ele>203</ele>
        <time>2024-09-18T13:30:23Z</time>
      </trkpt>
      <trkpt lat="46.5661" lon="4.90938">
        <ele>203</ele>
        <time>2024-09-18T13:30:24Z</time>
      </trkpt>
      <trkpt lat="46.5661" lon="4.90938">
        <ele>203</ele>
        <time>2024-09-18T13:30:25Z</time>
      </trkpt>
      <trkpt lat="46.5661" lon="4.90938">
        <ele>203.6</ele>
        <time>2024-09-18T13:30:26Z</time>
      </trkpt>
      <trkpt lat="46.5661" lon="4.90938">
        <ele>203.6</ele>
        <time>2024-09-18T13:30:27Z</time>
      </trkpt>
      <trkpt lat="46.5661" lon="4.90938">
        <ele>203.6</ele>
        <time>2024-09-18T13:30:28Z</time>
      </trkpt>
      <trkpt lat="46.5661" lon="4.90938">
        <ele>203.6</ele>
        <time>2024-09-18T13:30:29Z</time>
      </trkpt>
      <trkpt lat="46.5661" lon="4.90938">
        <ele>203</ele>
        <time>2024-09-18T13:30:30Z</time>
      </trkpt>
      <trkpt lat="46.5661" lon="4.90938">
        <ele>203</ele>
        <time>2024-09-18T13:30:31Z</time>
      </trkpt>
      <trkpt lat="46.5661" lon="4.90938">
        <ele>203</ele>
        <time>2024-09-18T13:30:32Z</time>
      </trkpt>
      <trkpt lat="46.5661" lon="4.90938">
        <ele>203</ele>
        <time>2024-09-18T13:30:33Z</time>
      </trkpt>
      <trkpt lat="46.5661" lon="4.90938">
        <ele>203</ele>
        <time>2024-09-18T13:30:34Z</time>
      </trkpt>
      <trkpt lat="46.5661" lon="4.90938">
        <ele>203.2</ele>
        <time>2024-09-18T13:30:35Z</time>
      </trkpt>
      <trkpt lat="46.5656" lon="4.90916">
        <ele>202.4</ele>
        <time>2024-09-18T13:31:49Z</time>
      </trkpt>
      <trkpt lat="46.56559" lon="4.90917">
        <ele>202.4</ele>
        <time>2024-09-18T13:31:50Z</time>
      </trkpt>
      <trkpt lat="46.56557" lon="4.90919">
        <ele>202.4</ele>
        <time>2024-09-18T13:31:51Z</time>
      </trkpt>
      <trkpt lat="46.56557" lon="4.90919">
        <ele>202.4</ele>
        <time>2024-09-18T13:31:52Z</time>
      </trkpt>
      <trkpt lat="46.56558" lon="4.90919">
        <ele>202.4</ele>
        <time>2024-09-18T13:31:53Z</time>
      </trkpt>
      <trkpt lat="46.56558" lon="4.90918">
        <ele>202.4</ele>
        <time>2024-09-18T13:31:54Z</time>
      </trkpt>
      <trkpt lat="46.56558" lon="4.90918">
        <ele>202.4</ele>
        <time>2024-09-18T13:31:55Z</time>
      </trkpt>
      <trkpt lat="46.56559" lon="4.90918">
        <ele>202.2</ele>
        <time>2024-09-18T13:31:56Z</time>
      </trkpt>
      <trkpt lat="46.56559" lon="4.90918">
        <ele>202.2</ele>
        <time>2024-09-18T13:31:57Z</time>
      </trkpt>
      <trkpt lat="46.5656" lon="4.90918">
        <ele>202.2</ele>
        <time>2024-09-18T13:31:58Z</time>
      </trkpt>
      <trkpt lat="46.5656" lon="4.90917">
        <ele>202.2</ele>
        <time>2024-09-18T13:31:59Z</time>
      </trkpt>
      <trkpt lat="46.5656" lon="4.90917">
        <ele>202.2</ele>
        <time>2024-09-18T13:32:00Z</time>
      </trkpt>
      <trkpt lat="46.56561" lon="4.90917">
        <ele>202.4</ele>
        <time>2024-09-18T13:32:01Z</time>
      </trkpt>
      <trkpt lat="46.56561" lon="4.90917">
        <ele>202.4</ele>
        <time>2024-09-18T13:32:02Z</time>
      </trkpt>
      <trkpt lat="46.56561" lon="4.90916">
        <ele>202.4</ele>
        <time>2024-09-18T13:32:03Z</time>
      </trkpt>
      <trkpt lat="46.56562" lon="4.90916">
        <ele>202.4</ele>
        <time>2024-09-18T13:32:44Z</time>
      </trkpt>
      <trkpt lat="46.56562" lon="4.90916">
        <ele>202.4</ele>
        <time>2024-09-18T13:32:45Z</time>
      </trkpt>
      <trkpt lat="46.56563" lon="4.90916">
        <ele>202.4</ele>
        <time>2024-09-18T13:32:46Z</time>
      </trkpt>
      <trkpt lat="46.56563" lon="4.90916">
        <ele>202.4</ele>
        <time>2024-09-18T13:32:47Z</time>
      </trkpt>
      <trkpt lat="46.56563" lon="4.90915">
        <ele>202.4</ele>
        <time>2024-09-18T13:32:48Z</time>
      </trkpt>
      <trkpt lat="46.56564" lon="4.90915">
        <ele>202.2</ele>
        <time>2024-09-18T13:32:49Z</time>
      </trkpt>
      <trkpt lat="46.56564" lon="4.90915">
        <ele>202.2</ele>
        <time>2024-09-18T13:32:50Z</time>
      </trkpt>
      <trkpt lat="46.56564" lon="4.90915">
        <ele>201.6</ele>
        <time>2024-09-18T13:33:10Z</time>
      </trkpt>
      <trkpt lat="46.56565" lon="4.90914">
        <ele>201.6</ele>
        <time>2024-09-18T13:33:11Z</time>
      </trkpt>
      <trkpt lat="46.56565" lon="4.90914">
        <ele>201.4</ele>
        <time>2024-09-18T13:33:12Z</time>
      </trkpt>
      <trkpt lat="46.56566" lon="4.90914">
        <ele>201.4</ele>
        <time>2024-09-18T13:33:13Z</time>
      </trkpt>
      <trkpt lat="46.56566" lon="4.90914">
        <ele>201.4</ele>
        <time>2024-09-18T13:33:14Z</time>
      </trkpt>
      <trkpt lat="46.56566" lon="4.90914">
        <ele>201.4</ele>
        <time>2024-09-18T13:33:15Z</time>
      </trkpt>
      <trkpt lat="46.56567" lon="4.90913">
        <ele>201.4</ele>
        <time>2024-09-18T13:33:16Z</time>
      </trkpt>
      <trkpt lat="46.56567" lon="4.90913">
        <ele>201.2</ele>
        <time>2024-09-18T13:33:25Z</time>
      </trkpt>
      <trkpt lat="46.56567" lon="4.90913">
        <ele>201.2</ele>
        <time>2024-09-18T13:33:26Z</time>
      </trkpt>
      <trkpt lat="46.56568" lon="4.90913">
        <ele>201.4</ele>
        <time>2024-09-18T13:33:27Z</time>
      </trkpt>
      <trkpt lat="46.56568" lon="4.90912">
        <ele>201.4</ele>
        <time>2024-09-18T13:33:28Z</time>
      </trkpt>
      <trkpt lat="46.56569" lon="4.90912">
        <ele>202.2</ele>
        <time>2024-09-18T13:34:15Z</time>
      </trkpt>
      <trkpt lat="46.56569" lon="4.90912">
        <ele>202</ele>
        <time>2024-09-18T13:34:16Z</time>
      </trkpt>
      <trkpt lat="46.56569" lon="4.90912">
        <ele>202</ele>
        <time>2024-09-18T13:34:17Z</time>
      </trkpt>
      <trkpt lat="46.5657" lon="4.90912">
        <ele>202.2</ele>
        <time>2024-09-18T13:34:18Z</time>
      </trkpt>
      <trkpt lat="46.5657" lon="4.90911">
        <ele>202.2</ele>
        <time>2024-09-18T13:34:19Z</time>
      </trkpt>
      <trkpt lat="46.5657" lon="4.90911">
        <ele>202.2</ele>
        <time>2024-09-18T13:34:20Z</time>
      </trkpt>
      <trkpt lat="46.56571" lon="4.90911">
        <ele>202.4</ele>
        <time>2024-09-18T13:34:21Z</time>
      </trkpt>
      <trkpt lat="46.56571" lon="4.90911">
        <ele>202.4</ele>
        <time>2024-09-18T13:34:22Z</time>
      </trkpt>
      <trkpt lat="46.56571" lon="4.90911">
        <ele>202.4</ele>
        <time>2024-09-18T13:34:23Z</time>
      </trkpt>
      <trkpt lat="46.56572" lon="4.9091">
        <ele>202.4</ele>
        <time>2024-09-18T13:34:24Z</time>
      </trkpt>
      <trkpt lat="46.56572" lon="4.9091">
        <ele>201.8</ele>
        <time>2024-09-18T13:34:28Z</time>
      </trkpt>
      <trkpt lat="46.56573" lon="4.9091">
        <ele>201.8</ele>
        <time>2024-09-18T13:34:29Z</time>
      </trkpt>
      <trkpt lat="46.56573" lon="4.9091">
        <ele>202.4</ele>
        <time>2024-09-18T13:34:30Z</time>
      </trkpt>
      <trkpt lat="46.56573" lon="4.90909">
        <ele>202.4</ele>
        <time>2024-09-18T13:34:31Z</time>
      </trkpt>
      <trkpt lat="46.56578" lon="4.90912">
        <ele>202.4</ele>
        <time>2024-09-18T13:34:32Z</time>
      </trkpt>
      <trkpt lat="46.56578" lon="4.90912">
        <ele>202.4</ele>
        <time>2024-09-18T13:34:33Z</time>
      </trkpt>
      <trkpt lat="46.56578" lon="4.90912">
        <ele>202.4</ele>
        <time>2024-09-18T13:34:34Z</time>
      </trkpt>
      <trkpt lat="46.56585" lon="4.90912">
        <ele>201.8</ele>
        <time>2024-09-18T13:34:35Z</time>
      </trkpt>
      <trkpt lat="46.56585" lon="4.90911">
        <ele>201.8</ele>
        <time>2024-09-18T13:34:36Z</time>
      </trkpt>
      <trkpt lat="46.56585" lon="4.90911">
        <ele>201.8</ele>
        <time>2024-09-18T13:34:37Z</time>
      </trkpt>
      <trkpt lat="46.56585" lon="4.9091">
        <ele>202.8</ele>
        <time>2024-09-18T13:34:38Z</time>
      </trkpt>
      <trkpt lat="46.56585" lon="4.9091">
        <ele>203.2</ele>
        <time>2024-09-18T13:34:39Z</time>
      </trkpt>
      <trkpt lat="46.56585" lon="4.90909">
        <ele>203.2</ele>
        <time>2024-09-18T13:34:40Z</time>
      </trkpt>
      <trkpt lat="46.56585" lon="4.90909">
        <ele>203.2</ele>
        <time>2024-09-18T13:34:41Z</time>
      </trkpt>
      <trkpt lat="46.56585" lon="4.90909">
        <ele>202.4</ele>
        <time>2024-09-18T13:34:42Z</time>
      </trkpt>
      <trkpt lat="46.56585" lon="4.90908">
        <ele>202.4</ele>
        <time>2024-09-18T13:34:43Z</time>
      </trkpt>
      <trkpt lat="46.56585" lon="4.90908">
        <ele>202.8</ele>
        <time>2024-09-18T13:34:44Z</time>
      </trkpt>
      <trkpt lat="46.56586" lon="4.90907">
        <ele>202.8</ele>
        <time>2024-09-18T13:34:45Z</time>
      </trkpt>
      <trkpt lat="46.56586" lon="4.90907">
        <ele>202.8</ele>
        <time>2024-09-18T13:34:46Z</time>
      </trkpt>
      <trkpt lat="46.56586" lon="4.90906">
        <ele>203</ele>
        <time>2024-09-18T13:34:47Z</time>
      </trkpt>
      <trkpt lat="46.56586" lon="4.90906">
        <ele>202.8</ele>
        <time>2024-09-18T13:34:48Z</time>
      </trkpt>
      <trkpt lat="46.56586" lon="4.90906">
        <ele>202.8</ele>
        <time>2024-09-18T13:34:49Z</time>
      </trkpt>
      <trkpt lat="46.56586" lon="4.90905">
        <ele>202.8</ele>
        <time>2024-09-18T13:34:50Z</time>
      </trkpt>
      <trkpt lat="46.56586" lon="4.90905">
        <ele>202.8</ele>
        <time>2024-09-18T13:34:51Z</time>
      </trkpt>
      <trkpt lat="46.56586" lon="4.90904">
        <ele>203</ele>
        <time>2024-09-18T13:34:52Z</time>
      </trkpt>
      <trkpt lat="46.56586" lon="4.90904">
        <ele>203</ele>
        <time>2024-09-18T13:34:53Z</time>
      </trkpt>
      <trkpt lat="46.56586" lon="4.90903">
        <ele>203</ele>
        <time>2024-09-18T13:34:54Z</time>
      </trkpt>
      <trkpt lat="46.56586" lon="4.90903">
        <ele>203</ele>
        <time>2024-09-18T13:34:55Z</time>
      </trkpt>
      <trkpt lat="46.56586" lon="4.90903">
        <ele>203</ele>
        <time>2024-09-18T13:34:56Z</time>
      </trkpt>
      <trkpt lat="46.56586" lon="4.90902">
        <ele>203</ele>
        <time>2024-09-18T13:34:57Z</time>
      </trkpt>
      <trkpt lat="46.56586" lon="4.90902">
        <ele>203</ele>
        <time>2024-09-18T13:34:58Z</time>
      </trkpt>
      <trkpt lat="46.56586" lon="4.90901">
        <ele>203</ele>
        <time>2024-09-18T13:34:59Z</time>
      </trkpt>
      <trkpt lat="46.56586" lon="4.90901">
        <ele>203</ele>
        <time>2024-09-18T13:35:00Z</time>
      </trkpt>
      <trkpt lat="46.56586" lon="4.909">
        <ele>203</ele>
        <time>2024-09-18T13:35:01Z</time>
      </trkpt>
      <trkpt lat="46.56586" lon="4.909">
        <ele>203</ele>
        <time>2024-09-18T13:35:02Z</time>
      </trkpt>
      <trkpt lat="46.56586" lon="4.909">
        <ele>203</ele>
        <time>2024-09-18T13:35:03Z</time>
      </trkpt>
      <trkpt lat="46.56587" lon="4.90899">
        <ele>203</ele>
        <time>2024-09-18T13:35:04Z</time>
      </trkpt>
      <trkpt lat="46.56587" lon="4.90899">
        <ele>203</ele>
        <time>2024-09-18T13:35:05Z</time>
      </trkpt>
      <trkpt lat="46.56587" lon="4.90898">
        <ele>203.2</ele>
        <time>2024-09-18T13:35:06Z</time>
      </trkpt>
      <trkpt lat="46.56587" lon="4.90898">
        <ele>203.2</ele>
        <time>2024-09-18T13:35:07Z</time>
      </trkpt>
      <trkpt lat="46.56587" lon="4.90898">
        <ele>203.2</ele>
        <time>2024-09-18T13:35:08Z</time>
      </trkpt>
      <trkpt lat="46.56587" lon="4.90897">
        <ele>203.2</ele>
        <time>2024-09-18T13:35:09Z</time>
      </trkpt>
      <trkpt lat="46.56587" lon="4.90897">
        <ele>202.4</ele>
        <time>2024-09-18T13:35:10Z</time>
      </trkpt>
      <trkpt lat="46.56587" lon="4.90896">
        <ele>203.2</ele>
        <time>2024-09-18T13:35:11Z</time>
      </trkpt>
      <trkpt lat="46.56587" lon="4.90896">
        <ele>203.2</ele>
        <time>2024-09-18T13:35:12Z</time>
      </trkpt>
      <trkpt lat="46.56587" lon="4.90895">
        <ele>203.2</ele>
        <time>2024-09-18T13:35:13Z</time>
      </trkpt>
      <trkpt lat="46.56587" lon="4.90895">
        <ele>203.8</ele>
        <time>2024-09-18T13:35:14Z</time>
      </trkpt>
      <trkpt lat="46.56587" lon="4.90895">
        <ele>203.4</ele>
        <time>2024-09-18T13:35:15Z</time>
      </trkpt>
      <trkpt lat="46.56587" lon="4.90894">
        <ele>203.4</ele>
        <time>2024-09-18T13:35:16Z</time>
      </trkpt>
      <trkpt lat="46.56587" lon="4.90894">
        <ele>203.4</ele>
        <time>2024-09-18T13:35:17Z</time>
      </trkpt>
      <trkpt lat="46.56587" lon="4.90893">
        <ele>203.4</ele>
        <time>2024-09-18T13:35:18Z</time>
      </trkpt>
      <trkpt lat="46.56587" lon="4.90893">
        <ele>203.4</ele>
        <time>2024-09-18T13:35:19Z</time>
      </trkpt>
      <trkpt lat="46.56587" lon="4.90892">
        <ele>203.8</ele>
        <time>2024-09-18T13:35:20Z</time>
      </trkpt>
      <trkpt lat="46.56587" lon="4.90892">
        <ele>203.8</ele>
        <time>2024-09-18T13:35:21Z</time>
      </trkpt>
      <trkpt lat="46.56588" lon="4.90892">
        <ele>203.8</ele>
        <time>2024-09-18T13:35:22Z</time>
      </trkpt>
      <trkpt lat="46.56588" lon="4.90891">
        <ele>203.8</ele>
        <time>2024-09-18T13:35:23Z</time>
      </trkpt>
      <trkpt lat="46.56588" lon="4.90891">
        <ele>204</ele>
        <time>2024-09-18T13:35:24Z</time>
      </trkpt>
      <trkpt lat="46.56588" lon="4.9089">
        <ele>204</ele>
        <time>2024-09-18T13:35:25Z</time>
      </trkpt>
      <trkpt lat="46.56588" lon="4.9089">
        <ele>204</ele>
        <time>2024-09-18T13:35:26Z</time>
      </trkpt>
      <trkpt lat="46.56588" lon="4.90889">
        <ele>204</ele>
        <time>2024-09-18T13:35:27Z</time>
      </trkpt>
      <trkpt lat="46.56588" lon="4.90889">
        <ele>204.8</ele>
        <time>2024-09-18T13:35:28Z</time>
      </trkpt>
      <trkpt lat="46.56588" lon="4.90889">
        <ele>204.8</ele>
        <time>2024-09-18T13:35:29Z</time>
      </trkpt>
      <trkpt lat="46.56588" lon="4.90888">
        <ele>204.8</ele>
        <time>2024-09-18T13:35:30Z</time>
      </trkpt>
      <trkpt lat="46.56588" lon="4.90888">
        <ele>204.8</ele>
        <time>2024-09-18T13:35:31Z</time>
      </trkpt>
      <trkpt lat="46.56588" lon="4.90887">
        <ele>205.8</ele>
        <time>2024-09-18T13:35:32Z</time>
      </trkpt>
      <trkpt lat="46.56588" lon="4.90887">
        <ele>205.6</ele>
        <time>2024-09-18T13:35:33Z</time>
      </trkpt>
      <trkpt lat="46.56588" lon="4.90886">
        <ele>205.6</ele>
        <time>2024-09-18T13:35:34Z</time>
      </trkpt>
      <trkpt lat="46.56588" lon="4.90886">
        <ele>205.6</ele>
        <time>2024-09-18T13:35:35Z</time>
      </trkpt>
      <trkpt lat="46.56588" lon="4.90886">
        <ele>205.6</ele>
        <time>2024-09-18T13:35:36Z</time>
      </trkpt>
      <trkpt lat="46.56588" lon="4.90885">
        <ele>206.6</ele>
        <time>2024-09-18T13:35:37Z</time>
      </trkpt>
      <trkpt lat="46.56588" lon="4.90885">
        <ele>206.4</ele>
        <time>2024-09-18T13:35:38Z</time>
      </trkpt>
      <trkpt lat="46.56588" lon="4.90884">
        <ele>206.4</ele>
        <time>2024-09-18T13:35:39Z</time>
      </trkpt>
      <trkpt lat="46.56588" lon="4.90884">
        <ele>206.4</ele>
        <time>2024-09-18T13:35:40Z</time>
      </trkpt>
      <trkpt lat="46.56589" lon="4.90883">
        <ele>207.4</ele>
        <time>2024-09-18T13:35:41Z</time>
      </trkpt>
      <trkpt lat="46.56589" lon="4.90883">
        <ele>207.4</ele>
        <time>2024-09-18T13:35:42Z</time>
      </trkpt>
      <trkpt lat="46.56589" lon="4.90883">
        <ele>208.6</ele>
        <time>2024-09-18T13:35:43Z</time>
      </trkpt>
      <trkpt lat="46.56589" lon="4.90882">
        <ele>208.6</ele>
        <time>2024-09-18T13:35:44Z</time>
      </trkpt>
      <trkpt lat="46.56589" lon="4.90882">
        <ele>208.6</ele>
        <time>2024-09-18T13:35:45Z</time>
      </trkpt>
      <trkpt lat="46.56589" lon="4.90881">
        <ele>209</ele>
        <time>2024-09-18T13:35:46Z</time>
      </trkpt>
      <trkpt lat="46.56589" lon="4.90881">
        <ele>209</ele>
        <time>2024-09-18T13:35:47Z</time>
      </trkpt>
      <trkpt lat="46.56589" lon="4.9088">
        <ele>209</ele>
        <time>2024-09-18T13:35:48Z</time>
      </trkpt>
      <trkpt lat="46.56589" lon="4.9088">
        <ele>209</ele>
        <time>2024-09-18T13:35:49Z</time>
      </trkpt>
      <trkpt lat="46.56589" lon="4.9088">
        <ele>209</ele>
        <time>2024-09-18T13:35:50Z</time>
      </trkpt>
      <trkpt lat="46.56593" lon="4.90847">
        <ele>210.8</ele>
        <time>2024-09-18T13:35:51Z</time>
      </trkpt>
      <trkpt lat="46.56592" lon="4.90848">
        <ele>210.8</ele>
        <time>2024-09-18T13:35:52Z</time>
      </trkpt>
      <trkpt lat="46.5659" lon="4.9085">
        <ele>210.8</ele>
        <time>2024-09-18T13:35:53Z</time>
      </trkpt>
      <trkpt lat="46.56585" lon="4.90854">
        <ele>210.8</ele>
        <time>2024-09-18T13:35:54Z</time>
      </trkpt>
      <trkpt lat="46.56582" lon="4.90857">
        <ele>211.6</ele>
        <time>2024-09-18T13:35:55Z</time>
      </trkpt>
      <trkpt lat="46.56576" lon="4.90862">
        <ele>211.6</ele>
        <time>2024-09-18T13:35:56Z</time>
      </trkpt>
      <trkpt lat="46.56576" lon="4.90862">
        <ele>211.6</ele>
        <time>2024-09-18T13:35:57Z</time>
      </trkpt>
      <trkpt lat="46.56572" lon="4.90866">
        <ele>211.6</ele>
        <time>2024-09-18T13:35:58Z</time>
      </trkpt>
      <trkpt lat="46.56569" lon="4.90866">
        <ele>211.6</ele>
        <time>2024-09-18T13:35:59Z</time>
      </trkpt>
      <trkpt lat="46.56563" lon="4.90866">
        <ele>211.2</ele>
        <time>2024-09-18T13:36:00Z</time>
      </trkpt>
      <trkpt lat="46.56558" lon="4.90867">
        <ele>211.2</ele>
        <time>2024-09-18T13:36:01Z</time>
      </trkpt>
      <trkpt lat="46.56554" lon="4.90866">
        <ele>211.2</ele>
        <time>2024-09-18T13:36:02Z</time>
      </trkpt>
      <trkpt lat="46.56555" lon="4.90858">
        <ele>211.6</ele>
        <time>2024-09-18T13:36:03Z</time>
      </trkpt>
      <trkpt lat="46.56556" lon="4.90854">
        <ele>211.4</ele>
        <time>2024-09-18T13:36:04Z</time>
      </trkpt>
      <trkpt lat="46.56557" lon="4.90852">
        <ele>211.4</ele>
        <time>2024-09-18T13:36:05Z</time>
      </trkpt>
      <trkpt lat="46.56556" lon="4.90847">
        <ele>211.4</ele>
        <time>2024-09-18T13:36:06Z</time>
      </trkpt>
      <trkpt lat="46.56552" lon="4.90844">
        <ele>211.4</ele>
        <time>2024-09-18T13:36:07Z</time>
      </trkpt>
      <trkpt lat="46.56552" lon="4.90844">
        <ele>211.6</ele>
        <time>2024-09-18T13:36:08Z</time>
      </trkpt>
      <trkpt lat="46.56552" lon="4.90844">
        <ele>211.6</ele>
        <time>2024-09-18T13:36:09Z</time>
      </trkpt>
      <trkpt lat="46.56552" lon="4.90844">
        <ele>211.6</ele>
        <time>2024-09-18T13:36:10Z</time>
      </trkpt>
      <trkpt lat="46.56552" lon="4.90844">
        <ele>211.6</ele>
        <time>2024-09-18T13:36:11Z</time>
      </trkpt>
      <trkpt lat="46.56552" lon="4.90844">
        <ele>211.4</ele>
        <time>2024-09-18T13:36:12Z</time>
      </trkpt>
      <trkpt lat="46.56551" lon="4.90844">
        <ele>211.4</ele>
        <time>2024-09-18T13:36:13Z</time>
      </trkpt>
      <trkpt lat="46.56551" lon="4.90845">
        <ele>211.4</ele>
        <time>2024-09-18T13:36:14Z</time>
      </trkpt>
      <trkpt lat="46.56551" lon="4.90845">
        <ele>211.4</ele>
        <time>2024-09-18T13:36:15Z</time>
      </trkpt>
      <trkpt lat="46.56551" lon="4.90845">
        <ele>211.4</ele>
        <time>2024-09-18T13:36:16Z</time>
      </trkpt>
      <trkpt lat="46.56551" lon="4.90845">
        <ele>211.6</ele>
        <time>2024-09-18T13:36:17Z</time>
      </trkpt>
      <trkpt lat="46.56551" lon="4.90845">
        <ele>211.6</ele>
        <time>2024-09-18T13:36:18Z</time>
      </trkpt>
      <trkpt lat="46.5655" lon="4.90845">
        <ele>211.6</ele>
        <time>2024-09-18T13:36:19Z</time>
      </trkpt>
      <trkpt lat="46.5655" lon="4.90845">
        <ele>211.6</ele>
        <time>2024-09-18T13:36:20Z</time>
      </trkpt>
      <trkpt lat="46.5655" lon="4.90845">
        <ele>211.6</ele>
        <time>2024-09-18T13:36:21Z</time>
      </trkpt>
      <trkpt lat="46.5655" lon="4.90845">
        <ele>211.6</ele>
        <time>2024-09-18T13:36:22Z</time>
      </trkpt>
      <trkpt lat="46.5655" lon="4.90845">
        <ele>211.6</ele>
        <time>2024-09-18T13:36:23Z</time>
      </trkpt>
      <trkpt lat="46.56549" lon="4.90845">
        <ele>211.6</ele>
        <time>2024-09-18T13:36:24Z</time>
      </trkpt>
      <trkpt lat="46.56549" lon="4.90845">
        <ele>211.6</ele>
        <time>2024-09-18T13:36:25Z</time>
      </trkpt>
      <trkpt lat="46.56549" lon="4.90845">
        <ele>211.4</ele>
        <time>2024-09-18T13:36:26Z</time>
      </trkpt>
      <trkpt lat="46.56549" lon="4.90845">
        <ele>211.4</ele>
        <time>2024-09-18T13:36:27Z</time>
      </trkpt>
      <trkpt lat="46.56549" lon="4.90845">
        <ele>211.4</ele>
        <time>2024-09-18T13:36:28Z</time>
      </trkpt>
      <trkpt lat="46.56549" lon="4.90846">
        <ele>211.4</ele>
        <time>2024-09-18T13:36:29Z</time>
      </trkpt>
      <trkpt lat="46.56548" lon="4.90846">
        <ele>211.4</ele>
        <time>2024-09-18T13:36:30Z</time>
      </trkpt>
      <trkpt lat="46.56548" lon="4.90846">
        <ele>211.6</ele>
        <time>2024-09-18T13:36:31Z</time>
      </trkpt>
      <trkpt lat="46.56548" lon="4.90846">
        <ele>211.6</ele>
        <time>2024-09-18T13:36:32Z</time>
      </trkpt>
      <trkpt lat="46.56548" lon="4.90846">
        <ele>211.6</ele>
        <time>2024-09-18T13:36:33Z</time>
      </trkpt>
      <trkpt lat="46.56548" lon="4.90846">
        <ele>211.6</ele>
        <time>2024-09-18T13:36:34Z</time>
      </trkpt>
      <trkpt lat="46.56548" lon="4.90846">
        <ele>211.6</ele>
        <time>2024-09-18T13:36:35Z</time>
      </trkpt>
      <trkpt lat="46.56547" lon="4.90846">
        <ele>211.2</ele>
        <time>2024-09-18T13:36:36Z</time>
      </trkpt>
      <trkpt lat="46.56547" lon="4.90846">
        <ele>211.2</ele>
        <time>2024-09-18T13:36:37Z</time>
      </trkpt>
      <trkpt lat="46.56547" lon="4.90846">
        <ele>211.2</ele>
        <time>2024-09-18T13:36:38Z</time>
      </trkpt>
      <trkpt lat="46.56547" lon="4.90846">
        <ele>211.2</ele>
        <time>2024-09-18T13:36:39Z</time>
      </trkpt>
      <trkpt lat="46.56547" lon="4.90846">
        <ele>211.6</ele>
        <time>2024-09-18T13:36:40Z</time>
      </trkpt>
      <trkpt lat="46.56546" lon="4.90846">
        <ele>211.6</ele>
        <time>2024-09-18T13:36:41Z</time>
      </trkpt>
      <trkpt lat="46.56546" lon="4.90846">
        <ele>211.6</ele>
        <time>2024-09-18T13:36:42Z</time>
      </trkpt>
      <trkpt lat="46.56546" lon="4.90847">
        <ele>211.4</ele>
        <time>2024-09-18T13:36:43Z</time>
      </trkpt>
      <trkpt lat="46.56546" lon="4.90847">
        <ele>211.4</ele>
        <time>2024-09-18T13:36:44Z</time>
      </trkpt>
      <trkpt lat="46.56546" lon="4.90847">
        <ele>211.4</ele>
        <time>2024-09-18T13:36:45Z</time>
      </trkpt>
      <trkpt lat="46.56546" lon="4.90847">
        <ele>211.4</ele>
        <time>2024-09-18T13:36:46Z</time>
      </trkpt>
      <trkpt lat="46.56545" lon="4.90847">
        <ele>211.4</ele>
        <time>2024-09-18T13:36:47Z</time>
      </trkpt>
      <trkpt lat="46.56545" lon="4.90847">
        <ele>211.4</ele>
        <time>2024-09-18T13:36:48Z</time>
      </trkpt>
      <trkpt lat="46.56545" lon="4.90847">
        <ele>211.4</ele>
        <time>2024-09-18T13:36:49Z</time>
      </trkpt>
      <trkpt lat="46.56545" lon="4.90847">
        <ele>211.4</ele>
        <time>2024-09-18T13:36:50Z</time>
      </trkpt>
      <trkpt lat="46.56545" lon="4.90847">
        <ele>211.4</ele>
        <time>2024-09-18T13:36:51Z</time>
      </trkpt>
      <trkpt lat="46.56544" lon="4.90847">
        <ele>211.4</ele>
        <time>2024-09-18T13:36:52Z</time>
      </trkpt>
      <trkpt lat="46.56544" lon="4.90847">
        <ele>211.4</ele>
        <time>2024-09-18T13:36:53Z</time>
      </trkpt>
      <trkpt lat="46.56544" lon="4.90847">
        <ele>211.4</ele>
        <time>2024-09-18T13:36:54Z</time>
      </trkpt>
      <trkpt lat="46.56544" lon="4.90847">
        <ele>211.4</ele>
        <time>2024-09-18T13:36:55Z</time>
      </trkpt>
      <trkpt lat="46.56544" lon="4.90847">
        <ele>211.4</ele>
        <time>2024-09-18T13:36:56Z</time>
      </trkpt>
      <trkpt lat="46.56544" lon="4.90848">
        <ele>211.4</ele>
        <time>2024-09-18T13:36:57Z</time>
      </trkpt>
      <trkpt lat="46.56543" lon="4.90848">
        <ele>211.6</ele>
        <time>2024-09-18T13:36:58Z</time>
      </trkpt>
      <trkpt lat="46.56543" lon="4.90848">
        <ele>211.6</ele>
        <time>2024-09-18T13:36:59Z</time>
      </trkpt>
      <trkpt lat="46.56543" lon="4.90848">
        <ele>211.6</ele>
        <time>2024-09-18T13:37:00Z</time>
      </trkpt>
      <trkpt lat="46.56543" lon="4.90848">
        <ele>211.4</ele>
        <time>2024-09-18T13:37:01Z</time>
      </trkpt>
      <trkpt lat="46.56543" lon="4.90848">
        <ele>211.4</ele>
        <time>2024-09-18T13:37:02Z</time>
      </trkpt>
      <trkpt lat="46.56543" lon="4.90848">
        <ele>211.6</ele>
        <time>2024-09-18T13:37:03Z</time>
      </trkpt>
      <trkpt lat="46.56542" lon="4.90848">
        <ele>211.6</ele>
        <time>2024-09-18T13:37:04Z</time>
      </trkpt>
      <trkpt lat="46.56542" lon="4.90848">
        <ele>211.6</ele>
        <time>2024-09-18T13:37:05Z</time>
      </trkpt>
      <trkpt lat="46.56542" lon="4.90848">
        <ele>211.4</ele>
        <time>2024-09-18T13:37:06Z</time>
      </trkpt>
      <trkpt lat="46.56542" lon="4.90848">
        <ele>211.4</ele>
        <time>2024-09-18T13:37:07Z</time>
      </trkpt>
      <trkpt lat="46.56542" lon="4.90848">
        <ele>211.6</ele>
        <time>2024-09-18T13:37:08Z</time>
      </trkpt>
      <trkpt lat="46.56541" lon="4.90848">
        <ele>211.6</ele>
        <time>2024-09-18T13:37:09Z</time>
      </trkpt>
      <trkpt lat="46.56541" lon="4.90848">
        <ele>211.6</ele>
        <time>2024-09-18T13:37:10Z</time>
      </trkpt>
      <trkpt lat="46.56541" lon="4.90849">
        <ele>211.6</ele>
        <time>2024-09-18T13:37:11Z</time>
      </trkpt>
      <trkpt lat="46.56541" lon="4.90849">
        <ele>211.6</ele>
        <time>2024-09-18T13:37:12Z</time>
      </trkpt>
      <trkpt lat="46.56541" lon="4.90849">
        <ele>211.6</ele>
        <time>2024-09-18T13:37:13Z</time>
      </trkpt>
      <trkpt lat="46.56541" lon="4.90849">
        <ele>211.6</ele>
        <time>2024-09-18T13:37:14Z</time>
      </trkpt>
      <trkpt lat="46.5654" lon="4.90849">
        <ele>211.4</ele>
        <time>2024-09-18T13:37:15Z</time>
      </trkpt>
      <trkpt lat="46.5654" lon="4.90849">
        <ele>211.4</ele>
        <time>2024-09-18T13:37:16Z</time>
      </trkpt>
      <trkpt lat="46.5654" lon="4.90849">
        <ele>211.4</ele>
        <time>2024-09-18T13:37:17Z</time>
      </trkpt>
      <trkpt lat="46.5654" lon="4.90849">
        <ele>211.4</ele>
        <time>2024-09-18T13:37:18Z</time>
      </trkpt>
      <trkpt lat="46.5654" lon="4.90849">
        <ele>211.4</ele>
        <time>2024-09-18T13:37:19Z</time>
      </trkpt>
      <trkpt lat="46.5654" lon="4.90849">
        <ele>211.4</ele>
        <time>2024-09-18T13:37:20Z</time>
      </trkpt>
      <trkpt lat="46.56539" lon="4.90849">
        <ele>211.4</ele>
        <time>2024-09-18T13:37:21Z</time>
      </trkpt>
      <trkpt lat="46.56539" lon="4.90849">
        <ele>211.4</ele>
        <time>2024-09-18T13:37:22Z</time>
      </trkpt>
      <trkpt lat="46.56539" lon="4.90849">
        <ele>211.4</ele>
        <time>2024-09-18T13:37:23Z</time>
      </trkpt>
      <trkpt lat="46.56539" lon="4.90849">
        <ele>211.4</ele>
        <time>2024-09-18T13:37:24Z</time>
      </trkpt>
      <trkpt lat="46.56539" lon="4.9085">
        <ele>211.2</ele>
        <time>2024-09-18T13:37:25Z</time>
      </trkpt>
      <trkpt lat="46.56538" lon="4.9085">
        <ele>211.2</ele>
        <time>2024-09-18T13:37:26Z</time>
      </trkpt>
      <trkpt lat="46.56538" lon="4.9085">
        <ele>211.2</ele>
        <time>2024-09-18T13:37:27Z</time>
      </trkpt>
      <trkpt lat="46.56538" lon="4.9085">
        <ele>211.4</ele>
        <time>2024-09-18T13:37:28Z</time>
      </trkpt>
      <trkpt lat="46.56538" lon="4.9085">
        <ele>211.6</ele>
        <time>2024-09-18T13:37:29Z</time>
      </trkpt>
      <trkpt lat="46.56538" lon="4.9085">
        <ele>211.6</ele>
        <time>2024-09-18T13:37:30Z</time>
      </trkpt>
      <trkpt lat="46.56538" lon="4.9085">
        <ele>211.6</ele>
        <time>2024-09-18T13:37:31Z</time>
      </trkpt>
      <trkpt lat="46.56537" lon="4.9085">
        <ele>211.4</ele>
        <time>2024-09-18T13:37:32Z</time>
      </trkpt>
      <trkpt lat="46.56537" lon="4.9085">
        <ele>211.4</ele>
        <time>2024-09-18T13:37:33Z</time>
      </trkpt>
      <trkpt lat="46.56537" lon="4.9085">
        <ele>211.4</ele>
        <time>2024-09-18T13:37:34Z</time>
      </trkpt>
      <trkpt lat="46.56537" lon="4.9085">
        <ele>211.4</ele>
        <time>2024-09-18T13:37:35Z</time>
      </trkpt>
      <trkpt lat="46.56537" lon="4.9085">
        <ele>211.4</ele>
        <time>2024-09-18T13:37:36Z</time>
      </trkpt>
      <trkpt lat="46.56537" lon="4.9085">
        <ele>211.2</ele>
        <time>2024-09-18T13:37:37Z</time>
      </trkpt>
      <trkpt lat="46.56536" lon="4.9085">
        <ele>211.2</ele>
        <time>2024-09-18T13:37:38Z</time>
      </trkpt>
      <trkpt lat="46.56536" lon="4.9085">
        <ele>211.2</ele>
        <time>2024-09-18T13:37:39Z</time>
      </trkpt>
      <trkpt lat="46.56536" lon="4.90851">
        <ele>211.2</ele>
        <time>2024-09-18T13:37:40Z</time>
      </trkpt>
      <trkpt lat="46.56536" lon="4.90851">
        <ele>211.2</ele>
        <time>2024-09-18T13:37:41Z</time>
      </trkpt>
      <trkpt lat="46.56536" lon="4.90851">
        <ele>211.2</ele>
        <time>2024-09-18T13:37:42Z</time>
      </trkpt>
      <trkpt lat="46.56535" lon="4.90851">
        <ele>211.2</ele>
        <time>2024-09-18T13:37:43Z</time>
      </trkpt>
      <trkpt lat="46.56535" lon="4.90851">
        <ele>211.2</ele>
        <time>2024-09-18T13:37:44Z</time>
      </trkpt>
      <trkpt lat="46.56535" lon="4.90851">
        <ele>211.2</ele>
        <time>2024-09-18T13:37:45Z</time>
      </trkpt>
      <trkpt lat="46.56535" lon="4.90851">
        <ele>211.4</ele>
        <time>2024-09-18T13:37:46Z</time>
      </trkpt>
      <trkpt lat="46.56535" lon="4.90851">
        <ele>211.6</ele>
        <time>2024-09-18T13:37:47Z</time>
      </trkpt>
      <trkpt lat="46.56535" lon="4.90851">
        <ele>211.6</ele>
        <time>2024-09-18T13:37:48Z</time>
      </trkpt>
      <trkpt lat="46.56534" lon="4.90851">
        <ele>211.6</ele>
        <time>2024-09-18T13:37:49Z</time>
      </trkpt>
      <trkpt lat="46.56534" lon="4.90851">
        <ele>211.6</ele>
        <time>2024-09-18T13:37:50Z</time>
      </trkpt>
      <trkpt lat="46.56534" lon="4.90851">
        <ele>211.4</ele>
        <time>2024-09-18T13:37:51Z</time>
      </trkpt>
      <trkpt lat="46.56534" lon="4.90851">
        <ele>211.4</ele>
        <time>2024-09-18T13:37:52Z</time>
      </trkpt>
      <trkpt lat="46.56534" lon="4.90851">
        <ele>211.4</ele>
        <time>2024-09-18T13:37:53Z</time>
      </trkpt>
      <trkpt lat="46.56534" lon="4.90852">
        <ele>211.4</ele>
        <time>2024-09-18T13:37:54Z</time>
      </trkpt>
      <trkpt lat="46.56533" lon="4.90852">
        <ele>211.4</ele>
        <time>2024-09-18T13:37:55Z</time>
      </trkpt>
      <trkpt lat="46.56533" lon="4.90852">
        <ele>211.4</ele>
        <time>2024-09-18T13:37:56Z</time>
      </trkpt>
      <trkpt lat="46.56533" lon="4.90852">
        <ele>211.4</ele>
        <time>2024-09-18T13:37:57Z</time>
      </trkpt>
      <trkpt lat="46.56533" lon="4.90852">
        <ele>211.4</ele>
        <time>2024-09-18T13:37:58Z</time>
      </trkpt>
      <trkpt lat="46.56533" lon="4.90852">
        <ele>211</ele>
        <time>2024-09-18T13:37:59Z</time>
      </trkpt>
      <trkpt lat="46.56532" lon="4.90852">
        <ele>211</ele>
        <time>2024-09-18T13:38:00Z</time>
      </trkpt>
      <trkpt lat="46.56532" lon="4.90852">
        <ele>211</ele>
        <time>2024-09-18T13:38:01Z</time>
      </trkpt>
      <trkpt lat="46.56532" lon="4.90852">
        <ele>211</ele>
        <time>2024-09-18T13:38:02Z</time>
      </trkpt>
      <trkpt lat="46.56532" lon="4.90852">
        <ele>211</ele>
        <time>2024-09-18T13:38:03Z</time>
      </trkpt>
      <trkpt lat="46.56532" lon="4.90852">
        <ele>211.4</ele>
        <time>2024-09-18T13:38:04Z</time>
      </trkpt>
      <trkpt lat="46.56532" lon="4.90852">
        <ele>211.6</ele>
        <time>2024-09-18T13:38:05Z</time>
      </trkpt>
      <trkpt lat="46.56531" lon="4.90852">
        <ele>211.6</ele>
        <time>2024-09-18T13:38:06Z</time>
      </trkpt>
      <trkpt lat="46.56531" lon="4.90852">
        <ele>211.6</ele>
        <time>2024-09-18T13:38:07Z</time>
      </trkpt>
      <trkpt lat="46.56531" lon="4.90853">
        <ele>211.6</ele>
        <time>2024-09-18T13:38:08Z</time>
      </trkpt>
      <trkpt lat="46.56531" lon="4.90853">
        <ele>211.6</ele>
        <time>2024-09-18T13:38:09Z</time>
      </trkpt>
      <trkpt lat="46.56531" lon="4.90853">
        <ele>211.6</ele>
        <time>2024-09-18T13:38:10Z</time>
      </trkpt>
      <trkpt lat="46.5653" lon="4.90853">
        <ele>211.6</ele>
        <time>2024-09-18T13:38:11Z</time>
      </trkpt>
      <trkpt lat="46.5653" lon="4.90853">
        <ele>211.6</ele>
        <time>2024-09-18T13:38:12Z</time>
      </trkpt>
      <trkpt lat="46.5653" lon="4.90853">
        <ele>211.6</ele>
        <time>2024-09-18T13:38:13Z</time>
      </trkpt>
      <trkpt lat="46.5653" lon="4.90853">
        <ele>211.6</ele>
        <time>2024-09-18T13:38:14Z</time>
      </trkpt>
      <trkpt lat="46.5653" lon="4.90853">
        <ele>211.6</ele>
        <time>2024-09-18T13:38:15Z</time>
      </trkpt>
      <trkpt lat="46.5653" lon="4.90853">
        <ele>211.6</ele>
        <time>2024-09-18T13:38:16Z</time>
      </trkpt>
      <trkpt lat="46.56529" lon="4.90853">
        <ele>211.4</ele>
        <time>2024-09-18T13:38:17Z</time>
      </trkpt>
      <trkpt lat="46.56529" lon="4.90853">
        <ele>211.6</ele>
        <time>2024-09-18T13:38:18Z</time>
      </trkpt>
      <trkpt lat="46.56529" lon="4.90853">
        <ele>211.6</ele>
        <time>2024-09-18T13:38:19Z</time>
      </trkpt>
      <trkpt lat="46.56529" lon="4.90853">
        <ele>211.6</ele>
        <time>2024-09-18T13:38:20Z</time>
      </trkpt>
      <trkpt lat="46.56529" lon="4.90853">
        <ele>211.6</ele>
        <time>2024-09-18T13:38:21Z</time>
      </trkpt>
      <trkpt lat="46.56529" lon="4.90854">
        <ele>211.6</ele>
        <time>2024-09-18T13:38:22Z</time>
      </trkpt>
      <trkpt lat="46.56528" lon="4.90854">
        <ele>211.6</ele>
        <time>2024-09-18T13:38:23Z</time>
      </trkpt>
      <trkpt lat="46.56528" lon="4.90854">
        <ele>211.6</ele>
        <time>2024-09-18T13:38:24Z</time>
      </trkpt>
      <trkpt lat="46.56528" lon="4.90854">
        <ele>211.6</ele>
        <time>2024-09-18T13:38:25Z</time>
      </trkpt>
      <trkpt lat="46.56528" lon="4.90854">
        <ele>211.6</ele>
        <time>2024-09-18T13:38:26Z</time>
      </trkpt>
      <trkpt lat="46.56528" lon="4.90854">
        <ele>211.4</ele>
        <time>2024-09-18T13:38:27Z</time>
      </trkpt>
      <trkpt lat="46.56527" lon="4.90854">
        <ele>211.4</ele>
        <time>2024-09-18T13:38:28Z</time>
      </trkpt>
      <trkpt lat="46.56527" lon="4.90854">
        <ele>211.4</ele>
        <time>2024-09-18T13:38:29Z</time>
      </trkpt>
      <trkpt lat="46.56527" lon="4.90854">
        <ele>211.4</ele>
        <time>2024-09-18T13:38:30Z</time>
      </trkpt>
      <trkpt lat="46.56527" lon="4.90854">
        <ele>211.4</ele>
        <time>2024-09-18T13:38:31Z</time>
      </trkpt>
      <trkpt lat="46.56527" lon="4.90854">
        <ele>211.4</ele>
        <time>2024-09-18T13:38:32Z</time>
      </trkpt>
      <trkpt lat="46.56527" lon="4.90854">
        <ele>211.4</ele>
        <time>2024-09-18T13:38:33Z</time>
      </trkpt>
      <trkpt lat="46.56526" lon="4.90854">
        <ele>211.4</ele>
        <time>2024-09-18T13:38:34Z</time>
      </trkpt>
      <trkpt lat="46.56526" lon="4.90854">
        <ele>211.4</ele>
        <time>2024-09-18T13:38:35Z</time>
      </trkpt>
      <trkpt lat="46.56526" lon="4.90854">
        <ele>211.4</ele>
        <time>2024-09-18T13:38:36Z</time>
      </trkpt>
      <trkpt lat="46.56526" lon="4.90855">
        <ele>211.4</ele>
        <time>2024-09-18T13:38:37Z</time>
      </trkpt>
      <trkpt lat="46.56526" lon="4.90855">
        <ele>211.4</ele>
        <time>2024-09-18T13:38:38Z</time>
      </trkpt>
      <trkpt lat="46.56526" lon="4.90855">
        <ele>211.4</ele>
        <time>2024-09-18T13:38:39Z</time>
      </trkpt>
      <trkpt lat="46.56525" lon="4.90855">
        <ele>211.4</ele>
        <time>2024-09-18T13:38:40Z</time>
      </trkpt>
      <trkpt lat="46.56525" lon="4.90855">
        <ele>211.4</ele>
        <time>2024-09-18T13:38:41Z</time>
      </trkpt>
      <trkpt lat="46.56525" lon="4.90855">
        <ele>211.4</ele>
        <time>2024-09-18T13:38:42Z</time>
      </trkpt>
      <trkpt lat="46.56525" lon="4.90855">
        <ele>211.4</ele>
        <time>2024-09-18T13:38:43Z</time>
      </trkpt>
      <trkpt lat="46.56525" lon="4.90855">
        <ele>211.4</ele>
        <time>2024-09-18T13:38:44Z</time>
      </trkpt>
      <trkpt lat="46.56524" lon="4.90855">
        <ele>211.2</ele>
        <time>2024-09-18T13:38:45Z</time>
      </trkpt>
      <trkpt lat="46.56524" lon="4.90855">
        <ele>211.2</ele>
        <time>2024-09-18T13:38:46Z</time>
      </trkpt>
      <trkpt lat="46.56524" lon="4.90855">
        <ele>211.2</ele>
        <time>2024-09-18T13:38:47Z</time>
      </trkpt>
      <trkpt lat="46.56524" lon="4.90855">
        <ele>211.4</ele>
        <time>2024-09-18T13:38:48Z</time>
      </trkpt>
      <trkpt lat="46.56524" lon="4.90855">
        <ele>211.6</ele>
        <time>2024-09-18T13:38:49Z</time>
      </trkpt>
      <trkpt lat="46.56524" lon="4.90855">
        <ele>211.6</ele>
        <time>2024-09-18T13:38:50Z</time>
      </trkpt>
      <trkpt lat="46.56523" lon="4.90856">
        <ele>211.6</ele>
        <time>2024-09-18T13:38:51Z</time>
      </trkpt>
      <trkpt lat="46.56523" lon="4.90856">
        <ele>211.6</ele>
        <time>2024-09-18T13:38:52Z</time>
      </trkpt>
      <trkpt lat="46.56523" lon="4.90856">
        <ele>211.6</ele>
        <time>2024-09-18T13:38:53Z</time>
      </trkpt>
      <trkpt lat="46.56523" lon="4.90856">
        <ele>211.2</ele>
        <time>2024-09-18T13:38:54Z</time>
      </trkpt>
      <trkpt lat="46.56523" lon="4.90856">
        <ele>211.2</ele>
        <time>2024-09-18T13:38:55Z</time>
      </trkpt>
      <trkpt lat="46.56523" lon="4.90856">
        <ele>211.2</ele>
        <time>2024-09-18T13:38:56Z</time>
      </trkpt>
      <trkpt lat="46.56522" lon="4.90856">
        <ele>211.6</ele>
        <time>2024-09-18T13:38:57Z</time>
      </trkpt>
      <trkpt lat="46.56522" lon="4.90856">
        <ele>211.6</ele>
        <time>2024-09-18T13:38:58Z</time>
      </trkpt>
      <trkpt lat="46.56522" lon="4.90856">
        <ele>211.6</ele>
        <time>2024-09-18T13:38:59Z</time>
      </trkpt>
      <trkpt lat="46.56522" lon="4.90856">
        <ele>211.6</ele>
        <time>2024-09-18T13:39:00Z</time>
      </trkpt>
      <trkpt lat="46.56522" lon="4.90856">
        <ele>211.6</ele>
        <time>2024-09-18T13:39:01Z</time>
      </trkpt>
      <trkpt lat="46.56521" lon="4.90856">
        <ele>211.8</ele>
        <time>2024-09-18T13:39:02Z</time>
      </trkpt>
      <trkpt lat="46.56521" lon="4.90856">
        <ele>211.8</ele>
        <time>2024-09-18T13:39:03Z</time>
      </trkpt>
      <trkpt lat="46.56521" lon="4.90856">
        <ele>211.8</ele>
        <time>2024-09-18T13:39:04Z</time>
      </trkpt>
      <trkpt lat="46.56521" lon="4.90857">
        <ele>211.8</ele>
        <time>2024-09-18T13:39:05Z</time>
      </trkpt>
      <trkpt lat="46.56521" lon="4.90857">
        <ele>211.8</ele>
        <time>2024-09-18T13:39:06Z</time>
      </trkpt>
      <trkpt lat="46.56521" lon="4.90857">
        <ele>211.8</ele>
        <time>2024-09-18T13:39:07Z</time>
      </trkpt>
      <trkpt lat="46.5652" lon="4.90857">
        <ele>211.8</ele>
        <time>2024-09-18T13:39:08Z</time>
      </trkpt>
      <trkpt lat="46.5652" lon="4.90857">
        <ele>211.8</ele>
        <time>2024-09-18T13:39:09Z</time>
      </trkpt>
      <trkpt lat="46.5652" lon="4.90857">
        <ele>211.8</ele>
        <time>2024-09-18T13:39:10Z</time>
      </trkpt>
      <trkpt lat="46.5652" lon="4.90857">
        <ele>211.8</ele>
        <time>2024-09-18T13:39:11Z</time>
      </trkpt>
      <trkpt lat="46.5652" lon="4.90857">
        <ele>211.8</ele>
        <time>2024-09-18T13:39:12Z</time>
      </trkpt>
      <trkpt lat="46.5652" lon="4.90857">
        <ele>211.4</ele>
        <time>2024-09-18T13:39:13Z</time>
      </trkpt>
      <trkpt lat="46.56519" lon="4.90857">
        <ele>211.4</ele>
        <time>2024-09-18T13:39:14Z</time>
      </trkpt>
      <trkpt lat="46.56519" lon="4.90857">
        <ele>211.4</ele>
        <time>2024-09-18T13:39:15Z</time>
      </trkpt>
      <trkpt lat="46.56519" lon="4.90857">
        <ele>211.4</ele>
        <time>2024-09-18T13:39:16Z</time>
      </trkpt>
      <trkpt lat="46.56519" lon="4.90857">
        <ele>211.8</ele>
        <time>2024-09-18T13:39:17Z</time>
      </trkpt>
      <trkpt lat="46.56519" lon="4.90857">
        <ele>211.8</ele>
        <time>2024-09-18T13:39:18Z</time>
      </trkpt>
      <trkpt lat="46.56518" lon="4.90858">
        <ele>211.8</ele>
        <time>2024-09-18T13:39:19Z</time>
      </trkpt>
      <trkpt lat="46.56518" lon="4.90858">
        <ele>211.8</ele>
        <time>2024-09-18T13:39:20Z</time>
      </trkpt>
      <trkpt lat="46.56518" lon="4.90858">
        <ele>211.2</ele>
        <time>2024-09-18T13:39:21Z</time>
      </trkpt>
      <trkpt lat="46.56518" lon="4.90858">
        <ele>211.2</ele>
        <time>2024-09-18T13:39:22Z</time>
      </trkpt>
      <trkpt lat="46.56518" lon="4.90858">
        <ele>211.2</ele>
        <time>2024-09-18T13:39:23Z</time>
      </trkpt>
      <trkpt lat="46.56518" lon="4.90858">
        <ele>211.2</ele>
        <time>2024-09-18T13:39:24Z</time>
      </trkpt>
      <trkpt lat="46.56517" lon="4.90858">
        <ele>211.6</ele>
        <time>2024-09-18T13:39:25Z</time>
      </trkpt>
      <trkpt lat="46.56517" lon="4.90858">
        <ele>211.6</ele>
        <time>2024-09-18T13:39:26Z</time>
      </trkpt>
      <trkpt lat="46.56517" lon="4.90858">
        <ele>211.6</ele>
        <time>2024-09-18T13:39:27Z</time>
      </trkpt>
      <trkpt lat="46.56517" lon="4.90858">
        <ele>211.6</ele>
        <time>2024-09-18T13:39:28Z</time>
      </trkpt>
      <trkpt lat="46.56517" lon="4.90858">
        <ele>211.4</ele>
        <time>2024-09-18T13:39:29Z</time>
      </trkpt>
      <trkpt lat="46.56516" lon="4.90858">
        <ele>211.2</ele>
        <time>2024-09-18T13:39:30Z</time>
      </trkpt>
      <trkpt lat="46.5648" lon="4.90873">
        <ele>211.2</ele>
        <time>2024-09-18T13:39:31Z</time>
      </trkpt>
      <trkpt lat="46.56566" lon="4.90863">
        <ele>203.8</ele>
        <time>2024-09-18T13:40:18Z</time>
      </trkpt>
      <trkpt lat="46.56565" lon="4.90861">
        <ele>203.8</ele>
        <time>2024-09-18T13:40:19Z</time>
      </trkpt>
      <trkpt lat="46.56565" lon="4.90859">
        <ele>203.8</ele>
        <time>2024-09-18T13:40:20Z</time>
      </trkpt>
      <trkpt lat="46.56563" lon="4.90854">
        <ele>203.8</ele>
        <time>2024-09-18T13:40:21Z</time>
      </trkpt>
      <trkpt lat="46.56561" lon="4.90852">
        <ele>203.6</ele>
        <time>2024-09-18T13:40:22Z</time>
      </trkpt>
      <trkpt lat="46.5656" lon="4.90851">
        <ele>203.6</ele>
        <time>2024-09-18T13:40:23Z</time>
      </trkpt>
      <trkpt lat="46.5656" lon="4.9085">
        <ele>203.6</ele>
        <time>2024-09-18T13:40:24Z</time>
      </trkpt>
      <trkpt lat="46.56558" lon="4.90845">
        <ele>203.8</ele>
        <time>2024-09-18T13:40:25Z</time>
      </trkpt>
      <trkpt lat="46.56558" lon="4.90845">
        <ele>203.8</ele>
        <time>2024-09-18T13:40:26Z</time>
      </trkpt>
      <trkpt lat="46.56558" lon="4.90844">
        <ele>203.8</ele>
        <time>2024-09-18T13:40:27Z</time>
      </trkpt>
      <trkpt lat="46.56558" lon="4.90844">
        <ele>203.8</ele>
        <time>2024-09-18T13:40:28Z</time>
      </trkpt>
      <trkpt lat="46.56558" lon="4.90844">
        <ele>203.8</ele>
        <time>2024-09-18T13:40:29Z</time>
      </trkpt>
      <trkpt lat="46.56558" lon="4.90844">
        <ele>203.8</ele>
        <time>2024-09-18T13:40:30Z</time>
      </trkpt>
      <trkpt lat="46.5655" lon="4.90836">
        <ele>203</ele>
        <time>2024-09-18T13:45:18Z</time>
      </trkpt>
      <trkpt lat="46.5655" lon="4.90837">
        <ele>202</ele>
        <time>2024-09-18T13:45:19Z</time>
      </trkpt>
      <trkpt lat="46.5655" lon="4.90838">
        <ele>202.8</ele>
        <time>2024-09-18T13:45:20Z</time>
      </trkpt>
      <trkpt lat="46.56546" lon="4.90842">
        <ele>203.2</ele>
        <time>2024-09-18T13:45:25Z</time>
      </trkpt>
      <trkpt lat="46.56544" lon="4.90843">
        <ele>203.2</ele>
        <time>2024-09-18T13:45:26Z</time>
      </trkpt>
      <trkpt lat="46.56542" lon="4.90845">
        <ele>203.2</ele>
        <time>2024-09-18T13:45:27Z</time>
      </trkpt>
      <trkpt lat="46.56541" lon="4.90846">
        <ele>202.8</ele>
        <time>2024-09-18T13:45:28Z</time>
      </trkpt>
      <trkpt lat="46.5654" lon="4.90849">
        <ele>202.6</ele>
        <time>2024-09-18T13:45:29Z</time>
      </trkpt>
      <trkpt lat="46.56539" lon="4.90851">
        <ele>202.6</ele>
        <time>2024-09-18T13:45:30Z</time>
      </trkpt>
      <trkpt lat="46.56537" lon="4.90854">
        <ele>202.6</ele>
        <time>2024-09-18T13:45:31Z</time>
      </trkpt>
      <trkpt lat="46.56535" lon="4.90857">
        <ele>201.6</ele>
        <time>2024-09-18T13:45:32Z</time>
      </trkpt>
      <trkpt lat="46.56533" lon="4.90859">
        <ele>201.8</ele>
        <time>2024-09-18T13:45:33Z</time>
      </trkpt>
      <trkpt lat="46.56532" lon="4.90861">
        <ele>201.8</ele>
        <time>2024-09-18T13:45:34Z</time>
      </trkpt>
      <trkpt lat="46.5653" lon="4.90863">
        <ele>201.8</ele>
        <time>2024-09-18T13:45:35Z</time>
      </trkpt>
      <trkpt lat="46.56528" lon="4.90865">
        <ele>201.6</ele>
        <time>2024-09-18T13:45:36Z</time>
      </trkpt>
      <trkpt lat="46.56526" lon="4.90866">
        <ele>201.6</ele>
        <time>2024-09-18T13:45:37Z</time>
      </trkpt>
      <trkpt lat="46.56524" lon="4.90868">
        <ele>201.6</ele>
        <time>2024-09-18T13:45:38Z</time>
      </trkpt>
      <trkpt lat="46.56523" lon="4.9087">
        <ele>201.6</ele>
        <time>2024-09-18T13:45:39Z</time>
      </trkpt>
      <trkpt lat="46.56521" lon="4.90874">
        <ele>201.6</ele>
        <time>2024-09-18T13:45:40Z</time>
      </trkpt>
      <trkpt lat="46.5652" lon="4.90877">
        <ele>201.4</ele>
        <time>2024-09-18T13:45:41Z</time>
      </trkpt>
      <trkpt lat="46.56519" lon="4.9088">
        <ele>201.4</ele>
        <time>2024-09-18T13:45:42Z</time>
      </trkpt>
      <trkpt lat="46.56518" lon="4.90883">
        <ele>201.4</ele>
        <time>2024-09-18T13:45:43Z</time>
      </trkpt>
      <trkpt lat="46.56517" lon="4.90886">
        <ele>201.4</ele>
        <time>2024-09-18T13:45:44Z</time>
      </trkpt>
      <trkpt lat="46.56517" lon="4.90889">
        <ele>201.4</ele>
        <time>2024-09-18T13:45:45Z</time>
      </trkpt>
      <trkpt lat="46.56516" lon="4.90892">
        <ele>201.4</ele>
        <time>2024-09-18T13:45:46Z</time>
      </trkpt>
      <trkpt lat="46.56515" lon="4.90896">
        <ele>201.4</ele>
        <time>2024-09-18T13:45:47Z</time>
      </trkpt>
      <trkpt lat="46.56515" lon="4.909">
        <ele>200.8</ele>
        <time>2024-09-18T13:45:48Z</time>
      </trkpt>
      <trkpt lat="46.56514" lon="4.90903">
        <ele>200.8</ele>
        <time>2024-09-18T13:45:49Z</time>
      </trkpt>
      <trkpt lat="46.56514" lon="4.90906">
        <ele>200.8</ele>
        <time>2024-09-18T13:45:50Z</time>
      </trkpt>
      <trkpt lat="46.56514" lon="4.90909">
        <ele>200.4</ele>
        <time>2024-09-18T13:45:51Z</time>
      </trkpt>
      <trkpt lat="46.56514" lon="4.90912">
        <ele>200.4</ele>
        <time>2024-09-18T13:45:52Z</time>
      </trkpt>
      <trkpt lat="46.56515" lon="4.90915">
        <ele>200.4</ele>
        <time>2024-09-18T13:45:53Z</time>
      </trkpt>
      <trkpt lat="46.56516" lon="4.9092">
        <ele>200.4</ele>
        <time>2024-09-18T13:45:54Z</time>
      </trkpt>
      <trkpt lat="46.56516" lon="4.90922">
        <ele>199.8</ele>
        <time>2024-09-18T13:45:55Z</time>
      </trkpt>
      <trkpt lat="46.56517" lon="4.90925">
        <ele>199.2</ele>
        <time>2024-09-18T13:45:56Z</time>
      </trkpt>
      <trkpt lat="46.56518" lon="4.90928">
        <ele>199.2</ele>
        <time>2024-09-18T13:45:57Z</time>
      </trkpt>
      <trkpt lat="46.56519" lon="4.9093">
        <ele>199.2</ele>
        <time>2024-09-18T13:45:58Z</time>
      </trkpt>
      <trkpt lat="46.5652" lon="4.90932">
        <ele>199.2</ele>
        <time>2024-09-18T13:45:59Z</time>
      </trkpt>
      <trkpt lat="46.5652" lon="4.90934">
        <ele>200.2</ele>
        <time>2024-09-18T13:46:00Z</time>
      </trkpt>
      <trkpt lat="46.56521" lon="4.90935">
        <ele>200.4</ele>
        <time>2024-09-18T13:46:01Z</time>
      </trkpt>
      <trkpt lat="46.56521" lon="4.90935">
        <ele>200.4</ele>
        <time>2024-09-18T13:46:02Z</time>
      </trkpt>
      <trkpt lat="46.56521" lon="4.90935">
        <ele>200.4</ele>
        <time>2024-09-18T13:46:03Z</time>
      </trkpt>
      <trkpt lat="46.56522" lon="4.90941">
        <ele>199.2</ele>
        <time>2024-09-18T13:46:07Z</time>
      </trkpt>
      <trkpt lat="46.56523" lon="4.90943">
        <ele>199.2</ele>
        <time>2024-09-18T13:46:08Z</time>
      </trkpt>
      <trkpt lat="46.56523" lon="4.90946">
        <ele>199</ele>
        <time>2024-09-18T13:46:09Z</time>
      </trkpt>
      <trkpt lat="46.56524" lon="4.90948">
        <ele>199</ele>
        <time>2024-09-18T13:46:10Z</time>
      </trkpt>
      <trkpt lat="46.56524" lon="4.9095">
        <ele>199</ele>
        <time>2024-09-18T13:46:11Z</time>
      </trkpt>
      <trkpt lat="46.56525" lon="4.90952">
        <ele>199</ele>
        <time>2024-09-18T13:46:12Z</time>
      </trkpt>
      <trkpt lat="46.56526" lon="4.90954">
        <ele>198.2</ele>
        <time>2024-09-18T13:46:13Z</time>
      </trkpt>
      <trkpt lat="46.56526" lon="4.90957">
        <ele>198.4</ele>
        <time>2024-09-18T13:46:14Z</time>
      </trkpt>
      <trkpt lat="46.56527" lon="4.9096">
        <ele>198.4</ele>
        <time>2024-09-18T13:46:15Z</time>
      </trkpt>
      <trkpt lat="46.56528" lon="4.90962">
        <ele>198.4</ele>
        <time>2024-09-18T13:46:16Z</time>
      </trkpt>
      <trkpt lat="46.56528" lon="4.90965">
        <ele>198.4</ele>
        <time>2024-09-18T13:46:17Z</time>
      </trkpt>
      <trkpt lat="46.56529" lon="4.90968">
        <ele>198</ele>
        <time>2024-09-18T13:46:18Z</time>
      </trkpt>
      <trkpt lat="46.5653" lon="4.9097">
        <ele>198</ele>
        <time>2024-09-18T13:46:19Z</time>
      </trkpt>
      <trkpt lat="46.5653" lon="4.90971">
        <ele>198</ele>
        <time>2024-09-18T13:46:20Z</time>
      </trkpt>
      <trkpt lat="46.5653" lon="4.90973">
        <ele>198</ele>
        <time>2024-09-18T13:46:21Z</time>
      </trkpt>
      <trkpt lat="46.5653" lon="4.90976">
        <ele>197.4</ele>
        <time>2024-09-18T13:46:22Z</time>
      </trkpt>
      <trkpt lat="46.5653" lon="4.90978">
        <ele>197</ele>
        <time>2024-09-18T13:46:23Z</time>
      </trkpt>
      <trkpt lat="46.5653" lon="4.9098">
        <ele>197</ele>
        <time>2024-09-18T13:46:24Z</time>
      </trkpt>
      <trkpt lat="46.56529" lon="4.90981">
        <ele>197</ele>
        <time>2024-09-18T13:46:25Z</time>
      </trkpt>
      <trkpt lat="46.56528" lon="4.90983">
        <ele>197</ele>
        <time>2024-09-18T13:46:26Z</time>
      </trkpt>
      <trkpt lat="46.56528" lon="4.90985">
        <ele>196.4</ele>
        <time>2024-09-18T13:46:27Z</time>
      </trkpt>
      <trkpt lat="46.56527" lon="4.90988">
        <ele>196.4</ele>
        <time>2024-09-18T13:46:28Z</time>
      </trkpt>
      <trkpt lat="46.56527" lon="4.90991">
        <ele>196.4</ele>
        <time>2024-09-18T13:46:29Z</time>
      </trkpt>
      <trkpt lat="46.56527" lon="4.90995">
        <ele>196.4</ele>
        <time>2024-09-18T13:46:30Z</time>
      </trkpt>
      <trkpt lat="46.56527" lon="4.90997">
        <ele>195.6</ele>
        <time>2024-09-18T13:46:31Z</time>
      </trkpt>
      <trkpt lat="46.56528" lon="4.91001">
        <ele>195</ele>
        <time>2024-09-18T13:46:32Z</time>
      </trkpt>
      <trkpt lat="46.56528" lon="4.91005">
        <ele>195</ele>
        <time>2024-09-18T13:46:33Z</time>
      </trkpt>
      <trkpt lat="46.56528" lon="4.91008">
        <ele>195</ele>
        <time>2024-09-18T13:46:34Z</time>
      </trkpt>
      <trkpt lat="46.56529" lon="4.91011">
        <ele>194</ele>
        <time>2024-09-18T13:46:35Z</time>
      </trkpt>
      <trkpt lat="46.5653" lon="4.91015">
        <ele>194</ele>
        <time>2024-09-18T13:46:36Z</time>
      </trkpt>
      <trkpt lat="46.5653" lon="4.91018">
        <ele>193.8</ele>
        <time>2024-09-18T13:46:37Z</time>
      </trkpt>
      <trkpt lat="46.5653" lon="4.91021">
        <ele>193.8</ele>
        <time>2024-09-18T13:46:38Z</time>
      </trkpt>
      <trkpt lat="46.56529" lon="4.91024">
        <ele>193.8</ele>
        <time>2024-09-18T13:46:39Z</time>
      </trkpt>
      <trkpt lat="46.56529" lon="4.91028">
        <ele>192.8</ele>
        <time>2024-09-18T13:46:40Z</time>
      </trkpt>
      <trkpt lat="46.56528" lon="4.91031">
        <ele>192.6</ele>
        <time>2024-09-18T13:46:41Z</time>
      </trkpt>
      <trkpt lat="46.56528" lon="4.91034">
        <ele>192.6</ele>
        <time>2024-09-18T13:46:42Z</time>
      </trkpt>
      <trkpt lat="46.56528" lon="4.91038">
        <ele>192.6</ele>
        <time>2024-09-18T13:46:43Z</time>
      </trkpt>
      <trkpt lat="46.56528" lon="4.91041">
        <ele>192.2</ele>
        <time>2024-09-18T13:46:44Z</time>
      </trkpt>
      <trkpt lat="46.56528" lon="4.91044">
        <ele>192.2</ele>
        <time>2024-09-18T13:46:45Z</time>
      </trkpt>
      <trkpt lat="46.56528" lon="4.91047">
        <ele>191.6</ele>
        <time>2024-09-18T13:46:46Z</time>
      </trkpt>
      <trkpt lat="46.56528" lon="4.9105">
        <ele>191.6</ele>
        <time>2024-09-18T13:46:47Z</time>
      </trkpt>
      <trkpt lat="46.56528" lon="4.91054">
        <ele>191.6</ele>
        <time>2024-09-18T13:46:48Z</time>
      </trkpt>
      <trkpt lat="46.56528" lon="4.91058">
        <ele>190.8</ele>
        <time>2024-09-18T13:46:49Z</time>
      </trkpt>
      <trkpt lat="46.5653" lon="4.91063">
        <ele>190.6</ele>
        <time>2024-09-18T13:46:50Z</time>
      </trkpt>
      <trkpt lat="46.5653" lon="4.91066">
        <ele>190.6</ele>
        <time>2024-09-18T13:46:51Z</time>
      </trkpt>
      <trkpt lat="46.5653" lon="4.9107">
        <ele>190.6</ele>
        <time>2024-09-18T13:46:52Z</time>
      </trkpt>
      <trkpt lat="46.5653" lon="4.91074">
        <ele>190</ele>
        <time>2024-09-18T13:46:53Z</time>
      </trkpt>
      <trkpt lat="46.56531" lon="4.91078">
        <ele>189.8</ele>
        <time>2024-09-18T13:46:54Z</time>
      </trkpt>
      <trkpt lat="46.56531" lon="4.91082">
        <ele>189.8</ele>
        <time>2024-09-18T13:46:55Z</time>
      </trkpt>
      <trkpt lat="46.56531" lon="4.91086">
        <ele>189.8</ele>
        <time>2024-09-18T13:46:56Z</time>
      </trkpt>
      <trkpt lat="46.56531" lon="4.9109">
        <ele>189.8</ele>
        <time>2024-09-18T13:46:57Z</time>
      </trkpt>
      <trkpt lat="46.56533" lon="4.91093">
        <ele>188.8</ele>
        <time>2024-09-18T13:46:58Z</time>
      </trkpt>
      <trkpt lat="46.56536" lon="4.91095">
        <ele>189.2</ele>
        <time>2024-09-18T13:46:59Z</time>
      </trkpt>
      <trkpt lat="46.56538" lon="4.91097">
        <ele>189.2</ele>
        <time>2024-09-18T13:47:00Z</time>
      </trkpt>
      <trkpt lat="46.56539" lon="4.91101">
        <ele>189.2</ele>
        <time>2024-09-18T13:47:01Z</time>
      </trkpt>
      <trkpt lat="46.56541" lon="4.91104">
        <ele>189.2</ele>
        <time>2024-09-18T13:47:02Z</time>
      </trkpt>
      <trkpt lat="46.56543" lon="4.91109">
        <ele>188.8</ele>
        <time>2024-09-18T13:47:03Z</time>
      </trkpt>
      <trkpt lat="46.56544" lon="4.91111">
        <ele>188.8</ele>
        <time>2024-09-18T13:47:04Z</time>
      </trkpt>
      <trkpt lat="46.56545" lon="4.91115">
        <ele>188.8</ele>
        <time>2024-09-18T13:47:05Z</time>
      </trkpt>
      <trkpt lat="46.56546" lon="4.9112">
        <ele>188.4</ele>
        <time>2024-09-18T13:47:06Z</time>
      </trkpt>
      <trkpt lat="46.56548" lon="4.91124">
        <ele>188.4</ele>
        <time>2024-09-18T13:47:07Z</time>
      </trkpt>
      <trkpt lat="46.56548" lon="4.91127">
        <ele>188.4</ele>
        <time>2024-09-18T13:47:08Z</time>
      </trkpt>
      <trkpt lat="46.56548" lon="4.91129">
        <ele>188.4</ele>
        <time>2024-09-18T13:47:09Z</time>
      </trkpt>
      <trkpt lat="46.56546" lon="4.91131">
        <ele>188.4</ele>
        <time>2024-09-18T13:47:10Z</time>
      </trkpt>
      <trkpt lat="46.56544" lon="4.91132">
        <ele>188.4</ele>
        <time>2024-09-18T13:47:11Z</time>
      </trkpt>
      <trkpt lat="46.56541" lon="4.91133">
        <ele>188.4</ele>
        <time>2024-09-18T13:47:12Z</time>
      </trkpt>
      <trkpt lat="46.56539" lon="4.91135">
        <ele>189.4</ele>
        <time>2024-09-18T13:47:13Z</time>
      </trkpt>
      <trkpt lat="46.56537" lon="4.91136">
        <ele>189.4</ele>
        <time>2024-09-18T13:47:14Z</time>
      </trkpt>
      <trkpt lat="46.56534" lon="4.91137">
        <ele>189.4</ele>
        <time>2024-09-18T13:47:15Z</time>
      </trkpt>
      <trkpt lat="46.56531" lon="4.91139">
        <ele>188.4</ele>
        <time>2024-09-18T13:47:16Z</time>
      </trkpt>
      <trkpt lat="46.56528" lon="4.9114">
        <ele>187</ele>
        <time>2024-09-18T13:47:17Z</time>
      </trkpt>
      <trkpt lat="46.56525" lon="4.91141">
        <ele>187</ele>
        <time>2024-09-18T13:47:18Z</time>
      </trkpt>
      <trkpt lat="46.56522" lon="4.91143">
        <ele>187</ele>
        <time>2024-09-18T13:47:19Z</time>
      </trkpt>
      <trkpt lat="46.56519" lon="4.91145">
        <ele>187</ele>
        <time>2024-09-18T13:47:20Z</time>
      </trkpt>
      <trkpt lat="46.56516" lon="4.91146">
        <ele>188</ele>
        <time>2024-09-18T13:47:21Z</time>
      </trkpt>
      <trkpt lat="46.56513" lon="4.91148">
        <ele>188.8</ele>
        <time>2024-09-18T13:47:22Z</time>
      </trkpt>
      <trkpt lat="46.56509" lon="4.91149">
        <ele>188.8</ele>
        <time>2024-09-18T13:47:23Z</time>
      </trkpt>
      <trkpt lat="46.56506" lon="4.91151">
        <ele>188.8</ele>
        <time>2024-09-18T13:47:24Z</time>
      </trkpt>
      <trkpt lat="46.56503" lon="4.91153">
        <ele>188</ele>
        <time>2024-09-18T13:47:25Z</time>
      </trkpt>
      <trkpt lat="46.565" lon="4.91155">
        <ele>186.2</ele>
        <time>2024-09-18T13:47:26Z</time>
      </trkpt>
      <trkpt lat="46.56498" lon="4.91157">
        <ele>186.2</ele>
        <time>2024-09-18T13:47:27Z</time>
      </trkpt>
      <trkpt lat="46.56495" lon="4.91159">
        <ele>186.2</ele>
        <time>2024-09-18T13:47:28Z</time>
      </trkpt>
      <trkpt lat="46.56492" lon="4.9116">
        <ele>187.2</ele>
        <time>2024-09-18T13:47:29Z</time>
      </trkpt>
      <trkpt lat="46.56488" lon="4.91162">
        <ele>188.8</ele>
        <time>2024-09-18T13:47:30Z</time>
      </trkpt>
      <trkpt lat="46.56485" lon="4.91165">
        <ele>188.8</ele>
        <time>2024-09-18T13:47:31Z</time>
      </trkpt>
      <trkpt lat="46.56481" lon="4.91167">
        <ele>188.8</ele>
        <time>2024-09-18T13:47:32Z</time>
      </trkpt>
      <trkpt lat="46.56478" lon="4.91168">
        <ele>188.8</ele>
        <time>2024-09-18T13:47:33Z</time>
      </trkpt>
      <trkpt lat="46.56475" lon="4.9117">
        <ele>189.2</ele>
        <time>2024-09-18T13:47:34Z</time>
      </trkpt>
      <trkpt lat="46.56471" lon="4.91172">
        <ele>189.4</ele>
        <time>2024-09-18T13:47:35Z</time>
      </trkpt>
      <trkpt lat="46.56468" lon="4.91174">
        <ele>189.4</ele>
        <time>2024-09-18T13:47:36Z</time>
      </trkpt>
      <trkpt lat="46.56465" lon="4.91175">
        <ele>189.4</ele>
        <time>2024-09-18T13:47:37Z</time>
      </trkpt>
      <trkpt lat="46.56462" lon="4.91176">
        <ele>190</ele>
        <time>2024-09-18T13:47:38Z</time>
      </trkpt>
      <trkpt lat="46.56458" lon="4.91177">
        <ele>189.6</ele>
        <time>2024-09-18T13:47:39Z</time>
      </trkpt>
      <trkpt lat="46.56455" lon="4.91173">
        <ele>189.6</ele>
        <time>2024-09-18T13:47:40Z</time>
      </trkpt>
      <trkpt lat="46.56454" lon="4.91172">
        <ele>189.6</ele>
        <time>2024-09-18T13:47:41Z</time>
      </trkpt>
      <trkpt lat="46.56452" lon="4.91172">
        <ele>189.6</ele>
        <time>2024-09-18T13:47:42Z</time>
      </trkpt>
      <trkpt lat="46.5645" lon="4.91173">
        <ele>190.6</ele>
        <time>2024-09-18T13:47:43Z</time>
      </trkpt>
      <trkpt lat="46.56448" lon="4.91174">
        <ele>190.6</ele>
        <time>2024-09-18T13:47:44Z</time>
      </trkpt>
      <trkpt lat="46.56447" lon="4.91174">
        <ele>190.6</ele>
        <time>2024-09-18T13:47:45Z</time>
      </trkpt>
      <trkpt lat="46.56444" lon="4.91175">
        <ele>190.6</ele>
        <time>2024-09-18T13:47:46Z</time>
      </trkpt>
      <trkpt lat="46.56441" lon="4.91175">
        <ele>190.8</ele>
        <time>2024-09-18T13:47:47Z</time>
      </trkpt>
      <trkpt lat="46.56439" lon="4.91177">
        <ele>190.6</ele>
        <time>2024-09-18T13:47:48Z</time>
      </trkpt>
      <trkpt lat="46.56435" lon="4.91179">
        <ele>190.6</ele>
        <time>2024-09-18T13:47:49Z</time>
      </trkpt>
      <trkpt lat="46.56432" lon="4.91181">
        <ele>190.6</ele>
        <time>2024-09-18T13:47:50Z</time>
      </trkpt>
      <trkpt lat="46.56429" lon="4.91184">
        <ele>189.6</ele>
        <time>2024-09-18T13:47:51Z</time>
      </trkpt>
      <trkpt lat="46.56426" lon="4.91187">
        <ele>190.6</ele>
        <time>2024-09-18T13:47:52Z</time>
      </trkpt>
      <trkpt lat="46.56423" lon="4.91189">
        <ele>190.6</ele>
        <time>2024-09-18T13:47:53Z</time>
      </trkpt>
      <trkpt lat="46.5642" lon="4.9119">
        <ele>190.6</ele>
        <time>2024-09-18T13:47:54Z</time>
      </trkpt>
      <trkpt lat="46.56418" lon="4.91192">
        <ele>190.6</ele>
        <time>2024-09-18T13:47:55Z</time>
      </trkpt>
      <trkpt lat="46.56415" lon="4.91193">
        <ele>190.6</ele>
        <time>2024-09-18T13:47:56Z</time>
      </trkpt>
      <trkpt lat="46.56413" lon="4.91194">
        <ele>191.6</ele>
        <time>2024-09-18T13:47:57Z</time>
      </trkpt>
      <trkpt lat="46.5641" lon="4.91195">
        <ele>192.2</ele>
        <time>2024-09-18T13:47:58Z</time>
      </trkpt>
      <trkpt lat="46.56408" lon="4.91197">
        <ele>192.2</ele>
        <time>2024-09-18T13:47:59Z</time>
      </trkpt>
      <trkpt lat="46.56406" lon="4.91199">
        <ele>192.2</ele>
        <time>2024-09-18T13:48:00Z</time>
      </trkpt>
      <trkpt lat="46.56405" lon="4.91201">
        <ele>192.2</ele>
        <time>2024-09-18T13:48:01Z</time>
      </trkpt>
      <trkpt lat="46.56403" lon="4.91201">
        <ele>192.4</ele>
        <time>2024-09-18T13:48:02Z</time>
      </trkpt>
      <trkpt lat="46.56402" lon="4.91202">
        <ele>192.4</ele>
        <time>2024-09-18T13:48:03Z</time>
      </trkpt>
      <trkpt lat="46.564" lon="4.91205">
        <ele>192.4</ele>
        <time>2024-09-18T13:48:04Z</time>
      </trkpt>
      <trkpt lat="46.56398" lon="4.91207">
        <ele>192.4</ele>
        <time>2024-09-18T13:48:05Z</time>
      </trkpt>
      <trkpt lat="46.56395" lon="4.91208">
        <ele>192.6</ele>
        <time>2024-09-18T13:48:06Z</time>
      </trkpt>
      <trkpt lat="46.56392" lon="4.9121">
        <ele>192.6</ele>
        <time>2024-09-18T13:48:07Z</time>
      </trkpt>
      <trkpt lat="46.56389" lon="4.91211">
        <ele>192.6</ele>
        <time>2024-09-18T13:48:08Z</time>
      </trkpt>
      <trkpt lat="46.56386" lon="4.91212">
        <ele>192.6</ele>
        <time>2024-09-18T13:48:09Z</time>
      </trkpt>
      <trkpt lat="46.56383" lon="4.91213">
        <ele>192.2</ele>
        <time>2024-09-18T13:48:10Z</time>
      </trkpt>
      <trkpt lat="46.56381" lon="4.91214">
        <ele>192</ele>
        <time>2024-09-18T13:48:11Z</time>
      </trkpt>
      <trkpt lat="46.56379" lon="4.91215">
        <ele>192</ele>
        <time>2024-09-18T13:48:12Z</time>
      </trkpt>
      <trkpt lat="46.56377" lon="4.91216">
        <ele>192</ele>
        <time>2024-09-18T13:48:13Z</time>
      </trkpt>
      <trkpt lat="46.56375" lon="4.91217">
        <ele>191.4</ele>
        <time>2024-09-18T13:48:14Z</time>
      </trkpt>
      <trkpt lat="46.56373" lon="4.91218">
        <ele>191.2</ele>
        <time>2024-09-18T13:48:15Z</time>
      </trkpt>
      <trkpt lat="46.56371" lon="4.91219">
        <ele>191.2</ele>
        <time>2024-09-18T13:48:16Z</time>
      </trkpt>
      <trkpt lat="46.56369" lon="4.91218">
        <ele>191.2</ele>
        <time>2024-09-18T13:48:17Z</time>
      </trkpt>
      <trkpt lat="46.56368" lon="4.91219">
        <ele>191.2</ele>
        <time>2024-09-18T13:48:18Z</time>
      </trkpt>
      <trkpt lat="46.56367" lon="4.91219">
        <ele>191.6</ele>
        <time>2024-09-18T13:48:19Z</time>
      </trkpt>
      <trkpt lat="46.56367" lon="4.91219">
        <ele>191</ele>
        <time>2024-09-18T13:48:20Z</time>
      </trkpt>
      <trkpt lat="46.56359" lon="4.91228">
        <ele>190.2</ele>
        <time>2024-09-18T13:49:25Z</time>
      </trkpt>
      <trkpt lat="46.56356" lon="4.91228">
        <ele>190.2</ele>
        <time>2024-09-18T13:49:26Z</time>
      </trkpt>
      <trkpt lat="46.56353" lon="4.91229">
        <ele>190.2</ele>
        <time>2024-09-18T13:49:27Z</time>
      </trkpt>
      <trkpt lat="46.5635" lon="4.9123">
        <ele>190.2</ele>
        <time>2024-09-18T13:49:28Z</time>
      </trkpt>
      <trkpt lat="46.56347" lon="4.91231">
        <ele>190.2</ele>
        <time>2024-09-18T13:49:29Z</time>
      </trkpt>
      <trkpt lat="46.56343" lon="4.91232">
        <ele>190.2</ele>
        <time>2024-09-18T13:49:30Z</time>
      </trkpt>
      <trkpt lat="46.56339" lon="4.91235">
        <ele>189.6</ele>
        <time>2024-09-18T13:49:31Z</time>
      </trkpt>
      <trkpt lat="46.56334" lon="4.91237">
        <ele>189.2</ele>
        <time>2024-09-18T13:49:32Z</time>
      </trkpt>
      <trkpt lat="46.5633" lon="4.9124">
        <ele>189.2</ele>
        <time>2024-09-18T13:49:33Z</time>
      </trkpt>
      <trkpt lat="46.56325" lon="4.91241">
        <ele>189.2</ele>
        <time>2024-09-18T13:49:34Z</time>
      </trkpt>
      <trkpt lat="46.5632" lon="4.91242">
        <ele>188.6</ele>
        <time>2024-09-18T13:49:35Z</time>
      </trkpt>
      <trkpt lat="46.56315" lon="4.91244">
        <ele>188.6</ele>
        <time>2024-09-18T13:49:36Z</time>
      </trkpt>
      <trkpt lat="46.5631" lon="4.91247">
        <ele>188.4</ele>
        <time>2024-09-18T13:49:37Z</time>
      </trkpt>
      <trkpt lat="46.56305" lon="4.91249">
        <ele>188.4</ele>
        <time>2024-09-18T13:49:38Z</time>
      </trkpt>
      <trkpt lat="46.56301" lon="4.91252">
        <ele>188.4</ele>
        <time>2024-09-18T13:49:39Z</time>
      </trkpt>
      <trkpt lat="46.56296" lon="4.91255">
        <ele>188.6</ele>
        <time>2024-09-18T13:49:40Z</time>
      </trkpt>
      <trkpt lat="46.56292" lon="4.91258">
        <ele>188.4</ele>
        <time>2024-09-18T13:49:41Z</time>
      </trkpt>
      <trkpt lat="46.56288" lon="4.9126">
        <ele>188.4</ele>
        <time>2024-09-18T13:49:42Z</time>
      </trkpt>
      <trkpt lat="46.56286" lon="4.91262">
        <ele>188.4</ele>
        <time>2024-09-18T13:49:43Z</time>
      </trkpt>
      <trkpt lat="46.56283" lon="4.91266">
        <ele>188.4</ele>
        <time>2024-09-18T13:49:44Z</time>
      </trkpt>
      <trkpt lat="46.56279" lon="4.9127">
        <ele>188</ele>
        <time>2024-09-18T13:49:45Z</time>
      </trkpt>
      <trkpt lat="46.56275" lon="4.91273">
        <ele>188</ele>
        <time>2024-09-18T13:49:46Z</time>
      </trkpt>
      <trkpt lat="46.56271" lon="4.91276">
        <ele>188</ele>
        <time>2024-09-18T13:49:47Z</time>
      </trkpt>
      <trkpt lat="46.56267" lon="4.9128">
        <ele>188</ele>
        <time>2024-09-18T13:49:48Z</time>
      </trkpt>
      <trkpt lat="46.56263" lon="4.91284">
        <ele>188.8</ele>
        <time>2024-09-18T13:49:49Z</time>
      </trkpt>
      <trkpt lat="46.56259" lon="4.91288">
        <ele>188</ele>
        <time>2024-09-18T13:49:50Z</time>
      </trkpt>
      <trkpt lat="46.56255" lon="4.91292">
        <ele>188</ele>
        <time>2024-09-18T13:49:51Z</time>
      </trkpt>
      <trkpt lat="46.56251" lon="4.91295">
        <ele>188</ele>
        <time>2024-09-18T13:49:52Z</time>
      </trkpt>
      <trkpt lat="46.56247" lon="4.91298">
        <ele>189</ele>
        <time>2024-09-18T13:49:53Z</time>
      </trkpt>
      <trkpt lat="46.56243" lon="4.91302">
        <ele>188.8</ele>
        <time>2024-09-18T13:49:54Z</time>
      </trkpt>
      <trkpt lat="46.56239" lon="4.91305">
        <ele>188.8</ele>
        <time>2024-09-18T13:49:55Z</time>
      </trkpt>
      <trkpt lat="46.56235" lon="4.91309">
        <ele>188.8</ele>
        <time>2024-09-18T13:49:56Z</time>
      </trkpt>
      <trkpt lat="46.56231" lon="4.91311">
        <ele>188.8</ele>
        <time>2024-09-18T13:49:57Z</time>
      </trkpt>
      <trkpt lat="46.56228" lon="4.91315">
        <ele>188.8</ele>
        <time>2024-09-18T13:49:58Z</time>
      </trkpt>
      <trkpt lat="46.56224" lon="4.91318">
        <ele>188.6</ele>
        <time>2024-09-18T13:49:59Z</time>
      </trkpt>
      <trkpt lat="46.56221" lon="4.91321">
        <ele>188.6</ele>
        <time>2024-09-18T13:50:00Z</time>
      </trkpt>
      <trkpt lat="46.56218" lon="4.91324">
        <ele>188.6</ele>
        <time>2024-09-18T13:50:01Z</time>
      </trkpt>
      <trkpt lat="46.56215" lon="4.91326">
        <ele>188.6</ele>
        <time>2024-09-18T13:50:02Z</time>
      </trkpt>
      <trkpt lat="46.56212" lon="4.91329">
        <ele>188.6</ele>
        <time>2024-09-18T13:50:03Z</time>
      </trkpt>
      <trkpt lat="46.56209" lon="4.91331">
        <ele>188</ele>
        <time>2024-09-18T13:50:04Z</time>
      </trkpt>
      <trkpt lat="46.56205" lon="4.91334">
        <ele>188</ele>
        <time>2024-09-18T13:50:05Z</time>
      </trkpt>
      <trkpt lat="46.56203" lon="4.91335">
        <ele>188</ele>
        <time>2024-09-18T13:50:06Z</time>
      </trkpt>
      <trkpt lat="46.562" lon="4.91337">
        <ele>188.2</ele>
        <time>2024-09-18T13:50:07Z</time>
      </trkpt>
      <trkpt lat="46.56198" lon="4.91341">
        <ele>188.4</ele>
        <time>2024-09-18T13:50:08Z</time>
      </trkpt>
      <trkpt lat="46.56198" lon="4.91343">
        <ele>188.4</ele>
        <time>2024-09-18T13:50:09Z</time>
      </trkpt>
      <trkpt lat="46.56197" lon="4.91345">
        <ele>188.4</ele>
        <time>2024-09-18T13:50:10Z</time>
      </trkpt>
      <trkpt lat="46.56198" lon="4.91348">
        <ele>188.4</ele>
        <time>2024-09-18T13:50:11Z</time>
      </trkpt>
      <trkpt lat="46.56199" lon="4.9135">
        <ele>188.4</ele>
        <time>2024-09-18T13:50:12Z</time>
      </trkpt>
      <trkpt lat="46.562" lon="4.91353">
        <ele>188.2</ele>
        <time>2024-09-18T13:50:13Z</time>
      </trkpt>
      <trkpt lat="46.562" lon="4.91356">
        <ele>188.2</ele>
        <time>2024-09-18T13:50:14Z</time>
      </trkpt>
      <trkpt lat="46.562" lon="4.91359">
        <ele>188.2</ele>
        <time>2024-09-18T13:50:15Z</time>
      </trkpt>
      <trkpt lat="46.56198" lon="4.91363">
        <ele>188.2</ele>
        <time>2024-09-18T13:50:16Z</time>
      </trkpt>
      <trkpt lat="46.56196" lon="4.91366">
        <ele>188.4</ele>
        <time>2024-09-18T13:50:17Z</time>
      </trkpt>
      <trkpt lat="46.56194" lon="4.91369">
        <ele>188.4</ele>
        <time>2024-09-18T13:50:18Z</time>
      </trkpt>
      <trkpt lat="46.56191" lon="4.91372">
        <ele>188.4</ele>
        <time>2024-09-18T13:50:19Z</time>
      </trkpt>
      <trkpt lat="46.56188" lon="4.91375">
        <ele>187.8</ele>
        <time>2024-09-18T13:50:20Z</time>
      </trkpt>
      <trkpt lat="46.56185" lon="4.91377">
        <ele>187.8</ele>
        <time>2024-09-18T13:50:21Z</time>
      </trkpt>
      <trkpt lat="46.56182" lon="4.91379">
        <ele>188.6</ele>
        <time>2024-09-18T13:50:22Z</time>
      </trkpt>
      <trkpt lat="46.56179" lon="4.91381">
        <ele>188.6</ele>
        <time>2024-09-18T13:50:23Z</time>
      </trkpt>
      <trkpt lat="46.56177" lon="4.91383">
        <ele>188.6</ele>
        <time>2024-09-18T13:50:24Z</time>
      </trkpt>
      <trkpt lat="46.56176" lon="4.91384">
        <ele>188.4</ele>
        <time>2024-09-18T13:50:25Z</time>
      </trkpt>
      <trkpt lat="46.56175" lon="4.91386">
        <ele>188.4</ele>
        <time>2024-09-18T13:50:26Z</time>
      </trkpt>
      <trkpt lat="46.56174" lon="4.91387">
        <ele>188.4</ele>
        <time>2024-09-18T13:50:27Z</time>
      </trkpt>
      <trkpt lat="46.56173" lon="4.91388">
        <ele>188.4</ele>
        <time>2024-09-18T13:50:28Z</time>
      </trkpt>
      <trkpt lat="46.56172" lon="4.91389">
        <ele>188.4</ele>
        <time>2024-09-18T13:50:29Z</time>
      </trkpt>
      <trkpt lat="46.5617" lon="4.91391">
        <ele>187.4</ele>
        <time>2024-09-18T13:50:30Z</time>
      </trkpt>
      <trkpt lat="46.56169" lon="4.91392">
        <ele>187.4</ele>
        <time>2024-09-18T13:50:31Z</time>
      </trkpt>
      <trkpt lat="46.56167" lon="4.91393">
        <ele>187.4</ele>
        <time>2024-09-18T13:50:32Z</time>
      </trkpt>
      <trkpt lat="46.56164" lon="4.91397">
        <ele>187.4</ele>
        <time>2024-09-18T13:50:33Z</time>
      </trkpt>
      <trkpt lat="46.56163" lon="4.91398">
        <ele>187.4</ele>
        <time>2024-09-18T13:50:34Z</time>
      </trkpt>
      <trkpt lat="46.56161" lon="4.914">
        <ele>188.2</ele>
        <time>2024-09-18T13:50:35Z</time>
      </trkpt>
      <trkpt lat="46.56158" lon="4.91402">
        <ele>188.2</ele>
        <time>2024-09-18T13:50:36Z</time>
      </trkpt>
      <trkpt lat="46.56156" lon="4.91404">
        <ele>188.2</ele>
        <time>2024-09-18T13:50:37Z</time>
      </trkpt>
      <trkpt lat="46.56154" lon="4.91406">
        <ele>188.2</ele>
        <time>2024-09-18T13:50:38Z</time>
      </trkpt>
      <trkpt lat="46.56152" lon="4.91407">
        <ele>188.6</ele>
        <time>2024-09-18T13:50:39Z</time>
      </trkpt>
      <trkpt lat="46.5615" lon="4.91409">
        <ele>188.6</ele>
        <time>2024-09-18T13:50:40Z</time>
      </trkpt>
      <trkpt lat="46.56148" lon="4.91411">
        <ele>188.6</ele>
        <time>2024-09-18T13:50:41Z</time>
      </trkpt>
      <trkpt lat="46.56146" lon="4.91413">
        <ele>188.6</ele>
        <time>2024-09-18T13:50:42Z</time>
      </trkpt>
      <trkpt lat="46.56144" lon="4.91415">
        <ele>188.2</ele>
        <time>2024-09-18T13:50:43Z</time>
      </trkpt>
      <trkpt lat="46.56143" lon="4.91418">
        <ele>188.2</ele>
        <time>2024-09-18T13:50:44Z</time>
      </trkpt>
      <trkpt lat="46.56139" lon="4.91421">
        <ele>188.2</ele>
        <time>2024-09-18T13:50:45Z</time>
      </trkpt>
      <trkpt lat="46.56138" lon="4.91422">
        <ele>188.2</ele>
        <time>2024-09-18T13:50:46Z</time>
      </trkpt>
      <trkpt lat="46.56136" lon="4.91425">
        <ele>188.2</ele>
        <time>2024-09-18T13:50:47Z</time>
      </trkpt>
      <trkpt lat="46.56133" lon="4.91427">
        <ele>188.2</ele>
        <time>2024-09-18T13:50:48Z</time>
      </trkpt>
      <trkpt lat="46.56131" lon="4.91429">
        <ele>188.4</ele>
        <time>2024-09-18T13:50:49Z</time>
      </trkpt>
      <trkpt lat="46.56128" lon="4.91431">
        <ele>188.4</ele>
        <time>2024-09-18T13:50:50Z</time>
      </trkpt>
      <trkpt lat="46.56126" lon="4.91433">
        <ele>188.4</ele>
        <time>2024-09-18T13:50:51Z</time>
      </trkpt>
      <trkpt lat="46.56124" lon="4.91436">
        <ele>187.6</ele>
        <time>2024-09-18T13:50:52Z</time>
      </trkpt>
      <trkpt lat="46.56122" lon="4.91438">
        <ele>188.4</ele>
        <time>2024-09-18T13:50:53Z</time>
      </trkpt>
      <trkpt lat="46.5612" lon="4.9144">
        <ele>188.4</ele>
        <time>2024-09-18T13:50:54Z</time>
      </trkpt>
      <trkpt lat="46.56117" lon="4.91442">
        <ele>188.4</ele>
        <time>2024-09-18T13:50:55Z</time>
      </trkpt>
      <trkpt lat="46.56115" lon="4.91444">
        <ele>188</ele>
        <time>2024-09-18T13:50:56Z</time>
      </trkpt>
      <trkpt lat="46.56113" lon="4.91447">
        <ele>188</ele>
        <time>2024-09-18T13:50:57Z</time>
      </trkpt>
      <trkpt lat="46.56112" lon="4.91449">
        <ele>187.2</ele>
        <time>2024-09-18T13:50:58Z</time>
      </trkpt>
      <trkpt lat="46.5611" lon="4.91451">
        <ele>187.2</ele>
        <time>2024-09-18T13:50:59Z</time>
      </trkpt>
      <trkpt lat="46.56108" lon="4.91453">
        <ele>187.2</ele>
        <time>2024-09-18T13:51:00Z</time>
      </trkpt>
      <trkpt lat="46.56106" lon="4.91455">
        <ele>188.2</ele>
        <time>2024-09-18T13:51:01Z</time>
      </trkpt>
      <trkpt lat="46.56104" lon="4.91458">
        <ele>188.2</ele>
        <time>2024-09-18T13:51:02Z</time>
      </trkpt>
      <trkpt lat="46.56102" lon="4.9146">
        <ele>188.2</ele>
        <time>2024-09-18T13:51:03Z</time>
      </trkpt>
      <trkpt lat="46.561" lon="4.91462">
        <ele>188.2</ele>
        <time>2024-09-18T13:51:04Z</time>
      </trkpt>
      <trkpt lat="46.56098" lon="4.91464">
        <ele>188.2</ele>
        <time>2024-09-18T13:51:05Z</time>
      </trkpt>
      <trkpt lat="46.56095" lon="4.91467">
        <ele>188</ele>
        <time>2024-09-18T13:51:06Z</time>
      </trkpt>
      <trkpt lat="46.56093" lon="4.91469">
        <ele>188</ele>
        <time>2024-09-18T13:51:07Z</time>
      </trkpt>
      <trkpt lat="46.56091" lon="4.91471">
        <ele>188</ele>
        <time>2024-09-18T13:51:08Z</time>
      </trkpt>
      <trkpt lat="46.56089" lon="4.91472">
        <ele>188</ele>
        <time>2024-09-18T13:51:09Z</time>
      </trkpt>
      <trkpt lat="46.56087" lon="4.91474">
        <ele>188</ele>
        <time>2024-09-18T13:51:10Z</time>
      </trkpt>
      <trkpt lat="46.56084" lon="4.91476">
        <ele>188</ele>
        <time>2024-09-18T13:51:11Z</time>
      </trkpt>
      <trkpt lat="46.56082" lon="4.91478">
        <ele>188</ele>
        <time>2024-09-18T13:51:12Z</time>
      </trkpt>
      <trkpt lat="46.5608" lon="4.91481">
        <ele>188</ele>
        <time>2024-09-18T13:51:13Z</time>
      </trkpt>
      <trkpt lat="46.56078" lon="4.91484">
        <ele>188</ele>
        <time>2024-09-18T13:51:14Z</time>
      </trkpt>
      <trkpt lat="46.56075" lon="4.91487">
        <ele>188.2</ele>
        <time>2024-09-18T13:51:15Z</time>
      </trkpt>
      <trkpt lat="46.56073" lon="4.91489">
        <ele>188.2</ele>
        <time>2024-09-18T13:51:16Z</time>
      </trkpt>
      <trkpt lat="46.56071" lon="4.91491">
        <ele>188.2</ele>
        <time>2024-09-18T13:51:17Z</time>
      </trkpt>
      <trkpt lat="46.56068" lon="4.91494">
        <ele>188.2</ele>
        <time>2024-09-18T13:51:18Z</time>
      </trkpt>
      <trkpt lat="46.56066" lon="4.91496">
        <ele>187.6</ele>
        <time>2024-09-18T13:51:19Z</time>
      </trkpt>
      <trkpt lat="46.56064" lon="4.91499">
        <ele>187.6</ele>
        <time>2024-09-18T13:51:20Z</time>
      </trkpt>
      <trkpt lat="46.56062" lon="4.91501">
        <ele>187.6</ele>
        <time>2024-09-18T13:51:21Z</time>
      </trkpt>
      <trkpt lat="46.56059" lon="4.91504">
        <ele>187.6</ele>
        <time>2024-09-18T13:51:22Z</time>
      </trkpt>
      <trkpt lat="46.56057" lon="4.91506">
        <ele>188</ele>
        <time>2024-09-18T13:51:23Z</time>
      </trkpt>
      <trkpt lat="46.56055" lon="4.91508">
        <ele>187.8</ele>
        <time>2024-09-18T13:51:24Z</time>
      </trkpt>
      <trkpt lat="46.56053" lon="4.91508">
        <ele>187.8</ele>
        <time>2024-09-18T13:51:25Z</time>
      </trkpt>
      <trkpt lat="46.56051" lon="4.91509">
        <ele>187.8</ele>
        <time>2024-09-18T13:51:26Z</time>
      </trkpt>
      <trkpt lat="46.56049" lon="4.91511">
        <ele>188.6</ele>
        <time>2024-09-18T13:51:27Z</time>
      </trkpt>
      <trkpt lat="46.56048" lon="4.91513">
        <ele>188.4</ele>
        <time>2024-09-18T13:51:28Z</time>
      </trkpt>
      <trkpt lat="46.56046" lon="4.91515">
        <ele>188.4</ele>
        <time>2024-09-18T13:51:29Z</time>
      </trkpt>
      <trkpt lat="46.56044" lon="4.91516">
        <ele>188.4</ele>
        <time>2024-09-18T13:51:30Z</time>
      </trkpt>
      <trkpt lat="46.56042" lon="4.91518">
        <ele>188.4</ele>
        <time>2024-09-18T13:51:31Z</time>
      </trkpt>
      <trkpt lat="46.56041" lon="4.9152">
        <ele>188.4</ele>
        <time>2024-09-18T13:51:32Z</time>
      </trkpt>
      <trkpt lat="46.56039" lon="4.91521">
        <ele>187.8</ele>
        <time>2024-09-18T13:51:33Z</time>
      </trkpt>
      <trkpt lat="46.56037" lon="4.91523">
        <ele>187.8</ele>
        <time>2024-09-18T13:51:34Z</time>
      </trkpt>
      <trkpt lat="46.56034" lon="4.91525">
        <ele>187.8</ele>
        <time>2024-09-18T13:51:35Z</time>
      </trkpt>
      <trkpt lat="46.56032" lon="4.91527">
        <ele>188.4</ele>
        <time>2024-09-18T13:51:36Z</time>
      </trkpt>
      <trkpt lat="46.5603" lon="4.9153">
        <ele>188.4</ele>
        <time>2024-09-18T13:51:37Z</time>
      </trkpt>
      <trkpt lat="46.56029" lon="4.91531">
        <ele>188.4</ele>
        <time>2024-09-18T13:51:38Z</time>
      </trkpt>
      <trkpt lat="46.56027" lon="4.91533">
        <ele>188.4</ele>
        <time>2024-09-18T13:51:39Z</time>
      </trkpt>
      <trkpt lat="46.56025" lon="4.91534">
        <ele>188.4</ele>
        <time>2024-09-18T13:51:40Z</time>
      </trkpt>
      <trkpt lat="46.56024" lon="4.91535">
        <ele>187.6</ele>
        <time>2024-09-18T13:51:41Z</time>
      </trkpt>
      <trkpt lat="46.56022" lon="4.91535">
        <ele>188.4</ele>
        <time>2024-09-18T13:51:42Z</time>
      </trkpt>
      <trkpt lat="46.56021" lon="4.91536">
        <ele>188.4</ele>
        <time>2024-09-18T13:51:43Z</time>
      </trkpt>
      <trkpt lat="46.5602" lon="4.91536">
        <ele>188.4</ele>
        <time>2024-09-18T13:51:44Z</time>
      </trkpt>
      <trkpt lat="46.56019" lon="4.91536">
        <ele>188.4</ele>
        <time>2024-09-18T13:51:45Z</time>
      </trkpt>
      <trkpt lat="46.56018" lon="4.91536">
        <ele>188.4</ele>
        <time>2024-09-18T13:51:46Z</time>
      </trkpt>
      <trkpt lat="46.56018" lon="4.91536">
        <ele>188.4</ele>
        <time>2024-09-18T13:51:47Z</time>
      </trkpt>
      <trkpt lat="46.56014" lon="4.91537">
        <ele>188.4</ele>
        <time>2024-09-18T13:51:57Z</time>
      </trkpt>
      <trkpt lat="46.56011" lon="4.91538">
        <ele>188.4</ele>
        <time>2024-09-18T13:51:58Z</time>
      </trkpt>
      <trkpt lat="46.56009" lon="4.91539">
        <ele>188.4</ele>
        <time>2024-09-18T13:51:59Z</time>
      </trkpt>
      <trkpt lat="46.56006" lon="4.91541">
        <ele>188.4</ele>
        <time>2024-09-18T13:52:00Z</time>
      </trkpt>
      <trkpt lat="46.56003" lon="4.91542">
        <ele>188.4</ele>
        <time>2024-09-18T13:52:01Z</time>
      </trkpt>
      <trkpt lat="46.56" lon="4.91544">
        <ele>188.4</ele>
        <time>2024-09-18T13:52:02Z</time>
      </trkpt>
      <trkpt lat="46.55996" lon="4.91547">
        <ele>188.4</ele>
        <time>2024-09-18T13:52:03Z</time>
      </trkpt>
      <trkpt lat="46.55993" lon="4.91548">
        <ele>188.4</ele>
        <time>2024-09-18T13:52:04Z</time>
      </trkpt>
      <trkpt lat="46.55989" lon="4.91551">
        <ele>188.4</ele>
        <time>2024-09-18T13:52:05Z</time>
      </trkpt>
      <trkpt lat="46.55985" lon="4.91553">
        <ele>188.4</ele>
        <time>2024-09-18T13:52:06Z</time>
      </trkpt>
      <trkpt lat="46.55982" lon="4.91555">
        <ele>188.2</ele>
        <time>2024-09-18T13:52:07Z</time>
      </trkpt>
      <trkpt lat="46.55978" lon="4.91557">
        <ele>188.2</ele>
        <time>2024-09-18T13:52:08Z</time>
      </trkpt>
      <trkpt lat="46.55975" lon="4.9156">
        <ele>187.8</ele>
        <time>2024-09-18T13:52:09Z</time>
      </trkpt>
      <trkpt lat="46.55972" lon="4.91563">
        <ele>187.8</ele>
        <time>2024-09-18T13:52:10Z</time>
      </trkpt>
      <trkpt lat="46.55968" lon="4.91565">
        <ele>187.8</ele>
        <time>2024-09-18T13:52:11Z</time>
      </trkpt>
      <trkpt lat="46.55964" lon="4.91567">
        <ele>187.8</ele>
        <time>2024-09-18T13:52:12Z</time>
      </trkpt>
      <trkpt lat="46.5596" lon="4.9157">
        <ele>187.8</ele>
        <time>2024-09-18T13:52:13Z</time>
      </trkpt>
      <trkpt lat="46.55956" lon="4.91572">
        <ele>188.6</ele>
        <time>2024-09-18T13:52:14Z</time>
      </trkpt>
      <trkpt lat="46.55952" lon="4.91574">
        <ele>188.6</ele>
        <time>2024-09-18T13:52:15Z</time>
      </trkpt>
      <trkpt lat="46.55949" lon="4.91577">
        <ele>188.6</ele>
        <time>2024-09-18T13:52:16Z</time>
      </trkpt>
      <trkpt lat="46.55945" lon="4.91579">
        <ele>188.6</ele>
        <time>2024-09-18T13:52:17Z</time>
      </trkpt>
      <trkpt lat="46.55941" lon="4.91582">
        <ele>188.4</ele>
        <time>2024-09-18T13:52:18Z</time>
      </trkpt>
      <trkpt lat="46.55937" lon="4.91585">
        <ele>188.4</ele>
        <time>2024-09-18T13:52:19Z</time>
      </trkpt>
      <trkpt lat="46.55933" lon="4.91587">
        <ele>188.4</ele>
        <time>2024-09-18T13:52:20Z</time>
      </trkpt>
      <trkpt lat="46.55929" lon="4.91589">
        <ele>188.4</ele>
        <time>2024-09-18T13:52:21Z</time>
      </trkpt>
      <trkpt lat="46.55925" lon="4.91593">
        <ele>188.4</ele>
        <time>2024-09-18T13:52:22Z</time>
      </trkpt>
      <trkpt lat="46.55921" lon="4.91596">
        <ele>188.6</ele>
        <time>2024-09-18T13:52:23Z</time>
      </trkpt>
      <trkpt lat="46.55917" lon="4.91598">
        <ele>188.6</ele>
        <time>2024-09-18T13:52:24Z</time>
      </trkpt>
      <trkpt lat="46.55913" lon="4.91601">
        <ele>188.6</ele>
        <time>2024-09-18T13:52:25Z</time>
      </trkpt>
      <trkpt lat="46.55909" lon="4.91603">
        <ele>188.6</ele>
        <time>2024-09-18T13:52:26Z</time>
      </trkpt>
      <trkpt lat="46.55905" lon="4.91605">
        <ele>188.6</ele>
        <time>2024-09-18T13:52:27Z</time>
      </trkpt>
      <trkpt lat="46.55901" lon="4.91608">
        <ele>188.6</ele>
        <time>2024-09-18T13:52:28Z</time>
      </trkpt>
      <trkpt lat="46.55897" lon="4.9161">
        <ele>188.6</ele>
        <time>2024-09-18T13:52:29Z</time>
      </trkpt>
      <trkpt lat="46.55893" lon="4.91612">
        <ele>188.6</ele>
        <time>2024-09-18T13:52:30Z</time>
      </trkpt>
      <trkpt lat="46.55889" lon="4.91615">
        <ele>188.6</ele>
        <time>2024-09-18T13:52:31Z</time>
      </trkpt>
      <trkpt lat="46.55885" lon="4.91618">
        <ele>188.6</ele>
        <time>2024-09-18T13:52:32Z</time>
      </trkpt>
      <trkpt lat="46.55881" lon="4.9162">
        <ele>188.6</ele>
        <time>2024-09-18T13:52:33Z</time>
      </trkpt>
      <trkpt lat="46.55877" lon="4.91622">
        <ele>188.6</ele>
        <time>2024-09-18T13:52:34Z</time>
      </trkpt>
      <trkpt lat="46.55873" lon="4.91625">
        <ele>188.8</ele>
        <time>2024-09-18T13:52:35Z</time>
      </trkpt>
      <trkpt lat="46.55869" lon="4.91627">
        <ele>188.6</ele>
        <time>2024-09-18T13:52:36Z</time>
      </trkpt>
      <trkpt lat="46.55865" lon="4.9163">
        <ele>188.6</ele>
        <time>2024-09-18T13:52:37Z</time>
      </trkpt>
      <trkpt lat="46.55861" lon="4.91633">
        <ele>188.6</ele>
        <time>2024-09-18T13:52:38Z</time>
      </trkpt>
      <trkpt lat="46.55857" lon="4.91635">
        <ele>188.2</ele>
        <time>2024-09-18T13:52:39Z</time>
      </trkpt>
      <trkpt lat="46.55853" lon="4.91637">
        <ele>188.2</ele>
        <time>2024-09-18T13:52:40Z</time>
      </trkpt>
      <trkpt lat="46.55849" lon="4.91639">
        <ele>188.2</ele>
        <time>2024-09-18T13:52:41Z</time>
      </trkpt>
      <trkpt lat="46.55845" lon="4.91641">
        <ele>188.2</ele>
        <time>2024-09-18T13:52:42Z</time>
      </trkpt>
      <trkpt lat="46.55841" lon="4.91644">
        <ele>188.6</ele>
        <time>2024-09-18T13:52:43Z</time>
      </trkpt>
      <trkpt lat="46.55837" lon="4.91646">
        <ele>188.6</ele>
        <time>2024-09-18T13:52:44Z</time>
      </trkpt>
      <trkpt lat="46.55833" lon="4.91648">
        <ele>188.6</ele>
        <time>2024-09-18T13:52:45Z</time>
      </trkpt>
      <trkpt lat="46.55829" lon="4.91651">
        <ele>188.6</ele>
        <time>2024-09-18T13:52:46Z</time>
      </trkpt>
      <trkpt lat="46.55825" lon="4.91654">
        <ele>188.6</ele>
        <time>2024-09-18T13:52:47Z</time>
      </trkpt>
      <trkpt lat="46.55821" lon="4.91657">
        <ele>188.6</ele>
        <time>2024-09-18T13:52:48Z</time>
      </trkpt>
      <trkpt lat="46.55817" lon="4.9166">
        <ele>189</ele>
        <time>2024-09-18T13:52:49Z</time>
      </trkpt>
      <trkpt lat="46.55813" lon="4.91663">
        <ele>189</ele>
        <time>2024-09-18T13:52:50Z</time>
      </trkpt>
      <trkpt lat="46.5581" lon="4.91667">
        <ele>189</ele>
        <time>2024-09-18T13:52:51Z</time>
      </trkpt>
      <trkpt lat="46.55806" lon="4.9167">
        <ele>189</ele>
        <time>2024-09-18T13:52:52Z</time>
      </trkpt>
      <trkpt lat="46.55802" lon="4.91672">
        <ele>188.4</ele>
        <time>2024-09-18T13:52:53Z</time>
      </trkpt>
      <trkpt lat="46.55798" lon="4.91675">
        <ele>188.4</ele>
        <time>2024-09-18T13:52:54Z</time>
      </trkpt>
      <trkpt lat="46.55794" lon="4.91677">
        <ele>188.4</ele>
        <time>2024-09-18T13:52:55Z</time>
      </trkpt>
      <trkpt lat="46.55789" lon="4.91679">
        <ele>188.4</ele>
        <time>2024-09-18T13:52:56Z</time>
      </trkpt>
      <trkpt lat="46.55785" lon="4.91681">
        <ele>188.4</ele>
        <time>2024-09-18T13:52:57Z</time>
      </trkpt>
      <trkpt lat="46.55782" lon="4.91684">
        <ele>188.4</ele>
        <time>2024-09-18T13:52:58Z</time>
      </trkpt>
      <trkpt lat="46.55778" lon="4.91686">
        <ele>188.2</ele>
        <time>2024-09-18T13:52:59Z</time>
      </trkpt>
      <trkpt lat="46.55774" lon="4.91689">
        <ele>188.2</ele>
        <time>2024-09-18T13:53:00Z</time>
      </trkpt>
      <trkpt lat="46.55769" lon="4.91692">
        <ele>188.2</ele>
        <time>2024-09-18T13:53:01Z</time>
      </trkpt>
      <trkpt lat="46.55765" lon="4.91694">
        <ele>188.4</ele>
        <time>2024-09-18T13:53:02Z</time>
      </trkpt>
      <trkpt lat="46.55761" lon="4.91696">
        <ele>188.6</ele>
        <time>2024-09-18T13:53:03Z</time>
      </trkpt>
      <trkpt lat="46.55757" lon="4.91698">
        <ele>188.6</ele>
        <time>2024-09-18T13:53:04Z</time>
      </trkpt>
      <trkpt lat="46.55753" lon="4.917">
        <ele>188.6</ele>
        <time>2024-09-18T13:53:05Z</time>
      </trkpt>
      <trkpt lat="46.55748" lon="4.91702">
        <ele>189.6</ele>
        <time>2024-09-18T13:53:06Z</time>
      </trkpt>
      <trkpt lat="46.55744" lon="4.91704">
        <ele>189.6</ele>
        <time>2024-09-18T13:53:07Z</time>
      </trkpt>
      <trkpt lat="46.55739" lon="4.91706">
        <ele>189.6</ele>
        <time>2024-09-18T13:53:08Z</time>
      </trkpt>
      <trkpt lat="46.55735" lon="4.91708">
        <ele>189.6</ele>
        <time>2024-09-18T13:53:09Z</time>
      </trkpt>
      <trkpt lat="46.5573" lon="4.9171">
        <ele>189.6</ele>
        <time>2024-09-18T13:53:10Z</time>
      </trkpt>
      <trkpt lat="46.55726" lon="4.91713">
        <ele>189.2</ele>
        <time>2024-09-18T13:53:11Z</time>
      </trkpt>
      <trkpt lat="46.55721" lon="4.91715">
        <ele>189.4</ele>
        <time>2024-09-18T13:53:12Z</time>
      </trkpt>
      <trkpt lat="46.55717" lon="4.91717">
        <ele>189.4</ele>
        <time>2024-09-18T13:53:13Z</time>
      </trkpt>
      <trkpt lat="46.55713" lon="4.91719">
        <ele>189.4</ele>
        <time>2024-09-18T13:53:14Z</time>
      </trkpt>
      <trkpt lat="46.55708" lon="4.91722">
        <ele>189</ele>
        <time>2024-09-18T13:53:15Z</time>
      </trkpt>
      <trkpt lat="46.55704" lon="4.91724">
        <ele>189</ele>
        <time>2024-09-18T13:53:16Z</time>
      </trkpt>
      <trkpt lat="46.55699" lon="4.91726">
        <ele>189.4</ele>
        <time>2024-09-18T13:53:17Z</time>
      </trkpt>
      <trkpt lat="46.55695" lon="4.91728">
        <ele>189.4</ele>
        <time>2024-09-18T13:53:18Z</time>
      </trkpt>
      <trkpt lat="46.55691" lon="4.9173">
        <ele>189.4</ele>
        <time>2024-09-18T13:53:19Z</time>
      </trkpt>
      <trkpt lat="46.55687" lon="4.91732">
        <ele>188.8</ele>
        <time>2024-09-18T13:53:20Z</time>
      </trkpt>
      <trkpt lat="46.55682" lon="4.91733">
        <ele>188.8</ele>
        <time>2024-09-18T13:53:21Z</time>
      </trkpt>
      <trkpt lat="46.55677" lon="4.91735">
        <ele>188.8</ele>
        <time>2024-09-18T13:53:22Z</time>
      </trkpt>
      <trkpt lat="46.55673" lon="4.91736">
        <ele>188.8</ele>
        <time>2024-09-18T13:53:23Z</time>
      </trkpt>
      <trkpt lat="46.55668" lon="4.91737">
        <ele>189</ele>
        <time>2024-09-18T13:53:24Z</time>
      </trkpt>
      <trkpt lat="46.55664" lon="4.91738">
        <ele>189</ele>
        <time>2024-09-18T13:53:25Z</time>
      </trkpt>
      <trkpt lat="46.5566" lon="4.91739">
        <ele>189</ele>
        <time>2024-09-18T13:53:26Z</time>
      </trkpt>
      <trkpt lat="46.55655" lon="4.9174">
        <ele>189</ele>
        <time>2024-09-18T13:53:27Z</time>
      </trkpt>
      <trkpt lat="46.5565" lon="4.91742">
        <ele>189.4</ele>
        <time>2024-09-18T13:53:28Z</time>
      </trkpt>
      <trkpt lat="46.55645" lon="4.91744">
        <ele>189.4</ele>
        <time>2024-09-18T13:53:29Z</time>
      </trkpt>
      <trkpt lat="46.5564" lon="4.91745">
        <ele>189</ele>
        <time>2024-09-18T13:53:30Z</time>
      </trkpt>
      <trkpt lat="46.55635" lon="4.91747">
        <ele>189</ele>
        <time>2024-09-18T13:53:31Z</time>
      </trkpt>
      <trkpt lat="46.5563" lon="4.91749">
        <ele>189</ele>
        <time>2024-09-18T13:53:32Z</time>
      </trkpt>
      <trkpt lat="46.55625" lon="4.91751">
        <ele>189</ele>
        <time>2024-09-18T13:53:33Z</time>
      </trkpt>
      <trkpt lat="46.5562" lon="4.91751">
        <ele>188.8</ele>
        <time>2024-09-18T13:53:34Z</time>
      </trkpt>
      <trkpt lat="46.55615" lon="4.91752">
        <ele>188.8</ele>
        <time>2024-09-18T13:53:35Z</time>
      </trkpt>
      <trkpt lat="46.55611" lon="4.91753">
        <ele>188.8</ele>
        <time>2024-09-18T13:53:36Z</time>
      </trkpt>
      <trkpt lat="46.55604" lon="4.91755">
        <ele>188.8</ele>
        <time>2024-09-18T13:53:37Z</time>
      </trkpt>
      <trkpt lat="46.55602" lon="4.91756">
        <ele>188.8</ele>
        <time>2024-09-18T13:53:38Z</time>
      </trkpt>
      <trkpt lat="46.55598" lon="4.91757">
        <ele>189</ele>
        <time>2024-09-18T13:53:39Z</time>
      </trkpt>
      <trkpt lat="46.55594" lon="4.91758">
        <ele>189</ele>
        <time>2024-09-18T13:53:40Z</time>
      </trkpt>
      <trkpt lat="46.55589" lon="4.91759">
        <ele>189</ele>
        <time>2024-09-18T13:53:41Z</time>
      </trkpt>
      <trkpt lat="46.55585" lon="4.9176">
        <ele>189</ele>
        <time>2024-09-18T13:53:42Z</time>
      </trkpt>
      <trkpt lat="46.55582" lon="4.91761">
        <ele>189</ele>
        <time>2024-09-18T13:53:43Z</time>
      </trkpt>
      <trkpt lat="46.55578" lon="4.91762">
        <ele>188.8</ele>
        <time>2024-09-18T13:53:44Z</time>
      </trkpt>
      <trkpt lat="46.55575" lon="4.91763">
        <ele>188.8</ele>
        <time>2024-09-18T13:53:45Z</time>
      </trkpt>
      <trkpt lat="46.55572" lon="4.91764">
        <ele>188.8</ele>
        <time>2024-09-18T13:53:46Z</time>
      </trkpt>
      <trkpt lat="46.55568" lon="4.91766">
        <ele>189.8</ele>
        <time>2024-09-18T13:53:47Z</time>
      </trkpt>
      <trkpt lat="46.55565" lon="4.91769">
        <ele>189.4</ele>
        <time>2024-09-18T13:53:48Z</time>
      </trkpt>
      <trkpt lat="46.55561" lon="4.91771">
        <ele>189.4</ele>
        <time>2024-09-18T13:53:49Z</time>
      </trkpt>
      <trkpt lat="46.55557" lon="4.91773">
        <ele>189.4</ele>
        <time>2024-09-18T13:53:50Z</time>
      </trkpt>
      <trkpt lat="46.55552" lon="4.91774">
        <ele>189.4</ele>
        <time>2024-09-18T13:53:51Z</time>
      </trkpt>
      <trkpt lat="46.55547" lon="4.91776">
        <ele>188.8</ele>
        <time>2024-09-18T13:53:52Z</time>
      </trkpt>
      <trkpt lat="46.55542" lon="4.91778">
        <ele>188.8</ele>
        <time>2024-09-18T13:53:53Z</time>
      </trkpt>
      <trkpt lat="46.55537" lon="4.91779">
        <ele>188.8</ele>
        <time>2024-09-18T13:53:54Z</time>
      </trkpt>
      <trkpt lat="46.55533" lon="4.91781">
        <ele>189</ele>
        <time>2024-09-18T13:53:55Z</time>
      </trkpt>
      <trkpt lat="46.55528" lon="4.91784">
        <ele>189</ele>
        <time>2024-09-18T13:53:56Z</time>
      </trkpt>
      <trkpt lat="46.55524" lon="4.91786">
        <ele>189.6</ele>
        <time>2024-09-18T13:53:57Z</time>
      </trkpt>
      <trkpt lat="46.55521" lon="4.91788">
        <ele>189.6</ele>
        <time>2024-09-18T13:53:58Z</time>
      </trkpt>
      <trkpt lat="46.55517" lon="4.91789">
        <ele>189.6</ele>
        <time>2024-09-18T13:53:59Z</time>
      </trkpt>
      <trkpt lat="46.55513" lon="4.9179">
        <ele>189.2</ele>
        <time>2024-09-18T13:54:00Z</time>
      </trkpt>
      <trkpt lat="46.55508" lon="4.91792">
        <ele>189.2</ele>
        <time>2024-09-18T13:54:01Z</time>
      </trkpt>
      <trkpt lat="46.55504" lon="4.91794">
        <ele>189.2</ele>
        <time>2024-09-18T13:54:02Z</time>
      </trkpt>
      <trkpt lat="46.555" lon="4.91796">
        <ele>189.2</ele>
        <time>2024-09-18T13:54:03Z</time>
      </trkpt>
      <trkpt lat="46.55496" lon="4.91799">
        <ele>188.6</ele>
        <time>2024-09-18T13:54:04Z</time>
      </trkpt>
      <trkpt lat="46.55492" lon="4.91801">
        <ele>188.6</ele>
        <time>2024-09-18T13:54:05Z</time>
      </trkpt>
      <trkpt lat="46.55488" lon="4.91803">
        <ele>188.6</ele>
        <time>2024-09-18T13:54:06Z</time>
      </trkpt>
      <trkpt lat="46.55483" lon="4.91806">
        <ele>188.6</ele>
        <time>2024-09-18T13:54:07Z</time>
      </trkpt>
      <trkpt lat="46.55479" lon="4.91809">
        <ele>188.6</ele>
        <time>2024-09-18T13:54:08Z</time>
      </trkpt>
      <trkpt lat="46.55474" lon="4.91811">
        <ele>188.6</ele>
        <time>2024-09-18T13:54:09Z</time>
      </trkpt>
      <trkpt lat="46.55469" lon="4.91814">
        <ele>189</ele>
        <time>2024-09-18T13:54:10Z</time>
      </trkpt>
      <trkpt lat="46.55465" lon="4.91817">
        <ele>189</ele>
        <time>2024-09-18T13:54:11Z</time>
      </trkpt>
      <trkpt lat="46.5546" lon="4.91819">
        <ele>189</ele>
        <time>2024-09-18T13:54:12Z</time>
      </trkpt>
      <trkpt lat="46.55455" lon="4.91822">
        <ele>189</ele>
        <time>2024-09-18T13:54:13Z</time>
      </trkpt>
      <trkpt lat="46.55451" lon="4.91824">
        <ele>188.6</ele>
        <time>2024-09-18T13:54:14Z</time>
      </trkpt>
      <trkpt lat="46.55446" lon="4.91826">
        <ele>188.6</ele>
        <time>2024-09-18T13:54:15Z</time>
      </trkpt>
      <trkpt lat="46.55442" lon="4.91829">
        <ele>188.6</ele>
        <time>2024-09-18T13:54:16Z</time>
      </trkpt>
      <trkpt lat="46.55438" lon="4.91831">
        <ele>188.6</ele>
        <time>2024-09-18T13:54:17Z</time>
      </trkpt>
      <trkpt lat="46.55433" lon="4.91834">
        <ele>188.4</ele>
        <time>2024-09-18T13:54:18Z</time>
      </trkpt>
      <trkpt lat="46.55429" lon="4.91837">
        <ele>188.4</ele>
        <time>2024-09-18T13:54:19Z</time>
      </trkpt>
      <trkpt lat="46.55425" lon="4.9184">
        <ele>188.4</ele>
        <time>2024-09-18T13:54:20Z</time>
      </trkpt>
      <trkpt lat="46.5542" lon="4.91842">
        <ele>188.4</ele>
        <time>2024-09-18T13:54:21Z</time>
      </trkpt>
      <trkpt lat="46.55416" lon="4.91843">
        <ele>188.4</ele>
        <time>2024-09-18T13:54:22Z</time>
      </trkpt>
      <trkpt lat="46.55412" lon="4.91845">
        <ele>188.4</ele>
        <time>2024-09-18T13:54:23Z</time>
      </trkpt>
      <trkpt lat="46.55407" lon="4.91848">
        <ele>188.2</ele>
        <time>2024-09-18T13:54:24Z</time>
      </trkpt>
      <trkpt lat="46.55404" lon="4.91851">
        <ele>188.2</ele>
        <time>2024-09-18T13:54:25Z</time>
      </trkpt>
      <trkpt lat="46.554" lon="4.91853">
        <ele>188.2</ele>
        <time>2024-09-18T13:54:26Z</time>
      </trkpt>
      <trkpt lat="46.55396" lon="4.91856">
        <ele>188.6</ele>
        <time>2024-09-18T13:54:27Z</time>
      </trkpt>
      <trkpt lat="46.55392" lon="4.91858">
        <ele>188.2</ele>
        <time>2024-09-18T13:54:28Z</time>
      </trkpt>
      <trkpt lat="46.55388" lon="4.9186">
        <ele>188.2</ele>
        <time>2024-09-18T13:54:29Z</time>
      </trkpt>
      <trkpt lat="46.55384" lon="4.91863">
        <ele>188.2</ele>
        <time>2024-09-18T13:54:30Z</time>
      </trkpt>
      <trkpt lat="46.5538" lon="4.91865">
        <ele>188.2</ele>
        <time>2024-09-18T13:54:31Z</time>
      </trkpt>
      <trkpt lat="46.55376" lon="4.91868">
        <ele>188.2</ele>
        <time>2024-09-18T13:54:32Z</time>
      </trkpt>
      <trkpt lat="46.55372" lon="4.91871">
        <ele>188</ele>
        <time>2024-09-18T13:54:33Z</time>
      </trkpt>
      <trkpt lat="46.55368" lon="4.91873">
        <ele>188</ele>
        <time>2024-09-18T13:54:34Z</time>
      </trkpt>
      <trkpt lat="46.55364" lon="4.91875">
        <ele>188</ele>
        <time>2024-09-18T13:54:35Z</time>
      </trkpt>
      <trkpt lat="46.5536" lon="4.91877">
        <ele>188</ele>
        <time>2024-09-18T13:54:36Z</time>
      </trkpt>
      <trkpt lat="46.55356" lon="4.91879">
        <ele>188</ele>
        <time>2024-09-18T13:54:37Z</time>
      </trkpt>
      <trkpt lat="46.55352" lon="4.91881">
        <ele>188</ele>
        <time>2024-09-18T13:54:38Z</time>
      </trkpt>
      <trkpt lat="46.55347" lon="4.91883">
        <ele>188</ele>
        <time>2024-09-18T13:54:39Z</time>
      </trkpt>
      <trkpt lat="46.55343" lon="4.91885">
        <ele>188</ele>
        <time>2024-09-18T13:54:40Z</time>
      </trkpt>
      <trkpt lat="46.55339" lon="4.91887">
        <ele>188</ele>
        <time>2024-09-18T13:54:41Z</time>
      </trkpt>
      <trkpt lat="46.55335" lon="4.91889">
        <ele>187.6</ele>
        <time>2024-09-18T13:54:42Z</time>
      </trkpt>
      <trkpt lat="46.55331" lon="4.91891">
        <ele>187.6</ele>
        <time>2024-09-18T13:54:43Z</time>
      </trkpt>
      <trkpt lat="46.55327" lon="4.91893">
        <ele>187.6</ele>
        <time>2024-09-18T13:54:44Z</time>
      </trkpt>
      <trkpt lat="46.55323" lon="4.91895">
        <ele>187.6</ele>
        <time>2024-09-18T13:54:45Z</time>
      </trkpt>
      <trkpt lat="46.55319" lon="4.91897">
        <ele>187.2</ele>
        <time>2024-09-18T13:54:46Z</time>
      </trkpt>
      <trkpt lat="46.55315" lon="4.91899">
        <ele>187.2</ele>
        <time>2024-09-18T13:54:47Z</time>
      </trkpt>
      <trkpt lat="46.55311" lon="4.91901">
        <ele>187.2</ele>
        <time>2024-09-18T13:54:48Z</time>
      </trkpt>
      <trkpt lat="46.55308" lon="4.91904">
        <ele>187.6</ele>
        <time>2024-09-18T13:54:49Z</time>
      </trkpt>
      <trkpt lat="46.55304" lon="4.91906">
        <ele>187.4</ele>
        <time>2024-09-18T13:54:50Z</time>
      </trkpt>
      <trkpt lat="46.55301" lon="4.91908">
        <ele>187.4</ele>
        <time>2024-09-18T13:54:51Z</time>
      </trkpt>
      <trkpt lat="46.55298" lon="4.91911">
        <ele>187.4</ele>
        <time>2024-09-18T13:54:52Z</time>
      </trkpt>
      <trkpt lat="46.55294" lon="4.91913">
        <ele>188</ele>
        <time>2024-09-18T13:54:53Z</time>
      </trkpt>
      <trkpt lat="46.5529" lon="4.91915">
        <ele>188</ele>
        <time>2024-09-18T13:54:54Z</time>
      </trkpt>
      <trkpt lat="46.55286" lon="4.91917">
        <ele>187.6</ele>
        <time>2024-09-18T13:54:55Z</time>
      </trkpt>
      <trkpt lat="46.55283" lon="4.91919">
        <ele>187.6</ele>
        <time>2024-09-18T13:54:56Z</time>
      </trkpt>
      <trkpt lat="46.55279" lon="4.91921">
        <ele>187.6</ele>
        <time>2024-09-18T13:54:57Z</time>
      </trkpt>
      <trkpt lat="46.55275" lon="4.91923">
        <ele>187.6</ele>
        <time>2024-09-18T13:54:58Z</time>
      </trkpt>
      <trkpt lat="46.55271" lon="4.91925">
        <ele>187.8</ele>
        <time>2024-09-18T13:54:59Z</time>
      </trkpt>
      <trkpt lat="46.55267" lon="4.91926">
        <ele>187.8</ele>
        <time>2024-09-18T13:55:00Z</time>
      </trkpt>
      <trkpt lat="46.55263" lon="4.91928">
        <ele>187.8</ele>
        <time>2024-09-18T13:55:01Z</time>
      </trkpt>
      <trkpt lat="46.55259" lon="4.9193">
        <ele>187.6</ele>
        <time>2024-09-18T13:55:02Z</time>
      </trkpt>
      <trkpt lat="46.55255" lon="4.91931">
        <ele>187.6</ele>
        <time>2024-09-18T13:55:03Z</time>
      </trkpt>
      <trkpt lat="46.5525" lon="4.91933">
        <ele>187.6</ele>
        <time>2024-09-18T13:55:04Z</time>
      </trkpt>
      <trkpt lat="46.55246" lon="4.91934">
        <ele>187.6</ele>
        <time>2024-09-18T13:55:05Z</time>
      </trkpt>
      <trkpt lat="46.55242" lon="4.91936">
        <ele>187.6</ele>
        <time>2024-09-18T13:55:06Z</time>
      </trkpt>
      <trkpt lat="46.55237" lon="4.91938">
        <ele>187.6</ele>
        <time>2024-09-18T13:55:07Z</time>
      </trkpt>
      <trkpt lat="46.55233" lon="4.9194">
        <ele>188</ele>
        <time>2024-09-18T13:55:08Z</time>
      </trkpt>
      <trkpt lat="46.55229" lon="4.91943">
        <ele>188</ele>
        <time>2024-09-18T13:55:09Z</time>
      </trkpt>
      <trkpt lat="46.55225" lon="4.91945">
        <ele>188</ele>
        <time>2024-09-18T13:55:10Z</time>
      </trkpt>
      <trkpt lat="46.55221" lon="4.91947">
        <ele>188</ele>
        <time>2024-09-18T13:55:11Z</time>
      </trkpt>
      <trkpt lat="46.55217" lon="4.91949">
        <ele>187.6</ele>
        <time>2024-09-18T13:55:12Z</time>
      </trkpt>
      <trkpt lat="46.55213" lon="4.91951">
        <ele>188.2</ele>
        <time>2024-09-18T13:55:13Z</time>
      </trkpt>
      <trkpt lat="46.55209" lon="4.91953">
        <ele>188.2</ele>
        <time>2024-09-18T13:55:14Z</time>
      </trkpt>
      <trkpt lat="46.55205" lon="4.91955">
        <ele>188.2</ele>
        <time>2024-09-18T13:55:15Z</time>
      </trkpt>
      <trkpt lat="46.55201" lon="4.91956">
        <ele>188.2</ele>
        <time>2024-09-18T13:55:16Z</time>
      </trkpt>
      <trkpt lat="46.55197" lon="4.91958">
        <ele>188</ele>
        <time>2024-09-18T13:55:17Z</time>
      </trkpt>
      <trkpt lat="46.55193" lon="4.9196">
        <ele>188</ele>
        <time>2024-09-18T13:55:18Z</time>
      </trkpt>
      <trkpt lat="46.55189" lon="4.91962">
        <ele>188</ele>
        <time>2024-09-18T13:55:19Z</time>
      </trkpt>
      <trkpt lat="46.55185" lon="4.91963">
        <ele>188</ele>
        <time>2024-09-18T13:55:20Z</time>
      </trkpt>
      <trkpt lat="46.55181" lon="4.91965">
        <ele>188</ele>
        <time>2024-09-18T13:55:21Z</time>
      </trkpt>
      <trkpt lat="46.55177" lon="4.91967">
        <ele>188</ele>
        <time>2024-09-18T13:55:22Z</time>
      </trkpt>
      <trkpt lat="46.55173" lon="4.91969">
        <ele>188</ele>
        <time>2024-09-18T13:55:23Z</time>
      </trkpt>
      <trkpt lat="46.55169" lon="4.9197">
        <ele>188</ele>
        <time>2024-09-18T13:55:24Z</time>
      </trkpt>
      <trkpt lat="46.55165" lon="4.91972">
        <ele>187.8</ele>
        <time>2024-09-18T13:55:25Z</time>
      </trkpt>
      <trkpt lat="46.55161" lon="4.91975">
        <ele>187.2</ele>
        <time>2024-09-18T13:55:26Z</time>
      </trkpt>
      <trkpt lat="46.55155" lon="4.91978">
        <ele>187.2</ele>
        <time>2024-09-18T13:55:27Z</time>
      </trkpt>
      <trkpt lat="46.55153" lon="4.91978">
        <ele>187.2</ele>
        <time>2024-09-18T13:55:28Z</time>
      </trkpt>
      <trkpt lat="46.55149" lon="4.9198">
        <ele>188</ele>
        <time>2024-09-18T13:55:29Z</time>
      </trkpt>
      <trkpt lat="46.55145" lon="4.91982">
        <ele>188</ele>
        <time>2024-09-18T13:55:30Z</time>
      </trkpt>
      <trkpt lat="46.5514" lon="4.91984">
        <ele>187.6</ele>
        <time>2024-09-18T13:55:31Z</time>
      </trkpt>
      <trkpt lat="46.55136" lon="4.91986">
        <ele>187.6</ele>
        <time>2024-09-18T13:55:32Z</time>
      </trkpt>
      <trkpt lat="46.5513" lon="4.91989">
        <ele>187.6</ele>
        <time>2024-09-18T13:55:33Z</time>
      </trkpt>
      <trkpt lat="46.55128" lon="4.9199">
        <ele>187.8</ele>
        <time>2024-09-18T13:55:34Z</time>
      </trkpt>
      <trkpt lat="46.55124" lon="4.91991">
        <ele>188.4</ele>
        <time>2024-09-18T13:55:35Z</time>
      </trkpt>
      <trkpt lat="46.5512" lon="4.91992">
        <ele>188.4</ele>
        <time>2024-09-18T13:55:36Z</time>
      </trkpt>
      <trkpt lat="46.55117" lon="4.91994">
        <ele>188.4</ele>
        <time>2024-09-18T13:55:37Z</time>
      </trkpt>
      <trkpt lat="46.55113" lon="4.91996">
        <ele>188.4</ele>
        <time>2024-09-18T13:55:38Z</time>
      </trkpt>
      <trkpt lat="46.55109" lon="4.91997">
        <ele>188.4</ele>
        <time>2024-09-18T13:55:39Z</time>
      </trkpt>
      <trkpt lat="46.55105" lon="4.91999">
        <ele>188.4</ele>
        <time>2024-09-18T13:55:40Z</time>
      </trkpt>
      <trkpt lat="46.55101" lon="4.92">
        <ele>188.4</ele>
        <time>2024-09-18T13:55:41Z</time>
      </trkpt>
      <trkpt lat="46.55097" lon="4.92001">
        <ele>188.4</ele>
        <time>2024-09-18T13:55:42Z</time>
      </trkpt>
      <trkpt lat="46.55093" lon="4.92002">
        <ele>188.4</ele>
        <time>2024-09-18T13:55:43Z</time>
      </trkpt>
      <trkpt lat="46.55089" lon="4.92003">
        <ele>188.6</ele>
        <time>2024-09-18T13:55:44Z</time>
      </trkpt>
      <trkpt lat="46.55085" lon="4.92004">
        <ele>188.6</ele>
        <time>2024-09-18T13:55:45Z</time>
      </trkpt>
      <trkpt lat="46.55081" lon="4.92005">
        <ele>188.6</ele>
        <time>2024-09-18T13:55:46Z</time>
      </trkpt>
      <trkpt lat="46.55077" lon="4.92006">
        <ele>188.6</ele>
        <time>2024-09-18T13:55:47Z</time>
      </trkpt>
      <trkpt lat="46.55074" lon="4.92007">
        <ele>189.2</ele>
        <time>2024-09-18T13:55:48Z</time>
      </trkpt>
      <trkpt lat="46.5507" lon="4.92008">
        <ele>189.4</ele>
        <time>2024-09-18T13:55:49Z</time>
      </trkpt>
      <trkpt lat="46.55067" lon="4.92009">
        <ele>189.4</ele>
        <time>2024-09-18T13:55:50Z</time>
      </trkpt>
      <trkpt lat="46.55063" lon="4.92011">
        <ele>189.4</ele>
        <time>2024-09-18T13:55:51Z</time>
      </trkpt>
      <trkpt lat="46.55059" lon="4.92013">
        <ele>189.4</ele>
        <time>2024-09-18T13:55:52Z</time>
      </trkpt>
      <trkpt lat="46.55056" lon="4.92015">
        <ele>189.4</ele>
        <time>2024-09-18T13:55:53Z</time>
      </trkpt>
      <trkpt lat="46.55051" lon="4.92017">
        <ele>188.8</ele>
        <time>2024-09-18T13:55:54Z</time>
      </trkpt>
      <trkpt lat="46.55047" lon="4.92018">
        <ele>188.8</ele>
        <time>2024-09-18T13:55:55Z</time>
      </trkpt>
      <trkpt lat="46.55043" lon="4.9202">
        <ele>188.8</ele>
        <time>2024-09-18T13:55:56Z</time>
      </trkpt>
      <trkpt lat="46.55038" lon="4.92021">
        <ele>188.8</ele>
        <time>2024-09-18T13:55:57Z</time>
      </trkpt>
      <trkpt lat="46.55034" lon="4.92023">
        <ele>188.6</ele>
        <time>2024-09-18T13:55:58Z</time>
      </trkpt>
      <trkpt lat="46.5503" lon="4.92025">
        <ele>188.6</ele>
        <time>2024-09-18T13:55:59Z</time>
      </trkpt>
      <trkpt lat="46.55025" lon="4.92026">
        <ele>188.6</ele>
        <time>2024-09-18T13:56:00Z</time>
      </trkpt>
      <trkpt lat="46.55021" lon="4.92028">
        <ele>188.6</ele>
        <time>2024-09-18T13:56:01Z</time>
      </trkpt>
      <trkpt lat="46.55017" lon="4.9203">
        <ele>188.2</ele>
        <time>2024-09-18T13:56:02Z</time>
      </trkpt>
      <trkpt lat="46.55012" lon="4.92031">
        <ele>188.2</ele>
        <time>2024-09-18T13:56:03Z</time>
      </trkpt>
      <trkpt lat="46.55008" lon="4.92033">
        <ele>188.2</ele>
        <time>2024-09-18T13:56:04Z</time>
      </trkpt>
      <trkpt lat="46.55004" lon="4.92035">
        <ele>188.2</ele>
        <time>2024-09-18T13:56:05Z</time>
      </trkpt>
      <trkpt lat="46.54999" lon="4.92037">
        <ele>188.2</ele>
        <time>2024-09-18T13:56:06Z</time>
      </trkpt>
      <trkpt lat="46.54995" lon="4.92039">
        <ele>188.4</ele>
        <time>2024-09-18T13:56:07Z</time>
      </trkpt>
      <trkpt lat="46.54991" lon="4.9204">
        <ele>188.4</ele>
        <time>2024-09-18T13:56:08Z</time>
      </trkpt>
      <trkpt lat="46.54987" lon="4.92042">
        <ele>188.4</ele>
        <time>2024-09-18T13:56:09Z</time>
      </trkpt>
      <trkpt lat="46.54982" lon="4.92043">
        <ele>188.4</ele>
        <time>2024-09-18T13:56:10Z</time>
      </trkpt>
      <trkpt lat="46.54978" lon="4.92045">
        <ele>188.6</ele>
        <time>2024-09-18T13:56:11Z</time>
      </trkpt>
      <trkpt lat="46.54974" lon="4.92046">
        <ele>188.6</ele>
        <time>2024-09-18T13:56:12Z</time>
      </trkpt>
      <trkpt lat="46.5497" lon="4.92048">
        <ele>188.6</ele>
        <time>2024-09-18T13:56:13Z</time>
      </trkpt>
      <trkpt lat="46.54965" lon="4.92049">
        <ele>188.6</ele>
        <time>2024-09-18T13:56:14Z</time>
      </trkpt>
      <trkpt lat="46.54961" lon="4.92051">
        <ele>188.4</ele>
        <time>2024-09-18T13:56:15Z</time>
      </trkpt>
      <trkpt lat="46.54957" lon="4.92053">
        <ele>188.2</ele>
        <time>2024-09-18T13:56:16Z</time>
      </trkpt>
      <trkpt lat="46.54953" lon="4.92054">
        <ele>188.2</ele>
        <time>2024-09-18T13:56:17Z</time>
      </trkpt>
      <trkpt lat="46.54948" lon="4.92056">
        <ele>188.2</ele>
        <time>2024-09-18T13:56:18Z</time>
      </trkpt>
      <trkpt lat="46.54944" lon="4.92059">
        <ele>188.2</ele>
        <time>2024-09-18T13:56:19Z</time>
      </trkpt>
      <trkpt lat="46.5494" lon="4.9206">
        <ele>188.2</ele>
        <time>2024-09-18T13:56:20Z</time>
      </trkpt>
      <trkpt lat="46.54936" lon="4.92062">
        <ele>188.2</ele>
        <time>2024-09-18T13:56:21Z</time>
      </trkpt>
      <trkpt lat="46.54932" lon="4.92065">
        <ele>188.2</ele>
        <time>2024-09-18T13:56:22Z</time>
      </trkpt>
      <trkpt lat="46.54927" lon="4.92067">
        <ele>188.2</ele>
        <time>2024-09-18T13:56:23Z</time>
      </trkpt>
      <trkpt lat="46.54922" lon="4.9207">
        <ele>188.2</ele>
        <time>2024-09-18T13:56:24Z</time>
      </trkpt>
      <trkpt lat="46.54918" lon="4.92072">
        <ele>188.2</ele>
        <time>2024-09-18T13:56:25Z</time>
      </trkpt>
      <trkpt lat="46.54913" lon="4.92074">
        <ele>188.2</ele>
        <time>2024-09-18T13:56:26Z</time>
      </trkpt>
      <trkpt lat="46.54909" lon="4.92077">
        <ele>188.2</ele>
        <time>2024-09-18T13:56:27Z</time>
      </trkpt>
      <trkpt lat="46.54904" lon="4.92079">
        <ele>188.2</ele>
        <time>2024-09-18T13:56:28Z</time>
      </trkpt>
      <trkpt lat="46.54899" lon="4.92082">
        <ele>188</ele>
        <time>2024-09-18T13:56:29Z</time>
      </trkpt>
      <trkpt lat="46.54895" lon="4.92084">
        <ele>188</ele>
        <time>2024-09-18T13:56:30Z</time>
      </trkpt>
      <trkpt lat="46.5489" lon="4.92087">
        <ele>188</ele>
        <time>2024-09-18T13:56:31Z</time>
      </trkpt>
      <trkpt lat="46.54885" lon="4.9209">
        <ele>188</ele>
        <time>2024-09-18T13:56:32Z</time>
      </trkpt>
      <trkpt lat="46.5488" lon="4.92092">
        <ele>188</ele>
        <time>2024-09-18T13:56:33Z</time>
      </trkpt>
      <trkpt lat="46.54875" lon="4.92095">
        <ele>188</ele>
        <time>2024-09-18T13:56:34Z</time>
      </trkpt>
      <trkpt lat="46.54871" lon="4.92099">
        <ele>188</ele>
        <time>2024-09-18T13:56:35Z</time>
      </trkpt>
      <trkpt lat="46.54866" lon="4.92102">
        <ele>188</ele>
        <time>2024-09-18T13:56:36Z</time>
      </trkpt>
      <trkpt lat="46.54861" lon="4.92105">
        <ele>187.6</ele>
        <time>2024-09-18T13:56:37Z</time>
      </trkpt>
      <trkpt lat="46.54856" lon="4.92108">
        <ele>187.6</ele>
        <time>2024-09-18T13:56:38Z</time>
      </trkpt>
      <trkpt lat="46.54852" lon="4.92111">
        <ele>187.6</ele>
        <time>2024-09-18T13:56:39Z</time>
      </trkpt>
      <trkpt lat="46.54847" lon="4.92115">
        <ele>187.6</ele>
        <time>2024-09-18T13:56:40Z</time>
      </trkpt>
      <trkpt lat="46.54843" lon="4.92118">
        <ele>187.6</ele>
        <time>2024-09-18T13:56:41Z</time>
      </trkpt>
      <trkpt lat="46.54838" lon="4.92122">
        <ele>187.6</ele>
        <time>2024-09-18T13:56:42Z</time>
      </trkpt>
      <trkpt lat="46.54834" lon="4.92126">
        <ele>187.4</ele>
        <time>2024-09-18T13:56:43Z</time>
      </trkpt>
      <trkpt lat="46.5483" lon="4.9213">
        <ele>187.4</ele>
        <time>2024-09-18T13:56:44Z</time>
      </trkpt>
      <trkpt lat="46.54826" lon="4.92134">
        <ele>187.4</ele>
        <time>2024-09-18T13:56:45Z</time>
      </trkpt>
      <trkpt lat="46.54822" lon="4.92138">
        <ele>187.6</ele>
        <time>2024-09-18T13:56:46Z</time>
      </trkpt>
      <trkpt lat="46.54818" lon="4.92142">
        <ele>187.2</ele>
        <time>2024-09-18T13:56:47Z</time>
      </trkpt>
      <trkpt lat="46.54814" lon="4.92147">
        <ele>187.2</ele>
        <time>2024-09-18T13:56:48Z</time>
      </trkpt>
      <trkpt lat="46.54811" lon="4.92151">
        <ele>187.2</ele>
        <time>2024-09-18T13:56:49Z</time>
      </trkpt>
      <trkpt lat="46.54807" lon="4.92155">
        <ele>187.2</ele>
        <time>2024-09-18T13:56:50Z</time>
      </trkpt>
      <trkpt lat="46.54803" lon="4.9216">
        <ele>187.6</ele>
        <time>2024-09-18T13:56:51Z</time>
      </trkpt>
      <trkpt lat="46.54799" lon="4.92164">
        <ele>187.6</ele>
        <time>2024-09-18T13:56:52Z</time>
      </trkpt>
      <trkpt lat="46.54796" lon="4.92168">
        <ele>187.6</ele>
        <time>2024-09-18T13:56:53Z</time>
      </trkpt>
      <trkpt lat="46.54792" lon="4.92172">
        <ele>187.6</ele>
        <time>2024-09-18T13:56:54Z</time>
      </trkpt>
      <trkpt lat="46.54789" lon="4.92176">
        <ele>187.6</ele>
        <time>2024-09-18T13:56:55Z</time>
      </trkpt>
      <trkpt lat="46.54785" lon="4.9218">
        <ele>187.6</ele>
        <time>2024-09-18T13:56:56Z</time>
      </trkpt>
      <trkpt lat="46.54781" lon="4.92184">
        <ele>187.6</ele>
        <time>2024-09-18T13:56:57Z</time>
      </trkpt>
      <trkpt lat="46.54778" lon="4.92187">
        <ele>187.6</ele>
        <time>2024-09-18T13:56:58Z</time>
      </trkpt>
      <trkpt lat="46.54772" lon="4.92192">
        <ele>187.6</ele>
        <time>2024-09-18T13:56:59Z</time>
      </trkpt>
      <trkpt lat="46.5477" lon="4.92193">
        <ele>187.8</ele>
        <time>2024-09-18T13:57:00Z</time>
      </trkpt>
      <trkpt lat="46.54766" lon="4.92196">
        <ele>187.8</ele>
        <time>2024-09-18T13:57:01Z</time>
      </trkpt>
      <trkpt lat="46.54762" lon="4.922">
        <ele>187.8</ele>
        <time>2024-09-18T13:57:02Z</time>
      </trkpt>
      <trkpt lat="46.54758" lon="4.92203">
        <ele>187.8</ele>
        <time>2024-09-18T13:57:03Z</time>
      </trkpt>
      <trkpt lat="46.54755" lon="4.92207">
        <ele>187.8</ele>
        <time>2024-09-18T13:57:04Z</time>
      </trkpt>
      <trkpt lat="46.54751" lon="4.9221">
        <ele>187.8</ele>
        <time>2024-09-18T13:57:05Z</time>
      </trkpt>
      <trkpt lat="46.54747" lon="4.92214">
        <ele>187.8</ele>
        <time>2024-09-18T13:57:06Z</time>
      </trkpt>
      <trkpt lat="46.54743" lon="4.92217">
        <ele>187.8</ele>
        <time>2024-09-18T13:57:07Z</time>
      </trkpt>
      <trkpt lat="46.54739" lon="4.92221">
        <ele>187.8</ele>
        <time>2024-09-18T13:57:08Z</time>
      </trkpt>
      <trkpt lat="46.54735" lon="4.92225">
        <ele>187.8</ele>
        <time>2024-09-18T13:57:09Z</time>
      </trkpt>
      <trkpt lat="46.54731" lon="4.92228">
        <ele>187.8</ele>
        <time>2024-09-18T13:57:10Z</time>
      </trkpt>
      <trkpt lat="46.54727" lon="4.92232">
        <ele>187.8</ele>
        <time>2024-09-18T13:57:11Z</time>
      </trkpt>
      <trkpt lat="46.54723" lon="4.92235">
        <ele>187.8</ele>
        <time>2024-09-18T13:57:12Z</time>
      </trkpt>
      <trkpt lat="46.54717" lon="4.9224">
        <ele>187.8</ele>
        <time>2024-09-18T13:57:13Z</time>
      </trkpt>
      <trkpt lat="46.54715" lon="4.92242">
        <ele>187.8</ele>
        <time>2024-09-18T13:57:14Z</time>
      </trkpt>
      <trkpt lat="46.5471" lon="4.92245">
        <ele>187.8</ele>
        <time>2024-09-18T13:57:15Z</time>
      </trkpt>
      <trkpt lat="46.54706" lon="4.92248">
        <ele>187.8</ele>
        <time>2024-09-18T13:57:16Z</time>
      </trkpt>
      <trkpt lat="46.54702" lon="4.92251">
        <ele>187.8</ele>
        <time>2024-09-18T13:57:17Z</time>
      </trkpt>
      <trkpt lat="46.54697" lon="4.92254">
        <ele>187.8</ele>
        <time>2024-09-18T13:57:18Z</time>
      </trkpt>
      <trkpt lat="46.54693" lon="4.92257">
        <ele>187.6</ele>
        <time>2024-09-18T13:57:19Z</time>
      </trkpt>
      <trkpt lat="46.54688" lon="4.9226">
        <ele>187.6</ele>
        <time>2024-09-18T13:57:20Z</time>
      </trkpt>
      <trkpt lat="46.54684" lon="4.92263">
        <ele>187.6</ele>
        <time>2024-09-18T13:57:21Z</time>
      </trkpt>
      <trkpt lat="46.5468" lon="4.92266">
        <ele>187.6</ele>
        <time>2024-09-18T13:57:22Z</time>
      </trkpt>
      <trkpt lat="46.54675" lon="4.92269">
        <ele>187.6</ele>
        <time>2024-09-18T13:57:23Z</time>
      </trkpt>
      <trkpt lat="46.54671" lon="4.92271">
        <ele>187.6</ele>
        <time>2024-09-18T13:57:24Z</time>
      </trkpt>
      <trkpt lat="46.54667" lon="4.92274">
        <ele>187.6</ele>
        <time>2024-09-18T13:57:25Z</time>
      </trkpt>
      <trkpt lat="46.54663" lon="4.92277">
        <ele>187.6</ele>
        <time>2024-09-18T13:57:26Z</time>
      </trkpt>
      <trkpt lat="46.54659" lon="4.9228">
        <ele>187.8</ele>
        <time>2024-09-18T13:57:27Z</time>
      </trkpt>
      <trkpt lat="46.54654" lon="4.92283">
        <ele>187.8</ele>
        <time>2024-09-18T13:57:28Z</time>
      </trkpt>
      <trkpt lat="46.5465" lon="4.92285">
        <ele>187.8</ele>
        <time>2024-09-18T13:57:29Z</time>
      </trkpt>
      <trkpt lat="46.54646" lon="4.92288">
        <ele>187.8</ele>
        <time>2024-09-18T13:57:30Z</time>
      </trkpt>
      <trkpt lat="46.54642" lon="4.92291">
        <ele>187.8</ele>
        <time>2024-09-18T13:57:31Z</time>
      </trkpt>
      <trkpt lat="46.54638" lon="4.92293">
        <ele>187.8</ele>
        <time>2024-09-18T13:57:32Z</time>
      </trkpt>
      <trkpt lat="46.54634" lon="4.92296">
        <ele>187.8</ele>
        <time>2024-09-18T13:57:33Z</time>
      </trkpt>
      <trkpt lat="46.5463" lon="4.92298">
        <ele>187.8</ele>
        <time>2024-09-18T13:57:34Z</time>
      </trkpt>
      <trkpt lat="46.54625" lon="4.92301">
        <ele>187.8</ele>
        <time>2024-09-18T13:57:35Z</time>
      </trkpt>
      <trkpt lat="46.54621" lon="4.92303">
        <ele>187.6</ele>
        <time>2024-09-18T13:57:36Z</time>
      </trkpt>
      <trkpt lat="46.54614" lon="4.92307">
        <ele>187.6</ele>
        <time>2024-09-18T13:57:37Z</time>
      </trkpt>
      <trkpt lat="46.54612" lon="4.92308">
        <ele>187.6</ele>
        <time>2024-09-18T13:57:38Z</time>
      </trkpt>
      <trkpt lat="46.54608" lon="4.92311">
        <ele>187.6</ele>
        <time>2024-09-18T13:57:39Z</time>
      </trkpt>
      <trkpt lat="46.54603" lon="4.92313">
        <ele>187.6</ele>
        <time>2024-09-18T13:57:40Z</time>
      </trkpt>
      <trkpt lat="46.54599" lon="4.92316">
        <ele>188</ele>
        <time>2024-09-18T13:57:41Z</time>
      </trkpt>
      <trkpt lat="46.54594" lon="4.92318">
        <ele>188</ele>
        <time>2024-09-18T13:57:42Z</time>
      </trkpt>
      <trkpt lat="46.5459" lon="4.92321">
        <ele>188</ele>
        <time>2024-09-18T13:57:43Z</time>
      </trkpt>
      <trkpt lat="46.54586" lon="4.92323">
        <ele>187.6</ele>
        <time>2024-09-18T13:57:44Z</time>
      </trkpt>
      <trkpt lat="46.54581" lon="4.92326">
        <ele>187.8</ele>
        <time>2024-09-18T13:57:45Z</time>
      </trkpt>
      <trkpt lat="46.54577" lon="4.92329">
        <ele>187.8</ele>
        <time>2024-09-18T13:57:46Z</time>
      </trkpt>
      <trkpt lat="46.54573" lon="4.92332">
        <ele>187.8</ele>
        <time>2024-09-18T13:57:47Z</time>
      </trkpt>
      <trkpt lat="46.54569" lon="4.92334">
        <ele>187.2</ele>
        <time>2024-09-18T13:57:48Z</time>
      </trkpt>
      <trkpt lat="46.54565" lon="4.92337">
        <ele>188</ele>
        <time>2024-09-18T13:57:49Z</time>
      </trkpt>
      <trkpt lat="46.54561" lon="4.9234">
        <ele>188</ele>
        <time>2024-09-18T13:57:50Z</time>
      </trkpt>
      <trkpt lat="46.54557" lon="4.92343">
        <ele>188</ele>
        <time>2024-09-18T13:57:51Z</time>
      </trkpt>
      <trkpt lat="46.54553" lon="4.92347">
        <ele>188</ele>
        <time>2024-09-18T13:57:52Z</time>
      </trkpt>
      <trkpt lat="46.54548" lon="4.9235">
        <ele>187</ele>
        <time>2024-09-18T13:57:53Z</time>
      </trkpt>
      <trkpt lat="46.54544" lon="4.92353">
        <ele>187.8</ele>
        <time>2024-09-18T13:57:54Z</time>
      </trkpt>
      <trkpt lat="46.5454" lon="4.92356">
        <ele>187.8</ele>
        <time>2024-09-18T13:57:55Z</time>
      </trkpt>
      <trkpt lat="46.54534" lon="4.9236">
        <ele>187.8</ele>
        <time>2024-09-18T13:57:56Z</time>
      </trkpt>
      <trkpt lat="46.54532" lon="4.92362">
        <ele>187.8</ele>
        <time>2024-09-18T13:57:57Z</time>
      </trkpt>
      <trkpt lat="46.54528" lon="4.92365">
        <ele>187.8</ele>
        <time>2024-09-18T13:57:58Z</time>
      </trkpt>
      <trkpt lat="46.54524" lon="4.92368">
        <ele>187.8</ele>
        <time>2024-09-18T13:57:59Z</time>
      </trkpt>
      <trkpt lat="46.5452" lon="4.92371">
        <ele>187.8</ele>
        <time>2024-09-18T13:58:00Z</time>
      </trkpt>
      <trkpt lat="46.54516" lon="4.92374">
        <ele>187.8</ele>
        <time>2024-09-18T13:58:01Z</time>
      </trkpt>
      <trkpt lat="46.54512" lon="4.92378">
        <ele>187.8</ele>
        <time>2024-09-18T13:58:02Z</time>
      </trkpt>
      <trkpt lat="46.54508" lon="4.92381">
        <ele>187.6</ele>
        <time>2024-09-18T13:58:03Z</time>
      </trkpt>
      <trkpt lat="46.54504" lon="4.92384">
        <ele>187.6</ele>
        <time>2024-09-18T13:58:04Z</time>
      </trkpt>
      <trkpt lat="46.545" lon="4.92387">
        <ele>187.6</ele>
        <time>2024-09-18T13:58:05Z</time>
      </trkpt>
      <trkpt lat="46.54496" lon="4.92391">
        <ele>187.6</ele>
        <time>2024-09-18T13:58:06Z</time>
      </trkpt>
      <trkpt lat="46.54492" lon="4.92394">
        <ele>187.6</ele>
        <time>2024-09-18T13:58:07Z</time>
      </trkpt>
      <trkpt lat="46.54487" lon="4.92397">
        <ele>187.4</ele>
        <time>2024-09-18T13:58:08Z</time>
      </trkpt>
      <trkpt lat="46.54483" lon="4.92401">
        <ele>187.4</ele>
        <time>2024-09-18T13:58:09Z</time>
      </trkpt>
      <trkpt lat="46.54479" lon="4.92405">
        <ele>187.4</ele>
        <time>2024-09-18T13:58:10Z</time>
      </trkpt>
      <trkpt lat="46.54476" lon="4.92409">
        <ele>187.4</ele>
        <time>2024-09-18T13:58:11Z</time>
      </trkpt>
      <trkpt lat="46.54472" lon="4.92412">
        <ele>187.8</ele>
        <time>2024-09-18T13:58:12Z</time>
      </trkpt>
      <trkpt lat="46.54468" lon="4.92415">
        <ele>187.8</ele>
        <time>2024-09-18T13:58:13Z</time>
      </trkpt>
      <trkpt lat="46.54465" lon="4.92418">
        <ele>187.8</ele>
        <time>2024-09-18T13:58:14Z</time>
      </trkpt>
      <trkpt lat="46.54461" lon="4.92421">
        <ele>187.8</ele>
        <time>2024-09-18T13:58:15Z</time>
      </trkpt>
      <trkpt lat="46.54458" lon="4.92424">
        <ele>187.8</ele>
        <time>2024-09-18T13:58:16Z</time>
      </trkpt>
      <trkpt lat="46.54455" lon="4.92427">
        <ele>187.4</ele>
        <time>2024-09-18T13:58:17Z</time>
      </trkpt>
      <trkpt lat="46.54451" lon="4.92429">
        <ele>187.4</ele>
        <time>2024-09-18T13:58:18Z</time>
      </trkpt>
      <trkpt lat="46.54448" lon="4.92432">
        <ele>187.4</ele>
        <time>2024-09-18T13:58:19Z</time>
      </trkpt>
      <trkpt lat="46.54445" lon="4.92434">
        <ele>187.8</ele>
        <time>2024-09-18T13:58:20Z</time>
      </trkpt>
      <trkpt lat="46.54441" lon="4.92437">
        <ele>187.8</ele>
        <time>2024-09-18T13:58:21Z</time>
      </trkpt>
      <trkpt lat="46.54437" lon="4.92439">
        <ele>187.8</ele>
        <time>2024-09-18T13:58:22Z</time>
      </trkpt>
      <trkpt lat="46.54434" lon="4.92441">
        <ele>187.8</ele>
        <time>2024-09-18T13:58:23Z</time>
      </trkpt>
      <trkpt lat="46.54428" lon="4.92444">
        <ele>187.8</ele>
        <time>2024-09-18T13:58:24Z</time>
      </trkpt>
      <trkpt lat="46.54426" lon="4.92445">
        <ele>188.6</ele>
        <time>2024-09-18T13:58:25Z</time>
      </trkpt>
      <trkpt lat="46.54423" lon="4.92448">
        <ele>188.4</ele>
        <time>2024-09-18T13:58:26Z</time>
      </trkpt>
      <trkpt lat="46.54419" lon="4.92449">
        <ele>188.4</ele>
        <time>2024-09-18T13:58:27Z</time>
      </trkpt>
      <trkpt lat="46.54415" lon="4.92451">
        <ele>188.4</ele>
        <time>2024-09-18T13:58:28Z</time>
      </trkpt>
      <trkpt lat="46.54412" lon="4.92453">
        <ele>188.4</ele>
        <time>2024-09-18T13:58:29Z</time>
      </trkpt>
      <trkpt lat="46.54408" lon="4.92455">
        <ele>189</ele>
        <time>2024-09-18T13:58:30Z</time>
      </trkpt>
      <trkpt lat="46.54404" lon="4.92457">
        <ele>189</ele>
        <time>2024-09-18T13:58:31Z</time>
      </trkpt>
      <trkpt lat="46.54401" lon="4.92458">
        <ele>189</ele>
        <time>2024-09-18T13:58:32Z</time>
      </trkpt>
      <trkpt lat="46.54397" lon="4.9246">
        <ele>189</ele>
        <time>2024-09-18T13:58:33Z</time>
      </trkpt>
      <trkpt lat="46.54393" lon="4.92461">
        <ele>189</ele>
        <time>2024-09-18T13:58:34Z</time>
      </trkpt>
      <trkpt lat="46.54389" lon="4.92463">
        <ele>188.4</ele>
        <time>2024-09-18T13:58:35Z</time>
      </trkpt>
      <trkpt lat="46.54385" lon="4.92464">
        <ele>188.4</ele>
        <time>2024-09-18T13:58:36Z</time>
      </trkpt>
      <trkpt lat="46.54381" lon="4.92465">
        <ele>188.4</ele>
        <time>2024-09-18T13:58:37Z</time>
      </trkpt>
      <trkpt lat="46.54378" lon="4.92465">
        <ele>188.4</ele>
        <time>2024-09-18T13:58:38Z</time>
      </trkpt>
      <trkpt lat="46.54372" lon="4.92465">
        <ele>188.4</ele>
        <time>2024-09-18T13:58:39Z</time>
      </trkpt>
      <trkpt lat="46.5437" lon="4.92465">
        <ele>189.2</ele>
        <time>2024-09-18T13:58:40Z</time>
      </trkpt>
      <trkpt lat="46.54365" lon="4.92467">
        <ele>189.2</ele>
        <time>2024-09-18T13:58:41Z</time>
      </trkpt>
      <trkpt lat="46.54362" lon="4.92469">
        <ele>189.2</ele>
        <time>2024-09-18T13:58:42Z</time>
      </trkpt>
      <trkpt lat="46.54358" lon="4.92471">
        <ele>188.8</ele>
        <time>2024-09-18T13:58:43Z</time>
      </trkpt>
      <trkpt lat="46.54354" lon="4.92473">
        <ele>188.4</ele>
        <time>2024-09-18T13:58:44Z</time>
      </trkpt>
      <trkpt lat="46.5435" lon="4.92475">
        <ele>188.4</ele>
        <time>2024-09-18T13:58:45Z</time>
      </trkpt>
      <trkpt lat="46.54346" lon="4.92477">
        <ele>188.4</ele>
        <time>2024-09-18T13:58:46Z</time>
      </trkpt>
      <trkpt lat="46.54342" lon="4.92479">
        <ele>188.4</ele>
        <time>2024-09-18T13:58:47Z</time>
      </trkpt>
      <trkpt lat="46.54339" lon="4.92481">
        <ele>188.4</ele>
        <time>2024-09-18T13:58:48Z</time>
      </trkpt>
      <trkpt lat="46.54335" lon="4.92483">
        <ele>189.2</ele>
        <time>2024-09-18T13:58:49Z</time>
      </trkpt>
      <trkpt lat="46.54332" lon="4.92486">
        <ele>189.2</ele>
        <time>2024-09-18T13:58:50Z</time>
      </trkpt>
      <trkpt lat="46.54329" lon="4.92487">
        <ele>189.2</ele>
        <time>2024-09-18T13:58:51Z</time>
      </trkpt>
      <trkpt lat="46.54325" lon="4.92489">
        <ele>188.6</ele>
        <time>2024-09-18T13:58:52Z</time>
      </trkpt>
      <trkpt lat="46.54321" lon="4.92492">
        <ele>189</ele>
        <time>2024-09-18T13:58:53Z</time>
      </trkpt>
      <trkpt lat="46.54318" lon="4.92495">
        <ele>189</ele>
        <time>2024-09-18T13:58:54Z</time>
      </trkpt>
      <trkpt lat="46.54315" lon="4.92497">
        <ele>189</ele>
        <time>2024-09-18T13:58:55Z</time>
      </trkpt>
      <trkpt lat="46.54311" lon="4.92499">
        <ele>189.2</ele>
        <time>2024-09-18T13:58:56Z</time>
      </trkpt>
      <trkpt lat="46.54307" lon="4.92501">
        <ele>189</ele>
        <time>2024-09-18T13:58:57Z</time>
      </trkpt>
      <trkpt lat="46.54304" lon="4.92503">
        <ele>189</ele>
        <time>2024-09-18T13:58:58Z</time>
      </trkpt>
      <trkpt lat="46.543" lon="4.92505">
        <ele>189</ele>
        <time>2024-09-18T13:58:59Z</time>
      </trkpt>
      <trkpt lat="46.54296" lon="4.92507">
        <ele>189</ele>
        <time>2024-09-18T13:59:00Z</time>
      </trkpt>
      <trkpt lat="46.54293" lon="4.92509">
        <ele>189</ele>
        <time>2024-09-18T13:59:01Z</time>
      </trkpt>
      <trkpt lat="46.54287" lon="4.92513">
        <ele>189</ele>
        <time>2024-09-18T13:59:02Z</time>
      </trkpt>
      <trkpt lat="46.54285" lon="4.92515">
        <ele>189</ele>
        <time>2024-09-18T13:59:03Z</time>
      </trkpt>
      <trkpt lat="46.54281" lon="4.92517">
        <ele>189</ele>
        <time>2024-09-18T13:59:04Z</time>
      </trkpt>
      <trkpt lat="46.54277" lon="4.9252">
        <ele>189</ele>
        <time>2024-09-18T13:59:05Z</time>
      </trkpt>
      <trkpt lat="46.54271" lon="4.92523">
        <ele>189</ele>
        <time>2024-09-18T13:59:06Z</time>
      </trkpt>
      <trkpt lat="46.54269" lon="4.92525">
        <ele>189</ele>
        <time>2024-09-18T13:59:07Z</time>
      </trkpt>
      <trkpt lat="46.54265" lon="4.92527">
        <ele>189</ele>
        <time>2024-09-18T13:59:08Z</time>
      </trkpt>
      <trkpt lat="46.54261" lon="4.92529">
        <ele>189</ele>
        <time>2024-09-18T13:59:09Z</time>
      </trkpt>
      <trkpt lat="46.54256" lon="4.92531">
        <ele>188.8</ele>
        <time>2024-09-18T13:59:10Z</time>
      </trkpt>
      <trkpt lat="46.54252" lon="4.92534">
        <ele>188.8</ele>
        <time>2024-09-18T13:59:11Z</time>
      </trkpt>
      <trkpt lat="46.54248" lon="4.92536">
        <ele>188.8</ele>
        <time>2024-09-18T13:59:12Z</time>
      </trkpt>
      <trkpt lat="46.54244" lon="4.92538">
        <ele>188.8</ele>
        <time>2024-09-18T13:59:13Z</time>
      </trkpt>
      <trkpt lat="46.5424" lon="4.9254">
        <ele>188.6</ele>
        <time>2024-09-18T13:59:14Z</time>
      </trkpt>
      <trkpt lat="46.54235" lon="4.92542">
        <ele>188.4</ele>
        <time>2024-09-18T13:59:15Z</time>
      </trkpt>
      <trkpt lat="46.54231" lon="4.92544">
        <ele>188.4</ele>
        <time>2024-09-18T13:59:16Z</time>
      </trkpt>
      <trkpt lat="46.54227" lon="4.92546">
        <ele>188.4</ele>
        <time>2024-09-18T13:59:17Z</time>
      </trkpt>
      <trkpt lat="46.54222" lon="4.92548">
        <ele>188.4</ele>
        <time>2024-09-18T13:59:18Z</time>
      </trkpt>
      <trkpt lat="46.54218" lon="4.9255">
        <ele>188.6</ele>
        <time>2024-09-18T13:59:19Z</time>
      </trkpt>
      <trkpt lat="46.54214" lon="4.92552">
        <ele>188.6</ele>
        <time>2024-09-18T13:59:20Z</time>
      </trkpt>
      <trkpt lat="46.5421" lon="4.92554">
        <ele>188.6</ele>
        <time>2024-09-18T13:59:21Z</time>
      </trkpt>
      <trkpt lat="46.54206" lon="4.92556">
        <ele>188.6</ele>
        <time>2024-09-18T13:59:22Z</time>
      </trkpt>
      <trkpt lat="46.54202" lon="4.92558">
        <ele>188.6</ele>
        <time>2024-09-18T13:59:23Z</time>
      </trkpt>
      <trkpt lat="46.54198" lon="4.9256">
        <ele>189.2</ele>
        <time>2024-09-18T13:59:24Z</time>
      </trkpt>
      <trkpt lat="46.54194" lon="4.92562">
        <ele>189.2</ele>
        <time>2024-09-18T13:59:25Z</time>
      </trkpt>
      <trkpt lat="46.5419" lon="4.92564">
        <ele>189.2</ele>
        <time>2024-09-18T13:59:26Z</time>
      </trkpt>
      <trkpt lat="46.54186" lon="4.92566">
        <ele>189.2</ele>
        <time>2024-09-18T13:59:27Z</time>
      </trkpt>
      <trkpt lat="46.54182" lon="4.92568">
        <ele>188.8</ele>
        <time>2024-09-18T13:59:28Z</time>
      </trkpt>
      <trkpt lat="46.54178" lon="4.9257">
        <ele>189</ele>
        <time>2024-09-18T13:59:29Z</time>
      </trkpt>
      <trkpt lat="46.54173" lon="4.92573">
        <ele>189</ele>
        <time>2024-09-18T13:59:30Z</time>
      </trkpt>
      <trkpt lat="46.54169" lon="4.92575">
        <ele>189</ele>
        <time>2024-09-18T13:59:31Z</time>
      </trkpt>
      <trkpt lat="46.54165" lon="4.92578">
        <ele>188.8</ele>
        <time>2024-09-18T13:59:32Z</time>
      </trkpt>
      <trkpt lat="46.54161" lon="4.9258">
        <ele>188.4</ele>
        <time>2024-09-18T13:59:33Z</time>
      </trkpt>
      <trkpt lat="46.54157" lon="4.92583">
        <ele>188.4</ele>
        <time>2024-09-18T13:59:34Z</time>
      </trkpt>
      <trkpt lat="46.54153" lon="4.92585">
        <ele>188.4</ele>
        <time>2024-09-18T13:59:35Z</time>
      </trkpt>
      <trkpt lat="46.54149" lon="4.92588">
        <ele>188.4</ele>
        <time>2024-09-18T13:59:36Z</time>
      </trkpt>
      <trkpt lat="46.54145" lon="4.9259">
        <ele>188.4</ele>
        <time>2024-09-18T13:59:37Z</time>
      </trkpt>
      <trkpt lat="46.5414" lon="4.92593">
        <ele>188.4</ele>
        <time>2024-09-18T13:59:38Z</time>
      </trkpt>
      <trkpt lat="46.54136" lon="4.92595">
        <ele>188.4</ele>
        <time>2024-09-18T13:59:39Z</time>
      </trkpt>
      <trkpt lat="46.54131" lon="4.92598">
        <ele>188.4</ele>
        <time>2024-09-18T13:59:40Z</time>
      </trkpt>
      <trkpt lat="46.54126" lon="4.926">
        <ele>188.6</ele>
        <time>2024-09-18T13:59:41Z</time>
      </trkpt>
      <trkpt lat="46.54122" lon="4.92602">
        <ele>188.6</ele>
        <time>2024-09-18T13:59:42Z</time>
      </trkpt>
      <trkpt lat="46.54117" lon="4.92604">
        <ele>188.6</ele>
        <time>2024-09-18T13:59:43Z</time>
      </trkpt>
      <trkpt lat="46.54113" lon="4.92606">
        <ele>188.6</ele>
        <time>2024-09-18T13:59:44Z</time>
      </trkpt>
      <trkpt lat="46.54108" lon="4.92608">
        <ele>188.6</ele>
        <time>2024-09-18T13:59:45Z</time>
      </trkpt>
      <trkpt lat="46.54103" lon="4.9261">
        <ele>188.6</ele>
        <time>2024-09-18T13:59:46Z</time>
      </trkpt>
      <trkpt lat="46.54099" lon="4.92612">
        <ele>188.6</ele>
        <time>2024-09-18T13:59:47Z</time>
      </trkpt>
      <trkpt lat="46.54094" lon="4.92614">
        <ele>188.6</ele>
        <time>2024-09-18T13:59:48Z</time>
      </trkpt>
      <trkpt lat="46.5409" lon="4.92617">
        <ele>188.6</ele>
        <time>2024-09-18T13:59:49Z</time>
      </trkpt>
      <trkpt lat="46.54086" lon="4.92619">
        <ele>188.6</ele>
        <time>2024-09-18T13:59:50Z</time>
      </trkpt>
      <trkpt lat="46.54081" lon="4.92621">
        <ele>188.4</ele>
        <time>2024-09-18T13:59:51Z</time>
      </trkpt>
      <trkpt lat="46.54077" lon="4.92624">
        <ele>188.4</ele>
        <time>2024-09-18T13:59:52Z</time>
      </trkpt>
      <trkpt lat="46.54073" lon="4.92626">
        <ele>188.4</ele>
        <time>2024-09-18T13:59:53Z</time>
      </trkpt>
      <trkpt lat="46.54068" lon="4.92628">
        <ele>188.4</ele>
        <time>2024-09-18T13:59:54Z</time>
      </trkpt>
      <trkpt lat="46.54064" lon="4.92629">
        <ele>188.4</ele>
        <time>2024-09-18T13:59:55Z</time>
      </trkpt>
      <trkpt lat="46.54059" lon="4.92631">
        <ele>188.4</ele>
        <time>2024-09-18T13:59:56Z</time>
      </trkpt>
      <trkpt lat="46.54055" lon="4.92633">
        <ele>188.4</ele>
        <time>2024-09-18T13:59:57Z</time>
      </trkpt>
      <trkpt lat="46.5405" lon="4.92634">
        <ele>188.4</ele>
        <time>2024-09-18T13:59:58Z</time>
      </trkpt>
      <trkpt lat="46.54045" lon="4.92636">
        <ele>188.4</ele>
        <time>2024-09-18T13:59:59Z</time>
      </trkpt>
      <trkpt lat="46.5404" lon="4.92637">
        <ele>188.2</ele>
        <time>2024-09-18T14:00:00Z</time>
      </trkpt>
      <trkpt lat="46.54036" lon="4.92639">
        <ele>188.2</ele>
        <time>2024-09-18T14:00:01Z</time>
      </trkpt>
      <trkpt lat="46.54031" lon="4.9264">
        <ele>188.2</ele>
        <time>2024-09-18T14:00:02Z</time>
      </trkpt>
      <trkpt lat="46.54027" lon="4.92641">
        <ele>188</ele>
        <time>2024-09-18T14:00:03Z</time>
      </trkpt>
      <trkpt lat="46.54022" lon="4.92643">
        <ele>188</ele>
        <time>2024-09-18T14:00:04Z</time>
      </trkpt>
      <trkpt lat="46.54018" lon="4.92644">
        <ele>188</ele>
        <time>2024-09-18T14:00:05Z</time>
      </trkpt>
      <trkpt lat="46.54014" lon="4.92645">
        <ele>188</ele>
        <time>2024-09-18T14:00:06Z</time>
      </trkpt>
      <trkpt lat="46.54009" lon="4.92647">
        <ele>188</ele>
        <time>2024-09-18T14:00:07Z</time>
      </trkpt>
      <trkpt lat="46.54005" lon="4.92649">
        <ele>187.8</ele>
        <time>2024-09-18T14:00:08Z</time>
      </trkpt>
      <trkpt lat="46.54" lon="4.92651">
        <ele>187.8</ele>
        <time>2024-09-18T14:00:09Z</time>
      </trkpt>
      <trkpt lat="46.53996" lon="4.92653">
        <ele>187.8</ele>
        <time>2024-09-18T14:00:10Z</time>
      </trkpt>
      <trkpt lat="46.53991" lon="4.92655">
        <ele>187.8</ele>
        <time>2024-09-18T14:00:11Z</time>
      </trkpt>
      <trkpt lat="46.53987" lon="4.92657">
        <ele>187.8</ele>
        <time>2024-09-18T14:00:12Z</time>
      </trkpt>
      <trkpt lat="46.53982" lon="4.92659">
        <ele>188</ele>
        <time>2024-09-18T14:00:13Z</time>
      </trkpt>
      <trkpt lat="46.53978" lon="4.92661">
        <ele>187.8</ele>
        <time>2024-09-18T14:00:14Z</time>
      </trkpt>
      <trkpt lat="46.53973" lon="4.92663">
        <ele>187.8</ele>
        <time>2024-09-18T14:00:15Z</time>
      </trkpt>
      <trkpt lat="46.53969" lon="4.92665">
        <ele>187.8</ele>
        <time>2024-09-18T14:00:16Z</time>
      </trkpt>
      <trkpt lat="46.53964" lon="4.92667">
        <ele>187.8</ele>
        <time>2024-09-18T14:00:17Z</time>
      </trkpt>
      <trkpt lat="46.53959" lon="4.92668">
        <ele>188.6</ele>
        <time>2024-09-18T14:00:18Z</time>
      </trkpt>
      <trkpt lat="46.53955" lon="4.9267">
        <ele>188.6</ele>
        <time>2024-09-18T14:00:19Z</time>
      </trkpt>
      <trkpt lat="46.5395" lon="4.92672">
        <ele>188.6</ele>
        <time>2024-09-18T14:00:20Z</time>
      </trkpt>
      <trkpt lat="46.53946" lon="4.92674">
        <ele>188.6</ele>
        <time>2024-09-18T14:00:21Z</time>
      </trkpt>
      <trkpt lat="46.53941" lon="4.92676">
        <ele>188.2</ele>
        <time>2024-09-18T14:00:22Z</time>
      </trkpt>
      <trkpt lat="46.53936" lon="4.92678">
        <ele>188.2</ele>
        <time>2024-09-18T14:00:23Z</time>
      </trkpt>
      <trkpt lat="46.53932" lon="4.9268">
        <ele>188.2</ele>
        <time>2024-09-18T14:00:24Z</time>
      </trkpt>
      <trkpt lat="46.53927" lon="4.92682">
        <ele>188.2</ele>
        <time>2024-09-18T14:00:25Z</time>
      </trkpt>
      <trkpt lat="46.53923" lon="4.92684">
        <ele>188</ele>
        <time>2024-09-18T14:00:26Z</time>
      </trkpt>
      <trkpt lat="46.53918" lon="4.92686">
        <ele>187.8</ele>
        <time>2024-09-18T14:00:27Z</time>
      </trkpt>
      <trkpt lat="46.53914" lon="4.92688">
        <ele>187.8</ele>
        <time>2024-09-18T14:00:28Z</time>
      </trkpt>
      <trkpt lat="46.5391" lon="4.9269">
        <ele>187.8</ele>
        <time>2024-09-18T14:00:29Z</time>
      </trkpt>
      <trkpt lat="46.53905" lon="4.92692">
        <ele>187.8</ele>
        <time>2024-09-18T14:00:30Z</time>
      </trkpt>
      <trkpt lat="46.53901" lon="4.92694">
        <ele>188</ele>
        <time>2024-09-18T14:00:31Z</time>
      </trkpt>
      <trkpt lat="46.53897" lon="4.92696">
        <ele>188</ele>
        <time>2024-09-18T14:00:32Z</time>
      </trkpt>
      <trkpt lat="46.53893" lon="4.92698">
        <ele>188</ele>
        <time>2024-09-18T14:00:33Z</time>
      </trkpt>
      <trkpt lat="46.53888" lon="4.927">
        <ele>187.6</ele>
        <time>2024-09-18T14:00:34Z</time>
      </trkpt>
      <trkpt lat="46.53884" lon="4.92702">
        <ele>187.4</ele>
        <time>2024-09-18T14:00:35Z</time>
      </trkpt>
      <trkpt lat="46.5388" lon="4.92705">
        <ele>187.4</ele>
        <time>2024-09-18T14:00:36Z</time>
      </trkpt>
      <trkpt lat="46.53875" lon="4.92707">
        <ele>187.4</ele>
        <time>2024-09-18T14:00:37Z</time>
      </trkpt>
      <trkpt lat="46.53871" lon="4.9271">
        <ele>187.4</ele>
        <time>2024-09-18T14:00:38Z</time>
      </trkpt>
      <trkpt lat="46.53867" lon="4.92712">
        <ele>187.8</ele>
        <time>2024-09-18T14:00:39Z</time>
      </trkpt>
      <trkpt lat="46.53862" lon="4.92715">
        <ele>187.6</ele>
        <time>2024-09-18T14:00:40Z</time>
      </trkpt>
      <trkpt lat="46.53858" lon="4.92717">
        <ele>187.6</ele>
        <time>2024-09-18T14:00:41Z</time>
      </trkpt>
      <trkpt lat="46.53854" lon="4.9272">
        <ele>187.6</ele>
        <time>2024-09-18T14:00:42Z</time>
      </trkpt>
      <trkpt lat="46.53849" lon="4.92723">
        <ele>187.6</ele>
        <time>2024-09-18T14:00:43Z</time>
      </trkpt>
      <trkpt lat="46.53845" lon="4.92725">
        <ele>187.6</ele>
        <time>2024-09-18T14:00:44Z</time>
      </trkpt>
      <trkpt lat="46.53841" lon="4.92728">
        <ele>188</ele>
        <time>2024-09-18T14:00:45Z</time>
      </trkpt>
      <trkpt lat="46.53837" lon="4.92731">
        <ele>188</ele>
        <time>2024-09-18T14:00:46Z</time>
      </trkpt>
      <trkpt lat="46.53832" lon="4.92734">
        <ele>188</ele>
        <time>2024-09-18T14:00:47Z</time>
      </trkpt>
      <trkpt lat="46.53828" lon="4.92736">
        <ele>188</ele>
        <time>2024-09-18T14:00:48Z</time>
      </trkpt>
      <trkpt lat="46.53823" lon="4.92738">
        <ele>188</ele>
        <time>2024-09-18T14:00:49Z</time>
      </trkpt>
      <trkpt lat="46.53819" lon="4.92741">
        <ele>188.2</ele>
        <time>2024-09-18T14:00:50Z</time>
      </trkpt>
      <trkpt lat="46.53814" lon="4.92744">
        <ele>188.2</ele>
        <time>2024-09-18T14:00:51Z</time>
      </trkpt>
      <trkpt lat="46.5381" lon="4.92746">
        <ele>188.2</ele>
        <time>2024-09-18T14:00:52Z</time>
      </trkpt>
      <trkpt lat="46.53806" lon="4.92749">
        <ele>188</ele>
        <time>2024-09-18T14:00:53Z</time>
      </trkpt>
      <trkpt lat="46.53802" lon="4.92751">
        <ele>187.8</ele>
        <time>2024-09-18T14:00:54Z</time>
      </trkpt>
      <trkpt lat="46.53798" lon="4.92754">
        <ele>187.8</ele>
        <time>2024-09-18T14:00:55Z</time>
      </trkpt>
      <trkpt lat="46.53794" lon="4.92756">
        <ele>187.8</ele>
        <time>2024-09-18T14:00:56Z</time>
      </trkpt>
      <trkpt lat="46.5379" lon="4.92758">
        <ele>188</ele>
        <time>2024-09-18T14:00:57Z</time>
      </trkpt>
      <trkpt lat="46.53786" lon="4.92761">
        <ele>187.6</ele>
        <time>2024-09-18T14:00:58Z</time>
      </trkpt>
      <trkpt lat="46.53782" lon="4.92763">
        <ele>187.6</ele>
        <time>2024-09-18T14:00:59Z</time>
      </trkpt>
      <trkpt lat="46.53778" lon="4.92766">
        <ele>187.6</ele>
        <time>2024-09-18T14:01:00Z</time>
      </trkpt>
      <trkpt lat="46.53774" lon="4.92768">
        <ele>187.6</ele>
        <time>2024-09-18T14:01:01Z</time>
      </trkpt>
      <trkpt lat="46.53769" lon="4.92771">
        <ele>188.2</ele>
        <time>2024-09-18T14:01:02Z</time>
      </trkpt>
      <trkpt lat="46.53765" lon="4.92773">
        <ele>187.8</ele>
        <time>2024-09-18T14:01:03Z</time>
      </trkpt>
      <trkpt lat="46.53761" lon="4.92776">
        <ele>187.8</ele>
        <time>2024-09-18T14:01:04Z</time>
      </trkpt>
      <trkpt lat="46.53756" lon="4.92778">
        <ele>187.8</ele>
        <time>2024-09-18T14:01:05Z</time>
      </trkpt>
      <trkpt lat="46.53752" lon="4.9278">
        <ele>188.2</ele>
        <time>2024-09-18T14:01:06Z</time>
      </trkpt>
      <trkpt lat="46.53747" lon="4.92783">
        <ele>188</ele>
        <time>2024-09-18T14:01:07Z</time>
      </trkpt>
      <trkpt lat="46.53742" lon="4.92785">
        <ele>188</ele>
        <time>2024-09-18T14:01:08Z</time>
      </trkpt>
      <trkpt lat="46.53738" lon="4.92788">
        <ele>188</ele>
        <time>2024-09-18T14:01:09Z</time>
      </trkpt>
      <trkpt lat="46.53734" lon="4.92791">
        <ele>188</ele>
        <time>2024-09-18T14:01:10Z</time>
      </trkpt>
      <trkpt lat="46.53729" lon="4.92793">
        <ele>188</ele>
        <time>2024-09-18T14:01:11Z</time>
      </trkpt>
      <trkpt lat="46.53725" lon="4.92795">
        <ele>188</ele>
        <time>2024-09-18T14:01:12Z</time>
      </trkpt>
      <trkpt lat="46.53721" lon="4.92797">
        <ele>188</ele>
        <time>2024-09-18T14:01:13Z</time>
      </trkpt>
      <trkpt lat="46.53716" lon="4.92799">
        <ele>188</ele>
        <time>2024-09-18T14:01:14Z</time>
      </trkpt>
      <trkpt lat="46.53712" lon="4.92802">
        <ele>188</ele>
        <time>2024-09-18T14:01:15Z</time>
      </trkpt>
      <trkpt lat="46.53707" lon="4.92804">
        <ele>187.8</ele>
        <time>2024-09-18T14:01:16Z</time>
      </trkpt>
      <trkpt lat="46.53703" lon="4.92807">
        <ele>187.8</ele>
        <time>2024-09-18T14:01:17Z</time>
      </trkpt>
      <trkpt lat="46.53698" lon="4.92809">
        <ele>187.8</ele>
        <time>2024-09-18T14:01:18Z</time>
      </trkpt>
      <trkpt lat="46.53694" lon="4.92812">
        <ele>187.8</ele>
        <time>2024-09-18T14:01:19Z</time>
      </trkpt>
      <trkpt lat="46.53689" lon="4.92815">
        <ele>188.2</ele>
        <time>2024-09-18T14:01:20Z</time>
      </trkpt>
      <trkpt lat="46.53685" lon="4.92817">
        <ele>188.2</ele>
        <time>2024-09-18T14:01:21Z</time>
      </trkpt>
      <trkpt lat="46.5368" lon="4.9282">
        <ele>188.2</ele>
        <time>2024-09-18T14:01:22Z</time>
      </trkpt>
      <trkpt lat="46.53676" lon="4.92822">
        <ele>188.2</ele>
        <time>2024-09-18T14:01:23Z</time>
      </trkpt>
      <trkpt lat="46.53672" lon="4.92824">
        <ele>187.4</ele>
        <time>2024-09-18T14:01:24Z</time>
      </trkpt>
      <trkpt lat="46.53668" lon="4.92827">
        <ele>188.2</ele>
        <time>2024-09-18T14:01:25Z</time>
      </trkpt>
      <trkpt lat="46.53663" lon="4.92829">
        <ele>188.2</ele>
        <time>2024-09-18T14:01:26Z</time>
      </trkpt>
      <trkpt lat="46.53659" lon="4.92832">
        <ele>188.2</ele>
        <time>2024-09-18T14:01:27Z</time>
      </trkpt>
      <trkpt lat="46.53655" lon="4.92834">
        <ele>188</ele>
        <time>2024-09-18T14:01:28Z</time>
      </trkpt>
      <trkpt lat="46.53651" lon="4.92836">
        <ele>187.6</ele>
        <time>2024-09-18T14:01:29Z</time>
      </trkpt>
      <trkpt lat="46.53647" lon="4.92838">
        <ele>187.6</ele>
        <time>2024-09-18T14:01:30Z</time>
      </trkpt>
      <trkpt lat="46.53643" lon="4.9284">
        <ele>187.6</ele>
        <time>2024-09-18T14:01:31Z</time>
      </trkpt>
      <trkpt lat="46.53639" lon="4.92843">
        <ele>187.6</ele>
        <time>2024-09-18T14:01:32Z</time>
      </trkpt>
      <trkpt lat="46.53635" lon="4.92845">
        <ele>188</ele>
        <time>2024-09-18T14:01:33Z</time>
      </trkpt>
      <trkpt lat="46.53631" lon="4.92848">
        <ele>188</ele>
        <time>2024-09-18T14:01:34Z</time>
      </trkpt>
      <trkpt lat="46.53627" lon="4.9285">
        <ele>188</ele>
        <time>2024-09-18T14:01:35Z</time>
      </trkpt>
      <trkpt lat="46.53623" lon="4.92853">
        <ele>188</ele>
        <time>2024-09-18T14:01:36Z</time>
      </trkpt>
      <trkpt lat="46.53619" lon="4.92855">
        <ele>188</ele>
        <time>2024-09-18T14:01:37Z</time>
      </trkpt>
      <trkpt lat="46.53615" lon="4.92857">
        <ele>187.8</ele>
        <time>2024-09-18T14:01:38Z</time>
      </trkpt>
      <trkpt lat="46.53611" lon="4.9286">
        <ele>188</ele>
        <time>2024-09-18T14:01:39Z</time>
      </trkpt>
      <trkpt lat="46.53606" lon="4.92862">
        <ele>188</ele>
        <time>2024-09-18T14:01:40Z</time>
      </trkpt>
      <trkpt lat="46.53603" lon="4.92864">
        <ele>188</ele>
        <time>2024-09-18T14:01:41Z</time>
      </trkpt>
      <trkpt lat="46.53599" lon="4.92865">
        <ele>188</ele>
        <time>2024-09-18T14:01:42Z</time>
      </trkpt>
      <trkpt lat="46.53595" lon="4.92867">
        <ele>187.8</ele>
        <time>2024-09-18T14:01:43Z</time>
      </trkpt>
      <trkpt lat="46.53591" lon="4.92869">
        <ele>187.8</ele>
        <time>2024-09-18T14:01:44Z</time>
      </trkpt>
      <trkpt lat="46.53588" lon="4.92871">
        <ele>187.8</ele>
        <time>2024-09-18T14:01:45Z</time>
      </trkpt>
      <trkpt lat="46.53584" lon="4.92873">
        <ele>187.8</ele>
        <time>2024-09-18T14:01:46Z</time>
      </trkpt>
      <trkpt lat="46.53581" lon="4.92874">
        <ele>188.6</ele>
        <time>2024-09-18T14:01:47Z</time>
      </trkpt>
      <trkpt lat="46.53578" lon="4.92875">
        <ele>188.6</ele>
        <time>2024-09-18T14:01:48Z</time>
      </trkpt>
      <trkpt lat="46.53575" lon="4.92876">
        <ele>188.6</ele>
        <time>2024-09-18T14:01:49Z</time>
      </trkpt>
      <trkpt lat="46.53572" lon="4.92878">
        <ele>188.6</ele>
        <time>2024-09-18T14:01:50Z</time>
      </trkpt>
      <trkpt lat="46.53568" lon="4.92879">
        <ele>188.6</ele>
        <time>2024-09-18T14:01:51Z</time>
      </trkpt>
      <trkpt lat="46.53565" lon="4.92881">
        <ele>189.6</ele>
        <time>2024-09-18T14:01:52Z</time>
      </trkpt>
      <trkpt lat="46.53563" lon="4.92882">
        <ele>189.6</ele>
        <time>2024-09-18T14:01:53Z</time>
      </trkpt>
      <trkpt lat="46.5356" lon="4.92883">
        <ele>189.6</ele>
        <time>2024-09-18T14:01:54Z</time>
      </trkpt>
      <trkpt lat="46.53557" lon="4.92885">
        <ele>189.6</ele>
        <time>2024-09-18T14:01:55Z</time>
      </trkpt>
      <trkpt lat="46.53554" lon="4.92887">
        <ele>189.6</ele>
        <time>2024-09-18T14:01:56Z</time>
      </trkpt>
      <trkpt lat="46.5355" lon="4.92889">
        <ele>189.4</ele>
        <time>2024-09-18T14:01:57Z</time>
      </trkpt>
      <trkpt lat="46.53548" lon="4.9289">
        <ele>189.4</ele>
        <time>2024-09-18T14:01:58Z</time>
      </trkpt>
      <trkpt lat="46.53544" lon="4.92893">
        <ele>189.4</ele>
        <time>2024-09-18T14:01:59Z</time>
      </trkpt>
      <trkpt lat="46.53543" lon="4.92894">
        <ele>189.4</ele>
        <time>2024-09-18T14:02:00Z</time>
      </trkpt>
      <trkpt lat="46.5354" lon="4.92896">
        <ele>190.4</ele>
        <time>2024-09-18T14:02:01Z</time>
      </trkpt>
      <trkpt lat="46.53537" lon="4.92898">
        <ele>190.4</ele>
        <time>2024-09-18T14:02:02Z</time>
      </trkpt>
      <trkpt lat="46.53534" lon="4.92901">
        <ele>190.4</ele>
        <time>2024-09-18T14:02:03Z</time>
      </trkpt>
      <trkpt lat="46.53531" lon="4.92902">
        <ele>190.6</ele>
        <time>2024-09-18T14:02:04Z</time>
      </trkpt>
      <trkpt lat="46.53528" lon="4.92905">
        <ele>190.6</ele>
        <time>2024-09-18T14:02:05Z</time>
      </trkpt>
      <trkpt lat="46.53525" lon="4.92907">
        <ele>190.6</ele>
        <time>2024-09-18T14:02:06Z</time>
      </trkpt>
      <trkpt lat="46.53522" lon="4.92909">
        <ele>190.6</ele>
        <time>2024-09-18T14:02:07Z</time>
      </trkpt>
      <trkpt lat="46.53519" lon="4.92911">
        <ele>190.6</ele>
        <time>2024-09-18T14:02:08Z</time>
      </trkpt>
      <trkpt lat="46.53514" lon="4.92914">
        <ele>190.6</ele>
        <time>2024-09-18T14:02:09Z</time>
      </trkpt>
      <trkpt lat="46.53513" lon="4.92915">
        <ele>190.8</ele>
        <time>2024-09-18T14:02:10Z</time>
      </trkpt>
      <trkpt lat="46.53509" lon="4.92917">
        <ele>190.8</ele>
        <time>2024-09-18T14:02:11Z</time>
      </trkpt>
      <trkpt lat="46.53506" lon="4.92919">
        <ele>190.8</ele>
        <time>2024-09-18T14:02:12Z</time>
      </trkpt>
      <trkpt lat="46.53502" lon="4.92921">
        <ele>190.8</ele>
        <time>2024-09-18T14:02:13Z</time>
      </trkpt>
      <trkpt lat="46.53499" lon="4.92924">
        <ele>190.8</ele>
        <time>2024-09-18T14:02:14Z</time>
      </trkpt>
      <trkpt lat="46.53494" lon="4.92927">
        <ele>190.4</ele>
        <time>2024-09-18T14:02:15Z</time>
      </trkpt>
      <trkpt lat="46.53492" lon="4.92928">
        <ele>190.4</ele>
        <time>2024-09-18T14:02:16Z</time>
      </trkpt>
      <trkpt lat="46.53489" lon="4.9293">
        <ele>190.4</ele>
        <time>2024-09-18T14:02:17Z</time>
      </trkpt>
      <trkpt lat="46.53485" lon="4.92932">
        <ele>190.4</ele>
        <time>2024-09-18T14:02:18Z</time>
      </trkpt>
      <trkpt lat="46.53481" lon="4.92935">
        <ele>189.8</ele>
        <time>2024-09-18T14:02:19Z</time>
      </trkpt>
      <trkpt lat="46.53477" lon="4.92937">
        <ele>189.8</ele>
        <time>2024-09-18T14:02:20Z</time>
      </trkpt>
      <trkpt lat="46.53473" lon="4.9294">
        <ele>189.8</ele>
        <time>2024-09-18T14:02:21Z</time>
      </trkpt>
      <trkpt lat="46.53469" lon="4.92943">
        <ele>189.8</ele>
        <time>2024-09-18T14:02:22Z</time>
      </trkpt>
      <trkpt lat="46.53464" lon="4.92945">
        <ele>189.8</ele>
        <time>2024-09-18T14:02:23Z</time>
      </trkpt>
      <trkpt lat="46.5346" lon="4.92949">
        <ele>189.6</ele>
        <time>2024-09-18T14:02:24Z</time>
      </trkpt>
      <trkpt lat="46.53455" lon="4.92952">
        <ele>189.6</ele>
        <time>2024-09-18T14:02:25Z</time>
      </trkpt>
      <trkpt lat="46.5345" lon="4.92955">
        <ele>189.6</ele>
        <time>2024-09-18T14:02:26Z</time>
      </trkpt>
      <trkpt lat="46.53446" lon="4.92959">
        <ele>188.8</ele>
        <time>2024-09-18T14:02:27Z</time>
      </trkpt>
      <trkpt lat="46.53442" lon="4.92963">
        <ele>189.2</ele>
        <time>2024-09-18T14:02:28Z</time>
      </trkpt>
      <trkpt lat="46.53437" lon="4.92966">
        <ele>189.2</ele>
        <time>2024-09-18T14:02:29Z</time>
      </trkpt>
      <trkpt lat="46.53433" lon="4.9297">
        <ele>189.2</ele>
        <time>2024-09-18T14:02:30Z</time>
      </trkpt>
      <trkpt lat="46.53429" lon="4.92973">
        <ele>189.2</ele>
        <time>2024-09-18T14:02:31Z</time>
      </trkpt>
      <trkpt lat="46.53425" lon="4.92976">
        <ele>189.2</ele>
        <time>2024-09-18T14:02:32Z</time>
      </trkpt>
      <trkpt lat="46.5342" lon="4.9298">
        <ele>189.2</ele>
        <time>2024-09-18T14:02:33Z</time>
      </trkpt>
      <trkpt lat="46.53416" lon="4.92983">
        <ele>189.2</ele>
        <time>2024-09-18T14:02:34Z</time>
      </trkpt>
      <trkpt lat="46.53411" lon="4.92987">
        <ele>189.2</ele>
        <time>2024-09-18T14:02:35Z</time>
      </trkpt>
      <trkpt lat="46.53406" lon="4.9299">
        <ele>188.4</ele>
        <time>2024-09-18T14:02:36Z</time>
      </trkpt>
      <trkpt lat="46.53402" lon="4.92994">
        <ele>188.6</ele>
        <time>2024-09-18T14:02:37Z</time>
      </trkpt>
      <trkpt lat="46.53397" lon="4.92997">
        <ele>188.6</ele>
        <time>2024-09-18T14:02:38Z</time>
      </trkpt>
      <trkpt lat="46.53392" lon="4.93001">
        <ele>188.6</ele>
        <time>2024-09-18T14:02:39Z</time>
      </trkpt>
      <trkpt lat="46.53387" lon="4.93004">
        <ele>188.6</ele>
        <time>2024-09-18T14:02:40Z</time>
      </trkpt>
      <trkpt lat="46.53383" lon="4.93008">
        <ele>188.4</ele>
        <time>2024-09-18T14:02:41Z</time>
      </trkpt>
      <trkpt lat="46.53378" lon="4.93011">
        <ele>188.4</ele>
        <time>2024-09-18T14:02:42Z</time>
      </trkpt>
      <trkpt lat="46.53373" lon="4.93014">
        <ele>188.4</ele>
        <time>2024-09-18T14:02:43Z</time>
      </trkpt>
      <trkpt lat="46.53369" lon="4.93018">
        <ele>188.4</ele>
        <time>2024-09-18T14:02:44Z</time>
      </trkpt>
      <trkpt lat="46.53364" lon="4.93021">
        <ele>188.4</ele>
        <time>2024-09-18T14:02:45Z</time>
      </trkpt>
      <trkpt lat="46.5336" lon="4.93024">
        <ele>188.2</ele>
        <time>2024-09-18T14:02:46Z</time>
      </trkpt>
      <trkpt lat="46.53355" lon="4.93028">
        <ele>188.2</ele>
        <time>2024-09-18T14:02:47Z</time>
      </trkpt>
      <trkpt lat="46.5335" lon="4.93031">
        <ele>188.2</ele>
        <time>2024-09-18T14:02:48Z</time>
      </trkpt>
      <trkpt lat="46.53346" lon="4.93035">
        <ele>188</ele>
        <time>2024-09-18T14:02:49Z</time>
      </trkpt>
      <trkpt lat="46.53341" lon="4.93038">
        <ele>188</ele>
        <time>2024-09-18T14:02:50Z</time>
      </trkpt>
      <trkpt lat="46.53336" lon="4.93042">
        <ele>188</ele>
        <time>2024-09-18T14:02:51Z</time>
      </trkpt>
      <trkpt lat="46.53331" lon="4.93045">
        <ele>188</ele>
        <time>2024-09-18T14:02:52Z</time>
      </trkpt>
      <trkpt lat="46.53327" lon="4.93048">
        <ele>188.2</ele>
        <time>2024-09-18T14:02:53Z</time>
      </trkpt>
      <trkpt lat="46.53322" lon="4.93052">
        <ele>188</ele>
        <time>2024-09-18T14:02:54Z</time>
      </trkpt>
      <trkpt lat="46.53317" lon="4.93056">
        <ele>188</ele>
        <time>2024-09-18T14:02:55Z</time>
      </trkpt>
      <trkpt lat="46.53313" lon="4.9306">
        <ele>188</ele>
        <time>2024-09-18T14:02:56Z</time>
      </trkpt>
      <trkpt lat="46.53308" lon="4.93063">
        <ele>188</ele>
        <time>2024-09-18T14:02:57Z</time>
      </trkpt>
      <trkpt lat="46.53304" lon="4.93067">
        <ele>188</ele>
        <time>2024-09-18T14:02:58Z</time>
      </trkpt>
      <trkpt lat="46.533" lon="4.93071">
        <ele>188.2</ele>
        <time>2024-09-18T14:02:59Z</time>
      </trkpt>
      <trkpt lat="46.53296" lon="4.93075">
        <ele>188.2</ele>
        <time>2024-09-18T14:03:00Z</time>
      </trkpt>
      <trkpt lat="46.53292" lon="4.93079">
        <ele>188.2</ele>
        <time>2024-09-18T14:03:01Z</time>
      </trkpt>
      <trkpt lat="46.53288" lon="4.93083">
        <ele>188.2</ele>
        <time>2024-09-18T14:03:02Z</time>
      </trkpt>
      <trkpt lat="46.53284" lon="4.93086">
        <ele>188</ele>
        <time>2024-09-18T14:03:03Z</time>
      </trkpt>
      <trkpt lat="46.5328" lon="4.9309">
        <ele>188</ele>
        <time>2024-09-18T14:03:04Z</time>
      </trkpt>
      <trkpt lat="46.53276" lon="4.93094">
        <ele>188</ele>
        <time>2024-09-18T14:03:05Z</time>
      </trkpt>
      <trkpt lat="46.53272" lon="4.93097">
        <ele>188</ele>
        <time>2024-09-18T14:03:06Z</time>
      </trkpt>
      <trkpt lat="46.53268" lon="4.931">
        <ele>188.6</ele>
        <time>2024-09-18T14:03:07Z</time>
      </trkpt>
      <trkpt lat="46.53264" lon="4.93104">
        <ele>188.4</ele>
        <time>2024-09-18T14:03:08Z</time>
      </trkpt>
      <trkpt lat="46.5326" lon="4.93107">
        <ele>188.4</ele>
        <time>2024-09-18T14:03:09Z</time>
      </trkpt>
      <trkpt lat="46.53256" lon="4.9311">
        <ele>188.4</ele>
        <time>2024-09-18T14:03:10Z</time>
      </trkpt>
      <trkpt lat="46.53251" lon="4.93113">
        <ele>188.4</ele>
        <time>2024-09-18T14:03:11Z</time>
      </trkpt>
      <trkpt lat="46.53247" lon="4.93115">
        <ele>188.4</ele>
        <time>2024-09-18T14:03:12Z</time>
      </trkpt>
      <trkpt lat="46.53243" lon="4.93118">
        <ele>188.8</ele>
        <time>2024-09-18T14:03:13Z</time>
      </trkpt>
      <trkpt lat="46.53239" lon="4.9312">
        <ele>188.8</ele>
        <time>2024-09-18T14:03:14Z</time>
      </trkpt>
      <trkpt lat="46.53235" lon="4.93123">
        <ele>188.8</ele>
        <time>2024-09-18T14:03:15Z</time>
      </trkpt>
      <trkpt lat="46.53231" lon="4.93126">
        <ele>188.8</ele>
        <time>2024-09-18T14:03:16Z</time>
      </trkpt>
      <trkpt lat="46.53227" lon="4.93129">
        <ele>189</ele>
        <time>2024-09-18T14:03:17Z</time>
      </trkpt>
      <trkpt lat="46.53223" lon="4.93132">
        <ele>189</ele>
        <time>2024-09-18T14:03:18Z</time>
      </trkpt>
      <trkpt lat="46.53219" lon="4.93135">
        <ele>189</ele>
        <time>2024-09-18T14:03:19Z</time>
      </trkpt>
      <trkpt lat="46.53215" lon="4.93138">
        <ele>188.6</ele>
        <time>2024-09-18T14:03:20Z</time>
      </trkpt>
      <trkpt lat="46.53211" lon="4.93141">
        <ele>188.4</ele>
        <time>2024-09-18T14:03:21Z</time>
      </trkpt>
      <trkpt lat="46.53207" lon="4.93144">
        <ele>188.4</ele>
        <time>2024-09-18T14:03:22Z</time>
      </trkpt>
      <trkpt lat="46.53203" lon="4.93147">
        <ele>188.4</ele>
        <time>2024-09-18T14:03:23Z</time>
      </trkpt>
      <trkpt lat="46.53199" lon="4.9315">
        <ele>188.4</ele>
        <time>2024-09-18T14:03:24Z</time>
      </trkpt>
      <trkpt lat="46.53196" lon="4.93153">
        <ele>188</ele>
        <time>2024-09-18T14:03:25Z</time>
      </trkpt>
      <trkpt lat="46.53192" lon="4.93156">
        <ele>188.2</ele>
        <time>2024-09-18T14:03:26Z</time>
      </trkpt>
      <trkpt lat="46.53188" lon="4.93159">
        <ele>188.2</ele>
        <time>2024-09-18T14:03:27Z</time>
      </trkpt>
      <trkpt lat="46.53182" lon="4.93163">
        <ele>188.2</ele>
        <time>2024-09-18T14:03:28Z</time>
      </trkpt>
      <trkpt lat="46.5318" lon="4.93164">
        <ele>188.4</ele>
        <time>2024-09-18T14:03:29Z</time>
      </trkpt>
      <trkpt lat="46.53176" lon="4.93167">
        <ele>188.4</ele>
        <time>2024-09-18T14:03:30Z</time>
      </trkpt>
      <trkpt lat="46.53171" lon="4.93169">
        <ele>188.4</ele>
        <time>2024-09-18T14:03:31Z</time>
      </trkpt>
      <trkpt lat="46.53167" lon="4.93172">
        <ele>188.4</ele>
        <time>2024-09-18T14:03:32Z</time>
      </trkpt>
      <trkpt lat="46.53163" lon="4.93175">
        <ele>188.2</ele>
        <time>2024-09-18T14:03:33Z</time>
      </trkpt>
      <trkpt lat="46.53159" lon="4.93178">
        <ele>188.2</ele>
        <time>2024-09-18T14:03:34Z</time>
      </trkpt>
      <trkpt lat="46.53155" lon="4.93181">
        <ele>188.4</ele>
        <time>2024-09-18T14:03:35Z</time>
      </trkpt>
      <trkpt lat="46.53151" lon="4.93184">
        <ele>188.4</ele>
        <time>2024-09-18T14:03:36Z</time>
      </trkpt>
      <trkpt lat="46.53147" lon="4.93187">
        <ele>188.4</ele>
        <time>2024-09-18T14:03:37Z</time>
      </trkpt>
      <trkpt lat="46.53143" lon="4.93189">
        <ele>188.4</ele>
        <time>2024-09-18T14:03:38Z</time>
      </trkpt>
      <trkpt lat="46.53138" lon="4.93194">
        <ele>188.8</ele>
        <time>2024-09-18T14:03:39Z</time>
      </trkpt>
      <trkpt lat="46.53136" lon="4.93196">
        <ele>188.8</ele>
        <time>2024-09-18T14:03:40Z</time>
      </trkpt>
      <trkpt lat="46.53132" lon="4.93199">
        <ele>188.8</ele>
        <time>2024-09-18T14:03:41Z</time>
      </trkpt>
      <trkpt lat="46.53128" lon="4.93202">
        <ele>188.8</ele>
        <time>2024-09-18T14:03:42Z</time>
      </trkpt>
      <trkpt lat="46.53124" lon="4.93206">
        <ele>188.8</ele>
        <time>2024-09-18T14:03:43Z</time>
      </trkpt>
      <trkpt lat="46.5312" lon="4.93208">
        <ele>189</ele>
        <time>2024-09-18T14:03:44Z</time>
      </trkpt>
      <trkpt lat="46.53116" lon="4.93211">
        <ele>189</ele>
        <time>2024-09-18T14:03:45Z</time>
      </trkpt>
      <trkpt lat="46.53112" lon="4.93214">
        <ele>189</ele>
        <time>2024-09-18T14:03:46Z</time>
      </trkpt>
      <trkpt lat="46.53108" lon="4.93217">
        <ele>189.4</ele>
        <time>2024-09-18T14:03:47Z</time>
      </trkpt>
      <trkpt lat="46.53104" lon="4.9322">
        <ele>189.4</ele>
        <time>2024-09-18T14:03:48Z</time>
      </trkpt>
      <trkpt lat="46.531" lon="4.93223">
        <ele>189.4</ele>
        <time>2024-09-18T14:03:49Z</time>
      </trkpt>
      <trkpt lat="46.53097" lon="4.93226">
        <ele>189.4</ele>
        <time>2024-09-18T14:03:50Z</time>
      </trkpt>
      <trkpt lat="46.53093" lon="4.93228">
        <ele>189.4</ele>
        <time>2024-09-18T14:03:51Z</time>
      </trkpt>
      <trkpt lat="46.5309" lon="4.93231">
        <ele>189.4</ele>
        <time>2024-09-18T14:03:52Z</time>
      </trkpt>
      <trkpt lat="46.53086" lon="4.93234">
        <ele>189.2</ele>
        <time>2024-09-18T14:03:53Z</time>
      </trkpt>
      <trkpt lat="46.53083" lon="4.93236">
        <ele>189.2</ele>
        <time>2024-09-18T14:03:54Z</time>
      </trkpt>
      <trkpt lat="46.5308" lon="4.93239">
        <ele>189.2</ele>
        <time>2024-09-18T14:03:55Z</time>
      </trkpt>
      <trkpt lat="46.53076" lon="4.93242">
        <ele>189.8</ele>
        <time>2024-09-18T14:03:56Z</time>
      </trkpt>
      <trkpt lat="46.53073" lon="4.93246">
        <ele>189.8</ele>
        <time>2024-09-18T14:03:57Z</time>
      </trkpt>
      <trkpt lat="46.5307" lon="4.93249">
        <ele>189.8</ele>
        <time>2024-09-18T14:03:58Z</time>
      </trkpt>
      <trkpt lat="46.53067" lon="4.93251">
        <ele>189.8</ele>
        <time>2024-09-18T14:03:59Z</time>
      </trkpt>
      <trkpt lat="46.53064" lon="4.93253">
        <ele>190</ele>
        <time>2024-09-18T14:04:00Z</time>
      </trkpt>
      <trkpt lat="46.53061" lon="4.93256">
        <ele>190</ele>
        <time>2024-09-18T14:04:01Z</time>
      </trkpt>
      <trkpt lat="46.53058" lon="4.93259">
        <ele>190</ele>
        <time>2024-09-18T14:04:02Z</time>
      </trkpt>
      <trkpt lat="46.53055" lon="4.93262">
        <ele>190</ele>
        <time>2024-09-18T14:04:03Z</time>
      </trkpt>
      <trkpt lat="46.5305" lon="4.93267">
        <ele>190</ele>
        <time>2024-09-18T14:04:04Z</time>
      </trkpt>
      <trkpt lat="46.53048" lon="4.93268">
        <ele>189.4</ele>
        <time>2024-09-18T14:04:05Z</time>
      </trkpt>
      <trkpt lat="46.53044" lon="4.93272">
        <ele>189.6</ele>
        <time>2024-09-18T14:04:06Z</time>
      </trkpt>
      <trkpt lat="46.5304" lon="4.93275">
        <ele>189.6</ele>
        <time>2024-09-18T14:04:07Z</time>
      </trkpt>
      <trkpt lat="46.53034" lon="4.93281">
        <ele>189.6</ele>
        <time>2024-09-18T14:04:08Z</time>
      </trkpt>
      <trkpt lat="46.53032" lon="4.93283">
        <ele>189.4</ele>
        <time>2024-09-18T14:04:09Z</time>
      </trkpt>
      <trkpt lat="46.53028" lon="4.93287">
        <ele>189.4</ele>
        <time>2024-09-18T14:04:10Z</time>
      </trkpt>
      <trkpt lat="46.53024" lon="4.93292">
        <ele>189.4</ele>
        <time>2024-09-18T14:04:11Z</time>
      </trkpt>
      <trkpt lat="46.5302" lon="4.93296">
        <ele>189.4</ele>
        <time>2024-09-18T14:04:12Z</time>
      </trkpt>
      <trkpt lat="46.53016" lon="4.933">
        <ele>189.4</ele>
        <time>2024-09-18T14:04:13Z</time>
      </trkpt>
      <trkpt lat="46.53012" lon="4.93304">
        <ele>189.8</ele>
        <time>2024-09-18T14:04:14Z</time>
      </trkpt>
      <trkpt lat="46.53005" lon="4.93309">
        <ele>189.8</ele>
        <time>2024-09-18T14:04:15Z</time>
      </trkpt>
      <trkpt lat="46.53003" lon="4.93311">
        <ele>189.8</ele>
        <time>2024-09-18T14:04:16Z</time>
      </trkpt>
      <trkpt lat="46.52999" lon="4.93316">
        <ele>189.8</ele>
        <time>2024-09-18T14:04:17Z</time>
      </trkpt>
      <trkpt lat="46.52994" lon="4.9332">
        <ele>189.8</ele>
        <time>2024-09-18T14:04:18Z</time>
      </trkpt>
      <trkpt lat="46.5299" lon="4.93324">
        <ele>189.8</ele>
        <time>2024-09-18T14:04:19Z</time>
      </trkpt>
      <trkpt lat="46.52986" lon="4.93328">
        <ele>189.4</ele>
        <time>2024-09-18T14:04:20Z</time>
      </trkpt>
      <trkpt lat="46.52981" lon="4.93332">
        <ele>189.4</ele>
        <time>2024-09-18T14:04:21Z</time>
      </trkpt>
      <trkpt lat="46.52977" lon="4.93336">
        <ele>189.4</ele>
        <time>2024-09-18T14:04:22Z</time>
      </trkpt>
      <trkpt lat="46.52973" lon="4.9334">
        <ele>189.2</ele>
        <time>2024-09-18T14:04:23Z</time>
      </trkpt>
      <trkpt lat="46.52969" lon="4.93344">
        <ele>189.4</ele>
        <time>2024-09-18T14:04:24Z</time>
      </trkpt>
      <trkpt lat="46.52965" lon="4.93348">
        <ele>189.4</ele>
        <time>2024-09-18T14:04:25Z</time>
      </trkpt>
      <trkpt lat="46.5296" lon="4.93352">
        <ele>189.4</ele>
        <time>2024-09-18T14:04:26Z</time>
      </trkpt>
      <trkpt lat="46.52956" lon="4.93357">
        <ele>189.4</ele>
        <time>2024-09-18T14:04:27Z</time>
      </trkpt>
      <trkpt lat="46.52952" lon="4.93361">
        <ele>189.4</ele>
        <time>2024-09-18T14:04:28Z</time>
      </trkpt>
      <trkpt lat="46.52948" lon="4.93365">
        <ele>189.6</ele>
        <time>2024-09-18T14:04:29Z</time>
      </trkpt>
      <trkpt lat="46.52944" lon="4.9337">
        <ele>189.6</ele>
        <time>2024-09-18T14:04:30Z</time>
      </trkpt>
      <trkpt lat="46.5294" lon="4.93374">
        <ele>189.6</ele>
        <time>2024-09-18T14:04:31Z</time>
      </trkpt>
      <trkpt lat="46.52936" lon="4.93378">
        <ele>189.2</ele>
        <time>2024-09-18T14:04:32Z</time>
      </trkpt>
      <trkpt lat="46.52932" lon="4.93382">
        <ele>189.4</ele>
        <time>2024-09-18T14:04:33Z</time>
      </trkpt>
      <trkpt lat="46.52927" lon="4.93386">
        <ele>189.4</ele>
        <time>2024-09-18T14:04:34Z</time>
      </trkpt>
      <trkpt lat="46.52923" lon="4.9339">
        <ele>189.4</ele>
        <time>2024-09-18T14:04:35Z</time>
      </trkpt>
      <trkpt lat="46.52919" lon="4.93394">
        <ele>189.2</ele>
        <time>2024-09-18T14:04:36Z</time>
      </trkpt>
      <trkpt lat="46.52914" lon="4.93397">
        <ele>189</ele>
        <time>2024-09-18T14:04:37Z</time>
      </trkpt>
      <trkpt lat="46.5291" lon="4.93401">
        <ele>189</ele>
        <time>2024-09-18T14:04:38Z</time>
      </trkpt>
      <trkpt lat="46.52905" lon="4.93404">
        <ele>189</ele>
        <time>2024-09-18T14:04:39Z</time>
      </trkpt>
      <trkpt lat="46.52901" lon="4.93407">
        <ele>189</ele>
        <time>2024-09-18T14:04:40Z</time>
      </trkpt>
      <trkpt lat="46.52897" lon="4.93411">
        <ele>189</ele>
        <time>2024-09-18T14:04:41Z</time>
      </trkpt>
      <trkpt lat="46.52893" lon="4.93414">
        <ele>188.8</ele>
        <time>2024-09-18T14:04:42Z</time>
      </trkpt>
      <trkpt lat="46.52888" lon="4.93417">
        <ele>188.8</ele>
        <time>2024-09-18T14:04:43Z</time>
      </trkpt>
      <trkpt lat="46.52884" lon="4.93421">
        <ele>188.8</ele>
        <time>2024-09-18T14:04:44Z</time>
      </trkpt>
      <trkpt lat="46.5288" lon="4.93426">
        <ele>188.8</ele>
        <time>2024-09-18T14:04:45Z</time>
      </trkpt>
      <trkpt lat="46.52873" lon="4.93431">
        <ele>188.4</ele>
        <time>2024-09-18T14:04:46Z</time>
      </trkpt>
      <trkpt lat="46.52871" lon="4.93432">
        <ele>188.4</ele>
        <time>2024-09-18T14:04:47Z</time>
      </trkpt>
      <trkpt lat="46.52865" lon="4.93437">
        <ele>188.4</ele>
        <time>2024-09-18T14:04:48Z</time>
      </trkpt>
      <trkpt lat="46.52863" lon="4.93438">
        <ele>188.6</ele>
        <time>2024-09-18T14:04:49Z</time>
      </trkpt>
      <trkpt lat="46.52856" lon="4.93444">
        <ele>189</ele>
        <time>2024-09-18T14:04:50Z</time>
      </trkpt>
      <trkpt lat="46.52854" lon="4.93446">
        <ele>189</ele>
        <time>2024-09-18T14:04:51Z</time>
      </trkpt>
      <trkpt lat="46.52849" lon="4.9345">
        <ele>189</ele>
        <time>2024-09-18T14:04:52Z</time>
      </trkpt>
      <trkpt lat="46.52845" lon="4.93454">
        <ele>188.6</ele>
        <time>2024-09-18T14:04:53Z</time>
      </trkpt>
      <trkpt lat="46.5284" lon="4.93457">
        <ele>188.6</ele>
        <time>2024-09-18T14:04:54Z</time>
      </trkpt>
      <trkpt lat="46.52836" lon="4.9346">
        <ele>188.8</ele>
        <time>2024-09-18T14:04:55Z</time>
      </trkpt>
      <trkpt lat="46.52831" lon="4.93463">
        <ele>188.8</ele>
        <time>2024-09-18T14:04:56Z</time>
      </trkpt>
      <trkpt lat="46.52827" lon="4.93466">
        <ele>188.8</ele>
        <time>2024-09-18T14:04:57Z</time>
      </trkpt>
      <trkpt lat="46.52822" lon="4.93469">
        <ele>188.8</ele>
        <time>2024-09-18T14:04:58Z</time>
      </trkpt>
      <trkpt lat="46.52818" lon="4.93472">
        <ele>189</ele>
        <time>2024-09-18T14:04:59Z</time>
      </trkpt>
      <trkpt lat="46.52813" lon="4.93475">
        <ele>188.8</ele>
        <time>2024-09-18T14:05:00Z</time>
      </trkpt>
      <trkpt lat="46.52808" lon="4.93477">
        <ele>188.8</ele>
        <time>2024-09-18T14:05:01Z</time>
      </trkpt>
      <trkpt lat="46.52804" lon="4.9348">
        <ele>188.8</ele>
        <time>2024-09-18T14:05:02Z</time>
      </trkpt>
      <trkpt lat="46.52799" lon="4.93483">
        <ele>188.8</ele>
        <time>2024-09-18T14:05:03Z</time>
      </trkpt>
      <trkpt lat="46.52795" lon="4.93486">
        <ele>189</ele>
        <time>2024-09-18T14:05:04Z</time>
      </trkpt>
      <trkpt lat="46.52789" lon="4.93491">
        <ele>189</ele>
        <time>2024-09-18T14:05:05Z</time>
      </trkpt>
      <trkpt lat="46.52787" lon="4.93493">
        <ele>189</ele>
        <time>2024-09-18T14:05:06Z</time>
      </trkpt>
      <trkpt lat="46.52784" lon="4.93497">
        <ele>189</ele>
        <time>2024-09-18T14:05:07Z</time>
      </trkpt>
      <trkpt lat="46.5278" lon="4.93501">
        <ele>189</ele>
        <time>2024-09-18T14:05:08Z</time>
      </trkpt>
      <trkpt lat="46.52775" lon="4.93505">
        <ele>188.8</ele>
        <time>2024-09-18T14:05:09Z</time>
      </trkpt>
      <trkpt lat="46.52771" lon="4.93509">
        <ele>188.8</ele>
        <time>2024-09-18T14:05:10Z</time>
      </trkpt>
      <trkpt lat="46.52766" lon="4.93512">
        <ele>188.8</ele>
        <time>2024-09-18T14:05:11Z</time>
      </trkpt>
      <trkpt lat="46.52762" lon="4.93515">
        <ele>188.6</ele>
        <time>2024-09-18T14:05:12Z</time>
      </trkpt>
      <trkpt lat="46.52757" lon="4.93517">
        <ele>188.4</ele>
        <time>2024-09-18T14:05:13Z</time>
      </trkpt>
      <trkpt lat="46.52752" lon="4.9352">
        <ele>188.4</ele>
        <time>2024-09-18T14:05:14Z</time>
      </trkpt>
      <trkpt lat="46.52747" lon="4.93523">
        <ele>188.4</ele>
        <time>2024-09-18T14:05:15Z</time>
      </trkpt>
      <trkpt lat="46.52742" lon="4.93526">
        <ele>188</ele>
        <time>2024-09-18T14:05:16Z</time>
      </trkpt>
      <trkpt lat="46.52738" lon="4.93528">
        <ele>187.6</ele>
        <time>2024-09-18T14:05:17Z</time>
      </trkpt>
      <trkpt lat="46.52732" lon="4.9353">
        <ele>187.6</ele>
        <time>2024-09-18T14:05:18Z</time>
      </trkpt>
      <trkpt lat="46.52728" lon="4.93532">
        <ele>187.6</ele>
        <time>2024-09-18T14:05:19Z</time>
      </trkpt>
      <trkpt lat="46.52723" lon="4.93535">
        <ele>187.6</ele>
        <time>2024-09-18T14:05:20Z</time>
      </trkpt>
      <trkpt lat="46.52718" lon="4.93537">
        <ele>187.6</ele>
        <time>2024-09-18T14:05:21Z</time>
      </trkpt>
      <trkpt lat="46.52713" lon="4.93539">
        <ele>187.6</ele>
        <time>2024-09-18T14:05:22Z</time>
      </trkpt>
      <trkpt lat="46.52708" lon="4.93541">
        <ele>187.6</ele>
        <time>2024-09-18T14:05:23Z</time>
      </trkpt>
      <trkpt lat="46.52703" lon="4.93543">
        <ele>187.6</ele>
        <time>2024-09-18T14:05:24Z</time>
      </trkpt>
      <trkpt lat="46.52698" lon="4.93545">
        <ele>187.6</ele>
        <time>2024-09-18T14:05:25Z</time>
      </trkpt>
      <trkpt lat="46.52693" lon="4.93547">
        <ele>187.4</ele>
        <time>2024-09-18T14:05:26Z</time>
      </trkpt>
      <trkpt lat="46.52688" lon="4.93549">
        <ele>187.4</ele>
        <time>2024-09-18T14:05:27Z</time>
      </trkpt>
      <trkpt lat="46.52684" lon="4.9355">
        <ele>187.4</ele>
        <time>2024-09-18T14:05:28Z</time>
      </trkpt>
      <trkpt lat="46.52679" lon="4.93552">
        <ele>187.4</ele>
        <time>2024-09-18T14:05:29Z</time>
      </trkpt>
      <trkpt lat="46.52675" lon="4.93554">
        <ele>187.4</ele>
        <time>2024-09-18T14:05:30Z</time>
      </trkpt>
      <trkpt lat="46.5267" lon="4.93556">
        <ele>187.4</ele>
        <time>2024-09-18T14:05:31Z</time>
      </trkpt>
      <trkpt lat="46.52663" lon="4.93559">
        <ele>187.4</ele>
        <time>2024-09-18T14:05:32Z</time>
      </trkpt>
      <trkpt lat="46.52661" lon="4.9356">
        <ele>187.4</ele>
        <time>2024-09-18T14:05:33Z</time>
      </trkpt>
      <trkpt lat="46.52656" lon="4.93562">
        <ele>187.4</ele>
        <time>2024-09-18T14:05:34Z</time>
      </trkpt>
      <trkpt lat="46.52651" lon="4.93564">
        <ele>187.6</ele>
        <time>2024-09-18T14:05:35Z</time>
      </trkpt>
      <trkpt lat="46.52644" lon="4.93568">
        <ele>187.6</ele>
        <time>2024-09-18T14:05:36Z</time>
      </trkpt>
      <trkpt lat="46.52641" lon="4.93569">
        <ele>187.6</ele>
        <time>2024-09-18T14:05:37Z</time>
      </trkpt>
      <trkpt lat="46.52636" lon="4.93571">
        <ele>186.8</ele>
        <time>2024-09-18T14:05:38Z</time>
      </trkpt>
      <trkpt lat="46.52631" lon="4.93574">
        <ele>186.8</ele>
        <time>2024-09-18T14:05:39Z</time>
      </trkpt>
      <trkpt lat="46.52627" lon="4.93576">
        <ele>186.8</ele>
        <time>2024-09-18T14:05:40Z</time>
      </trkpt>
      <trkpt lat="46.52622" lon="4.93578">
        <ele>186.8</ele>
        <time>2024-09-18T14:05:41Z</time>
      </trkpt>
      <trkpt lat="46.52614" lon="4.9358">
        <ele>186.8</ele>
        <time>2024-09-18T14:05:42Z</time>
      </trkpt>
      <trkpt lat="46.52612" lon="4.93581">
        <ele>187.2</ele>
        <time>2024-09-18T14:05:43Z</time>
      </trkpt>
      <trkpt lat="46.52607" lon="4.93583">
        <ele>187.4</ele>
        <time>2024-09-18T14:05:44Z</time>
      </trkpt>
      <trkpt lat="46.52602" lon="4.93584">
        <ele>187.4</ele>
        <time>2024-09-18T14:05:45Z</time>
      </trkpt>
      <trkpt lat="46.52597" lon="4.93586">
        <ele>187.4</ele>
        <time>2024-09-18T14:05:46Z</time>
      </trkpt>
      <trkpt lat="46.52592" lon="4.93587">
        <ele>187.4</ele>
        <time>2024-09-18T14:05:47Z</time>
      </trkpt>
      <trkpt lat="46.52588" lon="4.93589">
        <ele>187.6</ele>
        <time>2024-09-18T14:05:48Z</time>
      </trkpt>
      <trkpt lat="46.52583" lon="4.9359">
        <ele>187.4</ele>
        <time>2024-09-18T14:05:49Z</time>
      </trkpt>
      <trkpt lat="46.52578" lon="4.93592">
        <ele>187.4</ele>
        <time>2024-09-18T14:05:50Z</time>
      </trkpt>
      <trkpt lat="46.52574" lon="4.93593">
        <ele>187.4</ele>
        <time>2024-09-18T14:05:51Z</time>
      </trkpt>
      <trkpt lat="46.52569" lon="4.93595">
        <ele>187.4</ele>
        <time>2024-09-18T14:05:52Z</time>
      </trkpt>
      <trkpt lat="46.52564" lon="4.93595">
        <ele>187.4</ele>
        <time>2024-09-18T14:05:53Z</time>
      </trkpt>
      <trkpt lat="46.5256" lon="4.93596">
        <ele>187.6</ele>
        <time>2024-09-18T14:05:54Z</time>
      </trkpt>
      <trkpt lat="46.52555" lon="4.93596">
        <ele>187.6</ele>
        <time>2024-09-18T14:05:55Z</time>
      </trkpt>
      <trkpt lat="46.52551" lon="4.93596">
        <ele>187.6</ele>
        <time>2024-09-18T14:05:56Z</time>
      </trkpt>
      <trkpt lat="46.52546" lon="4.93596">
        <ele>188.2</ele>
        <time>2024-09-18T14:05:57Z</time>
      </trkpt>
      <trkpt lat="46.52542" lon="4.93596">
        <ele>188.2</ele>
        <time>2024-09-18T14:05:58Z</time>
      </trkpt>
      <trkpt lat="46.52538" lon="4.93596">
        <ele>188.2</ele>
        <time>2024-09-18T14:05:59Z</time>
      </trkpt>
      <trkpt lat="46.52534" lon="4.93596">
        <ele>188.2</ele>
        <time>2024-09-18T14:06:00Z</time>
      </trkpt>
      <trkpt lat="46.5253" lon="4.93597">
        <ele>188.2</ele>
        <time>2024-09-18T14:06:01Z</time>
      </trkpt>
      <trkpt lat="46.52525" lon="4.93598">
        <ele>188</ele>
        <time>2024-09-18T14:06:02Z</time>
      </trkpt>
      <trkpt lat="46.52521" lon="4.93599">
        <ele>188</ele>
        <time>2024-09-18T14:06:03Z</time>
      </trkpt>
      <trkpt lat="46.52517" lon="4.936">
        <ele>188</ele>
        <time>2024-09-18T14:06:04Z</time>
      </trkpt>
      <trkpt lat="46.52512" lon="4.93602">
        <ele>188</ele>
        <time>2024-09-18T14:06:05Z</time>
      </trkpt>
      <trkpt lat="46.52508" lon="4.93604">
        <ele>187.6</ele>
        <time>2024-09-18T14:06:06Z</time>
      </trkpt>
      <trkpt lat="46.52504" lon="4.93605">
        <ele>187.8</ele>
        <time>2024-09-18T14:06:07Z</time>
      </trkpt>
      <trkpt lat="46.52499" lon="4.93607">
        <ele>187.8</ele>
        <time>2024-09-18T14:06:08Z</time>
      </trkpt>
      <trkpt lat="46.52495" lon="4.93609">
        <ele>187.8</ele>
        <time>2024-09-18T14:06:09Z</time>
      </trkpt>
      <trkpt lat="46.52491" lon="4.93611">
        <ele>187.6</ele>
        <time>2024-09-18T14:06:10Z</time>
      </trkpt>
      <trkpt lat="46.52487" lon="4.93613">
        <ele>187.8</ele>
        <time>2024-09-18T14:06:11Z</time>
      </trkpt>
      <trkpt lat="46.52482" lon="4.93615">
        <ele>187.8</ele>
        <time>2024-09-18T14:06:12Z</time>
      </trkpt>
      <trkpt lat="46.52477" lon="4.93617">
        <ele>187.8</ele>
        <time>2024-09-18T14:06:13Z</time>
      </trkpt>
      <trkpt lat="46.52469" lon="4.93619">
        <ele>187.8</ele>
        <time>2024-09-18T14:06:14Z</time>
      </trkpt>
      <trkpt lat="46.52467" lon="4.93619">
        <ele>187.8</ele>
        <time>2024-09-18T14:06:15Z</time>
      </trkpt>
      <trkpt lat="46.52459" lon="4.93621">
        <ele>187.8</ele>
        <time>2024-09-18T14:06:16Z</time>
      </trkpt>
      <trkpt lat="46.52457" lon="4.93621">
        <ele>187.8</ele>
        <time>2024-09-18T14:06:17Z</time>
      </trkpt>
      <trkpt lat="46.52449" lon="4.93623">
        <ele>187.8</ele>
        <time>2024-09-18T14:06:18Z</time>
      </trkpt>
      <trkpt lat="46.52447" lon="4.93623">
        <ele>188.2</ele>
        <time>2024-09-18T14:06:19Z</time>
      </trkpt>
      <trkpt lat="46.52439" lon="4.93624">
        <ele>188.2</ele>
        <time>2024-09-18T14:06:20Z</time>
      </trkpt>
      <trkpt lat="46.52437" lon="4.93625">
        <ele>188.2</ele>
        <time>2024-09-18T14:06:21Z</time>
      </trkpt>
      <trkpt lat="46.52433" lon="4.93626">
        <ele>188.2</ele>
        <time>2024-09-18T14:06:22Z</time>
      </trkpt>
      <trkpt lat="46.52428" lon="4.93626">
        <ele>188.2</ele>
        <time>2024-09-18T14:06:23Z</time>
      </trkpt>
      <trkpt lat="46.52424" lon="4.93627">
        <ele>188</ele>
        <time>2024-09-18T14:06:24Z</time>
      </trkpt>
      <trkpt lat="46.5242" lon="4.93628">
        <ele>188</ele>
        <time>2024-09-18T14:06:25Z</time>
      </trkpt>
      <trkpt lat="46.52416" lon="4.93628">
        <ele>188</ele>
        <time>2024-09-18T14:06:26Z</time>
      </trkpt>
      <trkpt lat="46.52412" lon="4.93629">
        <ele>188</ele>
        <time>2024-09-18T14:06:27Z</time>
      </trkpt>
      <trkpt lat="46.52408" lon="4.9363">
        <ele>188</ele>
        <time>2024-09-18T14:06:28Z</time>
      </trkpt>
      <trkpt lat="46.52404" lon="4.9363">
        <ele>189</ele>
        <time>2024-09-18T14:06:29Z</time>
      </trkpt>
      <trkpt lat="46.524" lon="4.93631">
        <ele>189.2</ele>
        <time>2024-09-18T14:06:30Z</time>
      </trkpt>
      <trkpt lat="46.52396" lon="4.93632">
        <ele>189.2</ele>
        <time>2024-09-18T14:06:31Z</time>
      </trkpt>
      <trkpt lat="46.52391" lon="4.93633">
        <ele>189.2</ele>
        <time>2024-09-18T14:06:32Z</time>
      </trkpt>
      <trkpt lat="46.52387" lon="4.93634">
        <ele>189.2</ele>
        <time>2024-09-18T14:06:33Z</time>
      </trkpt>
      <trkpt lat="46.52383" lon="4.93636">
        <ele>189</ele>
        <time>2024-09-18T14:06:34Z</time>
      </trkpt>
      <trkpt lat="46.52379" lon="4.93637">
        <ele>189</ele>
        <time>2024-09-18T14:06:35Z</time>
      </trkpt>
      <trkpt lat="46.52374" lon="4.93638">
        <ele>189</ele>
        <time>2024-09-18T14:06:36Z</time>
      </trkpt>
      <trkpt lat="46.52369" lon="4.93639">
        <ele>189</ele>
        <time>2024-09-18T14:06:37Z</time>
      </trkpt>
      <trkpt lat="46.52365" lon="4.93641">
        <ele>189</ele>
        <time>2024-09-18T14:06:38Z</time>
      </trkpt>
      <trkpt lat="46.5236" lon="4.93643">
        <ele>189</ele>
        <time>2024-09-18T14:06:39Z</time>
      </trkpt>
      <trkpt lat="46.52356" lon="4.93646">
        <ele>189</ele>
        <time>2024-09-18T14:06:40Z</time>
      </trkpt>
      <trkpt lat="46.52352" lon="4.93649">
        <ele>189</ele>
        <time>2024-09-18T14:06:41Z</time>
      </trkpt>
      <trkpt lat="46.52348" lon="4.93652">
        <ele>188.8</ele>
        <time>2024-09-18T14:06:42Z</time>
      </trkpt>
      <trkpt lat="46.52344" lon="4.93655">
        <ele>188.6</ele>
        <time>2024-09-18T14:06:43Z</time>
      </trkpt>
      <trkpt lat="46.52339" lon="4.93658">
        <ele>188.6</ele>
        <time>2024-09-18T14:06:44Z</time>
      </trkpt>
      <trkpt lat="46.52335" lon="4.9366">
        <ele>188.6</ele>
        <time>2024-09-18T14:06:45Z</time>
      </trkpt>
      <trkpt lat="46.5233" lon="4.93662">
        <ele>188.2</ele>
        <time>2024-09-18T14:06:46Z</time>
      </trkpt>
      <trkpt lat="46.52326" lon="4.93664">
        <ele>188.2</ele>
        <time>2024-09-18T14:06:47Z</time>
      </trkpt>
      <trkpt lat="46.52321" lon="4.93666">
        <ele>187.8</ele>
        <time>2024-09-18T14:06:48Z</time>
      </trkpt>
      <trkpt lat="46.52317" lon="4.93667">
        <ele>187.8</ele>
        <time>2024-09-18T14:06:49Z</time>
      </trkpt>
      <trkpt lat="46.52313" lon="4.93668">
        <ele>187.8</ele>
        <time>2024-09-18T14:06:50Z</time>
      </trkpt>
      <trkpt lat="46.52309" lon="4.9367">
        <ele>188.6</ele>
        <time>2024-09-18T14:06:51Z</time>
      </trkpt>
      <trkpt lat="46.52304" lon="4.93671">
        <ele>188.8</ele>
        <time>2024-09-18T14:06:52Z</time>
      </trkpt>
      <trkpt lat="46.52299" lon="4.93672">
        <ele>188.8</ele>
        <time>2024-09-18T14:06:53Z</time>
      </trkpt>
      <trkpt lat="46.52295" lon="4.93673">
        <ele>188.8</ele>
        <time>2024-09-18T14:06:54Z</time>
      </trkpt>
      <trkpt lat="46.5229" lon="4.93674">
        <ele>188.8</ele>
        <time>2024-09-18T14:06:55Z</time>
      </trkpt>
      <trkpt lat="46.52285" lon="4.93675">
        <ele>188.8</ele>
        <time>2024-09-18T14:06:56Z</time>
      </trkpt>
      <trkpt lat="46.5228" lon="4.93676">
        <ele>188.8</ele>
        <time>2024-09-18T14:06:57Z</time>
      </trkpt>
      <trkpt lat="46.52276" lon="4.93677">
        <ele>188.8</ele>
        <time>2024-09-18T14:06:58Z</time>
      </trkpt>
      <trkpt lat="46.52271" lon="4.93678">
        <ele>188.8</ele>
        <time>2024-09-18T14:06:59Z</time>
      </trkpt>
      <trkpt lat="46.52266" lon="4.93679">
        <ele>188.2</ele>
        <time>2024-09-18T14:07:00Z</time>
      </trkpt>
      <trkpt lat="46.52261" lon="4.93681">
        <ele>188</ele>
        <time>2024-09-18T14:07:01Z</time>
      </trkpt>
      <trkpt lat="46.52257" lon="4.93682">
        <ele>188</ele>
        <time>2024-09-18T14:07:02Z</time>
      </trkpt>
      <trkpt lat="46.52252" lon="4.93683">
        <ele>188</ele>
        <time>2024-09-18T14:07:03Z</time>
      </trkpt>
      <trkpt lat="46.52248" lon="4.93685">
        <ele>188</ele>
        <time>2024-09-18T14:07:04Z</time>
      </trkpt>
      <trkpt lat="46.52243" lon="4.93685">
        <ele>188.8</ele>
        <time>2024-09-18T14:07:05Z</time>
      </trkpt>
      <trkpt lat="46.52239" lon="4.93686">
        <ele>188.8</ele>
        <time>2024-09-18T14:07:06Z</time>
      </trkpt>
      <trkpt lat="46.52234" lon="4.93687">
        <ele>188.8</ele>
        <time>2024-09-18T14:07:07Z</time>
      </trkpt>
      <trkpt lat="46.5223" lon="4.93687">
        <ele>188.4</ele>
        <time>2024-09-18T14:07:08Z</time>
      </trkpt>
      <trkpt lat="46.52226" lon="4.93688">
        <ele>188.4</ele>
        <time>2024-09-18T14:07:09Z</time>
      </trkpt>
      <trkpt lat="46.52219" lon="4.93689">
        <ele>187.8</ele>
        <time>2024-09-18T14:07:10Z</time>
      </trkpt>
      <trkpt lat="46.52217" lon="4.93689">
        <ele>187.8</ele>
        <time>2024-09-18T14:07:11Z</time>
      </trkpt>
      <trkpt lat="46.52213" lon="4.93689">
        <ele>187.8</ele>
        <time>2024-09-18T14:07:12Z</time>
      </trkpt>
      <trkpt lat="46.52208" lon="4.93689">
        <ele>187.8</ele>
        <time>2024-09-18T14:07:13Z</time>
      </trkpt>
      <trkpt lat="46.52204" lon="4.93689">
        <ele>187.8</ele>
        <time>2024-09-18T14:07:14Z</time>
      </trkpt>
      <trkpt lat="46.522" lon="4.93689">
        <ele>188.8</ele>
        <time>2024-09-18T14:07:15Z</time>
      </trkpt>
      <trkpt lat="46.52195" lon="4.93689">
        <ele>188.8</ele>
        <time>2024-09-18T14:07:16Z</time>
      </trkpt>
      <trkpt lat="46.52191" lon="4.93689">
        <ele>188.8</ele>
        <time>2024-09-18T14:07:17Z</time>
      </trkpt>
      <trkpt lat="46.52187" lon="4.93689">
        <ele>188.8</ele>
        <time>2024-09-18T14:07:18Z</time>
      </trkpt>
      <trkpt lat="46.52183" lon="4.93689">
        <ele>189</ele>
        <time>2024-09-18T14:07:19Z</time>
      </trkpt>
      <trkpt lat="46.52178" lon="4.93689">
        <ele>189</ele>
        <time>2024-09-18T14:07:20Z</time>
      </trkpt>
      <trkpt lat="46.52174" lon="4.9369">
        <ele>189</ele>
        <time>2024-09-18T14:07:21Z</time>
      </trkpt>
      <trkpt lat="46.52169" lon="4.9369">
        <ele>189</ele>
        <time>2024-09-18T14:07:22Z</time>
      </trkpt>
      <trkpt lat="46.52165" lon="4.9369">
        <ele>189.4</ele>
        <time>2024-09-18T14:07:23Z</time>
      </trkpt>
      <trkpt lat="46.5216" lon="4.9369">
        <ele>189.4</ele>
        <time>2024-09-18T14:07:24Z</time>
      </trkpt>
      <trkpt lat="46.52156" lon="4.93691">
        <ele>189.4</ele>
        <time>2024-09-18T14:07:25Z</time>
      </trkpt>
      <trkpt lat="46.52151" lon="4.93691">
        <ele>189.4</ele>
        <time>2024-09-18T14:07:26Z</time>
      </trkpt>
      <trkpt lat="46.52147" lon="4.93691">
        <ele>188.4</ele>
        <time>2024-09-18T14:07:27Z</time>
      </trkpt>
      <trkpt lat="46.52142" lon="4.93691">
        <ele>188.2</ele>
        <time>2024-09-18T14:07:28Z</time>
      </trkpt>
      <trkpt lat="46.52137" lon="4.93692">
        <ele>188.2</ele>
        <time>2024-09-18T14:07:29Z</time>
      </trkpt>
      <trkpt lat="46.52133" lon="4.93693">
        <ele>188.2</ele>
        <time>2024-09-18T14:07:30Z</time>
      </trkpt>
      <trkpt lat="46.52128" lon="4.93693">
        <ele>188.6</ele>
        <time>2024-09-18T14:07:31Z</time>
      </trkpt>
      <trkpt lat="46.52124" lon="4.93694">
        <ele>188.8</ele>
        <time>2024-09-18T14:07:32Z</time>
      </trkpt>
      <trkpt lat="46.5212" lon="4.93694">
        <ele>188.8</ele>
        <time>2024-09-18T14:07:33Z</time>
      </trkpt>
      <trkpt lat="46.52116" lon="4.93695">
        <ele>188.8</ele>
        <time>2024-09-18T14:07:34Z</time>
      </trkpt>
      <trkpt lat="46.52112" lon="4.93696">
        <ele>189.4</ele>
        <time>2024-09-18T14:07:35Z</time>
      </trkpt>
      <trkpt lat="46.52108" lon="4.93697">
        <ele>189.4</ele>
        <time>2024-09-18T14:07:36Z</time>
      </trkpt>
      <trkpt lat="46.52103" lon="4.93698">
        <ele>189.4</ele>
        <time>2024-09-18T14:07:37Z</time>
      </trkpt>
      <trkpt lat="46.52097" lon="4.93699">
        <ele>189.4</ele>
        <time>2024-09-18T14:07:38Z</time>
      </trkpt>
      <trkpt lat="46.52095" lon="4.93699">
        <ele>189.4</ele>
        <time>2024-09-18T14:07:39Z</time>
      </trkpt>
      <trkpt lat="46.52088" lon="4.937">
        <ele>189.4</ele>
        <time>2024-09-18T14:07:40Z</time>
      </trkpt>
      <trkpt lat="46.52086" lon="4.93701">
        <ele>189</ele>
        <time>2024-09-18T14:07:41Z</time>
      </trkpt>
      <trkpt lat="46.52079" lon="4.93702">
        <ele>189</ele>
        <time>2024-09-18T14:07:42Z</time>
      </trkpt>
      <trkpt lat="46.52077" lon="4.93702">
        <ele>189</ele>
        <time>2024-09-18T14:07:43Z</time>
      </trkpt>
      <trkpt lat="46.52072" lon="4.93703">
        <ele>188.4</ele>
        <time>2024-09-18T14:07:44Z</time>
      </trkpt>
      <trkpt lat="46.52068" lon="4.93704">
        <ele>188.4</ele>
        <time>2024-09-18T14:07:45Z</time>
      </trkpt>
      <trkpt lat="46.52063" lon="4.93705">
        <ele>188.4</ele>
        <time>2024-09-18T14:07:46Z</time>
      </trkpt>
      <trkpt lat="46.52059" lon="4.93705">
        <ele>188.4</ele>
        <time>2024-09-18T14:07:47Z</time>
      </trkpt>
      <trkpt lat="46.52054" lon="4.93706">
        <ele>188.4</ele>
        <time>2024-09-18T14:07:48Z</time>
      </trkpt>
      <trkpt lat="46.5205" lon="4.93706">
        <ele>189</ele>
        <time>2024-09-18T14:07:49Z</time>
      </trkpt>
      <trkpt lat="46.52045" lon="4.93706">
        <ele>189</ele>
        <time>2024-09-18T14:07:50Z</time>
      </trkpt>
      <trkpt lat="46.5204" lon="4.93706">
        <ele>189</ele>
        <time>2024-09-18T14:07:51Z</time>
      </trkpt>
      <trkpt lat="46.52035" lon="4.93706">
        <ele>189</ele>
        <time>2024-09-18T14:07:52Z</time>
      </trkpt>
      <trkpt lat="46.52031" lon="4.93706">
        <ele>189</ele>
        <time>2024-09-18T14:07:53Z</time>
      </trkpt>
      <trkpt lat="46.52027" lon="4.93706">
        <ele>188.8</ele>
        <time>2024-09-18T14:07:54Z</time>
      </trkpt>
      <trkpt lat="46.52023" lon="4.93705">
        <ele>188.8</ele>
        <time>2024-09-18T14:07:55Z</time>
      </trkpt>
      <trkpt lat="46.52018" lon="4.93705">
        <ele>188.8</ele>
        <time>2024-09-18T14:07:56Z</time>
      </trkpt>
      <trkpt lat="46.52014" lon="4.93705">
        <ele>188.8</ele>
        <time>2024-09-18T14:07:57Z</time>
      </trkpt>
      <trkpt lat="46.52011" lon="4.93705">
        <ele>189.4</ele>
        <time>2024-09-18T14:07:58Z</time>
      </trkpt>
      <trkpt lat="46.52007" lon="4.93705">
        <ele>188.4</ele>
        <time>2024-09-18T14:07:59Z</time>
      </trkpt>
      <trkpt lat="46.52002" lon="4.93704">
        <ele>188.4</ele>
        <time>2024-09-18T14:08:00Z</time>
      </trkpt>
      <trkpt lat="46.51998" lon="4.93702">
        <ele>188.4</ele>
        <time>2024-09-18T14:08:01Z</time>
      </trkpt>
      <trkpt lat="46.51994" lon="4.937">
        <ele>188.4</ele>
        <time>2024-09-18T14:08:02Z</time>
      </trkpt>
      <trkpt lat="46.51989" lon="4.93699">
        <ele>188.4</ele>
        <time>2024-09-18T14:08:03Z</time>
      </trkpt>
      <trkpt lat="46.51985" lon="4.93697">
        <ele>188.8</ele>
        <time>2024-09-18T14:08:04Z</time>
      </trkpt>
      <trkpt lat="46.5198" lon="4.93696">
        <ele>188.8</ele>
        <time>2024-09-18T14:08:05Z</time>
      </trkpt>
      <trkpt lat="46.51973" lon="4.93693">
        <ele>188.8</ele>
        <time>2024-09-18T14:08:06Z</time>
      </trkpt>
      <trkpt lat="46.5197" lon="4.93692">
        <ele>188.8</ele>
        <time>2024-09-18T14:08:07Z</time>
      </trkpt>
      <trkpt lat="46.51965" lon="4.93691">
        <ele>188.6</ele>
        <time>2024-09-18T14:08:08Z</time>
      </trkpt>
      <trkpt lat="46.5196" lon="4.93689">
        <ele>188.6</ele>
        <time>2024-09-18T14:08:09Z</time>
      </trkpt>
      <trkpt lat="46.51955" lon="4.93688">
        <ele>188.6</ele>
        <time>2024-09-18T14:08:10Z</time>
      </trkpt>
      <trkpt lat="46.51949" lon="4.93687">
        <ele>189.2</ele>
        <time>2024-09-18T14:08:11Z</time>
      </trkpt>
      <trkpt lat="46.51945" lon="4.93686">
        <ele>189.2</ele>
        <time>2024-09-18T14:08:12Z</time>
      </trkpt>
      <trkpt lat="46.5194" lon="4.93684">
        <ele>188.6</ele>
        <time>2024-09-18T14:08:13Z</time>
      </trkpt>
      <trkpt lat="46.51935" lon="4.93683">
        <ele>188.6</ele>
        <time>2024-09-18T14:08:14Z</time>
      </trkpt>
      <trkpt lat="46.51931" lon="4.93682">
        <ele>188.6</ele>
        <time>2024-09-18T14:08:15Z</time>
      </trkpt>
      <trkpt lat="46.51926" lon="4.93681">
        <ele>188.6</ele>
        <time>2024-09-18T14:08:16Z</time>
      </trkpt>
      <trkpt lat="46.51922" lon="4.9368">
        <ele>189</ele>
        <time>2024-09-18T14:08:17Z</time>
      </trkpt>
      <trkpt lat="46.51917" lon="4.93678">
        <ele>189</ele>
        <time>2024-09-18T14:08:18Z</time>
      </trkpt>
      <trkpt lat="46.51913" lon="4.93677">
        <ele>189</ele>
        <time>2024-09-18T14:08:19Z</time>
      </trkpt>
      <trkpt lat="46.51908" lon="4.93676">
        <ele>189</ele>
        <time>2024-09-18T14:08:20Z</time>
      </trkpt>
      <trkpt lat="46.51904" lon="4.93674">
        <ele>188.8</ele>
        <time>2024-09-18T14:08:21Z</time>
      </trkpt>
      <trkpt lat="46.51898" lon="4.93672">
        <ele>188.8</ele>
        <time>2024-09-18T14:08:22Z</time>
      </trkpt>
      <trkpt lat="46.51896" lon="4.93672">
        <ele>188.8</ele>
        <time>2024-09-18T14:08:23Z</time>
      </trkpt>
      <trkpt lat="46.51889" lon="4.93669">
        <ele>188.8</ele>
        <time>2024-09-18T14:08:24Z</time>
      </trkpt>
      <trkpt lat="46.51886" lon="4.93668">
        <ele>189.2</ele>
        <time>2024-09-18T14:08:25Z</time>
      </trkpt>
      <trkpt lat="46.51879" lon="4.93666">
        <ele>189.2</ele>
        <time>2024-09-18T14:08:26Z</time>
      </trkpt>
      <trkpt lat="46.51877" lon="4.93666">
        <ele>189.2</ele>
        <time>2024-09-18T14:08:27Z</time>
      </trkpt>
      <trkpt lat="46.51873" lon="4.93664">
        <ele>189.2</ele>
        <time>2024-09-18T14:08:28Z</time>
      </trkpt>
      <trkpt lat="46.51869" lon="4.93662">
        <ele>189.8</ele>
        <time>2024-09-18T14:08:29Z</time>
      </trkpt>
      <trkpt lat="46.51864" lon="4.9366">
        <ele>189.6</ele>
        <time>2024-09-18T14:08:30Z</time>
      </trkpt>
      <trkpt lat="46.5186" lon="4.93659">
        <ele>189.6</ele>
        <time>2024-09-18T14:08:31Z</time>
      </trkpt>
      <trkpt lat="46.51855" lon="4.93658">
        <ele>189.6</ele>
        <time>2024-09-18T14:08:32Z</time>
      </trkpt>
      <trkpt lat="46.51851" lon="4.93656">
        <ele>189.6</ele>
        <time>2024-09-18T14:08:33Z</time>
      </trkpt>
      <trkpt lat="46.51846" lon="4.93655">
        <ele>189</ele>
        <time>2024-09-18T14:08:34Z</time>
      </trkpt>
      <trkpt lat="46.51842" lon="4.93653">
        <ele>188.8</ele>
        <time>2024-09-18T14:08:35Z</time>
      </trkpt>
      <trkpt lat="46.51837" lon="4.93651">
        <ele>188.8</ele>
        <time>2024-09-18T14:08:36Z</time>
      </trkpt>
      <trkpt lat="46.5183" lon="4.93649">
        <ele>188.8</ele>
        <time>2024-09-18T14:08:37Z</time>
      </trkpt>
      <trkpt lat="46.51828" lon="4.93648">
        <ele>189.2</ele>
        <time>2024-09-18T14:08:38Z</time>
      </trkpt>
      <trkpt lat="46.51824" lon="4.93647">
        <ele>189.2</ele>
        <time>2024-09-18T14:08:39Z</time>
      </trkpt>
      <trkpt lat="46.51819" lon="4.93646">
        <ele>188.8</ele>
        <time>2024-09-18T14:08:40Z</time>
      </trkpt>
      <trkpt lat="46.51815" lon="4.93644">
        <ele>188.8</ele>
        <time>2024-09-18T14:08:41Z</time>
      </trkpt>
      <trkpt lat="46.51811" lon="4.93642">
        <ele>188.8</ele>
        <time>2024-09-18T14:08:42Z</time>
      </trkpt>
      <trkpt lat="46.51806" lon="4.9364">
        <ele>188.8</ele>
        <time>2024-09-18T14:08:43Z</time>
      </trkpt>
      <trkpt lat="46.51802" lon="4.93639">
        <ele>189.2</ele>
        <time>2024-09-18T14:08:44Z</time>
      </trkpt>
      <trkpt lat="46.51798" lon="4.93637">
        <ele>189.2</ele>
        <time>2024-09-18T14:08:45Z</time>
      </trkpt>
      <trkpt lat="46.51793" lon="4.93635">
        <ele>189.2</ele>
        <time>2024-09-18T14:08:46Z</time>
      </trkpt>
      <trkpt lat="46.51789" lon="4.93634">
        <ele>188.6</ele>
        <time>2024-09-18T14:08:47Z</time>
      </trkpt>
      <trkpt lat="46.51785" lon="4.93632">
        <ele>188.8</ele>
        <time>2024-09-18T14:08:48Z</time>
      </trkpt>
      <trkpt lat="46.51781" lon="4.9363">
        <ele>188.8</ele>
        <time>2024-09-18T14:08:49Z</time>
      </trkpt>
      <trkpt lat="46.51775" lon="4.93627">
        <ele>188.8</ele>
        <time>2024-09-18T14:08:50Z</time>
      </trkpt>
      <trkpt lat="46.51773" lon="4.93626">
        <ele>188.8</ele>
        <time>2024-09-18T14:08:51Z</time>
      </trkpt>
      <trkpt lat="46.51769" lon="4.93624">
        <ele>189.2</ele>
        <time>2024-09-18T14:08:52Z</time>
      </trkpt>
      <trkpt lat="46.51765" lon="4.93621">
        <ele>189.6</ele>
        <time>2024-09-18T14:08:53Z</time>
      </trkpt>
      <trkpt lat="46.51761" lon="4.93618">
        <ele>189.6</ele>
        <time>2024-09-18T14:08:54Z</time>
      </trkpt>
      <trkpt lat="46.51756" lon="4.93616">
        <ele>189.6</ele>
        <time>2024-09-18T14:08:55Z</time>
      </trkpt>
      <trkpt lat="46.51752" lon="4.93614">
        <ele>188.6</ele>
        <time>2024-09-18T14:08:56Z</time>
      </trkpt>
      <trkpt lat="46.51747" lon="4.93611">
        <ele>189</ele>
        <time>2024-09-18T14:08:57Z</time>
      </trkpt>
      <trkpt lat="46.51743" lon="4.93608">
        <ele>189</ele>
        <time>2024-09-18T14:08:58Z</time>
      </trkpt>
      <trkpt lat="46.51738" lon="4.93606">
        <ele>189</ele>
        <time>2024-09-18T14:08:59Z</time>
      </trkpt>
      <trkpt lat="46.51733" lon="4.93604">
        <ele>189</ele>
        <time>2024-09-18T14:09:00Z</time>
      </trkpt>
      <trkpt lat="46.51729" lon="4.93601">
        <ele>189</ele>
        <time>2024-09-18T14:09:01Z</time>
      </trkpt>
      <trkpt lat="46.51724" lon="4.93598">
        <ele>189.4</ele>
        <time>2024-09-18T14:09:02Z</time>
      </trkpt>
      <trkpt lat="46.51717" lon="4.93594">
        <ele>189.4</ele>
        <time>2024-09-18T14:09:03Z</time>
      </trkpt>
      <trkpt lat="46.51715" lon="4.93593">
        <ele>189.4</ele>
        <time>2024-09-18T14:09:04Z</time>
      </trkpt>
      <trkpt lat="46.51709" lon="4.93589">
        <ele>188.8</ele>
        <time>2024-09-18T14:09:05Z</time>
      </trkpt>
      <trkpt lat="46.51706" lon="4.93588">
        <ele>188.4</ele>
        <time>2024-09-18T14:09:06Z</time>
      </trkpt>
      <trkpt lat="46.517" lon="4.93583">
        <ele>188.4</ele>
        <time>2024-09-18T14:09:07Z</time>
      </trkpt>
      <trkpt lat="46.51698" lon="4.93582">
        <ele>188.4</ele>
        <time>2024-09-18T14:09:08Z</time>
      </trkpt>
      <trkpt lat="46.51694" lon="4.93579">
        <ele>188.4</ele>
        <time>2024-09-18T14:09:09Z</time>
      </trkpt>
      <trkpt lat="46.51689" lon="4.93576">
        <ele>188.6</ele>
        <time>2024-09-18T14:09:10Z</time>
      </trkpt>
      <trkpt lat="46.51685" lon="4.93574">
        <ele>188.6</ele>
        <time>2024-09-18T14:09:11Z</time>
      </trkpt>
      <trkpt lat="46.51681" lon="4.93571">
        <ele>188.6</ele>
        <time>2024-09-18T14:09:12Z</time>
      </trkpt>
      <trkpt lat="46.51676" lon="4.93569">
        <ele>188.6</ele>
        <time>2024-09-18T14:09:13Z</time>
      </trkpt>
      <trkpt lat="46.51672" lon="4.93566">
        <ele>188.6</ele>
        <time>2024-09-18T14:09:14Z</time>
      </trkpt>
      <trkpt lat="46.51667" lon="4.93563">
        <ele>189.2</ele>
        <time>2024-09-18T14:09:15Z</time>
      </trkpt>
      <trkpt lat="46.51663" lon="4.9356">
        <ele>189.2</ele>
        <time>2024-09-18T14:09:16Z</time>
      </trkpt>
      <trkpt lat="46.51658" lon="4.93557">
        <ele>189.2</ele>
        <time>2024-09-18T14:09:17Z</time>
      </trkpt>
      <trkpt lat="46.51654" lon="4.93554">
        <ele>189.2</ele>
        <time>2024-09-18T14:09:18Z</time>
      </trkpt>
      <trkpt lat="46.51649" lon="4.93551">
        <ele>189.2</ele>
        <time>2024-09-18T14:09:19Z</time>
      </trkpt>
      <trkpt lat="46.51645" lon="4.93547">
        <ele>188.6</ele>
        <time>2024-09-18T14:09:20Z</time>
      </trkpt>
      <trkpt lat="46.51641" lon="4.93544">
        <ele>188.6</ele>
        <time>2024-09-18T14:09:21Z</time>
      </trkpt>
      <trkpt lat="46.51637" lon="4.93541">
        <ele>188.6</ele>
        <time>2024-09-18T14:09:22Z</time>
      </trkpt>
      <trkpt lat="46.51633" lon="4.93538">
        <ele>188.6</ele>
        <time>2024-09-18T14:09:23Z</time>
      </trkpt>
      <trkpt lat="46.51629" lon="4.93534">
        <ele>189.4</ele>
        <time>2024-09-18T14:09:24Z</time>
      </trkpt>
      <trkpt lat="46.51625" lon="4.93531">
        <ele>189.4</ele>
        <time>2024-09-18T14:09:25Z</time>
      </trkpt>
      <trkpt lat="46.5162" lon="4.93527">
        <ele>189.4</ele>
        <time>2024-09-18T14:09:26Z</time>
      </trkpt>
      <trkpt lat="46.51616" lon="4.93524">
        <ele>189.4</ele>
        <time>2024-09-18T14:09:27Z</time>
      </trkpt>
      <trkpt lat="46.51612" lon="4.9352">
        <ele>189.4</ele>
        <time>2024-09-18T14:09:28Z</time>
      </trkpt>
      <trkpt lat="46.51608" lon="4.93517">
        <ele>188.6</ele>
        <time>2024-09-18T14:09:29Z</time>
      </trkpt>
      <trkpt lat="46.51604" lon="4.93513">
        <ele>188.6</ele>
        <time>2024-09-18T14:09:30Z</time>
      </trkpt>
      <trkpt lat="46.516" lon="4.93509">
        <ele>188.6</ele>
        <time>2024-09-18T14:09:31Z</time>
      </trkpt>
      <trkpt lat="46.51596" lon="4.93505">
        <ele>188.6</ele>
        <time>2024-09-18T14:09:32Z</time>
      </trkpt>
      <trkpt lat="46.51591" lon="4.93501">
        <ele>189.2</ele>
        <time>2024-09-18T14:09:33Z</time>
      </trkpt>
      <trkpt lat="46.51587" lon="4.93498">
        <ele>189.2</ele>
        <time>2024-09-18T14:09:34Z</time>
      </trkpt>
      <trkpt lat="46.51583" lon="4.93494">
        <ele>189.2</ele>
        <time>2024-09-18T14:09:35Z</time>
      </trkpt>
      <trkpt lat="46.51579" lon="4.9349">
        <ele>189.2</ele>
        <time>2024-09-18T14:09:36Z</time>
      </trkpt>
      <trkpt lat="46.51575" lon="4.93487">
        <ele>189.2</ele>
        <time>2024-09-18T14:09:37Z</time>
      </trkpt>
      <trkpt lat="46.51571" lon="4.93483">
        <ele>188.4</ele>
        <time>2024-09-18T14:09:38Z</time>
      </trkpt>
      <trkpt lat="46.51567" lon="4.93479">
        <ele>188.4</ele>
        <time>2024-09-18T14:09:39Z</time>
      </trkpt>
      <trkpt lat="46.51563" lon="4.93476">
        <ele>188.4</ele>
        <time>2024-09-18T14:09:40Z</time>
      </trkpt>
      <trkpt lat="46.51559" lon="4.93472">
        <ele>188.6</ele>
        <time>2024-09-18T14:09:41Z</time>
      </trkpt>
      <trkpt lat="46.51556" lon="4.93468">
        <ele>188.8</ele>
        <time>2024-09-18T14:09:42Z</time>
      </trkpt>
      <trkpt lat="46.51552" lon="4.93463">
        <ele>188.8</ele>
        <time>2024-09-18T14:09:43Z</time>
      </trkpt>
      <trkpt lat="46.51548" lon="4.93459">
        <ele>188.8</ele>
        <time>2024-09-18T14:09:44Z</time>
      </trkpt>
      <trkpt lat="46.51544" lon="4.93455">
        <ele>188.8</ele>
        <time>2024-09-18T14:09:45Z</time>
      </trkpt>
      <trkpt lat="46.51539" lon="4.93448">
        <ele>189</ele>
        <time>2024-09-18T14:09:46Z</time>
      </trkpt>
      <trkpt lat="46.51537" lon="4.93446">
        <ele>189</ele>
        <time>2024-09-18T14:09:47Z</time>
      </trkpt>
      <trkpt lat="46.51532" lon="4.9344">
        <ele>189</ele>
        <time>2024-09-18T14:09:48Z</time>
      </trkpt>
      <trkpt lat="46.5153" lon="4.93438">
        <ele>189</ele>
        <time>2024-09-18T14:09:49Z</time>
      </trkpt>
      <trkpt lat="46.51525" lon="4.93432">
        <ele>189</ele>
        <time>2024-09-18T14:09:50Z</time>
      </trkpt>
      <trkpt lat="46.51523" lon="4.9343">
        <ele>189.2</ele>
        <time>2024-09-18T14:09:51Z</time>
      </trkpt>
      <trkpt lat="46.51519" lon="4.93425">
        <ele>189.2</ele>
        <time>2024-09-18T14:09:52Z</time>
      </trkpt>
      <trkpt lat="46.51515" lon="4.93421">
        <ele>189.2</ele>
        <time>2024-09-18T14:09:53Z</time>
      </trkpt>
      <trkpt lat="46.51511" lon="4.93416">
        <ele>189</ele>
        <time>2024-09-18T14:09:54Z</time>
      </trkpt>
      <trkpt lat="46.51508" lon="4.93412">
        <ele>185.8</ele>
        <time>2024-09-18T14:09:55Z</time>
      </trkpt>
      <trkpt lat="46.51502" lon="4.93405">
        <ele>185.8</ele>
        <time>2024-09-18T14:09:56Z</time>
      </trkpt>
      <trkpt lat="46.515" lon="4.93403">
        <ele>185.8</ele>
        <time>2024-09-18T14:09:57Z</time>
      </trkpt>
      <trkpt lat="46.51496" lon="4.93398">
        <ele>185.8</ele>
        <time>2024-09-18T14:09:58Z</time>
      </trkpt>
      <trkpt lat="46.51491" lon="4.93393">
        <ele>185.8</ele>
        <time>2024-09-18T14:09:59Z</time>
      </trkpt>
      <trkpt lat="46.51489" lon="4.93391">
        <ele>185.8</ele>
        <time>2024-09-18T14:10:00Z</time>
      </trkpt>
      <trkpt lat="46.51485" lon="4.93388">
        <ele>192.6</ele>
        <time>2024-09-18T14:10:01Z</time>
      </trkpt>
      <trkpt lat="46.51481" lon="4.93384">
        <ele>192.6</ele>
        <time>2024-09-18T14:10:02Z</time>
      </trkpt>
      <trkpt lat="46.51476" lon="4.9338">
        <ele>192.6</ele>
        <time>2024-09-18T14:10:03Z</time>
      </trkpt>
      <trkpt lat="46.51472" lon="4.93376">
        <ele>191.6</ele>
        <time>2024-09-18T14:10:04Z</time>
      </trkpt>
      <trkpt lat="46.51467" lon="4.93371">
        <ele>189.2</ele>
        <time>2024-09-18T14:10:05Z</time>
      </trkpt>
      <trkpt lat="46.51463" lon="4.93367">
        <ele>189.2</ele>
        <time>2024-09-18T14:10:06Z</time>
      </trkpt>
      <trkpt lat="46.51459" lon="4.93362">
        <ele>189.2</ele>
        <time>2024-09-18T14:10:07Z</time>
      </trkpt>
      <trkpt lat="46.51454" lon="4.93358">
        <ele>189.2</ele>
        <time>2024-09-18T14:10:08Z</time>
      </trkpt>
      <trkpt lat="46.5145" lon="4.93353">
        <ele>188.6</ele>
        <time>2024-09-18T14:10:09Z</time>
      </trkpt>
      <trkpt lat="46.51444" lon="4.93346">
        <ele>188.4</ele>
        <time>2024-09-18T14:10:10Z</time>
      </trkpt>
      <trkpt lat="46.51442" lon="4.93344">
        <ele>188.4</ele>
        <time>2024-09-18T14:10:11Z</time>
      </trkpt>
      <trkpt lat="46.51439" lon="4.93339">
        <ele>188.4</ele>
        <time>2024-09-18T14:10:12Z</time>
      </trkpt>
      <trkpt lat="46.51435" lon="4.93334">
        <ele>188.4</ele>
        <time>2024-09-18T14:10:13Z</time>
      </trkpt>
      <trkpt lat="46.51431" lon="4.9333">
        <ele>190</ele>
        <time>2024-09-18T14:10:14Z</time>
      </trkpt>
      <trkpt lat="46.51427" lon="4.93326">
        <ele>190</ele>
        <time>2024-09-18T14:10:15Z</time>
      </trkpt>
      <trkpt lat="46.51423" lon="4.93321">
        <ele>190</ele>
        <time>2024-09-18T14:10:16Z</time>
      </trkpt>
      <trkpt lat="46.51419" lon="4.93317">
        <ele>189.6</ele>
        <time>2024-09-18T14:10:17Z</time>
      </trkpt>
      <trkpt lat="46.51415" lon="4.93312">
        <ele>189.6</ele>
        <time>2024-09-18T14:10:18Z</time>
      </trkpt>
      <trkpt lat="46.51411" lon="4.93308">
        <ele>189.6</ele>
        <time>2024-09-18T14:10:19Z</time>
      </trkpt>
      <trkpt lat="46.51407" lon="4.93304">
        <ele>189.6</ele>
        <time>2024-09-18T14:10:20Z</time>
      </trkpt>
      <trkpt lat="46.51403" lon="4.933">
        <ele>189.6</ele>
        <time>2024-09-18T14:10:21Z</time>
      </trkpt>
      <trkpt lat="46.51399" lon="4.93296">
        <ele>189.8</ele>
        <time>2024-09-18T14:10:22Z</time>
      </trkpt>
      <trkpt lat="46.51396" lon="4.93293">
        <ele>189.6</ele>
        <time>2024-09-18T14:10:23Z</time>
      </trkpt>
      <trkpt lat="46.51392" lon="4.93289">
        <ele>189.6</ele>
        <time>2024-09-18T14:10:24Z</time>
      </trkpt>
      <trkpt lat="46.51388" lon="4.93285">
        <ele>189.6</ele>
        <time>2024-09-18T14:10:25Z</time>
      </trkpt>
      <trkpt lat="46.51384" lon="4.93281">
        <ele>189.6</ele>
        <time>2024-09-18T14:10:26Z</time>
      </trkpt>
      <trkpt lat="46.51381" lon="4.93277">
        <ele>190</ele>
        <time>2024-09-18T14:10:27Z</time>
      </trkpt>
      <trkpt lat="46.51375" lon="4.93271">
        <ele>190</ele>
        <time>2024-09-18T14:10:28Z</time>
      </trkpt>
      <trkpt lat="46.51373" lon="4.93269">
        <ele>190</ele>
        <time>2024-09-18T14:10:29Z</time>
      </trkpt>
      <trkpt lat="46.51367" lon="4.93263">
        <ele>190</ele>
        <time>2024-09-18T14:10:30Z</time>
      </trkpt>
      <trkpt lat="46.51365" lon="4.93261">
        <ele>189.8</ele>
        <time>2024-09-18T14:10:31Z</time>
      </trkpt>
      <trkpt lat="46.51359" lon="4.93255">
        <ele>189.8</ele>
        <time>2024-09-18T14:10:32Z</time>
      </trkpt>
      <trkpt lat="46.51357" lon="4.93253">
        <ele>189.8</ele>
        <time>2024-09-18T14:10:33Z</time>
      </trkpt>
      <trkpt lat="46.51353" lon="4.93249">
        <ele>189.8</ele>
        <time>2024-09-18T14:10:34Z</time>
      </trkpt>
      <trkpt lat="46.5135" lon="4.93245">
        <ele>189.8</ele>
        <time>2024-09-18T14:10:35Z</time>
      </trkpt>
      <trkpt lat="46.51345" lon="4.93241">
        <ele>189.8</ele>
        <time>2024-09-18T14:10:36Z</time>
      </trkpt>
      <trkpt lat="46.51341" lon="4.93237">
        <ele>189.4</ele>
        <time>2024-09-18T14:10:37Z</time>
      </trkpt>
      <trkpt lat="46.51337" lon="4.93233">
        <ele>189.4</ele>
        <time>2024-09-18T14:10:38Z</time>
      </trkpt>
      <trkpt lat="46.51333" lon="4.9323">
        <ele>189.4</ele>
        <time>2024-09-18T14:10:39Z</time>
      </trkpt>
      <trkpt lat="46.51329" lon="4.93226">
        <ele>189.8</ele>
        <time>2024-09-18T14:10:40Z</time>
      </trkpt>
      <trkpt lat="46.51325" lon="4.93222">
        <ele>189.8</ele>
        <time>2024-09-18T14:10:41Z</time>
      </trkpt>
      <trkpt lat="46.51321" lon="4.93218">
        <ele>189.8</ele>
        <time>2024-09-18T14:10:42Z</time>
      </trkpt>
      <trkpt lat="46.51316" lon="4.93214">
        <ele>189.8</ele>
        <time>2024-09-18T14:10:43Z</time>
      </trkpt>
      <trkpt lat="46.51312" lon="4.93211">
        <ele>189.8</ele>
        <time>2024-09-18T14:10:44Z</time>
      </trkpt>
      <trkpt lat="46.51308" lon="4.93207">
        <ele>189.8</ele>
        <time>2024-09-18T14:10:45Z</time>
      </trkpt>
      <trkpt lat="46.51304" lon="4.93203">
        <ele>189.8</ele>
        <time>2024-09-18T14:10:46Z</time>
      </trkpt>
      <trkpt lat="46.513" lon="4.932">
        <ele>189.8</ele>
        <time>2024-09-18T14:10:47Z</time>
      </trkpt>
      <trkpt lat="46.51296" lon="4.93197">
        <ele>189.8</ele>
        <time>2024-09-18T14:10:48Z</time>
      </trkpt>
      <trkpt lat="46.51292" lon="4.93193">
        <ele>190</ele>
        <time>2024-09-18T14:10:49Z</time>
      </trkpt>
      <trkpt lat="46.51288" lon="4.93189">
        <ele>190</ele>
        <time>2024-09-18T14:10:50Z</time>
      </trkpt>
      <trkpt lat="46.51284" lon="4.93185">
        <ele>190</ele>
        <time>2024-09-18T14:10:51Z</time>
      </trkpt>
      <trkpt lat="46.5128" lon="4.93182">
        <ele>190</ele>
        <time>2024-09-18T14:10:52Z</time>
      </trkpt>
      <trkpt lat="46.51276" lon="4.93178">
        <ele>190</ele>
        <time>2024-09-18T14:10:53Z</time>
      </trkpt>
      <trkpt lat="46.51272" lon="4.93174">
        <ele>190</ele>
        <time>2024-09-18T14:10:54Z</time>
      </trkpt>
      <trkpt lat="46.51266" lon="4.93169">
        <ele>190</ele>
        <time>2024-09-18T14:10:55Z</time>
      </trkpt>
      <trkpt lat="46.51264" lon="4.93167">
        <ele>190</ele>
        <time>2024-09-18T14:10:56Z</time>
      </trkpt>
      <trkpt lat="46.5126" lon="4.93163">
        <ele>190</ele>
        <time>2024-09-18T14:10:57Z</time>
      </trkpt>
      <trkpt lat="46.51256" lon="4.93159">
        <ele>190</ele>
        <time>2024-09-18T14:10:58Z</time>
      </trkpt>
      <trkpt lat="46.51252" lon="4.93156">
        <ele>190</ele>
        <time>2024-09-18T14:10:59Z</time>
      </trkpt>
      <trkpt lat="46.51248" lon="4.93152">
        <ele>190</ele>
        <time>2024-09-18T14:11:00Z</time>
      </trkpt>
      <trkpt lat="46.51244" lon="4.93147">
        <ele>190</ele>
        <time>2024-09-18T14:11:01Z</time>
      </trkpt>
      <trkpt lat="46.5124" lon="4.93143">
        <ele>190</ele>
        <time>2024-09-18T14:11:02Z</time>
      </trkpt>
      <trkpt lat="46.51236" lon="4.93139">
        <ele>189.6</ele>
        <time>2024-09-18T14:11:03Z</time>
      </trkpt>
      <trkpt lat="46.5123" lon="4.93133">
        <ele>189.6</ele>
        <time>2024-09-18T14:11:04Z</time>
      </trkpt>
      <trkpt lat="46.51228" lon="4.9313">
        <ele>189.6</ele>
        <time>2024-09-18T14:11:05Z</time>
      </trkpt>
      <trkpt lat="46.51222" lon="4.93124">
        <ele>189.6</ele>
        <time>2024-09-18T14:11:06Z</time>
      </trkpt>
      <trkpt lat="46.5122" lon="4.93122">
        <ele>190</ele>
        <time>2024-09-18T14:11:07Z</time>
      </trkpt>
      <trkpt lat="46.51214" lon="4.93116">
        <ele>189.8</ele>
        <time>2024-09-18T14:11:08Z</time>
      </trkpt>
      <trkpt lat="46.51212" lon="4.93114">
        <ele>189.8</ele>
        <time>2024-09-18T14:11:09Z</time>
      </trkpt>
      <trkpt lat="46.51206" lon="4.93108">
        <ele>189.8</ele>
        <time>2024-09-18T14:11:10Z</time>
      </trkpt>
      <trkpt lat="46.51204" lon="4.93107">
        <ele>189.8</ele>
        <time>2024-09-18T14:11:11Z</time>
      </trkpt>
      <trkpt lat="46.51197" lon="4.93101">
        <ele>189.8</ele>
        <time>2024-09-18T14:11:12Z</time>
      </trkpt>
      <trkpt lat="46.51195" lon="4.93099">
        <ele>189.8</ele>
        <time>2024-09-18T14:11:13Z</time>
      </trkpt>
      <trkpt lat="46.51188" lon="4.93094">
        <ele>189.8</ele>
        <time>2024-09-18T14:11:14Z</time>
      </trkpt>
      <trkpt lat="46.51186" lon="4.93092">
        <ele>189.8</ele>
        <time>2024-09-18T14:11:15Z</time>
      </trkpt>
      <trkpt lat="46.51181" lon="4.93089">
        <ele>189.6</ele>
        <time>2024-09-18T14:11:16Z</time>
      </trkpt>
      <trkpt lat="46.51177" lon="4.93085">
        <ele>189.6</ele>
        <time>2024-09-18T14:11:17Z</time>
      </trkpt>
      <trkpt lat="46.5117" lon="4.93081">
        <ele>189.8</ele>
        <time>2024-09-18T14:11:18Z</time>
      </trkpt>
      <trkpt lat="46.51168" lon="4.93079">
        <ele>189.8</ele>
        <time>2024-09-18T14:11:19Z</time>
      </trkpt>
      <trkpt lat="46.51163" lon="4.93076">
        <ele>189.8</ele>
        <time>2024-09-18T14:11:20Z</time>
      </trkpt>
      <trkpt lat="46.51159" lon="4.93073">
        <ele>189.6</ele>
        <time>2024-09-18T14:11:21Z</time>
      </trkpt>
      <trkpt lat="46.51154" lon="4.93069">
        <ele>189.4</ele>
        <time>2024-09-18T14:11:22Z</time>
      </trkpt>
      <trkpt lat="46.5115" lon="4.93065">
        <ele>189.4</ele>
        <time>2024-09-18T14:11:23Z</time>
      </trkpt>
      <trkpt lat="46.51146" lon="4.93061">
        <ele>189.4</ele>
        <time>2024-09-18T14:11:24Z</time>
      </trkpt>
      <trkpt lat="46.51142" lon="4.93058">
        <ele>189.6</ele>
        <time>2024-09-18T14:11:25Z</time>
      </trkpt>
      <trkpt lat="46.51138" lon="4.93054">
        <ele>189.6</ele>
        <time>2024-09-18T14:11:26Z</time>
      </trkpt>
      <trkpt lat="46.51134" lon="4.9305">
        <ele>189.6</ele>
        <time>2024-09-18T14:11:27Z</time>
      </trkpt>
      <trkpt lat="46.51129" lon="4.93047">
        <ele>189.6</ele>
        <time>2024-09-18T14:11:28Z</time>
      </trkpt>
      <trkpt lat="46.51125" lon="4.93043">
        <ele>189.6</ele>
        <time>2024-09-18T14:11:29Z</time>
      </trkpt>
      <trkpt lat="46.51121" lon="4.93039">
        <ele>189.6</ele>
        <time>2024-09-18T14:11:30Z</time>
      </trkpt>
      <trkpt lat="46.51116" lon="4.93036">
        <ele>189.8</ele>
        <time>2024-09-18T14:11:31Z</time>
      </trkpt>
      <trkpt lat="46.51112" lon="4.93032">
        <ele>189.8</ele>
        <time>2024-09-18T14:11:32Z</time>
      </trkpt>
      <trkpt lat="46.51108" lon="4.93029">
        <ele>189.8</ele>
        <time>2024-09-18T14:11:33Z</time>
      </trkpt>
      <trkpt lat="46.51103" lon="4.93025">
        <ele>189.8</ele>
        <time>2024-09-18T14:11:34Z</time>
      </trkpt>
      <trkpt lat="46.51099" lon="4.93022">
        <ele>189.6</ele>
        <time>2024-09-18T14:11:35Z</time>
      </trkpt>
      <trkpt lat="46.51095" lon="4.93019">
        <ele>189.6</ele>
        <time>2024-09-18T14:11:36Z</time>
      </trkpt>
      <trkpt lat="46.51091" lon="4.93017">
        <ele>189.6</ele>
        <time>2024-09-18T14:11:37Z</time>
      </trkpt>
      <trkpt lat="46.51086" lon="4.93014">
        <ele>189.6</ele>
        <time>2024-09-18T14:11:38Z</time>
      </trkpt>
      <trkpt lat="46.51081" lon="4.93011">
        <ele>190.2</ele>
        <time>2024-09-18T14:11:39Z</time>
      </trkpt>
      <trkpt lat="46.51077" lon="4.93009">
        <ele>190.2</ele>
        <time>2024-09-18T14:11:40Z</time>
      </trkpt>
      <trkpt lat="46.51073" lon="4.93007">
        <ele>190.2</ele>
        <time>2024-09-18T14:11:41Z</time>
      </trkpt>
      <trkpt lat="46.51069" lon="4.93004">
        <ele>190.2</ele>
        <time>2024-09-18T14:11:42Z</time>
      </trkpt>
      <trkpt lat="46.51065" lon="4.93002">
        <ele>189.8</ele>
        <time>2024-09-18T14:11:43Z</time>
      </trkpt>
      <trkpt lat="46.51061" lon="4.93">
        <ele>189.8</ele>
        <time>2024-09-18T14:11:44Z</time>
      </trkpt>
      <trkpt lat="46.51057" lon="4.92997">
        <ele>189.8</ele>
        <time>2024-09-18T14:11:45Z</time>
      </trkpt>
      <trkpt lat="46.51053" lon="4.92995">
        <ele>189.8</ele>
        <time>2024-09-18T14:11:46Z</time>
      </trkpt>
      <trkpt lat="46.5105" lon="4.92993">
        <ele>189.8</ele>
        <time>2024-09-18T14:11:47Z</time>
      </trkpt>
      <trkpt lat="46.51046" lon="4.9299">
        <ele>189.6</ele>
        <time>2024-09-18T14:11:48Z</time>
      </trkpt>
      <trkpt lat="46.51042" lon="4.92988">
        <ele>189.6</ele>
        <time>2024-09-18T14:11:49Z</time>
      </trkpt>
      <trkpt lat="46.51036" lon="4.92984">
        <ele>189.6</ele>
        <time>2024-09-18T14:11:50Z</time>
      </trkpt>
      <trkpt lat="46.51035" lon="4.92983">
        <ele>190</ele>
        <time>2024-09-18T14:11:51Z</time>
      </trkpt>
      <trkpt lat="46.51029" lon="4.92978">
        <ele>190</ele>
        <time>2024-09-18T14:11:52Z</time>
      </trkpt>
      <trkpt lat="46.51027" lon="4.92977">
        <ele>189.8</ele>
        <time>2024-09-18T14:11:53Z</time>
      </trkpt>
      <trkpt lat="46.5102" lon="4.92974">
        <ele>189.8</ele>
        <time>2024-09-18T14:11:54Z</time>
      </trkpt>
      <trkpt lat="46.51018" lon="4.92972">
        <ele>189.8</ele>
        <time>2024-09-18T14:11:55Z</time>
      </trkpt>
      <trkpt lat="46.51012" lon="4.92969">
        <ele>189.8</ele>
        <time>2024-09-18T14:11:56Z</time>
      </trkpt>
      <trkpt lat="46.5101" lon="4.92968">
        <ele>189.4</ele>
        <time>2024-09-18T14:11:57Z</time>
      </trkpt>
      <trkpt lat="46.51004" lon="4.92965">
        <ele>189.4</ele>
        <time>2024-09-18T14:11:58Z</time>
      </trkpt>
      <trkpt lat="46.51002" lon="4.92964">
        <ele>189.4</ele>
        <time>2024-09-18T14:11:59Z</time>
      </trkpt>
      <trkpt lat="46.50998" lon="4.92962">
        <ele>189.4</ele>
        <time>2024-09-18T14:12:00Z</time>
      </trkpt>
      <trkpt lat="46.50994" lon="4.9296">
        <ele>189.4</ele>
        <time>2024-09-18T14:12:01Z</time>
      </trkpt>
      <trkpt lat="46.50991" lon="4.92958">
        <ele>189.6</ele>
        <time>2024-09-18T14:12:02Z</time>
      </trkpt>
      <trkpt lat="46.50987" lon="4.92956">
        <ele>189.6</ele>
        <time>2024-09-18T14:12:03Z</time>
      </trkpt>
      <trkpt lat="46.50986" lon="4.92956">
        <ele>189.6</ele>
        <time>2024-09-18T14:12:04Z</time>
      </trkpt>
      <trkpt lat="46.50985" lon="4.92955">
        <ele>189.6</ele>
        <time>2024-09-18T14:12:05Z</time>
      </trkpt>
      <trkpt lat="46.50983" lon="4.92955">
        <ele>189.6</ele>
        <time>2024-09-18T14:12:06Z</time>
      </trkpt>
      <trkpt lat="46.50982" lon="4.92955">
        <ele>189.4</ele>
        <time>2024-09-18T14:12:07Z</time>
      </trkpt>
      <trkpt lat="46.50982" lon="4.92955">
        <ele>189.4</ele>
        <time>2024-09-18T14:12:08Z</time>
      </trkpt>
      <trkpt lat="46.50978" lon="4.92953">
        <ele>189</ele>
        <time>2024-09-18T14:14:14Z</time>
      </trkpt>
      <trkpt lat="46.50977" lon="4.92952">
        <ele>189</ele>
        <time>2024-09-18T14:14:15Z</time>
      </trkpt>
      <trkpt lat="46.50976" lon="4.92952">
        <ele>189</ele>
        <time>2024-09-18T14:14:16Z</time>
      </trkpt>
      <trkpt lat="46.50974" lon="4.92951">
        <ele>189.2</ele>
        <time>2024-09-18T14:14:17Z</time>
      </trkpt>
      <trkpt lat="46.50973" lon="4.9295">
        <ele>189.2</ele>
        <time>2024-09-18T14:14:18Z</time>
      </trkpt>
      <trkpt lat="46.50971" lon="4.9295">
        <ele>189.2</ele>
        <time>2024-09-18T14:14:19Z</time>
      </trkpt>
      <trkpt lat="46.50969" lon="4.92948">
        <ele>189.2</ele>
        <time>2024-09-18T14:14:20Z</time>
      </trkpt>
      <trkpt lat="46.50967" lon="4.92947">
        <ele>189.2</ele>
        <time>2024-09-18T14:14:21Z</time>
      </trkpt>
      <trkpt lat="46.50965" lon="4.92946">
        <ele>189.4</ele>
        <time>2024-09-18T14:14:22Z</time>
      </trkpt>
      <trkpt lat="46.50963" lon="4.92944">
        <ele>189.4</ele>
        <time>2024-09-18T14:14:23Z</time>
      </trkpt>
      <trkpt lat="46.5096" lon="4.92943">
        <ele>189.4</ele>
        <time>2024-09-18T14:14:24Z</time>
      </trkpt>
      <trkpt lat="46.50958" lon="4.92941">
        <ele>189.4</ele>
        <time>2024-09-18T14:14:25Z</time>
      </trkpt>
      <trkpt lat="46.50956" lon="4.92939">
        <ele>189.4</ele>
        <time>2024-09-18T14:14:26Z</time>
      </trkpt>
      <trkpt lat="46.50953" lon="4.92937">
        <ele>189.4</ele>
        <time>2024-09-18T14:14:27Z</time>
      </trkpt>
      <trkpt lat="46.5095" lon="4.92935">
        <ele>189.4</ele>
        <time>2024-09-18T14:14:28Z</time>
      </trkpt>
      <trkpt lat="46.50947" lon="4.92934">
        <ele>189.6</ele>
        <time>2024-09-18T14:14:29Z</time>
      </trkpt>
      <trkpt lat="46.50944" lon="4.92933">
        <ele>189.6</ele>
        <time>2024-09-18T14:14:30Z</time>
      </trkpt>
      <trkpt lat="46.50941" lon="4.92932">
        <ele>189.6</ele>
        <time>2024-09-18T14:14:31Z</time>
      </trkpt>
      <trkpt lat="46.50938" lon="4.9293">
        <ele>189.6</ele>
        <time>2024-09-18T14:14:32Z</time>
      </trkpt>
      <trkpt lat="46.50935" lon="4.92929">
        <ele>189.6</ele>
        <time>2024-09-18T14:14:33Z</time>
      </trkpt>
      <trkpt lat="46.50932" lon="4.92929">
        <ele>190</ele>
        <time>2024-09-18T14:14:34Z</time>
      </trkpt>
      <trkpt lat="46.50929" lon="4.92928">
        <ele>189.8</ele>
        <time>2024-09-18T14:14:35Z</time>
      </trkpt>
      <trkpt lat="46.50923" lon="4.92926">
        <ele>189.8</ele>
        <time>2024-09-18T14:14:36Z</time>
      </trkpt>
      <trkpt lat="46.50921" lon="4.92925">
        <ele>189.8</ele>
        <time>2024-09-18T14:14:37Z</time>
      </trkpt>
      <trkpt lat="46.50916" lon="4.92923">
        <ele>190</ele>
        <time>2024-09-18T14:14:38Z</time>
      </trkpt>
      <trkpt lat="46.50914" lon="4.92923">
        <ele>190</ele>
        <time>2024-09-18T14:14:39Z</time>
      </trkpt>
      <trkpt lat="46.50908" lon="4.9292">
        <ele>190</ele>
        <time>2024-09-18T14:14:40Z</time>
      </trkpt>
      <trkpt lat="46.50906" lon="4.92919">
        <ele>190</ele>
        <time>2024-09-18T14:14:41Z</time>
      </trkpt>
      <trkpt lat="46.509" lon="4.92917">
        <ele>190.2</ele>
        <time>2024-09-18T14:14:42Z</time>
      </trkpt>
      <trkpt lat="46.50898" lon="4.92916">
        <ele>190</ele>
        <time>2024-09-18T14:14:43Z</time>
      </trkpt>
      <trkpt lat="46.50892" lon="4.92913">
        <ele>190</ele>
        <time>2024-09-18T14:14:44Z</time>
      </trkpt>
      <trkpt lat="46.5089" lon="4.92912">
        <ele>190</ele>
        <time>2024-09-18T14:14:45Z</time>
      </trkpt>
      <trkpt lat="46.50883" lon="4.92908">
        <ele>190</ele>
        <time>2024-09-18T14:14:46Z</time>
      </trkpt>
      <trkpt lat="46.50881" lon="4.92907">
        <ele>190</ele>
        <time>2024-09-18T14:14:47Z</time>
      </trkpt>
      <trkpt lat="46.50874" lon="4.92905">
        <ele>190</ele>
        <time>2024-09-18T14:14:48Z</time>
      </trkpt>
      <trkpt lat="46.50872" lon="4.92904">
        <ele>189.8</ele>
        <time>2024-09-18T14:14:49Z</time>
      </trkpt>
      <trkpt lat="46.50865" lon="4.92903">
        <ele>189.8</ele>
        <time>2024-09-18T14:14:50Z</time>
      </trkpt>
      <trkpt lat="46.50863" lon="4.92902">
        <ele>189.8</ele>
        <time>2024-09-18T14:14:51Z</time>
      </trkpt>
      <trkpt lat="46.50856" lon="4.92901">
        <ele>190</ele>
        <time>2024-09-18T14:14:52Z</time>
      </trkpt>
      <trkpt lat="46.50854" lon="4.929">
        <ele>189.8</ele>
        <time>2024-09-18T14:14:53Z</time>
      </trkpt>
      <trkpt lat="46.5085" lon="4.929">
        <ele>189.8</ele>
        <time>2024-09-18T14:14:54Z</time>
      </trkpt>
      <trkpt lat="46.50845" lon="4.92899">
        <ele>189.8</ele>
        <time>2024-09-18T14:14:55Z</time>
      </trkpt>
      <trkpt lat="46.50841" lon="4.92899">
        <ele>189.8</ele>
        <time>2024-09-18T14:14:56Z</time>
      </trkpt>
      <trkpt lat="46.50836" lon="4.92898">
        <ele>189.8</ele>
        <time>2024-09-18T14:14:57Z</time>
      </trkpt>
      <trkpt lat="46.50832" lon="4.92898">
        <ele>190</ele>
        <time>2024-09-18T14:14:58Z</time>
      </trkpt>
      <trkpt lat="46.50827" lon="4.92897">
        <ele>190</ele>
        <time>2024-09-18T14:14:59Z</time>
      </trkpt>
      <trkpt lat="46.50823" lon="4.92896">
        <ele>190</ele>
        <time>2024-09-18T14:15:00Z</time>
      </trkpt>
      <trkpt lat="46.50819" lon="4.92895">
        <ele>190</ele>
        <time>2024-09-18T14:15:01Z</time>
      </trkpt>
      <trkpt lat="46.50814" lon="4.92894">
        <ele>190</ele>
        <time>2024-09-18T14:15:02Z</time>
      </trkpt>
      <trkpt lat="46.5081" lon="4.92893">
        <ele>190</ele>
        <time>2024-09-18T14:15:03Z</time>
      </trkpt>
      <trkpt lat="46.50806" lon="4.92892">
        <ele>190</ele>
        <time>2024-09-18T14:15:04Z</time>
      </trkpt>
      <trkpt lat="46.50802" lon="4.9289">
        <ele>190</ele>
        <time>2024-09-18T14:15:05Z</time>
      </trkpt>
      <trkpt lat="46.50798" lon="4.92888">
        <ele>190</ele>
        <time>2024-09-18T14:15:06Z</time>
      </trkpt>
      <trkpt lat="46.50795" lon="4.92887">
        <ele>190.2</ele>
        <time>2024-09-18T14:15:07Z</time>
      </trkpt>
      <trkpt lat="46.50792" lon="4.92885">
        <ele>190.2</ele>
        <time>2024-09-18T14:15:08Z</time>
      </trkpt>
      <trkpt lat="46.50789" lon="4.92884">
        <ele>190.2</ele>
        <time>2024-09-18T14:15:09Z</time>
      </trkpt>
      <trkpt lat="46.50787" lon="4.92882">
        <ele>190.2</ele>
        <time>2024-09-18T14:15:10Z</time>
      </trkpt>
      <trkpt lat="46.50784" lon="4.92882">
        <ele>190.6</ele>
        <time>2024-09-18T14:15:11Z</time>
      </trkpt>
      <trkpt lat="46.50782" lon="4.92881">
        <ele>190.6</ele>
        <time>2024-09-18T14:15:12Z</time>
      </trkpt>
      <trkpt lat="46.50779" lon="4.92881">
        <ele>190.6</ele>
        <time>2024-09-18T14:15:13Z</time>
      </trkpt>
      <trkpt lat="46.50776" lon="4.92881">
        <ele>190.2</ele>
        <time>2024-09-18T14:15:14Z</time>
      </trkpt>
      <trkpt lat="46.50772" lon="4.9288">
        <ele>190</ele>
        <time>2024-09-18T14:15:15Z</time>
      </trkpt>
      <trkpt lat="46.50769" lon="4.9288">
        <ele>190</ele>
        <time>2024-09-18T14:15:16Z</time>
      </trkpt>
      <trkpt lat="46.50765" lon="4.92879">
        <ele>190</ele>
        <time>2024-09-18T14:15:17Z</time>
      </trkpt>
      <trkpt lat="46.50761" lon="4.92878">
        <ele>190</ele>
        <time>2024-09-18T14:15:18Z</time>
      </trkpt>
      <trkpt lat="46.50758" lon="4.92876">
        <ele>190</ele>
        <time>2024-09-18T14:15:19Z</time>
      </trkpt>
      <trkpt lat="46.50754" lon="4.92876">
        <ele>189.8</ele>
        <time>2024-09-18T14:15:20Z</time>
      </trkpt>
      <trkpt lat="46.5075" lon="4.92875">
        <ele>189.8</ele>
        <time>2024-09-18T14:15:21Z</time>
      </trkpt>
      <trkpt lat="46.50743" lon="4.92874">
        <ele>189.8</ele>
        <time>2024-09-18T14:15:22Z</time>
      </trkpt>
      <trkpt lat="46.50741" lon="4.92874">
        <ele>189.8</ele>
        <time>2024-09-18T14:15:23Z</time>
      </trkpt>
      <trkpt lat="46.50736" lon="4.92872">
        <ele>189.8</ele>
        <time>2024-09-18T14:15:24Z</time>
      </trkpt>
      <trkpt lat="46.50734" lon="4.92872">
        <ele>189.8</ele>
        <time>2024-09-18T14:15:25Z</time>
      </trkpt>
      <trkpt lat="46.50728" lon="4.9287">
        <ele>189.8</ele>
        <time>2024-09-18T14:15:26Z</time>
      </trkpt>
      <trkpt lat="46.50726" lon="4.9287">
        <ele>189.8</ele>
        <time>2024-09-18T14:15:27Z</time>
      </trkpt>
      <trkpt lat="46.50721" lon="4.92868">
        <ele>189.8</ele>
        <time>2024-09-18T14:15:28Z</time>
      </trkpt>
      <trkpt lat="46.5072" lon="4.92868">
        <ele>189.8</ele>
        <time>2024-09-18T14:15:29Z</time>
      </trkpt>
      <trkpt lat="46.50714" lon="4.92866">
        <ele>189.8</ele>
        <time>2024-09-18T14:15:30Z</time>
      </trkpt>
      <trkpt lat="46.50712" lon="4.92866">
        <ele>189.8</ele>
        <time>2024-09-18T14:15:31Z</time>
      </trkpt>
      <trkpt lat="46.50709" lon="4.92864">
        <ele>189.8</ele>
        <time>2024-09-18T14:15:32Z</time>
      </trkpt>
      <trkpt lat="46.50703" lon="4.92863">
        <ele>189.6</ele>
        <time>2024-09-18T14:15:33Z</time>
      </trkpt>
      <trkpt lat="46.50701" lon="4.92862">
        <ele>189.6</ele>
        <time>2024-09-18T14:15:34Z</time>
      </trkpt>
      <trkpt lat="46.50697" lon="4.92861">
        <ele>189.6</ele>
        <time>2024-09-18T14:15:35Z</time>
      </trkpt>
      <trkpt lat="46.50693" lon="4.92859">
        <ele>189.6</ele>
        <time>2024-09-18T14:15:36Z</time>
      </trkpt>
      <trkpt lat="46.50689" lon="4.92858">
        <ele>190</ele>
        <time>2024-09-18T14:15:37Z</time>
      </trkpt>
      <trkpt lat="46.50685" lon="4.92856">
        <ele>189.8</ele>
        <time>2024-09-18T14:15:38Z</time>
      </trkpt>
      <trkpt lat="46.50681" lon="4.92855">
        <ele>189.8</ele>
        <time>2024-09-18T14:15:39Z</time>
      </trkpt>
      <trkpt lat="46.50677" lon="4.92853">
        <ele>189.8</ele>
        <time>2024-09-18T14:15:40Z</time>
      </trkpt>
      <trkpt lat="46.50673" lon="4.92852">
        <ele>189.8</ele>
        <time>2024-09-18T14:15:41Z</time>
      </trkpt>
      <trkpt lat="46.50669" lon="4.9285">
        <ele>189.8</ele>
        <time>2024-09-18T14:15:42Z</time>
      </trkpt>
      <trkpt lat="46.50664" lon="4.92849">
        <ele>190</ele>
        <time>2024-09-18T14:15:43Z</time>
      </trkpt>
      <trkpt lat="46.5066" lon="4.92847">
        <ele>190</ele>
        <time>2024-09-18T14:15:44Z</time>
      </trkpt>
      <trkpt lat="46.50656" lon="4.92845">
        <ele>190</ele>
        <time>2024-09-18T14:15:45Z</time>
      </trkpt>
      <trkpt lat="46.50652" lon="4.92843">
        <ele>189.8</ele>
        <time>2024-09-18T14:15:46Z</time>
      </trkpt>
      <trkpt lat="46.50648" lon="4.92841">
        <ele>190</ele>
        <time>2024-09-18T14:15:47Z</time>
      </trkpt>
      <trkpt lat="46.50643" lon="4.9284">
        <ele>190</ele>
        <time>2024-09-18T14:15:48Z</time>
      </trkpt>
      <trkpt lat="46.50639" lon="4.92838">
        <ele>190</ele>
        <time>2024-09-18T14:15:49Z</time>
      </trkpt>
      <trkpt lat="46.50635" lon="4.92837">
        <ele>190</ele>
        <time>2024-09-18T14:15:50Z</time>
      </trkpt>
      <trkpt lat="46.5063" lon="4.92835">
        <ele>190</ele>
        <time>2024-09-18T14:15:51Z</time>
      </trkpt>
      <trkpt lat="46.50626" lon="4.92834">
        <ele>189.8</ele>
        <time>2024-09-18T14:15:52Z</time>
      </trkpt>
      <trkpt lat="46.50622" lon="4.92832">
        <ele>189.8</ele>
        <time>2024-09-18T14:15:53Z</time>
      </trkpt>
      <trkpt lat="46.50618" lon="4.9283">
        <ele>189.8</ele>
        <time>2024-09-18T14:15:54Z</time>
      </trkpt>
      <trkpt lat="46.50613" lon="4.92828">
        <ele>189.8</ele>
        <time>2024-09-18T14:15:55Z</time>
      </trkpt>
      <trkpt lat="46.50609" lon="4.92827">
        <ele>189.6</ele>
        <time>2024-09-18T14:15:56Z</time>
      </trkpt>
      <trkpt lat="46.50605" lon="4.92825">
        <ele>189.6</ele>
        <time>2024-09-18T14:15:57Z</time>
      </trkpt>
      <trkpt lat="46.506" lon="4.92824">
        <ele>189.6</ele>
        <time>2024-09-18T14:15:58Z</time>
      </trkpt>
      <trkpt lat="46.50596" lon="4.92822">
        <ele>190</ele>
        <time>2024-09-18T14:15:59Z</time>
      </trkpt>
      <trkpt lat="46.50589" lon="4.9282">
        <ele>190</ele>
        <time>2024-09-18T14:16:00Z</time>
      </trkpt>
      <trkpt lat="46.50587" lon="4.92819">
        <ele>190</ele>
        <time>2024-09-18T14:16:01Z</time>
      </trkpt>
      <trkpt lat="46.50581" lon="4.92816">
        <ele>190</ele>
        <time>2024-09-18T14:16:02Z</time>
      </trkpt>
      <trkpt lat="46.50578" lon="4.92816">
        <ele>190</ele>
        <time>2024-09-18T14:16:03Z</time>
      </trkpt>
      <trkpt lat="46.50572" lon="4.92813">
        <ele>190</ele>
        <time>2024-09-18T14:16:04Z</time>
      </trkpt>
      <trkpt lat="46.5057" lon="4.92812">
        <ele>189.8</ele>
        <time>2024-09-18T14:16:05Z</time>
      </trkpt>
      <trkpt lat="46.50563" lon="4.92809">
        <ele>189.8</ele>
        <time>2024-09-18T14:16:06Z</time>
      </trkpt>
      <trkpt lat="46.50561" lon="4.92808">
        <ele>189.8</ele>
        <time>2024-09-18T14:16:07Z</time>
      </trkpt>
      <trkpt lat="46.50555" lon="4.92806">
        <ele>189.8</ele>
        <time>2024-09-18T14:16:08Z</time>
      </trkpt>
      <trkpt lat="46.50553" lon="4.92805">
        <ele>190.4</ele>
        <time>2024-09-18T14:16:09Z</time>
      </trkpt>
      <trkpt lat="46.50547" lon="4.92802">
        <ele>190.4</ele>
        <time>2024-09-18T14:16:10Z</time>
      </trkpt>
      <trkpt lat="46.50545" lon="4.92802">
        <ele>190.4</ele>
        <time>2024-09-18T14:16:11Z</time>
      </trkpt>
      <trkpt lat="46.50539" lon="4.928">
        <ele>190.4</ele>
        <time>2024-09-18T14:16:12Z</time>
      </trkpt>
      <trkpt lat="46.50538" lon="4.928">
        <ele>190.4</ele>
        <time>2024-09-18T14:16:13Z</time>
      </trkpt>
      <trkpt lat="46.50533" lon="4.92798">
        <ele>190.4</ele>
        <time>2024-09-18T14:16:14Z</time>
      </trkpt>
      <trkpt lat="46.50531" lon="4.92797">
        <ele>190.6</ele>
        <time>2024-09-18T14:16:15Z</time>
      </trkpt>
      <trkpt lat="46.50525" lon="4.92795">
        <ele>190.6</ele>
        <time>2024-09-18T14:16:16Z</time>
      </trkpt>
      <trkpt lat="46.50523" lon="4.92795">
        <ele>190.6</ele>
        <time>2024-09-18T14:16:17Z</time>
      </trkpt>
      <trkpt lat="46.50519" lon="4.92793">
        <ele>191</ele>
        <time>2024-09-18T14:16:18Z</time>
      </trkpt>
      <trkpt lat="46.50515" lon="4.92792">
        <ele>191</ele>
        <time>2024-09-18T14:16:19Z</time>
      </trkpt>
      <trkpt lat="46.50512" lon="4.92791">
        <ele>191</ele>
        <time>2024-09-18T14:16:20Z</time>
      </trkpt>
      <trkpt lat="46.50508" lon="4.92789">
        <ele>191</ele>
        <time>2024-09-18T14:16:21Z</time>
      </trkpt>
      <trkpt lat="46.50505" lon="4.92788">
        <ele>191.6</ele>
        <time>2024-09-18T14:16:22Z</time>
      </trkpt>
      <trkpt lat="46.50502" lon="4.92787">
        <ele>191.6</ele>
        <time>2024-09-18T14:16:23Z</time>
      </trkpt>
      <trkpt lat="46.50499" lon="4.92785">
        <ele>191.6</ele>
        <time>2024-09-18T14:16:24Z</time>
      </trkpt>
      <trkpt lat="46.50496" lon="4.92784">
        <ele>191.6</ele>
        <time>2024-09-18T14:16:25Z</time>
      </trkpt>
      <trkpt lat="46.50493" lon="4.92782">
        <ele>191.6</ele>
        <time>2024-09-18T14:16:26Z</time>
      </trkpt>
      <trkpt lat="46.50489" lon="4.9278">
        <ele>191.6</ele>
        <time>2024-09-18T14:16:27Z</time>
      </trkpt>
      <trkpt lat="46.50487" lon="4.92776">
        <ele>191.2</ele>
        <time>2024-09-18T14:16:28Z</time>
      </trkpt>
      <trkpt lat="46.50484" lon="4.92773">
        <ele>191.2</ele>
        <time>2024-09-18T14:16:29Z</time>
      </trkpt>
      <trkpt lat="46.50481" lon="4.92769">
        <ele>191.2</ele>
        <time>2024-09-18T14:16:30Z</time>
      </trkpt>
      <trkpt lat="46.50478" lon="4.92765">
        <ele>191</ele>
        <time>2024-09-18T14:16:31Z</time>
      </trkpt>
      <trkpt lat="46.50476" lon="4.92762">
        <ele>190.8</ele>
        <time>2024-09-18T14:16:32Z</time>
      </trkpt>
      <trkpt lat="46.50473" lon="4.92759">
        <ele>190.8</ele>
        <time>2024-09-18T14:16:33Z</time>
      </trkpt>
      <trkpt lat="46.50469" lon="4.92756">
        <ele>190.8</ele>
        <time>2024-09-18T14:16:34Z</time>
      </trkpt>
      <trkpt lat="46.50466" lon="4.92753">
        <ele>190.8</ele>
        <time>2024-09-18T14:16:35Z</time>
      </trkpt>
      <trkpt lat="46.50462" lon="4.92751">
        <ele>190.8</ele>
        <time>2024-09-18T14:16:36Z</time>
      </trkpt>
      <trkpt lat="46.50459" lon="4.92748">
        <ele>191</ele>
        <time>2024-09-18T14:16:37Z</time>
      </trkpt>
      <trkpt lat="46.50455" lon="4.92745">
        <ele>191</ele>
        <time>2024-09-18T14:16:38Z</time>
      </trkpt>
      <trkpt lat="46.50451" lon="4.92743">
        <ele>191</ele>
        <time>2024-09-18T14:16:39Z</time>
      </trkpt>
      <trkpt lat="46.50447" lon="4.9274">
        <ele>191</ele>
        <time>2024-09-18T14:16:40Z</time>
      </trkpt>
      <trkpt lat="46.50443" lon="4.92737">
        <ele>190.8</ele>
        <time>2024-09-18T14:16:41Z</time>
      </trkpt>
      <trkpt lat="46.50437" lon="4.92733">
        <ele>190.8</ele>
        <time>2024-09-18T14:16:42Z</time>
      </trkpt>
      <trkpt lat="46.50435" lon="4.92732">
        <ele>190.8</ele>
        <time>2024-09-18T14:16:43Z</time>
      </trkpt>
      <trkpt lat="46.50429" lon="4.92728">
        <ele>190.8</ele>
        <time>2024-09-18T14:16:44Z</time>
      </trkpt>
      <trkpt lat="46.50427" lon="4.92727">
        <ele>191</ele>
        <time>2024-09-18T14:16:45Z</time>
      </trkpt>
      <trkpt lat="46.50424" lon="4.92724">
        <ele>191</ele>
        <time>2024-09-18T14:16:46Z</time>
      </trkpt>
      <trkpt lat="46.5042" lon="4.92722">
        <ele>191</ele>
        <time>2024-09-18T14:16:47Z</time>
      </trkpt>
      <trkpt lat="46.50415" lon="4.92719">
        <ele>191</ele>
        <time>2024-09-18T14:16:48Z</time>
      </trkpt>
      <trkpt lat="46.50414" lon="4.92719">
        <ele>191</ele>
        <time>2024-09-18T14:16:49Z</time>
      </trkpt>
      <trkpt lat="46.50408" lon="4.92718">
        <ele>190.8</ele>
        <time>2024-09-18T14:16:50Z</time>
      </trkpt>
      <trkpt lat="46.50406" lon="4.92719">
        <ele>190.8</ele>
        <time>2024-09-18T14:16:51Z</time>
      </trkpt>
      <trkpt lat="46.504" lon="4.92717">
        <ele>190.8</ele>
        <time>2024-09-18T14:16:52Z</time>
      </trkpt>
      <trkpt lat="46.50398" lon="4.92716">
        <ele>190.4</ele>
        <time>2024-09-18T14:16:53Z</time>
      </trkpt>
      <trkpt lat="46.50392" lon="4.92711">
        <ele>190.4</ele>
        <time>2024-09-18T14:16:54Z</time>
      </trkpt>
      <trkpt lat="46.5039" lon="4.92709">
        <ele>190.6</ele>
        <time>2024-09-18T14:16:55Z</time>
      </trkpt>
      <trkpt lat="46.50385" lon="4.92705">
        <ele>190.6</ele>
        <time>2024-09-18T14:16:56Z</time>
      </trkpt>
      <trkpt lat="46.50383" lon="4.92703">
        <ele>190.6</ele>
        <time>2024-09-18T14:16:57Z</time>
      </trkpt>
      <trkpt lat="46.50378" lon="4.92699">
        <ele>190.8</ele>
        <time>2024-09-18T14:16:58Z</time>
      </trkpt>
      <trkpt lat="46.50377" lon="4.92697">
        <ele>190.6</ele>
        <time>2024-09-18T14:16:59Z</time>
      </trkpt>
      <trkpt lat="46.50373" lon="4.92694">
        <ele>190.6</ele>
        <time>2024-09-18T14:17:00Z</time>
      </trkpt>
      <trkpt lat="46.50369" lon="4.92692">
        <ele>190.6</ele>
        <time>2024-09-18T14:17:01Z</time>
      </trkpt>
      <trkpt lat="46.50365" lon="4.9269">
        <ele>190.6</ele>
        <time>2024-09-18T14:17:02Z</time>
      </trkpt>
      <trkpt lat="46.50361" lon="4.92688">
        <ele>190.6</ele>
        <time>2024-09-18T14:17:03Z</time>
      </trkpt>
      <trkpt lat="46.50356" lon="4.92687">
        <ele>190.8</ele>
        <time>2024-09-18T14:17:04Z</time>
      </trkpt>
      <trkpt lat="46.50352" lon="4.92685">
        <ele>190.8</ele>
        <time>2024-09-18T14:17:05Z</time>
      </trkpt>
      <trkpt lat="46.50347" lon="4.92684">
        <ele>190.8</ele>
        <time>2024-09-18T14:17:06Z</time>
      </trkpt>
      <trkpt lat="46.50342" lon="4.92682">
        <ele>190.4</ele>
        <time>2024-09-18T14:17:07Z</time>
      </trkpt>
      <trkpt lat="46.50337" lon="4.9268">
        <ele>190.2</ele>
        <time>2024-09-18T14:17:08Z</time>
      </trkpt>
      <trkpt lat="46.50333" lon="4.92678">
        <ele>190.2</ele>
        <time>2024-09-18T14:17:09Z</time>
      </trkpt>
      <trkpt lat="46.50328" lon="4.92675">
        <ele>190.2</ele>
        <time>2024-09-18T14:17:10Z</time>
      </trkpt>
      <trkpt lat="46.50323" lon="4.92672">
        <ele>190.2</ele>
        <time>2024-09-18T14:17:11Z</time>
      </trkpt>
      <trkpt lat="46.50319" lon="4.9267">
        <ele>190.2</ele>
        <time>2024-09-18T14:17:12Z</time>
      </trkpt>
      <trkpt lat="46.50314" lon="4.92667">
        <ele>189.6</ele>
        <time>2024-09-18T14:17:13Z</time>
      </trkpt>
      <trkpt lat="46.50309" lon="4.92664">
        <ele>189.6</ele>
        <time>2024-09-18T14:17:14Z</time>
      </trkpt>
      <trkpt lat="46.50304" lon="4.92661">
        <ele>189.6</ele>
        <time>2024-09-18T14:17:15Z</time>
      </trkpt>
      <trkpt lat="46.503" lon="4.92658">
        <ele>190.2</ele>
        <time>2024-09-18T14:17:16Z</time>
      </trkpt>
      <trkpt lat="46.50295" lon="4.92655">
        <ele>190.2</ele>
        <time>2024-09-18T14:17:17Z</time>
      </trkpt>
      <trkpt lat="46.5029" lon="4.92652">
        <ele>190.2</ele>
        <time>2024-09-18T14:17:18Z</time>
      </trkpt>
      <trkpt lat="46.50285" lon="4.92649">
        <ele>190.2</ele>
        <time>2024-09-18T14:17:19Z</time>
      </trkpt>
      <trkpt lat="46.5028" lon="4.92646">
        <ele>189.8</ele>
        <time>2024-09-18T14:17:20Z</time>
      </trkpt>
      <trkpt lat="46.50275" lon="4.92644">
        <ele>189.8</ele>
        <time>2024-09-18T14:17:21Z</time>
      </trkpt>
      <trkpt lat="46.5027" lon="4.92641">
        <ele>189.8</ele>
        <time>2024-09-18T14:17:22Z</time>
      </trkpt>
      <trkpt lat="46.50265" lon="4.92638">
        <ele>189.8</ele>
        <time>2024-09-18T14:17:23Z</time>
      </trkpt>
      <trkpt lat="46.5026" lon="4.92635">
        <ele>189.8</ele>
        <time>2024-09-18T14:17:24Z</time>
      </trkpt>
      <trkpt lat="46.50252" lon="4.92631">
        <ele>189.8</ele>
        <time>2024-09-18T14:17:25Z</time>
      </trkpt>
      <trkpt lat="46.5025" lon="4.9263">
        <ele>189.4</ele>
        <time>2024-09-18T14:17:26Z</time>
      </trkpt>
      <trkpt lat="46.50243" lon="4.92626">
        <ele>189.4</ele>
        <time>2024-09-18T14:17:27Z</time>
      </trkpt>
      <trkpt lat="46.5024" lon="4.92625">
        <ele>189.4</ele>
        <time>2024-09-18T14:17:28Z</time>
      </trkpt>
      <trkpt lat="46.50233" lon="4.92622">
        <ele>189.4</ele>
        <time>2024-09-18T14:17:29Z</time>
      </trkpt>
      <trkpt lat="46.5023" lon="4.92621">
        <ele>189.2</ele>
        <time>2024-09-18T14:17:30Z</time>
      </trkpt>
      <trkpt lat="46.50225" lon="4.92619">
        <ele>189.2</ele>
        <time>2024-09-18T14:17:31Z</time>
      </trkpt>
      <trkpt lat="46.50219" lon="4.92618">
        <ele>189.2</ele>
        <time>2024-09-18T14:17:32Z</time>
      </trkpt>
      <trkpt lat="46.50213" lon="4.92617">
        <ele>189.2</ele>
        <time>2024-09-18T14:17:33Z</time>
      </trkpt>
      <trkpt lat="46.50208" lon="4.92617">
        <ele>189</ele>
        <time>2024-09-18T14:17:34Z</time>
      </trkpt>
      <trkpt lat="46.50203" lon="4.92616">
        <ele>189</ele>
        <time>2024-09-18T14:17:35Z</time>
      </trkpt>
      <trkpt lat="46.50197" lon="4.92616">
        <ele>189</ele>
        <time>2024-09-18T14:17:36Z</time>
      </trkpt>
      <trkpt lat="46.50192" lon="4.92614">
        <ele>189</ele>
        <time>2024-09-18T14:17:37Z</time>
      </trkpt>
      <trkpt lat="46.50187" lon="4.92613">
        <ele>189</ele>
        <time>2024-09-18T14:17:38Z</time>
      </trkpt>
      <trkpt lat="46.5018" lon="4.92612">
        <ele>189</ele>
        <time>2024-09-18T14:17:39Z</time>
      </trkpt>
      <trkpt lat="46.50178" lon="4.92612">
        <ele>188.4</ele>
        <time>2024-09-18T14:17:40Z</time>
      </trkpt>
      <trkpt lat="46.50172" lon="4.92611">
        <ele>188.4</ele>
        <time>2024-09-18T14:17:41Z</time>
      </trkpt>
      <trkpt lat="46.5017" lon="4.92611">
        <ele>188.4</ele>
        <time>2024-09-18T14:17:42Z</time>
      </trkpt>
      <trkpt lat="46.50165" lon="4.92611">
        <ele>188.6</ele>
        <time>2024-09-18T14:17:43Z</time>
      </trkpt>
      <trkpt lat="46.50161" lon="4.92611">
        <ele>189</ele>
        <time>2024-09-18T14:17:44Z</time>
      </trkpt>
      <trkpt lat="46.50157" lon="4.92611">
        <ele>189</ele>
        <time>2024-09-18T14:17:45Z</time>
      </trkpt>
      <trkpt lat="46.50153" lon="4.92611">
        <ele>189</ele>
        <time>2024-09-18T14:17:46Z</time>
      </trkpt>
      <trkpt lat="46.50149" lon="4.92611">
        <ele>189</ele>
        <time>2024-09-18T14:17:47Z</time>
      </trkpt>
      <trkpt lat="46.50145" lon="4.92611">
        <ele>188.4</ele>
        <time>2024-09-18T14:17:48Z</time>
      </trkpt>
      <trkpt lat="46.50141" lon="4.92611">
        <ele>188.6</ele>
        <time>2024-09-18T14:17:49Z</time>
      </trkpt>
      <trkpt lat="46.50137" lon="4.92611">
        <ele>188.6</ele>
        <time>2024-09-18T14:17:50Z</time>
      </trkpt>
      <trkpt lat="46.50133" lon="4.92611">
        <ele>188.6</ele>
        <time>2024-09-18T14:17:51Z</time>
      </trkpt>
      <trkpt lat="46.5013" lon="4.92611">
        <ele>189.6</ele>
        <time>2024-09-18T14:17:52Z</time>
      </trkpt>
      <trkpt lat="46.50126" lon="4.92611">
        <ele>188.2</ele>
        <time>2024-09-18T14:17:53Z</time>
      </trkpt>
      <trkpt lat="46.50123" lon="4.9261">
        <ele>188.2</ele>
        <time>2024-09-18T14:17:54Z</time>
      </trkpt>
      <trkpt lat="46.50119" lon="4.9261">
        <ele>188.2</ele>
        <time>2024-09-18T14:17:55Z</time>
      </trkpt>
      <trkpt lat="46.50115" lon="4.92611">
        <ele>188.2</ele>
        <time>2024-09-18T14:17:56Z</time>
      </trkpt>
      <trkpt lat="46.50112" lon="4.92612">
        <ele>188.2</ele>
        <time>2024-09-18T14:17:57Z</time>
      </trkpt>
      <trkpt lat="46.50108" lon="4.92614">
        <ele>187.8</ele>
        <time>2024-09-18T14:17:58Z</time>
      </trkpt>
      <trkpt lat="46.50105" lon="4.92614">
        <ele>187.8</ele>
        <time>2024-09-18T14:17:59Z</time>
      </trkpt>
      <trkpt lat="46.50102" lon="4.92614">
        <ele>187.8</ele>
        <time>2024-09-18T14:18:00Z</time>
      </trkpt>
      <trkpt lat="46.50098" lon="4.92613">
        <ele>188</ele>
        <time>2024-09-18T14:18:01Z</time>
      </trkpt>
      <trkpt lat="46.50096" lon="4.92613">
        <ele>188.2</ele>
        <time>2024-09-18T14:18:02Z</time>
      </trkpt>
      <trkpt lat="46.50093" lon="4.92612">
        <ele>188.2</ele>
        <time>2024-09-18T14:18:03Z</time>
      </trkpt>
      <trkpt lat="46.50091" lon="4.92611">
        <ele>188.2</ele>
        <time>2024-09-18T14:18:04Z</time>
      </trkpt>
      <trkpt lat="46.50089" lon="4.92611">
        <ele>188.2</ele>
        <time>2024-09-18T14:18:05Z</time>
      </trkpt>
      <trkpt lat="46.50087" lon="4.9261">
        <ele>188.4</ele>
        <time>2024-09-18T14:18:06Z</time>
      </trkpt>
      <trkpt lat="46.50084" lon="4.9261">
        <ele>188.4</ele>
        <time>2024-09-18T14:18:07Z</time>
      </trkpt>
      <trkpt lat="46.50081" lon="4.9261">
        <ele>188.4</ele>
        <time>2024-09-18T14:18:08Z</time>
      </trkpt>
      <trkpt lat="46.50078" lon="4.9261">
        <ele>188.4</ele>
        <time>2024-09-18T14:18:09Z</time>
      </trkpt>
      <trkpt lat="46.50075" lon="4.92609">
        <ele>188.4</ele>
        <time>2024-09-18T14:18:10Z</time>
      </trkpt>
      <trkpt lat="46.50072" lon="4.92608">
        <ele>188.2</ele>
        <time>2024-09-18T14:18:11Z</time>
      </trkpt>
      <trkpt lat="46.50068" lon="4.92607">
        <ele>188.2</ele>
        <time>2024-09-18T14:18:12Z</time>
      </trkpt>
      <trkpt lat="46.50064" lon="4.92607">
        <ele>188.2</ele>
        <time>2024-09-18T14:18:13Z</time>
      </trkpt>
      <trkpt lat="46.50057" lon="4.92605">
        <ele>188.4</ele>
        <time>2024-09-18T14:18:14Z</time>
      </trkpt>
      <trkpt lat="46.50055" lon="4.92605">
        <ele>188.6</ele>
        <time>2024-09-18T14:18:15Z</time>
      </trkpt>
      <trkpt lat="46.50048" lon="4.92604">
        <ele>188.6</ele>
        <time>2024-09-18T14:18:16Z</time>
      </trkpt>
      <trkpt lat="46.50046" lon="4.92603">
        <ele>188.6</ele>
        <time>2024-09-18T14:18:17Z</time>
      </trkpt>
      <trkpt lat="46.50039" lon="4.92601">
        <ele>188.6</ele>
        <time>2024-09-18T14:18:18Z</time>
      </trkpt>
      <trkpt lat="46.50037" lon="4.926">
        <ele>188.6</ele>
        <time>2024-09-18T14:18:19Z</time>
      </trkpt>
      <trkpt lat="46.5003" lon="4.92598">
        <ele>188.6</ele>
        <time>2024-09-18T14:18:20Z</time>
      </trkpt>
      <trkpt lat="46.50027" lon="4.92597">
        <ele>188.6</ele>
        <time>2024-09-18T14:18:21Z</time>
      </trkpt>
      <trkpt lat="46.50021" lon="4.92595">
        <ele>188.6</ele>
        <time>2024-09-18T14:18:22Z</time>
      </trkpt>
      <trkpt lat="46.50018" lon="4.92594">
        <ele>188.6</ele>
        <time>2024-09-18T14:18:23Z</time>
      </trkpt>
      <trkpt lat="46.50012" lon="4.92591">
        <ele>188.8</ele>
        <time>2024-09-18T14:18:24Z</time>
      </trkpt>
      <trkpt lat="46.5001" lon="4.9259">
        <ele>189</ele>
        <time>2024-09-18T14:18:25Z</time>
      </trkpt>
      <trkpt lat="46.50006" lon="4.92589">
        <ele>189</ele>
        <time>2024-09-18T14:18:26Z</time>
      </trkpt>
      <trkpt lat="46.50002" lon="4.92587">
        <ele>189</ele>
        <time>2024-09-18T14:18:27Z</time>
      </trkpt>
      <trkpt lat="46.49998" lon="4.92585">
        <ele>189</ele>
        <time>2024-09-18T14:18:28Z</time>
      </trkpt>
      <trkpt lat="46.49994" lon="4.92582">
        <ele>189.2</ele>
        <time>2024-09-18T14:18:29Z</time>
      </trkpt>
      <trkpt lat="46.4999" lon="4.9258">
        <ele>189.2</ele>
        <time>2024-09-18T14:18:30Z</time>
      </trkpt>
      <trkpt lat="46.49985" lon="4.92578">
        <ele>189.2</ele>
        <time>2024-09-18T14:18:31Z</time>
      </trkpt>
      <trkpt lat="46.49981" lon="4.92575">
        <ele>189.2</ele>
        <time>2024-09-18T14:18:32Z</time>
      </trkpt>
      <trkpt lat="46.49977" lon="4.92573">
        <ele>189.2</ele>
        <time>2024-09-18T14:18:33Z</time>
      </trkpt>
      <trkpt lat="46.49973" lon="4.9257">
        <ele>189</ele>
        <time>2024-09-18T14:18:34Z</time>
      </trkpt>
      <trkpt lat="46.49969" lon="4.92568">
        <ele>189</ele>
        <time>2024-09-18T14:18:35Z</time>
      </trkpt>
      <trkpt lat="46.49965" lon="4.92565">
        <ele>189</ele>
        <time>2024-09-18T14:18:36Z</time>
      </trkpt>
      <trkpt lat="46.49961" lon="4.92563">
        <ele>189</ele>
        <time>2024-09-18T14:18:37Z</time>
      </trkpt>
      <trkpt lat="46.49957" lon="4.9256">
        <ele>189.4</ele>
        <time>2024-09-18T14:18:38Z</time>
      </trkpt>
      <trkpt lat="46.49952" lon="4.92558">
        <ele>189.4</ele>
        <time>2024-09-18T14:18:39Z</time>
      </trkpt>
      <trkpt lat="46.49948" lon="4.92556">
        <ele>189.4</ele>
        <time>2024-09-18T14:18:40Z</time>
      </trkpt>
      <trkpt lat="46.49942" lon="4.92552">
        <ele>189.4</ele>
        <time>2024-09-18T14:18:41Z</time>
      </trkpt>
      <trkpt lat="46.4994" lon="4.92551">
        <ele>189.4</ele>
        <time>2024-09-18T14:18:42Z</time>
      </trkpt>
      <trkpt lat="46.49936" lon="4.92548">
        <ele>189.2</ele>
        <time>2024-09-18T14:18:43Z</time>
      </trkpt>
      <trkpt lat="46.49932" lon="4.92546">
        <ele>189.2</ele>
        <time>2024-09-18T14:18:44Z</time>
      </trkpt>
      <trkpt lat="46.49928" lon="4.92544">
        <ele>189.2</ele>
        <time>2024-09-18T14:18:45Z</time>
      </trkpt>
      <trkpt lat="46.49924" lon="4.92541">
        <ele>189.2</ele>
        <time>2024-09-18T14:18:46Z</time>
      </trkpt>
      <trkpt lat="46.4992" lon="4.92539">
        <ele>189.4</ele>
        <time>2024-09-18T14:18:47Z</time>
      </trkpt>
      <trkpt lat="46.49915" lon="4.92536">
        <ele>189.4</ele>
        <time>2024-09-18T14:18:48Z</time>
      </trkpt>
      <trkpt lat="46.49911" lon="4.92534">
        <ele>189.4</ele>
        <time>2024-09-18T14:18:49Z</time>
      </trkpt>
      <trkpt lat="46.49907" lon="4.92531">
        <ele>189.4</ele>
        <time>2024-09-18T14:18:50Z</time>
      </trkpt>
      <trkpt lat="46.499" lon="4.92527">
        <ele>189.6</ele>
        <time>2024-09-18T14:18:51Z</time>
      </trkpt>
      <trkpt lat="46.49898" lon="4.92526">
        <ele>189.6</ele>
        <time>2024-09-18T14:18:52Z</time>
      </trkpt>
      <trkpt lat="46.49891" lon="4.92522">
        <ele>189.6</ele>
        <time>2024-09-18T14:18:53Z</time>
      </trkpt>
      <trkpt lat="46.49889" lon="4.92521">
        <ele>189.6</ele>
        <time>2024-09-18T14:18:54Z</time>
      </trkpt>
      <trkpt lat="46.49883" lon="4.92517">
        <ele>189.6</ele>
        <time>2024-09-18T14:18:55Z</time>
      </trkpt>
      <trkpt lat="46.4988" lon="4.92516">
        <ele>189.8</ele>
        <time>2024-09-18T14:18:56Z</time>
      </trkpt>
      <trkpt lat="46.49874" lon="4.92512">
        <ele>189.8</ele>
        <time>2024-09-18T14:18:57Z</time>
      </trkpt>
      <trkpt lat="46.49872" lon="4.92511">
        <ele>189.8</ele>
        <time>2024-09-18T14:18:58Z</time>
      </trkpt>
      <trkpt lat="46.49865" lon="4.92507">
        <ele>189.8</ele>
        <time>2024-09-18T14:18:59Z</time>
      </trkpt>
      <trkpt lat="46.49863" lon="4.92506">
        <ele>189.6</ele>
        <time>2024-09-18T14:19:00Z</time>
      </trkpt>
      <trkpt lat="46.49857" lon="4.92503">
        <ele>189.6</ele>
        <time>2024-09-18T14:19:01Z</time>
      </trkpt>
      <trkpt lat="46.49855" lon="4.92502">
        <ele>189.6</ele>
        <time>2024-09-18T14:19:02Z</time>
      </trkpt>
      <trkpt lat="46.4985" lon="4.92499">
        <ele>189.6</ele>
        <time>2024-09-18T14:19:03Z</time>
      </trkpt>
      <trkpt lat="46.49846" lon="4.92497">
        <ele>189.6</ele>
        <time>2024-09-18T14:19:04Z</time>
      </trkpt>
      <trkpt lat="46.49839" lon="4.92493">
        <ele>189.8</ele>
        <time>2024-09-18T14:19:05Z</time>
      </trkpt>
      <trkpt lat="46.49837" lon="4.92492">
        <ele>189.8</ele>
        <time>2024-09-18T14:19:06Z</time>
      </trkpt>
      <trkpt lat="46.49831" lon="4.92489">
        <ele>189.8</ele>
        <time>2024-09-18T14:19:07Z</time>
      </trkpt>
      <trkpt lat="46.49829" lon="4.92488">
        <ele>189.8</ele>
        <time>2024-09-18T14:19:08Z</time>
      </trkpt>
      <trkpt lat="46.49824" lon="4.92485">
        <ele>189.8</ele>
        <time>2024-09-18T14:19:09Z</time>
      </trkpt>
      <trkpt lat="46.4982" lon="4.92483">
        <ele>189.8</ele>
        <time>2024-09-18T14:19:10Z</time>
      </trkpt>
      <trkpt lat="46.49816" lon="4.92481">
        <ele>189.8</ele>
        <time>2024-09-18T14:19:11Z</time>
      </trkpt>
      <trkpt lat="46.49812" lon="4.92479">
        <ele>189.8</ele>
        <time>2024-09-18T14:19:12Z</time>
      </trkpt>
      <trkpt lat="46.49807" lon="4.92476">
        <ele>189.8</ele>
        <time>2024-09-18T14:19:13Z</time>
      </trkpt>
      <trkpt lat="46.49803" lon="4.92474">
        <ele>190.2</ele>
        <time>2024-09-18T14:19:14Z</time>
      </trkpt>
      <trkpt lat="46.49799" lon="4.92472">
        <ele>190.2</ele>
        <time>2024-09-18T14:19:15Z</time>
      </trkpt>
      <trkpt lat="46.49795" lon="4.9247">
        <ele>190.2</ele>
        <time>2024-09-18T14:19:16Z</time>
      </trkpt>
      <trkpt lat="46.49791" lon="4.92467">
        <ele>190.2</ele>
        <time>2024-09-18T14:19:17Z</time>
      </trkpt>
      <trkpt lat="46.49786" lon="4.92465">
        <ele>190</ele>
        <time>2024-09-18T14:19:18Z</time>
      </trkpt>
      <trkpt lat="46.49782" lon="4.92463">
        <ele>190</ele>
        <time>2024-09-18T14:19:19Z</time>
      </trkpt>
      <trkpt lat="46.49778" lon="4.9246">
        <ele>190</ele>
        <time>2024-09-18T14:19:20Z</time>
      </trkpt>
      <trkpt lat="46.49774" lon="4.92458">
        <ele>190</ele>
        <time>2024-09-18T14:19:21Z</time>
      </trkpt>
      <trkpt lat="46.49769" lon="4.92455">
        <ele>190</ele>
        <time>2024-09-18T14:19:22Z</time>
      </trkpt>
      <trkpt lat="46.49765" lon="4.92453">
        <ele>189.8</ele>
        <time>2024-09-18T14:19:23Z</time>
      </trkpt>
      <trkpt lat="46.49761" lon="4.9245">
        <ele>189.8</ele>
        <time>2024-09-18T14:19:24Z</time>
      </trkpt>
      <trkpt lat="46.49757" lon="4.92447">
        <ele>189.8</ele>
        <time>2024-09-18T14:19:25Z</time>
      </trkpt>
      <trkpt lat="46.49752" lon="4.92444">
        <ele>189.8</ele>
        <time>2024-09-18T14:19:26Z</time>
      </trkpt>
      <trkpt lat="46.49748" lon="4.92441">
        <ele>189.8</ele>
        <time>2024-09-18T14:19:27Z</time>
      </trkpt>
      <trkpt lat="46.49744" lon="4.92438">
        <ele>189.8</ele>
        <time>2024-09-18T14:19:28Z</time>
      </trkpt>
      <trkpt lat="46.4974" lon="4.92435">
        <ele>189.8</ele>
        <time>2024-09-18T14:19:29Z</time>
      </trkpt>
      <trkpt lat="46.49736" lon="4.92432">
        <ele>189.8</ele>
        <time>2024-09-18T14:19:30Z</time>
      </trkpt>
      <trkpt lat="46.49732" lon="4.92429">
        <ele>189.8</ele>
        <time>2024-09-18T14:19:31Z</time>
      </trkpt>
      <trkpt lat="46.49727" lon="4.92426">
        <ele>190</ele>
        <time>2024-09-18T14:19:32Z</time>
      </trkpt>
      <trkpt lat="46.49723" lon="4.92423">
        <ele>190</ele>
        <time>2024-09-18T14:19:33Z</time>
      </trkpt>
      <trkpt lat="46.49717" lon="4.92418">
        <ele>190</ele>
        <time>2024-09-18T14:19:34Z</time>
      </trkpt>
      <trkpt lat="46.49715" lon="4.92416">
        <ele>189.8</ele>
        <time>2024-09-18T14:19:35Z</time>
      </trkpt>
      <trkpt lat="46.49709" lon="4.9241">
        <ele>189.8</ele>
        <time>2024-09-18T14:19:36Z</time>
      </trkpt>
      <trkpt lat="46.49707" lon="4.92408">
        <ele>189.8</ele>
        <time>2024-09-18T14:19:37Z</time>
      </trkpt>
      <trkpt lat="46.49701" lon="4.92403">
        <ele>189.8</ele>
        <time>2024-09-18T14:19:38Z</time>
      </trkpt>
      <trkpt lat="46.49699" lon="4.92401">
        <ele>189.8</ele>
        <time>2024-09-18T14:19:39Z</time>
      </trkpt>
      <trkpt lat="46.49692" lon="4.92396">
        <ele>190</ele>
        <time>2024-09-18T14:19:40Z</time>
      </trkpt>
      <trkpt lat="46.49691" lon="4.92394">
        <ele>189.8</ele>
        <time>2024-09-18T14:19:41Z</time>
      </trkpt>
      <trkpt lat="46.49687" lon="4.92391">
        <ele>189.8</ele>
        <time>2024-09-18T14:19:42Z</time>
      </trkpt>
      <trkpt lat="46.49683" lon="4.92387">
        <ele>189.8</ele>
        <time>2024-09-18T14:19:43Z</time>
      </trkpt>
      <trkpt lat="46.49677" lon="4.92381">
        <ele>189.4</ele>
        <time>2024-09-18T14:19:44Z</time>
      </trkpt>
      <trkpt lat="46.49675" lon="4.92379">
        <ele>189.4</ele>
        <time>2024-09-18T14:19:45Z</time>
      </trkpt>
      <trkpt lat="46.49669" lon="4.92372">
        <ele>189.8</ele>
        <time>2024-09-18T14:19:46Z</time>
      </trkpt>
      <trkpt lat="46.49667" lon="4.9237">
        <ele>189.8</ele>
        <time>2024-09-18T14:19:47Z</time>
      </trkpt>
      <trkpt lat="46.49662" lon="4.92364">
        <ele>189.8</ele>
        <time>2024-09-18T14:19:48Z</time>
      </trkpt>
      <trkpt lat="46.4966" lon="4.92361">
        <ele>189.8</ele>
        <time>2024-09-18T14:19:49Z</time>
      </trkpt>
      <trkpt lat="46.49656" lon="4.92357">
        <ele>189.4</ele>
        <time>2024-09-18T14:19:50Z</time>
      </trkpt>
      <trkpt lat="46.49653" lon="4.92353">
        <ele>189.4</ele>
        <time>2024-09-18T14:19:51Z</time>
      </trkpt>
      <trkpt lat="46.49649" lon="4.92348">
        <ele>189.4</ele>
        <time>2024-09-18T14:19:52Z</time>
      </trkpt>
      <trkpt lat="46.49645" lon="4.92344">
        <ele>189.4</ele>
        <time>2024-09-18T14:19:53Z</time>
      </trkpt>
      <trkpt lat="46.49642" lon="4.92339">
        <ele>189.4</ele>
        <time>2024-09-18T14:19:54Z</time>
      </trkpt>
      <trkpt lat="46.49638" lon="4.92334">
        <ele>189.6</ele>
        <time>2024-09-18T14:19:55Z</time>
      </trkpt>
      <trkpt lat="46.49634" lon="4.9233">
        <ele>189.6</ele>
        <time>2024-09-18T14:19:56Z</time>
      </trkpt>
      <trkpt lat="46.49631" lon="4.92326">
        <ele>189.6</ele>
        <time>2024-09-18T14:19:57Z</time>
      </trkpt>
      <trkpt lat="46.49628" lon="4.92322">
        <ele>189.8</ele>
        <time>2024-09-18T14:19:58Z</time>
      </trkpt>
      <trkpt lat="46.49624" lon="4.92317">
        <ele>189.8</ele>
        <time>2024-09-18T14:19:59Z</time>
      </trkpt>
      <trkpt lat="46.49621" lon="4.92313">
        <ele>189.8</ele>
        <time>2024-09-18T14:20:00Z</time>
      </trkpt>
      <trkpt lat="46.49617" lon="4.92308">
        <ele>189.8</ele>
        <time>2024-09-18T14:20:01Z</time>
      </trkpt>
      <trkpt lat="46.49614" lon="4.92304">
        <ele>189.8</ele>
        <time>2024-09-18T14:20:02Z</time>
      </trkpt>
      <trkpt lat="46.49611" lon="4.92299">
        <ele>189.8</ele>
        <time>2024-09-18T14:20:03Z</time>
      </trkpt>
      <trkpt lat="46.49608" lon="4.92294">
        <ele>190</ele>
        <time>2024-09-18T14:20:04Z</time>
      </trkpt>
      <trkpt lat="46.49605" lon="4.9229">
        <ele>190</ele>
        <time>2024-09-18T14:20:05Z</time>
      </trkpt>
      <trkpt lat="46.49602" lon="4.92286">
        <ele>190</ele>
        <time>2024-09-18T14:20:06Z</time>
      </trkpt>
      <trkpt lat="46.49598" lon="4.9228">
        <ele>190</ele>
        <time>2024-09-18T14:20:07Z</time>
      </trkpt>
      <trkpt lat="46.49597" lon="4.92278">
        <ele>190.2</ele>
        <time>2024-09-18T14:20:08Z</time>
      </trkpt>
      <trkpt lat="46.49594" lon="4.92274">
        <ele>190.2</ele>
        <time>2024-09-18T14:20:09Z</time>
      </trkpt>
      <trkpt lat="46.49592" lon="4.9227">
        <ele>190.2</ele>
        <time>2024-09-18T14:20:10Z</time>
      </trkpt>
      <trkpt lat="46.49589" lon="4.92266">
        <ele>190</ele>
        <time>2024-09-18T14:20:11Z</time>
      </trkpt>
      <trkpt lat="46.49586" lon="4.92261">
        <ele>189.6</ele>
        <time>2024-09-18T14:20:12Z</time>
      </trkpt>
      <trkpt lat="46.49583" lon="4.92256">
        <ele>189.6</ele>
        <time>2024-09-18T14:20:13Z</time>
      </trkpt>
      <trkpt lat="46.4958" lon="4.92252">
        <ele>189.6</ele>
        <time>2024-09-18T14:20:14Z</time>
      </trkpt>
      <trkpt lat="46.49577" lon="4.92247">
        <ele>189.6</ele>
        <time>2024-09-18T14:20:15Z</time>
      </trkpt>
      <trkpt lat="46.49575" lon="4.92242">
        <ele>189.6</ele>
        <time>2024-09-18T14:20:16Z</time>
      </trkpt>
      <trkpt lat="46.49571" lon="4.92235">
        <ele>190</ele>
        <time>2024-09-18T14:20:17Z</time>
      </trkpt>
      <trkpt lat="46.49569" lon="4.92232">
        <ele>190</ele>
        <time>2024-09-18T14:20:18Z</time>
      </trkpt>
      <trkpt lat="46.49565" lon="4.92225">
        <ele>190</ele>
        <time>2024-09-18T14:20:19Z</time>
      </trkpt>
      <trkpt lat="46.49563" lon="4.92222">
        <ele>190</ele>
        <time>2024-09-18T14:20:20Z</time>
      </trkpt>
      <trkpt lat="46.49559" lon="4.92214">
        <ele>190</ele>
        <time>2024-09-18T14:20:21Z</time>
      </trkpt>
      <trkpt lat="46.49557" lon="4.92212">
        <ele>190</ele>
        <time>2024-09-18T14:20:22Z</time>
      </trkpt>
      <trkpt lat="46.49553" lon="4.92204">
        <ele>190</ele>
        <time>2024-09-18T14:20:23Z</time>
      </trkpt>
      <trkpt lat="46.49551" lon="4.92201">
        <ele>189.6</ele>
        <time>2024-09-18T14:20:24Z</time>
      </trkpt>
      <trkpt lat="46.49547" lon="4.92193">
        <ele>189.6</ele>
        <time>2024-09-18T14:20:25Z</time>
      </trkpt>
      <trkpt lat="46.49545" lon="4.9219">
        <ele>189.6</ele>
        <time>2024-09-18T14:20:26Z</time>
      </trkpt>
      <trkpt lat="46.49541" lon="4.92182">
        <ele>189.6</ele>
        <time>2024-09-18T14:20:27Z</time>
      </trkpt>
      <trkpt lat="46.4954" lon="4.9218">
        <ele>189.6</ele>
        <time>2024-09-18T14:20:28Z</time>
      </trkpt>
      <trkpt lat="46.49537" lon="4.92174">
        <ele>189.6</ele>
        <time>2024-09-18T14:20:29Z</time>
      </trkpt>
      <trkpt lat="46.49534" lon="4.92169">
        <ele>189.6</ele>
        <time>2024-09-18T14:20:30Z</time>
      </trkpt>
      <trkpt lat="46.4953" lon="4.92161">
        <ele>189.8</ele>
        <time>2024-09-18T14:20:31Z</time>
      </trkpt>
      <trkpt lat="46.49528" lon="4.92159">
        <ele>189.8</ele>
        <time>2024-09-18T14:20:32Z</time>
      </trkpt>
      <trkpt lat="46.49525" lon="4.92154">
        <ele>189.8</ele>
        <time>2024-09-18T14:20:33Z</time>
      </trkpt>
      <trkpt lat="46.49522" lon="4.92149">
        <ele>189.8</ele>
        <time>2024-09-18T14:20:34Z</time>
      </trkpt>
      <trkpt lat="46.4952" lon="4.92144">
        <ele>189.8</ele>
        <time>2024-09-18T14:20:35Z</time>
      </trkpt>
      <trkpt lat="46.49517" lon="4.92139">
        <ele>190.2</ele>
        <time>2024-09-18T14:20:36Z</time>
      </trkpt>
      <trkpt lat="46.49514" lon="4.92135">
        <ele>190.2</ele>
        <time>2024-09-18T14:20:37Z</time>
      </trkpt>
      <trkpt lat="46.49511" lon="4.9213">
        <ele>190.2</ele>
        <time>2024-09-18T14:20:38Z</time>
      </trkpt>
      <trkpt lat="46.49509" lon="4.92126">
        <ele>190.2</ele>
        <time>2024-09-18T14:20:39Z</time>
      </trkpt>
      <trkpt lat="46.49506" lon="4.92121">
        <ele>189.8</ele>
        <time>2024-09-18T14:20:40Z</time>
      </trkpt>
      <trkpt lat="46.49503" lon="4.92116">
        <ele>189.8</ele>
        <time>2024-09-18T14:20:41Z</time>
      </trkpt>
      <trkpt lat="46.495" lon="4.92111">
        <ele>189.8</ele>
        <time>2024-09-18T14:20:42Z</time>
      </trkpt>
      <trkpt lat="46.49497" lon="4.92106">
        <ele>190</ele>
        <time>2024-09-18T14:20:43Z</time>
      </trkpt>
      <trkpt lat="46.49494" lon="4.92102">
        <ele>190.2</ele>
        <time>2024-09-18T14:20:44Z</time>
      </trkpt>
      <trkpt lat="46.49491" lon="4.92097">
        <ele>190.2</ele>
        <time>2024-09-18T14:20:45Z</time>
      </trkpt>
      <trkpt lat="46.49488" lon="4.92093">
        <ele>190.2</ele>
        <time>2024-09-18T14:20:46Z</time>
      </trkpt>
      <trkpt lat="46.49485" lon="4.92088">
        <ele>190.2</ele>
        <time>2024-09-18T14:20:47Z</time>
      </trkpt>
      <trkpt lat="46.49482" lon="4.92083">
        <ele>190.2</ele>
        <time>2024-09-18T14:20:48Z</time>
      </trkpt>
      <trkpt lat="46.49479" lon="4.92078">
        <ele>190.2</ele>
        <time>2024-09-18T14:20:49Z</time>
      </trkpt>
      <trkpt lat="46.49476" lon="4.92073">
        <ele>190.2</ele>
        <time>2024-09-18T14:20:50Z</time>
      </trkpt>
      <trkpt lat="46.49473" lon="4.92068">
        <ele>190.2</ele>
        <time>2024-09-18T14:20:51Z</time>
      </trkpt>
      <trkpt lat="46.4947" lon="4.92063">
        <ele>190.2</ele>
        <time>2024-09-18T14:20:52Z</time>
      </trkpt>
      <trkpt lat="46.49467" lon="4.92059">
        <ele>190.2</ele>
        <time>2024-09-18T14:20:53Z</time>
      </trkpt>
      <trkpt lat="46.49463" lon="4.92054">
        <ele>190.2</ele>
        <time>2024-09-18T14:20:54Z</time>
      </trkpt>
      <trkpt lat="46.4946" lon="4.92049">
        <ele>190.2</ele>
        <time>2024-09-18T14:20:55Z</time>
      </trkpt>
      <trkpt lat="46.49457" lon="4.92044">
        <ele>190.2</ele>
        <time>2024-09-18T14:20:56Z</time>
      </trkpt>
      <trkpt lat="46.49454" lon="4.9204">
        <ele>190.2</ele>
        <time>2024-09-18T14:20:57Z</time>
      </trkpt>
      <trkpt lat="46.49451" lon="4.92035">
        <ele>190.2</ele>
        <time>2024-09-18T14:20:58Z</time>
      </trkpt>
      <trkpt lat="46.49446" lon="4.92028">
        <ele>190.2</ele>
        <time>2024-09-18T14:20:59Z</time>
      </trkpt>
      <trkpt lat="46.49445" lon="4.92026">
        <ele>190.2</ele>
        <time>2024-09-18T14:21:00Z</time>
      </trkpt>
      <trkpt lat="46.4944" lon="4.92018">
        <ele>190.2</ele>
        <time>2024-09-18T14:21:01Z</time>
      </trkpt>
      <trkpt lat="46.49438" lon="4.92016">
        <ele>190.4</ele>
        <time>2024-09-18T14:21:02Z</time>
      </trkpt>
      <trkpt lat="46.49434" lon="4.92008">
        <ele>190.4</ele>
        <time>2024-09-18T14:21:03Z</time>
      </trkpt>
      <trkpt lat="46.49432" lon="4.92006">
        <ele>190.4</ele>
        <time>2024-09-18T14:21:04Z</time>
      </trkpt>
      <trkpt lat="46.49428" lon="4.91998">
        <ele>189.8</ele>
        <time>2024-09-18T14:21:05Z</time>
      </trkpt>
      <trkpt lat="46.49426" lon="4.91996">
        <ele>189.8</ele>
        <time>2024-09-18T14:21:06Z</time>
      </trkpt>
      <trkpt lat="46.49422" lon="4.91988">
        <ele>189.8</ele>
        <time>2024-09-18T14:21:07Z</time>
      </trkpt>
      <trkpt lat="46.4942" lon="4.91985">
        <ele>189.8</ele>
        <time>2024-09-18T14:21:08Z</time>
      </trkpt>
      <trkpt lat="46.49416" lon="4.91977">
        <ele>189.8</ele>
        <time>2024-09-18T14:21:09Z</time>
      </trkpt>
      <trkpt lat="46.49414" lon="4.91975">
        <ele>189.8</ele>
        <time>2024-09-18T14:21:10Z</time>
      </trkpt>
      <trkpt lat="46.49411" lon="4.91969">
        <ele>189.8</ele>
        <time>2024-09-18T14:21:11Z</time>
      </trkpt>
      <trkpt lat="46.49407" lon="4.91961">
        <ele>189.2</ele>
        <time>2024-09-18T14:21:12Z</time>
      </trkpt>
      <trkpt lat="46.49405" lon="4.91959">
        <ele>189.2</ele>
        <time>2024-09-18T14:21:13Z</time>
      </trkpt>
      <trkpt lat="46.49402" lon="4.91953">
        <ele>189.2</ele>
        <time>2024-09-18T14:21:14Z</time>
      </trkpt>
      <trkpt lat="46.49399" lon="4.91948">
        <ele>189.6</ele>
        <time>2024-09-18T14:21:15Z</time>
      </trkpt>
      <trkpt lat="46.49396" lon="4.91943">
        <ele>189.8</ele>
        <time>2024-09-18T14:21:16Z</time>
      </trkpt>
      <trkpt lat="46.49392" lon="4.91938">
        <ele>189.8</ele>
        <time>2024-09-18T14:21:17Z</time>
      </trkpt>
      <trkpt lat="46.49389" lon="4.91932">
        <ele>189.8</ele>
        <time>2024-09-18T14:21:18Z</time>
      </trkpt>
      <trkpt lat="46.49385" lon="4.91928">
        <ele>190.2</ele>
        <time>2024-09-18T14:21:19Z</time>
      </trkpt>
      <trkpt lat="46.49382" lon="4.91924">
        <ele>190</ele>
        <time>2024-09-18T14:21:20Z</time>
      </trkpt>
      <trkpt lat="46.49378" lon="4.9192">
        <ele>190</ele>
        <time>2024-09-18T14:21:21Z</time>
      </trkpt>
      <trkpt lat="46.49375" lon="4.91916">
        <ele>190</ele>
        <time>2024-09-18T14:21:22Z</time>
      </trkpt>
      <trkpt lat="46.49372" lon="4.91912">
        <ele>190</ele>
        <time>2024-09-18T14:21:23Z</time>
      </trkpt>
      <trkpt lat="46.49369" lon="4.91907">
        <ele>190</ele>
        <time>2024-09-18T14:21:24Z</time>
      </trkpt>
      <trkpt lat="46.49366" lon="4.91904">
        <ele>189.6</ele>
        <time>2024-09-18T14:21:25Z</time>
      </trkpt>
      <trkpt lat="46.49362" lon="4.919">
        <ele>189.6</ele>
        <time>2024-09-18T14:21:26Z</time>
      </trkpt>
      <trkpt lat="46.49359" lon="4.91895">
        <ele>189.6</ele>
        <time>2024-09-18T14:21:27Z</time>
      </trkpt>
      <trkpt lat="46.49355" lon="4.91892">
        <ele>190</ele>
        <time>2024-09-18T14:21:28Z</time>
      </trkpt>
      <trkpt lat="46.4935" lon="4.91885">
        <ele>190.2</ele>
        <time>2024-09-18T14:21:29Z</time>
      </trkpt>
      <trkpt lat="46.49348" lon="4.91883">
        <ele>190.2</ele>
        <time>2024-09-18T14:21:30Z</time>
      </trkpt>
      <trkpt lat="46.49343" lon="4.91877">
        <ele>190.2</ele>
        <time>2024-09-18T14:21:31Z</time>
      </trkpt>
      <trkpt lat="46.49341" lon="4.91875">
        <ele>189.6</ele>
        <time>2024-09-18T14:21:32Z</time>
      </trkpt>
      <trkpt lat="46.49338" lon="4.91871">
        <ele>189.8</ele>
        <time>2024-09-18T14:21:33Z</time>
      </trkpt>
      <trkpt lat="46.49334" lon="4.91866">
        <ele>189.8</ele>
        <time>2024-09-18T14:21:34Z</time>
      </trkpt>
      <trkpt lat="46.4933" lon="4.91862">
        <ele>189.8</ele>
        <time>2024-09-18T14:21:35Z</time>
      </trkpt>
      <trkpt lat="46.49327" lon="4.91857">
        <ele>189.8</ele>
        <time>2024-09-18T14:21:36Z</time>
      </trkpt>
      <trkpt lat="46.49324" lon="4.91853">
        <ele>190</ele>
        <time>2024-09-18T14:21:37Z</time>
      </trkpt>
      <trkpt lat="46.49321" lon="4.91849">
        <ele>190.2</ele>
        <time>2024-09-18T14:21:38Z</time>
      </trkpt>
      <trkpt lat="46.49318" lon="4.91844">
        <ele>190.2</ele>
        <time>2024-09-18T14:21:39Z</time>
      </trkpt>
      <trkpt lat="46.49314" lon="4.9184">
        <ele>190.2</ele>
        <time>2024-09-18T14:21:40Z</time>
      </trkpt>
      <trkpt lat="46.49309" lon="4.91834">
        <ele>190.2</ele>
        <time>2024-09-18T14:21:41Z</time>
      </trkpt>
      <trkpt lat="46.49307" lon="4.91832">
        <ele>190</ele>
        <time>2024-09-18T14:21:42Z</time>
      </trkpt>
      <trkpt lat="46.49302" lon="4.91825">
        <ele>190</ele>
        <time>2024-09-18T14:21:43Z</time>
      </trkpt>
      <trkpt lat="46.49301" lon="4.91823">
        <ele>190</ele>
        <time>2024-09-18T14:21:44Z</time>
      </trkpt>
      <trkpt lat="46.49296" lon="4.91817">
        <ele>190</ele>
        <time>2024-09-18T14:21:45Z</time>
      </trkpt>
      <trkpt lat="46.49294" lon="4.91814">
        <ele>190.4</ele>
        <time>2024-09-18T14:21:46Z</time>
      </trkpt>
      <trkpt lat="46.49289" lon="4.91807">
        <ele>190.4</ele>
        <time>2024-09-18T14:21:47Z</time>
      </trkpt>
      <trkpt lat="46.49288" lon="4.91805">
        <ele>190.4</ele>
        <time>2024-09-18T14:21:48Z</time>
      </trkpt>
      <trkpt lat="46.49283" lon="4.91799">
        <ele>190.4</ele>
        <time>2024-09-18T14:21:49Z</time>
      </trkpt>
      <trkpt lat="46.49281" lon="4.91797">
        <ele>190</ele>
        <time>2024-09-18T14:21:50Z</time>
      </trkpt>
      <trkpt lat="46.49276" lon="4.9179">
        <ele>190.2</ele>
        <time>2024-09-18T14:21:51Z</time>
      </trkpt>
      <trkpt lat="46.49274" lon="4.91788">
        <ele>190.2</ele>
        <time>2024-09-18T14:21:52Z</time>
      </trkpt>
      <trkpt lat="46.49268" lon="4.91781">
        <ele>190.2</ele>
        <time>2024-09-18T14:21:53Z</time>
      </trkpt>
      <trkpt lat="46.49267" lon="4.91778">
        <ele>190.2</ele>
        <time>2024-09-18T14:21:54Z</time>
      </trkpt>
      <trkpt lat="46.49261" lon="4.91771">
        <ele>189.8</ele>
        <time>2024-09-18T14:21:55Z</time>
      </trkpt>
      <trkpt lat="46.49259" lon="4.91768">
        <ele>189.8</ele>
        <time>2024-09-18T14:21:56Z</time>
      </trkpt>
      <trkpt lat="46.49256" lon="4.91763">
        <ele>189.8</ele>
        <time>2024-09-18T14:21:57Z</time>
      </trkpt>
      <trkpt lat="46.49252" lon="4.91758">
        <ele>189.8</ele>
        <time>2024-09-18T14:21:58Z</time>
      </trkpt>
      <trkpt lat="46.49249" lon="4.91753">
        <ele>189.8</ele>
        <time>2024-09-18T14:21:59Z</time>
      </trkpt>
      <trkpt lat="46.49245" lon="4.91749">
        <ele>189.8</ele>
        <time>2024-09-18T14:22:00Z</time>
      </trkpt>
      <trkpt lat="46.49242" lon="4.91744">
        <ele>189.8</ele>
        <time>2024-09-18T14:22:01Z</time>
      </trkpt>
      <trkpt lat="46.49238" lon="4.9174">
        <ele>189.8</ele>
        <time>2024-09-18T14:22:02Z</time>
      </trkpt>
      <trkpt lat="46.49235" lon="4.91735">
        <ele>189.8</ele>
        <time>2024-09-18T14:22:03Z</time>
      </trkpt>
      <trkpt lat="46.49232" lon="4.91731">
        <ele>189.2</ele>
        <time>2024-09-18T14:22:04Z</time>
      </trkpt>
      <trkpt lat="46.49229" lon="4.91726">
        <ele>189.6</ele>
        <time>2024-09-18T14:22:05Z</time>
      </trkpt>
      <trkpt lat="46.49226" lon="4.91722">
        <ele>189.6</ele>
        <time>2024-09-18T14:22:06Z</time>
      </trkpt>
      <trkpt lat="46.49224" lon="4.91717">
        <ele>189.6</ele>
        <time>2024-09-18T14:22:07Z</time>
      </trkpt>
      <trkpt lat="46.49221" lon="4.91712">
        <ele>189.4</ele>
        <time>2024-09-18T14:22:08Z</time>
      </trkpt>
      <trkpt lat="46.49218" lon="4.91708">
        <ele>189.2</ele>
        <time>2024-09-18T14:22:09Z</time>
      </trkpt>
      <trkpt lat="46.49215" lon="4.91703">
        <ele>189.2</ele>
        <time>2024-09-18T14:22:10Z</time>
      </trkpt>
      <trkpt lat="46.49212" lon="4.91698">
        <ele>189.2</ele>
        <time>2024-09-18T14:22:11Z</time>
      </trkpt>
      <trkpt lat="46.49208" lon="4.91693">
        <ele>189.2</ele>
        <time>2024-09-18T14:22:12Z</time>
      </trkpt>
      <trkpt lat="46.49205" lon="4.91688">
        <ele>189.2</ele>
        <time>2024-09-18T14:22:13Z</time>
      </trkpt>
      <trkpt lat="46.49202" lon="4.91683">
        <ele>189</ele>
        <time>2024-09-18T14:22:14Z</time>
      </trkpt>
      <trkpt lat="46.49199" lon="4.91677">
        <ele>189</ele>
        <time>2024-09-18T14:22:15Z</time>
      </trkpt>
      <trkpt lat="46.49197" lon="4.91672">
        <ele>189</ele>
        <time>2024-09-18T14:22:16Z</time>
      </trkpt>
      <trkpt lat="46.49194" lon="4.91667">
        <ele>189</ele>
        <time>2024-09-18T14:22:17Z</time>
      </trkpt>
      <trkpt lat="46.49191" lon="4.91661">
        <ele>189</ele>
        <time>2024-09-18T14:22:18Z</time>
      </trkpt>
      <trkpt lat="46.49188" lon="4.91655">
        <ele>189</ele>
        <time>2024-09-18T14:22:19Z</time>
      </trkpt>
      <trkpt lat="46.49185" lon="4.9165">
        <ele>189</ele>
        <time>2024-09-18T14:22:20Z</time>
      </trkpt>
      <trkpt lat="46.49183" lon="4.91644">
        <ele>189</ele>
        <time>2024-09-18T14:22:21Z</time>
      </trkpt>
      <trkpt lat="46.4918" lon="4.91638">
        <ele>188.8</ele>
        <time>2024-09-18T14:22:22Z</time>
      </trkpt>
      <trkpt lat="46.49177" lon="4.91633">
        <ele>188.8</ele>
        <time>2024-09-18T14:22:23Z</time>
      </trkpt>
      <trkpt lat="46.49173" lon="4.91624">
        <ele>188.8</ele>
        <time>2024-09-18T14:22:24Z</time>
      </trkpt>
      <trkpt lat="46.49172" lon="4.91621">
        <ele>188.8</ele>
        <time>2024-09-18T14:22:25Z</time>
      </trkpt>
      <trkpt lat="46.49168" lon="4.91613">
        <ele>189</ele>
        <time>2024-09-18T14:22:26Z</time>
      </trkpt>
      <trkpt lat="46.49167" lon="4.9161">
        <ele>189.2</ele>
        <time>2024-09-18T14:22:27Z</time>
      </trkpt>
      <trkpt lat="46.49164" lon="4.91605">
        <ele>189.2</ele>
        <time>2024-09-18T14:22:28Z</time>
      </trkpt>
      <trkpt lat="46.49162" lon="4.91599">
        <ele>189.2</ele>
        <time>2024-09-18T14:22:29Z</time>
      </trkpt>
      <trkpt lat="46.49158" lon="4.91591">
        <ele>189.2</ele>
        <time>2024-09-18T14:22:30Z</time>
      </trkpt>
      <trkpt lat="46.49157" lon="4.91588">
        <ele>189.4</ele>
        <time>2024-09-18T14:22:31Z</time>
      </trkpt>
      <trkpt lat="46.49154" lon="4.9158">
        <ele>189.4</ele>
        <time>2024-09-18T14:22:32Z</time>
      </trkpt>
      <trkpt lat="46.49153" lon="4.91577">
        <ele>189.4</ele>
        <time>2024-09-18T14:22:33Z</time>
      </trkpt>
      <trkpt lat="46.49149" lon="4.91569">
        <ele>189.4</ele>
        <time>2024-09-18T14:22:34Z</time>
      </trkpt>
      <trkpt lat="46.49148" lon="4.91567">
        <ele>189.2</ele>
        <time>2024-09-18T14:22:35Z</time>
      </trkpt>
      <trkpt lat="46.49144" lon="4.91559">
        <ele>189.2</ele>
        <time>2024-09-18T14:22:36Z</time>
      </trkpt>
      <trkpt lat="46.49143" lon="4.91556">
        <ele>189.2</ele>
        <time>2024-09-18T14:22:37Z</time>
      </trkpt>
      <trkpt lat="46.49139" lon="4.91548">
        <ele>189.2</ele>
        <time>2024-09-18T14:22:38Z</time>
      </trkpt>
      <trkpt lat="46.49138" lon="4.91545">
        <ele>189.2</ele>
        <time>2024-09-18T14:22:39Z</time>
      </trkpt>
      <trkpt lat="46.49135" lon="4.91539">
        <ele>189</ele>
        <time>2024-09-18T14:22:40Z</time>
      </trkpt>
      <trkpt lat="46.49133" lon="4.91533">
        <ele>189.2</ele>
        <time>2024-09-18T14:22:41Z</time>
      </trkpt>
      <trkpt lat="46.4913" lon="4.91528">
        <ele>189.2</ele>
        <time>2024-09-18T14:22:42Z</time>
      </trkpt>
      <trkpt lat="46.49127" lon="4.91522">
        <ele>189.2</ele>
        <time>2024-09-18T14:22:43Z</time>
      </trkpt>
      <trkpt lat="46.49125" lon="4.91516">
        <ele>189.2</ele>
        <time>2024-09-18T14:22:44Z</time>
      </trkpt>
      <trkpt lat="46.49122" lon="4.91511">
        <ele>189.2</ele>
        <time>2024-09-18T14:22:45Z</time>
      </trkpt>
      <trkpt lat="46.49119" lon="4.91505">
        <ele>189.2</ele>
        <time>2024-09-18T14:22:46Z</time>
      </trkpt>
      <trkpt lat="46.49117" lon="4.91499">
        <ele>189.2</ele>
        <time>2024-09-18T14:22:47Z</time>
      </trkpt>
      <trkpt lat="46.49114" lon="4.91494">
        <ele>188.8</ele>
        <time>2024-09-18T14:22:48Z</time>
      </trkpt>
      <trkpt lat="46.49111" lon="4.91488">
        <ele>188.8</ele>
        <time>2024-09-18T14:22:49Z</time>
      </trkpt>
      <trkpt lat="46.49109" lon="4.91482">
        <ele>189.2</ele>
        <time>2024-09-18T14:22:50Z</time>
      </trkpt>
      <trkpt lat="46.49106" lon="4.91477">
        <ele>189.2</ele>
        <time>2024-09-18T14:22:51Z</time>
      </trkpt>
      <trkpt lat="46.49104" lon="4.91472">
        <ele>189.2</ele>
        <time>2024-09-18T14:22:52Z</time>
      </trkpt>
      <trkpt lat="46.49102" lon="4.91467">
        <ele>189.2</ele>
        <time>2024-09-18T14:22:53Z</time>
      </trkpt>
      <trkpt lat="46.49099" lon="4.91462">
        <ele>189</ele>
        <time>2024-09-18T14:22:54Z</time>
      </trkpt>
      <trkpt lat="46.49097" lon="4.91457">
        <ele>189</ele>
        <time>2024-09-18T14:22:55Z</time>
      </trkpt>
      <trkpt lat="46.49095" lon="4.91453">
        <ele>189</ele>
        <time>2024-09-18T14:22:56Z</time>
      </trkpt>
      <trkpt lat="46.49093" lon="4.91448">
        <ele>189</ele>
        <time>2024-09-18T14:22:57Z</time>
      </trkpt>
      <trkpt lat="46.49091" lon="4.91444">
        <ele>188.8</ele>
        <time>2024-09-18T14:22:58Z</time>
      </trkpt>
      <trkpt lat="46.49089" lon="4.9144">
        <ele>188.8</ele>
        <time>2024-09-18T14:22:59Z</time>
      </trkpt>
      <trkpt lat="46.49086" lon="4.91436">
        <ele>188.8</ele>
        <time>2024-09-18T14:23:00Z</time>
      </trkpt>
      <trkpt lat="46.49083" lon="4.91434">
        <ele>188.8</ele>
        <time>2024-09-18T14:23:01Z</time>
      </trkpt>
      <trkpt lat="46.4908" lon="4.91431">
        <ele>188.8</ele>
        <time>2024-09-18T14:23:02Z</time>
      </trkpt>
      <trkpt lat="46.49077" lon="4.91427">
        <ele>189</ele>
        <time>2024-09-18T14:23:03Z</time>
      </trkpt>
      <trkpt lat="46.49073" lon="4.91422">
        <ele>189</ele>
        <time>2024-09-18T14:23:04Z</time>
      </trkpt>
      <trkpt lat="46.49071" lon="4.91421">
        <ele>189</ele>
        <time>2024-09-18T14:23:05Z</time>
      </trkpt>
      <trkpt lat="46.49068" lon="4.91417">
        <ele>188.8</ele>
        <time>2024-09-18T14:23:06Z</time>
      </trkpt>
      <trkpt lat="46.49065" lon="4.91413">
        <ele>189</ele>
        <time>2024-09-18T14:23:07Z</time>
      </trkpt>
      <trkpt lat="46.4906" lon="4.91408">
        <ele>189</ele>
        <time>2024-09-18T14:23:08Z</time>
      </trkpt>
      <trkpt lat="46.49058" lon="4.91406">
        <ele>189</ele>
        <time>2024-09-18T14:23:09Z</time>
      </trkpt>
      <trkpt lat="46.49053" lon="4.914">
        <ele>189</ele>
        <time>2024-09-18T14:23:10Z</time>
      </trkpt>
      <trkpt lat="46.49051" lon="4.91398">
        <ele>189</ele>
        <time>2024-09-18T14:23:11Z</time>
      </trkpt>
      <trkpt lat="46.49045" lon="4.91392">
        <ele>189</ele>
        <time>2024-09-18T14:23:12Z</time>
      </trkpt>
      <trkpt lat="46.49043" lon="4.91391">
        <ele>189</ele>
        <time>2024-09-18T14:23:13Z</time>
      </trkpt>
      <trkpt lat="46.49038" lon="4.91385">
        <ele>189</ele>
        <time>2024-09-18T14:23:14Z</time>
      </trkpt>
      <trkpt lat="46.49036" lon="4.91383">
        <ele>189</ele>
        <time>2024-09-18T14:23:15Z</time>
      </trkpt>
      <trkpt lat="46.4903" lon="4.91378">
        <ele>189</ele>
        <time>2024-09-18T14:23:16Z</time>
      </trkpt>
      <trkpt lat="46.49028" lon="4.91377">
        <ele>189.2</ele>
        <time>2024-09-18T14:23:17Z</time>
      </trkpt>
      <trkpt lat="46.49024" lon="4.91373">
        <ele>189.2</ele>
        <time>2024-09-18T14:23:18Z</time>
      </trkpt>
      <trkpt lat="46.49021" lon="4.9137">
        <ele>189.2</ele>
        <time>2024-09-18T14:23:19Z</time>
      </trkpt>
      <trkpt lat="46.49015" lon="4.91365">
        <ele>189.2</ele>
        <time>2024-09-18T14:23:20Z</time>
      </trkpt>
      <trkpt lat="46.49013" lon="4.91363">
        <ele>189</ele>
        <time>2024-09-18T14:23:21Z</time>
      </trkpt>
      <trkpt lat="46.49008" lon="4.9136">
        <ele>189</ele>
        <time>2024-09-18T14:23:22Z</time>
      </trkpt>
      <trkpt lat="46.49004" lon="4.91357">
        <ele>189</ele>
        <time>2024-09-18T14:23:23Z</time>
      </trkpt>
      <trkpt lat="46.49" lon="4.91353">
        <ele>189</ele>
        <time>2024-09-18T14:23:24Z</time>
      </trkpt>
      <trkpt lat="46.48996" lon="4.9135">
        <ele>189</ele>
        <time>2024-09-18T14:23:25Z</time>
      </trkpt>
      <trkpt lat="46.48992" lon="4.91347">
        <ele>189</ele>
        <time>2024-09-18T14:23:26Z</time>
      </trkpt>
      <trkpt lat="46.48988" lon="4.91344">
        <ele>189</ele>
        <time>2024-09-18T14:23:27Z</time>
      </trkpt>
      <trkpt lat="46.48984" lon="4.9134">
        <ele>189</ele>
        <time>2024-09-18T14:23:28Z</time>
      </trkpt>
      <trkpt lat="46.4898" lon="4.91337">
        <ele>189</ele>
        <time>2024-09-18T14:23:29Z</time>
      </trkpt>
      <trkpt lat="46.48976" lon="4.91334">
        <ele>189</ele>
        <time>2024-09-18T14:23:30Z</time>
      </trkpt>
      <trkpt lat="46.48972" lon="4.91331">
        <ele>189</ele>
        <time>2024-09-18T14:23:31Z</time>
      </trkpt>
      <trkpt lat="46.48968" lon="4.91329">
        <ele>189</ele>
        <time>2024-09-18T14:23:32Z</time>
      </trkpt>
      <trkpt lat="46.48964" lon="4.91327">
        <ele>189</ele>
        <time>2024-09-18T14:23:33Z</time>
      </trkpt>
      <trkpt lat="46.4896" lon="4.91324">
        <ele>189</ele>
        <time>2024-09-18T14:23:34Z</time>
      </trkpt>
      <trkpt lat="46.48955" lon="4.91321">
        <ele>189</ele>
        <time>2024-09-18T14:23:35Z</time>
      </trkpt>
      <trkpt lat="46.48951" lon="4.91319">
        <ele>189</ele>
        <time>2024-09-18T14:23:36Z</time>
      </trkpt>
      <trkpt lat="46.48947" lon="4.91317">
        <ele>189</ele>
        <time>2024-09-18T14:23:37Z</time>
      </trkpt>
      <trkpt lat="46.48942" lon="4.91315">
        <ele>189</ele>
        <time>2024-09-18T14:23:38Z</time>
      </trkpt>
      <trkpt lat="46.48938" lon="4.91312">
        <ele>189.2</ele>
        <time>2024-09-18T14:23:39Z</time>
      </trkpt>
      <trkpt lat="46.48934" lon="4.9131">
        <ele>189.2</ele>
        <time>2024-09-18T14:23:40Z</time>
      </trkpt>
      <trkpt lat="46.48929" lon="4.91308">
        <ele>189.2</ele>
        <time>2024-09-18T14:23:41Z</time>
      </trkpt>
      <trkpt lat="46.48925" lon="4.91306">
        <ele>189.2</ele>
        <time>2024-09-18T14:23:42Z</time>
      </trkpt>
      <trkpt lat="46.48921" lon="4.91304">
        <ele>189.4</ele>
        <time>2024-09-18T14:23:43Z</time>
      </trkpt>
      <trkpt lat="46.48917" lon="4.91303">
        <ele>189.4</ele>
        <time>2024-09-18T14:23:44Z</time>
      </trkpt>
      <trkpt lat="46.48912" lon="4.91301">
        <ele>189.4</ele>
        <time>2024-09-18T14:23:45Z</time>
      </trkpt>
      <trkpt lat="46.48908" lon="4.91299">
        <ele>189.4</ele>
        <time>2024-09-18T14:23:46Z</time>
      </trkpt>
      <trkpt lat="46.48904" lon="4.91297">
        <ele>189.4</ele>
        <time>2024-09-18T14:23:47Z</time>
      </trkpt>
      <trkpt lat="46.48897" lon="4.91294">
        <ele>189.4</ele>
        <time>2024-09-18T14:23:48Z</time>
      </trkpt>
      <trkpt lat="46.48895" lon="4.91293">
        <ele>189.4</ele>
        <time>2024-09-18T14:23:49Z</time>
      </trkpt>
      <trkpt lat="46.48889" lon="4.91289">
        <ele>189.4</ele>
        <time>2024-09-18T14:23:50Z</time>
      </trkpt>
      <trkpt lat="46.48887" lon="4.91288">
        <ele>189.4</ele>
        <time>2024-09-18T14:23:51Z</time>
      </trkpt>
      <trkpt lat="46.4888" lon="4.91285">
        <ele>189.2</ele>
        <time>2024-09-18T14:23:52Z</time>
      </trkpt>
      <trkpt lat="46.48879" lon="4.91284">
        <ele>189.2</ele>
        <time>2024-09-18T14:23:53Z</time>
      </trkpt>
      <trkpt lat="46.48872" lon="4.91281">
        <ele>189.2</ele>
        <time>2024-09-18T14:23:54Z</time>
      </trkpt>
      <trkpt lat="46.4887" lon="4.9128">
        <ele>189.4</ele>
        <time>2024-09-18T14:23:55Z</time>
      </trkpt>
      <trkpt lat="46.48864" lon="4.91277">
        <ele>189.4</ele>
        <time>2024-09-18T14:23:56Z</time>
      </trkpt>
      <trkpt lat="46.48862" lon="4.91276">
        <ele>189.4</ele>
        <time>2024-09-18T14:23:57Z</time>
      </trkpt>
      <trkpt lat="46.48857" lon="4.91274">
        <ele>189.4</ele>
        <time>2024-09-18T14:23:58Z</time>
      </trkpt>
      <trkpt lat="46.48853" lon="4.91272">
        <ele>189.4</ele>
        <time>2024-09-18T14:23:59Z</time>
      </trkpt>
      <trkpt lat="46.48849" lon="4.9127">
        <ele>189.4</ele>
        <time>2024-09-18T14:24:00Z</time>
      </trkpt>
      <trkpt lat="46.48845" lon="4.91268">
        <ele>189.4</ele>
        <time>2024-09-18T14:24:01Z</time>
      </trkpt>
      <trkpt lat="46.48841" lon="4.91266">
        <ele>189.6</ele>
        <time>2024-09-18T14:24:02Z</time>
      </trkpt>
      <trkpt lat="46.48836" lon="4.91265">
        <ele>189.6</ele>
        <time>2024-09-18T14:24:03Z</time>
      </trkpt>
      <trkpt lat="46.48832" lon="4.91263">
        <ele>189.6</ele>
        <time>2024-09-18T14:24:04Z</time>
      </trkpt>
      <trkpt lat="46.48827" lon="4.91261">
        <ele>189.6</ele>
        <time>2024-09-18T14:24:05Z</time>
      </trkpt>
      <trkpt lat="46.48822" lon="4.91259">
        <ele>189.6</ele>
        <time>2024-09-18T14:24:06Z</time>
      </trkpt>
      <trkpt lat="46.48817" lon="4.91258">
        <ele>189.6</ele>
        <time>2024-09-18T14:24:07Z</time>
      </trkpt>
      <trkpt lat="46.48812" lon="4.91257">
        <ele>189.6</ele>
        <time>2024-09-18T14:24:08Z</time>
      </trkpt>
      <trkpt lat="46.48807" lon="4.91255">
        <ele>189.8</ele>
        <time>2024-09-18T14:24:09Z</time>
      </trkpt>
      <trkpt lat="46.48802" lon="4.91254">
        <ele>189.8</ele>
        <time>2024-09-18T14:24:10Z</time>
      </trkpt>
      <trkpt lat="46.48797" lon="4.91252">
        <ele>189.8</ele>
        <time>2024-09-18T14:24:11Z</time>
      </trkpt>
      <trkpt lat="46.48793" lon="4.9125">
        <ele>189.8</ele>
        <time>2024-09-18T14:24:12Z</time>
      </trkpt>
      <trkpt lat="46.48788" lon="4.91249">
        <ele>189.8</ele>
        <time>2024-09-18T14:24:13Z</time>
      </trkpt>
      <trkpt lat="46.48783" lon="4.91247">
        <ele>189.8</ele>
        <time>2024-09-18T14:24:14Z</time>
      </trkpt>
      <trkpt lat="46.48779" lon="4.91246">
        <ele>190</ele>
        <time>2024-09-18T14:24:15Z</time>
      </trkpt>
      <trkpt lat="46.48776" lon="4.91246">
        <ele>190</ele>
        <time>2024-09-18T14:24:16Z</time>
      </trkpt>
      <trkpt lat="46.48772" lon="4.91247">
        <ele>190</ele>
        <time>2024-09-18T14:24:17Z</time>
      </trkpt>
      <trkpt lat="46.4877" lon="4.91248">
        <ele>189.8</ele>
        <time>2024-09-18T14:24:18Z</time>
      </trkpt>
      <trkpt lat="46.48767" lon="4.91249">
        <ele>189.8</ele>
        <time>2024-09-18T14:24:19Z</time>
      </trkpt>
      <trkpt lat="46.48765" lon="4.91251">
        <ele>189.8</ele>
        <time>2024-09-18T14:24:20Z</time>
      </trkpt>
      <trkpt lat="46.48762" lon="4.91251">
        <ele>189.8</ele>
        <time>2024-09-18T14:24:21Z</time>
      </trkpt>
      <trkpt lat="46.48758" lon="4.91252">
        <ele>189.4</ele>
        <time>2024-09-18T14:24:22Z</time>
      </trkpt>
      <trkpt lat="46.48755" lon="4.91252">
        <ele>189.4</ele>
        <time>2024-09-18T14:24:23Z</time>
      </trkpt>
      <trkpt lat="46.48752" lon="4.91252">
        <ele>189.8</ele>
        <time>2024-09-18T14:24:24Z</time>
      </trkpt>
      <trkpt lat="46.48748" lon="4.91251">
        <ele>189.8</ele>
        <time>2024-09-18T14:24:25Z</time>
      </trkpt>
      <trkpt lat="46.48745" lon="4.91251">
        <ele>189.8</ele>
        <time>2024-09-18T14:24:26Z</time>
      </trkpt>
      <trkpt lat="46.48741" lon="4.9125">
        <ele>189.8</ele>
        <time>2024-09-18T14:24:27Z</time>
      </trkpt>
      <trkpt lat="46.48735" lon="4.91249">
        <ele>189.4</ele>
        <time>2024-09-18T14:24:28Z</time>
      </trkpt>
      <trkpt lat="46.48733" lon="4.91249">
        <ele>189.4</ele>
        <time>2024-09-18T14:24:29Z</time>
      </trkpt>
      <trkpt lat="46.48727" lon="4.91248">
        <ele>189.4</ele>
        <time>2024-09-18T14:24:30Z</time>
      </trkpt>
      <trkpt lat="46.48724" lon="4.91247">
        <ele>189.4</ele>
        <time>2024-09-18T14:24:31Z</time>
      </trkpt>
      <trkpt lat="46.48717" lon="4.91247">
        <ele>188.6</ele>
        <time>2024-09-18T14:24:32Z</time>
      </trkpt>
      <trkpt lat="46.48715" lon="4.91246">
        <ele>188.6</ele>
        <time>2024-09-18T14:24:33Z</time>
      </trkpt>
      <trkpt lat="46.48707" lon="4.91245">
        <ele>188.6</ele>
        <time>2024-09-18T14:24:34Z</time>
      </trkpt>
      <trkpt lat="46.48705" lon="4.91245">
        <ele>189.4</ele>
        <time>2024-09-18T14:24:35Z</time>
      </trkpt>
      <trkpt lat="46.48698" lon="4.91243">
        <ele>189.4</ele>
        <time>2024-09-18T14:24:36Z</time>
      </trkpt>
      <trkpt lat="46.48696" lon="4.91242">
        <ele>188.8</ele>
        <time>2024-09-18T14:24:37Z</time>
      </trkpt>
      <trkpt lat="46.48691" lon="4.91241">
        <ele>188.8</ele>
        <time>2024-09-18T14:24:38Z</time>
      </trkpt>
      <trkpt lat="46.48686" lon="4.9124">
        <ele>188.8</ele>
        <time>2024-09-18T14:24:39Z</time>
      </trkpt>
      <trkpt lat="46.4868" lon="4.91238">
        <ele>189.6</ele>
        <time>2024-09-18T14:24:40Z</time>
      </trkpt>
      <trkpt lat="46.48677" lon="4.91237">
        <ele>189.6</ele>
        <time>2024-09-18T14:24:41Z</time>
      </trkpt>
      <trkpt lat="46.48671" lon="4.91235">
        <ele>189.8</ele>
        <time>2024-09-18T14:24:42Z</time>
      </trkpt>
      <trkpt lat="46.48669" lon="4.91235">
        <ele>189.8</ele>
        <time>2024-09-18T14:24:43Z</time>
      </trkpt>
      <trkpt lat="46.48662" lon="4.91233">
        <ele>189.8</ele>
        <time>2024-09-18T14:24:44Z</time>
      </trkpt>
      <trkpt lat="46.4866" lon="4.91233">
        <ele>189.6</ele>
        <time>2024-09-18T14:24:45Z</time>
      </trkpt>
      <trkpt lat="46.48655" lon="4.91233">
        <ele>189.6</ele>
        <time>2024-09-18T14:24:46Z</time>
      </trkpt>
      <trkpt lat="46.4865" lon="4.91232">
        <ele>189.6</ele>
        <time>2024-09-18T14:24:47Z</time>
      </trkpt>
      <trkpt lat="46.48646" lon="4.91232">
        <ele>189.6</ele>
        <time>2024-09-18T14:24:48Z</time>
      </trkpt>
      <trkpt lat="46.48641" lon="4.91231">
        <ele>189.6</ele>
        <time>2024-09-18T14:24:49Z</time>
      </trkpt>
      <trkpt lat="46.48637" lon="4.9123">
        <ele>189.6</ele>
        <time>2024-09-18T14:24:50Z</time>
      </trkpt>
      <trkpt lat="46.48632" lon="4.91229">
        <ele>189.2</ele>
        <time>2024-09-18T14:24:51Z</time>
      </trkpt>
      <trkpt lat="46.48627" lon="4.91228">
        <ele>189.2</ele>
        <time>2024-09-18T14:24:52Z</time>
      </trkpt>
      <trkpt lat="46.48622" lon="4.91227">
        <ele>189.2</ele>
        <time>2024-09-18T14:24:53Z</time>
      </trkpt>
      <trkpt lat="46.48617" lon="4.91226">
        <ele>189.2</ele>
        <time>2024-09-18T14:24:54Z</time>
      </trkpt>
      <trkpt lat="46.48612" lon="4.91226">
        <ele>189.6</ele>
        <time>2024-09-18T14:24:55Z</time>
      </trkpt>
      <trkpt lat="46.48607" lon="4.91225">
        <ele>189.6</ele>
        <time>2024-09-18T14:24:56Z</time>
      </trkpt>
      <trkpt lat="46.48602" lon="4.91225">
        <ele>189.6</ele>
        <time>2024-09-18T14:24:57Z</time>
      </trkpt>
      <trkpt lat="46.48597" lon="4.91226">
        <ele>189.6</ele>
        <time>2024-09-18T14:24:58Z</time>
      </trkpt>
      <trkpt lat="46.48592" lon="4.91226">
        <ele>189.6</ele>
        <time>2024-09-18T14:24:59Z</time>
      </trkpt>
      <trkpt lat="46.48588" lon="4.91227">
        <ele>189.6</ele>
        <time>2024-09-18T14:25:00Z</time>
      </trkpt>
      <trkpt lat="46.48583" lon="4.91228">
        <ele>189.6</ele>
        <time>2024-09-18T14:25:01Z</time>
      </trkpt>
      <trkpt lat="46.48579" lon="4.91229">
        <ele>189.6</ele>
        <time>2024-09-18T14:25:02Z</time>
      </trkpt>
      <trkpt lat="46.48574" lon="4.9123">
        <ele>189.8</ele>
        <time>2024-09-18T14:25:03Z</time>
      </trkpt>
      <trkpt lat="46.4857" lon="4.9123">
        <ele>189.8</ele>
        <time>2024-09-18T14:25:04Z</time>
      </trkpt>
      <trkpt lat="46.48566" lon="4.91231">
        <ele>189.4</ele>
        <time>2024-09-18T14:25:05Z</time>
      </trkpt>
      <trkpt lat="46.48562" lon="4.91232">
        <ele>189.4</ele>
        <time>2024-09-18T14:25:06Z</time>
      </trkpt>
      <trkpt lat="46.48557" lon="4.91233">
        <ele>189.4</ele>
        <time>2024-09-18T14:25:07Z</time>
      </trkpt>
      <trkpt lat="46.48553" lon="4.91234">
        <ele>190</ele>
        <time>2024-09-18T14:25:08Z</time>
      </trkpt>
      <trkpt lat="46.48549" lon="4.91234">
        <ele>189.6</ele>
        <time>2024-09-18T14:25:09Z</time>
      </trkpt>
      <trkpt lat="46.48544" lon="4.91235">
        <ele>189.6</ele>
        <time>2024-09-18T14:25:10Z</time>
      </trkpt>
      <trkpt lat="46.4854" lon="4.91237">
        <ele>189.6</ele>
        <time>2024-09-18T14:25:11Z</time>
      </trkpt>
      <trkpt lat="46.48533" lon="4.91238">
        <ele>189.4</ele>
        <time>2024-09-18T14:25:12Z</time>
      </trkpt>
      <trkpt lat="46.48531" lon="4.91239">
        <ele>189.4</ele>
        <time>2024-09-18T14:25:13Z</time>
      </trkpt>
      <trkpt lat="46.48524" lon="4.91241">
        <ele>189.4</ele>
        <time>2024-09-18T14:25:14Z</time>
      </trkpt>
      <trkpt lat="46.48522" lon="4.91241">
        <ele>189.4</ele>
        <time>2024-09-18T14:25:15Z</time>
      </trkpt>
      <trkpt lat="46.48515" lon="4.91243">
        <ele>189.4</ele>
        <time>2024-09-18T14:25:16Z</time>
      </trkpt>
      <trkpt lat="46.48512" lon="4.91243">
        <ele>189.4</ele>
        <time>2024-09-18T14:25:17Z</time>
      </trkpt>
      <trkpt lat="46.48506" lon="4.91246">
        <ele>189</ele>
        <time>2024-09-18T14:25:18Z</time>
      </trkpt>
      <trkpt lat="46.48503" lon="4.91246">
        <ele>189</ele>
        <time>2024-09-18T14:25:19Z</time>
      </trkpt>
      <trkpt lat="46.48499" lon="4.91248">
        <ele>189</ele>
        <time>2024-09-18T14:25:20Z</time>
      </trkpt>
      <trkpt lat="46.48495" lon="4.91249">
        <ele>189</ele>
        <time>2024-09-18T14:25:21Z</time>
      </trkpt>
      <trkpt lat="46.48489" lon="4.91251">
        <ele>189</ele>
        <time>2024-09-18T14:25:22Z</time>
      </trkpt>
      <trkpt lat="46.48486" lon="4.91251">
        <ele>189</ele>
        <time>2024-09-18T14:25:23Z</time>
      </trkpt>
      <trkpt lat="46.4848" lon="4.91253">
        <ele>189</ele>
        <time>2024-09-18T14:25:24Z</time>
      </trkpt>
      <trkpt lat="46.48478" lon="4.91254">
        <ele>189</ele>
        <time>2024-09-18T14:25:25Z</time>
      </trkpt>
      <trkpt lat="46.48471" lon="4.91254">
        <ele>189</ele>
        <time>2024-09-18T14:25:26Z</time>
      </trkpt>
      <trkpt lat="46.48469" lon="4.91254">
        <ele>189.2</ele>
        <time>2024-09-18T14:25:27Z</time>
      </trkpt>
      <trkpt lat="46.48464" lon="4.91255">
        <ele>189.2</ele>
        <time>2024-09-18T14:25:28Z</time>
      </trkpt>
      <trkpt lat="46.4846" lon="4.91255">
        <ele>189.2</ele>
        <time>2024-09-18T14:25:29Z</time>
      </trkpt>
      <trkpt lat="46.48455" lon="4.91255">
        <ele>189.2</ele>
        <time>2024-09-18T14:25:30Z</time>
      </trkpt>
      <trkpt lat="46.48451" lon="4.91255">
        <ele>189.2</ele>
        <time>2024-09-18T14:25:31Z</time>
      </trkpt>
      <trkpt lat="46.48447" lon="4.91255">
        <ele>189</ele>
        <time>2024-09-18T14:25:32Z</time>
      </trkpt>
      <trkpt lat="46.48442" lon="4.91255">
        <ele>189</ele>
        <time>2024-09-18T14:25:33Z</time>
      </trkpt>
      <trkpt lat="46.48438" lon="4.91255">
        <ele>189</ele>
        <time>2024-09-18T14:25:34Z</time>
      </trkpt>
      <trkpt lat="46.48433" lon="4.91255">
        <ele>189.2</ele>
        <time>2024-09-18T14:25:35Z</time>
      </trkpt>
      <trkpt lat="46.48429" lon="4.91255">
        <ele>189.2</ele>
        <time>2024-09-18T14:25:36Z</time>
      </trkpt>
      <trkpt lat="46.48424" lon="4.91255">
        <ele>189.2</ele>
        <time>2024-09-18T14:25:37Z</time>
      </trkpt>
      <trkpt lat="46.48419" lon="4.91255">
        <ele>189.2</ele>
        <time>2024-09-18T14:25:38Z</time>
      </trkpt>
      <trkpt lat="46.48414" lon="4.91255">
        <ele>189.2</ele>
        <time>2024-09-18T14:25:39Z</time>
      </trkpt>
      <trkpt lat="46.48409" lon="4.91255">
        <ele>189.2</ele>
        <time>2024-09-18T14:25:40Z</time>
      </trkpt>
      <trkpt lat="46.48405" lon="4.91255">
        <ele>189.2</ele>
        <time>2024-09-18T14:25:41Z</time>
      </trkpt>
      <trkpt lat="46.484" lon="4.91255">
        <ele>189.2</ele>
        <time>2024-09-18T14:25:42Z</time>
      </trkpt>
      <trkpt lat="46.48395" lon="4.91255">
        <ele>189.2</ele>
        <time>2024-09-18T14:25:43Z</time>
      </trkpt>
      <trkpt lat="46.4839" lon="4.91255">
        <ele>189.2</ele>
        <time>2024-09-18T14:25:44Z</time>
      </trkpt>
      <trkpt lat="46.48385" lon="4.91255">
        <ele>189.2</ele>
        <time>2024-09-18T14:25:45Z</time>
      </trkpt>
      <trkpt lat="46.4838" lon="4.91255">
        <ele>189.2</ele>
        <time>2024-09-18T14:25:46Z</time>
      </trkpt>
      <trkpt lat="46.48376" lon="4.91256">
        <ele>189.2</ele>
        <time>2024-09-18T14:25:47Z</time>
      </trkpt>
      <trkpt lat="46.48371" lon="4.91256">
        <ele>189.2</ele>
        <time>2024-09-18T14:25:48Z</time>
      </trkpt>
      <trkpt lat="46.48367" lon="4.91256">
        <ele>189.2</ele>
        <time>2024-09-18T14:25:49Z</time>
      </trkpt>
      <trkpt lat="46.48362" lon="4.91255">
        <ele>189.2</ele>
        <time>2024-09-18T14:25:50Z</time>
      </trkpt>
      <trkpt lat="46.48357" lon="4.91255">
        <ele>189.2</ele>
        <time>2024-09-18T14:25:51Z</time>
      </trkpt>
      <trkpt lat="46.48352" lon="4.91255">
        <ele>189.2</ele>
        <time>2024-09-18T14:25:52Z</time>
      </trkpt>
      <trkpt lat="46.48348" lon="4.91256">
        <ele>189.4</ele>
        <time>2024-09-18T14:25:53Z</time>
      </trkpt>
      <trkpt lat="46.48344" lon="4.91256">
        <ele>189.4</ele>
        <time>2024-09-18T14:25:54Z</time>
      </trkpt>
      <trkpt lat="46.48338" lon="4.91256">
        <ele>189.4</ele>
        <time>2024-09-18T14:25:55Z</time>
      </trkpt>
      <trkpt lat="46.48336" lon="4.91257">
        <ele>189.4</ele>
        <time>2024-09-18T14:25:56Z</time>
      </trkpt>
      <trkpt lat="46.48329" lon="4.91256">
        <ele>189.6</ele>
        <time>2024-09-18T14:25:57Z</time>
      </trkpt>
      <trkpt lat="46.48327" lon="4.91257">
        <ele>189.4</ele>
        <time>2024-09-18T14:25:58Z</time>
      </trkpt>
      <trkpt lat="46.4832" lon="4.91257">
        <ele>189.4</ele>
        <time>2024-09-18T14:25:59Z</time>
      </trkpt>
      <trkpt lat="46.48318" lon="4.91257">
        <ele>189.4</ele>
        <time>2024-09-18T14:26:00Z</time>
      </trkpt>
      <trkpt lat="46.4831" lon="4.91257">
        <ele>189.6</ele>
        <time>2024-09-18T14:26:01Z</time>
      </trkpt>
      <trkpt lat="46.48308" lon="4.91257">
        <ele>189.6</ele>
        <time>2024-09-18T14:26:02Z</time>
      </trkpt>
      <trkpt lat="46.48301" lon="4.91257">
        <ele>189.6</ele>
        <time>2024-09-18T14:26:03Z</time>
      </trkpt>
      <trkpt lat="46.48298" lon="4.91258">
        <ele>189.6</ele>
        <time>2024-09-18T14:26:04Z</time>
      </trkpt>
      <trkpt lat="46.48293" lon="4.91258">
        <ele>189.6</ele>
        <time>2024-09-18T14:26:05Z</time>
      </trkpt>
      <trkpt lat="46.48288" lon="4.91259">
        <ele>189.6</ele>
        <time>2024-09-18T14:26:06Z</time>
      </trkpt>
      <trkpt lat="46.48281" lon="4.91261">
        <ele>189.6</ele>
        <time>2024-09-18T14:26:07Z</time>
      </trkpt>
      <trkpt lat="46.48278" lon="4.91261">
        <ele>189.8</ele>
        <time>2024-09-18T14:26:08Z</time>
      </trkpt>
      <trkpt lat="46.48271" lon="4.91262">
        <ele>189.8</ele>
        <time>2024-09-18T14:26:09Z</time>
      </trkpt>
      <trkpt lat="46.48269" lon="4.91262">
        <ele>189.8</ele>
        <time>2024-09-18T14:26:10Z</time>
      </trkpt>
      <trkpt lat="46.48261" lon="4.91263">
        <ele>189.8</ele>
        <time>2024-09-18T14:26:11Z</time>
      </trkpt>
      <trkpt lat="46.48259" lon="4.91263">
        <ele>189.2</ele>
        <time>2024-09-18T14:26:12Z</time>
      </trkpt>
      <trkpt lat="46.48251" lon="4.91263">
        <ele>189.2</ele>
        <time>2024-09-18T14:26:13Z</time>
      </trkpt>
      <trkpt lat="46.48249" lon="4.91262">
        <ele>189.2</ele>
        <time>2024-09-18T14:26:14Z</time>
      </trkpt>
      <trkpt lat="46.48244" lon="4.91262">
        <ele>189.6</ele>
        <time>2024-09-18T14:26:15Z</time>
      </trkpt>
      <trkpt lat="46.48239" lon="4.91261">
        <ele>189.6</ele>
        <time>2024-09-18T14:26:16Z</time>
      </trkpt>
      <trkpt lat="46.48234" lon="4.91261">
        <ele>189.6</ele>
        <time>2024-09-18T14:26:17Z</time>
      </trkpt>
      <trkpt lat="46.48229" lon="4.9126">
        <ele>189.6</ele>
        <time>2024-09-18T14:26:18Z</time>
      </trkpt>
      <trkpt lat="46.48225" lon="4.91259">
        <ele>189.6</ele>
        <time>2024-09-18T14:26:19Z</time>
      </trkpt>
      <trkpt lat="46.4822" lon="4.91259">
        <ele>189.8</ele>
        <time>2024-09-18T14:26:20Z</time>
      </trkpt>
      <trkpt lat="46.48215" lon="4.91258">
        <ele>189.8</ele>
        <time>2024-09-18T14:26:21Z</time>
      </trkpt>
      <trkpt lat="46.4821" lon="4.91258">
        <ele>189.8</ele>
        <time>2024-09-18T14:26:22Z</time>
      </trkpt>
      <trkpt lat="46.48205" lon="4.91257">
        <ele>189.8</ele>
        <time>2024-09-18T14:26:23Z</time>
      </trkpt>
      <trkpt lat="46.482" lon="4.91257">
        <ele>189.2</ele>
        <time>2024-09-18T14:26:24Z</time>
      </trkpt>
      <trkpt lat="46.48196" lon="4.91256">
        <ele>190</ele>
        <time>2024-09-18T14:26:25Z</time>
      </trkpt>
      <trkpt lat="46.48189" lon="4.91256">
        <ele>190</ele>
        <time>2024-09-18T14:26:26Z</time>
      </trkpt>
      <trkpt lat="46.48186" lon="4.91255">
        <ele>190</ele>
        <time>2024-09-18T14:26:27Z</time>
      </trkpt>
      <trkpt lat="46.48182" lon="4.91255">
        <ele>190</ele>
        <time>2024-09-18T14:26:28Z</time>
      </trkpt>
      <trkpt lat="46.48177" lon="4.91255">
        <ele>189.8</ele>
        <time>2024-09-18T14:26:29Z</time>
      </trkpt>
      <trkpt lat="46.48173" lon="4.91254">
        <ele>189.8</ele>
        <time>2024-09-18T14:26:30Z</time>
      </trkpt>
      <trkpt lat="46.48168" lon="4.91254">
        <ele>189.8</ele>
        <time>2024-09-18T14:26:31Z</time>
      </trkpt>
      <trkpt lat="46.48165" lon="4.91253">
        <ele>189.8</ele>
        <time>2024-09-18T14:26:32Z</time>
      </trkpt>
      <trkpt lat="46.4816" lon="4.91253">
        <ele>190</ele>
        <time>2024-09-18T14:26:33Z</time>
      </trkpt>
      <trkpt lat="46.48156" lon="4.91252">
        <ele>190</ele>
        <time>2024-09-18T14:26:34Z</time>
      </trkpt>
      <trkpt lat="46.48152" lon="4.91253">
        <ele>190</ele>
        <time>2024-09-18T14:26:35Z</time>
      </trkpt>
      <trkpt lat="46.48148" lon="4.91252">
        <ele>190.2</ele>
        <time>2024-09-18T14:26:36Z</time>
      </trkpt>
      <trkpt lat="46.48145" lon="4.91252">
        <ele>190.2</ele>
        <time>2024-09-18T14:26:37Z</time>
      </trkpt>
      <trkpt lat="46.4814" lon="4.91252">
        <ele>190</ele>
        <time>2024-09-18T14:26:38Z</time>
      </trkpt>
      <trkpt lat="46.48139" lon="4.91252">
        <ele>190</ele>
        <time>2024-09-18T14:26:39Z</time>
      </trkpt>
      <trkpt lat="46.48133" lon="4.91251">
        <ele>190</ele>
        <time>2024-09-18T14:26:40Z</time>
      </trkpt>
      <trkpt lat="46.48131" lon="4.91251">
        <ele>190.2</ele>
        <time>2024-09-18T14:26:41Z</time>
      </trkpt>
      <trkpt lat="46.48125" lon="4.91252">
        <ele>190.4</ele>
        <time>2024-09-18T14:26:42Z</time>
      </trkpt>
      <trkpt lat="46.48123" lon="4.91252">
        <ele>190.4</ele>
        <time>2024-09-18T14:26:43Z</time>
      </trkpt>
      <trkpt lat="46.48118" lon="4.91252">
        <ele>190.4</ele>
        <time>2024-09-18T14:26:44Z</time>
      </trkpt>
      <trkpt lat="46.48116" lon="4.91253">
        <ele>189.8</ele>
        <time>2024-09-18T14:26:45Z</time>
      </trkpt>
      <trkpt lat="46.4811" lon="4.91252">
        <ele>189.8</ele>
        <time>2024-09-18T14:26:46Z</time>
      </trkpt>
      <trkpt lat="46.48108" lon="4.91252">
        <ele>189.8</ele>
        <time>2024-09-18T14:26:47Z</time>
      </trkpt>
      <trkpt lat="46.48102" lon="4.91253">
        <ele>189.8</ele>
        <time>2024-09-18T14:26:48Z</time>
      </trkpt>
      <trkpt lat="46.481" lon="4.91253">
        <ele>189.8</ele>
        <time>2024-09-18T14:26:49Z</time>
      </trkpt>
      <trkpt lat="46.48094" lon="4.91254">
        <ele>189.8</ele>
        <time>2024-09-18T14:26:50Z</time>
      </trkpt>
      <trkpt lat="46.48092" lon="4.91255">
        <ele>189.8</ele>
        <time>2024-09-18T14:26:51Z</time>
      </trkpt>
      <trkpt lat="46.48086" lon="4.91256">
        <ele>189.2</ele>
        <time>2024-09-18T14:26:52Z</time>
      </trkpt>
      <trkpt lat="46.48084" lon="4.91256">
        <ele>189.2</ele>
        <time>2024-09-18T14:26:53Z</time>
      </trkpt>
      <trkpt lat="46.48078" lon="4.91257">
        <ele>189.2</ele>
        <time>2024-09-18T14:26:54Z</time>
      </trkpt>
      <trkpt lat="46.48076" lon="4.91258">
        <ele>189.2</ele>
        <time>2024-09-18T14:26:55Z</time>
      </trkpt>
      <trkpt lat="46.48072" lon="4.91258">
        <ele>189.6</ele>
        <time>2024-09-18T14:26:56Z</time>
      </trkpt>
      <trkpt lat="46.48068" lon="4.91259">
        <ele>189.6</ele>
        <time>2024-09-18T14:26:57Z</time>
      </trkpt>
      <trkpt lat="46.48064" lon="4.91259">
        <ele>189.6</ele>
        <time>2024-09-18T14:26:58Z</time>
      </trkpt>
      <trkpt lat="46.4806" lon="4.91259">
        <ele>189.4</ele>
        <time>2024-09-18T14:26:59Z</time>
      </trkpt>
      <trkpt lat="46.48056" lon="4.91259">
        <ele>189.4</ele>
        <time>2024-09-18T14:27:00Z</time>
      </trkpt>
      <trkpt lat="46.48051" lon="4.91259">
        <ele>189.2</ele>
        <time>2024-09-18T14:27:01Z</time>
      </trkpt>
      <trkpt lat="46.48046" lon="4.9126">
        <ele>189.2</ele>
        <time>2024-09-18T14:27:02Z</time>
      </trkpt>
      <trkpt lat="46.48041" lon="4.91259">
        <ele>189.2</ele>
        <time>2024-09-18T14:27:03Z</time>
      </trkpt>
      <trkpt lat="46.48036" lon="4.91259">
        <ele>189.6</ele>
        <time>2024-09-18T14:27:04Z</time>
      </trkpt>
      <trkpt lat="46.48031" lon="4.91259">
        <ele>189.6</ele>
        <time>2024-09-18T14:27:05Z</time>
      </trkpt>
      <trkpt lat="46.48026" lon="4.9126">
        <ele>189.6</ele>
        <time>2024-09-18T14:27:06Z</time>
      </trkpt>
      <trkpt lat="46.48022" lon="4.9126">
        <ele>189.6</ele>
        <time>2024-09-18T14:27:07Z</time>
      </trkpt>
      <trkpt lat="46.48017" lon="4.91261">
        <ele>189.6</ele>
        <time>2024-09-18T14:27:08Z</time>
      </trkpt>
      <trkpt lat="46.48012" lon="4.91262">
        <ele>189.6</ele>
        <time>2024-09-18T14:27:09Z</time>
      </trkpt>
      <trkpt lat="46.48007" lon="4.91263">
        <ele>189.6</ele>
        <time>2024-09-18T14:27:10Z</time>
      </trkpt>
      <trkpt lat="46.48002" lon="4.91264">
        <ele>189.6</ele>
        <time>2024-09-18T14:27:11Z</time>
      </trkpt>
      <trkpt lat="46.47997" lon="4.91264">
        <ele>189.6</ele>
        <time>2024-09-18T14:27:12Z</time>
      </trkpt>
      <trkpt lat="46.47993" lon="4.91265">
        <ele>189.2</ele>
        <time>2024-09-18T14:27:13Z</time>
      </trkpt>
      <trkpt lat="46.47988" lon="4.91265">
        <ele>189.2</ele>
        <time>2024-09-18T14:27:14Z</time>
      </trkpt>
      <trkpt lat="46.47983" lon="4.91266">
        <ele>189.2</ele>
        <time>2024-09-18T14:27:15Z</time>
      </trkpt>
      <trkpt lat="46.47979" lon="4.91266">
        <ele>189.2</ele>
        <time>2024-09-18T14:27:16Z</time>
      </trkpt>
      <trkpt lat="46.47974" lon="4.91267">
        <ele>189.6</ele>
        <time>2024-09-18T14:27:17Z</time>
      </trkpt>
      <trkpt lat="46.4797" lon="4.91268">
        <ele>189.4</ele>
        <time>2024-09-18T14:27:18Z</time>
      </trkpt>
      <trkpt lat="46.47964" lon="4.91268">
        <ele>189.4</ele>
        <time>2024-09-18T14:27:19Z</time>
      </trkpt>
      <trkpt lat="46.47962" lon="4.91269">
        <ele>189.4</ele>
        <time>2024-09-18T14:27:20Z</time>
      </trkpt>
      <trkpt lat="46.47955" lon="4.9127">
        <ele>189.4</ele>
        <time>2024-09-18T14:27:21Z</time>
      </trkpt>
      <trkpt lat="46.47952" lon="4.91271">
        <ele>189.4</ele>
        <time>2024-09-18T14:27:22Z</time>
      </trkpt>
      <trkpt lat="46.47945" lon="4.91272">
        <ele>189.4</ele>
        <time>2024-09-18T14:27:23Z</time>
      </trkpt>
      <trkpt lat="46.47942" lon="4.91273">
        <ele>189.4</ele>
        <time>2024-09-18T14:27:24Z</time>
      </trkpt>
      <trkpt lat="46.47935" lon="4.91274">
        <ele>189.4</ele>
        <time>2024-09-18T14:27:25Z</time>
      </trkpt>
      <trkpt lat="46.47933" lon="4.91274">
        <ele>189.6</ele>
        <time>2024-09-18T14:27:26Z</time>
      </trkpt>
      <trkpt lat="46.47928" lon="4.91275">
        <ele>189.6</ele>
        <time>2024-09-18T14:27:27Z</time>
      </trkpt>
      <trkpt lat="46.47923" lon="4.91276">
        <ele>189.6</ele>
        <time>2024-09-18T14:27:28Z</time>
      </trkpt>
      <trkpt lat="46.47916" lon="4.91277">
        <ele>189.6</ele>
        <time>2024-09-18T14:27:29Z</time>
      </trkpt>
      <trkpt lat="46.47913" lon="4.91277">
        <ele>189.6</ele>
        <time>2024-09-18T14:27:30Z</time>
      </trkpt>
      <trkpt lat="46.47906" lon="4.91278">
        <ele>189.6</ele>
        <time>2024-09-18T14:27:31Z</time>
      </trkpt>
      <trkpt lat="46.47904" lon="4.91278">
        <ele>189.6</ele>
        <time>2024-09-18T14:27:32Z</time>
      </trkpt>
      <trkpt lat="46.47897" lon="4.91279">
        <ele>189.2</ele>
        <time>2024-09-18T14:27:33Z</time>
      </trkpt>
      <trkpt lat="46.47895" lon="4.91279">
        <ele>189.2</ele>
        <time>2024-09-18T14:27:34Z</time>
      </trkpt>
      <trkpt lat="46.47889" lon="4.9128">
        <ele>189.2</ele>
        <time>2024-09-18T14:27:35Z</time>
      </trkpt>
      <trkpt lat="46.47886" lon="4.9128">
        <ele>189.6</ele>
        <time>2024-09-18T14:27:36Z</time>
      </trkpt>
      <trkpt lat="46.47882" lon="4.9128">
        <ele>189.6</ele>
        <time>2024-09-18T14:27:37Z</time>
      </trkpt>
      <trkpt lat="46.47878" lon="4.91281">
        <ele>189.6</ele>
        <time>2024-09-18T14:27:38Z</time>
      </trkpt>
      <trkpt lat="46.47873" lon="4.91281">
        <ele>189.6</ele>
        <time>2024-09-18T14:27:39Z</time>
      </trkpt>
      <trkpt lat="46.47869" lon="4.91281">
        <ele>189.6</ele>
        <time>2024-09-18T14:27:40Z</time>
      </trkpt>
      <trkpt lat="46.47864" lon="4.91282">
        <ele>189.6</ele>
        <time>2024-09-18T14:27:41Z</time>
      </trkpt>
      <trkpt lat="46.4786" lon="4.91282">
        <ele>189.6</ele>
        <time>2024-09-18T14:27:42Z</time>
      </trkpt>
      <trkpt lat="46.47855" lon="4.91283">
        <ele>189.6</ele>
        <time>2024-09-18T14:27:43Z</time>
      </trkpt>
      <trkpt lat="46.47851" lon="4.91283">
        <ele>189.6</ele>
        <time>2024-09-18T14:27:44Z</time>
      </trkpt>
      <trkpt lat="46.47846" lon="4.91284">
        <ele>189.6</ele>
        <time>2024-09-18T14:27:45Z</time>
      </trkpt>
      <trkpt lat="46.47841" lon="4.91285">
        <ele>189.8</ele>
        <time>2024-09-18T14:27:46Z</time>
      </trkpt>
      <trkpt lat="46.47837" lon="4.91285">
        <ele>189.8</ele>
        <time>2024-09-18T14:27:47Z</time>
      </trkpt>
      <trkpt lat="46.47832" lon="4.91286">
        <ele>189.8</ele>
        <time>2024-09-18T14:27:48Z</time>
      </trkpt>
      <trkpt lat="46.47827" lon="4.91287">
        <ele>189.8</ele>
        <time>2024-09-18T14:27:49Z</time>
      </trkpt>
      <trkpt lat="46.47822" lon="4.91288">
        <ele>189.6</ele>
        <time>2024-09-18T14:27:50Z</time>
      </trkpt>
      <trkpt lat="46.47818" lon="4.91288">
        <ele>189.6</ele>
        <time>2024-09-18T14:27:51Z</time>
      </trkpt>
      <trkpt lat="46.47813" lon="4.91289">
        <ele>189.6</ele>
        <time>2024-09-18T14:27:52Z</time>
      </trkpt>
      <trkpt lat="46.47806" lon="4.91291">
        <ele>189.6</ele>
        <time>2024-09-18T14:27:53Z</time>
      </trkpt>
      <trkpt lat="46.47803" lon="4.91291">
        <ele>189.4</ele>
        <time>2024-09-18T14:27:54Z</time>
      </trkpt>
      <trkpt lat="46.47799" lon="4.91293">
        <ele>189.4</ele>
        <time>2024-09-18T14:27:55Z</time>
      </trkpt>
      <trkpt lat="46.47795" lon="4.91294">
        <ele>189.4</ele>
        <time>2024-09-18T14:27:56Z</time>
      </trkpt>
      <trkpt lat="46.47791" lon="4.91296">
        <ele>189.4</ele>
        <time>2024-09-18T14:27:57Z</time>
      </trkpt>
      <trkpt lat="46.47787" lon="4.91298">
        <ele>189.4</ele>
        <time>2024-09-18T14:27:58Z</time>
      </trkpt>
      <trkpt lat="46.47783" lon="4.913">
        <ele>189.4</ele>
        <time>2024-09-18T14:27:59Z</time>
      </trkpt>
      <trkpt lat="46.47778" lon="4.91302">
        <ele>189.4</ele>
        <time>2024-09-18T14:28:00Z</time>
      </trkpt>
      <trkpt lat="46.47774" lon="4.91304">
        <ele>189.4</ele>
        <time>2024-09-18T14:28:01Z</time>
      </trkpt>
      <trkpt lat="46.4777" lon="4.91306">
        <ele>189.2</ele>
        <time>2024-09-18T14:28:02Z</time>
      </trkpt>
      <trkpt lat="46.47763" lon="4.91309">
        <ele>189.2</ele>
        <time>2024-09-18T14:28:03Z</time>
      </trkpt>
      <trkpt lat="46.47761" lon="4.9131">
        <ele>189.2</ele>
        <time>2024-09-18T14:28:04Z</time>
      </trkpt>
      <trkpt lat="46.47754" lon="4.91314">
        <ele>189.2</ele>
        <time>2024-09-18T14:28:05Z</time>
      </trkpt>
      <trkpt lat="46.47751" lon="4.91314">
        <ele>189.2</ele>
        <time>2024-09-18T14:28:06Z</time>
      </trkpt>
      <trkpt lat="46.47744" lon="4.91317">
        <ele>189.2</ele>
        <time>2024-09-18T14:28:07Z</time>
      </trkpt>
      <trkpt lat="46.47741" lon="4.91317">
        <ele>188.6</ele>
        <time>2024-09-18T14:28:08Z</time>
      </trkpt>
      <trkpt lat="46.47734" lon="4.91319">
        <ele>188.6</ele>
        <time>2024-09-18T14:28:09Z</time>
      </trkpt>
      <trkpt lat="46.47731" lon="4.9132">
        <ele>188.6</ele>
        <time>2024-09-18T14:28:10Z</time>
      </trkpt>
      <trkpt lat="46.47724" lon="4.91321">
        <ele>189</ele>
        <time>2024-09-18T14:28:11Z</time>
      </trkpt>
      <trkpt lat="46.47721" lon="4.91322">
        <ele>188.8</ele>
        <time>2024-09-18T14:28:12Z</time>
      </trkpt>
      <trkpt lat="46.47714" lon="4.91323">
        <ele>188.8</ele>
        <time>2024-09-18T14:28:13Z</time>
      </trkpt>
      <trkpt lat="46.47712" lon="4.91324">
        <ele>188.8</ele>
        <time>2024-09-18T14:28:14Z</time>
      </trkpt>
      <trkpt lat="46.47704" lon="4.91325">
        <ele>188.8</ele>
        <time>2024-09-18T14:28:15Z</time>
      </trkpt>
      <trkpt lat="46.47702" lon="4.91326">
        <ele>188.8</ele>
        <time>2024-09-18T14:28:16Z</time>
      </trkpt>
      <trkpt lat="46.47694" lon="4.91327">
        <ele>188.8</ele>
        <time>2024-09-18T14:28:17Z</time>
      </trkpt>
      <trkpt lat="46.47692" lon="4.91328">
        <ele>188.6</ele>
        <time>2024-09-18T14:28:18Z</time>
      </trkpt>
      <trkpt lat="46.47685" lon="4.91329">
        <ele>188.6</ele>
        <time>2024-09-18T14:28:19Z</time>
      </trkpt>
      <trkpt lat="46.47682" lon="4.91329">
        <ele>188.6</ele>
        <time>2024-09-18T14:28:20Z</time>
      </trkpt>
      <trkpt lat="46.47677" lon="4.91329">
        <ele>189.2</ele>
        <time>2024-09-18T14:28:21Z</time>
      </trkpt>
      <trkpt lat="46.47672" lon="4.91329">
        <ele>188.8</ele>
        <time>2024-09-18T14:28:22Z</time>
      </trkpt>
      <trkpt lat="46.47667" lon="4.91329">
        <ele>188.8</ele>
        <time>2024-09-18T14:28:23Z</time>
      </trkpt>
      <trkpt lat="46.47663" lon="4.91329">
        <ele>188.8</ele>
        <time>2024-09-18T14:28:24Z</time>
      </trkpt>
      <trkpt lat="46.47659" lon="4.9133">
        <ele>189.6</ele>
        <time>2024-09-18T14:28:25Z</time>
      </trkpt>
      <trkpt lat="46.47655" lon="4.9133">
        <ele>190</ele>
        <time>2024-09-18T14:28:26Z</time>
      </trkpt>
      <trkpt lat="46.47652" lon="4.9133">
        <ele>190</ele>
        <time>2024-09-18T14:28:27Z</time>
      </trkpt>
      <trkpt lat="46.47649" lon="4.91331">
        <ele>190</ele>
        <time>2024-09-18T14:28:28Z</time>
      </trkpt>
      <trkpt lat="46.47646" lon="4.91332">
        <ele>190.6</ele>
        <time>2024-09-18T14:28:29Z</time>
      </trkpt>
      <trkpt lat="46.47642" lon="4.91333">
        <ele>190.6</ele>
        <time>2024-09-18T14:28:30Z</time>
      </trkpt>
      <trkpt lat="46.47638" lon="4.91334">
        <ele>190.8</ele>
        <time>2024-09-18T14:28:31Z</time>
      </trkpt>
      <trkpt lat="46.47635" lon="4.91335">
        <ele>190.8</ele>
        <time>2024-09-18T14:28:32Z</time>
      </trkpt>
      <trkpt lat="46.47631" lon="4.91337">
        <ele>190.8</ele>
        <time>2024-09-18T14:28:33Z</time>
      </trkpt>
      <trkpt lat="46.47627" lon="4.91338">
        <ele>190.4</ele>
        <time>2024-09-18T14:28:34Z</time>
      </trkpt>
      <trkpt lat="46.47623" lon="4.9134">
        <ele>190.2</ele>
        <time>2024-09-18T14:28:35Z</time>
      </trkpt>
      <trkpt lat="46.47619" lon="4.91342">
        <ele>190.2</ele>
        <time>2024-09-18T14:28:36Z</time>
      </trkpt>
      <trkpt lat="46.47615" lon="4.91344">
        <ele>190.2</ele>
        <time>2024-09-18T14:28:37Z</time>
      </trkpt>
      <trkpt lat="46.4761" lon="4.91347">
        <ele>190.2</ele>
        <time>2024-09-18T14:28:38Z</time>
      </trkpt>
      <trkpt lat="46.47606" lon="4.91349">
        <ele>189.8</ele>
        <time>2024-09-18T14:28:39Z</time>
      </trkpt>
      <trkpt lat="46.47602" lon="4.91352">
        <ele>189.8</ele>
        <time>2024-09-18T14:28:40Z</time>
      </trkpt>
      <trkpt lat="46.47598" lon="4.91354">
        <ele>189.8</ele>
        <time>2024-09-18T14:28:41Z</time>
      </trkpt>
      <trkpt lat="46.47594" lon="4.91356">
        <ele>189.8</ele>
        <time>2024-09-18T14:28:42Z</time>
      </trkpt>
      <trkpt lat="46.47589" lon="4.91358">
        <ele>189.6</ele>
        <time>2024-09-18T14:28:43Z</time>
      </trkpt>
      <trkpt lat="46.47585" lon="4.9136">
        <ele>189.6</ele>
        <time>2024-09-18T14:28:44Z</time>
      </trkpt>
      <trkpt lat="46.47579" lon="4.91362">
        <ele>189.6</ele>
        <time>2024-09-18T14:28:45Z</time>
      </trkpt>
      <trkpt lat="46.47576" lon="4.91363">
        <ele>189.6</ele>
        <time>2024-09-18T14:28:46Z</time>
      </trkpt>
      <trkpt lat="46.4757" lon="4.91366">
        <ele>189.6</ele>
        <time>2024-09-18T14:28:47Z</time>
      </trkpt>
      <trkpt lat="46.47568" lon="4.91367">
        <ele>189.6</ele>
        <time>2024-09-18T14:28:48Z</time>
      </trkpt>
      <trkpt lat="46.47562" lon="4.91369">
        <ele>189.6</ele>
        <time>2024-09-18T14:28:49Z</time>
      </trkpt>
      <trkpt lat="46.4756" lon="4.9137">
        <ele>189.6</ele>
        <time>2024-09-18T14:28:50Z</time>
      </trkpt>
      <trkpt lat="46.47553" lon="4.91372">
        <ele>189.6</ele>
        <time>2024-09-18T14:28:51Z</time>
      </trkpt>
      <trkpt lat="46.47551" lon="4.91373">
        <ele>189.4</ele>
        <time>2024-09-18T14:28:52Z</time>
      </trkpt>
      <trkpt lat="46.47544" lon="4.91375">
        <ele>189.4</ele>
        <time>2024-09-18T14:28:53Z</time>
      </trkpt>
      <trkpt lat="46.47542" lon="4.91375">
        <ele>189.4</ele>
        <time>2024-09-18T14:28:54Z</time>
      </trkpt>
      <trkpt lat="46.47535" lon="4.91377">
        <ele>189.4</ele>
        <time>2024-09-18T14:28:55Z</time>
      </trkpt>
      <trkpt lat="46.47532" lon="4.91378">
        <ele>189.6</ele>
        <time>2024-09-18T14:28:56Z</time>
      </trkpt>
      <trkpt lat="46.47525" lon="4.91379">
        <ele>189.6</ele>
        <time>2024-09-18T14:28:57Z</time>
      </trkpt>
      <trkpt lat="46.47523" lon="4.9138">
        <ele>189.6</ele>
        <time>2024-09-18T14:28:58Z</time>
      </trkpt>
      <trkpt lat="46.47516" lon="4.91382">
        <ele>189.6</ele>
        <time>2024-09-18T14:28:59Z</time>
      </trkpt>
      <trkpt lat="46.47514" lon="4.91382">
        <ele>189.6</ele>
        <time>2024-09-18T14:29:00Z</time>
      </trkpt>
      <trkpt lat="46.47507" lon="4.91384">
        <ele>189.6</ele>
        <time>2024-09-18T14:29:01Z</time>
      </trkpt>
      <trkpt lat="46.47504" lon="4.91384">
        <ele>189.6</ele>
        <time>2024-09-18T14:29:02Z</time>
      </trkpt>
      <trkpt lat="46.47499" lon="4.91385">
        <ele>189.6</ele>
        <time>2024-09-18T14:29:03Z</time>
      </trkpt>
      <trkpt lat="46.47495" lon="4.91387">
        <ele>189.6</ele>
        <time>2024-09-18T14:29:04Z</time>
      </trkpt>
      <trkpt lat="46.4749" lon="4.91388">
        <ele>189.6</ele>
        <time>2024-09-18T14:29:05Z</time>
      </trkpt>
      <trkpt lat="46.47485" lon="4.91389">
        <ele>189.6</ele>
        <time>2024-09-18T14:29:06Z</time>
      </trkpt>
      <trkpt lat="46.4748" lon="4.91389">
        <ele>189.6</ele>
        <time>2024-09-18T14:29:07Z</time>
      </trkpt>
      <trkpt lat="46.47475" lon="4.9139">
        <ele>189.6</ele>
        <time>2024-09-18T14:29:08Z</time>
      </trkpt>
      <trkpt lat="46.47471" lon="4.91391">
        <ele>189.6</ele>
        <time>2024-09-18T14:29:09Z</time>
      </trkpt>
      <trkpt lat="46.47466" lon="4.91392">
        <ele>189.6</ele>
        <time>2024-09-18T14:29:10Z</time>
      </trkpt>
      <trkpt lat="46.47461" lon="4.91393">
        <ele>189.6</ele>
        <time>2024-09-18T14:29:11Z</time>
      </trkpt>
      <trkpt lat="46.47456" lon="4.91394">
        <ele>189.6</ele>
        <time>2024-09-18T14:29:12Z</time>
      </trkpt>
      <trkpt lat="46.47451" lon="4.91395">
        <ele>189.6</ele>
        <time>2024-09-18T14:29:13Z</time>
      </trkpt>
      <trkpt lat="46.47447" lon="4.91396">
        <ele>189.6</ele>
        <time>2024-09-18T14:29:14Z</time>
      </trkpt>
      <trkpt lat="46.47442" lon="4.91397">
        <ele>189.4</ele>
        <time>2024-09-18T14:29:15Z</time>
      </trkpt>
      <trkpt lat="46.47438" lon="4.91398">
        <ele>189.4</ele>
        <time>2024-09-18T14:29:16Z</time>
      </trkpt>
      <trkpt lat="46.47434" lon="4.91399">
        <ele>189.4</ele>
        <time>2024-09-18T14:29:17Z</time>
      </trkpt>
      <trkpt lat="46.47429" lon="4.91399">
        <ele>189.4</ele>
        <time>2024-09-18T14:29:18Z</time>
      </trkpt>
      <trkpt lat="46.47425" lon="4.914">
        <ele>189.4</ele>
        <time>2024-09-18T14:29:19Z</time>
      </trkpt>
      <trkpt lat="46.47421" lon="4.91401">
        <ele>189.4</ele>
        <time>2024-09-18T14:29:20Z</time>
      </trkpt>
      <trkpt lat="46.47416" lon="4.91402">
        <ele>189.4</ele>
        <time>2024-09-18T14:29:21Z</time>
      </trkpt>
      <trkpt lat="46.47412" lon="4.91402">
        <ele>189.4</ele>
        <time>2024-09-18T14:29:22Z</time>
      </trkpt>
      <trkpt lat="46.47407" lon="4.91403">
        <ele>189.6</ele>
        <time>2024-09-18T14:29:23Z</time>
      </trkpt>
      <trkpt lat="46.47403" lon="4.91404">
        <ele>189.6</ele>
        <time>2024-09-18T14:29:24Z</time>
      </trkpt>
      <trkpt lat="46.47398" lon="4.91404">
        <ele>189.6</ele>
        <time>2024-09-18T14:29:25Z</time>
      </trkpt>
      <trkpt lat="46.47394" lon="4.91405">
        <ele>189.6</ele>
        <time>2024-09-18T14:29:26Z</time>
      </trkpt>
      <trkpt lat="46.47389" lon="4.91405">
        <ele>189.6</ele>
        <time>2024-09-18T14:29:27Z</time>
      </trkpt>
      <trkpt lat="46.47382" lon="4.91407">
        <ele>189.4</ele>
        <time>2024-09-18T14:29:28Z</time>
      </trkpt>
      <trkpt lat="46.47379" lon="4.91407">
        <ele>189.4</ele>
        <time>2024-09-18T14:29:29Z</time>
      </trkpt>
      <trkpt lat="46.47372" lon="4.91408">
        <ele>189.4</ele>
        <time>2024-09-18T14:29:30Z</time>
      </trkpt>
      <trkpt lat="46.47369" lon="4.91409">
        <ele>189.4</ele>
        <time>2024-09-18T14:29:31Z</time>
      </trkpt>
      <trkpt lat="46.47362" lon="4.91409">
        <ele>189.6</ele>
        <time>2024-09-18T14:29:32Z</time>
      </trkpt>
      <trkpt lat="46.47359" lon="4.91409">
        <ele>189.6</ele>
        <time>2024-09-18T14:29:33Z</time>
      </trkpt>
      <trkpt lat="46.47351" lon="4.9141">
        <ele>189.6</ele>
        <time>2024-09-18T14:29:34Z</time>
      </trkpt>
      <trkpt lat="46.47349" lon="4.9141">
        <ele>189.6</ele>
        <time>2024-09-18T14:29:35Z</time>
      </trkpt>
      <trkpt lat="46.47341" lon="4.91411">
        <ele>189.6</ele>
        <time>2024-09-18T14:29:36Z</time>
      </trkpt>
      <trkpt lat="46.47338" lon="4.91411">
        <ele>189.4</ele>
        <time>2024-09-18T14:29:37Z</time>
      </trkpt>
      <trkpt lat="46.4733" lon="4.91412">
        <ele>189.4</ele>
        <time>2024-09-18T14:29:38Z</time>
      </trkpt>
      <trkpt lat="46.47328" lon="4.91412">
        <ele>189.4</ele>
        <time>2024-09-18T14:29:39Z</time>
      </trkpt>
      <trkpt lat="46.4732" lon="4.91412">
        <ele>189.4</ele>
        <time>2024-09-18T14:29:40Z</time>
      </trkpt>
      <trkpt lat="46.47317" lon="4.91412">
        <ele>189.4</ele>
        <time>2024-09-18T14:29:41Z</time>
      </trkpt>
      <trkpt lat="46.47309" lon="4.91413">
        <ele>189.4</ele>
        <time>2024-09-18T14:29:42Z</time>
      </trkpt>
      <trkpt lat="46.47307" lon="4.91413">
        <ele>189.4</ele>
        <time>2024-09-18T14:29:43Z</time>
      </trkpt>
      <trkpt lat="46.47299" lon="4.91413">
        <ele>189.4</ele>
        <time>2024-09-18T14:29:44Z</time>
      </trkpt>
      <trkpt lat="46.47296" lon="4.91413">
        <ele>189.4</ele>
        <time>2024-09-18T14:29:45Z</time>
      </trkpt>
      <trkpt lat="46.47291" lon="4.91413">
        <ele>189.4</ele>
        <time>2024-09-18T14:29:46Z</time>
      </trkpt>
      <trkpt lat="46.47286" lon="4.91413">
        <ele>189.4</ele>
        <time>2024-09-18T14:29:47Z</time>
      </trkpt>
      <trkpt lat="46.47281" lon="4.91413">
        <ele>189.4</ele>
        <time>2024-09-18T14:29:48Z</time>
      </trkpt>
      <trkpt lat="46.47276" lon="4.91413">
        <ele>189.4</ele>
        <time>2024-09-18T14:29:49Z</time>
      </trkpt>
      <trkpt lat="46.47271" lon="4.91413">
        <ele>189.4</ele>
        <time>2024-09-18T14:29:50Z</time>
      </trkpt>
      <trkpt lat="46.47266" lon="4.91413">
        <ele>189.4</ele>
        <time>2024-09-18T14:29:51Z</time>
      </trkpt>
      <trkpt lat="46.4726" lon="4.91413">
        <ele>189.4</ele>
        <time>2024-09-18T14:29:52Z</time>
      </trkpt>
      <trkpt lat="46.47255" lon="4.91412">
        <ele>189.4</ele>
        <time>2024-09-18T14:29:53Z</time>
      </trkpt>
      <trkpt lat="46.4725" lon="4.91412">
        <ele>189.4</ele>
        <time>2024-09-18T14:29:54Z</time>
      </trkpt>
      <trkpt lat="46.47245" lon="4.91412">
        <ele>189.4</ele>
        <time>2024-09-18T14:29:55Z</time>
      </trkpt>
      <trkpt lat="46.4724" lon="4.91412">
        <ele>189.4</ele>
        <time>2024-09-18T14:29:56Z</time>
      </trkpt>
      <trkpt lat="46.47235" lon="4.91412">
        <ele>189.4</ele>
        <time>2024-09-18T14:29:57Z</time>
      </trkpt>
      <trkpt lat="46.4723" lon="4.91412">
        <ele>189.4</ele>
        <time>2024-09-18T14:29:58Z</time>
      </trkpt>
      <trkpt lat="46.47225" lon="4.91411">
        <ele>189.4</ele>
        <time>2024-09-18T14:29:59Z</time>
      </trkpt>
      <trkpt lat="46.4722" lon="4.91411">
        <ele>189.6</ele>
        <time>2024-09-18T14:30:00Z</time>
      </trkpt>
      <trkpt lat="46.47216" lon="4.91411">
        <ele>189.6</ele>
        <time>2024-09-18T14:30:01Z</time>
      </trkpt>
      <trkpt lat="46.47211" lon="4.91411">
        <ele>189.6</ele>
        <time>2024-09-18T14:30:02Z</time>
      </trkpt>
      <trkpt lat="46.47206" lon="4.91411">
        <ele>189.6</ele>
        <time>2024-09-18T14:30:03Z</time>
      </trkpt>
      <trkpt lat="46.47201" lon="4.91411">
        <ele>189.6</ele>
        <time>2024-09-18T14:30:04Z</time>
      </trkpt>
      <trkpt lat="46.47196" lon="4.91411">
        <ele>189.6</ele>
        <time>2024-09-18T14:30:05Z</time>
      </trkpt>
      <trkpt lat="46.47191" lon="4.9141">
        <ele>189.6</ele>
        <time>2024-09-18T14:30:06Z</time>
      </trkpt>
      <trkpt lat="46.47186" lon="4.9141">
        <ele>189.6</ele>
        <time>2024-09-18T14:30:07Z</time>
      </trkpt>
      <trkpt lat="46.47181" lon="4.9141">
        <ele>189.4</ele>
        <time>2024-09-18T14:30:08Z</time>
      </trkpt>
      <trkpt lat="46.47176" lon="4.9141">
        <ele>189.4</ele>
        <time>2024-09-18T14:30:09Z</time>
      </trkpt>
      <trkpt lat="46.47171" lon="4.9141">
        <ele>189.4</ele>
        <time>2024-09-18T14:30:10Z</time>
      </trkpt>
      <trkpt lat="46.47164" lon="4.9141">
        <ele>189.4</ele>
        <time>2024-09-18T14:30:11Z</time>
      </trkpt>
      <trkpt lat="46.47161" lon="4.9141">
        <ele>189.2</ele>
        <time>2024-09-18T14:30:12Z</time>
      </trkpt>
      <trkpt lat="46.47153" lon="4.9141">
        <ele>189.4</ele>
        <time>2024-09-18T14:30:13Z</time>
      </trkpt>
      <trkpt lat="46.47151" lon="4.9141">
        <ele>189.4</ele>
        <time>2024-09-18T14:30:14Z</time>
      </trkpt>
      <trkpt lat="46.47143" lon="4.91409">
        <ele>189.4</ele>
        <time>2024-09-18T14:30:15Z</time>
      </trkpt>
      <trkpt lat="46.4714" lon="4.91409">
        <ele>189.4</ele>
        <time>2024-09-18T14:30:16Z</time>
      </trkpt>
      <trkpt lat="46.47133" lon="4.91409">
        <ele>189.2</ele>
        <time>2024-09-18T14:30:17Z</time>
      </trkpt>
      <trkpt lat="46.4713" lon="4.91409">
        <ele>189.2</ele>
        <time>2024-09-18T14:30:18Z</time>
      </trkpt>
      <trkpt lat="46.47123" lon="4.91408">
        <ele>189.2</ele>
        <time>2024-09-18T14:30:19Z</time>
      </trkpt>
      <trkpt lat="46.4712" lon="4.91408">
        <ele>189.2</ele>
        <time>2024-09-18T14:30:20Z</time>
      </trkpt>
      <trkpt lat="46.47113" lon="4.91408">
        <ele>189.4</ele>
        <time>2024-09-18T14:30:21Z</time>
      </trkpt>
      <trkpt lat="46.4711" lon="4.91408">
        <ele>189.4</ele>
        <time>2024-09-18T14:30:22Z</time>
      </trkpt>
      <trkpt lat="46.47102" lon="4.91408">
        <ele>189.4</ele>
        <time>2024-09-18T14:30:23Z</time>
      </trkpt>
      <trkpt lat="46.471" lon="4.91407">
        <ele>189.4</ele>
        <time>2024-09-18T14:30:24Z</time>
      </trkpt>
      <trkpt lat="46.47092" lon="4.91407">
        <ele>189.4</ele>
        <time>2024-09-18T14:30:25Z</time>
      </trkpt>
      <trkpt lat="46.47089" lon="4.91407">
        <ele>189.4</ele>
        <time>2024-09-18T14:30:26Z</time>
      </trkpt>
      <trkpt lat="46.47081" lon="4.91406">
        <ele>189.4</ele>
        <time>2024-09-18T14:30:27Z</time>
      </trkpt>
      <trkpt lat="46.47079" lon="4.91406">
        <ele>189.4</ele>
        <time>2024-09-18T14:30:28Z</time>
      </trkpt>
      <trkpt lat="46.47074" lon="4.91407">
        <ele>189.4</ele>
        <time>2024-09-18T14:30:29Z</time>
      </trkpt>
      <trkpt lat="46.47069" lon="4.91407">
        <ele>189.4</ele>
        <time>2024-09-18T14:30:30Z</time>
      </trkpt>
      <trkpt lat="46.47064" lon="4.91407">
        <ele>189.4</ele>
        <time>2024-09-18T14:30:31Z</time>
      </trkpt>
      <trkpt lat="46.47059" lon="4.91407">
        <ele>189.6</ele>
        <time>2024-09-18T14:30:32Z</time>
      </trkpt>
      <trkpt lat="46.47054" lon="4.91408">
        <ele>189.6</ele>
        <time>2024-09-18T14:30:33Z</time>
      </trkpt>
      <trkpt lat="46.47049" lon="4.91408">
        <ele>189.6</ele>
        <time>2024-09-18T14:30:34Z</time>
      </trkpt>
      <trkpt lat="46.47044" lon="4.91409">
        <ele>189.6</ele>
        <time>2024-09-18T14:30:35Z</time>
      </trkpt>
      <trkpt lat="46.47039" lon="4.91409">
        <ele>189.2</ele>
        <time>2024-09-18T14:30:36Z</time>
      </trkpt>
      <trkpt lat="46.47034" lon="4.9141">
        <ele>189.2</ele>
        <time>2024-09-18T14:30:37Z</time>
      </trkpt>
      <trkpt lat="46.47028" lon="4.9141">
        <ele>189.2</ele>
        <time>2024-09-18T14:30:38Z</time>
      </trkpt>
      <trkpt lat="46.47023" lon="4.9141">
        <ele>189.2</ele>
        <time>2024-09-18T14:30:39Z</time>
      </trkpt>
      <trkpt lat="46.47018" lon="4.91411">
        <ele>188.8</ele>
        <time>2024-09-18T14:30:40Z</time>
      </trkpt>
      <trkpt lat="46.47013" lon="4.91411">
        <ele>189.2</ele>
        <time>2024-09-18T14:30:41Z</time>
      </trkpt>
      <trkpt lat="46.47007" lon="4.91412">
        <ele>189.2</ele>
        <time>2024-09-18T14:30:42Z</time>
      </trkpt>
      <trkpt lat="46.47002" lon="4.91412">
        <ele>189.2</ele>
        <time>2024-09-18T14:30:43Z</time>
      </trkpt>
      <trkpt lat="46.46997" lon="4.91412">
        <ele>189.2</ele>
        <time>2024-09-18T14:30:44Z</time>
      </trkpt>
      <trkpt lat="46.46991" lon="4.91412">
        <ele>189.4</ele>
        <time>2024-09-18T14:30:45Z</time>
      </trkpt>
      <trkpt lat="46.46986" lon="4.91412">
        <ele>189.4</ele>
        <time>2024-09-18T14:30:46Z</time>
      </trkpt>
      <trkpt lat="46.46981" lon="4.91412">
        <ele>189.4</ele>
        <time>2024-09-18T14:30:47Z</time>
      </trkpt>
      <trkpt lat="46.46976" lon="4.91413">
        <ele>189.4</ele>
        <time>2024-09-18T14:30:48Z</time>
      </trkpt>
      <trkpt lat="46.46972" lon="4.91413">
        <ele>189.4</ele>
        <time>2024-09-18T14:30:49Z</time>
      </trkpt>
      <trkpt lat="46.46967" lon="4.91413">
        <ele>189.2</ele>
        <time>2024-09-18T14:30:50Z</time>
      </trkpt>
      <trkpt lat="46.46963" lon="4.91413">
        <ele>189.2</ele>
        <time>2024-09-18T14:30:51Z</time>
      </trkpt>
      <trkpt lat="46.46959" lon="4.91413">
        <ele>189.2</ele>
        <time>2024-09-18T14:30:52Z</time>
      </trkpt>
      <trkpt lat="46.46954" lon="4.91413">
        <ele>189.4</ele>
        <time>2024-09-18T14:30:53Z</time>
      </trkpt>
      <trkpt lat="46.46947" lon="4.91413">
        <ele>189.6</ele>
        <time>2024-09-18T14:30:54Z</time>
      </trkpt>
      <trkpt lat="46.46945" lon="4.91412">
        <ele>189.6</ele>
        <time>2024-09-18T14:30:55Z</time>
      </trkpt>
      <trkpt lat="46.46938" lon="4.91412">
        <ele>189.6</ele>
        <time>2024-09-18T14:30:56Z</time>
      </trkpt>
      <trkpt lat="46.46935" lon="4.91412">
        <ele>189.6</ele>
        <time>2024-09-18T14:30:57Z</time>
      </trkpt>
      <trkpt lat="46.46928" lon="4.91412">
        <ele>189.8</ele>
        <time>2024-09-18T14:30:58Z</time>
      </trkpt>
      <trkpt lat="46.46926" lon="4.91412">
        <ele>189.8</ele>
        <time>2024-09-18T14:30:59Z</time>
      </trkpt>
      <trkpt lat="46.46918" lon="4.91411">
        <ele>189.8</ele>
        <time>2024-09-18T14:31:00Z</time>
      </trkpt>
      <trkpt lat="46.46916" lon="4.91411">
        <ele>189.8</ele>
        <time>2024-09-18T14:31:01Z</time>
      </trkpt>
      <trkpt lat="46.46908" lon="4.91412">
        <ele>189.8</ele>
        <time>2024-09-18T14:31:02Z</time>
      </trkpt>
      <trkpt lat="46.46906" lon="4.91412">
        <ele>189.4</ele>
        <time>2024-09-18T14:31:03Z</time>
      </trkpt>
      <trkpt lat="46.46898" lon="4.91412">
        <ele>189.4</ele>
        <time>2024-09-18T14:31:04Z</time>
      </trkpt>
      <trkpt lat="46.46896" lon="4.91412">
        <ele>189.4</ele>
        <time>2024-09-18T14:31:05Z</time>
      </trkpt>
      <trkpt lat="46.46888" lon="4.91413">
        <ele>189.4</ele>
        <time>2024-09-18T14:31:06Z</time>
      </trkpt>
      <trkpt lat="46.46886" lon="4.91413">
        <ele>189.8</ele>
        <time>2024-09-18T14:31:07Z</time>
      </trkpt>
      <trkpt lat="46.46878" lon="4.91414">
        <ele>189.6</ele>
        <time>2024-09-18T14:31:08Z</time>
      </trkpt>
      <trkpt lat="46.46876" lon="4.91414">
        <ele>189.6</ele>
        <time>2024-09-18T14:31:09Z</time>
      </trkpt>
      <trkpt lat="46.46871" lon="4.91415">
        <ele>189.6</ele>
        <time>2024-09-18T14:31:10Z</time>
      </trkpt>
      <trkpt lat="46.46866" lon="4.91416">
        <ele>189.6</ele>
        <time>2024-09-18T14:31:11Z</time>
      </trkpt>
      <trkpt lat="46.46861" lon="4.91417">
        <ele>189.6</ele>
        <time>2024-09-18T14:31:12Z</time>
      </trkpt>
      <trkpt lat="46.46857" lon="4.91418">
        <ele>189.6</ele>
        <time>2024-09-18T14:31:13Z</time>
      </trkpt>
      <trkpt lat="46.46852" lon="4.91418">
        <ele>189.6</ele>
        <time>2024-09-18T14:31:14Z</time>
      </trkpt>
      <trkpt lat="46.46847" lon="4.91418">
        <ele>189.6</ele>
        <time>2024-09-18T14:31:15Z</time>
      </trkpt>
      <trkpt lat="46.46842" lon="4.91418">
        <ele>189.6</ele>
        <time>2024-09-18T14:31:16Z</time>
      </trkpt>
      <trkpt lat="46.46837" lon="4.91417">
        <ele>189.8</ele>
        <time>2024-09-18T14:31:17Z</time>
      </trkpt>
      <trkpt lat="46.46832" lon="4.91417">
        <ele>189.8</ele>
        <time>2024-09-18T14:31:18Z</time>
      </trkpt>
      <trkpt lat="46.46827" lon="4.91417">
        <ele>189.8</ele>
        <time>2024-09-18T14:31:19Z</time>
      </trkpt>
      <trkpt lat="46.46822" lon="4.91417">
        <ele>189.4</ele>
        <time>2024-09-18T14:31:20Z</time>
      </trkpt>
      <trkpt lat="46.46817" lon="4.91417">
        <ele>189.4</ele>
        <time>2024-09-18T14:31:21Z</time>
      </trkpt>
      <trkpt lat="46.46812" lon="4.91417">
        <ele>190</ele>
        <time>2024-09-18T14:31:22Z</time>
      </trkpt>
      <trkpt lat="46.46806" lon="4.91416">
        <ele>190</ele>
        <time>2024-09-18T14:31:23Z</time>
      </trkpt>
      <trkpt lat="46.46804" lon="4.91416">
        <ele>190</ele>
        <time>2024-09-18T14:31:24Z</time>
      </trkpt>
      <trkpt lat="46.468" lon="4.91415">
        <ele>189.8</ele>
        <time>2024-09-18T14:31:25Z</time>
      </trkpt>
      <trkpt lat="46.46794" lon="4.91414">
        <ele>190</ele>
        <time>2024-09-18T14:31:26Z</time>
      </trkpt>
      <trkpt lat="46.46792" lon="4.91413">
        <ele>190</ele>
        <time>2024-09-18T14:31:27Z</time>
      </trkpt>
      <trkpt lat="46.46786" lon="4.91411">
        <ele>190</ele>
        <time>2024-09-18T14:31:28Z</time>
      </trkpt>
      <trkpt lat="46.46784" lon="4.91411">
        <ele>190</ele>
        <time>2024-09-18T14:31:29Z</time>
      </trkpt>
      <trkpt lat="46.46778" lon="4.91408">
        <ele>190</ele>
        <time>2024-09-18T14:31:30Z</time>
      </trkpt>
      <trkpt lat="46.46775" lon="4.91407">
        <ele>190</ele>
        <time>2024-09-18T14:31:31Z</time>
      </trkpt>
      <trkpt lat="46.46768" lon="4.91405">
        <ele>190</ele>
        <time>2024-09-18T14:31:32Z</time>
      </trkpt>
      <trkpt lat="46.46766" lon="4.91404">
        <ele>189.6</ele>
        <time>2024-09-18T14:31:33Z</time>
      </trkpt>
      <trkpt lat="46.46759" lon="4.914">
        <ele>189.4</ele>
        <time>2024-09-18T14:31:34Z</time>
      </trkpt>
      <trkpt lat="46.46757" lon="4.91399">
        <ele>189.4</ele>
        <time>2024-09-18T14:31:35Z</time>
      </trkpt>
      <trkpt lat="46.4675" lon="4.91395">
        <ele>189.4</ele>
        <time>2024-09-18T14:31:36Z</time>
      </trkpt>
      <trkpt lat="46.46747" lon="4.91394">
        <ele>189.4</ele>
        <time>2024-09-18T14:31:37Z</time>
      </trkpt>
      <trkpt lat="46.46741" lon="4.91388">
        <ele>189.8</ele>
        <time>2024-09-18T14:31:38Z</time>
      </trkpt>
      <trkpt lat="46.46739" lon="4.91386">
        <ele>189.6</ele>
        <time>2024-09-18T14:31:39Z</time>
      </trkpt>
      <trkpt lat="46.46733" lon="4.91381">
        <ele>189.6</ele>
        <time>2024-09-18T14:31:40Z</time>
      </trkpt>
      <trkpt lat="46.46731" lon="4.9138">
        <ele>189.6</ele>
        <time>2024-09-18T14:31:41Z</time>
      </trkpt>
      <trkpt lat="46.46725" lon="4.91375">
        <ele>189.8</ele>
        <time>2024-09-18T14:31:42Z</time>
      </trkpt>
      <trkpt lat="46.46723" lon="4.91374">
        <ele>189.6</ele>
        <time>2024-09-18T14:31:43Z</time>
      </trkpt>
      <trkpt lat="46.46718" lon="4.91372">
        <ele>189.6</ele>
        <time>2024-09-18T14:31:44Z</time>
      </trkpt>
      <trkpt lat="46.46714" lon="4.91371">
        <ele>189.6</ele>
        <time>2024-09-18T14:31:45Z</time>
      </trkpt>
      <trkpt lat="46.46709" lon="4.9137">
        <ele>189.6</ele>
        <time>2024-09-18T14:31:46Z</time>
      </trkpt>
      <trkpt lat="46.46705" lon="4.91369">
        <ele>189.6</ele>
        <time>2024-09-18T14:31:47Z</time>
      </trkpt>
      <trkpt lat="46.467" lon="4.91368">
        <ele>189.6</ele>
        <time>2024-09-18T14:31:48Z</time>
      </trkpt>
      <trkpt lat="46.46696" lon="4.91368">
        <ele>190</ele>
        <time>2024-09-18T14:31:49Z</time>
      </trkpt>
      <trkpt lat="46.46691" lon="4.91368">
        <ele>190</ele>
        <time>2024-09-18T14:31:50Z</time>
      </trkpt>
      <trkpt lat="46.46686" lon="4.91368">
        <ele>190</ele>
        <time>2024-09-18T14:31:51Z</time>
      </trkpt>
      <trkpt lat="46.46681" lon="4.91369">
        <ele>189.8</ele>
        <time>2024-09-18T14:31:52Z</time>
      </trkpt>
      <trkpt lat="46.46677" lon="4.91371">
        <ele>189.6</ele>
        <time>2024-09-18T14:31:53Z</time>
      </trkpt>
      <trkpt lat="46.46672" lon="4.91372">
        <ele>189.6</ele>
        <time>2024-09-18T14:31:54Z</time>
      </trkpt>
      <trkpt lat="46.46668" lon="4.91373">
        <ele>189.6</ele>
        <time>2024-09-18T14:31:55Z</time>
      </trkpt>
      <trkpt lat="46.46663" lon="4.91373">
        <ele>189.6</ele>
        <time>2024-09-18T14:31:56Z</time>
      </trkpt>
      <trkpt lat="46.46658" lon="4.91373">
        <ele>189.6</ele>
        <time>2024-09-18T14:31:57Z</time>
      </trkpt>
      <trkpt lat="46.46654" lon="4.91373">
        <ele>189.6</ele>
        <time>2024-09-18T14:31:58Z</time>
      </trkpt>
      <trkpt lat="46.46649" lon="4.91372">
        <ele>189.6</ele>
        <time>2024-09-18T14:31:59Z</time>
      </trkpt>
      <trkpt lat="46.46645" lon="4.9137">
        <ele>189.6</ele>
        <time>2024-09-18T14:32:00Z</time>
      </trkpt>
      <trkpt lat="46.4664" lon="4.91368">
        <ele>189.6</ele>
        <time>2024-09-18T14:32:01Z</time>
      </trkpt>
      <trkpt lat="46.46636" lon="4.91366">
        <ele>189.6</ele>
        <time>2024-09-18T14:32:02Z</time>
      </trkpt>
      <trkpt lat="46.46631" lon="4.91363">
        <ele>189.6</ele>
        <time>2024-09-18T14:32:03Z</time>
      </trkpt>
      <trkpt lat="46.46627" lon="4.9136">
        <ele>189.6</ele>
        <time>2024-09-18T14:32:04Z</time>
      </trkpt>
      <trkpt lat="46.46622" lon="4.91358">
        <ele>190</ele>
        <time>2024-09-18T14:32:05Z</time>
      </trkpt>
      <trkpt lat="46.46618" lon="4.91355">
        <ele>189.4</ele>
        <time>2024-09-18T14:32:06Z</time>
      </trkpt>
      <trkpt lat="46.46613" lon="4.91353">
        <ele>189.4</ele>
        <time>2024-09-18T14:32:07Z</time>
      </trkpt>
      <trkpt lat="46.46609" lon="4.9135">
        <ele>189.4</ele>
        <time>2024-09-18T14:32:08Z</time>
      </trkpt>
      <trkpt lat="46.46602" lon="4.91347">
        <ele>189.8</ele>
        <time>2024-09-18T14:32:09Z</time>
      </trkpt>
      <trkpt lat="46.46599" lon="4.91346">
        <ele>189.8</ele>
        <time>2024-09-18T14:32:10Z</time>
      </trkpt>
      <trkpt lat="46.46593" lon="4.91343">
        <ele>189.4</ele>
        <time>2024-09-18T14:32:11Z</time>
      </trkpt>
      <trkpt lat="46.46591" lon="4.91341">
        <ele>189.4</ele>
        <time>2024-09-18T14:32:12Z</time>
      </trkpt>
      <trkpt lat="46.46584" lon="4.91338">
        <ele>189.4</ele>
        <time>2024-09-18T14:32:13Z</time>
      </trkpt>
      <trkpt lat="46.46582" lon="4.91337">
        <ele>189.4</ele>
        <time>2024-09-18T14:32:14Z</time>
      </trkpt>
      <trkpt lat="46.46575" lon="4.91335">
        <ele>189.6</ele>
        <time>2024-09-18T14:32:15Z</time>
      </trkpt>
      <trkpt lat="46.46572" lon="4.91334">
        <ele>189.6</ele>
        <time>2024-09-18T14:32:16Z</time>
      </trkpt>
      <trkpt lat="46.46565" lon="4.91331">
        <ele>189.6</ele>
        <time>2024-09-18T14:32:17Z</time>
      </trkpt>
      <trkpt lat="46.46563" lon="4.91331">
        <ele>189.6</ele>
        <time>2024-09-18T14:32:18Z</time>
      </trkpt>
      <trkpt lat="46.46555" lon="4.91329">
        <ele>189.4</ele>
        <time>2024-09-18T14:32:19Z</time>
      </trkpt>
      <trkpt lat="46.46553" lon="4.91329">
        <ele>189.4</ele>
        <time>2024-09-18T14:32:20Z</time>
      </trkpt>
      <trkpt lat="46.46545" lon="4.91328">
        <ele>189.4</ele>
        <time>2024-09-18T14:32:21Z</time>
      </trkpt>
      <trkpt lat="46.46543" lon="4.91328">
        <ele>189.4</ele>
        <time>2024-09-18T14:32:22Z</time>
      </trkpt>
      <trkpt lat="46.46536" lon="4.91328">
        <ele>189.4</ele>
        <time>2024-09-18T14:32:23Z</time>
      </trkpt>
      <trkpt lat="46.46534" lon="4.91327">
        <ele>189.6</ele>
        <time>2024-09-18T14:32:24Z</time>
      </trkpt>
      <trkpt lat="46.46526" lon="4.91326">
        <ele>189.6</ele>
        <time>2024-09-18T14:32:25Z</time>
      </trkpt>
      <trkpt lat="46.46524" lon="4.91325">
        <ele>189.6</ele>
        <time>2024-09-18T14:32:26Z</time>
      </trkpt>
      <trkpt lat="46.4652" lon="4.91323">
        <ele>189.6</ele>
        <time>2024-09-18T14:32:27Z</time>
      </trkpt>
      <trkpt lat="46.46515" lon="4.91322">
        <ele>189.4</ele>
        <time>2024-09-18T14:32:28Z</time>
      </trkpt>
      <trkpt lat="46.4651" lon="4.9132">
        <ele>189.4</ele>
        <time>2024-09-18T14:32:29Z</time>
      </trkpt>
      <trkpt lat="46.46505" lon="4.91319">
        <ele>189.4</ele>
        <time>2024-09-18T14:32:30Z</time>
      </trkpt>
      <trkpt lat="46.46501" lon="4.91317">
        <ele>189.6</ele>
        <time>2024-09-18T14:32:31Z</time>
      </trkpt>
      <trkpt lat="46.46496" lon="4.91315">
        <ele>189.6</ele>
        <time>2024-09-18T14:32:32Z</time>
      </trkpt>
      <trkpt lat="46.46492" lon="4.91314">
        <ele>189.6</ele>
        <time>2024-09-18T14:32:33Z</time>
      </trkpt>
      <trkpt lat="46.46487" lon="4.91312">
        <ele>189.6</ele>
        <time>2024-09-18T14:32:34Z</time>
      </trkpt>
      <trkpt lat="46.46482" lon="4.91311">
        <ele>189.6</ele>
        <time>2024-09-18T14:32:35Z</time>
      </trkpt>
      <trkpt lat="46.46478" lon="4.91309">
        <ele>189.6</ele>
        <time>2024-09-18T14:32:36Z</time>
      </trkpt>
      <trkpt lat="46.46473" lon="4.91308">
        <ele>190</ele>
        <time>2024-09-18T14:32:37Z</time>
      </trkpt>
      <trkpt lat="46.46469" lon="4.91306">
        <ele>189.8</ele>
        <time>2024-09-18T14:32:38Z</time>
      </trkpt>
      <trkpt lat="46.46464" lon="4.91305">
        <ele>189.8</ele>
        <time>2024-09-18T14:32:39Z</time>
      </trkpt>
      <trkpt lat="46.46459" lon="4.91304">
        <ele>189.8</ele>
        <time>2024-09-18T14:32:40Z</time>
      </trkpt>
      <trkpt lat="46.46454" lon="4.91303">
        <ele>189.8</ele>
        <time>2024-09-18T14:32:41Z</time>
      </trkpt>
      <trkpt lat="46.46449" lon="4.91303">
        <ele>189.8</ele>
        <time>2024-09-18T14:32:42Z</time>
      </trkpt>
      <trkpt lat="46.46444" lon="4.91303">
        <ele>189.6</ele>
        <time>2024-09-18T14:32:43Z</time>
      </trkpt>
      <trkpt lat="46.4644" lon="4.91303">
        <ele>189.6</ele>
        <time>2024-09-18T14:32:44Z</time>
      </trkpt>
      <trkpt lat="46.46435" lon="4.91303">
        <ele>189.6</ele>
        <time>2024-09-18T14:32:45Z</time>
      </trkpt>
      <trkpt lat="46.4643" lon="4.91302">
        <ele>189.6</ele>
        <time>2024-09-18T14:32:46Z</time>
      </trkpt>
      <trkpt lat="46.46425" lon="4.91302">
        <ele>189.8</ele>
        <time>2024-09-18T14:32:47Z</time>
      </trkpt>
      <trkpt lat="46.46421" lon="4.91302">
        <ele>189.8</ele>
        <time>2024-09-18T14:32:48Z</time>
      </trkpt>
      <trkpt lat="46.46416" lon="4.91301">
        <ele>189.8</ele>
        <time>2024-09-18T14:32:49Z</time>
      </trkpt>
      <trkpt lat="46.46411" lon="4.91301">
        <ele>189.8</ele>
        <time>2024-09-18T14:32:50Z</time>
      </trkpt>
      <trkpt lat="46.46406" lon="4.91301">
        <ele>189.6</ele>
        <time>2024-09-18T14:32:51Z</time>
      </trkpt>
      <trkpt lat="46.46398" lon="4.91301">
        <ele>189.6</ele>
        <time>2024-09-18T14:32:52Z</time>
      </trkpt>
      <trkpt lat="46.46396" lon="4.91301">
        <ele>189.6</ele>
        <time>2024-09-18T14:32:53Z</time>
      </trkpt>
      <trkpt lat="46.46388" lon="4.913">
        <ele>189.6</ele>
        <time>2024-09-18T14:32:54Z</time>
      </trkpt>
      <trkpt lat="46.46386" lon="4.913">
        <ele>189.2</ele>
        <time>2024-09-18T14:32:55Z</time>
      </trkpt>
      <trkpt lat="46.46378" lon="4.91299">
        <ele>189.2</ele>
        <time>2024-09-18T14:32:56Z</time>
      </trkpt>
      <trkpt lat="46.46376" lon="4.91298">
        <ele>189.2</ele>
        <time>2024-09-18T14:32:57Z</time>
      </trkpt>
      <trkpt lat="46.46368" lon="4.91297">
        <ele>189.2</ele>
        <time>2024-09-18T14:32:58Z</time>
      </trkpt>
      <trkpt lat="46.46366" lon="4.91297">
        <ele>189.4</ele>
        <time>2024-09-18T14:32:59Z</time>
      </trkpt>
      <trkpt lat="46.46359" lon="4.91295">
        <ele>189.4</ele>
        <time>2024-09-18T14:33:00Z</time>
      </trkpt>
      <trkpt lat="46.46356" lon="4.91295">
        <ele>189.4</ele>
        <time>2024-09-18T14:33:01Z</time>
      </trkpt>
      <trkpt lat="46.46349" lon="4.91294">
        <ele>189.4</ele>
        <time>2024-09-18T14:33:02Z</time>
      </trkpt>
      <trkpt lat="46.46347" lon="4.91293">
        <ele>189.8</ele>
        <time>2024-09-18T14:33:03Z</time>
      </trkpt>
      <trkpt lat="46.4634" lon="4.91292">
        <ele>189.8</ele>
        <time>2024-09-18T14:33:04Z</time>
      </trkpt>
      <trkpt lat="46.46338" lon="4.91292">
        <ele>189.8</ele>
        <time>2024-09-18T14:33:05Z</time>
      </trkpt>
      <trkpt lat="46.46331" lon="4.9129">
        <ele>189.8</ele>
        <time>2024-09-18T14:33:06Z</time>
      </trkpt>
      <trkpt lat="46.46328" lon="4.91289">
        <ele>189.8</ele>
        <time>2024-09-18T14:33:07Z</time>
      </trkpt>
      <trkpt lat="46.46321" lon="4.91287">
        <ele>189.8</ele>
        <time>2024-09-18T14:33:08Z</time>
      </trkpt>
      <trkpt lat="46.46319" lon="4.91287">
        <ele>189.8</ele>
        <time>2024-09-18T14:33:09Z</time>
      </trkpt>
      <trkpt lat="46.46314" lon="4.91285">
        <ele>189.8</ele>
        <time>2024-09-18T14:33:10Z</time>
      </trkpt>
      <trkpt lat="46.46309" lon="4.91283">
        <ele>189.8</ele>
        <time>2024-09-18T14:33:11Z</time>
      </trkpt>
      <trkpt lat="46.46304" lon="4.91281">
        <ele>189.8</ele>
        <time>2024-09-18T14:33:12Z</time>
      </trkpt>
      <trkpt lat="46.46299" lon="4.91279">
        <ele>189.8</ele>
        <time>2024-09-18T14:33:13Z</time>
      </trkpt>
      <trkpt lat="46.46295" lon="4.91277">
        <ele>189.8</ele>
        <time>2024-09-18T14:33:14Z</time>
      </trkpt>
      <trkpt lat="46.4629" lon="4.91275">
        <ele>189.8</ele>
        <time>2024-09-18T14:33:15Z</time>
      </trkpt>
      <trkpt lat="46.46286" lon="4.91274">
        <ele>189.8</ele>
        <time>2024-09-18T14:33:16Z</time>
      </trkpt>
      <trkpt lat="46.46281" lon="4.91271">
        <ele>189.8</ele>
        <time>2024-09-18T14:33:17Z</time>
      </trkpt>
      <trkpt lat="46.46276" lon="4.91269">
        <ele>190.2</ele>
        <time>2024-09-18T14:33:18Z</time>
      </trkpt>
      <trkpt lat="46.46272" lon="4.91267">
        <ele>190.2</ele>
        <time>2024-09-18T14:33:19Z</time>
      </trkpt>
      <trkpt lat="46.46264" lon="4.91264">
        <ele>190.2</ele>
        <time>2024-09-18T14:33:20Z</time>
      </trkpt>
      <trkpt lat="46.46262" lon="4.91263">
        <ele>190.2</ele>
        <time>2024-09-18T14:33:21Z</time>
      </trkpt>
      <trkpt lat="46.46258" lon="4.91261">
        <ele>190</ele>
        <time>2024-09-18T14:33:22Z</time>
      </trkpt>
      <trkpt lat="46.46253" lon="4.9126">
        <ele>190</ele>
        <time>2024-09-18T14:33:23Z</time>
      </trkpt>
      <trkpt lat="46.46249" lon="4.91258">
        <ele>190</ele>
        <time>2024-09-18T14:33:24Z</time>
      </trkpt>
      <trkpt lat="46.46244" lon="4.91256">
        <ele>190</ele>
        <time>2024-09-18T14:33:25Z</time>
      </trkpt>
      <trkpt lat="46.4624" lon="4.91253">
        <ele>190</ele>
        <time>2024-09-18T14:33:26Z</time>
      </trkpt>
      <trkpt lat="46.46235" lon="4.91251">
        <ele>189.4</ele>
        <time>2024-09-18T14:33:27Z</time>
      </trkpt>
      <trkpt lat="46.4623" lon="4.91249">
        <ele>189.4</ele>
        <time>2024-09-18T14:33:28Z</time>
      </trkpt>
      <trkpt lat="46.46225" lon="4.91247">
        <ele>189.4</ele>
        <time>2024-09-18T14:33:29Z</time>
      </trkpt>
      <trkpt lat="46.46221" lon="4.91245">
        <ele>189.4</ele>
        <time>2024-09-18T14:33:30Z</time>
      </trkpt>
      <trkpt lat="46.46216" lon="4.91242">
        <ele>189.4</ele>
        <time>2024-09-18T14:33:31Z</time>
      </trkpt>
      <trkpt lat="46.46212" lon="4.91239">
        <ele>189.4</ele>
        <time>2024-09-18T14:33:32Z</time>
      </trkpt>
      <trkpt lat="46.46207" lon="4.91237">
        <ele>189.4</ele>
        <time>2024-09-18T14:33:33Z</time>
      </trkpt>
      <trkpt lat="46.46203" lon="4.91235">
        <ele>189.4</ele>
        <time>2024-09-18T14:33:34Z</time>
      </trkpt>
      <trkpt lat="46.46197" lon="4.91232">
        <ele>190</ele>
        <time>2024-09-18T14:33:35Z</time>
      </trkpt>
      <trkpt lat="46.46195" lon="4.91231">
        <ele>189.8</ele>
        <time>2024-09-18T14:33:36Z</time>
      </trkpt>
      <trkpt lat="46.46189" lon="4.91228">
        <ele>189.8</ele>
        <time>2024-09-18T14:33:37Z</time>
      </trkpt>
      <trkpt lat="46.46187" lon="4.91227">
        <ele>189.8</ele>
        <time>2024-09-18T14:33:38Z</time>
      </trkpt>
      <trkpt lat="46.46181" lon="4.91224">
        <ele>190</ele>
        <time>2024-09-18T14:33:39Z</time>
      </trkpt>
      <trkpt lat="46.4618" lon="4.91223">
        <ele>190.2</ele>
        <time>2024-09-18T14:33:40Z</time>
      </trkpt>
      <trkpt lat="46.46174" lon="4.9122">
        <ele>190.2</ele>
        <time>2024-09-18T14:33:41Z</time>
      </trkpt>
      <trkpt lat="46.46172" lon="4.91219">
        <ele>190.2</ele>
        <time>2024-09-18T14:33:42Z</time>
      </trkpt>
      <trkpt lat="46.46166" lon="4.91215">
        <ele>190.2</ele>
        <time>2024-09-18T14:33:43Z</time>
      </trkpt>
      <trkpt lat="46.46164" lon="4.91214">
        <ele>190.2</ele>
        <time>2024-09-18T14:33:44Z</time>
      </trkpt>
      <trkpt lat="46.46157" lon="4.9121">
        <ele>190</ele>
        <time>2024-09-18T14:33:45Z</time>
      </trkpt>
      <trkpt lat="46.46155" lon="4.91208">
        <ele>190</ele>
        <time>2024-09-18T14:33:46Z</time>
      </trkpt>
      <trkpt lat="46.46148" lon="4.91204">
        <ele>190</ele>
        <time>2024-09-18T14:33:47Z</time>
      </trkpt>
      <trkpt lat="46.46146" lon="4.91203">
        <ele>190</ele>
        <time>2024-09-18T14:33:48Z</time>
      </trkpt>
      <trkpt lat="46.46139" lon="4.91199">
        <ele>189.6</ele>
        <time>2024-09-18T14:33:49Z</time>
      </trkpt>
      <trkpt lat="46.46137" lon="4.91197">
        <ele>189.6</ele>
        <time>2024-09-18T14:33:50Z</time>
      </trkpt>
      <trkpt lat="46.4613" lon="4.91192">
        <ele>189.6</ele>
        <time>2024-09-18T14:33:51Z</time>
      </trkpt>
      <trkpt lat="46.46128" lon="4.91191">
        <ele>189.6</ele>
        <time>2024-09-18T14:33:52Z</time>
      </trkpt>
      <trkpt lat="46.46124" lon="4.91188">
        <ele>190</ele>
        <time>2024-09-18T14:33:53Z</time>
      </trkpt>
      <trkpt lat="46.4612" lon="4.91185">
        <ele>190</ele>
        <time>2024-09-18T14:33:54Z</time>
      </trkpt>
      <trkpt lat="46.46115" lon="4.91183">
        <ele>190</ele>
        <time>2024-09-18T14:33:55Z</time>
      </trkpt>
      <trkpt lat="46.46111" lon="4.9118">
        <ele>190</ele>
        <time>2024-09-18T14:33:56Z</time>
      </trkpt>
      <trkpt lat="46.46107" lon="4.91177">
        <ele>190</ele>
        <time>2024-09-18T14:33:57Z</time>
      </trkpt>
      <trkpt lat="46.46103" lon="4.91174">
        <ele>190</ele>
        <time>2024-09-18T14:33:58Z</time>
      </trkpt>
      <trkpt lat="46.46099" lon="4.91171">
        <ele>189.8</ele>
        <time>2024-09-18T14:33:59Z</time>
      </trkpt>
      <trkpt lat="46.46094" lon="4.91169">
        <ele>189.8</ele>
        <time>2024-09-18T14:34:00Z</time>
      </trkpt>
      <trkpt lat="46.4609" lon="4.91166">
        <ele>189.8</ele>
        <time>2024-09-18T14:34:01Z</time>
      </trkpt>
      <trkpt lat="46.46086" lon="4.91163">
        <ele>190</ele>
        <time>2024-09-18T14:34:02Z</time>
      </trkpt>
      <trkpt lat="46.46081" lon="4.9116">
        <ele>189.4</ele>
        <time>2024-09-18T14:34:03Z</time>
      </trkpt>
      <trkpt lat="46.46077" lon="4.91157">
        <ele>189.4</ele>
        <time>2024-09-18T14:34:04Z</time>
      </trkpt>
      <trkpt lat="46.46073" lon="4.91154">
        <ele>189.4</ele>
        <time>2024-09-18T14:34:05Z</time>
      </trkpt>
      <trkpt lat="46.46069" lon="4.91151">
        <ele>189.8</ele>
        <time>2024-09-18T14:34:06Z</time>
      </trkpt>
      <trkpt lat="46.46065" lon="4.91148">
        <ele>189.8</ele>
        <time>2024-09-18T14:34:07Z</time>
      </trkpt>
      <trkpt lat="46.46061" lon="4.91145">
        <ele>190</ele>
        <time>2024-09-18T14:34:08Z</time>
      </trkpt>
      <trkpt lat="46.46056" lon="4.91142">
        <ele>190</ele>
        <time>2024-09-18T14:34:09Z</time>
      </trkpt>
      <trkpt lat="46.46052" lon="4.91138">
        <ele>190</ele>
        <time>2024-09-18T14:34:10Z</time>
      </trkpt>
      <trkpt lat="46.46048" lon="4.91135">
        <ele>189.8</ele>
        <time>2024-09-18T14:34:11Z</time>
      </trkpt>
      <trkpt lat="46.46044" lon="4.91132">
        <ele>189.4</ele>
        <time>2024-09-18T14:34:12Z</time>
      </trkpt>
      <trkpt lat="46.4604" lon="4.91128">
        <ele>189.4</ele>
        <time>2024-09-18T14:34:13Z</time>
      </trkpt>
      <trkpt lat="46.46036" lon="4.91125">
        <ele>189.4</ele>
        <time>2024-09-18T14:34:14Z</time>
      </trkpt>
      <trkpt lat="46.46032" lon="4.91121">
        <ele>189.6</ele>
        <time>2024-09-18T14:34:15Z</time>
      </trkpt>
      <trkpt lat="46.46027" lon="4.91118">
        <ele>189.6</ele>
        <time>2024-09-18T14:34:16Z</time>
      </trkpt>
      <trkpt lat="46.46021" lon="4.91113">
        <ele>189.4</ele>
        <time>2024-09-18T14:34:17Z</time>
      </trkpt>
      <trkpt lat="46.46019" lon="4.91111">
        <ele>189.4</ele>
        <time>2024-09-18T14:34:18Z</time>
      </trkpt>
      <trkpt lat="46.46013" lon="4.91106">
        <ele>189.4</ele>
        <time>2024-09-18T14:34:19Z</time>
      </trkpt>
      <trkpt lat="46.46011" lon="4.91104">
        <ele>189.8</ele>
        <time>2024-09-18T14:34:20Z</time>
      </trkpt>
      <trkpt lat="46.46006" lon="4.91099">
        <ele>189.6</ele>
        <time>2024-09-18T14:34:21Z</time>
      </trkpt>
      <trkpt lat="46.46004" lon="4.91097">
        <ele>189.6</ele>
        <time>2024-09-18T14:34:22Z</time>
      </trkpt>
      <trkpt lat="46.45999" lon="4.91092">
        <ele>189.6</ele>
        <time>2024-09-18T14:34:23Z</time>
      </trkpt>
      <trkpt lat="46.45997" lon="4.9109">
        <ele>189.6</ele>
        <time>2024-09-18T14:34:24Z</time>
      </trkpt>
      <trkpt lat="46.45992" lon="4.91085">
        <ele>189.4</ele>
        <time>2024-09-18T14:34:25Z</time>
      </trkpt>
      <trkpt lat="46.4599" lon="4.91083">
        <ele>189.4</ele>
        <time>2024-09-18T14:34:26Z</time>
      </trkpt>
      <trkpt lat="46.45985" lon="4.91077">
        <ele>189.4</ele>
        <time>2024-09-18T14:34:27Z</time>
      </trkpt>
      <trkpt lat="46.45983" lon="4.91075">
        <ele>189.4</ele>
        <time>2024-09-18T14:34:28Z</time>
      </trkpt>
      <trkpt lat="46.45978" lon="4.9107">
        <ele>189.4</ele>
        <time>2024-09-18T14:34:29Z</time>
      </trkpt>
      <trkpt lat="46.45976" lon="4.91068">
        <ele>189.6</ele>
        <time>2024-09-18T14:34:30Z</time>
      </trkpt>
      <trkpt lat="46.4597" lon="4.91062">
        <ele>189.6</ele>
        <time>2024-09-18T14:34:31Z</time>
      </trkpt>
      <trkpt lat="46.45969" lon="4.9106">
        <ele>189.6</ele>
        <time>2024-09-18T14:34:32Z</time>
      </trkpt>
      <trkpt lat="46.45965" lon="4.91057">
        <ele>189.4</ele>
        <time>2024-09-18T14:34:33Z</time>
      </trkpt>
      <trkpt lat="46.4596" lon="4.91051">
        <ele>189.6</ele>
        <time>2024-09-18T14:34:34Z</time>
      </trkpt>
      <trkpt lat="46.45958" lon="4.9105">
        <ele>189.6</ele>
        <time>2024-09-18T14:34:35Z</time>
      </trkpt>
      <trkpt lat="46.45955" lon="4.91047">
        <ele>189.6</ele>
        <time>2024-09-18T14:34:36Z</time>
      </trkpt>
      <trkpt lat="46.45951" lon="4.91045">
        <ele>189.6</ele>
        <time>2024-09-18T14:34:37Z</time>
      </trkpt>
      <trkpt lat="46.45948" lon="4.91042">
        <ele>189.6</ele>
        <time>2024-09-18T14:34:38Z</time>
      </trkpt>
      <trkpt lat="46.45945" lon="4.91038">
        <ele>189.6</ele>
        <time>2024-09-18T14:34:39Z</time>
      </trkpt>
      <trkpt lat="46.45942" lon="4.91035">
        <ele>189.6</ele>
        <time>2024-09-18T14:34:40Z</time>
      </trkpt>
      <trkpt lat="46.45939" lon="4.91032">
        <ele>189.6</ele>
        <time>2024-09-18T14:34:41Z</time>
      </trkpt>
      <trkpt lat="46.45935" lon="4.91029">
        <ele>189.6</ele>
        <time>2024-09-18T14:34:42Z</time>
      </trkpt>
      <trkpt lat="46.45932" lon="4.91025">
        <ele>189.6</ele>
        <time>2024-09-18T14:34:43Z</time>
      </trkpt>
      <trkpt lat="46.45929" lon="4.91021">
        <ele>189.6</ele>
        <time>2024-09-18T14:34:44Z</time>
      </trkpt>
      <trkpt lat="46.45926" lon="4.91016">
        <ele>189.6</ele>
        <time>2024-09-18T14:34:45Z</time>
      </trkpt>
      <trkpt lat="46.45922" lon="4.91012">
        <ele>189.6</ele>
        <time>2024-09-18T14:34:46Z</time>
      </trkpt>
      <trkpt lat="46.45919" lon="4.91008">
        <ele>189.4</ele>
        <time>2024-09-18T14:34:47Z</time>
      </trkpt>
      <trkpt lat="46.45916" lon="4.91004">
        <ele>189.8</ele>
        <time>2024-09-18T14:34:48Z</time>
      </trkpt>
      <trkpt lat="46.45914" lon="4.91">
        <ele>189.8</ele>
        <time>2024-09-18T14:34:49Z</time>
      </trkpt>
      <trkpt lat="46.45912" lon="4.90997">
        <ele>189.8</ele>
        <time>2024-09-18T14:34:50Z</time>
      </trkpt>
      <trkpt lat="46.45909" lon="4.90993">
        <ele>189.8</ele>
        <time>2024-09-18T14:34:51Z</time>
      </trkpt>
      <trkpt lat="46.45907" lon="4.90989">
        <ele>189.8</ele>
        <time>2024-09-18T14:34:52Z</time>
      </trkpt>
      <trkpt lat="46.45904" lon="4.90984">
        <ele>190</ele>
        <time>2024-09-18T14:34:53Z</time>
      </trkpt>
      <trkpt lat="46.459" lon="4.90979">
        <ele>190</ele>
        <time>2024-09-18T14:34:54Z</time>
      </trkpt>
      <trkpt lat="46.45897" lon="4.90974">
        <ele>190</ele>
        <time>2024-09-18T14:34:55Z</time>
      </trkpt>
      <trkpt lat="46.45893" lon="4.90969">
        <ele>189.6</ele>
        <time>2024-09-18T14:34:56Z</time>
      </trkpt>
      <trkpt lat="46.4589" lon="4.90964">
        <ele>189.8</ele>
        <time>2024-09-18T14:34:57Z</time>
      </trkpt>
      <trkpt lat="46.45886" lon="4.90958">
        <ele>189.8</ele>
        <time>2024-09-18T14:34:58Z</time>
      </trkpt>
      <trkpt lat="46.45883" lon="4.90952">
        <ele>189.8</ele>
        <time>2024-09-18T14:34:59Z</time>
      </trkpt>
      <trkpt lat="46.45879" lon="4.90947">
        <ele>190.4</ele>
        <time>2024-09-18T14:35:00Z</time>
      </trkpt>
      <trkpt lat="46.45876" lon="4.90942">
        <ele>189.4</ele>
        <time>2024-09-18T14:35:01Z</time>
      </trkpt>
      <trkpt lat="46.45871" lon="4.90933">
        <ele>189.4</ele>
        <time>2024-09-18T14:35:02Z</time>
      </trkpt>
      <trkpt lat="46.45869" lon="4.90931">
        <ele>189.4</ele>
        <time>2024-09-18T14:35:03Z</time>
      </trkpt>
      <trkpt lat="46.45864" lon="4.90923">
        <ele>189.4</ele>
        <time>2024-09-18T14:35:04Z</time>
      </trkpt>
      <trkpt lat="46.45862" lon="4.9092">
        <ele>189.4</ele>
        <time>2024-09-18T14:35:05Z</time>
      </trkpt>
      <trkpt lat="46.45857" lon="4.90912">
        <ele>189.8</ele>
        <time>2024-09-18T14:35:06Z</time>
      </trkpt>
      <trkpt lat="46.45855" lon="4.9091">
        <ele>189.8</ele>
        <time>2024-09-18T14:35:07Z</time>
      </trkpt>
      <trkpt lat="46.4585" lon="4.90903">
        <ele>189.8</ele>
        <time>2024-09-18T14:35:08Z</time>
      </trkpt>
      <trkpt lat="46.45849" lon="4.909">
        <ele>189.4</ele>
        <time>2024-09-18T14:35:09Z</time>
      </trkpt>
      <trkpt lat="46.45844" lon="4.90894">
        <ele>190</ele>
        <time>2024-09-18T14:35:10Z</time>
      </trkpt>
      <trkpt lat="46.45842" lon="4.90892">
        <ele>190</ele>
        <time>2024-09-18T14:35:11Z</time>
      </trkpt>
      <trkpt lat="46.45836" lon="4.90886">
        <ele>190</ele>
        <time>2024-09-18T14:35:12Z</time>
      </trkpt>
      <trkpt lat="46.45834" lon="4.90884">
        <ele>190</ele>
        <time>2024-09-18T14:35:13Z</time>
      </trkpt>
      <trkpt lat="46.45829" lon="4.90877">
        <ele>190.2</ele>
        <time>2024-09-18T14:35:14Z</time>
      </trkpt>
      <trkpt lat="46.45827" lon="4.90875">
        <ele>190.2</ele>
        <time>2024-09-18T14:35:15Z</time>
      </trkpt>
      <trkpt lat="46.45822" lon="4.90869">
        <ele>190.2</ele>
        <time>2024-09-18T14:35:16Z</time>
      </trkpt>
      <trkpt lat="46.4582" lon="4.90867">
        <ele>190.2</ele>
        <time>2024-09-18T14:35:17Z</time>
      </trkpt>
      <trkpt lat="46.45815" lon="4.9086">
        <ele>190.2</ele>
        <time>2024-09-18T14:35:18Z</time>
      </trkpt>
      <trkpt lat="46.45813" lon="4.90858">
        <ele>190</ele>
        <time>2024-09-18T14:35:19Z</time>
      </trkpt>
      <trkpt lat="46.45809" lon="4.90853">
        <ele>190</ele>
        <time>2024-09-18T14:35:20Z</time>
      </trkpt>
      <trkpt lat="46.45806" lon="4.90849">
        <ele>190</ele>
        <time>2024-09-18T14:35:21Z</time>
      </trkpt>
      <trkpt lat="46.45802" lon="4.90845">
        <ele>190</ele>
        <time>2024-09-18T14:35:22Z</time>
      </trkpt>
      <trkpt lat="46.45799" lon="4.90841">
        <ele>190.2</ele>
        <time>2024-09-18T14:35:23Z</time>
      </trkpt>
      <trkpt lat="46.45795" lon="4.90836">
        <ele>190.2</ele>
        <time>2024-09-18T14:35:24Z</time>
      </trkpt>
      <trkpt lat="46.45791" lon="4.90832">
        <ele>190.2</ele>
        <time>2024-09-18T14:35:25Z</time>
      </trkpt>
      <trkpt lat="46.45788" lon="4.90828">
        <ele>190.2</ele>
        <time>2024-09-18T14:35:26Z</time>
      </trkpt>
      <trkpt lat="46.45784" lon="4.90824">
        <ele>190.2</ele>
        <time>2024-09-18T14:35:27Z</time>
      </trkpt>
      <trkpt lat="46.4578" lon="4.9082">
        <ele>189.2</ele>
        <time>2024-09-18T14:35:28Z</time>
      </trkpt>
      <trkpt lat="46.45776" lon="4.90815">
        <ele>189.2</ele>
        <time>2024-09-18T14:35:29Z</time>
      </trkpt>
      <trkpt lat="46.45773" lon="4.90811">
        <ele>189.2</ele>
        <time>2024-09-18T14:35:30Z</time>
      </trkpt>
      <trkpt lat="46.45769" lon="4.90807">
        <ele>189.2</ele>
        <time>2024-09-18T14:35:31Z</time>
      </trkpt>
      <trkpt lat="46.45765" lon="4.90803">
        <ele>190.2</ele>
        <time>2024-09-18T14:35:32Z</time>
      </trkpt>
      <trkpt lat="46.45762" lon="4.90798">
        <ele>190.6</ele>
        <time>2024-09-18T14:35:33Z</time>
      </trkpt>
      <trkpt lat="46.45758" lon="4.90794">
        <ele>190.6</ele>
        <time>2024-09-18T14:35:34Z</time>
      </trkpt>
      <trkpt lat="46.45755" lon="4.90789">
        <ele>190.6</ele>
        <time>2024-09-18T14:35:35Z</time>
      </trkpt>
      <trkpt lat="46.45751" lon="4.90785">
        <ele>190.6</ele>
        <time>2024-09-18T14:35:36Z</time>
      </trkpt>
      <trkpt lat="46.45748" lon="4.9078">
        <ele>190.6</ele>
        <time>2024-09-18T14:35:37Z</time>
      </trkpt>
      <trkpt lat="46.45745" lon="4.90775">
        <ele>190.2</ele>
        <time>2024-09-18T14:35:38Z</time>
      </trkpt>
      <trkpt lat="46.45741" lon="4.90769">
        <ele>190.2</ele>
        <time>2024-09-18T14:35:39Z</time>
      </trkpt>
      <trkpt lat="46.45738" lon="4.90764">
        <ele>190.2</ele>
        <time>2024-09-18T14:35:40Z</time>
      </trkpt>
      <trkpt lat="46.45734" lon="4.90759">
        <ele>190</ele>
        <time>2024-09-18T14:35:41Z</time>
      </trkpt>
      <trkpt lat="46.45731" lon="4.90755">
        <ele>190.6</ele>
        <time>2024-09-18T14:35:42Z</time>
      </trkpt>
      <trkpt lat="46.45728" lon="4.9075">
        <ele>190.6</ele>
        <time>2024-09-18T14:35:43Z</time>
      </trkpt>
      <trkpt lat="46.45723" lon="4.90742">
        <ele>190.6</ele>
        <time>2024-09-18T14:35:44Z</time>
      </trkpt>
      <trkpt lat="46.45721" lon="4.9074">
        <ele>190.6</ele>
        <time>2024-09-18T14:35:45Z</time>
      </trkpt>
      <trkpt lat="46.45716" lon="4.90733">
        <ele>189.8</ele>
        <time>2024-09-18T14:35:46Z</time>
      </trkpt>
      <trkpt lat="46.45714" lon="4.90731">
        <ele>189.8</ele>
        <time>2024-09-18T14:35:47Z</time>
      </trkpt>
      <trkpt lat="46.45709" lon="4.90723">
        <ele>189.8</ele>
        <time>2024-09-18T14:35:48Z</time>
      </trkpt>
      <trkpt lat="46.45708" lon="4.90721">
        <ele>189.8</ele>
        <time>2024-09-18T14:35:49Z</time>
      </trkpt>
      <trkpt lat="46.45704" lon="4.90716">
        <ele>190.4</ele>
        <time>2024-09-18T14:35:50Z</time>
      </trkpt>
      <trkpt lat="46.45701" lon="4.90711">
        <ele>190.4</ele>
        <time>2024-09-18T14:35:51Z</time>
      </trkpt>
      <trkpt lat="46.45696" lon="4.90703">
        <ele>190.4</ele>
        <time>2024-09-18T14:35:52Z</time>
      </trkpt>
      <trkpt lat="46.45695" lon="4.907">
        <ele>190.4</ele>
        <time>2024-09-18T14:35:53Z</time>
      </trkpt>
      <trkpt lat="46.4569" lon="4.90692">
        <ele>190.4</ele>
        <time>2024-09-18T14:35:54Z</time>
      </trkpt>
      <trkpt lat="46.45689" lon="4.90689">
        <ele>190.4</ele>
        <time>2024-09-18T14:35:55Z</time>
      </trkpt>
      <trkpt lat="46.45684" lon="4.9068">
        <ele>190.4</ele>
        <time>2024-09-18T14:35:56Z</time>
      </trkpt>
      <trkpt lat="46.45683" lon="4.90677">
        <ele>190.4</ele>
        <time>2024-09-18T14:35:57Z</time>
      </trkpt>
      <trkpt lat="46.45678" lon="4.90669">
        <ele>190.4</ele>
        <time>2024-09-18T14:35:58Z</time>
      </trkpt>
      <trkpt lat="46.45677" lon="4.90666">
        <ele>190.2</ele>
        <time>2024-09-18T14:35:59Z</time>
      </trkpt>
      <trkpt lat="46.45672" lon="4.90657">
        <ele>190.4</ele>
        <time>2024-09-18T14:36:00Z</time>
      </trkpt>
      <trkpt lat="46.45671" lon="4.90654">
        <ele>190.4</ele>
        <time>2024-09-18T14:36:01Z</time>
      </trkpt>
      <trkpt lat="46.45667" lon="4.90648">
        <ele>190.4</ele>
        <time>2024-09-18T14:36:02Z</time>
      </trkpt>
      <trkpt lat="46.45664" lon="4.90642">
        <ele>190.4</ele>
        <time>2024-09-18T14:36:03Z</time>
      </trkpt>
      <trkpt lat="46.45661" lon="4.90636">
        <ele>190</ele>
        <time>2024-09-18T14:36:04Z</time>
      </trkpt>
      <trkpt lat="46.45658" lon="4.9063">
        <ele>190</ele>
        <time>2024-09-18T14:36:05Z</time>
      </trkpt>
      <trkpt lat="46.45655" lon="4.90624">
        <ele>190</ele>
        <time>2024-09-18T14:36:06Z</time>
      </trkpt>
      <trkpt lat="46.45651" lon="4.90617">
        <ele>190</ele>
        <time>2024-09-18T14:36:07Z</time>
      </trkpt>
      <trkpt lat="46.45649" lon="4.90611">
        <ele>190</ele>
        <time>2024-09-18T14:36:08Z</time>
      </trkpt>
      <trkpt lat="46.45646" lon="4.90605">
        <ele>190.4</ele>
        <time>2024-09-18T14:36:09Z</time>
      </trkpt>
      <trkpt lat="46.45643" lon="4.90599">
        <ele>190.4</ele>
        <time>2024-09-18T14:36:10Z</time>
      </trkpt>
      <trkpt lat="46.4564" lon="4.90593">
        <ele>190.4</ele>
        <time>2024-09-18T14:36:11Z</time>
      </trkpt>
      <trkpt lat="46.45637" lon="4.90588">
        <ele>190.4</ele>
        <time>2024-09-18T14:36:12Z</time>
      </trkpt>
      <trkpt lat="46.45634" lon="4.90582">
        <ele>190.4</ele>
        <time>2024-09-18T14:36:13Z</time>
      </trkpt>
      <trkpt lat="46.45631" lon="4.90577">
        <ele>190.2</ele>
        <time>2024-09-18T14:36:14Z</time>
      </trkpt>
      <trkpt lat="46.45628" lon="4.90571">
        <ele>190.2</ele>
        <time>2024-09-18T14:36:15Z</time>
      </trkpt>
      <trkpt lat="46.45625" lon="4.90565">
        <ele>190.2</ele>
        <time>2024-09-18T14:36:16Z</time>
      </trkpt>
      <trkpt lat="46.45622" lon="4.9056">
        <ele>190.2</ele>
        <time>2024-09-18T14:36:17Z</time>
      </trkpt>
      <trkpt lat="46.4562" lon="4.90554">
        <ele>190</ele>
        <time>2024-09-18T14:36:18Z</time>
      </trkpt>
      <trkpt lat="46.45617" lon="4.90549">
        <ele>190</ele>
        <time>2024-09-18T14:36:19Z</time>
      </trkpt>
      <trkpt lat="46.45612" lon="4.90541">
        <ele>190</ele>
        <time>2024-09-18T14:36:20Z</time>
      </trkpt>
      <trkpt lat="46.4561" lon="4.90539">
        <ele>190</ele>
        <time>2024-09-18T14:36:21Z</time>
      </trkpt>
      <trkpt lat="46.45607" lon="4.90533">
        <ele>190</ele>
        <time>2024-09-18T14:36:22Z</time>
      </trkpt>
      <trkpt lat="46.45604" lon="4.90528">
        <ele>190.2</ele>
        <time>2024-09-18T14:36:23Z</time>
      </trkpt>
      <trkpt lat="46.45599" lon="4.90519">
        <ele>190.2</ele>
        <time>2024-09-18T14:36:24Z</time>
      </trkpt>
      <trkpt lat="46.45598" lon="4.90517">
        <ele>190.2</ele>
        <time>2024-09-18T14:36:25Z</time>
      </trkpt>
      <trkpt lat="46.45595" lon="4.90511">
        <ele>190</ele>
        <time>2024-09-18T14:36:26Z</time>
      </trkpt>
      <trkpt lat="46.45592" lon="4.90506">
        <ele>191.2</ele>
        <time>2024-09-18T14:36:27Z</time>
      </trkpt>
      <trkpt lat="46.45589" lon="4.905">
        <ele>191.2</ele>
        <time>2024-09-18T14:36:28Z</time>
      </trkpt>
      <trkpt lat="46.45586" lon="4.90495">
        <ele>191.2</ele>
        <time>2024-09-18T14:36:29Z</time>
      </trkpt>
      <trkpt lat="46.45582" lon="4.90487">
        <ele>190.4</ele>
        <time>2024-09-18T14:36:30Z</time>
      </trkpt>
      <trkpt lat="46.45581" lon="4.90485">
        <ele>190.4</ele>
        <time>2024-09-18T14:36:31Z</time>
      </trkpt>
      <trkpt lat="46.45577" lon="4.90476">
        <ele>190.2</ele>
        <time>2024-09-18T14:36:32Z</time>
      </trkpt>
      <trkpt lat="46.45576" lon="4.90474">
        <ele>190.2</ele>
        <time>2024-09-18T14:36:33Z</time>
      </trkpt>
      <trkpt lat="46.45573" lon="4.90468">
        <ele>190.2</ele>
        <time>2024-09-18T14:36:34Z</time>
      </trkpt>
      <trkpt lat="46.4557" lon="4.90463">
        <ele>189.8</ele>
        <time>2024-09-18T14:36:35Z</time>
      </trkpt>
      <trkpt lat="46.45566" lon="4.90455">
        <ele>190.4</ele>
        <time>2024-09-18T14:36:36Z</time>
      </trkpt>
      <trkpt lat="46.45565" lon="4.90453">
        <ele>190.4</ele>
        <time>2024-09-18T14:36:37Z</time>
      </trkpt>
      <trkpt lat="46.45561" lon="4.90445">
        <ele>190.4</ele>
        <time>2024-09-18T14:36:38Z</time>
      </trkpt>
      <trkpt lat="46.4556" lon="4.90442">
        <ele>190</ele>
        <time>2024-09-18T14:36:39Z</time>
      </trkpt>
      <trkpt lat="46.45555" lon="4.90435">
        <ele>190</ele>
        <time>2024-09-18T14:36:40Z</time>
      </trkpt>
      <trkpt lat="46.45554" lon="4.90432">
        <ele>190</ele>
        <time>2024-09-18T14:36:41Z</time>
      </trkpt>
      <trkpt lat="46.4555" lon="4.90424">
        <ele>190</ele>
        <time>2024-09-18T14:36:42Z</time>
      </trkpt>
      <trkpt lat="46.45548" lon="4.90422">
        <ele>190</ele>
        <time>2024-09-18T14:36:43Z</time>
      </trkpt>
      <trkpt lat="46.45545" lon="4.90416">
        <ele>190</ele>
        <time>2024-09-18T14:36:44Z</time>
      </trkpt>
      <trkpt lat="46.45542" lon="4.9041">
        <ele>190</ele>
        <time>2024-09-18T14:36:45Z</time>
      </trkpt>
      <trkpt lat="46.45539" lon="4.90404">
        <ele>190.4</ele>
        <time>2024-09-18T14:36:46Z</time>
      </trkpt>
      <trkpt lat="46.45536" lon="4.90398">
        <ele>190.4</ele>
        <time>2024-09-18T14:36:47Z</time>
      </trkpt>
      <trkpt lat="46.45533" lon="4.90392">
        <ele>190.2</ele>
        <time>2024-09-18T14:36:48Z</time>
      </trkpt>
      <trkpt lat="46.45531" lon="4.90387">
        <ele>190.2</ele>
        <time>2024-09-18T14:36:49Z</time>
      </trkpt>
      <trkpt lat="46.45528" lon="4.90381">
        <ele>190.2</ele>
        <time>2024-09-18T14:36:50Z</time>
      </trkpt>
      <trkpt lat="46.45525" lon="4.90375">
        <ele>190.2</ele>
        <time>2024-09-18T14:36:51Z</time>
      </trkpt>
      <trkpt lat="46.45522" lon="4.9037">
        <ele>190.2</ele>
        <time>2024-09-18T14:36:52Z</time>
      </trkpt>
      <trkpt lat="46.45519" lon="4.90364">
        <ele>190.2</ele>
        <time>2024-09-18T14:36:53Z</time>
      </trkpt>
      <trkpt lat="46.45516" lon="4.90358">
        <ele>190.4</ele>
        <time>2024-09-18T14:36:54Z</time>
      </trkpt>
      <trkpt lat="46.45513" lon="4.90353">
        <ele>190.4</ele>
        <time>2024-09-18T14:36:55Z</time>
      </trkpt>
      <trkpt lat="46.4551" lon="4.90347">
        <ele>190.4</ele>
        <time>2024-09-18T14:36:56Z</time>
      </trkpt>
      <trkpt lat="46.45507" lon="4.90341">
        <ele>190.4</ele>
        <time>2024-09-18T14:36:57Z</time>
      </trkpt>
      <trkpt lat="46.45503" lon="4.90335">
        <ele>190.4</ele>
        <time>2024-09-18T14:36:58Z</time>
      </trkpt>
      <trkpt lat="46.455" lon="4.90329">
        <ele>189.2</ele>
        <time>2024-09-18T14:36:59Z</time>
      </trkpt>
      <trkpt lat="46.45498" lon="4.90323">
        <ele>189.2</ele>
        <time>2024-09-18T14:37:00Z</time>
      </trkpt>
      <trkpt lat="46.45494" lon="4.90317">
        <ele>189.2</ele>
        <time>2024-09-18T14:37:01Z</time>
      </trkpt>
      <trkpt lat="46.45489" lon="4.9031">
        <ele>190.2</ele>
        <time>2024-09-18T14:37:02Z</time>
      </trkpt>
      <trkpt lat="46.45487" lon="4.90308">
        <ele>190</ele>
        <time>2024-09-18T14:37:03Z</time>
      </trkpt>
      <trkpt lat="46.45482" lon="4.903">
        <ele>190</ele>
        <time>2024-09-18T14:37:04Z</time>
      </trkpt>
      <trkpt lat="46.4548" lon="4.90298">
        <ele>190</ele>
        <time>2024-09-18T14:37:05Z</time>
      </trkpt>
      <trkpt lat="46.45475" lon="4.9029">
        <ele>190</ele>
        <time>2024-09-18T14:37:06Z</time>
      </trkpt>
      <trkpt lat="46.45473" lon="4.90288">
        <ele>190.2</ele>
        <time>2024-09-18T14:37:07Z</time>
      </trkpt>
      <trkpt lat="46.45468" lon="4.90281">
        <ele>190.2</ele>
        <time>2024-09-18T14:37:08Z</time>
      </trkpt>
      <trkpt lat="46.45466" lon="4.90279">
        <ele>190.2</ele>
        <time>2024-09-18T14:37:09Z</time>
      </trkpt>
      <trkpt lat="46.4546" lon="4.90272">
        <ele>190.2</ele>
        <time>2024-09-18T14:37:10Z</time>
      </trkpt>
      <trkpt lat="46.45459" lon="4.9027">
        <ele>190.2</ele>
        <time>2024-09-18T14:37:11Z</time>
      </trkpt>
      <trkpt lat="46.45453" lon="4.90262">
        <ele>189.8</ele>
        <time>2024-09-18T14:37:12Z</time>
      </trkpt>
      <trkpt lat="46.45452" lon="4.9026">
        <ele>189.8</ele>
        <time>2024-09-18T14:37:13Z</time>
      </trkpt>
      <trkpt lat="46.45446" lon="4.90253">
        <ele>189.8</ele>
        <time>2024-09-18T14:37:14Z</time>
      </trkpt>
      <trkpt lat="46.45445" lon="4.9025">
        <ele>189.8</ele>
        <time>2024-09-18T14:37:15Z</time>
      </trkpt>
      <trkpt lat="46.45439" lon="4.90244">
        <ele>190</ele>
        <time>2024-09-18T14:37:16Z</time>
      </trkpt>
      <trkpt lat="46.45437" lon="4.90241">
        <ele>190</ele>
        <time>2024-09-18T14:37:17Z</time>
      </trkpt>
      <trkpt lat="46.45432" lon="4.90234">
        <ele>190</ele>
        <time>2024-09-18T14:37:18Z</time>
      </trkpt>
      <trkpt lat="46.4543" lon="4.90232">
        <ele>190</ele>
        <time>2024-09-18T14:37:19Z</time>
      </trkpt>
      <trkpt lat="46.45426" lon="4.90227">
        <ele>190</ele>
        <time>2024-09-18T14:37:20Z</time>
      </trkpt>
      <trkpt lat="46.45422" lon="4.90223">
        <ele>190</ele>
        <time>2024-09-18T14:37:21Z</time>
      </trkpt>
      <trkpt lat="46.45419" lon="4.90218">
        <ele>190</ele>
        <time>2024-09-18T14:37:22Z</time>
      </trkpt>
      <trkpt lat="46.45415" lon="4.90213">
        <ele>190</ele>
        <time>2024-09-18T14:37:23Z</time>
      </trkpt>
      <trkpt lat="46.45411" lon="4.90208">
        <ele>190</ele>
        <time>2024-09-18T14:37:24Z</time>
      </trkpt>
      <trkpt lat="46.45408" lon="4.90204">
        <ele>190</ele>
        <time>2024-09-18T14:37:25Z</time>
      </trkpt>
      <trkpt lat="46.45404" lon="4.90199">
        <ele>190</ele>
        <time>2024-09-18T14:37:26Z</time>
      </trkpt>
      <trkpt lat="46.454" lon="4.90194">
        <ele>190</ele>
        <time>2024-09-18T14:37:27Z</time>
      </trkpt>
      <trkpt lat="46.45397" lon="4.90188">
        <ele>190</ele>
        <time>2024-09-18T14:37:28Z</time>
      </trkpt>
      <trkpt lat="46.45394" lon="4.90183">
        <ele>190</ele>
        <time>2024-09-18T14:37:29Z</time>
      </trkpt>
      <trkpt lat="46.4539" lon="4.90178">
        <ele>190</ele>
        <time>2024-09-18T14:37:30Z</time>
      </trkpt>
      <trkpt lat="46.45387" lon="4.90173">
        <ele>190</ele>
        <time>2024-09-18T14:37:31Z</time>
      </trkpt>
      <trkpt lat="46.45383" lon="4.90168">
        <ele>190</ele>
        <time>2024-09-18T14:37:32Z</time>
      </trkpt>
      <trkpt lat="46.4538" lon="4.90163">
        <ele>190</ele>
        <time>2024-09-18T14:37:33Z</time>
      </trkpt>
      <trkpt lat="46.45377" lon="4.90158">
        <ele>189.8</ele>
        <time>2024-09-18T14:37:34Z</time>
      </trkpt>
      <trkpt lat="46.45373" lon="4.90153">
        <ele>190</ele>
        <time>2024-09-18T14:37:35Z</time>
      </trkpt>
      <trkpt lat="46.4537" lon="4.90147">
        <ele>190</ele>
        <time>2024-09-18T14:37:36Z</time>
      </trkpt>
      <trkpt lat="46.45366" lon="4.90142">
        <ele>190</ele>
        <time>2024-09-18T14:37:37Z</time>
      </trkpt>
      <trkpt lat="46.45363" lon="4.90137">
        <ele>189.8</ele>
        <time>2024-09-18T14:37:38Z</time>
      </trkpt>
      <trkpt lat="46.45359" lon="4.90132">
        <ele>190.4</ele>
        <time>2024-09-18T14:37:39Z</time>
      </trkpt>
      <trkpt lat="46.45356" lon="4.90126">
        <ele>190.4</ele>
        <time>2024-09-18T14:37:40Z</time>
      </trkpt>
      <trkpt lat="46.45352" lon="4.90121">
        <ele>190.4</ele>
        <time>2024-09-18T14:37:41Z</time>
      </trkpt>
      <trkpt lat="46.45349" lon="4.90116">
        <ele>190.4</ele>
        <time>2024-09-18T14:37:42Z</time>
      </trkpt>
      <trkpt lat="46.45345" lon="4.90111">
        <ele>189.4</ele>
        <time>2024-09-18T14:37:43Z</time>
      </trkpt>
      <trkpt lat="46.45341" lon="4.90106">
        <ele>190.4</ele>
        <time>2024-09-18T14:37:44Z</time>
      </trkpt>
      <trkpt lat="46.45336" lon="4.90099">
        <ele>190.4</ele>
        <time>2024-09-18T14:37:45Z</time>
      </trkpt>
      <trkpt lat="46.45334" lon="4.90096">
        <ele>190.4</ele>
        <time>2024-09-18T14:37:46Z</time>
      </trkpt>
      <trkpt lat="46.45328" lon="4.90089">
        <ele>189.4</ele>
        <time>2024-09-18T14:37:47Z</time>
      </trkpt>
      <trkpt lat="46.45326" lon="4.90087">
        <ele>189.8</ele>
        <time>2024-09-18T14:37:48Z</time>
      </trkpt>
      <trkpt lat="46.4532" lon="4.90079">
        <ele>189.8</ele>
        <time>2024-09-18T14:37:49Z</time>
      </trkpt>
      <trkpt lat="46.45319" lon="4.90077">
        <ele>189.8</ele>
        <time>2024-09-18T14:37:50Z</time>
      </trkpt>
      <trkpt lat="46.45313" lon="4.9007">
        <ele>189.4</ele>
        <time>2024-09-18T14:37:51Z</time>
      </trkpt>
      <trkpt lat="46.45311" lon="4.90067">
        <ele>189.4</ele>
        <time>2024-09-18T14:37:52Z</time>
      </trkpt>
      <trkpt lat="46.45306" lon="4.90059">
        <ele>190</ele>
        <time>2024-09-18T14:37:53Z</time>
      </trkpt>
      <trkpt lat="46.45304" lon="4.90057">
        <ele>190</ele>
        <time>2024-09-18T14:37:54Z</time>
      </trkpt>
      <trkpt lat="46.45298" lon="4.90049">
        <ele>190</ele>
        <time>2024-09-18T14:37:55Z</time>
      </trkpt>
      <trkpt lat="46.45297" lon="4.90046">
        <ele>189.6</ele>
        <time>2024-09-18T14:37:56Z</time>
      </trkpt>
      <trkpt lat="46.45291" lon="4.90039">
        <ele>189.2</ele>
        <time>2024-09-18T14:37:57Z</time>
      </trkpt>
      <trkpt lat="46.45289" lon="4.90037">
        <ele>189.2</ele>
        <time>2024-09-18T14:37:58Z</time>
      </trkpt>
      <trkpt lat="46.45284" lon="4.90029">
        <ele>189.2</ele>
        <time>2024-09-18T14:37:59Z</time>
      </trkpt>
      <trkpt lat="46.45282" lon="4.90027">
        <ele>189.4</ele>
        <time>2024-09-18T14:38:00Z</time>
      </trkpt>
      <trkpt lat="46.45276" lon="4.90019">
        <ele>189.8</ele>
        <time>2024-09-18T14:38:01Z</time>
      </trkpt>
      <trkpt lat="46.45274" lon="4.90016">
        <ele>189.8</ele>
        <time>2024-09-18T14:38:02Z</time>
      </trkpt>
      <trkpt lat="46.45271" lon="4.90011">
        <ele>189.8</ele>
        <time>2024-09-18T14:38:03Z</time>
      </trkpt>
      <trkpt lat="46.45267" lon="4.90005">
        <ele>189.8</ele>
        <time>2024-09-18T14:38:04Z</time>
      </trkpt>
      <trkpt lat="46.45264" lon="4.9">
        <ele>189.8</ele>
        <time>2024-09-18T14:38:05Z</time>
      </trkpt>
      <trkpt lat="46.4526" lon="4.89995">
        <ele>189.4</ele>
        <time>2024-09-18T14:38:06Z</time>
      </trkpt>
      <trkpt lat="46.45257" lon="4.8999">
        <ele>189.4</ele>
        <time>2024-09-18T14:38:07Z</time>
      </trkpt>
      <trkpt lat="46.45253" lon="4.89986">
        <ele>189.4</ele>
        <time>2024-09-18T14:38:08Z</time>
      </trkpt>
      <trkpt lat="46.4525" lon="4.89982">
        <ele>189.4</ele>
        <time>2024-09-18T14:38:09Z</time>
      </trkpt>
      <trkpt lat="46.45248" lon="4.89977">
        <ele>189.4</ele>
        <time>2024-09-18T14:38:10Z</time>
      </trkpt>
      <trkpt lat="46.45245" lon="4.89973">
        <ele>189.4</ele>
        <time>2024-09-18T14:38:11Z</time>
      </trkpt>
      <trkpt lat="46.45242" lon="4.89969">
        <ele>189.4</ele>
        <time>2024-09-18T14:38:12Z</time>
      </trkpt>
      <trkpt lat="46.45239" lon="4.89965">
        <ele>189.4</ele>
        <time>2024-09-18T14:38:13Z</time>
      </trkpt>
      <trkpt lat="46.45236" lon="4.89961">
        <ele>189.6</ele>
        <time>2024-09-18T14:38:14Z</time>
      </trkpt>
      <trkpt lat="46.45234" lon="4.89957">
        <ele>189.6</ele>
        <time>2024-09-18T14:38:15Z</time>
      </trkpt>
      <trkpt lat="46.45231" lon="4.89954">
        <ele>189.8</ele>
        <time>2024-09-18T14:38:16Z</time>
      </trkpt>
      <trkpt lat="46.45229" lon="4.8995">
        <ele>189.8</ele>
        <time>2024-09-18T14:38:17Z</time>
      </trkpt>
      <trkpt lat="46.45227" lon="4.89946">
        <ele>189.8</ele>
        <time>2024-09-18T14:38:18Z</time>
      </trkpt>
      <trkpt lat="46.45225" lon="4.89943">
        <ele>189.8</ele>
        <time>2024-09-18T14:38:19Z</time>
      </trkpt>
      <trkpt lat="46.45222" lon="4.89939">
        <ele>189.8</ele>
        <time>2024-09-18T14:38:20Z</time>
      </trkpt>
      <trkpt lat="46.4522" lon="4.89935">
        <ele>189.8</ele>
        <time>2024-09-18T14:38:21Z</time>
      </trkpt>
      <trkpt lat="46.45218" lon="4.89932">
        <ele>189.8</ele>
        <time>2024-09-18T14:38:22Z</time>
      </trkpt>
      <trkpt lat="46.45217" lon="4.89928">
        <ele>189.4</ele>
        <time>2024-09-18T14:38:23Z</time>
      </trkpt>
      <trkpt lat="46.45215" lon="4.89925">
        <ele>189.4</ele>
        <time>2024-09-18T14:38:24Z</time>
      </trkpt>
      <trkpt lat="46.45213" lon="4.89922">
        <ele>189.2</ele>
        <time>2024-09-18T14:38:25Z</time>
      </trkpt>
      <trkpt lat="46.4521" lon="4.89918">
        <ele>189.2</ele>
        <time>2024-09-18T14:38:26Z</time>
      </trkpt>
      <trkpt lat="46.4521" lon="4.89916">
        <ele>189.4</ele>
        <time>2024-09-18T14:38:27Z</time>
      </trkpt>
      <trkpt lat="46.45207" lon="4.89912">
        <ele>189.4</ele>
        <time>2024-09-18T14:38:28Z</time>
      </trkpt>
      <trkpt lat="46.45206" lon="4.8991">
        <ele>189.4</ele>
        <time>2024-09-18T14:38:29Z</time>
      </trkpt>
      <trkpt lat="46.45204" lon="4.89905">
        <ele>189.4</ele>
        <time>2024-09-18T14:38:30Z</time>
      </trkpt>
      <trkpt lat="46.45203" lon="4.89904">
        <ele>189.4</ele>
        <time>2024-09-18T14:38:31Z</time>
      </trkpt>
      <trkpt lat="46.452" lon="4.899">
        <ele>189.4</ele>
        <time>2024-09-18T14:38:32Z</time>
      </trkpt>
      <trkpt lat="46.45199" lon="4.89899">
        <ele>189.4</ele>
        <time>2024-09-18T14:38:33Z</time>
      </trkpt>
      <trkpt lat="46.45197" lon="4.89894">
        <ele>189.4</ele>
        <time>2024-09-18T14:38:34Z</time>
      </trkpt>
      <trkpt lat="46.45196" lon="4.89892">
        <ele>189.4</ele>
        <time>2024-09-18T14:38:35Z</time>
      </trkpt>
      <trkpt lat="46.45192" lon="4.89886">
        <ele>189.4</ele>
        <time>2024-09-18T14:38:36Z</time>
      </trkpt>
      <trkpt lat="46.45191" lon="4.89884">
        <ele>189.4</ele>
        <time>2024-09-18T14:38:37Z</time>
      </trkpt>
      <trkpt lat="46.45187" lon="4.89877">
        <ele>189.2</ele>
        <time>2024-09-18T14:38:38Z</time>
      </trkpt>
      <trkpt lat="46.45186" lon="4.89874">
        <ele>189.2</ele>
        <time>2024-09-18T14:38:39Z</time>
      </trkpt>
      <trkpt lat="46.45182" lon="4.89867">
        <ele>189.2</ele>
        <time>2024-09-18T14:38:40Z</time>
      </trkpt>
      <trkpt lat="46.4518" lon="4.89864">
        <ele>189.2</ele>
        <time>2024-09-18T14:38:41Z</time>
      </trkpt>
      <trkpt lat="46.45176" lon="4.89856">
        <ele>189.2</ele>
        <time>2024-09-18T14:38:42Z</time>
      </trkpt>
      <trkpt lat="46.45174" lon="4.89854">
        <ele>189.2</ele>
        <time>2024-09-18T14:38:43Z</time>
      </trkpt>
      <trkpt lat="46.4517" lon="4.89846">
        <ele>189.2</ele>
        <time>2024-09-18T14:38:44Z</time>
      </trkpt>
      <trkpt lat="46.45168" lon="4.89843">
        <ele>189.2</ele>
        <time>2024-09-18T14:38:45Z</time>
      </trkpt>
      <trkpt lat="46.45165" lon="4.89839">
        <ele>190.2</ele>
        <time>2024-09-18T14:38:46Z</time>
      </trkpt>
      <trkpt lat="46.45162" lon="4.89834">
        <ele>190.2</ele>
        <time>2024-09-18T14:38:47Z</time>
      </trkpt>
      <trkpt lat="46.45159" lon="4.8983">
        <ele>190.2</ele>
        <time>2024-09-18T14:38:48Z</time>
      </trkpt>
      <trkpt lat="46.45156" lon="4.89825">
        <ele>189.2</ele>
        <time>2024-09-18T14:38:49Z</time>
      </trkpt>
      <trkpt lat="46.45153" lon="4.89821">
        <ele>189.2</ele>
        <time>2024-09-18T14:38:50Z</time>
      </trkpt>
      <trkpt lat="46.45151" lon="4.89816">
        <ele>188.8</ele>
        <time>2024-09-18T14:38:51Z</time>
      </trkpt>
      <trkpt lat="46.45148" lon="4.89811">
        <ele>188.8</ele>
        <time>2024-09-18T14:38:52Z</time>
      </trkpt>
      <trkpt lat="46.45145" lon="4.89806">
        <ele>188.8</ele>
        <time>2024-09-18T14:38:53Z</time>
      </trkpt>
      <trkpt lat="46.45142" lon="4.89801">
        <ele>188.8</ele>
        <time>2024-09-18T14:38:54Z</time>
      </trkpt>
      <trkpt lat="46.45139" lon="4.89795">
        <ele>189.6</ele>
        <time>2024-09-18T14:38:55Z</time>
      </trkpt>
      <trkpt lat="46.45136" lon="4.8979">
        <ele>189.6</ele>
        <time>2024-09-18T14:38:56Z</time>
      </trkpt>
      <trkpt lat="46.45133" lon="4.89786">
        <ele>189.6</ele>
        <time>2024-09-18T14:38:57Z</time>
      </trkpt>
      <trkpt lat="46.45129" lon="4.89781">
        <ele>189.6</ele>
        <time>2024-09-18T14:38:58Z</time>
      </trkpt>
      <trkpt lat="46.45126" lon="4.89777">
        <ele>189.6</ele>
        <time>2024-09-18T14:38:59Z</time>
      </trkpt>
      <trkpt lat="46.45123" lon="4.89773">
        <ele>189.8</ele>
        <time>2024-09-18T14:39:00Z</time>
      </trkpt>
      <trkpt lat="46.45119" lon="4.89768">
        <ele>189.8</ele>
        <time>2024-09-18T14:39:01Z</time>
      </trkpt>
      <trkpt lat="46.45116" lon="4.89764">
        <ele>189.8</ele>
        <time>2024-09-18T14:39:02Z</time>
      </trkpt>
      <trkpt lat="46.45113" lon="4.8976">
        <ele>189.8</ele>
        <time>2024-09-18T14:39:03Z</time>
      </trkpt>
      <trkpt lat="46.45109" lon="4.89756">
        <ele>189.2</ele>
        <time>2024-09-18T14:39:04Z</time>
      </trkpt>
      <trkpt lat="46.45106" lon="4.89752">
        <ele>189.2</ele>
        <time>2024-09-18T14:39:05Z</time>
      </trkpt>
      <trkpt lat="46.45102" lon="4.89748">
        <ele>189.4</ele>
        <time>2024-09-18T14:39:06Z</time>
      </trkpt>
      <trkpt lat="46.45099" lon="4.89744">
        <ele>189.4</ele>
        <time>2024-09-18T14:39:07Z</time>
      </trkpt>
      <trkpt lat="46.45096" lon="4.8974">
        <ele>189.4</ele>
        <time>2024-09-18T14:39:08Z</time>
      </trkpt>
      <trkpt lat="46.45091" lon="4.89734">
        <ele>189.4</ele>
        <time>2024-09-18T14:39:09Z</time>
      </trkpt>
      <trkpt lat="46.45089" lon="4.89732">
        <ele>189</ele>
        <time>2024-09-18T14:39:10Z</time>
      </trkpt>
      <trkpt lat="46.45084" lon="4.89726">
        <ele>189</ele>
        <time>2024-09-18T14:39:11Z</time>
      </trkpt>
      <trkpt lat="46.45082" lon="4.89724">
        <ele>189</ele>
        <time>2024-09-18T14:39:12Z</time>
      </trkpt>
      <trkpt lat="46.45077" lon="4.89718">
        <ele>189</ele>
        <time>2024-09-18T14:39:13Z</time>
      </trkpt>
      <trkpt lat="46.45075" lon="4.89717">
        <ele>189.6</ele>
        <time>2024-09-18T14:39:14Z</time>
      </trkpt>
      <trkpt lat="46.45072" lon="4.89712">
        <ele>189.6</ele>
        <time>2024-09-18T14:39:15Z</time>
      </trkpt>
      <trkpt lat="46.45069" lon="4.89708">
        <ele>189.6</ele>
        <time>2024-09-18T14:39:16Z</time>
      </trkpt>
      <trkpt lat="46.45064" lon="4.89702">
        <ele>189.6</ele>
        <time>2024-09-18T14:39:17Z</time>
      </trkpt>
      <trkpt lat="46.45063" lon="4.897">
        <ele>189.6</ele>
        <time>2024-09-18T14:39:18Z</time>
      </trkpt>
      <trkpt lat="46.45058" lon="4.89694">
        <ele>189.8</ele>
        <time>2024-09-18T14:39:19Z</time>
      </trkpt>
      <trkpt lat="46.45057" lon="4.89692">
        <ele>189.8</ele>
        <time>2024-09-18T14:39:20Z</time>
      </trkpt>
      <trkpt lat="46.45052" lon="4.89687">
        <ele>189.8</ele>
        <time>2024-09-18T14:39:21Z</time>
      </trkpt>
      <trkpt lat="46.45051" lon="4.89685">
        <ele>189.8</ele>
        <time>2024-09-18T14:39:22Z</time>
      </trkpt>
      <trkpt lat="46.45046" lon="4.89681">
        <ele>189.4</ele>
        <time>2024-09-18T14:39:23Z</time>
      </trkpt>
      <trkpt lat="46.45045" lon="4.8968">
        <ele>189.4</ele>
        <time>2024-09-18T14:39:24Z</time>
      </trkpt>
      <trkpt lat="46.4504" lon="4.89675">
        <ele>189.4</ele>
        <time>2024-09-18T14:39:25Z</time>
      </trkpt>
      <trkpt lat="46.45038" lon="4.89673">
        <ele>189.8</ele>
        <time>2024-09-18T14:39:26Z</time>
      </trkpt>
      <trkpt lat="46.45035" lon="4.8967">
        <ele>189.8</ele>
        <time>2024-09-18T14:39:27Z</time>
      </trkpt>
      <trkpt lat="46.45032" lon="4.89666">
        <ele>189.8</ele>
        <time>2024-09-18T14:39:28Z</time>
      </trkpt>
      <trkpt lat="46.45028" lon="4.89663">
        <ele>189.8</ele>
        <time>2024-09-18T14:39:29Z</time>
      </trkpt>
      <trkpt lat="46.45024" lon="4.8966">
        <ele>189.8</ele>
        <time>2024-09-18T14:39:30Z</time>
      </trkpt>
      <trkpt lat="46.4502" lon="4.89657">
        <ele>189.8</ele>
        <time>2024-09-18T14:39:31Z</time>
      </trkpt>
      <trkpt lat="46.45017" lon="4.89653">
        <ele>190</ele>
        <time>2024-09-18T14:39:32Z</time>
      </trkpt>
      <trkpt lat="46.45014" lon="4.89649">
        <ele>190</ele>
        <time>2024-09-18T14:39:33Z</time>
      </trkpt>
      <trkpt lat="46.4501" lon="4.89644">
        <ele>190</ele>
        <time>2024-09-18T14:39:34Z</time>
      </trkpt>
      <trkpt lat="46.45007" lon="4.89639">
        <ele>189.8</ele>
        <time>2024-09-18T14:39:35Z</time>
      </trkpt>
      <trkpt lat="46.45003" lon="4.89635">
        <ele>189.8</ele>
        <time>2024-09-18T14:39:36Z</time>
      </trkpt>
      <trkpt lat="46.44999" lon="4.8963">
        <ele>189.6</ele>
        <time>2024-09-18T14:39:37Z</time>
      </trkpt>
      <trkpt lat="46.44995" lon="4.89626">
        <ele>189.6</ele>
        <time>2024-09-18T14:39:38Z</time>
      </trkpt>
      <trkpt lat="46.44991" lon="4.89622">
        <ele>189.6</ele>
        <time>2024-09-18T14:39:39Z</time>
      </trkpt>
      <trkpt lat="46.44984" lon="4.89616">
        <ele>189.6</ele>
        <time>2024-09-18T14:39:40Z</time>
      </trkpt>
      <trkpt lat="46.44982" lon="4.89614">
        <ele>189.8</ele>
        <time>2024-09-18T14:39:41Z</time>
      </trkpt>
      <trkpt lat="46.44978" lon="4.89609">
        <ele>189.8</ele>
        <time>2024-09-18T14:39:42Z</time>
      </trkpt>
      <trkpt lat="46.44974" lon="4.89605">
        <ele>189.8</ele>
        <time>2024-09-18T14:39:43Z</time>
      </trkpt>
      <trkpt lat="46.44969" lon="4.89601">
        <ele>189.8</ele>
        <time>2024-09-18T14:39:44Z</time>
      </trkpt>
      <trkpt lat="46.44964" lon="4.89597">
        <ele>189.8</ele>
        <time>2024-09-18T14:39:45Z</time>
      </trkpt>
      <trkpt lat="46.4496" lon="4.89593">
        <ele>189.6</ele>
        <time>2024-09-18T14:39:46Z</time>
      </trkpt>
      <trkpt lat="46.44955" lon="4.89589">
        <ele>189.6</ele>
        <time>2024-09-18T14:39:47Z</time>
      </trkpt>
      <trkpt lat="46.44951" lon="4.89585">
        <ele>189.6</ele>
        <time>2024-09-18T14:39:48Z</time>
      </trkpt>
      <trkpt lat="46.44946" lon="4.89581">
        <ele>189.8</ele>
        <time>2024-09-18T14:39:49Z</time>
      </trkpt>
      <trkpt lat="46.44939" lon="4.89575">
        <ele>189.8</ele>
        <time>2024-09-18T14:39:50Z</time>
      </trkpt>
      <trkpt lat="46.44937" lon="4.89573">
        <ele>189.6</ele>
        <time>2024-09-18T14:39:51Z</time>
      </trkpt>
      <trkpt lat="46.4493" lon="4.89567">
        <ele>189.6</ele>
        <time>2024-09-18T14:39:52Z</time>
      </trkpt>
      <trkpt lat="46.44928" lon="4.89565">
        <ele>189.8</ele>
        <time>2024-09-18T14:39:53Z</time>
      </trkpt>
      <trkpt lat="46.44921" lon="4.89559">
        <ele>189.8</ele>
        <time>2024-09-18T14:39:54Z</time>
      </trkpt>
      <trkpt lat="46.44919" lon="4.89557">
        <ele>189.8</ele>
        <time>2024-09-18T14:39:55Z</time>
      </trkpt>
      <trkpt lat="46.44914" lon="4.89553">
        <ele>189.8</ele>
        <time>2024-09-18T14:39:56Z</time>
      </trkpt>
      <trkpt lat="46.44909" lon="4.89549">
        <ele>189.6</ele>
        <time>2024-09-18T14:39:57Z</time>
      </trkpt>
      <trkpt lat="46.44905" lon="4.89545">
        <ele>189.8</ele>
        <time>2024-09-18T14:39:58Z</time>
      </trkpt>
      <trkpt lat="46.449" lon="4.89541">
        <ele>189.8</ele>
        <time>2024-09-18T14:39:59Z</time>
      </trkpt>
      <trkpt lat="46.44894" lon="4.89536">
        <ele>189.8</ele>
        <time>2024-09-18T14:40:00Z</time>
      </trkpt>
      <trkpt lat="46.44891" lon="4.89534">
        <ele>189.8</ele>
        <time>2024-09-18T14:40:01Z</time>
      </trkpt>
      <trkpt lat="46.44885" lon="4.89528">
        <ele>189.6</ele>
        <time>2024-09-18T14:40:02Z</time>
      </trkpt>
      <trkpt lat="46.44882" lon="4.89526">
        <ele>189.6</ele>
        <time>2024-09-18T14:40:03Z</time>
      </trkpt>
      <trkpt lat="46.44876" lon="4.8952">
        <ele>189.8</ele>
        <time>2024-09-18T14:40:04Z</time>
      </trkpt>
      <trkpt lat="46.44874" lon="4.89518">
        <ele>189.8</ele>
        <time>2024-09-18T14:40:05Z</time>
      </trkpt>
      <trkpt lat="46.44867" lon="4.89512">
        <ele>189.8</ele>
        <time>2024-09-18T14:40:06Z</time>
      </trkpt>
      <trkpt lat="46.44865" lon="4.8951">
        <ele>189.6</ele>
        <time>2024-09-18T14:40:07Z</time>
      </trkpt>
      <trkpt lat="46.44858" lon="4.89504">
        <ele>189.6</ele>
        <time>2024-09-18T14:40:08Z</time>
      </trkpt>
      <trkpt lat="46.44856" lon="4.89503">
        <ele>189.6</ele>
        <time>2024-09-18T14:40:09Z</time>
      </trkpt>
      <trkpt lat="46.44852" lon="4.89499">
        <ele>189.6</ele>
        <time>2024-09-18T14:40:10Z</time>
      </trkpt>
      <trkpt lat="46.44848" lon="4.89496">
        <ele>189.6</ele>
        <time>2024-09-18T14:40:11Z</time>
      </trkpt>
      <trkpt lat="46.44843" lon="4.89492">
        <ele>189.6</ele>
        <time>2024-09-18T14:40:12Z</time>
      </trkpt>
      <trkpt lat="46.44839" lon="4.89489">
        <ele>189.8</ele>
        <time>2024-09-18T14:40:13Z</time>
      </trkpt>
      <trkpt lat="46.44835" lon="4.89487">
        <ele>189.8</ele>
        <time>2024-09-18T14:40:14Z</time>
      </trkpt>
      <trkpt lat="46.44831" lon="4.89484">
        <ele>189.8</ele>
        <time>2024-09-18T14:40:15Z</time>
      </trkpt>
      <trkpt lat="46.44828" lon="4.89482">
        <ele>190.6</ele>
        <time>2024-09-18T14:40:16Z</time>
      </trkpt>
      <trkpt lat="46.44824" lon="4.8948">
        <ele>190.6</ele>
        <time>2024-09-18T14:40:17Z</time>
      </trkpt>
      <trkpt lat="46.44821" lon="4.8948">
        <ele>190.6</ele>
        <time>2024-09-18T14:40:18Z</time>
      </trkpt>
      <trkpt lat="46.44819" lon="4.89479">
        <ele>190.6</ele>
        <time>2024-09-18T14:40:19Z</time>
      </trkpt>
      <trkpt lat="46.44816" lon="4.89478">
        <ele>190.6</ele>
        <time>2024-09-18T14:40:20Z</time>
      </trkpt>
      <trkpt lat="46.44813" lon="4.89477">
        <ele>190.6</ele>
        <time>2024-09-18T14:40:21Z</time>
      </trkpt>
      <trkpt lat="46.44811" lon="4.89476">
        <ele>192</ele>
        <time>2024-09-18T14:40:22Z</time>
      </trkpt>
      <trkpt lat="46.44808" lon="4.89474">
        <ele>192</ele>
        <time>2024-09-18T14:40:23Z</time>
      </trkpt>
      <trkpt lat="46.44806" lon="4.89473">
        <ele>192</ele>
        <time>2024-09-18T14:40:24Z</time>
      </trkpt>
      <trkpt lat="46.44805" lon="4.89471">
        <ele>192.8</ele>
        <time>2024-09-18T14:40:25Z</time>
      </trkpt>
      <trkpt lat="46.44804" lon="4.89469">
        <ele>193</ele>
        <time>2024-09-18T14:40:26Z</time>
      </trkpt>
      <trkpt lat="46.44803" lon="4.89468">
        <ele>193</ele>
        <time>2024-09-18T14:40:27Z</time>
      </trkpt>
      <trkpt lat="46.44802" lon="4.89467">
        <ele>193</ele>
        <time>2024-09-18T14:40:28Z</time>
      </trkpt>
      <trkpt lat="46.44802" lon="4.89467">
        <ele>193.4</ele>
        <time>2024-09-18T14:40:29Z</time>
      </trkpt>
      <trkpt lat="46.44796" lon="4.89466">
        <ele>193.8</ele>
        <time>2024-09-18T14:40:37Z</time>
      </trkpt>
      <trkpt lat="46.44795" lon="4.89467">
        <ele>193.8</ele>
        <time>2024-09-18T14:40:38Z</time>
      </trkpt>
      <trkpt lat="46.44794" lon="4.89469">
        <ele>193.2</ele>
        <time>2024-09-18T14:40:39Z</time>
      </trkpt>
      <trkpt lat="46.44793" lon="4.89473">
        <ele>193.2</ele>
        <time>2024-09-18T14:40:40Z</time>
      </trkpt>
      <trkpt lat="46.44793" lon="4.89475">
        <ele>193.2</ele>
        <time>2024-09-18T14:40:41Z</time>
      </trkpt>
      <trkpt lat="46.44793" lon="4.89477">
        <ele>193.2</ele>
        <time>2024-09-18T14:40:42Z</time>
      </trkpt>
      <trkpt lat="46.44793" lon="4.89479">
        <ele>193.4</ele>
        <time>2024-09-18T14:40:43Z</time>
      </trkpt>
      <trkpt lat="46.44793" lon="4.89481">
        <ele>193.4</ele>
        <time>2024-09-18T14:40:44Z</time>
      </trkpt>
      <trkpt lat="46.44792" lon="4.89482">
        <ele>193.4</ele>
        <time>2024-09-18T14:40:45Z</time>
      </trkpt>
      <trkpt lat="46.44792" lon="4.89484">
        <ele>193.6</ele>
        <time>2024-09-18T14:41:03Z</time>
      </trkpt>
      <trkpt lat="46.44792" lon="4.89486">
        <ele>193.6</ele>
        <time>2024-09-18T14:41:04Z</time>
      </trkpt>
      <trkpt lat="46.44792" lon="4.89488">
        <ele>193.6</ele>
        <time>2024-09-18T14:41:05Z</time>
      </trkpt>
      <trkpt lat="46.44791" lon="4.89493">
        <ele>193.6</ele>
        <time>2024-09-18T14:41:06Z</time>
      </trkpt>
      <trkpt lat="46.44791" lon="4.89495">
        <ele>193.6</ele>
        <time>2024-09-18T14:41:07Z</time>
      </trkpt>
      <trkpt lat="46.4479" lon="4.89498">
        <ele>194</ele>
        <time>2024-09-18T14:41:08Z</time>
      </trkpt>
      <trkpt lat="46.4479" lon="4.89501">
        <ele>194.2</ele>
        <time>2024-09-18T14:41:09Z</time>
      </trkpt>
      <trkpt lat="46.44789" lon="4.89504">
        <ele>194.2</ele>
        <time>2024-09-18T14:41:10Z</time>
      </trkpt>
      <trkpt lat="46.44789" lon="4.89507">
        <ele>194.2</ele>
        <time>2024-09-18T14:41:11Z</time>
      </trkpt>
      <trkpt lat="46.44788" lon="4.89511">
        <ele>194.6</ele>
        <time>2024-09-18T14:41:12Z</time>
      </trkpt>
      <trkpt lat="46.44787" lon="4.89515">
        <ele>194.8</ele>
        <time>2024-09-18T14:41:13Z</time>
      </trkpt>
      <trkpt lat="46.44787" lon="4.89519">
        <ele>194.8</ele>
        <time>2024-09-18T14:41:14Z</time>
      </trkpt>
      <trkpt lat="46.44786" lon="4.89523">
        <ele>194.8</ele>
        <time>2024-09-18T14:41:15Z</time>
      </trkpt>
      <trkpt lat="46.44786" lon="4.89526">
        <ele>195.2</ele>
        <time>2024-09-18T14:41:16Z</time>
      </trkpt>
      <trkpt lat="46.44786" lon="4.8953">
        <ele>195.2</ele>
        <time>2024-09-18T14:41:17Z</time>
      </trkpt>
      <trkpt lat="46.44785" lon="4.89534">
        <ele>195.2</ele>
        <time>2024-09-18T14:41:18Z</time>
      </trkpt>
      <trkpt lat="46.44784" lon="4.89538">
        <ele>195.2</ele>
        <time>2024-09-18T14:41:19Z</time>
      </trkpt>
      <trkpt lat="46.44785" lon="4.89542">
        <ele>195.2</ele>
        <time>2024-09-18T14:41:20Z</time>
      </trkpt>
      <trkpt lat="46.44784" lon="4.89546">
        <ele>195.2</ele>
        <time>2024-09-18T14:41:21Z</time>
      </trkpt>
      <trkpt lat="46.44784" lon="4.8955">
        <ele>195.8</ele>
        <time>2024-09-18T14:41:22Z</time>
      </trkpt>
      <trkpt lat="46.44783" lon="4.89554">
        <ele>196.2</ele>
        <time>2024-09-18T14:41:23Z</time>
      </trkpt>
      <trkpt lat="46.44783" lon="4.89559">
        <ele>196.2</ele>
        <time>2024-09-18T14:41:24Z</time>
      </trkpt>
      <trkpt lat="46.44782" lon="4.89565">
        <ele>196.2</ele>
        <time>2024-09-18T14:41:25Z</time>
      </trkpt>
      <trkpt lat="46.44782" lon="4.89567">
        <ele>196.2</ele>
        <time>2024-09-18T14:41:26Z</time>
      </trkpt>
      <trkpt lat="46.44781" lon="4.89571">
        <ele>196.2</ele>
        <time>2024-09-18T14:41:27Z</time>
      </trkpt>
      <trkpt lat="46.44781" lon="4.89576">
        <ele>196.2</ele>
        <time>2024-09-18T14:41:28Z</time>
      </trkpt>
      <trkpt lat="46.4478" lon="4.8958">
        <ele>196.2</ele>
        <time>2024-09-18T14:41:29Z</time>
      </trkpt>
      <trkpt lat="46.4478" lon="4.89585">
        <ele>196.2</ele>
        <time>2024-09-18T14:41:30Z</time>
      </trkpt>
      <trkpt lat="46.44779" lon="4.8959">
        <ele>196.6</ele>
        <time>2024-09-18T14:41:31Z</time>
      </trkpt>
      <trkpt lat="46.44779" lon="4.89595">
        <ele>196.6</ele>
        <time>2024-09-18T14:41:32Z</time>
      </trkpt>
      <trkpt lat="46.44778" lon="4.89602">
        <ele>196.6</ele>
        <time>2024-09-18T14:41:33Z</time>
      </trkpt>
      <trkpt lat="46.44777" lon="4.89604">
        <ele>196.6</ele>
        <time>2024-09-18T14:41:34Z</time>
      </trkpt>
      <trkpt lat="46.44777" lon="4.89612">
        <ele>196.6</ele>
        <time>2024-09-18T14:41:35Z</time>
      </trkpt>
      <trkpt lat="46.44777" lon="4.89615">
        <ele>196.4</ele>
        <time>2024-09-18T14:41:36Z</time>
      </trkpt>
      <trkpt lat="46.44775" lon="4.89623">
        <ele>196.4</ele>
        <time>2024-09-18T14:41:37Z</time>
      </trkpt>
      <trkpt lat="46.44775" lon="4.89626">
        <ele>196.4</ele>
        <time>2024-09-18T14:41:38Z</time>
      </trkpt>
      <trkpt lat="46.44773" lon="4.89636">
        <ele>196.4</ele>
        <time>2024-09-18T14:41:39Z</time>
      </trkpt>
      <trkpt lat="46.44772" lon="4.89639">
        <ele>196.4</ele>
        <time>2024-09-18T14:41:40Z</time>
      </trkpt>
      <trkpt lat="46.4477" lon="4.89649">
        <ele>196.2</ele>
        <time>2024-09-18T14:41:41Z</time>
      </trkpt>
      <trkpt lat="46.4477" lon="4.89652">
        <ele>196.2</ele>
        <time>2024-09-18T14:41:42Z</time>
      </trkpt>
      <trkpt lat="46.44769" lon="4.89662">
        <ele>196.2</ele>
        <time>2024-09-18T14:41:43Z</time>
      </trkpt>
      <trkpt lat="46.44768" lon="4.89665">
        <ele>196.2</ele>
        <time>2024-09-18T14:41:44Z</time>
      </trkpt>
      <trkpt lat="46.44767" lon="4.89676">
        <ele>195.8</ele>
        <time>2024-09-18T14:41:45Z</time>
      </trkpt>
      <trkpt lat="46.44766" lon="4.8968">
        <ele>195.8</ele>
        <time>2024-09-18T14:41:46Z</time>
      </trkpt>
      <trkpt lat="46.44765" lon="4.89692">
        <ele>195.8</ele>
        <time>2024-09-18T14:41:47Z</time>
      </trkpt>
      <trkpt lat="46.44764" lon="4.89696">
        <ele>194.8</ele>
        <time>2024-09-18T14:41:48Z</time>
      </trkpt>
      <trkpt lat="46.44761" lon="4.89708">
        <ele>194.4</ele>
        <time>2024-09-18T14:41:49Z</time>
      </trkpt>
      <trkpt lat="46.44761" lon="4.89713">
        <ele>194.4</ele>
        <time>2024-09-18T14:41:50Z</time>
      </trkpt>
      <trkpt lat="46.44759" lon="4.89721">
        <ele>194.4</ele>
        <time>2024-09-18T14:41:51Z</time>
      </trkpt>
      <trkpt lat="46.44758" lon="4.8973">
        <ele>194.4</ele>
        <time>2024-09-18T14:41:52Z</time>
      </trkpt>
      <trkpt lat="46.44756" lon="4.8974">
        <ele>194.4</ele>
        <time>2024-09-18T14:41:53Z</time>
      </trkpt>
      <trkpt lat="46.44754" lon="4.89749">
        <ele>193.6</ele>
        <time>2024-09-18T14:41:54Z</time>
      </trkpt>
      <trkpt lat="46.44753" lon="4.89758">
        <ele>193.6</ele>
        <time>2024-09-18T14:41:55Z</time>
      </trkpt>
      <trkpt lat="46.44751" lon="4.89767">
        <ele>193.6</ele>
        <time>2024-09-18T14:41:56Z</time>
      </trkpt>
      <trkpt lat="46.4475" lon="4.89777">
        <ele>193.6</ele>
        <time>2024-09-18T14:41:57Z</time>
      </trkpt>
      <trkpt lat="46.44748" lon="4.89786">
        <ele>192.6</ele>
        <time>2024-09-18T14:41:58Z</time>
      </trkpt>
      <trkpt lat="46.44746" lon="4.89795">
        <ele>192.6</ele>
        <time>2024-09-18T14:41:59Z</time>
      </trkpt>
      <trkpt lat="46.44745" lon="4.89804">
        <ele>192.6</ele>
        <time>2024-09-18T14:42:00Z</time>
      </trkpt>
      <trkpt lat="46.44744" lon="4.89813">
        <ele>192.6</ele>
        <time>2024-09-18T14:42:01Z</time>
      </trkpt>
      <trkpt lat="46.44742" lon="4.89821">
        <ele>192.6</ele>
        <time>2024-09-18T14:42:02Z</time>
      </trkpt>
      <trkpt lat="46.4474" lon="4.8983">
        <ele>192.6</ele>
        <time>2024-09-18T14:42:03Z</time>
      </trkpt>
      <trkpt lat="46.44739" lon="4.89838">
        <ele>192.6</ele>
        <time>2024-09-18T14:42:04Z</time>
      </trkpt>
      <trkpt lat="46.44738" lon="4.89847">
        <ele>192.6</ele>
        <time>2024-09-18T14:42:05Z</time>
      </trkpt>
      <trkpt lat="46.44736" lon="4.89855">
        <ele>192.6</ele>
        <time>2024-09-18T14:42:06Z</time>
      </trkpt>
      <trkpt lat="46.44735" lon="4.89863">
        <ele>192.6</ele>
        <time>2024-09-18T14:42:07Z</time>
      </trkpt>
      <trkpt lat="46.44734" lon="4.89871">
        <ele>192.6</ele>
        <time>2024-09-18T14:42:08Z</time>
      </trkpt>
      <trkpt lat="46.44733" lon="4.89878">
        <ele>192.4</ele>
        <time>2024-09-18T14:42:09Z</time>
      </trkpt>
      <trkpt lat="46.44732" lon="4.89884">
        <ele>192.4</ele>
        <time>2024-09-18T14:42:10Z</time>
      </trkpt>
      <trkpt lat="46.4473" lon="4.89888">
        <ele>192.4</ele>
        <time>2024-09-18T14:42:11Z</time>
      </trkpt>
      <trkpt lat="46.44727" lon="4.89889">
        <ele>192.2</ele>
        <time>2024-09-18T14:42:12Z</time>
      </trkpt>
      <trkpt lat="46.44724" lon="4.8989">
        <ele>192.2</ele>
        <time>2024-09-18T14:42:13Z</time>
      </trkpt>
      <trkpt lat="46.44721" lon="4.8989">
        <ele>192.2</ele>
        <time>2024-09-18T14:42:14Z</time>
      </trkpt>
      <trkpt lat="46.44718" lon="4.8989">
        <ele>192.2</ele>
        <time>2024-09-18T14:42:15Z</time>
      </trkpt>
      <trkpt lat="46.44717" lon="4.8989">
        <ele>192.2</ele>
        <time>2024-09-18T14:42:16Z</time>
      </trkpt>
      <trkpt lat="46.44713" lon="4.89891">
        <ele>192.2</ele>
        <time>2024-09-18T14:42:17Z</time>
      </trkpt>
      <trkpt lat="46.44712" lon="4.89891">
        <ele>192.2</ele>
        <time>2024-09-18T14:42:18Z</time>
      </trkpt>
      <trkpt lat="46.44711" lon="4.89892">
        <ele>192.2</ele>
        <time>2024-09-18T14:42:19Z</time>
      </trkpt>
      <trkpt lat="46.44709" lon="4.89892">
        <ele>192.4</ele>
        <time>2024-09-18T14:42:20Z</time>
      </trkpt>
      <trkpt lat="46.44707" lon="4.89893">
        <ele>192.4</ele>
        <time>2024-09-18T14:42:21Z</time>
      </trkpt>
      <trkpt lat="46.44706" lon="4.89893">
        <ele>192.4</ele>
        <time>2024-09-18T14:42:22Z</time>
      </trkpt>
      <trkpt lat="46.44704" lon="4.89893">
        <ele>192.4</ele>
        <time>2024-09-18T14:42:23Z</time>
      </trkpt>
      <trkpt lat="46.44702" lon="4.89894">
        <ele>192.4</ele>
        <time>2024-09-18T14:42:24Z</time>
      </trkpt>
      <trkpt lat="46.44701" lon="4.89894">
        <ele>192</ele>
        <time>2024-09-18T14:42:25Z</time>
      </trkpt>
      <trkpt lat="46.44699" lon="4.89895">
        <ele>192</ele>
        <time>2024-09-18T14:42:26Z</time>
      </trkpt>
      <trkpt lat="46.44697" lon="4.89897">
        <ele>192</ele>
        <time>2024-09-18T14:42:27Z</time>
      </trkpt>
      <trkpt lat="46.44696" lon="4.89898">
        <ele>192</ele>
        <time>2024-09-18T14:42:28Z</time>
      </trkpt>
      <trkpt lat="46.44695" lon="4.899">
        <ele>191.6</ele>
        <time>2024-09-18T14:42:39Z</time>
      </trkpt>
      <trkpt lat="46.44694" lon="4.89902">
        <ele>191.6</ele>
        <time>2024-09-18T14:42:40Z</time>
      </trkpt>
      <trkpt lat="46.44693" lon="4.89903">
        <ele>191.4</ele>
        <time>2024-09-18T14:42:41Z</time>
      </trkpt>
      <trkpt lat="46.44692" lon="4.89906">
        <ele>191.4</ele>
        <time>2024-09-18T14:42:42Z</time>
      </trkpt>
      <trkpt lat="46.44692" lon="4.8991">
        <ele>191.4</ele>
        <time>2024-09-18T14:42:43Z</time>
      </trkpt>
      <trkpt lat="46.44691" lon="4.89914">
        <ele>191.4</ele>
        <time>2024-09-18T14:42:44Z</time>
      </trkpt>
      <trkpt lat="46.44691" lon="4.89919">
        <ele>191.4</ele>
        <time>2024-09-18T14:42:45Z</time>
      </trkpt>
      <trkpt lat="46.4469" lon="4.89923">
        <ele>191.4</ele>
        <time>2024-09-18T14:42:46Z</time>
      </trkpt>
      <trkpt lat="46.44689" lon="4.89927">
        <ele>191</ele>
        <time>2024-09-18T14:42:47Z</time>
      </trkpt>
      <trkpt lat="46.44688" lon="4.89931">
        <ele>191</ele>
        <time>2024-09-18T14:42:48Z</time>
      </trkpt>
      <trkpt lat="46.44687" lon="4.89936">
        <ele>191</ele>
        <time>2024-09-18T14:42:49Z</time>
      </trkpt>
      <trkpt lat="46.44687" lon="4.8994">
        <ele>191</ele>
        <time>2024-09-18T14:42:50Z</time>
      </trkpt>
      <trkpt lat="46.44686" lon="4.89945">
        <ele>191.2</ele>
        <time>2024-09-18T14:42:51Z</time>
      </trkpt>
      <trkpt lat="46.44685" lon="4.89949">
        <ele>191.2</ele>
        <time>2024-09-18T14:42:52Z</time>
      </trkpt>
      <trkpt lat="46.44685" lon="4.89954">
        <ele>191.2</ele>
        <time>2024-09-18T14:42:53Z</time>
      </trkpt>
      <trkpt lat="46.44684" lon="4.89958">
        <ele>191.2</ele>
        <time>2024-09-18T14:42:54Z</time>
      </trkpt>
      <trkpt lat="46.44684" lon="4.89963">
        <ele>191.2</ele>
        <time>2024-09-18T14:42:55Z</time>
      </trkpt>
      <trkpt lat="46.44683" lon="4.89968">
        <ele>191.2</ele>
        <time>2024-09-18T14:42:56Z</time>
      </trkpt>
      <trkpt lat="46.44682" lon="4.89973">
        <ele>191.4</ele>
        <time>2024-09-18T14:42:57Z</time>
      </trkpt>
      <trkpt lat="46.44681" lon="4.89978">
        <ele>191.4</ele>
        <time>2024-09-18T14:42:58Z</time>
      </trkpt>
      <trkpt lat="46.44681" lon="4.89984">
        <ele>191.4</ele>
        <time>2024-09-18T14:42:59Z</time>
      </trkpt>
      <trkpt lat="46.4468" lon="4.89989">
        <ele>191</ele>
        <time>2024-09-18T14:43:00Z</time>
      </trkpt>
      <trkpt lat="46.44679" lon="4.89995">
        <ele>191.2</ele>
        <time>2024-09-18T14:43:01Z</time>
      </trkpt>
      <trkpt lat="46.44678" lon="4.90001">
        <ele>191.2</ele>
        <time>2024-09-18T14:43:02Z</time>
      </trkpt>
      <trkpt lat="46.44678" lon="4.90007">
        <ele>191.2</ele>
        <time>2024-09-18T14:43:03Z</time>
      </trkpt>
      <trkpt lat="46.44677" lon="4.90013">
        <ele>191.2</ele>
        <time>2024-09-18T14:43:04Z</time>
      </trkpt>
      <trkpt lat="46.44676" lon="4.90019">
        <ele>191</ele>
        <time>2024-09-18T14:43:05Z</time>
      </trkpt>
      <trkpt lat="46.44675" lon="4.90025">
        <ele>191</ele>
        <time>2024-09-18T14:43:06Z</time>
      </trkpt>
      <trkpt lat="46.44674" lon="4.90034">
        <ele>191</ele>
        <time>2024-09-18T14:43:07Z</time>
      </trkpt>
      <trkpt lat="46.44674" lon="4.90038">
        <ele>191</ele>
        <time>2024-09-18T14:43:08Z</time>
      </trkpt>
      <trkpt lat="46.44672" lon="4.90047">
        <ele>191</ele>
        <time>2024-09-18T14:43:09Z</time>
      </trkpt>
      <trkpt lat="46.44672" lon="4.9005">
        <ele>191.2</ele>
        <time>2024-09-18T14:43:10Z</time>
      </trkpt>
      <trkpt lat="46.4467" lon="4.90059">
        <ele>191.2</ele>
        <time>2024-09-18T14:43:11Z</time>
      </trkpt>
      <trkpt lat="46.44669" lon="4.90062">
        <ele>191.2</ele>
        <time>2024-09-18T14:43:12Z</time>
      </trkpt>
      <trkpt lat="46.44668" lon="4.90072">
        <ele>191.2</ele>
        <time>2024-09-18T14:43:13Z</time>
      </trkpt>
      <trkpt lat="46.44667" lon="4.90075">
        <ele>191.2</ele>
        <time>2024-09-18T14:43:14Z</time>
      </trkpt>
      <trkpt lat="46.44666" lon="4.90081">
        <ele>191</ele>
        <time>2024-09-18T14:43:15Z</time>
      </trkpt>
      <trkpt lat="46.44665" lon="4.90087">
        <ele>191</ele>
        <time>2024-09-18T14:43:16Z</time>
      </trkpt>
      <trkpt lat="46.44664" lon="4.90096">
        <ele>191.2</ele>
        <time>2024-09-18T14:43:17Z</time>
      </trkpt>
      <trkpt lat="46.44664" lon="4.90099">
        <ele>191.2</ele>
        <time>2024-09-18T14:43:18Z</time>
      </trkpt>
      <trkpt lat="46.44663" lon="4.90106">
        <ele>191.2</ele>
        <time>2024-09-18T14:43:19Z</time>
      </trkpt>
      <trkpt lat="46.44662" lon="4.90109">
        <ele>191.2</ele>
        <time>2024-09-18T14:43:20Z</time>
      </trkpt>
      <trkpt lat="46.44661" lon="4.90118">
        <ele>191.2</ele>
        <time>2024-09-18T14:43:21Z</time>
      </trkpt>
      <trkpt lat="46.44661" lon="4.9012">
        <ele>190.8</ele>
        <time>2024-09-18T14:43:22Z</time>
      </trkpt>
      <trkpt lat="46.44659" lon="4.90129">
        <ele>190.8</ele>
        <time>2024-09-18T14:43:23Z</time>
      </trkpt>
      <trkpt lat="46.44659" lon="4.90133">
        <ele>190.8</ele>
        <time>2024-09-18T14:43:24Z</time>
      </trkpt>
      <trkpt lat="46.44658" lon="4.90139">
        <ele>190.8</ele>
        <time>2024-09-18T14:43:25Z</time>
      </trkpt>
      <trkpt lat="46.44657" lon="4.90145">
        <ele>190.8</ele>
        <time>2024-09-18T14:43:26Z</time>
      </trkpt>
      <trkpt lat="46.44656" lon="4.90151">
        <ele>190.8</ele>
        <time>2024-09-18T14:43:27Z</time>
      </trkpt>
      <trkpt lat="46.44655" lon="4.90157">
        <ele>190.8</ele>
        <time>2024-09-18T14:43:28Z</time>
      </trkpt>
      <trkpt lat="46.44654" lon="4.90163">
        <ele>190.8</ele>
        <time>2024-09-18T14:43:29Z</time>
      </trkpt>
      <trkpt lat="46.44654" lon="4.90169">
        <ele>190.8</ele>
        <time>2024-09-18T14:43:30Z</time>
      </trkpt>
      <trkpt lat="46.44652" lon="4.90175">
        <ele>191</ele>
        <time>2024-09-18T14:43:31Z</time>
      </trkpt>
      <trkpt lat="46.44651" lon="4.90181">
        <ele>191</ele>
        <time>2024-09-18T14:43:32Z</time>
      </trkpt>
      <trkpt lat="46.4465" lon="4.90188">
        <ele>191</ele>
        <time>2024-09-18T14:43:33Z</time>
      </trkpt>
      <trkpt lat="46.44649" lon="4.90194">
        <ele>191</ele>
        <time>2024-09-18T14:43:34Z</time>
      </trkpt>
      <trkpt lat="46.44648" lon="4.902">
        <ele>191</ele>
        <time>2024-09-18T14:43:35Z</time>
      </trkpt>
      <trkpt lat="46.44647" lon="4.90206">
        <ele>191</ele>
        <time>2024-09-18T14:43:36Z</time>
      </trkpt>
      <trkpt lat="46.44646" lon="4.90212">
        <ele>190.8</ele>
        <time>2024-09-18T14:43:37Z</time>
      </trkpt>
      <trkpt lat="46.44646" lon="4.90219">
        <ele>190.8</ele>
        <time>2024-09-18T14:43:38Z</time>
      </trkpt>
      <trkpt lat="46.44645" lon="4.90225">
        <ele>190.8</ele>
        <time>2024-09-18T14:43:39Z</time>
      </trkpt>
      <trkpt lat="46.44643" lon="4.90231">
        <ele>191.4</ele>
        <time>2024-09-18T14:43:40Z</time>
      </trkpt>
      <trkpt lat="46.44643" lon="4.90238">
        <ele>191.4</ele>
        <time>2024-09-18T14:43:41Z</time>
      </trkpt>
      <trkpt lat="46.44642" lon="4.90245">
        <ele>191.4</ele>
        <time>2024-09-18T14:43:42Z</time>
      </trkpt>
      <trkpt lat="46.44641" lon="4.90251">
        <ele>191.4</ele>
        <time>2024-09-18T14:43:43Z</time>
      </trkpt>
      <trkpt lat="46.4464" lon="4.90257">
        <ele>191.4</ele>
        <time>2024-09-18T14:43:44Z</time>
      </trkpt>
      <trkpt lat="46.44639" lon="4.90263">
        <ele>191.4</ele>
        <time>2024-09-18T14:43:45Z</time>
      </trkpt>
      <trkpt lat="46.44638" lon="4.90269">
        <ele>191.6</ele>
        <time>2024-09-18T14:43:46Z</time>
      </trkpt>
      <trkpt lat="46.44637" lon="4.90275">
        <ele>191.6</ele>
        <time>2024-09-18T14:43:47Z</time>
      </trkpt>
      <trkpt lat="46.44636" lon="4.90281">
        <ele>191.6</ele>
        <time>2024-09-18T14:43:48Z</time>
      </trkpt>
      <trkpt lat="46.44635" lon="4.9029">
        <ele>191.6</ele>
        <time>2024-09-18T14:43:49Z</time>
      </trkpt>
      <trkpt lat="46.44635" lon="4.90293">
        <ele>191.4</ele>
        <time>2024-09-18T14:43:50Z</time>
      </trkpt>
      <trkpt lat="46.44633" lon="4.90302">
        <ele>191.4</ele>
        <time>2024-09-18T14:43:51Z</time>
      </trkpt>
      <trkpt lat="46.44633" lon="4.90305">
        <ele>191.4</ele>
        <time>2024-09-18T14:43:52Z</time>
      </trkpt>
      <trkpt lat="46.44632" lon="4.90314">
        <ele>191.4</ele>
        <time>2024-09-18T14:43:53Z</time>
      </trkpt>
      <trkpt lat="46.44631" lon="4.90317">
        <ele>191.4</ele>
        <time>2024-09-18T14:43:54Z</time>
      </trkpt>
      <trkpt lat="46.4463" lon="4.90326">
        <ele>191.6</ele>
        <time>2024-09-18T14:43:55Z</time>
      </trkpt>
      <trkpt lat="46.44629" lon="4.90329">
        <ele>191.6</ele>
        <time>2024-09-18T14:43:56Z</time>
      </trkpt>
      <trkpt lat="46.44628" lon="4.90338">
        <ele>191.6</ele>
        <time>2024-09-18T14:43:57Z</time>
      </trkpt>
      <trkpt lat="46.44627" lon="4.90341">
        <ele>191.6</ele>
        <time>2024-09-18T14:43:58Z</time>
      </trkpt>
      <trkpt lat="46.44626" lon="4.9035">
        <ele>191.4</ele>
        <time>2024-09-18T14:43:59Z</time>
      </trkpt>
      <trkpt lat="46.44625" lon="4.90353">
        <ele>191.4</ele>
        <time>2024-09-18T14:44:00Z</time>
      </trkpt>
      <trkpt lat="46.44624" lon="4.90362">
        <ele>191.4</ele>
        <time>2024-09-18T14:44:01Z</time>
      </trkpt>
      <trkpt lat="46.44623" lon="4.90365">
        <ele>191.4</ele>
        <time>2024-09-18T14:44:02Z</time>
      </trkpt>
      <trkpt lat="46.44622" lon="4.90375">
        <ele>191.2</ele>
        <time>2024-09-18T14:44:03Z</time>
      </trkpt>
      <trkpt lat="46.44622" lon="4.90379">
        <ele>191.2</ele>
        <time>2024-09-18T14:44:04Z</time>
      </trkpt>
      <trkpt lat="46.44621" lon="4.90388">
        <ele>191.2</ele>
        <time>2024-09-18T14:44:05Z</time>
      </trkpt>
      <trkpt lat="46.4462" lon="4.90391">
        <ele>191.2</ele>
        <time>2024-09-18T14:44:06Z</time>
      </trkpt>
      <trkpt lat="46.44619" lon="4.90398">
        <ele>191.2</ele>
        <time>2024-09-18T14:44:07Z</time>
      </trkpt>
      <trkpt lat="46.44618" lon="4.90404">
        <ele>191.2</ele>
        <time>2024-09-18T14:44:08Z</time>
      </trkpt>
      <trkpt lat="46.44617" lon="4.9041">
        <ele>191.2</ele>
        <time>2024-09-18T14:44:09Z</time>
      </trkpt>
      <trkpt lat="46.44616" lon="4.90416">
        <ele>191.2</ele>
        <time>2024-09-18T14:44:10Z</time>
      </trkpt>
      <trkpt lat="46.44615" lon="4.90422">
        <ele>191.6</ele>
        <time>2024-09-18T14:44:11Z</time>
      </trkpt>
      <trkpt lat="46.44614" lon="4.90428">
        <ele>191.4</ele>
        <time>2024-09-18T14:44:12Z</time>
      </trkpt>
      <trkpt lat="46.44614" lon="4.90435">
        <ele>191.4</ele>
        <time>2024-09-18T14:44:13Z</time>
      </trkpt>
      <trkpt lat="46.44613" lon="4.90441">
        <ele>191.4</ele>
        <time>2024-09-18T14:44:14Z</time>
      </trkpt>
      <trkpt lat="46.44612" lon="4.90447">
        <ele>191.4</ele>
        <time>2024-09-18T14:44:15Z</time>
      </trkpt>
      <trkpt lat="46.44611" lon="4.90453">
        <ele>191.4</ele>
        <time>2024-09-18T14:44:16Z</time>
      </trkpt>
      <trkpt lat="46.4461" lon="4.90459">
        <ele>191.6</ele>
        <time>2024-09-18T14:44:17Z</time>
      </trkpt>
      <trkpt lat="46.44609" lon="4.90465">
        <ele>191.6</ele>
        <time>2024-09-18T14:44:18Z</time>
      </trkpt>
      <trkpt lat="46.44608" lon="4.9047">
        <ele>191.6</ele>
        <time>2024-09-18T14:44:19Z</time>
      </trkpt>
      <trkpt lat="46.44607" lon="4.90476">
        <ele>191.6</ele>
        <time>2024-09-18T14:44:20Z</time>
      </trkpt>
      <trkpt lat="46.44606" lon="4.90481">
        <ele>191.4</ele>
        <time>2024-09-18T14:44:21Z</time>
      </trkpt>
      <trkpt lat="46.44606" lon="4.90487">
        <ele>191.4</ele>
        <time>2024-09-18T14:44:22Z</time>
      </trkpt>
      <trkpt lat="46.44604" lon="4.90493">
        <ele>191.2</ele>
        <time>2024-09-18T14:44:23Z</time>
      </trkpt>
      <trkpt lat="46.44603" lon="4.90498">
        <ele>191.2</ele>
        <time>2024-09-18T14:44:24Z</time>
      </trkpt>
      <trkpt lat="46.44602" lon="4.90504">
        <ele>191.2</ele>
        <time>2024-09-18T14:44:25Z</time>
      </trkpt>
      <trkpt lat="46.44602" lon="4.9051">
        <ele>191.4</ele>
        <time>2024-09-18T14:44:26Z</time>
      </trkpt>
      <trkpt lat="46.44601" lon="4.90516">
        <ele>191.4</ele>
        <time>2024-09-18T14:44:27Z</time>
      </trkpt>
      <trkpt lat="46.446" lon="4.90523">
        <ele>191.4</ele>
        <time>2024-09-18T14:44:28Z</time>
      </trkpt>
      <trkpt lat="46.44599" lon="4.90529">
        <ele>191.4</ele>
        <time>2024-09-18T14:44:29Z</time>
      </trkpt>
      <trkpt lat="46.44597" lon="4.90538">
        <ele>190.8</ele>
        <time>2024-09-18T14:44:30Z</time>
      </trkpt>
      <trkpt lat="46.44597" lon="4.90541">
        <ele>191.4</ele>
        <time>2024-09-18T14:44:31Z</time>
      </trkpt>
      <trkpt lat="46.44595" lon="4.9055">
        <ele>191.4</ele>
        <time>2024-09-18T14:44:32Z</time>
      </trkpt>
      <trkpt lat="46.44595" lon="4.90554">
        <ele>191.4</ele>
        <time>2024-09-18T14:44:33Z</time>
      </trkpt>
      <trkpt lat="46.44594" lon="4.90563">
        <ele>191</ele>
        <time>2024-09-18T14:44:34Z</time>
      </trkpt>
      <trkpt lat="46.44593" lon="4.90566">
        <ele>190.8</ele>
        <time>2024-09-18T14:44:35Z</time>
      </trkpt>
      <trkpt lat="46.44592" lon="4.90575">
        <ele>190.8</ele>
        <time>2024-09-18T14:44:36Z</time>
      </trkpt>
      <trkpt lat="46.44591" lon="4.90578">
        <ele>190.8</ele>
        <time>2024-09-18T14:44:37Z</time>
      </trkpt>
      <trkpt lat="46.4459" lon="4.90588">
        <ele>190.8</ele>
        <time>2024-09-18T14:44:38Z</time>
      </trkpt>
      <trkpt lat="46.4459" lon="4.90592">
        <ele>190.8</ele>
        <time>2024-09-18T14:44:39Z</time>
      </trkpt>
      <trkpt lat="46.44588" lon="4.90601">
        <ele>190.8</ele>
        <time>2024-09-18T14:44:40Z</time>
      </trkpt>
      <trkpt lat="46.44587" lon="4.90604">
        <ele>190.8</ele>
        <time>2024-09-18T14:44:41Z</time>
      </trkpt>
      <trkpt lat="46.44586" lon="4.90614">
        <ele>190.8</ele>
        <time>2024-09-18T14:44:42Z</time>
      </trkpt>
      <trkpt lat="46.44585" lon="4.90618">
        <ele>190.2</ele>
        <time>2024-09-18T14:44:43Z</time>
      </trkpt>
      <trkpt lat="46.44584" lon="4.90628">
        <ele>190.6</ele>
        <time>2024-09-18T14:44:44Z</time>
      </trkpt>
      <trkpt lat="46.44583" lon="4.90632">
        <ele>190.6</ele>
        <time>2024-09-18T14:44:45Z</time>
      </trkpt>
      <trkpt lat="46.44582" lon="4.90642">
        <ele>190.6</ele>
        <time>2024-09-18T14:44:46Z</time>
      </trkpt>
      <trkpt lat="46.44581" lon="4.90646">
        <ele>190.2</ele>
        <time>2024-09-18T14:44:47Z</time>
      </trkpt>
      <trkpt lat="46.4458" lon="4.90653">
        <ele>190.4</ele>
        <time>2024-09-18T14:44:48Z</time>
      </trkpt>
      <trkpt lat="46.44579" lon="4.9066">
        <ele>190.4</ele>
        <time>2024-09-18T14:44:49Z</time>
      </trkpt>
      <trkpt lat="46.44578" lon="4.90668">
        <ele>190.4</ele>
        <time>2024-09-18T14:44:50Z</time>
      </trkpt>
      <trkpt lat="46.44577" lon="4.90675">
        <ele>190.4</ele>
        <time>2024-09-18T14:44:51Z</time>
      </trkpt>
      <trkpt lat="46.44576" lon="4.90683">
        <ele>190.4</ele>
        <time>2024-09-18T14:44:52Z</time>
      </trkpt>
      <trkpt lat="46.44574" lon="4.9069">
        <ele>190.2</ele>
        <time>2024-09-18T14:44:53Z</time>
      </trkpt>
      <trkpt lat="46.44573" lon="4.90697">
        <ele>190.2</ele>
        <time>2024-09-18T14:44:54Z</time>
      </trkpt>
      <trkpt lat="46.44572" lon="4.90704">
        <ele>190.2</ele>
        <time>2024-09-18T14:44:55Z</time>
      </trkpt>
      <trkpt lat="46.44571" lon="4.90711">
        <ele>190.2</ele>
        <time>2024-09-18T14:44:56Z</time>
      </trkpt>
      <trkpt lat="46.4457" lon="4.90719">
        <ele>190</ele>
        <time>2024-09-18T14:44:57Z</time>
      </trkpt>
      <trkpt lat="46.44569" lon="4.90726">
        <ele>190</ele>
        <time>2024-09-18T14:44:58Z</time>
      </trkpt>
      <trkpt lat="46.44567" lon="4.90733">
        <ele>190</ele>
        <time>2024-09-18T14:44:59Z</time>
      </trkpt>
      <trkpt lat="46.44566" lon="4.90741">
        <ele>190</ele>
        <time>2024-09-18T14:45:00Z</time>
      </trkpt>
      <trkpt lat="46.44565" lon="4.90748">
        <ele>190</ele>
        <time>2024-09-18T14:45:01Z</time>
      </trkpt>
      <trkpt lat="46.44564" lon="4.90756">
        <ele>190.4</ele>
        <time>2024-09-18T14:45:02Z</time>
      </trkpt>
      <trkpt lat="46.44563" lon="4.90763">
        <ele>190.4</ele>
        <time>2024-09-18T14:45:03Z</time>
      </trkpt>
      <trkpt lat="46.44562" lon="4.9077">
        <ele>190.4</ele>
        <time>2024-09-18T14:45:04Z</time>
      </trkpt>
      <trkpt lat="46.44561" lon="4.90777">
        <ele>190.4</ele>
        <time>2024-09-18T14:45:05Z</time>
      </trkpt>
      <trkpt lat="46.44559" lon="4.90784">
        <ele>190.2</ele>
        <time>2024-09-18T14:45:06Z</time>
      </trkpt>
      <trkpt lat="46.44558" lon="4.90792">
        <ele>190.2</ele>
        <time>2024-09-18T14:45:07Z</time>
      </trkpt>
      <trkpt lat="46.44557" lon="4.90799">
        <ele>190.2</ele>
        <time>2024-09-18T14:45:08Z</time>
      </trkpt>
      <trkpt lat="46.44555" lon="4.90806">
        <ele>190.2</ele>
        <time>2024-09-18T14:45:09Z</time>
      </trkpt>
      <trkpt lat="46.44554" lon="4.90814">
        <ele>190.2</ele>
        <time>2024-09-18T14:45:10Z</time>
      </trkpt>
      <trkpt lat="46.44553" lon="4.90821">
        <ele>190</ele>
        <time>2024-09-18T14:45:11Z</time>
      </trkpt>
      <trkpt lat="46.44552" lon="4.90828">
        <ele>190</ele>
        <time>2024-09-18T14:45:12Z</time>
      </trkpt>
      <trkpt lat="46.44551" lon="4.90836">
        <ele>190</ele>
        <time>2024-09-18T14:45:13Z</time>
      </trkpt>
      <trkpt lat="46.4455" lon="4.90843">
        <ele>190</ele>
        <time>2024-09-18T14:45:14Z</time>
      </trkpt>
      <trkpt lat="46.44548" lon="4.90854">
        <ele>190</ele>
        <time>2024-09-18T14:45:15Z</time>
      </trkpt>
      <trkpt lat="46.44547" lon="4.90858">
        <ele>190</ele>
        <time>2024-09-18T14:45:16Z</time>
      </trkpt>
      <trkpt lat="46.44546" lon="4.90869">
        <ele>190</ele>
        <time>2024-09-18T14:45:17Z</time>
      </trkpt>
      <trkpt lat="46.44545" lon="4.90873">
        <ele>190</ele>
        <time>2024-09-18T14:45:18Z</time>
      </trkpt>
      <trkpt lat="46.44543" lon="4.90884">
        <ele>190</ele>
        <time>2024-09-18T14:45:19Z</time>
      </trkpt>
      <trkpt lat="46.44543" lon="4.90887">
        <ele>190</ele>
        <time>2024-09-18T14:45:20Z</time>
      </trkpt>
      <trkpt lat="46.44541" lon="4.90898">
        <ele>190.4</ele>
        <time>2024-09-18T14:45:21Z</time>
      </trkpt>
      <trkpt lat="46.44541" lon="4.90902">
        <ele>190.4</ele>
        <time>2024-09-18T14:45:22Z</time>
      </trkpt>
      <trkpt lat="46.44539" lon="4.90912">
        <ele>190.4</ele>
        <time>2024-09-18T14:45:23Z</time>
      </trkpt>
      <trkpt lat="46.44539" lon="4.90916">
        <ele>190.4</ele>
        <time>2024-09-18T14:45:24Z</time>
      </trkpt>
      <trkpt lat="46.44537" lon="4.90926">
        <ele>190.4</ele>
        <time>2024-09-18T14:45:25Z</time>
      </trkpt>
      <trkpt lat="46.44536" lon="4.9093">
        <ele>190.4</ele>
        <time>2024-09-18T14:45:26Z</time>
      </trkpt>
      <trkpt lat="46.44535" lon="4.9094">
        <ele>190.4</ele>
        <time>2024-09-18T14:45:27Z</time>
      </trkpt>
      <trkpt lat="46.44534" lon="4.90943">
        <ele>190.4</ele>
        <time>2024-09-18T14:45:28Z</time>
      </trkpt>
      <trkpt lat="46.44533" lon="4.90953">
        <ele>190.4</ele>
        <time>2024-09-18T14:45:29Z</time>
      </trkpt>
      <trkpt lat="46.44532" lon="4.90957">
        <ele>190.4</ele>
        <time>2024-09-18T14:45:30Z</time>
      </trkpt>
      <trkpt lat="46.44531" lon="4.90964">
        <ele>190.4</ele>
        <time>2024-09-18T14:45:31Z</time>
      </trkpt>
      <trkpt lat="46.4453" lon="4.90971">
        <ele>190.4</ele>
        <time>2024-09-18T14:45:32Z</time>
      </trkpt>
      <trkpt lat="46.44529" lon="4.90978">
        <ele>190.4</ele>
        <time>2024-09-18T14:45:33Z</time>
      </trkpt>
      <trkpt lat="46.44528" lon="4.90985">
        <ele>190.2</ele>
        <time>2024-09-18T14:45:34Z</time>
      </trkpt>
      <trkpt lat="46.44527" lon="4.90992">
        <ele>190.2</ele>
        <time>2024-09-18T14:45:35Z</time>
      </trkpt>
      <trkpt lat="46.44526" lon="4.90999">
        <ele>190.2</ele>
        <time>2024-09-18T14:45:36Z</time>
      </trkpt>
      <trkpt lat="46.44525" lon="4.91006">
        <ele>190.6</ele>
        <time>2024-09-18T14:45:37Z</time>
      </trkpt>
      <trkpt lat="46.44524" lon="4.91013">
        <ele>190.4</ele>
        <time>2024-09-18T14:45:38Z</time>
      </trkpt>
      <trkpt lat="46.44523" lon="4.91019">
        <ele>190.4</ele>
        <time>2024-09-18T14:45:39Z</time>
      </trkpt>
      <trkpt lat="46.44522" lon="4.91026">
        <ele>190.4</ele>
        <time>2024-09-18T14:45:40Z</time>
      </trkpt>
      <trkpt lat="46.44521" lon="4.91033">
        <ele>190.4</ele>
        <time>2024-09-18T14:45:41Z</time>
      </trkpt>
      <trkpt lat="46.4452" lon="4.9104">
        <ele>190.4</ele>
        <time>2024-09-18T14:45:42Z</time>
      </trkpt>
      <trkpt lat="46.44519" lon="4.91046">
        <ele>190.6</ele>
        <time>2024-09-18T14:45:43Z</time>
      </trkpt>
      <trkpt lat="46.44518" lon="4.91053">
        <ele>190.2</ele>
        <time>2024-09-18T14:45:44Z</time>
      </trkpt>
      <trkpt lat="46.44516" lon="4.9106">
        <ele>190.2</ele>
        <time>2024-09-18T14:45:45Z</time>
      </trkpt>
      <trkpt lat="46.44515" lon="4.91067">
        <ele>190.2</ele>
        <time>2024-09-18T14:45:46Z</time>
      </trkpt>
      <trkpt lat="46.44513" lon="4.91073">
        <ele>190.2</ele>
        <time>2024-09-18T14:45:47Z</time>
      </trkpt>
      <trkpt lat="46.44512" lon="4.9108">
        <ele>190.2</ele>
        <time>2024-09-18T14:45:48Z</time>
      </trkpt>
      <trkpt lat="46.44511" lon="4.91087">
        <ele>190.8</ele>
        <time>2024-09-18T14:45:49Z</time>
      </trkpt>
      <trkpt lat="46.4451" lon="4.91094">
        <ele>190.8</ele>
        <time>2024-09-18T14:45:50Z</time>
      </trkpt>
      <trkpt lat="46.44509" lon="4.91101">
        <ele>190.8</ele>
        <time>2024-09-18T14:45:51Z</time>
      </trkpt>
      <trkpt lat="46.44508" lon="4.91108">
        <ele>190.8</ele>
        <time>2024-09-18T14:45:52Z</time>
      </trkpt>
      <trkpt lat="46.44507" lon="4.91114">
        <ele>190.8</ele>
        <time>2024-09-18T14:45:53Z</time>
      </trkpt>
      <trkpt lat="46.44506" lon="4.91121">
        <ele>190.8</ele>
        <time>2024-09-18T14:45:54Z</time>
      </trkpt>
      <trkpt lat="46.44505" lon="4.91128">
        <ele>190.8</ele>
        <time>2024-09-18T14:45:55Z</time>
      </trkpt>
      <trkpt lat="46.44504" lon="4.91138">
        <ele>190.8</ele>
        <time>2024-09-18T14:45:56Z</time>
      </trkpt>
      <trkpt lat="46.44504" lon="4.91142">
        <ele>190.8</ele>
        <time>2024-09-18T14:45:57Z</time>
      </trkpt>
      <trkpt lat="46.44502" lon="4.91152">
        <ele>190.8</ele>
        <time>2024-09-18T14:45:58Z</time>
      </trkpt>
      <trkpt lat="46.44501" lon="4.91155">
        <ele>190.8</ele>
        <time>2024-09-18T14:45:59Z</time>
      </trkpt>
      <trkpt lat="46.44501" lon="4.91165">
        <ele>190.8</ele>
        <time>2024-09-18T14:46:00Z</time>
      </trkpt>
      <trkpt lat="46.445" lon="4.91169">
        <ele>191.2</ele>
        <time>2024-09-18T14:46:01Z</time>
      </trkpt>
      <trkpt lat="46.44499" lon="4.91179">
        <ele>191.2</ele>
        <time>2024-09-18T14:46:02Z</time>
      </trkpt>
      <trkpt lat="46.44498" lon="4.91182">
        <ele>191.2</ele>
        <time>2024-09-18T14:46:03Z</time>
      </trkpt>
      <trkpt lat="46.44496" lon="4.91193">
        <ele>191.2</ele>
        <time>2024-09-18T14:46:04Z</time>
      </trkpt>
      <trkpt lat="46.44496" lon="4.91196">
        <ele>191.2</ele>
        <time>2024-09-18T14:46:05Z</time>
      </trkpt>
      <trkpt lat="46.44494" lon="4.91207">
        <ele>190.4</ele>
        <time>2024-09-18T14:46:06Z</time>
      </trkpt>
      <trkpt lat="46.44494" lon="4.9121">
        <ele>190.4</ele>
        <time>2024-09-18T14:46:07Z</time>
      </trkpt>
      <trkpt lat="46.44493" lon="4.91221">
        <ele>190.4</ele>
        <time>2024-09-18T14:46:08Z</time>
      </trkpt>
      <trkpt lat="46.44492" lon="4.91224">
        <ele>190.8</ele>
        <time>2024-09-18T14:46:09Z</time>
      </trkpt>
      <trkpt lat="46.44491" lon="4.91234">
        <ele>190.6</ele>
        <time>2024-09-18T14:46:10Z</time>
      </trkpt>
      <trkpt lat="46.4449" lon="4.91238">
        <ele>190.6</ele>
        <time>2024-09-18T14:46:11Z</time>
      </trkpt>
      <trkpt lat="46.44488" lon="4.91248">
        <ele>190.6</ele>
        <time>2024-09-18T14:46:12Z</time>
      </trkpt>
      <trkpt lat="46.44488" lon="4.91252">
        <ele>190.8</ele>
        <time>2024-09-18T14:46:13Z</time>
      </trkpt>
      <trkpt lat="46.44487" lon="4.91259">
        <ele>190.8</ele>
        <time>2024-09-18T14:46:14Z</time>
      </trkpt>
      <trkpt lat="46.44486" lon="4.91266">
        <ele>190.6</ele>
        <time>2024-09-18T14:46:15Z</time>
      </trkpt>
      <trkpt lat="46.44485" lon="4.91273">
        <ele>190.6</ele>
        <time>2024-09-18T14:46:16Z</time>
      </trkpt>
      <trkpt lat="46.44484" lon="4.9128">
        <ele>190.6</ele>
        <time>2024-09-18T14:46:17Z</time>
      </trkpt>
      <trkpt lat="46.44483" lon="4.91287">
        <ele>190.4</ele>
        <time>2024-09-18T14:46:18Z</time>
      </trkpt>
      <trkpt lat="46.44481" lon="4.91294">
        <ele>191</ele>
        <time>2024-09-18T14:46:19Z</time>
      </trkpt>
      <trkpt lat="46.44481" lon="4.91301">
        <ele>191</ele>
        <time>2024-09-18T14:46:20Z</time>
      </trkpt>
      <trkpt lat="46.4448" lon="4.91309">
        <ele>191</ele>
        <time>2024-09-18T14:46:21Z</time>
      </trkpt>
      <trkpt lat="46.44479" lon="4.91315">
        <ele>190</ele>
        <time>2024-09-18T14:46:22Z</time>
      </trkpt>
      <trkpt lat="46.44478" lon="4.91322">
        <ele>190.4</ele>
        <time>2024-09-18T14:46:23Z</time>
      </trkpt>
      <trkpt lat="46.44477" lon="4.91328">
        <ele>190.4</ele>
        <time>2024-09-18T14:46:24Z</time>
      </trkpt>
      <trkpt lat="46.44476" lon="4.91334">
        <ele>190.4</ele>
        <time>2024-09-18T14:46:25Z</time>
      </trkpt>
      <trkpt lat="46.44475" lon="4.91341">
        <ele>190.4</ele>
        <time>2024-09-18T14:46:26Z</time>
      </trkpt>
      <trkpt lat="46.44474" lon="4.91347">
        <ele>190.4</ele>
        <time>2024-09-18T14:46:27Z</time>
      </trkpt>
      <trkpt lat="46.44473" lon="4.91353">
        <ele>190.2</ele>
        <time>2024-09-18T14:46:28Z</time>
      </trkpt>
      <trkpt lat="46.44472" lon="4.91359">
        <ele>190.2</ele>
        <time>2024-09-18T14:46:29Z</time>
      </trkpt>
      <trkpt lat="46.44471" lon="4.91365">
        <ele>190.2</ele>
        <time>2024-09-18T14:46:30Z</time>
      </trkpt>
      <trkpt lat="46.4447" lon="4.91371">
        <ele>190.2</ele>
        <time>2024-09-18T14:46:31Z</time>
      </trkpt>
      <trkpt lat="46.44469" lon="4.91377">
        <ele>190.2</ele>
        <time>2024-09-18T14:46:32Z</time>
      </trkpt>
      <trkpt lat="46.44468" lon="4.91383">
        <ele>190.4</ele>
        <time>2024-09-18T14:46:33Z</time>
      </trkpt>
      <trkpt lat="46.44468" lon="4.91389">
        <ele>190.4</ele>
        <time>2024-09-18T14:46:34Z</time>
      </trkpt>
      <trkpt lat="46.44467" lon="4.91394">
        <ele>190.4</ele>
        <time>2024-09-18T14:46:35Z</time>
      </trkpt>
      <trkpt lat="46.44466" lon="4.91399">
        <ele>190.4</ele>
        <time>2024-09-18T14:46:36Z</time>
      </trkpt>
      <trkpt lat="46.44465" lon="4.91405">
        <ele>190.4</ele>
        <time>2024-09-18T14:46:37Z</time>
      </trkpt>
      <trkpt lat="46.44464" lon="4.9141">
        <ele>190.4</ele>
        <time>2024-09-18T14:46:38Z</time>
      </trkpt>
      <trkpt lat="46.44463" lon="4.91417">
        <ele>190.4</ele>
        <time>2024-09-18T14:46:39Z</time>
      </trkpt>
      <trkpt lat="46.44463" lon="4.91419">
        <ele>190.4</ele>
        <time>2024-09-18T14:46:40Z</time>
      </trkpt>
      <trkpt lat="46.44462" lon="4.91424">
        <ele>190.6</ele>
        <time>2024-09-18T14:46:41Z</time>
      </trkpt>
      <trkpt lat="46.44461" lon="4.9143">
        <ele>190.6</ele>
        <time>2024-09-18T14:46:42Z</time>
      </trkpt>
      <trkpt lat="46.4446" lon="4.91438">
        <ele>190.6</ele>
        <time>2024-09-18T14:46:43Z</time>
      </trkpt>
      <trkpt lat="46.4446" lon="4.91441">
        <ele>190.6</ele>
        <time>2024-09-18T14:46:44Z</time>
      </trkpt>
      <trkpt lat="46.44459" lon="4.91449">
        <ele>190.6</ele>
        <time>2024-09-18T14:46:45Z</time>
      </trkpt>
      <trkpt lat="46.44458" lon="4.91452">
        <ele>190</ele>
        <time>2024-09-18T14:46:46Z</time>
      </trkpt>
      <trkpt lat="46.44457" lon="4.91461">
        <ele>190</ele>
        <time>2024-09-18T14:46:47Z</time>
      </trkpt>
      <trkpt lat="46.44457" lon="4.91464">
        <ele>190</ele>
        <time>2024-09-18T14:46:48Z</time>
      </trkpt>
      <trkpt lat="46.44456" lon="4.91472">
        <ele>190</ele>
        <time>2024-09-18T14:46:49Z</time>
      </trkpt>
      <trkpt lat="46.44455" lon="4.91474">
        <ele>190.2</ele>
        <time>2024-09-18T14:46:50Z</time>
      </trkpt>
      <trkpt lat="46.44454" lon="4.91482">
        <ele>190.8</ele>
        <time>2024-09-18T14:46:51Z</time>
      </trkpt>
      <trkpt lat="46.44454" lon="4.91485">
        <ele>190.8</ele>
        <time>2024-09-18T14:46:52Z</time>
      </trkpt>
      <trkpt lat="46.44453" lon="4.91494">
        <ele>190.8</ele>
        <time>2024-09-18T14:46:53Z</time>
      </trkpt>
      <trkpt lat="46.44452" lon="4.91497">
        <ele>190.4</ele>
        <time>2024-09-18T14:46:54Z</time>
      </trkpt>
      <trkpt lat="46.44451" lon="4.91506">
        <ele>190.2</ele>
        <time>2024-09-18T14:46:55Z</time>
      </trkpt>
      <trkpt lat="46.44451" lon="4.91509">
        <ele>190.2</ele>
        <time>2024-09-18T14:46:56Z</time>
      </trkpt>
      <trkpt lat="46.4445" lon="4.91516">
        <ele>190.2</ele>
        <time>2024-09-18T14:46:57Z</time>
      </trkpt>
      <trkpt lat="46.44449" lon="4.91522">
        <ele>190.2</ele>
        <time>2024-09-18T14:46:58Z</time>
      </trkpt>
      <trkpt lat="46.44448" lon="4.91528">
        <ele>190.6</ele>
        <time>2024-09-18T14:46:59Z</time>
      </trkpt>
      <trkpt lat="46.44447" lon="4.91534">
        <ele>190.6</ele>
        <time>2024-09-18T14:47:00Z</time>
      </trkpt>
      <trkpt lat="46.44446" lon="4.91541">
        <ele>190.6</ele>
        <time>2024-09-18T14:47:01Z</time>
      </trkpt>
      <trkpt lat="46.44445" lon="4.91547">
        <ele>190.6</ele>
        <time>2024-09-18T14:47:02Z</time>
      </trkpt>
      <trkpt lat="46.44444" lon="4.91553">
        <ele>190.4</ele>
        <time>2024-09-18T14:47:03Z</time>
      </trkpt>
      <trkpt lat="46.44443" lon="4.91559">
        <ele>190.6</ele>
        <time>2024-09-18T14:47:04Z</time>
      </trkpt>
      <trkpt lat="46.44442" lon="4.91565">
        <ele>190.6</ele>
        <time>2024-09-18T14:47:05Z</time>
      </trkpt>
      <trkpt lat="46.44441" lon="4.91571">
        <ele>190.6</ele>
        <time>2024-09-18T14:47:06Z</time>
      </trkpt>
      <trkpt lat="46.44441" lon="4.91577">
        <ele>190.6</ele>
        <time>2024-09-18T14:47:07Z</time>
      </trkpt>
      <trkpt lat="46.4444" lon="4.91583">
        <ele>190.4</ele>
        <time>2024-09-18T14:47:08Z</time>
      </trkpt>
      <trkpt lat="46.44439" lon="4.91589">
        <ele>190.2</ele>
        <time>2024-09-18T14:47:09Z</time>
      </trkpt>
      <trkpt lat="46.44438" lon="4.91595">
        <ele>190.2</ele>
        <time>2024-09-18T14:47:10Z</time>
      </trkpt>
      <trkpt lat="46.44437" lon="4.91602">
        <ele>190.2</ele>
        <time>2024-09-18T14:47:11Z</time>
      </trkpt>
      <trkpt lat="46.44436" lon="4.91608">
        <ele>190.2</ele>
        <time>2024-09-18T14:47:12Z</time>
      </trkpt>
      <trkpt lat="46.44435" lon="4.91615">
        <ele>190.2</ele>
        <time>2024-09-18T14:47:13Z</time>
      </trkpt>
      <trkpt lat="46.44434" lon="4.91621">
        <ele>190.8</ele>
        <time>2024-09-18T14:47:14Z</time>
      </trkpt>
      <trkpt lat="46.44432" lon="4.91628">
        <ele>190.8</ele>
        <time>2024-09-18T14:47:15Z</time>
      </trkpt>
      <trkpt lat="46.44431" lon="4.91635">
        <ele>190.8</ele>
        <time>2024-09-18T14:47:16Z</time>
      </trkpt>
      <trkpt lat="46.4443" lon="4.91642">
        <ele>190.4</ele>
        <time>2024-09-18T14:47:17Z</time>
      </trkpt>
      <trkpt lat="46.44429" lon="4.91649">
        <ele>190.4</ele>
        <time>2024-09-18T14:47:18Z</time>
      </trkpt>
      <trkpt lat="46.44427" lon="4.91656">
        <ele>190.4</ele>
        <time>2024-09-18T14:47:19Z</time>
      </trkpt>
      <trkpt lat="46.44425" lon="4.91667">
        <ele>190.4</ele>
        <time>2024-09-18T14:47:20Z</time>
      </trkpt>
      <trkpt lat="46.44425" lon="4.9167">
        <ele>190.6</ele>
        <time>2024-09-18T14:47:21Z</time>
      </trkpt>
      <trkpt lat="46.44423" lon="4.91678">
        <ele>190.6</ele>
        <time>2024-09-18T14:47:22Z</time>
      </trkpt>
      <trkpt lat="46.44422" lon="4.91685">
        <ele>190.6</ele>
        <time>2024-09-18T14:47:23Z</time>
      </trkpt>
      <trkpt lat="46.44421" lon="4.91692">
        <ele>190.6</ele>
        <time>2024-09-18T14:47:24Z</time>
      </trkpt>
      <trkpt lat="46.4442" lon="4.91703">
        <ele>190.6</ele>
        <time>2024-09-18T14:47:25Z</time>
      </trkpt>
      <trkpt lat="46.44419" lon="4.91707">
        <ele>190.6</ele>
        <time>2024-09-18T14:47:26Z</time>
      </trkpt>
      <trkpt lat="46.44418" lon="4.91717">
        <ele>190.6</ele>
        <time>2024-09-18T14:47:27Z</time>
      </trkpt>
      <trkpt lat="46.44417" lon="4.91721">
        <ele>190.6</ele>
        <time>2024-09-18T14:47:28Z</time>
      </trkpt>
      <trkpt lat="46.44416" lon="4.91731">
        <ele>190.6</ele>
        <time>2024-09-18T14:47:29Z</time>
      </trkpt>
      <trkpt lat="46.44415" lon="4.91735">
        <ele>190.6</ele>
        <time>2024-09-18T14:47:30Z</time>
      </trkpt>
      <trkpt lat="46.44413" lon="4.91745">
        <ele>191</ele>
        <time>2024-09-18T14:47:31Z</time>
      </trkpt>
      <trkpt lat="46.44413" lon="4.91749">
        <ele>191</ele>
        <time>2024-09-18T14:47:32Z</time>
      </trkpt>
      <trkpt lat="46.44411" lon="4.9176">
        <ele>191</ele>
        <time>2024-09-18T14:47:33Z</time>
      </trkpt>
      <trkpt lat="46.44411" lon="4.91764">
        <ele>191</ele>
        <time>2024-09-18T14:47:34Z</time>
      </trkpt>
      <trkpt lat="46.4441" lon="4.91775">
        <ele>190.8</ele>
        <time>2024-09-18T14:47:35Z</time>
      </trkpt>
      <trkpt lat="46.44409" lon="4.91778">
        <ele>190.8</ele>
        <time>2024-09-18T14:47:36Z</time>
      </trkpt>
      <trkpt lat="46.44408" lon="4.91789">
        <ele>190.8</ele>
        <time>2024-09-18T14:47:37Z</time>
      </trkpt>
      <trkpt lat="46.44407" lon="4.91793">
        <ele>190.8</ele>
        <time>2024-09-18T14:47:38Z</time>
      </trkpt>
      <trkpt lat="46.44406" lon="4.918">
        <ele>191.2</ele>
        <time>2024-09-18T14:47:39Z</time>
      </trkpt>
      <trkpt lat="46.44405" lon="4.91807">
        <ele>190.8</ele>
        <time>2024-09-18T14:47:40Z</time>
      </trkpt>
      <trkpt lat="46.44404" lon="4.91814">
        <ele>190.8</ele>
        <time>2024-09-18T14:47:41Z</time>
      </trkpt>
      <trkpt lat="46.44403" lon="4.91821">
        <ele>190.8</ele>
        <time>2024-09-18T14:47:42Z</time>
      </trkpt>
      <trkpt lat="46.44402" lon="4.91827">
        <ele>191.4</ele>
        <time>2024-09-18T14:47:43Z</time>
      </trkpt>
      <trkpt lat="46.44401" lon="4.91834">
        <ele>191.6</ele>
        <time>2024-09-18T14:47:44Z</time>
      </trkpt>
      <trkpt lat="46.444" lon="4.91841">
        <ele>191.6</ele>
        <time>2024-09-18T14:47:45Z</time>
      </trkpt>
      <trkpt lat="46.44399" lon="4.91848">
        <ele>191.6</ele>
        <time>2024-09-18T14:47:46Z</time>
      </trkpt>
      <trkpt lat="46.44398" lon="4.91855">
        <ele>191.6</ele>
        <time>2024-09-18T14:47:47Z</time>
      </trkpt>
      <trkpt lat="46.44397" lon="4.91862">
        <ele>191.8</ele>
        <time>2024-09-18T14:47:48Z</time>
      </trkpt>
      <trkpt lat="46.44396" lon="4.91869">
        <ele>191.8</ele>
        <time>2024-09-18T14:47:49Z</time>
      </trkpt>
      <trkpt lat="46.44395" lon="4.91875">
        <ele>191.8</ele>
        <time>2024-09-18T14:47:50Z</time>
      </trkpt>
      <trkpt lat="46.44394" lon="4.91882">
        <ele>191.8</ele>
        <time>2024-09-18T14:47:51Z</time>
      </trkpt>
      <trkpt lat="46.44392" lon="4.91889">
        <ele>191.8</ele>
        <time>2024-09-18T14:47:52Z</time>
      </trkpt>
      <trkpt lat="46.44391" lon="4.91896">
        <ele>191.4</ele>
        <time>2024-09-18T14:47:53Z</time>
      </trkpt>
      <trkpt lat="46.4439" lon="4.91903">
        <ele>191.6</ele>
        <time>2024-09-18T14:47:54Z</time>
      </trkpt>
      <trkpt lat="46.44388" lon="4.9191">
        <ele>191.6</ele>
        <time>2024-09-18T14:47:55Z</time>
      </trkpt>
      <trkpt lat="46.44387" lon="4.91917">
        <ele>191.6</ele>
        <time>2024-09-18T14:47:56Z</time>
      </trkpt>
      <trkpt lat="46.44386" lon="4.91924">
        <ele>191.6</ele>
        <time>2024-09-18T14:47:57Z</time>
      </trkpt>
      <trkpt lat="46.44384" lon="4.91931">
        <ele>191.6</ele>
        <time>2024-09-18T14:47:58Z</time>
      </trkpt>
      <trkpt lat="46.44383" lon="4.91938">
        <ele>191.6</ele>
        <time>2024-09-18T14:47:59Z</time>
      </trkpt>
      <trkpt lat="46.44382" lon="4.91945">
        <ele>191.6</ele>
        <time>2024-09-18T14:48:00Z</time>
      </trkpt>
      <trkpt lat="46.44381" lon="4.91951">
        <ele>192</ele>
        <time>2024-09-18T14:48:01Z</time>
      </trkpt>
      <trkpt lat="46.4438" lon="4.91957">
        <ele>192</ele>
        <time>2024-09-18T14:48:02Z</time>
      </trkpt>
      <trkpt lat="46.44379" lon="4.91964">
        <ele>192.2</ele>
        <time>2024-09-18T14:48:03Z</time>
      </trkpt>
      <trkpt lat="46.44378" lon="4.91972">
        <ele>192.2</ele>
        <time>2024-09-18T14:48:04Z</time>
      </trkpt>
      <trkpt lat="46.44378" lon="4.91975">
        <ele>192.2</ele>
        <time>2024-09-18T14:48:05Z</time>
      </trkpt>
      <trkpt lat="46.44377" lon="4.91983">
        <ele>192.2</ele>
        <time>2024-09-18T14:48:06Z</time>
      </trkpt>
      <trkpt lat="46.44376" lon="4.91985">
        <ele>191.8</ele>
        <time>2024-09-18T14:48:07Z</time>
      </trkpt>
      <trkpt lat="46.44375" lon="4.91991">
        <ele>191.8</ele>
        <time>2024-09-18T14:48:08Z</time>
      </trkpt>
      <trkpt lat="46.44375" lon="4.91993">
        <ele>191.8</ele>
        <time>2024-09-18T14:48:09Z</time>
      </trkpt>
      <trkpt lat="46.44374" lon="4.91997">
        <ele>191.8</ele>
        <time>2024-09-18T14:48:10Z</time>
      </trkpt>
      <trkpt lat="46.44374" lon="4.91999">
        <ele>191.8</ele>
        <time>2024-09-18T14:48:11Z</time>
      </trkpt>
      <trkpt lat="46.44373" lon="4.92003">
        <ele>191.8</ele>
        <time>2024-09-18T14:48:12Z</time>
      </trkpt>
      <trkpt lat="46.44373" lon="4.92005">
        <ele>191.8</ele>
        <time>2024-09-18T14:48:13Z</time>
      </trkpt>
      <trkpt lat="46.44373" lon="4.92008">
        <ele>191.8</ele>
        <time>2024-09-18T14:48:14Z</time>
      </trkpt>
      <trkpt lat="46.44373" lon="4.9201">
        <ele>191.6</ele>
        <time>2024-09-18T14:48:15Z</time>
      </trkpt>
      <trkpt lat="46.44373" lon="4.92013">
        <ele>191.6</ele>
        <time>2024-09-18T14:48:16Z</time>
      </trkpt>
      <trkpt lat="46.44373" lon="4.92015">
        <ele>191.6</ele>
        <time>2024-09-18T14:48:17Z</time>
      </trkpt>
      <trkpt lat="46.44372" lon="4.92018">
        <ele>191.6</ele>
        <time>2024-09-18T14:48:18Z</time>
      </trkpt>
      <trkpt lat="46.4437" lon="4.92021">
        <ele>191.6</ele>
        <time>2024-09-18T14:48:19Z</time>
      </trkpt>
      <trkpt lat="46.4437" lon="4.92023">
        <ele>191.4</ele>
        <time>2024-09-18T14:48:20Z</time>
      </trkpt>
      <trkpt lat="46.4437" lon="4.92025">
        <ele>191.4</ele>
        <time>2024-09-18T14:48:21Z</time>
      </trkpt>
      <trkpt lat="46.44369" lon="4.92028">
        <ele>191.4</ele>
        <time>2024-09-18T14:48:22Z</time>
      </trkpt>
      <trkpt lat="46.44369" lon="4.92031">
        <ele>191.6</ele>
        <time>2024-09-18T14:48:23Z</time>
      </trkpt>
      <trkpt lat="46.44368" lon="4.92034">
        <ele>191.6</ele>
        <time>2024-09-18T14:48:24Z</time>
      </trkpt>
      <trkpt lat="46.44368" lon="4.92037">
        <ele>191.6</ele>
        <time>2024-09-18T14:48:25Z</time>
      </trkpt>
      <trkpt lat="46.44367" lon="4.92039">
        <ele>191.6</ele>
        <time>2024-09-18T14:48:26Z</time>
      </trkpt>
      <trkpt lat="46.44367" lon="4.92042">
        <ele>191.6</ele>
        <time>2024-09-18T14:48:27Z</time>
      </trkpt>
      <trkpt lat="46.44367" lon="4.92044">
        <ele>191.4</ele>
        <time>2024-09-18T14:48:28Z</time>
      </trkpt>
      <trkpt lat="46.44367" lon="4.92047">
        <ele>191.6</ele>
        <time>2024-09-18T14:48:29Z</time>
      </trkpt>
      <trkpt lat="46.44366" lon="4.92049">
        <ele>191.6</ele>
        <time>2024-09-18T14:48:30Z</time>
      </trkpt>
      <trkpt lat="46.44366" lon="4.9205">
        <ele>191.6</ele>
        <time>2024-09-18T14:48:31Z</time>
      </trkpt>
      <trkpt lat="46.44366" lon="4.9205">
        <ele>191.6</ele>
        <time>2024-09-18T14:48:32Z</time>
      </trkpt>
      <trkpt lat="46.44365" lon="4.92059">
        <ele>191.4</ele>
        <time>2024-09-18T14:48:42Z</time>
      </trkpt>
      <trkpt lat="46.44365" lon="4.92062">
        <ele>191.4</ele>
        <time>2024-09-18T14:48:43Z</time>
      </trkpt>
      <trkpt lat="46.44365" lon="4.92065">
        <ele>191.4</ele>
        <time>2024-09-18T14:48:44Z</time>
      </trkpt>
      <trkpt lat="46.44364" lon="4.92069">
        <ele>191.4</ele>
        <time>2024-09-18T14:48:45Z</time>
      </trkpt>
      <trkpt lat="46.44364" lon="4.92073">
        <ele>191.4</ele>
        <time>2024-09-18T14:48:46Z</time>
      </trkpt>
      <trkpt lat="46.44363" lon="4.92077">
        <ele>191.4</ele>
        <time>2024-09-18T14:48:47Z</time>
      </trkpt>
      <trkpt lat="46.44362" lon="4.92082">
        <ele>191.6</ele>
        <time>2024-09-18T14:48:48Z</time>
      </trkpt>
      <trkpt lat="46.44361" lon="4.92087">
        <ele>191.6</ele>
        <time>2024-09-18T14:48:49Z</time>
      </trkpt>
      <trkpt lat="46.4436" lon="4.92092">
        <ele>191.6</ele>
        <time>2024-09-18T14:48:50Z</time>
      </trkpt>
      <trkpt lat="46.44359" lon="4.92097">
        <ele>191.6</ele>
        <time>2024-09-18T14:48:51Z</time>
      </trkpt>
      <trkpt lat="46.44358" lon="4.92105">
        <ele>191.6</ele>
        <time>2024-09-18T14:48:52Z</time>
      </trkpt>
      <trkpt lat="46.44357" lon="4.92107">
        <ele>192</ele>
        <time>2024-09-18T14:48:53Z</time>
      </trkpt>
      <trkpt lat="46.44356" lon="4.92115">
        <ele>192</ele>
        <time>2024-09-18T14:48:54Z</time>
      </trkpt>
      <trkpt lat="46.44356" lon="4.92118">
        <ele>191.2</ele>
        <time>2024-09-18T14:48:55Z</time>
      </trkpt>
      <trkpt lat="46.44355" lon="4.92126">
        <ele>191.4</ele>
        <time>2024-09-18T14:48:56Z</time>
      </trkpt>
      <trkpt lat="46.44354" lon="4.92129">
        <ele>191.4</ele>
        <time>2024-09-18T14:48:57Z</time>
      </trkpt>
      <trkpt lat="46.44353" lon="4.92137">
        <ele>191.4</ele>
        <time>2024-09-18T14:48:58Z</time>
      </trkpt>
      <trkpt lat="46.44353" lon="4.9214">
        <ele>191.4</ele>
        <time>2024-09-18T14:48:59Z</time>
      </trkpt>
      <trkpt lat="46.44351" lon="4.92148">
        <ele>191.2</ele>
        <time>2024-09-18T14:49:00Z</time>
      </trkpt>
      <trkpt lat="46.44351" lon="4.9215">
        <ele>191.2</ele>
        <time>2024-09-18T14:49:01Z</time>
      </trkpt>
      <trkpt lat="46.4435" lon="4.92159">
        <ele>191</ele>
        <time>2024-09-18T14:49:02Z</time>
      </trkpt>
      <trkpt lat="46.44349" lon="4.92162">
        <ele>191</ele>
        <time>2024-09-18T14:49:03Z</time>
      </trkpt>
      <trkpt lat="46.44348" lon="4.9217">
        <ele>191</ele>
        <time>2024-09-18T14:49:04Z</time>
      </trkpt>
      <trkpt lat="46.44347" lon="4.92173">
        <ele>191.2</ele>
        <time>2024-09-18T14:49:05Z</time>
      </trkpt>
      <trkpt lat="46.44346" lon="4.92181">
        <ele>191.2</ele>
        <time>2024-09-18T14:49:06Z</time>
      </trkpt>
      <trkpt lat="46.44346" lon="4.92184">
        <ele>191.2</ele>
        <time>2024-09-18T14:49:07Z</time>
      </trkpt>
      <trkpt lat="46.44345" lon="4.9219">
        <ele>191.2</ele>
        <time>2024-09-18T14:49:08Z</time>
      </trkpt>
      <trkpt lat="46.44344" lon="4.92195">
        <ele>191.4</ele>
        <time>2024-09-18T14:49:09Z</time>
      </trkpt>
      <trkpt lat="46.44344" lon="4.92201">
        <ele>191.4</ele>
        <time>2024-09-18T14:49:10Z</time>
      </trkpt>
      <trkpt lat="46.44343" lon="4.92207">
        <ele>191.4</ele>
        <time>2024-09-18T14:49:11Z</time>
      </trkpt>
      <trkpt lat="46.44342" lon="4.92212">
        <ele>191.4</ele>
        <time>2024-09-18T14:49:12Z</time>
      </trkpt>
      <trkpt lat="46.44341" lon="4.92218">
        <ele>191.4</ele>
        <time>2024-09-18T14:49:13Z</time>
      </trkpt>
      <trkpt lat="46.4434" lon="4.92223">
        <ele>191.2</ele>
        <time>2024-09-18T14:49:14Z</time>
      </trkpt>
      <trkpt lat="46.44339" lon="4.92229">
        <ele>191.2</ele>
        <time>2024-09-18T14:49:15Z</time>
      </trkpt>
      <trkpt lat="46.44338" lon="4.92235">
        <ele>191.2</ele>
        <time>2024-09-18T14:49:16Z</time>
      </trkpt>
      <trkpt lat="46.44337" lon="4.92241">
        <ele>191</ele>
        <time>2024-09-18T14:49:17Z</time>
      </trkpt>
      <trkpt lat="46.44336" lon="4.92248">
        <ele>190.8</ele>
        <time>2024-09-18T14:49:18Z</time>
      </trkpt>
      <trkpt lat="46.44335" lon="4.92254">
        <ele>190.8</ele>
        <time>2024-09-18T14:49:19Z</time>
      </trkpt>
      <trkpt lat="46.44334" lon="4.9226">
        <ele>190.8</ele>
        <time>2024-09-18T14:49:20Z</time>
      </trkpt>
      <trkpt lat="46.44333" lon="4.92267">
        <ele>190.8</ele>
        <time>2024-09-18T14:49:21Z</time>
      </trkpt>
      <trkpt lat="46.44332" lon="4.92273">
        <ele>190.8</ele>
        <time>2024-09-18T14:49:22Z</time>
      </trkpt>
      <trkpt lat="46.44331" lon="4.9228">
        <ele>190.8</ele>
        <time>2024-09-18T14:49:23Z</time>
      </trkpt>
      <trkpt lat="46.44331" lon="4.92286">
        <ele>191.2</ele>
        <time>2024-09-18T14:49:24Z</time>
      </trkpt>
      <trkpt lat="46.44329" lon="4.92293">
        <ele>191.2</ele>
        <time>2024-09-18T14:49:25Z</time>
      </trkpt>
      <trkpt lat="46.44329" lon="4.92299">
        <ele>191.2</ele>
        <time>2024-09-18T14:49:26Z</time>
      </trkpt>
      <trkpt lat="46.44328" lon="4.92305">
        <ele>191</ele>
        <time>2024-09-18T14:49:27Z</time>
      </trkpt>
      <trkpt lat="46.44327" lon="4.92312">
        <ele>190.6</ele>
        <time>2024-09-18T14:49:28Z</time>
      </trkpt>
      <trkpt lat="46.44325" lon="4.92318">
        <ele>190.6</ele>
        <time>2024-09-18T14:49:29Z</time>
      </trkpt>
      <trkpt lat="46.44324" lon="4.92324">
        <ele>190.6</ele>
        <time>2024-09-18T14:49:30Z</time>
      </trkpt>
      <trkpt lat="46.44323" lon="4.9233">
        <ele>190.6</ele>
        <time>2024-09-18T14:49:31Z</time>
      </trkpt>
      <trkpt lat="46.44322" lon="4.92337">
        <ele>190.6</ele>
        <time>2024-09-18T14:49:32Z</time>
      </trkpt>
      <trkpt lat="46.4432" lon="4.92346">
        <ele>190.6</ele>
        <time>2024-09-18T14:49:33Z</time>
      </trkpt>
      <trkpt lat="46.4432" lon="4.92349">
        <ele>190.6</ele>
        <time>2024-09-18T14:49:34Z</time>
      </trkpt>
      <trkpt lat="46.44318" lon="4.92358">
        <ele>190.6</ele>
        <time>2024-09-18T14:49:35Z</time>
      </trkpt>
      <trkpt lat="46.44317" lon="4.92362">
        <ele>190.6</ele>
        <time>2024-09-18T14:49:36Z</time>
      </trkpt>
      <trkpt lat="46.44314" lon="4.92371">
        <ele>191.2</ele>
        <time>2024-09-18T14:49:37Z</time>
      </trkpt>
      <trkpt lat="46.44313" lon="4.92374">
        <ele>191.2</ele>
        <time>2024-09-18T14:49:38Z</time>
      </trkpt>
      <trkpt lat="46.44311" lon="4.92382">
        <ele>191.2</ele>
        <time>2024-09-18T14:49:39Z</time>
      </trkpt>
      <trkpt lat="46.4431" lon="4.92385">
        <ele>191.6</ele>
        <time>2024-09-18T14:49:40Z</time>
      </trkpt>
      <trkpt lat="46.44307" lon="4.92393">
        <ele>191.4</ele>
        <time>2024-09-18T14:49:41Z</time>
      </trkpt>
      <trkpt lat="46.44306" lon="4.92395">
        <ele>191.4</ele>
        <time>2024-09-18T14:49:42Z</time>
      </trkpt>
      <trkpt lat="46.44303" lon="4.92404">
        <ele>191.4</ele>
        <time>2024-09-18T14:49:43Z</time>
      </trkpt>
      <trkpt lat="46.44302" lon="4.92406">
        <ele>191.4</ele>
        <time>2024-09-18T14:49:44Z</time>
      </trkpt>
      <trkpt lat="46.44299" lon="4.92414">
        <ele>191.8</ele>
        <time>2024-09-18T14:49:45Z</time>
      </trkpt>
      <trkpt lat="46.44299" lon="4.92417">
        <ele>191.8</ele>
        <time>2024-09-18T14:49:46Z</time>
      </trkpt>
      <trkpt lat="46.44296" lon="4.92424">
        <ele>191.8</ele>
        <time>2024-09-18T14:49:47Z</time>
      </trkpt>
      <trkpt lat="46.44295" lon="4.92427">
        <ele>191.8</ele>
        <time>2024-09-18T14:49:48Z</time>
      </trkpt>
      <trkpt lat="46.44292" lon="4.92434">
        <ele>191.8</ele>
        <time>2024-09-18T14:49:49Z</time>
      </trkpt>
      <trkpt lat="46.44292" lon="4.92437">
        <ele>191.8</ele>
        <time>2024-09-18T14:49:50Z</time>
      </trkpt>
      <trkpt lat="46.4429" lon="4.92441">
        <ele>191.8</ele>
        <time>2024-09-18T14:49:51Z</time>
      </trkpt>
      <trkpt lat="46.44289" lon="4.92444">
        <ele>191.8</ele>
        <time>2024-09-18T14:49:52Z</time>
      </trkpt>
      <trkpt lat="46.44288" lon="4.92447">
        <ele>191.8</ele>
        <time>2024-09-18T14:49:53Z</time>
      </trkpt>
      <trkpt lat="46.44287" lon="4.92448">
        <ele>191.8</ele>
        <time>2024-09-18T14:49:54Z</time>
      </trkpt>
      <trkpt lat="46.44286" lon="4.9245">
        <ele>191.8</ele>
        <time>2024-09-18T14:49:55Z</time>
      </trkpt>
      <trkpt lat="46.44286" lon="4.9245">
        <ele>191.8</ele>
        <time>2024-09-18T14:49:56Z</time>
      </trkpt>
      <trkpt lat="46.44286" lon="4.92451">
        <ele>191.8</ele>
        <time>2024-09-18T14:49:57Z</time>
      </trkpt>
      <trkpt lat="46.44285" lon="4.92451">
        <ele>192</ele>
        <time>2024-09-18T14:49:58Z</time>
      </trkpt>
      <trkpt lat="46.44285" lon="4.9245">
        <ele>192</ele>
        <time>2024-09-18T14:49:59Z</time>
      </trkpt>
      <trkpt lat="46.44284" lon="4.92448">
        <ele>192</ele>
        <time>2024-09-18T14:50:00Z</time>
      </trkpt>
      <trkpt lat="46.44283" lon="4.92447">
        <ele>192</ele>
        <time>2024-09-18T14:50:01Z</time>
      </trkpt>
      <trkpt lat="46.44282" lon="4.92446">
        <ele>192</ele>
        <time>2024-09-18T14:50:02Z</time>
      </trkpt>
      <trkpt lat="46.44281" lon="4.92445">
        <ele>192</ele>
        <time>2024-09-18T14:50:03Z</time>
      </trkpt>
      <trkpt lat="46.44281" lon="4.92445">
        <ele>192</ele>
        <time>2024-09-18T14:50:04Z</time>
      </trkpt>
      <trkpt lat="46.44277" lon="4.92445">
        <ele>191.4</ele>
        <time>2024-09-18T14:51:25Z</time>
      </trkpt>
      <trkpt lat="46.44276" lon="4.92447">
        <ele>191.4</ele>
        <time>2024-09-18T14:51:26Z</time>
      </trkpt>
      <trkpt lat="46.44276" lon="4.9245">
        <ele>191.4</ele>
        <time>2024-09-18T14:51:27Z</time>
      </trkpt>
      <trkpt lat="46.44277" lon="4.92452">
        <ele>191.4</ele>
        <time>2024-09-18T14:51:28Z</time>
      </trkpt>
      <trkpt lat="46.44278" lon="4.92453">
        <ele>191.4</ele>
        <time>2024-09-18T14:51:29Z</time>
      </trkpt>
      <trkpt lat="46.4428" lon="4.92455">
        <ele>191.4</ele>
        <time>2024-09-18T14:51:30Z</time>
      </trkpt>
      <trkpt lat="46.44282" lon="4.92457">
        <ele>191.4</ele>
        <time>2024-09-18T14:51:31Z</time>
      </trkpt>
      <trkpt lat="46.44283" lon="4.92458">
        <ele>191.6</ele>
        <time>2024-09-18T14:51:32Z</time>
      </trkpt>
      <trkpt lat="46.44283" lon="4.9246">
        <ele>191.6</ele>
        <time>2024-09-18T14:51:33Z</time>
      </trkpt>
      <trkpt lat="46.44283" lon="4.92461">
        <ele>191.6</ele>
        <time>2024-09-18T14:51:34Z</time>
      </trkpt>
      <trkpt lat="46.44284" lon="4.92462">
        <ele>191.6</ele>
        <time>2024-09-18T14:51:35Z</time>
      </trkpt>
      <trkpt lat="46.44283" lon="4.92463">
        <ele>191.8</ele>
        <time>2024-09-18T14:51:36Z</time>
      </trkpt>
      <trkpt lat="46.44283" lon="4.92465">
        <ele>191.8</ele>
        <time>2024-09-18T14:51:37Z</time>
      </trkpt>
      <trkpt lat="46.44282" lon="4.92466">
        <ele>191.8</ele>
        <time>2024-09-18T14:51:38Z</time>
      </trkpt>
      <trkpt lat="46.44282" lon="4.92466">
        <ele>191.6</ele>
        <time>2024-09-18T14:51:39Z</time>
      </trkpt>
      <trkpt lat="46.44281" lon="4.92466">
        <ele>191.8</ele>
        <time>2024-09-18T14:51:40Z</time>
      </trkpt>
      <trkpt lat="46.44281" lon="4.92466">
        <ele>191.8</ele>
        <time>2024-09-18T14:51:41Z</time>
      </trkpt>
      <trkpt lat="46.44279" lon="4.92474">
        <ele>192</ele>
        <time>2024-09-18T14:52:44Z</time>
      </trkpt>
      <trkpt lat="46.44278" lon="4.92477">
        <ele>192</ele>
        <time>2024-09-18T14:52:45Z</time>
      </trkpt>
      <trkpt lat="46.44277" lon="4.9248">
        <ele>192</ele>
        <time>2024-09-18T14:52:46Z</time>
      </trkpt>
      <trkpt lat="46.44277" lon="4.92483">
        <ele>192</ele>
        <time>2024-09-18T14:52:47Z</time>
      </trkpt>
      <trkpt lat="46.44276" lon="4.92487">
        <ele>192</ele>
        <time>2024-09-18T14:52:48Z</time>
      </trkpt>
      <trkpt lat="46.44275" lon="4.9249">
        <ele>192</ele>
        <time>2024-09-18T14:52:49Z</time>
      </trkpt>
      <trkpt lat="46.44274" lon="4.92494">
        <ele>191.8</ele>
        <time>2024-09-18T14:52:50Z</time>
      </trkpt>
      <trkpt lat="46.44273" lon="4.92498">
        <ele>191.8</ele>
        <time>2024-09-18T14:52:51Z</time>
      </trkpt>
      <trkpt lat="46.44271" lon="4.92502">
        <ele>191.8</ele>
        <time>2024-09-18T14:52:52Z</time>
      </trkpt>
      <trkpt lat="46.4427" lon="4.92505">
        <ele>191.4</ele>
        <time>2024-09-18T14:52:53Z</time>
      </trkpt>
      <trkpt lat="46.44269" lon="4.9251">
        <ele>191.6</ele>
        <time>2024-09-18T14:52:54Z</time>
      </trkpt>
      <trkpt lat="46.44267" lon="4.92514">
        <ele>191.6</ele>
        <time>2024-09-18T14:52:55Z</time>
      </trkpt>
      <trkpt lat="46.44266" lon="4.92518">
        <ele>191.6</ele>
        <time>2024-09-18T14:52:56Z</time>
      </trkpt>
      <trkpt lat="46.44264" lon="4.92522">
        <ele>191.6</ele>
        <time>2024-09-18T14:52:57Z</time>
      </trkpt>
      <trkpt lat="46.44262" lon="4.92525">
        <ele>191.6</ele>
        <time>2024-09-18T14:52:58Z</time>
      </trkpt>
      <trkpt lat="46.44261" lon="4.92529">
        <ele>191.8</ele>
        <time>2024-09-18T14:52:59Z</time>
      </trkpt>
      <trkpt lat="46.44259" lon="4.92533">
        <ele>191.8</ele>
        <time>2024-09-18T14:53:00Z</time>
      </trkpt>
      <trkpt lat="46.44257" lon="4.92538">
        <ele>191.8</ele>
        <time>2024-09-18T14:53:01Z</time>
      </trkpt>
      <trkpt lat="46.44256" lon="4.92542">
        <ele>191.8</ele>
        <time>2024-09-18T14:53:02Z</time>
      </trkpt>
      <trkpt lat="46.44254" lon="4.92546">
        <ele>191</ele>
        <time>2024-09-18T14:53:03Z</time>
      </trkpt>
      <trkpt lat="46.44252" lon="4.9255">
        <ele>191.6</ele>
        <time>2024-09-18T14:53:04Z</time>
      </trkpt>
      <trkpt lat="46.4425" lon="4.92554">
        <ele>191.6</ele>
        <time>2024-09-18T14:53:05Z</time>
      </trkpt>
      <trkpt lat="46.44248" lon="4.92558">
        <ele>191.6</ele>
        <time>2024-09-18T14:53:06Z</time>
      </trkpt>
      <trkpt lat="46.44246" lon="4.92562">
        <ele>191.2</ele>
        <time>2024-09-18T14:53:07Z</time>
      </trkpt>
      <trkpt lat="46.44244" lon="4.92565">
        <ele>190.6</ele>
        <time>2024-09-18T14:53:08Z</time>
      </trkpt>
      <trkpt lat="46.44242" lon="4.92568">
        <ele>190.6</ele>
        <time>2024-09-18T14:53:09Z</time>
      </trkpt>
      <trkpt lat="46.44241" lon="4.92572">
        <ele>190.6</ele>
        <time>2024-09-18T14:53:10Z</time>
      </trkpt>
      <trkpt lat="46.44239" lon="4.92576">
        <ele>190.6</ele>
        <time>2024-09-18T14:53:11Z</time>
      </trkpt>
      <trkpt lat="46.44236" lon="4.92582">
        <ele>191.2</ele>
        <time>2024-09-18T14:53:12Z</time>
      </trkpt>
      <trkpt lat="46.44235" lon="4.92584">
        <ele>190.8</ele>
        <time>2024-09-18T14:53:13Z</time>
      </trkpt>
      <trkpt lat="46.44232" lon="4.92589">
        <ele>190.8</ele>
        <time>2024-09-18T14:53:14Z</time>
      </trkpt>
      <trkpt lat="46.44231" lon="4.9259">
        <ele>190.8</ele>
        <time>2024-09-18T14:53:15Z</time>
      </trkpt>
      <trkpt lat="46.44228" lon="4.92595">
        <ele>191</ele>
        <time>2024-09-18T14:53:16Z</time>
      </trkpt>
      <trkpt lat="46.44227" lon="4.92597">
        <ele>191.2</ele>
        <time>2024-09-18T14:53:17Z</time>
      </trkpt>
      <trkpt lat="46.44224" lon="4.92602">
        <ele>191.2</ele>
        <time>2024-09-18T14:53:18Z</time>
      </trkpt>
      <trkpt lat="46.44223" lon="4.92604">
        <ele>191.2</ele>
        <time>2024-09-18T14:53:19Z</time>
      </trkpt>
      <trkpt lat="46.4422" lon="4.9261">
        <ele>191.2</ele>
        <time>2024-09-18T14:53:20Z</time>
      </trkpt>
      <trkpt lat="46.44219" lon="4.92612">
        <ele>191.2</ele>
        <time>2024-09-18T14:53:21Z</time>
      </trkpt>
      <trkpt lat="46.44216" lon="4.92619">
        <ele>191</ele>
        <time>2024-09-18T14:53:22Z</time>
      </trkpt>
      <trkpt lat="46.44214" lon="4.92621">
        <ele>191</ele>
        <time>2024-09-18T14:53:23Z</time>
      </trkpt>
      <trkpt lat="46.4421" lon="4.92626">
        <ele>191</ele>
        <time>2024-09-18T14:53:24Z</time>
      </trkpt>
      <trkpt lat="46.44209" lon="4.92628">
        <ele>191</ele>
        <time>2024-09-18T14:53:25Z</time>
      </trkpt>
      <trkpt lat="46.44205" lon="4.92634">
        <ele>191</ele>
        <time>2024-09-18T14:53:26Z</time>
      </trkpt>
      <trkpt lat="46.44204" lon="4.92637">
        <ele>191</ele>
        <time>2024-09-18T14:53:27Z</time>
      </trkpt>
      <trkpt lat="46.44201" lon="4.92644">
        <ele>191</ele>
        <time>2024-09-18T14:53:28Z</time>
      </trkpt>
      <trkpt lat="46.442" lon="4.92646">
        <ele>191</ele>
        <time>2024-09-18T14:53:29Z</time>
      </trkpt>
      <trkpt lat="46.44197" lon="4.9265">
        <ele>191</ele>
        <time>2024-09-18T14:53:30Z</time>
      </trkpt>
      <trkpt lat="46.44195" lon="4.92654">
        <ele>191.2</ele>
        <time>2024-09-18T14:53:31Z</time>
      </trkpt>
      <trkpt lat="46.44193" lon="4.92658">
        <ele>191.2</ele>
        <time>2024-09-18T14:53:32Z</time>
      </trkpt>
      <trkpt lat="46.4419" lon="4.92662">
        <ele>191.2</ele>
        <time>2024-09-18T14:53:33Z</time>
      </trkpt>
      <trkpt lat="46.44188" lon="4.92667">
        <ele>191.2</ele>
        <time>2024-09-18T14:53:34Z</time>
      </trkpt>
      <trkpt lat="46.44186" lon="4.9267">
        <ele>191</ele>
        <time>2024-09-18T14:53:35Z</time>
      </trkpt>
      <trkpt lat="46.44183" lon="4.92674">
        <ele>191</ele>
        <time>2024-09-18T14:53:36Z</time>
      </trkpt>
      <trkpt lat="46.44181" lon="4.92678">
        <ele>191</ele>
        <time>2024-09-18T14:53:37Z</time>
      </trkpt>
      <trkpt lat="46.44179" lon="4.92682">
        <ele>191</ele>
        <time>2024-09-18T14:53:38Z</time>
      </trkpt>
      <trkpt lat="46.44176" lon="4.92686">
        <ele>191</ele>
        <time>2024-09-18T14:53:39Z</time>
      </trkpt>
      <trkpt lat="46.44174" lon="4.92689">
        <ele>191.2</ele>
        <time>2024-09-18T14:53:40Z</time>
      </trkpt>
      <trkpt lat="46.44172" lon="4.92693">
        <ele>191.2</ele>
        <time>2024-09-18T14:53:41Z</time>
      </trkpt>
      <trkpt lat="46.4417" lon="4.92697">
        <ele>191.2</ele>
        <time>2024-09-18T14:53:42Z</time>
      </trkpt>
      <trkpt lat="46.44168" lon="4.92701">
        <ele>191.2</ele>
        <time>2024-09-18T14:53:43Z</time>
      </trkpt>
      <trkpt lat="46.44166" lon="4.92704">
        <ele>191.2</ele>
        <time>2024-09-18T14:53:44Z</time>
      </trkpt>
      <trkpt lat="46.44164" lon="4.92708">
        <ele>191.4</ele>
        <time>2024-09-18T14:53:45Z</time>
      </trkpt>
      <trkpt lat="46.44161" lon="4.92712">
        <ele>191.4</ele>
        <time>2024-09-18T14:53:46Z</time>
      </trkpt>
      <trkpt lat="46.44159" lon="4.92716">
        <ele>191.4</ele>
        <time>2024-09-18T14:53:47Z</time>
      </trkpt>
      <trkpt lat="46.44156" lon="4.9272">
        <ele>191.2</ele>
        <time>2024-09-18T14:53:48Z</time>
      </trkpt>
      <trkpt lat="46.44153" lon="4.92725">
        <ele>191.4</ele>
        <time>2024-09-18T14:53:49Z</time>
      </trkpt>
      <trkpt lat="46.4415" lon="4.92729">
        <ele>191.4</ele>
        <time>2024-09-18T14:53:50Z</time>
      </trkpt>
      <trkpt lat="46.44147" lon="4.92734">
        <ele>191.4</ele>
        <time>2024-09-18T14:53:51Z</time>
      </trkpt>
      <trkpt lat="46.44144" lon="4.92738">
        <ele>191</ele>
        <time>2024-09-18T14:53:52Z</time>
      </trkpt>
      <trkpt lat="46.4414" lon="4.92744">
        <ele>191</ele>
        <time>2024-09-18T14:53:53Z</time>
      </trkpt>
      <trkpt lat="46.44138" lon="4.92746">
        <ele>191</ele>
        <time>2024-09-18T14:53:54Z</time>
      </trkpt>
      <trkpt lat="46.44134" lon="4.92752">
        <ele>191</ele>
        <time>2024-09-18T14:53:55Z</time>
      </trkpt>
      <trkpt lat="46.44133" lon="4.92754">
        <ele>191</ele>
        <time>2024-09-18T14:53:56Z</time>
      </trkpt>
      <trkpt lat="46.44129" lon="4.9276">
        <ele>191</ele>
        <time>2024-09-18T14:53:57Z</time>
      </trkpt>
      <trkpt lat="46.44127" lon="4.92761">
        <ele>191.2</ele>
        <time>2024-09-18T14:53:58Z</time>
      </trkpt>
      <trkpt lat="46.44122" lon="4.92767">
        <ele>191.2</ele>
        <time>2024-09-18T14:53:59Z</time>
      </trkpt>
      <trkpt lat="46.44121" lon="4.9277">
        <ele>191.2</ele>
        <time>2024-09-18T14:54:00Z</time>
      </trkpt>
      <trkpt lat="46.44116" lon="4.92776">
        <ele>191.2</ele>
        <time>2024-09-18T14:54:01Z</time>
      </trkpt>
      <trkpt lat="46.44115" lon="4.92778">
        <ele>191.2</ele>
        <time>2024-09-18T14:54:02Z</time>
      </trkpt>
      <trkpt lat="46.44111" lon="4.92784">
        <ele>191.2</ele>
        <time>2024-09-18T14:54:03Z</time>
      </trkpt>
      <trkpt lat="46.44109" lon="4.92787">
        <ele>191.2</ele>
        <time>2024-09-18T14:54:04Z</time>
      </trkpt>
      <trkpt lat="46.44104" lon="4.92792">
        <ele>191.2</ele>
        <time>2024-09-18T14:54:05Z</time>
      </trkpt>
      <trkpt lat="46.44103" lon="4.92794">
        <ele>191.2</ele>
        <time>2024-09-18T14:54:06Z</time>
      </trkpt>
      <trkpt lat="46.44098" lon="4.928">
        <ele>191.2</ele>
        <time>2024-09-18T14:54:07Z</time>
      </trkpt>
      <trkpt lat="46.44096" lon="4.92802">
        <ele>191.2</ele>
        <time>2024-09-18T14:54:08Z</time>
      </trkpt>
      <trkpt lat="46.44091" lon="4.92808">
        <ele>191.2</ele>
        <time>2024-09-18T14:54:09Z</time>
      </trkpt>
      <trkpt lat="46.44089" lon="4.9281">
        <ele>191.2</ele>
        <time>2024-09-18T14:54:10Z</time>
      </trkpt>
      <trkpt lat="46.44086" lon="4.92814">
        <ele>191</ele>
        <time>2024-09-18T14:54:11Z</time>
      </trkpt>
      <trkpt lat="46.44083" lon="4.92818">
        <ele>191</ele>
        <time>2024-09-18T14:54:12Z</time>
      </trkpt>
      <trkpt lat="46.44079" lon="4.92822">
        <ele>191</ele>
        <time>2024-09-18T14:54:13Z</time>
      </trkpt>
      <trkpt lat="46.44076" lon="4.92825">
        <ele>191.4</ele>
        <time>2024-09-18T14:54:14Z</time>
      </trkpt>
      <trkpt lat="46.44072" lon="4.92829">
        <ele>191.4</ele>
        <time>2024-09-18T14:54:15Z</time>
      </trkpt>
      <trkpt lat="46.44069" lon="4.92832">
        <ele>190.8</ele>
        <time>2024-09-18T14:54:16Z</time>
      </trkpt>
      <trkpt lat="46.44066" lon="4.92835">
        <ele>190.8</ele>
        <time>2024-09-18T14:54:17Z</time>
      </trkpt>
      <trkpt lat="46.44062" lon="4.92838">
        <ele>190.8</ele>
        <time>2024-09-18T14:54:18Z</time>
      </trkpt>
      <trkpt lat="46.44057" lon="4.92842">
        <ele>190.8</ele>
        <time>2024-09-18T14:54:19Z</time>
      </trkpt>
      <trkpt lat="46.44056" lon="4.92844">
        <ele>190.8</ele>
        <time>2024-09-18T14:54:20Z</time>
      </trkpt>
      <trkpt lat="46.44053" lon="4.92847">
        <ele>191.4</ele>
        <time>2024-09-18T14:54:21Z</time>
      </trkpt>
      <trkpt lat="46.4405" lon="4.9285">
        <ele>191.4</ele>
        <time>2024-09-18T14:54:22Z</time>
      </trkpt>
      <trkpt lat="46.44046" lon="4.92853">
        <ele>191.4</ele>
        <time>2024-09-18T14:54:23Z</time>
      </trkpt>
      <trkpt lat="46.44043" lon="4.92856">
        <ele>191.2</ele>
        <time>2024-09-18T14:54:24Z</time>
      </trkpt>
      <trkpt lat="46.4404" lon="4.92859">
        <ele>191.2</ele>
        <time>2024-09-18T14:54:25Z</time>
      </trkpt>
      <trkpt lat="46.44036" lon="4.92862">
        <ele>191.2</ele>
        <time>2024-09-18T14:54:26Z</time>
      </trkpt>
      <trkpt lat="46.44032" lon="4.92865">
        <ele>191.2</ele>
        <time>2024-09-18T14:54:27Z</time>
      </trkpt>
      <trkpt lat="46.44029" lon="4.92867">
        <ele>191.2</ele>
        <time>2024-09-18T14:54:28Z</time>
      </trkpt>
      <trkpt lat="46.44025" lon="4.9287">
        <ele>191.2</ele>
        <time>2024-09-18T14:54:29Z</time>
      </trkpt>
      <trkpt lat="46.44022" lon="4.92873">
        <ele>191</ele>
        <time>2024-09-18T14:54:30Z</time>
      </trkpt>
      <trkpt lat="46.44018" lon="4.92876">
        <ele>191</ele>
        <time>2024-09-18T14:54:31Z</time>
      </trkpt>
      <trkpt lat="46.44015" lon="4.92878">
        <ele>191</ele>
        <time>2024-09-18T14:54:32Z</time>
      </trkpt>
      <trkpt lat="46.44011" lon="4.9288">
        <ele>191</ele>
        <time>2024-09-18T14:54:33Z</time>
      </trkpt>
      <trkpt lat="46.44007" lon="4.92883">
        <ele>191</ele>
        <time>2024-09-18T14:54:34Z</time>
      </trkpt>
      <trkpt lat="46.44004" lon="4.92885">
        <ele>191</ele>
        <time>2024-09-18T14:54:35Z</time>
      </trkpt>
      <trkpt lat="46.44" lon="4.92888">
        <ele>191</ele>
        <time>2024-09-18T14:54:36Z</time>
      </trkpt>
      <trkpt lat="46.43997" lon="4.92892">
        <ele>191</ele>
        <time>2024-09-18T14:54:37Z</time>
      </trkpt>
      <trkpt lat="46.43993" lon="4.92894">
        <ele>191</ele>
        <time>2024-09-18T14:54:38Z</time>
      </trkpt>
      <trkpt lat="46.43987" lon="4.92899">
        <ele>191</ele>
        <time>2024-09-18T14:54:39Z</time>
      </trkpt>
      <trkpt lat="46.43986" lon="4.929">
        <ele>191</ele>
        <time>2024-09-18T14:54:40Z</time>
      </trkpt>
      <trkpt lat="46.4398" lon="4.92905">
        <ele>191</ele>
        <time>2024-09-18T14:54:41Z</time>
      </trkpt>
      <trkpt lat="46.43978" lon="4.92906">
        <ele>191</ele>
        <time>2024-09-18T14:54:42Z</time>
      </trkpt>
      <trkpt lat="46.43972" lon="4.9291">
        <ele>191.2</ele>
        <time>2024-09-18T14:54:43Z</time>
      </trkpt>
      <trkpt lat="46.4397" lon="4.92912">
        <ele>191.2</ele>
        <time>2024-09-18T14:54:44Z</time>
      </trkpt>
      <trkpt lat="46.43964" lon="4.92916">
        <ele>191.2</ele>
        <time>2024-09-18T14:54:45Z</time>
      </trkpt>
      <trkpt lat="46.43962" lon="4.92918">
        <ele>191.2</ele>
        <time>2024-09-18T14:54:46Z</time>
      </trkpt>
      <trkpt lat="46.43958" lon="4.9292">
        <ele>191.6</ele>
        <time>2024-09-18T14:54:47Z</time>
      </trkpt>
      <trkpt lat="46.43954" lon="4.92923">
        <ele>191.6</ele>
        <time>2024-09-18T14:54:48Z</time>
      </trkpt>
      <trkpt lat="46.43948" lon="4.92927">
        <ele>191.6</ele>
        <time>2024-09-18T14:54:49Z</time>
      </trkpt>
      <trkpt lat="46.43946" lon="4.92929">
        <ele>191.2</ele>
        <time>2024-09-18T14:54:50Z</time>
      </trkpt>
      <trkpt lat="46.43941" lon="4.92933">
        <ele>191</ele>
        <time>2024-09-18T14:54:51Z</time>
      </trkpt>
      <trkpt lat="46.43939" lon="4.92934">
        <ele>191</ele>
        <time>2024-09-18T14:54:52Z</time>
      </trkpt>
      <trkpt lat="46.43933" lon="4.92938">
        <ele>191</ele>
        <time>2024-09-18T14:54:53Z</time>
      </trkpt>
      <trkpt lat="46.43931" lon="4.9294">
        <ele>191</ele>
        <time>2024-09-18T14:54:54Z</time>
      </trkpt>
      <trkpt lat="46.43927" lon="4.92943">
        <ele>191</ele>
        <time>2024-09-18T14:54:55Z</time>
      </trkpt>
      <trkpt lat="46.43923" lon="4.92945">
        <ele>191</ele>
        <time>2024-09-18T14:54:56Z</time>
      </trkpt>
      <trkpt lat="46.4392" lon="4.92948">
        <ele>191</ele>
        <time>2024-09-18T14:54:57Z</time>
      </trkpt>
      <trkpt lat="46.43916" lon="4.92951">
        <ele>191</ele>
        <time>2024-09-18T14:54:58Z</time>
      </trkpt>
      <trkpt lat="46.43912" lon="4.92953">
        <ele>191</ele>
        <time>2024-09-18T14:54:59Z</time>
      </trkpt>
      <trkpt lat="46.43908" lon="4.92956">
        <ele>190.8</ele>
        <time>2024-09-18T14:55:00Z</time>
      </trkpt>
      <trkpt lat="46.43905" lon="4.92958">
        <ele>190.8</ele>
        <time>2024-09-18T14:55:01Z</time>
      </trkpt>
      <trkpt lat="46.43902" lon="4.9296">
        <ele>190.8</ele>
        <time>2024-09-18T14:55:02Z</time>
      </trkpt>
      <trkpt lat="46.43898" lon="4.92962">
        <ele>190.6</ele>
        <time>2024-09-18T14:55:03Z</time>
      </trkpt>
      <trkpt lat="46.43895" lon="4.92965">
        <ele>190.8</ele>
        <time>2024-09-18T14:55:04Z</time>
      </trkpt>
      <trkpt lat="46.43891" lon="4.92969">
        <ele>190.8</ele>
        <time>2024-09-18T14:55:05Z</time>
      </trkpt>
      <trkpt lat="46.43887" lon="4.92971">
        <ele>190.8</ele>
        <time>2024-09-18T14:55:06Z</time>
      </trkpt>
      <trkpt lat="46.43883" lon="4.92974">
        <ele>190.8</ele>
        <time>2024-09-18T14:55:07Z</time>
      </trkpt>
      <trkpt lat="46.43879" lon="4.92977">
        <ele>191.2</ele>
        <time>2024-09-18T14:55:08Z</time>
      </trkpt>
      <trkpt lat="46.43875" lon="4.9298">
        <ele>191.2</ele>
        <time>2024-09-18T14:55:09Z</time>
      </trkpt>
      <trkpt lat="46.43872" lon="4.92983">
        <ele>191.2</ele>
        <time>2024-09-18T14:55:10Z</time>
      </trkpt>
      <trkpt lat="46.43868" lon="4.92985">
        <ele>191.2</ele>
        <time>2024-09-18T14:55:11Z</time>
      </trkpt>
      <trkpt lat="46.43864" lon="4.92988">
        <ele>191.2</ele>
        <time>2024-09-18T14:55:12Z</time>
      </trkpt>
      <trkpt lat="46.4386" lon="4.92991">
        <ele>191.2</ele>
        <time>2024-09-18T14:55:13Z</time>
      </trkpt>
      <trkpt lat="46.43856" lon="4.92994">
        <ele>190.8</ele>
        <time>2024-09-18T14:55:14Z</time>
      </trkpt>
      <trkpt lat="46.43852" lon="4.92996">
        <ele>190.8</ele>
        <time>2024-09-18T14:55:15Z</time>
      </trkpt>
      <trkpt lat="46.43848" lon="4.93">
        <ele>190.8</ele>
        <time>2024-09-18T14:55:16Z</time>
      </trkpt>
      <trkpt lat="46.43844" lon="4.93002">
        <ele>190.8</ele>
        <time>2024-09-18T14:55:17Z</time>
      </trkpt>
      <trkpt lat="46.43841" lon="4.93005">
        <ele>191</ele>
        <time>2024-09-18T14:55:18Z</time>
      </trkpt>
      <trkpt lat="46.43835" lon="4.9301">
        <ele>191</ele>
        <time>2024-09-18T14:55:19Z</time>
      </trkpt>
      <trkpt lat="46.43833" lon="4.93012">
        <ele>191</ele>
        <time>2024-09-18T14:55:20Z</time>
      </trkpt>
      <trkpt lat="46.43827" lon="4.93017">
        <ele>190.6</ele>
        <time>2024-09-18T14:55:21Z</time>
      </trkpt>
      <trkpt lat="46.43825" lon="4.93019">
        <ele>190.8</ele>
        <time>2024-09-18T14:55:22Z</time>
      </trkpt>
      <trkpt lat="46.43819" lon="4.93023">
        <ele>190.8</ele>
        <time>2024-09-18T14:55:23Z</time>
      </trkpt>
      <trkpt lat="46.43817" lon="4.93024">
        <ele>190.8</ele>
        <time>2024-09-18T14:55:24Z</time>
      </trkpt>
      <trkpt lat="46.43811" lon="4.93028">
        <ele>190.8</ele>
        <time>2024-09-18T14:55:25Z</time>
      </trkpt>
      <trkpt lat="46.43809" lon="4.93029">
        <ele>190.8</ele>
        <time>2024-09-18T14:55:26Z</time>
      </trkpt>
      <trkpt lat="46.43803" lon="4.93033">
        <ele>190.8</ele>
        <time>2024-09-18T14:55:27Z</time>
      </trkpt>
      <trkpt lat="46.43801" lon="4.93035">
        <ele>190.8</ele>
        <time>2024-09-18T14:55:28Z</time>
      </trkpt>
      <trkpt lat="46.43795" lon="4.93039">
        <ele>190.8</ele>
        <time>2024-09-18T14:55:29Z</time>
      </trkpt>
      <trkpt lat="46.43793" lon="4.9304">
        <ele>190.8</ele>
        <time>2024-09-18T14:55:30Z</time>
      </trkpt>
      <trkpt lat="46.43787" lon="4.93044">
        <ele>190.8</ele>
        <time>2024-09-18T14:55:31Z</time>
      </trkpt>
      <trkpt lat="46.43785" lon="4.93046">
        <ele>190.8</ele>
        <time>2024-09-18T14:55:32Z</time>
      </trkpt>
      <trkpt lat="46.43779" lon="4.93049">
        <ele>190.8</ele>
        <time>2024-09-18T14:55:33Z</time>
      </trkpt>
      <trkpt lat="46.43777" lon="4.93051">
        <ele>190.8</ele>
        <time>2024-09-18T14:55:34Z</time>
      </trkpt>
      <trkpt lat="46.43771" lon="4.93055">
        <ele>190.6</ele>
        <time>2024-09-18T14:55:35Z</time>
      </trkpt>
      <trkpt lat="46.43769" lon="4.93057">
        <ele>190.6</ele>
        <time>2024-09-18T14:55:36Z</time>
      </trkpt>
      <trkpt lat="46.43765" lon="4.9306">
        <ele>190.6</ele>
        <time>2024-09-18T14:55:37Z</time>
      </trkpt>
      <trkpt lat="46.43761" lon="4.93063">
        <ele>190.6</ele>
        <time>2024-09-18T14:55:38Z</time>
      </trkpt>
      <trkpt lat="46.43757" lon="4.93066">
        <ele>190.4</ele>
        <time>2024-09-18T14:55:39Z</time>
      </trkpt>
      <trkpt lat="46.43753" lon="4.93069">
        <ele>190.6</ele>
        <time>2024-09-18T14:55:40Z</time>
      </trkpt>
      <trkpt lat="46.43749" lon="4.93072">
        <ele>190.6</ele>
        <time>2024-09-18T14:55:41Z</time>
      </trkpt>
      <trkpt lat="46.43745" lon="4.93075">
        <ele>190.6</ele>
        <time>2024-09-18T14:55:42Z</time>
      </trkpt>
      <trkpt lat="46.43741" lon="4.93079">
        <ele>190.6</ele>
        <time>2024-09-18T14:55:43Z</time>
      </trkpt>
      <trkpt lat="46.43737" lon="4.93082">
        <ele>190.6</ele>
        <time>2024-09-18T14:55:44Z</time>
      </trkpt>
      <trkpt lat="46.43733" lon="4.93085">
        <ele>190.6</ele>
        <time>2024-09-18T14:55:45Z</time>
      </trkpt>
      <trkpt lat="46.43729" lon="4.93088">
        <ele>190.6</ele>
        <time>2024-09-18T14:55:46Z</time>
      </trkpt>
      <trkpt lat="46.43724" lon="4.93091">
        <ele>190.6</ele>
        <time>2024-09-18T14:55:47Z</time>
      </trkpt>
      <trkpt lat="46.4372" lon="4.93094">
        <ele>190.6</ele>
        <time>2024-09-18T14:55:48Z</time>
      </trkpt>
      <trkpt lat="46.43716" lon="4.93097">
        <ele>190.8</ele>
        <time>2024-09-18T14:55:49Z</time>
      </trkpt>
      <trkpt lat="46.43712" lon="4.93101">
        <ele>190.8</ele>
        <time>2024-09-18T14:55:50Z</time>
      </trkpt>
      <trkpt lat="46.43708" lon="4.93104">
        <ele>190.8</ele>
        <time>2024-09-18T14:55:51Z</time>
      </trkpt>
      <trkpt lat="46.43704" lon="4.93107">
        <ele>190.8</ele>
        <time>2024-09-18T14:55:52Z</time>
      </trkpt>
      <trkpt lat="46.437" lon="4.9311">
        <ele>190.6</ele>
        <time>2024-09-18T14:55:53Z</time>
      </trkpt>
      <trkpt lat="46.43696" lon="4.93113">
        <ele>190.6</ele>
        <time>2024-09-18T14:55:54Z</time>
      </trkpt>
      <trkpt lat="46.43692" lon="4.93116">
        <ele>190.6</ele>
        <time>2024-09-18T14:55:55Z</time>
      </trkpt>
      <trkpt lat="46.43689" lon="4.93118">
        <ele>190.6</ele>
        <time>2024-09-18T14:55:56Z</time>
      </trkpt>
      <trkpt lat="46.43685" lon="4.93121">
        <ele>190.6</ele>
        <time>2024-09-18T14:55:57Z</time>
      </trkpt>
      <trkpt lat="46.43681" lon="4.93124">
        <ele>190.8</ele>
        <time>2024-09-18T14:55:58Z</time>
      </trkpt>
      <trkpt lat="46.43677" lon="4.93127">
        <ele>190.8</ele>
        <time>2024-09-18T14:55:59Z</time>
      </trkpt>
      <trkpt lat="46.43673" lon="4.9313">
        <ele>190.8</ele>
        <time>2024-09-18T14:56:00Z</time>
      </trkpt>
      <trkpt lat="46.43669" lon="4.93133">
        <ele>190.8</ele>
        <time>2024-09-18T14:56:01Z</time>
      </trkpt>
      <trkpt lat="46.43665" lon="4.93136">
        <ele>190.8</ele>
        <time>2024-09-18T14:56:02Z</time>
      </trkpt>
      <trkpt lat="46.43661" lon="4.93139">
        <ele>190.8</ele>
        <time>2024-09-18T14:56:03Z</time>
      </trkpt>
      <trkpt lat="46.43657" lon="4.93142">
        <ele>190.8</ele>
        <time>2024-09-18T14:56:04Z</time>
      </trkpt>
      <trkpt lat="46.43651" lon="4.93146">
        <ele>190.8</ele>
        <time>2024-09-18T14:56:05Z</time>
      </trkpt>
      <trkpt lat="46.43649" lon="4.93148">
        <ele>190.8</ele>
        <time>2024-09-18T14:56:06Z</time>
      </trkpt>
      <trkpt lat="46.43643" lon="4.93152">
        <ele>190.6</ele>
        <time>2024-09-18T14:56:07Z</time>
      </trkpt>
      <trkpt lat="46.43641" lon="4.93154">
        <ele>190.6</ele>
        <time>2024-09-18T14:56:08Z</time>
      </trkpt>
      <trkpt lat="46.43636" lon="4.93158">
        <ele>190.6</ele>
        <time>2024-09-18T14:56:09Z</time>
      </trkpt>
      <trkpt lat="46.43634" lon="4.93159">
        <ele>190.6</ele>
        <time>2024-09-18T14:56:10Z</time>
      </trkpt>
      <trkpt lat="46.43629" lon="4.93162">
        <ele>190.6</ele>
        <time>2024-09-18T14:56:11Z</time>
      </trkpt>
      <trkpt lat="46.43627" lon="4.93163">
        <ele>191</ele>
        <time>2024-09-18T14:56:12Z</time>
      </trkpt>
      <trkpt lat="46.43622" lon="4.93167">
        <ele>191</ele>
        <time>2024-09-18T14:56:13Z</time>
      </trkpt>
      <trkpt lat="46.4362" lon="4.93168">
        <ele>191</ele>
        <time>2024-09-18T14:56:14Z</time>
      </trkpt>
      <trkpt lat="46.43615" lon="4.93172">
        <ele>191.2</ele>
        <time>2024-09-18T14:56:15Z</time>
      </trkpt>
      <trkpt lat="46.43614" lon="4.93173">
        <ele>191.4</ele>
        <time>2024-09-18T14:56:16Z</time>
      </trkpt>
      <trkpt lat="46.4361" lon="4.93177">
        <ele>191.4</ele>
        <time>2024-09-18T14:56:17Z</time>
      </trkpt>
      <trkpt lat="46.43609" lon="4.93179">
        <ele>191.4</ele>
        <time>2024-09-18T14:56:18Z</time>
      </trkpt>
      <trkpt lat="46.43607" lon="4.93183">
        <ele>191.6</ele>
        <time>2024-09-18T14:56:19Z</time>
      </trkpt>
      <trkpt lat="46.43606" lon="4.93187">
        <ele>191.6</ele>
        <time>2024-09-18T14:56:20Z</time>
      </trkpt>
      <trkpt lat="46.43606" lon="4.93192">
        <ele>191.6</ele>
        <time>2024-09-18T14:56:21Z</time>
      </trkpt>
      <trkpt lat="46.43607" lon="4.93198">
        <ele>191.6</ele>
        <time>2024-09-18T14:56:22Z</time>
      </trkpt>
      <trkpt lat="46.43607" lon="4.93203">
        <ele>191.6</ele>
        <time>2024-09-18T14:56:23Z</time>
      </trkpt>
      <trkpt lat="46.43608" lon="4.93208">
        <ele>192</ele>
        <time>2024-09-18T14:56:24Z</time>
      </trkpt>
      <trkpt lat="46.43609" lon="4.93212">
        <ele>192</ele>
        <time>2024-09-18T14:56:25Z</time>
      </trkpt>
      <trkpt lat="46.4361" lon="4.93217">
        <ele>192.2</ele>
        <time>2024-09-18T14:56:26Z</time>
      </trkpt>
      <trkpt lat="46.43611" lon="4.93221">
        <ele>192.2</ele>
        <time>2024-09-18T14:56:27Z</time>
      </trkpt>
      <trkpt lat="46.43611" lon="4.93225">
        <ele>192.2</ele>
        <time>2024-09-18T14:56:28Z</time>
      </trkpt>
      <trkpt lat="46.43612" lon="4.9323">
        <ele>192.2</ele>
        <time>2024-09-18T14:56:29Z</time>
      </trkpt>
      <trkpt lat="46.43611" lon="4.93233">
        <ele>192.2</ele>
        <time>2024-09-18T14:56:30Z</time>
      </trkpt>
      <trkpt lat="46.43611" lon="4.93236">
        <ele>192.2</ele>
        <time>2024-09-18T14:56:31Z</time>
      </trkpt>
      <trkpt lat="46.4361" lon="4.93238">
        <ele>192.2</ele>
        <time>2024-09-18T14:56:32Z</time>
      </trkpt>
      <trkpt lat="46.4361" lon="4.93239">
        <ele>192.2</ele>
        <time>2024-09-18T14:56:33Z</time>
      </trkpt>
      <trkpt lat="46.4361" lon="4.93239">
        <ele>192</ele>
        <time>2024-09-18T14:56:34Z</time>
      </trkpt>
      <trkpt lat="46.4361" lon="4.93239">
        <ele>192</ele>
        <time>2024-09-18T14:56:35Z</time>
      </trkpt>
      <trkpt lat="46.43606" lon="4.93243">
        <ele>192</ele>
        <time>2024-09-18T14:56:42Z</time>
      </trkpt>
      <trkpt lat="46.43605" lon="4.93245">
        <ele>192.2</ele>
        <time>2024-09-18T14:56:43Z</time>
      </trkpt>
      <trkpt lat="46.43603" lon="4.93246">
        <ele>192.2</ele>
        <time>2024-09-18T14:56:44Z</time>
      </trkpt>
      <trkpt lat="46.43601" lon="4.93248">
        <ele>192.2</ele>
        <time>2024-09-18T14:56:45Z</time>
      </trkpt>
      <trkpt lat="46.43599" lon="4.9325">
        <ele>192.2</ele>
        <time>2024-09-18T14:56:46Z</time>
      </trkpt>
      <trkpt lat="46.43596" lon="4.93252">
        <ele>192</ele>
        <time>2024-09-18T14:56:47Z</time>
      </trkpt>
      <trkpt lat="46.43593" lon="4.93255">
        <ele>192</ele>
        <time>2024-09-18T14:56:48Z</time>
      </trkpt>
      <trkpt lat="46.4359" lon="4.93257">
        <ele>192</ele>
        <time>2024-09-18T14:56:49Z</time>
      </trkpt>
      <trkpt lat="46.43585" lon="4.93262">
        <ele>192</ele>
        <time>2024-09-18T14:56:50Z</time>
      </trkpt>
      <trkpt lat="46.43583" lon="4.93263">
        <ele>192</ele>
        <time>2024-09-18T14:56:51Z</time>
      </trkpt>
      <trkpt lat="46.43578" lon="4.93268">
        <ele>192</ele>
        <time>2024-09-18T14:56:52Z</time>
      </trkpt>
      <trkpt lat="46.43576" lon="4.9327">
        <ele>192</ele>
        <time>2024-09-18T14:56:53Z</time>
      </trkpt>
      <trkpt lat="46.4357" lon="4.93275">
        <ele>192</ele>
        <time>2024-09-18T14:56:54Z</time>
      </trkpt>
      <trkpt lat="46.43568" lon="4.93277">
        <ele>192</ele>
        <time>2024-09-18T14:56:55Z</time>
      </trkpt>
      <trkpt lat="46.43563" lon="4.93283">
        <ele>191.6</ele>
        <time>2024-09-18T14:56:56Z</time>
      </trkpt>
      <trkpt lat="46.43561" lon="4.93285">
        <ele>191.6</ele>
        <time>2024-09-18T14:56:57Z</time>
      </trkpt>
      <trkpt lat="46.43555" lon="4.93291">
        <ele>191.6</ele>
        <time>2024-09-18T14:56:58Z</time>
      </trkpt>
      <trkpt lat="46.43554" lon="4.93293">
        <ele>191.6</ele>
        <time>2024-09-18T14:56:59Z</time>
      </trkpt>
      <trkpt lat="46.43548" lon="4.933">
        <ele>191.6</ele>
        <time>2024-09-18T14:57:00Z</time>
      </trkpt>
      <trkpt lat="46.43547" lon="4.93302">
        <ele>191.4</ele>
        <time>2024-09-18T14:57:01Z</time>
      </trkpt>
      <trkpt lat="46.43542" lon="4.93309">
        <ele>191.4</ele>
        <time>2024-09-18T14:57:02Z</time>
      </trkpt>
      <trkpt lat="46.4354" lon="4.93311">
        <ele>191.4</ele>
        <time>2024-09-18T14:57:03Z</time>
      </trkpt>
      <trkpt lat="46.43535" lon="4.93317">
        <ele>191.4</ele>
        <time>2024-09-18T14:57:04Z</time>
      </trkpt>
      <trkpt lat="46.43534" lon="4.9332">
        <ele>191.2</ele>
        <time>2024-09-18T14:57:05Z</time>
      </trkpt>
      <trkpt lat="46.43531" lon="4.93324">
        <ele>191.2</ele>
        <time>2024-09-18T14:57:06Z</time>
      </trkpt>
      <trkpt lat="46.43528" lon="4.93328">
        <ele>191.2</ele>
        <time>2024-09-18T14:57:07Z</time>
      </trkpt>
      <trkpt lat="46.43525" lon="4.93333">
        <ele>191.2</ele>
        <time>2024-09-18T14:57:08Z</time>
      </trkpt>
      <trkpt lat="46.43522" lon="4.93337">
        <ele>191</ele>
        <time>2024-09-18T14:57:09Z</time>
      </trkpt>
      <trkpt lat="46.4352" lon="4.93341">
        <ele>191</ele>
        <time>2024-09-18T14:57:10Z</time>
      </trkpt>
      <trkpt lat="46.43517" lon="4.93346">
        <ele>191</ele>
        <time>2024-09-18T14:57:11Z</time>
      </trkpt>
      <trkpt lat="46.43514" lon="4.93351">
        <ele>191</ele>
        <time>2024-09-18T14:57:12Z</time>
      </trkpt>
      <trkpt lat="46.43511" lon="4.93356">
        <ele>191</ele>
        <time>2024-09-18T14:57:13Z</time>
      </trkpt>
      <trkpt lat="46.43508" lon="4.93361">
        <ele>191.2</ele>
        <time>2024-09-18T14:57:14Z</time>
      </trkpt>
      <trkpt lat="46.43506" lon="4.93366">
        <ele>191.2</ele>
        <time>2024-09-18T14:57:15Z</time>
      </trkpt>
      <trkpt lat="46.43503" lon="4.93371">
        <ele>191.2</ele>
        <time>2024-09-18T14:57:16Z</time>
      </trkpt>
      <trkpt lat="46.435" lon="4.93376">
        <ele>191.2</ele>
        <time>2024-09-18T14:57:17Z</time>
      </trkpt>
      <trkpt lat="46.43497" lon="4.9338">
        <ele>191.2</ele>
        <time>2024-09-18T14:57:18Z</time>
      </trkpt>
      <trkpt lat="46.43494" lon="4.93385">
        <ele>191.2</ele>
        <time>2024-09-18T14:57:19Z</time>
      </trkpt>
      <trkpt lat="46.43492" lon="4.9339">
        <ele>191.2</ele>
        <time>2024-09-18T14:57:20Z</time>
      </trkpt>
      <trkpt lat="46.43489" lon="4.93395">
        <ele>191.2</ele>
        <time>2024-09-18T14:57:21Z</time>
      </trkpt>
      <trkpt lat="46.43486" lon="4.934">
        <ele>191.2</ele>
        <time>2024-09-18T14:57:22Z</time>
      </trkpt>
      <trkpt lat="46.43484" lon="4.93405">
        <ele>191.2</ele>
        <time>2024-09-18T14:57:23Z</time>
      </trkpt>
      <trkpt lat="46.43481" lon="4.9341">
        <ele>191.2</ele>
        <time>2024-09-18T14:57:24Z</time>
      </trkpt>
      <trkpt lat="46.43479" lon="4.93415">
        <ele>191.2</ele>
        <time>2024-09-18T14:57:25Z</time>
      </trkpt>
      <trkpt lat="46.43476" lon="4.9342">
        <ele>191.2</ele>
        <time>2024-09-18T14:57:26Z</time>
      </trkpt>
      <trkpt lat="46.43474" lon="4.93426">
        <ele>191.2</ele>
        <time>2024-09-18T14:57:27Z</time>
      </trkpt>
      <trkpt lat="46.43471" lon="4.93431">
        <ele>191.2</ele>
        <time>2024-09-18T14:57:28Z</time>
      </trkpt>
      <trkpt lat="46.43469" lon="4.93437">
        <ele>191.2</ele>
        <time>2024-09-18T14:57:29Z</time>
      </trkpt>
      <trkpt lat="46.43467" lon="4.93442">
        <ele>191.2</ele>
        <time>2024-09-18T14:57:30Z</time>
      </trkpt>
      <trkpt lat="46.43464" lon="4.93448">
        <ele>191.4</ele>
        <time>2024-09-18T14:57:31Z</time>
      </trkpt>
      <trkpt lat="46.43461" lon="4.93457">
        <ele>191.4</ele>
        <time>2024-09-18T14:57:32Z</time>
      </trkpt>
      <trkpt lat="46.4346" lon="4.9346">
        <ele>191.2</ele>
        <time>2024-09-18T14:57:33Z</time>
      </trkpt>
      <trkpt lat="46.43457" lon="4.93468">
        <ele>191.2</ele>
        <time>2024-09-18T14:57:34Z</time>
      </trkpt>
      <trkpt lat="46.43455" lon="4.93471">
        <ele>191.2</ele>
        <time>2024-09-18T14:57:35Z</time>
      </trkpt>
      <trkpt lat="46.43451" lon="4.9348">
        <ele>191.4</ele>
        <time>2024-09-18T14:57:36Z</time>
      </trkpt>
      <trkpt lat="46.4345" lon="4.93483">
        <ele>191.4</ele>
        <time>2024-09-18T14:57:37Z</time>
      </trkpt>
      <trkpt lat="46.43447" lon="4.93492">
        <ele>191.4</ele>
        <time>2024-09-18T14:57:38Z</time>
      </trkpt>
      <trkpt lat="46.43446" lon="4.93495">
        <ele>191.4</ele>
        <time>2024-09-18T14:57:39Z</time>
      </trkpt>
      <trkpt lat="46.43442" lon="4.93503">
        <ele>191.4</ele>
        <time>2024-09-18T14:57:40Z</time>
      </trkpt>
      <trkpt lat="46.43441" lon="4.93506">
        <ele>191.4</ele>
        <time>2024-09-18T14:57:41Z</time>
      </trkpt>
      <trkpt lat="46.43438" lon="4.93514">
        <ele>191.2</ele>
        <time>2024-09-18T14:57:42Z</time>
      </trkpt>
      <trkpt lat="46.43437" lon="4.93517">
        <ele>191.2</ele>
        <time>2024-09-18T14:57:43Z</time>
      </trkpt>
      <trkpt lat="46.43434" lon="4.93525">
        <ele>190.8</ele>
        <time>2024-09-18T14:57:44Z</time>
      </trkpt>
      <trkpt lat="46.43433" lon="4.93527">
        <ele>191</ele>
        <time>2024-09-18T14:57:45Z</time>
      </trkpt>
      <trkpt lat="46.43429" lon="4.93535">
        <ele>191</ele>
        <time>2024-09-18T14:57:46Z</time>
      </trkpt>
      <trkpt lat="46.43428" lon="4.93537">
        <ele>191</ele>
        <time>2024-09-18T14:57:47Z</time>
      </trkpt>
      <trkpt lat="46.43425" lon="4.93545">
        <ele>190.6</ele>
        <time>2024-09-18T14:57:48Z</time>
      </trkpt>
      <trkpt lat="46.43424" lon="4.93547">
        <ele>190.6</ele>
        <time>2024-09-18T14:57:49Z</time>
      </trkpt>
      <trkpt lat="46.43421" lon="4.93551">
        <ele>190.6</ele>
        <time>2024-09-18T14:57:50Z</time>
      </trkpt>
      <trkpt lat="46.43419" lon="4.93554">
        <ele>190.6</ele>
        <time>2024-09-18T14:57:51Z</time>
      </trkpt>
      <trkpt lat="46.43416" lon="4.93557">
        <ele>190.6</ele>
        <time>2024-09-18T14:57:52Z</time>
      </trkpt>
      <trkpt lat="46.43414" lon="4.9356">
        <ele>190.4</ele>
        <time>2024-09-18T14:57:53Z</time>
      </trkpt>
      <trkpt lat="46.43412" lon="4.93562">
        <ele>190.2</ele>
        <time>2024-09-18T14:57:54Z</time>
      </trkpt>
      <trkpt lat="46.4341" lon="4.93565">
        <ele>190.2</ele>
        <time>2024-09-18T14:57:55Z</time>
      </trkpt>
      <trkpt lat="46.43409" lon="4.93567">
        <ele>190.2</ele>
        <time>2024-09-18T14:57:56Z</time>
      </trkpt>
      <trkpt lat="46.43408" lon="4.93568">
        <ele>190.2</ele>
        <time>2024-09-18T14:57:57Z</time>
      </trkpt>
      <trkpt lat="46.43407" lon="4.93569">
        <ele>190.4</ele>
        <time>2024-09-18T14:57:58Z</time>
      </trkpt>
      <trkpt lat="46.43407" lon="4.9357">
        <ele>190.4</ele>
        <time>2024-09-18T14:57:59Z</time>
      </trkpt>
      <trkpt lat="46.43407" lon="4.9357">
        <ele>190.4</ele>
        <time>2024-09-18T14:58:00Z</time>
      </trkpt>
      <trkpt lat="46.43404" lon="4.93566">
        <ele>190.4</ele>
        <time>2024-09-18T14:58:40Z</time>
      </trkpt>
      <trkpt lat="46.43403" lon="4.93564">
        <ele>190.2</ele>
        <time>2024-09-18T14:58:41Z</time>
      </trkpt>
      <trkpt lat="46.43401" lon="4.93561">
        <ele>190.2</ele>
        <time>2024-09-18T14:58:42Z</time>
      </trkpt>
      <trkpt lat="46.43398" lon="4.93558">
        <ele>190.2</ele>
        <time>2024-09-18T14:58:43Z</time>
      </trkpt>
      <trkpt lat="46.43397" lon="4.93556">
        <ele>190.2</ele>
        <time>2024-09-18T14:58:44Z</time>
      </trkpt>
      <trkpt lat="46.43395" lon="4.93553">
        <ele>190.2</ele>
        <time>2024-09-18T14:58:45Z</time>
      </trkpt>
      <trkpt lat="46.43392" lon="4.93551">
        <ele>190.2</ele>
        <time>2024-09-18T14:58:46Z</time>
      </trkpt>
      <trkpt lat="46.4339" lon="4.93549">
        <ele>190.2</ele>
        <time>2024-09-18T14:58:47Z</time>
      </trkpt>
      <trkpt lat="46.43388" lon="4.93547">
        <ele>190.2</ele>
        <time>2024-09-18T14:58:48Z</time>
      </trkpt>
      <trkpt lat="46.43386" lon="4.93545">
        <ele>190.2</ele>
        <time>2024-09-18T14:58:49Z</time>
      </trkpt>
      <trkpt lat="46.43383" lon="4.93544">
        <ele>190</ele>
        <time>2024-09-18T14:58:50Z</time>
      </trkpt>
      <trkpt lat="46.4338" lon="4.93544">
        <ele>190</ele>
        <time>2024-09-18T14:58:51Z</time>
      </trkpt>
      <trkpt lat="46.43378" lon="4.93546">
        <ele>190</ele>
        <time>2024-09-18T14:58:52Z</time>
      </trkpt>
      <trkpt lat="46.43376" lon="4.93547">
        <ele>189.6</ele>
        <time>2024-09-18T14:58:53Z</time>
      </trkpt>
      <trkpt lat="46.43374" lon="4.9355">
        <ele>189.6</ele>
        <time>2024-09-18T14:58:54Z</time>
      </trkpt>
      <trkpt lat="46.43373" lon="4.93552">
        <ele>189.6</ele>
        <time>2024-09-18T14:58:55Z</time>
      </trkpt>
      <trkpt lat="46.43372" lon="4.93553">
        <ele>189.6</ele>
        <time>2024-09-18T14:58:56Z</time>
      </trkpt>
      <trkpt lat="46.43371" lon="4.93555">
        <ele>189.8</ele>
        <time>2024-09-18T14:58:57Z</time>
      </trkpt>
      <trkpt lat="46.4337" lon="4.93556">
        <ele>189.6</ele>
        <time>2024-09-18T14:58:58Z</time>
      </trkpt>
      <trkpt lat="46.43369" lon="4.93557">
        <ele>189.6</ele>
        <time>2024-09-18T14:58:59Z</time>
      </trkpt>
      <trkpt lat="46.43368" lon="4.93559">
        <ele>189.4</ele>
        <time>2024-09-18T14:59:06Z</time>
      </trkpt>
      <trkpt lat="46.43367" lon="4.9356">
        <ele>189.6</ele>
        <time>2024-09-18T14:59:07Z</time>
      </trkpt>
      <trkpt lat="46.43366" lon="4.93561">
        <ele>189.6</ele>
        <time>2024-09-18T14:59:08Z</time>
      </trkpt>
      <trkpt lat="46.43365" lon="4.93563">
        <ele>189.6</ele>
        <time>2024-09-18T14:59:09Z</time>
      </trkpt>
      <trkpt lat="46.43363" lon="4.93565">
        <ele>189.6</ele>
        <time>2024-09-18T14:59:10Z</time>
      </trkpt>
      <trkpt lat="46.43362" lon="4.93566">
        <ele>189.6</ele>
        <time>2024-09-18T14:59:11Z</time>
      </trkpt>
      <trkpt lat="46.4336" lon="4.93568">
        <ele>189.6</ele>
        <time>2024-09-18T14:59:12Z</time>
      </trkpt>
      <trkpt lat="46.43359" lon="4.93571">
        <ele>189.6</ele>
        <time>2024-09-18T14:59:13Z</time>
      </trkpt>
      <trkpt lat="46.43358" lon="4.93573">
        <ele>189.6</ele>
        <time>2024-09-18T14:59:14Z</time>
      </trkpt>
      <trkpt lat="46.43356" lon="4.93575">
        <ele>190</ele>
        <time>2024-09-18T14:59:15Z</time>
      </trkpt>
      <trkpt lat="46.43355" lon="4.93576">
        <ele>190</ele>
        <time>2024-09-18T14:59:16Z</time>
      </trkpt>
      <trkpt lat="46.43354" lon="4.93576">
        <ele>190</ele>
        <time>2024-09-18T14:59:17Z</time>
      </trkpt>
      <trkpt lat="46.43353" lon="4.93574">
        <ele>190</ele>
        <time>2024-09-18T14:59:18Z</time>
      </trkpt>
      <trkpt lat="46.43353" lon="4.93572">
        <ele>189.8</ele>
        <time>2024-09-18T14:59:19Z</time>
      </trkpt>
      <trkpt lat="46.43354" lon="4.93571">
        <ele>189.8</ele>
        <time>2024-09-18T14:59:20Z</time>
      </trkpt>
      <trkpt lat="46.43354" lon="4.93571">
        <ele>189.8</ele>
        <time>2024-09-18T14:59:21Z</time>
      </trkpt>
      <trkpt lat="46.43354" lon="4.93571">
        <ele>189.8</ele>
        <time>2024-09-18T14:59:22Z</time>
      </trkpt>
      <trkpt lat="46.4336" lon="4.93566">
        <ele>189.8</ele>
        <time>2024-09-18T15:00:15Z</time>
      </trkpt>
      <trkpt lat="46.43362" lon="4.93563">
        <ele>190</ele>
        <time>2024-09-18T15:00:16Z</time>
      </trkpt>
      <trkpt lat="46.43364" lon="4.93561">
        <ele>190</ele>
        <time>2024-09-18T15:00:17Z</time>
      </trkpt>
      <trkpt lat="46.43365" lon="4.93559">
        <ele>190</ele>
        <time>2024-09-18T15:00:18Z</time>
      </trkpt>
      <trkpt lat="46.43367" lon="4.93557">
        <ele>190.4</ele>
        <time>2024-09-18T15:00:19Z</time>
      </trkpt>
      <trkpt lat="46.43367" lon="4.93555">
        <ele>190.6</ele>
        <time>2024-09-18T15:00:20Z</time>
      </trkpt>
      <trkpt lat="46.43367" lon="4.93552">
        <ele>190.6</ele>
        <time>2024-09-18T15:00:21Z</time>
      </trkpt>
      <trkpt lat="46.43366" lon="4.9355">
        <ele>190.6</ele>
        <time>2024-09-18T15:00:22Z</time>
      </trkpt>
      <trkpt lat="46.43365" lon="4.93547">
        <ele>190.6</ele>
        <time>2024-09-18T15:00:23Z</time>
      </trkpt>
      <trkpt lat="46.43363" lon="4.93545">
        <ele>190.6</ele>
        <time>2024-09-18T15:00:24Z</time>
      </trkpt>
      <trkpt lat="46.43362" lon="4.93542">
        <ele>190.6</ele>
        <time>2024-09-18T15:00:25Z</time>
      </trkpt>
      <trkpt lat="46.43361" lon="4.9354">
        <ele>190.6</ele>
        <time>2024-09-18T15:00:26Z</time>
      </trkpt>
      <trkpt lat="46.4336" lon="4.93537">
        <ele>191.2</ele>
        <time>2024-09-18T15:00:27Z</time>
      </trkpt>
      <trkpt lat="46.43358" lon="4.93534">
        <ele>191.2</ele>
        <time>2024-09-18T15:00:28Z</time>
      </trkpt>
      <trkpt lat="46.43357" lon="4.9353">
        <ele>191.4</ele>
        <time>2024-09-18T15:00:29Z</time>
      </trkpt>
      <trkpt lat="46.43357" lon="4.93528">
        <ele>191.4</ele>
        <time>2024-09-18T15:00:30Z</time>
      </trkpt>
      <trkpt lat="46.43356" lon="4.93524">
        <ele>191.4</ele>
        <time>2024-09-18T15:00:31Z</time>
      </trkpt>
      <trkpt lat="46.43355" lon="4.93522">
        <ele>191.4</ele>
        <time>2024-09-18T15:00:32Z</time>
      </trkpt>
      <trkpt lat="46.43354" lon="4.93517">
        <ele>191.8</ele>
        <time>2024-09-18T15:00:33Z</time>
      </trkpt>
      <trkpt lat="46.43353" lon="4.93515">
        <ele>191.8</ele>
        <time>2024-09-18T15:00:34Z</time>
      </trkpt>
      <trkpt lat="46.43352" lon="4.93511">
        <ele>191.8</ele>
        <time>2024-09-18T15:00:35Z</time>
      </trkpt>
      <trkpt lat="46.43351" lon="4.93509">
        <ele>191.8</ele>
        <time>2024-09-18T15:00:36Z</time>
      </trkpt>
      <trkpt lat="46.43349" lon="4.93504">
        <ele>192</ele>
        <time>2024-09-18T15:00:37Z</time>
      </trkpt>
      <trkpt lat="46.43349" lon="4.93503">
        <ele>192</ele>
        <time>2024-09-18T15:00:38Z</time>
      </trkpt>
      <trkpt lat="46.43347" lon="4.93497">
        <ele>192</ele>
        <time>2024-09-18T15:00:39Z</time>
      </trkpt>
      <trkpt lat="46.43346" lon="4.93495">
        <ele>192</ele>
        <time>2024-09-18T15:00:40Z</time>
      </trkpt>
      <trkpt lat="46.43344" lon="4.93489">
        <ele>192</ele>
        <time>2024-09-18T15:00:41Z</time>
      </trkpt>
      <trkpt lat="46.43343" lon="4.93487">
        <ele>192</ele>
        <time>2024-09-18T15:00:42Z</time>
      </trkpt>
      <trkpt lat="46.43344" lon="4.93484">
        <ele>192</ele>
        <time>2024-09-18T15:00:43Z</time>
      </trkpt>
      <trkpt lat="46.43345" lon="4.9348">
        <ele>192</ele>
        <time>2024-09-18T15:00:44Z</time>
      </trkpt>
      <trkpt lat="46.43347" lon="4.93477">
        <ele>191.6</ele>
        <time>2024-09-18T15:00:45Z</time>
      </trkpt>
      <trkpt lat="46.43349" lon="4.93474">
        <ele>191.6</ele>
        <time>2024-09-18T15:00:46Z</time>
      </trkpt>
      <trkpt lat="46.43351" lon="4.93471">
        <ele>191.8</ele>
        <time>2024-09-18T15:00:47Z</time>
      </trkpt>
      <trkpt lat="46.43354" lon="4.93468">
        <ele>191.8</ele>
        <time>2024-09-18T15:00:48Z</time>
      </trkpt>
      <trkpt lat="46.43355" lon="4.93464">
        <ele>191.6</ele>
        <time>2024-09-18T15:00:49Z</time>
      </trkpt>
      <trkpt lat="46.43357" lon="4.9346">
        <ele>191.2</ele>
        <time>2024-09-18T15:00:50Z</time>
      </trkpt>
      <trkpt lat="46.43357" lon="4.93456">
        <ele>191.2</ele>
        <time>2024-09-18T15:00:51Z</time>
      </trkpt>
      <trkpt lat="46.43357" lon="4.93452">
        <ele>191.2</ele>
        <time>2024-09-18T15:00:52Z</time>
      </trkpt>
      <trkpt lat="46.43356" lon="4.93448">
        <ele>191.2</ele>
        <time>2024-09-18T15:00:53Z</time>
      </trkpt>
      <trkpt lat="46.43354" lon="4.93444">
        <ele>191.2</ele>
        <time>2024-09-18T15:00:54Z</time>
      </trkpt>
      <trkpt lat="46.43352" lon="4.9344">
        <ele>190.2</ele>
        <time>2024-09-18T15:00:55Z</time>
      </trkpt>
      <trkpt lat="46.4335" lon="4.93435">
        <ele>189.8</ele>
        <time>2024-09-18T15:00:56Z</time>
      </trkpt>
      <trkpt lat="46.43349" lon="4.93431">
        <ele>189.8</ele>
        <time>2024-09-18T15:00:57Z</time>
      </trkpt>
      <trkpt lat="46.43347" lon="4.93426">
        <ele>189.8</ele>
        <time>2024-09-18T15:00:58Z</time>
      </trkpt>
      <trkpt lat="46.43345" lon="4.93423">
        <ele>189.8</ele>
        <time>2024-09-18T15:00:59Z</time>
      </trkpt>
      <trkpt lat="46.43343" lon="4.93419">
        <ele>189.6</ele>
        <time>2024-09-18T15:01:00Z</time>
      </trkpt>
      <trkpt lat="46.43341" lon="4.93416">
        <ele>189.6</ele>
        <time>2024-09-18T15:01:01Z</time>
      </trkpt>
      <trkpt lat="46.43339" lon="4.93412">
        <ele>189.6</ele>
        <time>2024-09-18T15:01:02Z</time>
      </trkpt>
      <trkpt lat="46.43336" lon="4.93409">
        <ele>189.6</ele>
        <time>2024-09-18T15:01:03Z</time>
      </trkpt>
      <trkpt lat="46.43334" lon="4.93406">
        <ele>189.6</ele>
        <time>2024-09-18T15:01:04Z</time>
      </trkpt>
      <trkpt lat="46.43332" lon="4.93403">
        <ele>189.4</ele>
        <time>2024-09-18T15:01:05Z</time>
      </trkpt>
      <trkpt lat="46.4333" lon="4.93401">
        <ele>189.4</ele>
        <time>2024-09-18T15:01:06Z</time>
      </trkpt>
      <trkpt lat="46.43327" lon="4.93399">
        <ele>189.4</ele>
        <time>2024-09-18T15:01:07Z</time>
      </trkpt>
      <trkpt lat="46.43325" lon="4.93395">
        <ele>189.6</ele>
        <time>2024-09-18T15:01:08Z</time>
      </trkpt>
      <trkpt lat="46.43324" lon="4.93393">
        <ele>189.6</ele>
        <time>2024-09-18T15:01:09Z</time>
      </trkpt>
      <trkpt lat="46.43322" lon="4.93389">
        <ele>189.6</ele>
        <time>2024-09-18T15:01:10Z</time>
      </trkpt>
      <trkpt lat="46.43321" lon="4.93388">
        <ele>189.6</ele>
        <time>2024-09-18T15:01:11Z</time>
      </trkpt>
      <trkpt lat="46.4332" lon="4.93386">
        <ele>189.6</ele>
        <time>2024-09-18T15:01:12Z</time>
      </trkpt>
      <trkpt lat="46.43318" lon="4.93384">
        <ele>189.4</ele>
        <time>2024-09-18T15:01:13Z</time>
      </trkpt>
      <trkpt lat="46.43316" lon="4.93382">
        <ele>189.4</ele>
        <time>2024-09-18T15:01:14Z</time>
      </trkpt>
      <trkpt lat="46.43315" lon="4.9338">
        <ele>189.4</ele>
        <time>2024-09-18T15:01:15Z</time>
      </trkpt>
      <trkpt lat="46.43313" lon="4.93378">
        <ele>189.4</ele>
        <time>2024-09-18T15:01:16Z</time>
      </trkpt>
      <trkpt lat="46.43312" lon="4.93376">
        <ele>189.4</ele>
        <time>2024-09-18T15:01:17Z</time>
      </trkpt>
      <trkpt lat="46.43311" lon="4.93375">
        <ele>189.2</ele>
        <time>2024-09-18T15:01:57Z</time>
      </trkpt>
      <trkpt lat="46.4331" lon="4.93373">
        <ele>189.2</ele>
        <time>2024-09-18T15:01:58Z</time>
      </trkpt>
      <trkpt lat="46.43308" lon="4.93371">
        <ele>189.2</ele>
        <time>2024-09-18T15:01:59Z</time>
      </trkpt>
      <trkpt lat="46.43306" lon="4.93364">
        <ele>189.2</ele>
        <time>2024-09-18T15:02:00Z</time>
      </trkpt>
      <trkpt lat="46.43305" lon="4.93362">
        <ele>189.2</ele>
        <time>2024-09-18T15:02:01Z</time>
      </trkpt>
      <trkpt lat="46.43304" lon="4.93357">
        <ele>189.2</ele>
        <time>2024-09-18T15:02:02Z</time>
      </trkpt>
      <trkpt lat="46.43302" lon="4.93352">
        <ele>189.2</ele>
        <time>2024-09-18T15:02:03Z</time>
      </trkpt>
      <trkpt lat="46.43301" lon="4.93347">
        <ele>189.2</ele>
        <time>2024-09-18T15:02:04Z</time>
      </trkpt>
      <trkpt lat="46.43299" lon="4.93343">
        <ele>189.4</ele>
        <time>2024-09-18T15:02:05Z</time>
      </trkpt>
      <trkpt lat="46.43297" lon="4.93339">
        <ele>189.4</ele>
        <time>2024-09-18T15:02:06Z</time>
      </trkpt>
      <trkpt lat="46.43296" lon="4.93334">
        <ele>189.4</ele>
        <time>2024-09-18T15:02:07Z</time>
      </trkpt>
      <trkpt lat="46.43296" lon="4.93329">
        <ele>189.4</ele>
        <time>2024-09-18T15:02:08Z</time>
      </trkpt>
      <trkpt lat="46.43295" lon="4.93324">
        <ele>189.4</ele>
        <time>2024-09-18T15:02:09Z</time>
      </trkpt>
      <trkpt lat="46.43296" lon="4.93319">
        <ele>189.4</ele>
        <time>2024-09-18T15:02:10Z</time>
      </trkpt>
      <trkpt lat="46.43295" lon="4.93313">
        <ele>189.4</ele>
        <time>2024-09-18T15:02:11Z</time>
      </trkpt>
      <trkpt lat="46.43295" lon="4.93308">
        <ele>189.4</ele>
        <time>2024-09-18T15:02:12Z</time>
      </trkpt>
      <trkpt lat="46.43295" lon="4.93302">
        <ele>189.4</ele>
        <time>2024-09-18T15:02:13Z</time>
      </trkpt>
      <trkpt lat="46.43294" lon="4.93297">
        <ele>189.4</ele>
        <time>2024-09-18T15:02:14Z</time>
      </trkpt>
      <trkpt lat="46.43293" lon="4.93292">
        <ele>189.6</ele>
        <time>2024-09-18T15:02:15Z</time>
      </trkpt>
      <trkpt lat="46.43292" lon="4.93287">
        <ele>189.6</ele>
        <time>2024-09-18T15:02:16Z</time>
      </trkpt>
      <trkpt lat="46.43291" lon="4.93284">
        <ele>189.6</ele>
        <time>2024-09-18T15:02:17Z</time>
      </trkpt>
      <trkpt lat="46.43289" lon="4.93281">
        <ele>189.6</ele>
        <time>2024-09-18T15:02:18Z</time>
      </trkpt>
      <trkpt lat="46.43288" lon="4.93281">
        <ele>189.2</ele>
        <time>2024-09-18T15:02:19Z</time>
      </trkpt>
      <trkpt lat="46.43287" lon="4.93281">
        <ele>189.2</ele>
        <time>2024-09-18T15:02:20Z</time>
      </trkpt>
      <trkpt lat="46.43285" lon="4.9328">
        <ele>189.2</ele>
        <time>2024-09-18T15:02:21Z</time>
      </trkpt>
      <trkpt lat="46.43284" lon="4.9328">
        <ele>189.2</ele>
        <time>2024-09-18T15:02:22Z</time>
      </trkpt>
      <trkpt lat="46.43283" lon="4.9328">
        <ele>188.8</ele>
        <time>2024-09-18T15:02:23Z</time>
      </trkpt>
      <trkpt lat="46.43282" lon="4.9328">
        <ele>188.8</ele>
        <time>2024-09-18T15:02:24Z</time>
      </trkpt>
      <trkpt lat="46.43281" lon="4.9328">
        <ele>189</ele>
        <time>2024-09-18T15:02:42Z</time>
      </trkpt>
      <trkpt lat="46.43279" lon="4.9328">
        <ele>189</ele>
        <time>2024-09-18T15:02:43Z</time>
      </trkpt>
      <trkpt lat="46.43278" lon="4.9328">
        <ele>188.8</ele>
        <time>2024-09-18T15:02:44Z</time>
      </trkpt>
      <trkpt lat="46.43274" lon="4.9328">
        <ele>188.8</ele>
        <time>2024-09-18T15:02:45Z</time>
      </trkpt>
      <trkpt lat="46.43272" lon="4.93281">
        <ele>188.8</ele>
        <time>2024-09-18T15:02:46Z</time>
      </trkpt>
      <trkpt lat="46.43268" lon="4.93283">
        <ele>188.8</ele>
        <time>2024-09-18T15:02:47Z</time>
      </trkpt>
      <trkpt lat="46.43266" lon="4.93284">
        <ele>188.8</ele>
        <time>2024-09-18T15:02:48Z</time>
      </trkpt>
      <trkpt lat="46.43263" lon="4.93286">
        <ele>188.8</ele>
        <time>2024-09-18T15:02:49Z</time>
      </trkpt>
      <trkpt lat="46.43259" lon="4.93288">
        <ele>189</ele>
        <time>2024-09-18T15:02:50Z</time>
      </trkpt>
      <trkpt lat="46.43257" lon="4.93289">
        <ele>189</ele>
        <time>2024-09-18T15:02:51Z</time>
      </trkpt>
      <trkpt lat="46.43254" lon="4.9329">
        <ele>189</ele>
        <time>2024-09-18T15:02:52Z</time>
      </trkpt>
      <trkpt lat="46.43251" lon="4.93292">
        <ele>189</ele>
        <time>2024-09-18T15:02:53Z</time>
      </trkpt>
      <trkpt lat="46.43246" lon="4.93294">
        <ele>189</ele>
        <time>2024-09-18T15:02:54Z</time>
      </trkpt>
      <trkpt lat="46.43244" lon="4.93295">
        <ele>189</ele>
        <time>2024-09-18T15:02:55Z</time>
      </trkpt>
      <trkpt lat="46.43238" lon="4.93298">
        <ele>189</ele>
        <time>2024-09-18T15:02:56Z</time>
      </trkpt>
      <trkpt lat="46.43236" lon="4.93299">
        <ele>189</ele>
        <time>2024-09-18T15:02:57Z</time>
      </trkpt>
      <trkpt lat="46.4323" lon="4.93303">
        <ele>189</ele>
        <time>2024-09-18T15:02:58Z</time>
      </trkpt>
      <trkpt lat="46.43228" lon="4.93304">
        <ele>188.8</ele>
        <time>2024-09-18T15:02:59Z</time>
      </trkpt>
      <trkpt lat="46.43225" lon="4.93306">
        <ele>188.8</ele>
        <time>2024-09-18T15:03:00Z</time>
      </trkpt>
      <trkpt lat="46.43221" lon="4.93308">
        <ele>188.8</ele>
        <time>2024-09-18T15:03:01Z</time>
      </trkpt>
      <trkpt lat="46.43217" lon="4.93309">
        <ele>189</ele>
        <time>2024-09-18T15:03:02Z</time>
      </trkpt>
      <trkpt lat="46.43214" lon="4.93309">
        <ele>189</ele>
        <time>2024-09-18T15:03:03Z</time>
      </trkpt>
      <trkpt lat="46.4321" lon="4.93309">
        <ele>189.2</ele>
        <time>2024-09-18T15:03:04Z</time>
      </trkpt>
      <trkpt lat="46.43207" lon="4.93306">
        <ele>189.2</ele>
        <time>2024-09-18T15:03:05Z</time>
      </trkpt>
      <trkpt lat="46.43205" lon="4.93302">
        <ele>189.2</ele>
        <time>2024-09-18T15:03:06Z</time>
      </trkpt>
      <trkpt lat="46.43203" lon="4.93298">
        <ele>189.2</ele>
        <time>2024-09-18T15:03:07Z</time>
      </trkpt>
      <trkpt lat="46.43201" lon="4.93294">
        <ele>189.2</ele>
        <time>2024-09-18T15:03:08Z</time>
      </trkpt>
      <trkpt lat="46.432" lon="4.93289">
        <ele>189.2</ele>
        <time>2024-09-18T15:03:09Z</time>
      </trkpt>
      <trkpt lat="46.43199" lon="4.93284">
        <ele>189.2</ele>
        <time>2024-09-18T15:03:10Z</time>
      </trkpt>
      <trkpt lat="46.43197" lon="4.93278">
        <ele>189.2</ele>
        <time>2024-09-18T15:03:11Z</time>
      </trkpt>
      <trkpt lat="46.43196" lon="4.93273">
        <ele>189.2</ele>
        <time>2024-09-18T15:03:12Z</time>
      </trkpt>
      <trkpt lat="46.43195" lon="4.93268">
        <ele>189.2</ele>
        <time>2024-09-18T15:03:13Z</time>
      </trkpt>
      <trkpt lat="46.43194" lon="4.93263">
        <ele>189.6</ele>
        <time>2024-09-18T15:03:14Z</time>
      </trkpt>
      <trkpt lat="46.43192" lon="4.93258">
        <ele>189.6</ele>
        <time>2024-09-18T15:03:15Z</time>
      </trkpt>
      <trkpt lat="46.43191" lon="4.93252">
        <ele>189.6</ele>
        <time>2024-09-18T15:03:16Z</time>
      </trkpt>
      <trkpt lat="46.43189" lon="4.93247">
        <ele>189.6</ele>
        <time>2024-09-18T15:03:17Z</time>
      </trkpt>
      <trkpt lat="46.43187" lon="4.93242">
        <ele>189.4</ele>
        <time>2024-09-18T15:03:18Z</time>
      </trkpt>
      <trkpt lat="46.43185" lon="4.93237">
        <ele>189.4</ele>
        <time>2024-09-18T15:03:19Z</time>
      </trkpt>
      <trkpt lat="46.43182" lon="4.93233">
        <ele>189.4</ele>
        <time>2024-09-18T15:03:20Z</time>
      </trkpt>
      <trkpt lat="46.43179" lon="4.93229">
        <ele>190</ele>
        <time>2024-09-18T15:03:21Z</time>
      </trkpt>
      <trkpt lat="46.43176" lon="4.93226">
        <ele>190.2</ele>
        <time>2024-09-18T15:03:22Z</time>
      </trkpt>
      <trkpt lat="46.43173" lon="4.93222">
        <ele>190.2</ele>
        <time>2024-09-18T15:03:23Z</time>
      </trkpt>
      <trkpt lat="46.4317" lon="4.93219">
        <ele>190.2</ele>
        <time>2024-09-18T15:03:24Z</time>
      </trkpt>
      <trkpt lat="46.43169" lon="4.93218">
        <ele>190.2</ele>
        <time>2024-09-18T15:03:25Z</time>
      </trkpt>
      <trkpt lat="46.43167" lon="4.93214">
        <ele>190.2</ele>
        <time>2024-09-18T15:03:26Z</time>
      </trkpt>
      <trkpt lat="46.43166" lon="4.93213">
        <ele>190.2</ele>
        <time>2024-09-18T15:03:27Z</time>
      </trkpt>
      <trkpt lat="46.43162" lon="4.93209">
        <ele>190.2</ele>
        <time>2024-09-18T15:03:28Z</time>
      </trkpt>
      <trkpt lat="46.43161" lon="4.93208">
        <ele>190.2</ele>
        <time>2024-09-18T15:03:29Z</time>
      </trkpt>
      <trkpt lat="46.43158" lon="4.93203">
        <ele>190.4</ele>
        <time>2024-09-18T15:03:30Z</time>
      </trkpt>
      <trkpt lat="46.43157" lon="4.93201">
        <ele>190.4</ele>
        <time>2024-09-18T15:03:31Z</time>
      </trkpt>
      <trkpt lat="46.43154" lon="4.93194">
        <ele>190.4</ele>
        <time>2024-09-18T15:03:32Z</time>
      </trkpt>
      <trkpt lat="46.43153" lon="4.93192">
        <ele>190.4</ele>
        <time>2024-09-18T15:03:33Z</time>
      </trkpt>
      <trkpt lat="46.43151" lon="4.93185">
        <ele>190.4</ele>
        <time>2024-09-18T15:03:34Z</time>
      </trkpt>
      <trkpt lat="46.4315" lon="4.93183">
        <ele>190.4</ele>
        <time>2024-09-18T15:03:35Z</time>
      </trkpt>
      <trkpt lat="46.43148" lon="4.93175">
        <ele>190.4</ele>
        <time>2024-09-18T15:03:36Z</time>
      </trkpt>
      <trkpt lat="46.43147" lon="4.93173">
        <ele>190.4</ele>
        <time>2024-09-18T15:03:37Z</time>
      </trkpt>
      <trkpt lat="46.43146" lon="4.93167">
        <ele>190.6</ele>
        <time>2024-09-18T15:03:38Z</time>
      </trkpt>
      <trkpt lat="46.43146" lon="4.93165">
        <ele>190.8</ele>
        <time>2024-09-18T15:03:39Z</time>
      </trkpt>
      <trkpt lat="46.43145" lon="4.93163">
        <ele>190.8</ele>
        <time>2024-09-18T15:03:40Z</time>
      </trkpt>
      <trkpt lat="46.43143" lon="4.93161">
        <ele>190.8</ele>
        <time>2024-09-18T15:03:41Z</time>
      </trkpt>
      <trkpt lat="46.43142" lon="4.93162">
        <ele>190.8</ele>
        <time>2024-09-18T15:03:42Z</time>
      </trkpt>
      <trkpt lat="46.43141" lon="4.93164">
        <ele>190.6</ele>
        <time>2024-09-18T15:03:43Z</time>
      </trkpt>
      <trkpt lat="46.43141" lon="4.93167">
        <ele>190.6</ele>
        <time>2024-09-18T15:03:44Z</time>
      </trkpt>
      <trkpt lat="46.43142" lon="4.9317">
        <ele>190.8</ele>
        <time>2024-09-18T15:03:45Z</time>
      </trkpt>
      <trkpt lat="46.43143" lon="4.93172">
        <ele>190.8</ele>
        <time>2024-09-18T15:03:46Z</time>
      </trkpt>
      <trkpt lat="46.43145" lon="4.93176">
        <ele>190.6</ele>
        <time>2024-09-18T15:03:47Z</time>
      </trkpt>
      <trkpt lat="46.43147" lon="4.93179">
        <ele>190.6</ele>
        <time>2024-09-18T15:03:48Z</time>
      </trkpt>
      <trkpt lat="46.43148" lon="4.93183">
        <ele>190.6</ele>
        <time>2024-09-18T15:03:49Z</time>
      </trkpt>
      <trkpt lat="46.4315" lon="4.93188">
        <ele>190.6</ele>
        <time>2024-09-18T15:03:50Z</time>
      </trkpt>
      <trkpt lat="46.43151" lon="4.93192">
        <ele>190.6</ele>
        <time>2024-09-18T15:03:51Z</time>
      </trkpt>
      <trkpt lat="46.43154" lon="4.93196">
        <ele>190.6</ele>
        <time>2024-09-18T15:03:52Z</time>
      </trkpt>
      <trkpt lat="46.43156" lon="4.93201">
        <ele>190.6</ele>
        <time>2024-09-18T15:03:53Z</time>
      </trkpt>
      <trkpt lat="46.43158" lon="4.93206">
        <ele>190.4</ele>
        <time>2024-09-18T15:03:54Z</time>
      </trkpt>
      <trkpt lat="46.43161" lon="4.9321">
        <ele>190.4</ele>
        <time>2024-09-18T15:03:55Z</time>
      </trkpt>
      <trkpt lat="46.43164" lon="4.93214">
        <ele>190.4</ele>
        <time>2024-09-18T15:03:56Z</time>
      </trkpt>
      <trkpt lat="46.43167" lon="4.93217">
        <ele>190.4</ele>
        <time>2024-09-18T15:03:57Z</time>
      </trkpt>
      <trkpt lat="46.4317" lon="4.93221">
        <ele>190.2</ele>
        <time>2024-09-18T15:03:58Z</time>
      </trkpt>
      <trkpt lat="46.43173" lon="4.93225">
        <ele>190.2</ele>
        <time>2024-09-18T15:03:59Z</time>
      </trkpt>
      <trkpt lat="46.43176" lon="4.93229">
        <ele>190.2</ele>
        <time>2024-09-18T15:04:00Z</time>
      </trkpt>
      <trkpt lat="46.43178" lon="4.93233">
        <ele>190.2</ele>
        <time>2024-09-18T15:04:01Z</time>
      </trkpt>
      <trkpt lat="46.43181" lon="4.93238">
        <ele>190</ele>
        <time>2024-09-18T15:04:02Z</time>
      </trkpt>
      <trkpt lat="46.43184" lon="4.93242">
        <ele>190</ele>
        <time>2024-09-18T15:04:03Z</time>
      </trkpt>
      <trkpt lat="46.43186" lon="4.93249">
        <ele>190</ele>
        <time>2024-09-18T15:04:04Z</time>
      </trkpt>
      <trkpt lat="46.43187" lon="4.93252">
        <ele>190</ele>
        <time>2024-09-18T15:04:05Z</time>
      </trkpt>
      <trkpt lat="46.43189" lon="4.9326">
        <ele>189.6</ele>
        <time>2024-09-18T15:04:06Z</time>
      </trkpt>
      <trkpt lat="46.43189" lon="4.93262">
        <ele>189.6</ele>
        <time>2024-09-18T15:04:07Z</time>
      </trkpt>
      <trkpt lat="46.43192" lon="4.93271">
        <ele>189.6</ele>
        <time>2024-09-18T15:04:08Z</time>
      </trkpt>
      <trkpt lat="46.43192" lon="4.93274">
        <ele>189.6</ele>
        <time>2024-09-18T15:04:09Z</time>
      </trkpt>
      <trkpt lat="46.43195" lon="4.93283">
        <ele>189.6</ele>
        <time>2024-09-18T15:04:10Z</time>
      </trkpt>
      <trkpt lat="46.43195" lon="4.93286">
        <ele>189.4</ele>
        <time>2024-09-18T15:04:11Z</time>
      </trkpt>
      <trkpt lat="46.43198" lon="4.93295">
        <ele>189.4</ele>
        <time>2024-09-18T15:04:12Z</time>
      </trkpt>
      <trkpt lat="46.43199" lon="4.93298">
        <ele>189.4</ele>
        <time>2024-09-18T15:04:13Z</time>
      </trkpt>
      <trkpt lat="46.432" lon="4.93305">
        <ele>189.4</ele>
        <time>2024-09-18T15:04:14Z</time>
      </trkpt>
      <trkpt lat="46.43201" lon="4.93307">
        <ele>189.4</ele>
        <time>2024-09-18T15:04:15Z</time>
      </trkpt>
      <trkpt lat="46.43201" lon="4.9331">
        <ele>189.2</ele>
        <time>2024-09-18T15:04:16Z</time>
      </trkpt>
      <trkpt lat="46.43201" lon="4.93313">
        <ele>189.2</ele>
        <time>2024-09-18T15:04:17Z</time>
      </trkpt>
      <trkpt lat="46.43199" lon="4.93316">
        <ele>189.2</ele>
        <time>2024-09-18T15:04:18Z</time>
      </trkpt>
      <trkpt lat="46.43199" lon="4.93317">
        <ele>188.8</ele>
        <time>2024-09-18T15:04:19Z</time>
      </trkpt>
      <trkpt lat="46.43197" lon="4.93321">
        <ele>189.2</ele>
        <time>2024-09-18T15:04:20Z</time>
      </trkpt>
      <trkpt lat="46.43196" lon="4.93323">
        <ele>189.2</ele>
        <time>2024-09-18T15:04:21Z</time>
      </trkpt>
      <trkpt lat="46.43196" lon="4.93326">
        <ele>189.2</ele>
        <time>2024-09-18T15:04:22Z</time>
      </trkpt>
      <trkpt lat="46.43195" lon="4.93329">
        <ele>188.8</ele>
        <time>2024-09-18T15:04:23Z</time>
      </trkpt>
      <trkpt lat="46.43195" lon="4.93332">
        <ele>188.8</ele>
        <time>2024-09-18T15:04:24Z</time>
      </trkpt>
      <trkpt lat="46.43195" lon="4.93335">
        <ele>188.8</ele>
        <time>2024-09-18T15:04:25Z</time>
      </trkpt>
      <trkpt lat="46.43195" lon="4.93338">
        <ele>188.8</ele>
        <time>2024-09-18T15:04:26Z</time>
      </trkpt>
      <trkpt lat="46.43195" lon="4.9334">
        <ele>188.8</ele>
        <time>2024-09-18T15:04:27Z</time>
      </trkpt>
      <trkpt lat="46.43195" lon="4.93341">
        <ele>189.4</ele>
        <time>2024-09-18T15:04:28Z</time>
      </trkpt>
      <trkpt lat="46.43196" lon="4.93342">
        <ele>189.8</ele>
        <time>2024-09-18T15:04:29Z</time>
      </trkpt>
      <trkpt lat="46.43193" lon="4.93342">
        <ele>189.6</ele>
        <time>2024-09-18T15:04:47Z</time>
      </trkpt>
      <trkpt lat="46.43191" lon="4.93342">
        <ele>189.6</ele>
        <time>2024-09-18T15:04:48Z</time>
      </trkpt>
      <trkpt lat="46.43189" lon="4.93343">
        <ele>189.6</ele>
        <time>2024-09-18T15:04:49Z</time>
      </trkpt>
      <trkpt lat="46.43187" lon="4.93345">
        <ele>188.6</ele>
        <time>2024-09-18T15:04:50Z</time>
      </trkpt>
      <trkpt lat="46.43185" lon="4.93347">
        <ele>188.8</ele>
        <time>2024-09-18T15:04:51Z</time>
      </trkpt>
      <trkpt lat="46.43183" lon="4.93348">
        <ele>188.8</ele>
        <time>2024-09-18T15:04:52Z</time>
      </trkpt>
      <trkpt lat="46.4318" lon="4.9335">
        <ele>188.8</ele>
        <time>2024-09-18T15:04:53Z</time>
      </trkpt>
      <trkpt lat="46.43178" lon="4.9335">
        <ele>188.8</ele>
        <time>2024-09-18T15:04:54Z</time>
      </trkpt>
      <trkpt lat="46.43176" lon="4.93351">
        <ele>188.8</ele>
        <time>2024-09-18T15:04:55Z</time>
      </trkpt>
      <trkpt lat="46.43173" lon="4.93351">
        <ele>188.8</ele>
        <time>2024-09-18T15:04:56Z</time>
      </trkpt>
      <trkpt lat="46.43171" lon="4.9335">
        <ele>188.8</ele>
        <time>2024-09-18T15:04:57Z</time>
      </trkpt>
      <trkpt lat="46.43169" lon="4.9335">
        <ele>188.8</ele>
        <time>2024-09-18T15:04:58Z</time>
      </trkpt>
      <trkpt lat="46.43166" lon="4.93349">
        <ele>188.8</ele>
        <time>2024-09-18T15:04:59Z</time>
      </trkpt>
      <trkpt lat="46.43164" lon="4.93348">
        <ele>188.8</ele>
        <time>2024-09-18T15:05:00Z</time>
      </trkpt>
      <trkpt lat="46.4316" lon="4.93346">
        <ele>188.8</ele>
        <time>2024-09-18T15:05:01Z</time>
      </trkpt>
      <trkpt lat="46.43159" lon="4.93346">
        <ele>188.8</ele>
        <time>2024-09-18T15:05:02Z</time>
      </trkpt>
      <trkpt lat="46.43156" lon="4.93345">
        <ele>188.8</ele>
        <time>2024-09-18T15:05:03Z</time>
      </trkpt>
      <trkpt lat="46.43155" lon="4.93344">
        <ele>189.2</ele>
        <time>2024-09-18T15:05:04Z</time>
      </trkpt>
      <trkpt lat="46.43153" lon="4.93344">
        <ele>189.2</ele>
        <time>2024-09-18T15:05:05Z</time>
      </trkpt>
      <trkpt lat="46.43151" lon="4.93343">
        <ele>189.2</ele>
        <time>2024-09-18T15:05:06Z</time>
      </trkpt>
      <trkpt lat="46.43149" lon="4.93343">
        <ele>189.2</ele>
        <time>2024-09-18T15:05:07Z</time>
      </trkpt>
      <trkpt lat="46.43148" lon="4.93343">
        <ele>189.2</ele>
        <time>2024-09-18T15:05:08Z</time>
      </trkpt>
      <trkpt lat="46.43145" lon="4.93344">
        <ele>189.2</ele>
        <time>2024-09-18T15:05:09Z</time>
      </trkpt>
      <trkpt lat="46.43144" lon="4.93344">
        <ele>189.2</ele>
        <time>2024-09-18T15:05:10Z</time>
      </trkpt>
      <trkpt lat="46.43142" lon="4.93344">
        <ele>189.2</ele>
        <time>2024-09-18T15:05:11Z</time>
      </trkpt>
      <trkpt lat="46.43139" lon="4.93344">
        <ele>189.2</ele>
        <time>2024-09-18T15:05:12Z</time>
      </trkpt>
      <trkpt lat="46.43136" lon="4.93345">
        <ele>189.4</ele>
        <time>2024-09-18T15:05:13Z</time>
      </trkpt>
      <trkpt lat="46.43134" lon="4.93345">
        <ele>189.4</ele>
        <time>2024-09-18T15:05:14Z</time>
      </trkpt>
      <trkpt lat="46.43131" lon="4.93346">
        <ele>189.4</ele>
        <time>2024-09-18T15:05:15Z</time>
      </trkpt>
      <trkpt lat="46.43129" lon="4.93346">
        <ele>189.4</ele>
        <time>2024-09-18T15:05:16Z</time>
      </trkpt>
      <trkpt lat="46.43125" lon="4.93348">
        <ele>189.4</ele>
        <time>2024-09-18T15:05:17Z</time>
      </trkpt>
      <trkpt lat="46.43124" lon="4.93348">
        <ele>189.4</ele>
        <time>2024-09-18T15:05:18Z</time>
      </trkpt>
      <trkpt lat="46.4312" lon="4.9335">
        <ele>189.4</ele>
        <time>2024-09-18T15:05:19Z</time>
      </trkpt>
      <trkpt lat="46.43118" lon="4.9335">
        <ele>189.4</ele>
        <time>2024-09-18T15:05:20Z</time>
      </trkpt>
      <trkpt lat="46.43115" lon="4.93351">
        <ele>189.4</ele>
        <time>2024-09-18T15:05:21Z</time>
      </trkpt>
      <trkpt lat="46.43112" lon="4.93353">
        <ele>189.4</ele>
        <time>2024-09-18T15:05:22Z</time>
      </trkpt>
      <trkpt lat="46.43109" lon="4.93354">
        <ele>190.2</ele>
        <time>2024-09-18T15:05:23Z</time>
      </trkpt>
      <trkpt lat="46.43105" lon="4.93355">
        <ele>190.2</ele>
        <time>2024-09-18T15:05:24Z</time>
      </trkpt>
      <trkpt lat="46.43102" lon="4.93356">
        <ele>189.2</ele>
        <time>2024-09-18T15:05:25Z</time>
      </trkpt>
      <trkpt lat="46.43098" lon="4.93357">
        <ele>189.6</ele>
        <time>2024-09-18T15:05:26Z</time>
      </trkpt>
      <trkpt lat="46.43094" lon="4.93357">
        <ele>189.6</ele>
        <time>2024-09-18T15:05:27Z</time>
      </trkpt>
      <trkpt lat="46.43092" lon="4.93358">
        <ele>189.6</ele>
        <time>2024-09-18T15:05:28Z</time>
      </trkpt>
      <trkpt lat="46.4309" lon="4.93357">
        <ele>189.6</ele>
        <time>2024-09-18T15:05:29Z</time>
      </trkpt>
      <trkpt lat="46.43087" lon="4.93356">
        <ele>189.6</ele>
        <time>2024-09-18T15:05:30Z</time>
      </trkpt>
      <trkpt lat="46.43086" lon="4.93354">
        <ele>189.6</ele>
        <time>2024-09-18T15:05:31Z</time>
      </trkpt>
      <trkpt lat="46.43084" lon="4.93353">
        <ele>189.8</ele>
        <time>2024-09-18T15:05:32Z</time>
      </trkpt>
      <trkpt lat="46.43082" lon="4.9335">
        <ele>189.8</ele>
        <time>2024-09-18T15:05:33Z</time>
      </trkpt>
      <trkpt lat="46.43079" lon="4.93348">
        <ele>189.8</ele>
        <time>2024-09-18T15:05:34Z</time>
      </trkpt>
      <trkpt lat="46.43077" lon="4.93346">
        <ele>189.2</ele>
        <time>2024-09-18T15:05:35Z</time>
      </trkpt>
      <trkpt lat="46.43074" lon="4.93345">
        <ele>189.8</ele>
        <time>2024-09-18T15:05:36Z</time>
      </trkpt>
      <trkpt lat="46.43071" lon="4.93345">
        <ele>189.8</ele>
        <time>2024-09-18T15:05:37Z</time>
      </trkpt>
      <trkpt lat="46.43068" lon="4.93345">
        <ele>189.8</ele>
        <time>2024-09-18T15:05:38Z</time>
      </trkpt>
      <trkpt lat="46.43065" lon="4.93347">
        <ele>189.8</ele>
        <time>2024-09-18T15:05:39Z</time>
      </trkpt>
      <trkpt lat="46.43063" lon="4.93349">
        <ele>189.2</ele>
        <time>2024-09-18T15:05:40Z</time>
      </trkpt>
      <trkpt lat="46.4306" lon="4.93351">
        <ele>189.2</ele>
        <time>2024-09-18T15:05:41Z</time>
      </trkpt>
      <trkpt lat="46.43057" lon="4.93353">
        <ele>189.2</ele>
        <time>2024-09-18T15:05:42Z</time>
      </trkpt>
      <trkpt lat="46.43054" lon="4.93354">
        <ele>189.2</ele>
        <time>2024-09-18T15:05:43Z</time>
      </trkpt>
      <trkpt lat="46.4305" lon="4.93356">
        <ele>189.6</ele>
        <time>2024-09-18T15:05:44Z</time>
      </trkpt>
      <trkpt lat="46.43046" lon="4.93358">
        <ele>190.2</ele>
        <time>2024-09-18T15:05:45Z</time>
      </trkpt>
      <trkpt lat="46.43045" lon="4.93358">
        <ele>190.2</ele>
        <time>2024-09-18T15:05:46Z</time>
      </trkpt>
      <trkpt lat="46.4304" lon="4.9336">
        <ele>190.2</ele>
        <time>2024-09-18T15:05:47Z</time>
      </trkpt>
      <trkpt lat="46.43039" lon="4.9336">
        <ele>190.2</ele>
        <time>2024-09-18T15:05:48Z</time>
      </trkpt>
      <trkpt lat="46.43034" lon="4.93361">
        <ele>190.8</ele>
        <time>2024-09-18T15:05:49Z</time>
      </trkpt>
      <trkpt lat="46.43032" lon="4.93361">
        <ele>190.8</ele>
        <time>2024-09-18T15:05:50Z</time>
      </trkpt>
      <trkpt lat="46.43028" lon="4.93363">
        <ele>190.8</ele>
        <time>2024-09-18T15:05:51Z</time>
      </trkpt>
      <trkpt lat="46.43027" lon="4.93364">
        <ele>190.8</ele>
        <time>2024-09-18T15:05:52Z</time>
      </trkpt>
      <trkpt lat="46.43024" lon="4.93369">
        <ele>190.2</ele>
        <time>2024-09-18T15:05:53Z</time>
      </trkpt>
      <trkpt lat="46.43023" lon="4.9337">
        <ele>190.2</ele>
        <time>2024-09-18T15:05:54Z</time>
      </trkpt>
      <trkpt lat="46.43019" lon="4.93375">
        <ele>190.2</ele>
        <time>2024-09-18T15:05:55Z</time>
      </trkpt>
      <trkpt lat="46.43017" lon="4.93376">
        <ele>190.2</ele>
        <time>2024-09-18T15:05:56Z</time>
      </trkpt>
      <trkpt lat="46.43013" lon="4.93378">
        <ele>190.2</ele>
        <time>2024-09-18T15:05:57Z</time>
      </trkpt>
      <trkpt lat="46.43011" lon="4.93379">
        <ele>190.2</ele>
        <time>2024-09-18T15:05:58Z</time>
      </trkpt>
      <trkpt lat="46.43006" lon="4.9338">
        <ele>190.2</ele>
        <time>2024-09-18T15:05:59Z</time>
      </trkpt>
      <trkpt lat="46.43005" lon="4.9338">
        <ele>190.2</ele>
        <time>2024-09-18T15:06:00Z</time>
      </trkpt>
      <trkpt lat="46.43002" lon="4.9338">
        <ele>190.2</ele>
        <time>2024-09-18T15:06:01Z</time>
      </trkpt>
      <trkpt lat="46.43" lon="4.93379">
        <ele>190.8</ele>
        <time>2024-09-18T15:06:02Z</time>
      </trkpt>
      <trkpt lat="46.42998" lon="4.93378">
        <ele>190.8</ele>
        <time>2024-09-18T15:06:03Z</time>
      </trkpt>
      <trkpt lat="46.42995" lon="4.93378">
        <ele>190.8</ele>
        <time>2024-09-18T15:06:04Z</time>
      </trkpt>
      <trkpt lat="46.42993" lon="4.93377">
        <ele>190.8</ele>
        <time>2024-09-18T15:06:05Z</time>
      </trkpt>
      <trkpt lat="46.42991" lon="4.93376">
        <ele>190.8</ele>
        <time>2024-09-18T15:06:06Z</time>
      </trkpt>
      <trkpt lat="46.42988" lon="4.93375">
        <ele>191.2</ele>
        <time>2024-09-18T15:06:07Z</time>
      </trkpt>
      <trkpt lat="46.42985" lon="4.93375">
        <ele>191.2</ele>
        <time>2024-09-18T15:06:08Z</time>
      </trkpt>
      <trkpt lat="46.42983" lon="4.93374">
        <ele>191.2</ele>
        <time>2024-09-18T15:06:09Z</time>
      </trkpt>
      <trkpt lat="46.4298" lon="4.93374">
        <ele>191.2</ele>
        <time>2024-09-18T15:06:10Z</time>
      </trkpt>
      <trkpt lat="46.42977" lon="4.93373">
        <ele>191.2</ele>
        <time>2024-09-18T15:06:11Z</time>
      </trkpt>
      <trkpt lat="46.42974" lon="4.93373">
        <ele>191.2</ele>
        <time>2024-09-18T15:06:12Z</time>
      </trkpt>
      <trkpt lat="46.42971" lon="4.93372">
        <ele>191.2</ele>
        <time>2024-09-18T15:06:13Z</time>
      </trkpt>
      <trkpt lat="46.42969" lon="4.93372">
        <ele>191.2</ele>
        <time>2024-09-18T15:06:14Z</time>
      </trkpt>
      <trkpt lat="46.42966" lon="4.93371">
        <ele>191.2</ele>
        <time>2024-09-18T15:06:15Z</time>
      </trkpt>
      <trkpt lat="46.42964" lon="4.9337">
        <ele>191</ele>
        <time>2024-09-18T15:06:16Z</time>
      </trkpt>
      <trkpt lat="46.42963" lon="4.93367">
        <ele>191</ele>
        <time>2024-09-18T15:06:17Z</time>
      </trkpt>
      <trkpt lat="46.42962" lon="4.93365">
        <ele>191</ele>
        <time>2024-09-18T15:06:18Z</time>
      </trkpt>
      <trkpt lat="46.42961" lon="4.93363">
        <ele>191</ele>
        <time>2024-09-18T15:06:19Z</time>
      </trkpt>
      <trkpt lat="46.42959" lon="4.93361">
        <ele>191.4</ele>
        <time>2024-09-18T15:06:20Z</time>
      </trkpt>
      <trkpt lat="46.42957" lon="4.93359">
        <ele>191.2</ele>
        <time>2024-09-18T15:06:21Z</time>
      </trkpt>
      <trkpt lat="46.42955" lon="4.93357">
        <ele>191.2</ele>
        <time>2024-09-18T15:06:22Z</time>
      </trkpt>
      <trkpt lat="46.42954" lon="4.93354">
        <ele>191.2</ele>
        <time>2024-09-18T15:06:23Z</time>
      </trkpt>
      <trkpt lat="46.42953" lon="4.93351">
        <ele>191.2</ele>
        <time>2024-09-18T15:06:24Z</time>
      </trkpt>
      <trkpt lat="46.42952" lon="4.93348">
        <ele>191.6</ele>
        <time>2024-09-18T15:06:25Z</time>
      </trkpt>
      <trkpt lat="46.42951" lon="4.93345">
        <ele>191.6</ele>
        <time>2024-09-18T15:06:26Z</time>
      </trkpt>
      <trkpt lat="46.4295" lon="4.93343">
        <ele>191.6</ele>
        <time>2024-09-18T15:06:27Z</time>
      </trkpt>
      <trkpt lat="46.4295" lon="4.93341">
        <ele>191.6</ele>
        <time>2024-09-18T15:06:28Z</time>
      </trkpt>
      <trkpt lat="46.4295" lon="4.93338">
        <ele>191.6</ele>
        <time>2024-09-18T15:06:29Z</time>
      </trkpt>
      <trkpt lat="46.4295" lon="4.93336">
        <ele>191.6</ele>
        <time>2024-09-18T15:06:30Z</time>
      </trkpt>
      <trkpt lat="46.4295" lon="4.93334">
        <ele>191.6</ele>
        <time>2024-09-18T15:06:31Z</time>
      </trkpt>
      <trkpt lat="46.42951" lon="4.93333">
        <ele>191.6</ele>
        <time>2024-09-18T15:06:32Z</time>
      </trkpt>
      <trkpt lat="46.42951" lon="4.93331">
        <ele>191.6</ele>
        <time>2024-09-18T15:06:33Z</time>
      </trkpt>
      <trkpt lat="46.42952" lon="4.93329">
        <ele>191.6</ele>
        <time>2024-09-18T15:06:34Z</time>
      </trkpt>
      <trkpt lat="46.42953" lon="4.93328">
        <ele>191.4</ele>
        <time>2024-09-18T15:06:35Z</time>
      </trkpt>
      <trkpt lat="46.42953" lon="4.93328">
        <ele>191.4</ele>
        <time>2024-09-18T15:06:36Z</time>
      </trkpt>
      <trkpt lat="46.42953" lon="4.93328">
        <ele>191.4</ele>
        <time>2024-09-18T15:06:37Z</time>
      </trkpt>
      <trkpt lat="46.42954" lon="4.93318">
        <ele>190.6</ele>
        <time>2024-09-18T15:08:46Z</time>
      </trkpt>
      <trkpt lat="46.42953" lon="4.93315">
        <ele>190.6</ele>
        <time>2024-09-18T15:08:47Z</time>
      </trkpt>
      <trkpt lat="46.42951" lon="4.93313">
        <ele>190.6</ele>
        <time>2024-09-18T15:08:48Z</time>
      </trkpt>
      <trkpt lat="46.42949" lon="4.93311">
        <ele>190.6</ele>
        <time>2024-09-18T15:08:49Z</time>
      </trkpt>
      <trkpt lat="46.42946" lon="4.93311">
        <ele>190.6</ele>
        <time>2024-09-18T15:08:50Z</time>
      </trkpt>
      <trkpt lat="46.42945" lon="4.93308">
        <ele>190.6</ele>
        <time>2024-09-18T15:08:51Z</time>
      </trkpt>
      <trkpt lat="46.42944" lon="4.93305">
        <ele>191.2</ele>
        <time>2024-09-18T15:08:52Z</time>
      </trkpt>
      <trkpt lat="46.42943" lon="4.93303">
        <ele>191.2</ele>
        <time>2024-09-18T15:08:53Z</time>
      </trkpt>
      <trkpt lat="46.42942" lon="4.933">
        <ele>191.2</ele>
        <time>2024-09-18T15:08:54Z</time>
      </trkpt>
      <trkpt lat="46.42941" lon="4.93298">
        <ele>191.2</ele>
        <time>2024-09-18T15:08:55Z</time>
      </trkpt>
      <trkpt lat="46.4294" lon="4.93296">
        <ele>191.2</ele>
        <time>2024-09-18T15:08:56Z</time>
      </trkpt>
      <trkpt lat="46.42939" lon="4.93294">
        <ele>191.2</ele>
        <time>2024-09-18T15:08:57Z</time>
      </trkpt>
      <trkpt lat="46.42939" lon="4.93293">
        <ele>191.2</ele>
        <time>2024-09-18T15:08:58Z</time>
      </trkpt>
      <trkpt lat="46.42938" lon="4.93292">
        <ele>191.2</ele>
        <time>2024-09-18T15:08:59Z</time>
      </trkpt>
      <trkpt lat="46.42937" lon="4.9329">
        <ele>191.4</ele>
        <time>2024-09-18T15:09:00Z</time>
      </trkpt>
      <trkpt lat="46.42937" lon="4.93289">
        <ele>191.2</ele>
        <time>2024-09-18T15:09:01Z</time>
      </trkpt>
      <trkpt lat="46.42936" lon="4.93288">
        <ele>191.2</ele>
        <time>2024-09-18T15:09:02Z</time>
      </trkpt>
      <trkpt lat="46.42936" lon="4.93288">
        <ele>191.2</ele>
        <time>2024-09-18T15:09:03Z</time>
      </trkpt>
      <trkpt lat="46.42943" lon="4.93303">
        <ele>191.8</ele>
        <time>2024-09-18T15:17:13Z</time>
      </trkpt>
      <trkpt lat="46.42944" lon="4.93304">
        <ele>191.6</ele>
        <time>2024-09-18T15:17:14Z</time>
      </trkpt>
      <trkpt lat="46.42945" lon="4.93305">
        <ele>191.6</ele>
        <time>2024-09-18T15:17:15Z</time>
      </trkpt>
      <trkpt lat="46.42945" lon="4.93306">
        <ele>191.6</ele>
        <time>2024-09-18T15:17:16Z</time>
      </trkpt>
      <trkpt lat="46.42946" lon="4.93307">
        <ele>191.8</ele>
        <time>2024-09-18T15:17:17Z</time>
      </trkpt>
      <trkpt lat="46.42947" lon="4.93307">
        <ele>191.6</ele>
        <time>2024-09-18T15:17:18Z</time>
      </trkpt>
      <trkpt lat="46.42948" lon="4.93308">
        <ele>191.6</ele>
        <time>2024-09-18T15:17:19Z</time>
      </trkpt>
      <trkpt lat="46.42949" lon="4.93309">
        <ele>191.6</ele>
        <time>2024-09-18T15:17:20Z</time>
      </trkpt>
      <trkpt lat="46.4295" lon="4.93311">
        <ele>191.4</ele>
        <time>2024-09-18T15:17:21Z</time>
      </trkpt>
      <trkpt lat="46.42951" lon="4.93312">
        <ele>191.4</ele>
        <time>2024-09-18T15:17:22Z</time>
      </trkpt>
      <trkpt lat="46.42952" lon="4.93313">
        <ele>191.4</ele>
        <time>2024-09-18T15:17:23Z</time>
      </trkpt>
      <trkpt lat="46.42954" lon="4.93315">
        <ele>191.4</ele>
        <time>2024-09-18T15:17:24Z</time>
      </trkpt>
      <trkpt lat="46.42955" lon="4.93316">
        <ele>191.4</ele>
        <time>2024-09-18T15:17:25Z</time>
      </trkpt>
      <trkpt lat="46.42956" lon="4.93317">
        <ele>191.4</ele>
        <time>2024-09-18T15:17:26Z</time>
      </trkpt>
      <trkpt lat="46.42957" lon="4.93318">
        <ele>191.6</ele>
        <time>2024-09-18T15:17:27Z</time>
      </trkpt>
      <trkpt lat="46.42958" lon="4.93319">
        <ele>191.6</ele>
        <time>2024-09-18T15:17:28Z</time>
      </trkpt>
      <trkpt lat="46.42959" lon="4.93318">
        <ele>191.6</ele>
        <time>2024-09-18T15:17:29Z</time>
      </trkpt>
      <trkpt lat="46.4296" lon="4.93317">
        <ele>191.6</ele>
        <time>2024-09-18T15:17:30Z</time>
      </trkpt>
      <trkpt lat="46.42961" lon="4.93316">
        <ele>191.6</ele>
        <time>2024-09-18T15:17:31Z</time>
      </trkpt>
      <trkpt lat="46.42962" lon="4.93315">
        <ele>191.4</ele>
        <time>2024-09-18T15:17:32Z</time>
      </trkpt>
      <trkpt lat="46.42963" lon="4.93313">
        <ele>191.4</ele>
        <time>2024-09-18T15:17:33Z</time>
      </trkpt>
      <trkpt lat="46.42963" lon="4.93313">
        <ele>191.4</ele>
        <time>2024-09-18T15:17:34Z</time>
      </trkpt>
      <trkpt lat="46.42964" lon="4.93312">
        <ele>191.4</ele>
        <time>2024-09-18T15:17:35Z</time>
      </trkpt>
      <trkpt lat="46.42965" lon="4.93312">
        <ele>191.4</ele>
        <time>2024-09-18T15:17:36Z</time>
      </trkpt>
      <trkpt lat="46.42966" lon="4.93311">
        <ele>191.4</ele>
        <time>2024-09-18T15:17:37Z</time>
      </trkpt>
      <trkpt lat="46.42967" lon="4.93311">
        <ele>191.4</ele>
        <time>2024-09-18T15:17:38Z</time>
      </trkpt>
      <trkpt lat="46.42968" lon="4.93311">
        <ele>191.4</ele>
        <time>2024-09-18T15:17:39Z</time>
      </trkpt>
      <trkpt lat="46.42969" lon="4.93311">
        <ele>191.4</ele>
        <time>2024-09-18T15:17:40Z</time>
      </trkpt>
      <trkpt lat="46.4297" lon="4.9331">
        <ele>191.2</ele>
        <time>2024-09-18T15:17:41Z</time>
      </trkpt>
      <trkpt lat="46.42971" lon="4.9331">
        <ele>191.2</ele>
        <time>2024-09-18T15:17:42Z</time>
      </trkpt>
      <trkpt lat="46.42972" lon="4.93309">
        <ele>191.2</ele>
        <time>2024-09-18T15:17:43Z</time>
      </trkpt>
      <trkpt lat="46.42973" lon="4.93309">
        <ele>191.2</ele>
        <time>2024-09-18T15:17:44Z</time>
      </trkpt>
      <trkpt lat="46.42973" lon="4.93309">
        <ele>191.2</ele>
        <time>2024-09-18T15:17:45Z</time>
      </trkpt>
      <trkpt lat="46.42973" lon="4.93309">
        <ele>191.2</ele>
        <time>2024-09-18T15:17:46Z</time>
      </trkpt>
      <trkpt lat="46.42973" lon="4.9331">
        <ele>191.2</ele>
        <time>2024-09-18T15:17:47Z</time>
      </trkpt>
      <trkpt lat="46.42973" lon="4.9331">
        <ele>191.2</ele>
        <time>2024-09-18T15:17:48Z</time>
      </trkpt>
      <trkpt lat="46.42974" lon="4.9331">
        <ele>191.2</ele>
        <time>2024-09-18T15:17:49Z</time>
      </trkpt>
      <trkpt lat="46.42975" lon="4.93309">
        <ele>191</ele>
        <time>2024-09-18T15:17:50Z</time>
      </trkpt>
      <trkpt lat="46.42976" lon="4.93307">
        <ele>191</ele>
        <time>2024-09-18T15:17:51Z</time>
      </trkpt>
      <trkpt lat="46.42977" lon="4.93307">
        <ele>191</ele>
        <time>2024-09-18T15:17:52Z</time>
      </trkpt>
      <trkpt lat="46.42979" lon="4.93303">
        <ele>191</ele>
        <time>2024-09-18T15:17:53Z</time>
      </trkpt>
      <trkpt lat="46.4298" lon="4.93302">
        <ele>191</ele>
        <time>2024-09-18T15:17:54Z</time>
      </trkpt>
      <trkpt lat="46.42983" lon="4.93299">
        <ele>191</ele>
        <time>2024-09-18T15:17:55Z</time>
      </trkpt>
      <trkpt lat="46.42985" lon="4.93298">
        <ele>191</ele>
        <time>2024-09-18T15:17:56Z</time>
      </trkpt>
      <trkpt lat="46.42988" lon="4.93294">
        <ele>191</ele>
        <time>2024-09-18T15:17:57Z</time>
      </trkpt>
      <trkpt lat="46.42989" lon="4.93292">
        <ele>191</ele>
        <time>2024-09-18T15:17:58Z</time>
      </trkpt>
      <trkpt lat="46.42993" lon="4.93288">
        <ele>191</ele>
        <time>2024-09-18T15:17:59Z</time>
      </trkpt>
      <trkpt lat="46.42994" lon="4.93286">
        <ele>191</ele>
        <time>2024-09-18T15:18:00Z</time>
      </trkpt>
      <trkpt lat="46.42997" lon="4.93281">
        <ele>191</ele>
        <time>2024-09-18T15:18:01Z</time>
      </trkpt>
      <trkpt lat="46.42998" lon="4.93279">
        <ele>191</ele>
        <time>2024-09-18T15:18:02Z</time>
      </trkpt>
      <trkpt lat="46.42999" lon="4.93275">
        <ele>191</ele>
        <time>2024-09-18T15:18:03Z</time>
      </trkpt>
      <trkpt lat="46.43" lon="4.93271">
        <ele>191</ele>
        <time>2024-09-18T15:18:04Z</time>
      </trkpt>
      <trkpt lat="46.43002" lon="4.93268">
        <ele>191</ele>
        <time>2024-09-18T15:18:05Z</time>
      </trkpt>
      <trkpt lat="46.43003" lon="4.93264">
        <ele>191</ele>
        <time>2024-09-18T15:18:06Z</time>
      </trkpt>
      <trkpt lat="46.43004" lon="4.9326">
        <ele>191</ele>
        <time>2024-09-18T15:18:07Z</time>
      </trkpt>
      <trkpt lat="46.43005" lon="4.93257">
        <ele>191</ele>
        <time>2024-09-18T15:18:08Z</time>
      </trkpt>
      <trkpt lat="46.43006" lon="4.93254">
        <ele>191</ele>
        <time>2024-09-18T15:18:09Z</time>
      </trkpt>
      <trkpt lat="46.43007" lon="4.93251">
        <ele>191</ele>
        <time>2024-09-18T15:18:10Z</time>
      </trkpt>
      <trkpt lat="46.43008" lon="4.93248">
        <ele>191</ele>
        <time>2024-09-18T15:18:11Z</time>
      </trkpt>
      <trkpt lat="46.43008" lon="4.93244">
        <ele>191</ele>
        <time>2024-09-18T15:18:12Z</time>
      </trkpt>
      <trkpt lat="46.43009" lon="4.93241">
        <ele>191</ele>
        <time>2024-09-18T15:18:13Z</time>
      </trkpt>
      <trkpt lat="46.43009" lon="4.93237">
        <ele>191</ele>
        <time>2024-09-18T15:18:14Z</time>
      </trkpt>
      <trkpt lat="46.43008" lon="4.93235">
        <ele>191</ele>
        <time>2024-09-18T15:18:15Z</time>
      </trkpt>
      <trkpt lat="46.43007" lon="4.93232">
        <ele>191</ele>
        <time>2024-09-18T15:18:16Z</time>
      </trkpt>
      <trkpt lat="46.43006" lon="4.93229">
        <ele>191</ele>
        <time>2024-09-18T15:18:17Z</time>
      </trkpt>
      <trkpt lat="46.43004" lon="4.93227">
        <ele>191</ele>
        <time>2024-09-18T15:18:18Z</time>
      </trkpt>
      <trkpt lat="46.43002" lon="4.93225">
        <ele>191</ele>
        <time>2024-09-18T15:18:19Z</time>
      </trkpt>
      <trkpt lat="46.43" lon="4.93222">
        <ele>191</ele>
        <time>2024-09-18T15:18:20Z</time>
      </trkpt>
      <trkpt lat="46.42999" lon="4.93218">
        <ele>191</ele>
        <time>2024-09-18T15:18:21Z</time>
      </trkpt>
      <trkpt lat="46.42998" lon="4.93215">
        <ele>191</ele>
        <time>2024-09-18T15:18:22Z</time>
      </trkpt>
      <trkpt lat="46.42997" lon="4.93212">
        <ele>191</ele>
        <time>2024-09-18T15:18:23Z</time>
      </trkpt>
      <trkpt lat="46.42996" lon="4.93209">
        <ele>191</ele>
        <time>2024-09-18T15:18:24Z</time>
      </trkpt>
      <trkpt lat="46.42995" lon="4.93206">
        <ele>191</ele>
        <time>2024-09-18T15:18:25Z</time>
      </trkpt>
      <trkpt lat="46.42995" lon="4.93202">
        <ele>191</ele>
        <time>2024-09-18T15:18:26Z</time>
      </trkpt>
      <trkpt lat="46.42995" lon="4.93198">
        <ele>191</ele>
        <time>2024-09-18T15:18:27Z</time>
      </trkpt>
      <trkpt lat="46.42995" lon="4.93194">
        <ele>191</ele>
        <time>2024-09-18T15:18:28Z</time>
      </trkpt>
      <trkpt lat="46.42996" lon="4.93189">
        <ele>191</ele>
        <time>2024-09-18T15:18:29Z</time>
      </trkpt>
      <trkpt lat="46.42996" lon="4.93188">
        <ele>191.2</ele>
        <time>2024-09-18T15:18:30Z</time>
      </trkpt>
      <trkpt lat="46.42996" lon="4.93183">
        <ele>191.2</ele>
        <time>2024-09-18T15:18:31Z</time>
      </trkpt>
      <trkpt lat="46.42996" lon="4.93182">
        <ele>191.2</ele>
        <time>2024-09-18T15:18:32Z</time>
      </trkpt>
      <trkpt lat="46.42997" lon="4.93177">
        <ele>191.2</ele>
        <time>2024-09-18T15:18:33Z</time>
      </trkpt>
      <trkpt lat="46.42997" lon="4.93176">
        <ele>191.2</ele>
        <time>2024-09-18T15:18:34Z</time>
      </trkpt>
      <trkpt lat="46.42998" lon="4.93172">
        <ele>191.2</ele>
        <time>2024-09-18T15:18:35Z</time>
      </trkpt>
      <trkpt lat="46.42999" lon="4.9317">
        <ele>191.2</ele>
        <time>2024-09-18T15:18:36Z</time>
      </trkpt>
      <trkpt lat="46.43" lon="4.93167">
        <ele>191.2</ele>
        <time>2024-09-18T15:18:37Z</time>
      </trkpt>
      <trkpt lat="46.43001" lon="4.93166">
        <ele>191.2</ele>
        <time>2024-09-18T15:18:38Z</time>
      </trkpt>
      <trkpt lat="46.43002" lon="4.93163">
        <ele>191</ele>
        <time>2024-09-18T15:18:39Z</time>
      </trkpt>
      <trkpt lat="46.43003" lon="4.93161">
        <ele>191</ele>
        <time>2024-09-18T15:18:40Z</time>
      </trkpt>
      <trkpt lat="46.43003" lon="4.93159">
        <ele>191</ele>
        <time>2024-09-18T15:18:41Z</time>
      </trkpt>
      <trkpt lat="46.43004" lon="4.93157">
        <ele>191</ele>
        <time>2024-09-18T15:18:42Z</time>
      </trkpt>
      <trkpt lat="46.43005" lon="4.93156">
        <ele>191</ele>
        <time>2024-09-18T15:18:43Z</time>
      </trkpt>
      <trkpt lat="46.43007" lon="4.93154">
        <ele>191</ele>
        <time>2024-09-18T15:18:44Z</time>
      </trkpt>
      <trkpt lat="46.43008" lon="4.93152">
        <ele>191</ele>
        <time>2024-09-18T15:18:45Z</time>
      </trkpt>
      <trkpt lat="46.43009" lon="4.93151">
        <ele>191</ele>
        <time>2024-09-18T15:18:46Z</time>
      </trkpt>
      <trkpt lat="46.43011" lon="4.9315">
        <ele>191</ele>
        <time>2024-09-18T15:18:47Z</time>
      </trkpt>
      <trkpt lat="46.43012" lon="4.93148">
        <ele>190.8</ele>
        <time>2024-09-18T15:18:48Z</time>
      </trkpt>
      <trkpt lat="46.43013" lon="4.93146">
        <ele>190.8</ele>
        <time>2024-09-18T15:18:49Z</time>
      </trkpt>
      <trkpt lat="46.43015" lon="4.93144">
        <ele>190.8</ele>
        <time>2024-09-18T15:18:50Z</time>
      </trkpt>
      <trkpt lat="46.43016" lon="4.93142">
        <ele>190.8</ele>
        <time>2024-09-18T15:18:51Z</time>
      </trkpt>
      <trkpt lat="46.43018" lon="4.93141">
        <ele>191.2</ele>
        <time>2024-09-18T15:18:52Z</time>
      </trkpt>
      <trkpt lat="46.43019" lon="4.93139">
        <ele>191.2</ele>
        <time>2024-09-18T15:18:53Z</time>
      </trkpt>
      <trkpt lat="46.43021" lon="4.93137">
        <ele>191.2</ele>
        <time>2024-09-18T15:18:54Z</time>
      </trkpt>
      <trkpt lat="46.43023" lon="4.93135">
        <ele>191.4</ele>
        <time>2024-09-18T15:18:55Z</time>
      </trkpt>
      <trkpt lat="46.43024" lon="4.93134">
        <ele>191.4</ele>
        <time>2024-09-18T15:18:56Z</time>
      </trkpt>
      <trkpt lat="46.43025" lon="4.93133">
        <ele>191</ele>
        <time>2024-09-18T15:18:57Z</time>
      </trkpt>
      <trkpt lat="46.43027" lon="4.93132">
        <ele>191</ele>
        <time>2024-09-18T15:18:58Z</time>
      </trkpt>
      <trkpt lat="46.43029" lon="4.93131">
        <ele>191</ele>
        <time>2024-09-18T15:18:59Z</time>
      </trkpt>
      <trkpt lat="46.4303" lon="4.93129">
        <ele>191</ele>
        <time>2024-09-18T15:19:00Z</time>
      </trkpt>
      <trkpt lat="46.43032" lon="4.93128">
        <ele>191</ele>
        <time>2024-09-18T15:19:01Z</time>
      </trkpt>
      <trkpt lat="46.43034" lon="4.93126">
        <ele>191.4</ele>
        <time>2024-09-18T15:19:02Z</time>
      </trkpt>
      <trkpt lat="46.43036" lon="4.93125">
        <ele>191.4</ele>
        <time>2024-09-18T15:19:03Z</time>
      </trkpt>
      <trkpt lat="46.43038" lon="4.93124">
        <ele>191.4</ele>
        <time>2024-09-18T15:19:04Z</time>
      </trkpt>
      <trkpt lat="46.4304" lon="4.93123">
        <ele>191.4</ele>
        <time>2024-09-18T15:19:05Z</time>
      </trkpt>
      <trkpt lat="46.43041" lon="4.93122">
        <ele>191.2</ele>
        <time>2024-09-18T15:19:06Z</time>
      </trkpt>
      <trkpt lat="46.43043" lon="4.9312">
        <ele>191.2</ele>
        <time>2024-09-18T15:19:07Z</time>
      </trkpt>
      <trkpt lat="46.43044" lon="4.93118">
        <ele>191.2</ele>
        <time>2024-09-18T15:19:08Z</time>
      </trkpt>
      <trkpt lat="46.43044" lon="4.93117">
        <ele>191.6</ele>
        <time>2024-09-18T15:19:09Z</time>
      </trkpt>
      <trkpt lat="46.43044" lon="4.93117">
        <ele>191.6</ele>
        <time>2024-09-18T15:19:10Z</time>
      </trkpt>
      <trkpt lat="46.43044" lon="4.93117">
        <ele>191.4</ele>
        <time>2024-09-18T15:19:11Z</time>
      </trkpt>
      <trkpt lat="46.43045" lon="4.93113">
        <ele>191.2</ele>
        <time>2024-09-18T15:19:22Z</time>
      </trkpt>
      <trkpt lat="46.43045" lon="4.93112">
        <ele>191.4</ele>
        <time>2024-09-18T15:19:23Z</time>
      </trkpt>
      <trkpt lat="46.43044" lon="4.93111">
        <ele>191.4</ele>
        <time>2024-09-18T15:19:24Z</time>
      </trkpt>
      <trkpt lat="46.43044" lon="4.93109">
        <ele>191.4</ele>
        <time>2024-09-18T15:19:25Z</time>
      </trkpt>
      <trkpt lat="46.43044" lon="4.93108">
        <ele>191.4</ele>
        <time>2024-09-18T15:19:26Z</time>
      </trkpt>
      <trkpt lat="46.43044" lon="4.93106">
        <ele>191.4</ele>
        <time>2024-09-18T15:19:27Z</time>
      </trkpt>
      <trkpt lat="46.43043" lon="4.93105">
        <ele>191.6</ele>
        <time>2024-09-18T15:19:28Z</time>
      </trkpt>
      <trkpt lat="46.43043" lon="4.93103">
        <ele>191.6</ele>
        <time>2024-09-18T15:19:29Z</time>
      </trkpt>
      <trkpt lat="46.43043" lon="4.93102">
        <ele>191.6</ele>
        <time>2024-09-18T15:19:30Z</time>
      </trkpt>
      <trkpt lat="46.43043" lon="4.93101">
        <ele>191.6</ele>
        <time>2024-09-18T15:19:31Z</time>
      </trkpt>
      <trkpt lat="46.43043" lon="4.931">
        <ele>191.6</ele>
        <time>2024-09-18T15:19:32Z</time>
      </trkpt>
      <trkpt lat="46.43043" lon="4.931">
        <ele>191.6</ele>
        <time>2024-09-18T15:19:33Z</time>
      </trkpt>
      <trkpt lat="46.43044" lon="4.93102">
        <ele>191.6</ele>
        <time>2024-09-18T15:19:57Z</time>
      </trkpt>
      <trkpt lat="46.43045" lon="4.93104">
        <ele>191.4</ele>
        <time>2024-09-18T15:19:58Z</time>
      </trkpt>
      <trkpt lat="46.43046" lon="4.93105">
        <ele>191.4</ele>
        <time>2024-09-18T15:19:59Z</time>
      </trkpt>
      <trkpt lat="46.43047" lon="4.93106">
        <ele>191.4</ele>
        <time>2024-09-18T15:20:00Z</time>
      </trkpt>
      <trkpt lat="46.43048" lon="4.93107">
        <ele>191.6</ele>
        <time>2024-09-18T15:20:01Z</time>
      </trkpt>
      <trkpt lat="46.43048" lon="4.93107">
        <ele>191.6</ele>
        <time>2024-09-18T15:20:02Z</time>
      </trkpt>
      <trkpt lat="46.43049" lon="4.93108">
        <ele>191.4</ele>
        <time>2024-09-18T15:20:03Z</time>
      </trkpt>
      <trkpt lat="46.43051" lon="4.93109">
        <ele>191.4</ele>
        <time>2024-09-18T15:20:04Z</time>
      </trkpt>
      <trkpt lat="46.43052" lon="4.93109">
        <ele>191.4</ele>
        <time>2024-09-18T15:20:05Z</time>
      </trkpt>
      <trkpt lat="46.43053" lon="4.9311">
        <ele>191.4</ele>
        <time>2024-09-18T15:20:06Z</time>
      </trkpt>
      <trkpt lat="46.43054" lon="4.9311">
        <ele>191.4</ele>
        <time>2024-09-18T15:20:07Z</time>
      </trkpt>
      <trkpt lat="46.43055" lon="4.9311">
        <ele>191.2</ele>
        <time>2024-09-18T15:20:08Z</time>
      </trkpt>
      <trkpt lat="46.43055" lon="4.9311">
        <ele>191.2</ele>
        <time>2024-09-18T15:20:09Z</time>
      </trkpt>
      <trkpt lat="46.43056" lon="4.9311">
        <ele>191.2</ele>
        <time>2024-09-18T15:20:10Z</time>
      </trkpt>
      <trkpt lat="46.43057" lon="4.9311">
        <ele>191.4</ele>
        <time>2024-09-18T15:20:11Z</time>
      </trkpt>
      <trkpt lat="46.43057" lon="4.9311">
        <ele>191.2</ele>
        <time>2024-09-18T15:20:12Z</time>
      </trkpt>
      <trkpt lat="46.4306" lon="4.93112">
        <ele>191.2</ele>
        <time>2024-09-18T15:20:26Z</time>
      </trkpt>
      <trkpt lat="46.4306" lon="4.93112">
        <ele>191.2</ele>
        <time>2024-09-18T15:20:27Z</time>
      </trkpt>
      <trkpt lat="46.4306" lon="4.93114">
        <ele>190.8</ele>
        <time>2024-09-18T15:20:51Z</time>
      </trkpt>
      <trkpt lat="46.4306" lon="4.93115">
        <ele>190.8</ele>
        <time>2024-09-18T15:20:52Z</time>
      </trkpt>
      <trkpt lat="46.4306" lon="4.93116">
        <ele>190.8</ele>
        <time>2024-09-18T15:20:53Z</time>
      </trkpt>
      <trkpt lat="46.4306" lon="4.93117">
        <ele>190.8</ele>
        <time>2024-09-18T15:20:54Z</time>
      </trkpt>
      <trkpt lat="46.4306" lon="4.93118">
        <ele>191</ele>
        <time>2024-09-18T15:20:55Z</time>
      </trkpt>
      <trkpt lat="46.4306" lon="4.93119">
        <ele>191</ele>
        <time>2024-09-18T15:20:56Z</time>
      </trkpt>
      <trkpt lat="46.4306" lon="4.93119">
        <ele>191</ele>
        <time>2024-09-18T15:20:57Z</time>
      </trkpt>
      <trkpt lat="46.4306" lon="4.93119">
        <ele>191</ele>
        <time>2024-09-18T15:21:02Z</time>
      </trkpt>
      <trkpt lat="46.4306" lon="4.93119">
        <ele>191</ele>
        <time>2024-09-18T15:21:03Z</time>
      </trkpt>
      <trkpt lat="46.4306" lon="4.93119">
        <ele>191</ele>
        <time>2024-09-18T15:21:06Z</time>
      </trkpt>
      <trkpt lat="46.4306" lon="4.93119">
        <ele>191</ele>
        <time>2024-09-18T15:21:08Z</time>
      </trkpt>
      <trkpt lat="46.4306" lon="4.93119">
        <ele>191</ele>
        <time>2024-09-18T15:21:09Z</time>
      </trkpt>
      <trkpt lat="46.4306" lon="4.93119">
        <ele>191</ele>
        <time>2024-09-18T15:21:10Z</time>
      </trkpt>
      <trkpt lat="46.4306" lon="4.93119">
        <ele>190.8</ele>
        <time>2024-09-18T15:21:16Z</time>
      </trkpt>
    </trkseg>
  </trk>
</gpx>